<?xml version="1.0" encoding="UTF-8"?> 
<gpx creator="Garmin Connect" version="1.1"   xsi:schemaLocation="http://www.topografix.com/GPX/1/1 http://www.topografix.com/GPX/11.xsd"   xmlns:ns3="http://www.garmin.com/xmlschemas/TrackPointExtension/v1"   xmlns="http://www.topografix.com/GPX/1/1"   xmlns:xsi="http://www.w3.org/2001/XMLSchema-instance" xmlns:ns2="http://www.garmin.com/xmlschemas/GpxExtensions/v3">   
<metadata>
     <link href="http://razmere.e-gora.si"><text>France Sevsek - razmereform.php</text></link>
     <time>2026-02-28T08:50:36.000Z</time>   
</metadata>
   <trk>
     <name>Snežnik (mihaf, 28.02.2026)</name>     <type>backcountry_skiing</type>     <trkseg>
       <trkpt lat="45.5717840977013111114501953125" lon="14.40374580211937427520751953125">         <ele>1282.800048828125</ele>         <time>2026-02-28T08:50:42.000Z</time>         <extensions>           <ns3:TrackPointExtension>             <ns3:hr>74</ns3:hr>           </ns3:TrackPointExtension>         </extensions>       </trkpt>
       <trkpt lat="45.57168125174939632415771484375" lon="14.40377295948565006256103515625">         <ele>1282.5999755859375</ele>         <time>2026-02-28T08:50:49.000Z</time>         <extensions>           <ns3:TrackPointExtension>             <ns3:hr>77</ns3:hr>           </ns3:TrackPointExtension>         </extensions>       </trkpt>
       <trkpt lat="45.57159273885190486907958984375" lon="14.40382383763790130615234375">         <ele>1282.5999755859375</ele>         <time>2026-02-28T08:50:56.000Z</time>         <extensions>           <ns3:TrackPointExtension>             <ns3:hr>79</ns3:hr>           </ns3:TrackPointExtension>         </extensions>       </trkpt>
       <trkpt lat="45.57156558148562908172607421875" lon="14.40385946072638034820556640625">         <ele>1282.5999755859375</ele>         <time>2026-02-28T08:51:04.000Z</time>         <extensions>           <ns3:TrackPointExtension>             <ns3:hr>79</ns3:hr>           </ns3:TrackPointExtension>         </extensions>       </trkpt>
       <trkpt lat="45.571543872356414794921875" lon="14.4038441218435764312744140625">         <ele>1282.5999755859375</ele>         <time>2026-02-28T08:51:12.000Z</time>         <extensions>           <ns3:TrackPointExtension>             <ns3:hr>79</ns3:hr>           </ns3:TrackPointExtension>         </extensions>       </trkpt>
       <trkpt lat="45.571553595364093780517578125" lon="14.40386331640183925628662109375">         <ele>1282.5999755859375</ele>         <time>2026-02-28T08:51:20.000Z</time>         <extensions>           <ns3:TrackPointExtension>             <ns3:hr>77</ns3:hr>           </ns3:TrackPointExtension>         </extensions>       </trkpt>
       <trkpt lat="45.5715574510395526885986328125" lon="14.403893239796161651611328125">         <ele>1282.5999755859375</ele>         <time>2026-02-28T08:51:26.000Z</time>         <extensions>           <ns3:TrackPointExtension>             <ns3:hr>79</ns3:hr>           </ns3:TrackPointExtension>         </extensions>       </trkpt>
       <trkpt lat="45.571562312543392181396484375" lon="14.4038545154035091400146484375">         <ele>1282.800048828125</ele>         <time>2026-02-28T08:51:33.000Z</time>         <extensions>           <ns3:TrackPointExtension>             <ns3:hr>80</ns3:hr>           </ns3:TrackPointExtension>         </extensions>       </trkpt>
       <trkpt lat="45.57156038470566272735595703125" lon="14.40385040827095508575439453125">         <ele>1282.800048828125</ele>         <time>2026-02-28T08:51:41.000Z</time>         <extensions>           <ns3:TrackPointExtension>             <ns3:hr>79</ns3:hr>           </ns3:TrackPointExtension>         </extensions>       </trkpt>
       <trkpt lat="45.57155384682118892669677734375" lon="14.40384085290133953094482421875">         <ele>1282.800048828125</ele>         <time>2026-02-28T08:51:43.000Z</time>         <extensions>           <ns3:TrackPointExtension>             <ns3:hr>76</ns3:hr>           </ns3:TrackPointExtension>         </extensions>       </trkpt>
       <trkpt lat="45.5715554393827915191650390625" lon="14.40385560505092144012451171875">         <ele>1282.5999755859375</ele>         <time>2026-02-28T08:51:48.000Z</time>         <extensions>           <ns3:TrackPointExtension>             <ns3:hr>77</ns3:hr>           </ns3:TrackPointExtension>         </extensions>       </trkpt>
       <trkpt lat="45.5715597979724407196044921875" lon="14.4038411043584346771240234375">         <ele>1282.5999755859375</ele>         <time>2026-02-28T08:51:56.000Z</time>         <extensions>           <ns3:TrackPointExtension>             <ns3:hr>78</ns3:hr>           </ns3:TrackPointExtension>         </extensions>       </trkpt>
       <trkpt lat="45.57155854068696498870849609375" lon="14.40384085290133953094482421875">         <ele>1282.5999755859375</ele>         <time>2026-02-28T08:51:59.000Z</time>         <extensions>           <ns3:TrackPointExtension>             <ns3:hr>82</ns3:hr>           </ns3:TrackPointExtension>         </extensions>       </trkpt>
       <trkpt lat="45.57156826369464397430419921875" lon="14.4038424454629421234130859375">         <ele>1282.5999755859375</ele>         <time>2026-02-28T08:52:04.000Z</time>         <extensions>           <ns3:TrackPointExtension>             <ns3:hr>83</ns3:hr>           </ns3:TrackPointExtension>         </extensions>       </trkpt>
       <trkpt lat="45.57156910188496112823486328125" lon="14.4038172997534275054931640625">         <ele>1282.5999755859375</ele>         <time>2026-02-28T08:52:11.000Z</time>         <extensions>           <ns3:TrackPointExtension>             <ns3:hr>86</ns3:hr>           </ns3:TrackPointExtension>         </extensions>       </trkpt>
       <trkpt lat="45.57157807052135467529296875" lon="14.4038320519030094146728515625">         <ele>1282.5999755859375</ele>         <time>2026-02-28T08:52:12.000Z</time>         <extensions>           <ns3:TrackPointExtension>             <ns3:hr>92</ns3:hr>           </ns3:TrackPointExtension>         </extensions>       </trkpt>
       <trkpt lat="45.57158167473971843719482421875" lon="14.4038374163210391998291015625">         <ele>1282.5999755859375</ele>         <time>2026-02-28T08:52:13.000Z</time>         <extensions>           <ns3:TrackPointExtension>             <ns3:hr>94</ns3:hr>           </ns3:TrackPointExtension>         </extensions>       </trkpt>
       <trkpt lat="45.57158167473971843719482421875" lon="14.4038357399404048919677734375">         <ele>1282.5999755859375</ele>         <time>2026-02-28T08:52:14.000Z</time>         <extensions>           <ns3:TrackPointExtension>             <ns3:hr>97</ns3:hr>           </ns3:TrackPointExtension>         </extensions>       </trkpt>
       <trkpt lat="45.57158217765390872955322265625" lon="14.40383314155042171478271484375">         <ele>1282.5999755859375</ele>         <time>2026-02-28T08:52:15.000Z</time>         <extensions>           <ns3:TrackPointExtension>             <ns3:hr>100</ns3:hr>           </ns3:TrackPointExtension>         </extensions>       </trkpt>
       <trkpt lat="45.571576394140720367431640625" lon="14.4038176350295543670654296875">         <ele>1282.5999755859375</ele>         <time>2026-02-28T08:52:19.000Z</time>         <extensions>           <ns3:TrackPointExtension>             <ns3:hr>103</ns3:hr>           </ns3:TrackPointExtension>         </extensions>       </trkpt>
       <trkpt lat="45.57156910188496112823486328125" lon="14.40380263142287731170654296875">         <ele>1282.5999755859375</ele>         <time>2026-02-28T08:52:21.000Z</time>         <extensions>           <ns3:TrackPointExtension>             <ns3:hr>104</ns3:hr>           </ns3:TrackPointExtension>         </extensions>       </trkpt>
       <trkpt lat="45.571561641991138458251953125" lon="14.40381671302020549774169921875">         <ele>1282.5999755859375</ele>         <time>2026-02-28T08:52:26.000Z</time>         <extensions>           <ns3:TrackPointExtension>             <ns3:hr>107</ns3:hr>           </ns3:TrackPointExtension>         </extensions>       </trkpt>
       <trkpt lat="45.57155300863087177276611328125" lon="14.40385309047996997833251953125">         <ele>1282.5999755859375</ele>         <time>2026-02-28T08:52:31.000Z</time>         <extensions>           <ns3:TrackPointExtension>             <ns3:hr>105</ns3:hr>           </ns3:TrackPointExtension>         </extensions>       </trkpt>
       <trkpt lat="45.57154144160449504852294921875" lon="14.40387547016143798828125">         <ele>1282.5999755859375</ele>         <time>2026-02-28T08:52:39.000Z</time>         <extensions>           <ns3:TrackPointExtension>             <ns3:hr>108</ns3:hr>           </ns3:TrackPointExtension>         </extensions>       </trkpt>
       <trkpt lat="45.57153942994773387908935546875" lon="14.403871782124042510986328125">         <ele>1282.5999755859375</ele>         <time>2026-02-28T08:52:40.000Z</time>         <extensions>           <ns3:TrackPointExtension>             <ns3:hr>108</ns3:hr>           </ns3:TrackPointExtension>         </extensions>       </trkpt>
       <trkpt lat="45.571520067751407623291015625" lon="14.403807409107685089111328125">         <ele>1282.4000244140625</ele>         <time>2026-02-28T08:52:47.000Z</time>         <extensions>           <ns3:TrackPointExtension>             <ns3:hr>105</ns3:hr>           </ns3:TrackPointExtension>         </extensions>       </trkpt>
       <trkpt lat="45.5715188942849636077880859375" lon="14.403801374137401580810546875">         <ele>1282.4000244140625</ele>         <time>2026-02-28T08:52:48.000Z</time>         <extensions>           <ns3:TrackPointExtension>             <ns3:hr>104</ns3:hr>           </ns3:TrackPointExtension>         </extensions>       </trkpt>
       <trkpt lat="45.57153926230967044830322265625" lon="14.4038164615631103515625">         <ele>1282.5999755859375</ele>         <time>2026-02-28T08:52:55.000Z</time>         <extensions>           <ns3:TrackPointExtension>             <ns3:hr>101</ns3:hr>           </ns3:TrackPointExtension>         </extensions>       </trkpt>
       <trkpt lat="45.57154119014739990234375" lon="14.40382408909499645233154296875">         <ele>1282.5999755859375</ele>         <time>2026-02-28T08:52:56.000Z</time>         <extensions>           <ns3:TrackPointExtension>             <ns3:hr>98</ns3:hr>           </ns3:TrackPointExtension>         </extensions>       </trkpt>
       <trkpt lat="45.5715443752706050872802734375" lon="14.4038216583430767059326171875">         <ele>1282.4000244140625</ele>         <time>2026-02-28T08:52:57.000Z</time>         <extensions>           <ns3:TrackPointExtension>             <ns3:hr>99</ns3:hr>           </ns3:TrackPointExtension>         </extensions>       </trkpt>
       <trkpt lat="45.57155770249664783477783203125" lon="14.403846971690654754638671875">         <ele>1282.4000244140625</ele>         <time>2026-02-28T08:53:01.000Z</time>         <extensions>           <ns3:TrackPointExtension>             <ns3:hr>103</ns3:hr>           </ns3:TrackPointExtension>         </extensions>       </trkpt>
       <trkpt lat="45.5715671740472316741943359375" lon="14.40387547016143798828125">         <ele>1282.5999755859375</ele>         <time>2026-02-28T08:53:05.000Z</time>         <extensions>           <ns3:TrackPointExtension>             <ns3:hr>104</ns3:hr>           </ns3:TrackPointExtension>         </extensions>       </trkpt>
       <trkpt lat="45.5715581215918064117431640625" lon="14.40384085290133953094482421875">         <ele>1282.5999755859375</ele>         <time>2026-02-28T08:53:11.000Z</time>         <extensions>           <ns3:TrackPointExtension>             <ns3:hr>101</ns3:hr>           </ns3:TrackPointExtension>         </extensions>       </trkpt>
       <trkpt lat="45.57155485264956951141357421875" lon="14.40381721593439579010009765625">         <ele>1282.4000244140625</ele>         <time>2026-02-28T08:53:13.000Z</time>         <extensions>           <ns3:TrackPointExtension>             <ns3:hr>95</ns3:hr>           </ns3:TrackPointExtension>         </extensions>       </trkpt>
       <trkpt lat="45.5715584568679332733154296875" lon="14.40380908548831939697265625">         <ele>1282.4000244140625</ele>         <time>2026-02-28T08:53:14.000Z</time>         <extensions>           <ns3:TrackPointExtension>             <ns3:hr>91</ns3:hr>           </ns3:TrackPointExtension>         </extensions>       </trkpt>
       <trkpt lat="45.5715571157634258270263671875" lon="14.40380715765058994293212890625">         <ele>1282.4000244140625</ele>         <time>2026-02-28T08:53:15.000Z</time>         <extensions>           <ns3:TrackPointExtension>             <ns3:hr>88</ns3:hr>           </ns3:TrackPointExtension>         </extensions>       </trkpt>
       <trkpt lat="45.57155988179147243499755859375" lon="14.40380330197513103485107421875">         <ele>1282.4000244140625</ele>         <time>2026-02-28T08:53:16.000Z</time>         <extensions>           <ns3:TrackPointExtension>             <ns3:hr>88</ns3:hr>           </ns3:TrackPointExtension>         </extensions>       </trkpt>
       <trkpt lat="45.57155585847795009613037109375" lon="14.403787963092327117919921875">         <ele>1282.4000244140625</ele>         <time>2026-02-28T08:53:19.000Z</time>         <extensions>           <ns3:TrackPointExtension>             <ns3:hr>87</ns3:hr>           </ns3:TrackPointExtension>         </extensions>       </trkpt>
       <trkpt lat="45.5715530924499034881591796875" lon="14.40378083847463130950927734375">         <ele>1282.4000244140625</ele>         <time>2026-02-28T08:53:21.000Z</time>         <extensions>           <ns3:TrackPointExtension>             <ns3:hr>91</ns3:hr>           </ns3:TrackPointExtension>         </extensions>       </trkpt>
       <trkpt lat="45.571551583707332611083984375" lon="14.40377958118915557861328125">         <ele>1282.4000244140625</ele>         <time>2026-02-28T08:53:22.000Z</time>         <extensions>           <ns3:TrackPointExtension>             <ns3:hr>94</ns3:hr>           </ns3:TrackPointExtension>         </extensions>       </trkpt>
       <trkpt lat="45.5715551041066646575927734375" lon="14.40377262420952320098876953125">         <ele>1282.4000244140625</ele>         <time>2026-02-28T08:53:23.000Z</time>         <extensions>           <ns3:TrackPointExtension>             <ns3:hr>97</ns3:hr>           </ns3:TrackPointExtension>         </extensions>       </trkpt>
       <trkpt lat="45.5715517513453960418701171875" lon="14.40376508049666881561279296875">         <ele>1282.5999755859375</ele>         <time>2026-02-28T08:53:25.000Z</time>         <extensions>           <ns3:TrackPointExtension>             <ns3:hr>100</ns3:hr>           </ns3:TrackPointExtension>         </extensions>       </trkpt>
       <trkpt lat="45.57153473608195781707763671875" lon="14.40376373939216136932373046875">         <ele>1282.4000244140625</ele>         <time>2026-02-28T08:53:27.000Z</time>         <extensions>           <ns3:TrackPointExtension>             <ns3:hr>101</ns3:hr>           </ns3:TrackPointExtension>         </extensions>       </trkpt>
       <trkpt lat="45.571535490453243255615234375" lon="14.4037532620131969451904296875">         <ele>1282.4000244140625</ele>         <time>2026-02-28T08:53:30.000Z</time>         <extensions>           <ns3:TrackPointExtension>             <ns3:hr>104</ns3:hr>           </ns3:TrackPointExtension>         </extensions>       </trkpt>
       <trkpt lat="45.5715272761881351470947265625" lon="14.40375150181353092193603515625">         <ele>1282.4000244140625</ele>         <time>2026-02-28T08:53:35.000Z</time>         <extensions>           <ns3:TrackPointExtension>             <ns3:hr>100</ns3:hr>           </ns3:TrackPointExtension>         </extensions>       </trkpt>
       <trkpt lat="45.5715276114642620086669921875" lon="14.4037505798041820526123046875">         <ele>1282.4000244140625</ele>         <time>2026-02-28T08:53:36.000Z</time>         <extensions>           <ns3:TrackPointExtension>             <ns3:hr>97</ns3:hr>           </ns3:TrackPointExtension>         </extensions>       </trkpt>
       <trkpt lat="45.57152903638780117034912109375" lon="14.403748400509357452392578125">         <ele>1282.199951171875</ele>         <time>2026-02-28T08:53:37.000Z</time>         <extensions>           <ns3:TrackPointExtension>             <ns3:hr>94</ns3:hr>           </ns3:TrackPointExtension>         </extensions>       </trkpt>
       <trkpt lat="45.5715264379978179931640625" lon="14.4037502445280551910400390625">         <ele>1282.199951171875</ele>         <time>2026-02-28T08:53:38.000Z</time>         <extensions>           <ns3:TrackPointExtension>             <ns3:hr>91</ns3:hr>           </ns3:TrackPointExtension>         </extensions>       </trkpt>
       <trkpt lat="45.5715239234268665313720703125" lon="14.4037495739758014678955078125">         <ele>1282.199951171875</ele>         <time>2026-02-28T08:53:40.000Z</time>         <extensions>           <ns3:TrackPointExtension>             <ns3:hr>88</ns3:hr>           </ns3:TrackPointExtension>         </extensions>       </trkpt>
       <trkpt lat="45.571532137691974639892578125" lon="14.40374546684324741363525390625">         <ele>1282.199951171875</ele>         <time>2026-02-28T08:53:43.000Z</time>         <extensions>           <ns3:TrackPointExtension>             <ns3:hr>89</ns3:hr>           </ns3:TrackPointExtension>         </extensions>       </trkpt>
       <trkpt lat="45.57153088040649890899658203125" lon="14.40375217236578464508056640625">         <ele>1282.199951171875</ele>         <time>2026-02-28T08:53:50.000Z</time>         <extensions>           <ns3:TrackPointExtension>             <ns3:hr>90</ns3:hr>           </ns3:TrackPointExtension>         </extensions>       </trkpt>
       <trkpt lat="45.5715390108525753021240234375" lon="14.4037700258195400238037109375">         <ele>1282.800048828125</ele>         <time>2026-02-28T08:53:57.000Z</time>         <extensions>           <ns3:TrackPointExtension>             <ns3:hr>90</ns3:hr>           </ns3:TrackPointExtension>         </extensions>       </trkpt>
       <trkpt lat="45.57155233807861804962158203125" lon="14.403788633644580841064453125">         <ele>1282.4000244140625</ele>         <time>2026-02-28T08:54:05.000Z</time>         <extensions>           <ns3:TrackPointExtension>             <ns3:hr>91</ns3:hr>           </ns3:TrackPointExtension>         </extensions>       </trkpt>
       <trkpt lat="45.57157480157911777496337890625" lon="14.40379810519516468048095703125">         <ele>1282.4000244140625</ele>         <time>2026-02-28T08:54:15.000Z</time>         <extensions>           <ns3:TrackPointExtension>             <ns3:hr>87</ns3:hr>           </ns3:TrackPointExtension>         </extensions>       </trkpt>
       <trkpt lat="45.5715708620846271514892578125" lon="14.40379609353840351104736328125">         <ele>1282.5999755859375</ele>         <time>2026-02-28T08:54:16.000Z</time>         <extensions>           <ns3:TrackPointExtension>             <ns3:hr>83</ns3:hr>           </ns3:TrackPointExtension>         </extensions>       </trkpt>
       <trkpt lat="45.5715654976665973663330078125" lon="14.40379391424357891082763671875">         <ele>1282.5999755859375</ele>         <time>2026-02-28T08:54:17.000Z</time>         <extensions>           <ns3:TrackPointExtension>             <ns3:hr>80</ns3:hr>           </ns3:TrackPointExtension>         </extensions>       </trkpt>
       <trkpt lat="45.57155518792569637298583984375" lon="14.40379341132938861846923828125">         <ele>1282.4000244140625</ele>         <time>2026-02-28T08:54:19.000Z</time>         <extensions>           <ns3:TrackPointExtension>             <ns3:hr>76</ns3:hr>           </ns3:TrackPointExtension>         </extensions>       </trkpt>
       <trkpt lat="45.57155384682118892669677734375" lon="14.40379592590034008026123046875">         <ele>1282.4000244140625</ele>         <time>2026-02-28T08:54:21.000Z</time>         <extensions>           <ns3:TrackPointExtension>             <ns3:hr>73</ns3:hr>           </ns3:TrackPointExtension>         </extensions>       </trkpt>
       <trkpt lat="45.57155124843120574951171875" lon="14.403810091316699981689453125">         <ele>1282.4000244140625</ele>         <time>2026-02-28T08:54:23.000Z</time>         <extensions>           <ns3:TrackPointExtension>             <ns3:hr>72</ns3:hr>           </ns3:TrackPointExtension>         </extensions>       </trkpt>
       <trkpt lat="45.5715433694422245025634765625" lon="14.40384906716644763946533203125">         <ele>1282.5999755859375</ele>         <time>2026-02-28T08:54:31.000Z</time>         <extensions>           <ns3:TrackPointExtension>             <ns3:hr>75</ns3:hr>           </ns3:TrackPointExtension>         </extensions>       </trkpt>
       <trkpt lat="45.57155166752636432647705078125" lon="14.403849653899669647216796875">         <ele>1282.5999755859375</ele>         <time>2026-02-28T08:54:33.000Z</time>         <extensions>           <ns3:TrackPointExtension>             <ns3:hr>78</ns3:hr>           </ns3:TrackPointExtension>         </extensions>       </trkpt>
       <trkpt lat="45.57156105525791645050048828125" lon="14.40383833833038806915283203125">         <ele>1282.5999755859375</ele>         <time>2026-02-28T08:54:36.000Z</time>         <extensions>           <ns3:TrackPointExtension>             <ns3:hr>81</ns3:hr>           </ns3:TrackPointExtension>         </extensions>       </trkpt>
       <trkpt lat="45.5715666711330413818359375" lon="14.403818808495998382568359375">         <ele>1282.5999755859375</ele>         <time>2026-02-28T08:54:39.000Z</time>         <extensions>           <ns3:TrackPointExtension>             <ns3:hr>82</ns3:hr>           </ns3:TrackPointExtension>         </extensions>       </trkpt>
       <trkpt lat="45.5715440399944782257080078125" lon="14.4038038887083530426025390625">         <ele>1282.4000244140625</ele>         <time>2026-02-28T08:54:47.000Z</time>         <extensions>           <ns3:TrackPointExtension>             <ns3:hr>82</ns3:hr>           </ns3:TrackPointExtension>         </extensions>       </trkpt>
       <trkpt lat="45.571540184319019317626953125" lon="14.40378452651202678680419921875">         <ele>1282.5999755859375</ele>         <time>2026-02-28T08:54:50.000Z</time>         <extensions>           <ns3:TrackPointExtension>             <ns3:hr>85</ns3:hr>           </ns3:TrackPointExtension>         </extensions>       </trkpt>
       <trkpt lat="45.571528114378452301025390625" lon="14.4037757255136966705322265625">         <ele>1282.800048828125</ele>         <time>2026-02-28T08:54:54.000Z</time>         <extensions>           <ns3:TrackPointExtension>             <ns3:hr>88</ns3:hr>           </ns3:TrackPointExtension>         </extensions>       </trkpt>
       <trkpt lat="45.5715210735797882080078125" lon="14.403733313083648681640625">         <ele>1282.5999755859375</ele>         <time>2026-02-28T08:55:05.000Z</time>         <extensions>           <ns3:TrackPointExtension>             <ns3:hr>90</ns3:hr>           </ns3:TrackPointExtension>         </extensions>       </trkpt>
       <trkpt lat="45.5715296231210231781005859375" lon="14.40372333861887454986572265625">         <ele>1282.4000244140625</ele>         <time>2026-02-28T08:55:11.000Z</time>         <extensions>           <ns3:TrackPointExtension>             <ns3:hr>87</ns3:hr>           </ns3:TrackPointExtension>         </extensions>       </trkpt>
       <trkpt lat="45.5715245939791202545166015625" lon="14.40372568555176258087158203125">         <ele>1282.4000244140625</ele>         <time>2026-02-28T08:55:13.000Z</time>         <extensions>           <ns3:TrackPointExtension>             <ns3:hr>87</ns3:hr>           </ns3:TrackPointExtension>         </extensions>       </trkpt>
       <trkpt lat="45.5715264379978179931640625" lon="14.40372853539884090423583984375">         <ele>1282.4000244140625</ele>         <time>2026-02-28T08:55:19.000Z</time>         <extensions>           <ns3:TrackPointExtension>             <ns3:hr>84</ns3:hr>           </ns3:TrackPointExtension>         </extensions>       </trkpt>
       <trkpt lat="45.57152601890265941619873046875" lon="14.4037304632365703582763671875">         <ele>1282.4000244140625</ele>         <time>2026-02-28T08:55:21.000Z</time>         <extensions>           <ns3:TrackPointExtension>             <ns3:hr>83</ns3:hr>           </ns3:TrackPointExtension>         </extensions>       </trkpt>
       <trkpt lat="45.571527779102325439453125" lon="14.40373255871236324310302734375">         <ele>1282.199951171875</ele>         <time>2026-02-28T08:55:29.000Z</time>         <extensions>           <ns3:TrackPointExtension>             <ns3:hr>80</ns3:hr>           </ns3:TrackPointExtension>         </extensions>       </trkpt>
       <trkpt lat="45.57153440080583095550537109375" lon="14.403735660016536712646484375">         <ele>1281.800048828125</ele>         <time>2026-02-28T08:55:33.000Z</time>         <extensions>           <ns3:TrackPointExtension>             <ns3:hr>83</ns3:hr>           </ns3:TrackPointExtension>         </extensions>       </trkpt>
       <trkpt lat="45.5715359933674335479736328125" lon="14.40373993478715419769287109375">         <ele>1281.800048828125</ele>         <time>2026-02-28T08:55:38.000Z</time>         <extensions>           <ns3:TrackPointExtension>             <ns3:hr>86</ns3:hr>           </ns3:TrackPointExtension>         </extensions>       </trkpt>
       <trkpt lat="45.571545548737049102783203125" lon="14.4037475623190402984619140625">         <ele>1282.4000244140625</ele>         <time>2026-02-28T08:55:43.000Z</time>         <extensions>           <ns3:TrackPointExtension>             <ns3:hr>83</ns3:hr>           </ns3:TrackPointExtension>         </extensions>       </trkpt>
       <trkpt lat="45.5715559422969818115234375" lon="14.403746388852596282958984375">         <ele>1282.4000244140625</ele>         <time>2026-02-28T08:55:45.000Z</time>         <extensions>           <ns3:TrackPointExtension>             <ns3:hr>82</ns3:hr>           </ns3:TrackPointExtension>         </extensions>       </trkpt>
       <trkpt lat="45.57158905081450939178466796875" lon="14.403757117688655853271484375">         <ele>1282.199951171875</ele>         <time>2026-02-28T08:55:51.000Z</time>         <extensions>           <ns3:TrackPointExtension>             <ns3:hr>80</ns3:hr>           </ns3:TrackPointExtension>         </extensions>       </trkpt>
       <trkpt lat="45.571599192917346954345703125" lon="14.40373825840651988983154296875">         <ele>1282.4000244140625</ele>         <time>2026-02-28T08:55:57.000Z</time>         <extensions>           <ns3:TrackPointExtension>             <ns3:hr>77</ns3:hr>           </ns3:TrackPointExtension>         </extensions>       </trkpt>
       <trkpt lat="45.57159827090799808502197265625" lon="14.40373599529266357421875">         <ele>1282.4000244140625</ele>         <time>2026-02-28T08:55:59.000Z</time>         <extensions>           <ns3:TrackPointExtension>             <ns3:hr>78</ns3:hr>           </ns3:TrackPointExtension>         </extensions>       </trkpt>
       <trkpt lat="45.57159005664288997650146484375" lon="14.40373473800718784332275390625">         <ele>1282.4000244140625</ele>         <time>2026-02-28T08:56:08.000Z</time>         <extensions>           <ns3:TrackPointExtension>             <ns3:hr>77</ns3:hr>           </ns3:TrackPointExtension>         </extensions>       </trkpt>
       <trkpt lat="45.57156155817210674285888671875" lon="14.403761811554431915283203125">         <ele>1282.4000244140625</ele>         <time>2026-02-28T08:56:15.000Z</time>         <extensions>           <ns3:TrackPointExtension>             <ns3:hr>76</ns3:hr>           </ns3:TrackPointExtension>         </extensions>       </trkpt>
       <trkpt lat="45.5715490691363811492919921875" lon="14.4037730433046817779541015625">         <ele>1282.4000244140625</ele>         <time>2026-02-28T08:56:18.000Z</time>         <extensions>           <ns3:TrackPointExtension>             <ns3:hr>73</ns3:hr>           </ns3:TrackPointExtension>         </extensions>       </trkpt>
       <trkpt lat="45.571558289229869842529296875" lon="14.4037670083343982696533203125">         <ele>1282.4000244140625</ele>         <time>2026-02-28T08:56:21.000Z</time>         <extensions>           <ns3:TrackPointExtension>             <ns3:hr>76</ns3:hr>           </ns3:TrackPointExtension>         </extensions>       </trkpt>
       <trkpt lat="45.57156558148562908172607421875" lon="14.40377295948565006256103515625">         <ele>1282.4000244140625</ele>         <time>2026-02-28T08:56:22.000Z</time>         <extensions>           <ns3:TrackPointExtension>             <ns3:hr>80</ns3:hr>           </ns3:TrackPointExtension>         </extensions>       </trkpt>
       <trkpt lat="45.571568012237548828125" lon="14.40377798862755298614501953125">         <ele>1282.199951171875</ele>         <time>2026-02-28T08:56:23.000Z</time>         <extensions>           <ns3:TrackPointExtension>             <ns3:hr>85</ns3:hr>           </ns3:TrackPointExtension>         </extensions>       </trkpt>
       <trkpt lat="45.57156507857143878936767578125" lon="14.40378050319850444793701171875">         <ele>1282.199951171875</ele>         <time>2026-02-28T08:56:24.000Z</time>         <extensions>           <ns3:TrackPointExtension>             <ns3:hr>90</ns3:hr>           </ns3:TrackPointExtension>         </extensions>       </trkpt>
       <trkpt lat="45.57155652903020381927490234375" lon="14.40380162559449672698974609375">         <ele>1282.4000244140625</ele>         <time>2026-02-28T08:56:28.000Z</time>         <extensions>           <ns3:TrackPointExtension>             <ns3:hr>92</ns3:hr>           </ns3:TrackPointExtension>         </extensions>       </trkpt>
       <trkpt lat="45.57152283377945423126220703125" lon="14.40379760228097438812255859375">         <ele>1282.199951171875</ele>         <time>2026-02-28T08:56:35.000Z</time>         <extensions>           <ns3:TrackPointExtension>             <ns3:hr>91</ns3:hr>           </ns3:TrackPointExtension>         </extensions>       </trkpt>
       <trkpt lat="45.57152635417878627777099609375" lon="14.403821490705013275146484375">         <ele>1282.4000244140625</ele>         <time>2026-02-28T08:56:41.000Z</time>         <extensions>           <ns3:TrackPointExtension>             <ns3:hr>87</ns3:hr>           </ns3:TrackPointExtension>         </extensions>       </trkpt>
       <trkpt lat="45.5715272761881351470947265625" lon="14.40382828004658222198486328125">         <ele>1282.199951171875</ele>         <time>2026-02-28T08:56:42.000Z</time>         <extensions>           <ns3:TrackPointExtension>             <ns3:hr>87</ns3:hr>           </ns3:TrackPointExtension>         </extensions>       </trkpt>
       <trkpt lat="45.5715316347777843475341796875" lon="14.40383465029299259185791015625">         <ele>1282.199951171875</ele>         <time>2026-02-28T08:56:43.000Z</time>         <extensions>           <ns3:TrackPointExtension>             <ns3:hr>92</ns3:hr>           </ns3:TrackPointExtension>         </extensions>       </trkpt>
       <trkpt lat="45.5715346522629261016845703125" lon="14.403831548988819122314453125">         <ele>1282.199951171875</ele>         <time>2026-02-28T08:56:44.000Z</time>         <extensions>           <ns3:TrackPointExtension>             <ns3:hr>95</ns3:hr>           </ns3:TrackPointExtension>         </extensions>       </trkpt>
       <trkpt lat="45.5715380050241947174072265625" lon="14.403828196227550506591796875">         <ele>1282.199951171875</ele>         <time>2026-02-28T08:56:46.000Z</time>         <extensions>           <ns3:TrackPointExtension>             <ns3:hr>99</ns3:hr>           </ns3:TrackPointExtension>         </extensions>       </trkpt>
       <trkpt lat="45.57154613547027111053466796875" lon="14.403824843466281890869140625">         <ele>1282.199951171875</ele>         <time>2026-02-28T08:56:49.000Z</time>         <extensions>           <ns3:TrackPointExtension>             <ns3:hr>102</ns3:hr>           </ns3:TrackPointExtension>         </extensions>       </trkpt>
       <trkpt lat="45.5715483985841274261474609375" lon="14.40382643602788448333740234375">         <ele>1282.199951171875</ele>         <time>2026-02-28T08:56:50.000Z</time>         <extensions>           <ns3:TrackPointExtension>             <ns3:hr>103</ns3:hr>           </ns3:TrackPointExtension>         </extensions>       </trkpt>
       <trkpt lat="45.5715507455170154571533203125" lon="14.4038169644773006439208984375">         <ele>1282.199951171875</ele>         <time>2026-02-28T08:56:57.000Z</time>         <extensions>           <ns3:TrackPointExtension>             <ns3:hr>105</ns3:hr>           </ns3:TrackPointExtension>         </extensions>       </trkpt>
       <trkpt lat="45.5715621449053287506103515625" lon="14.40380447544157505035400390625">         <ele>1282.199951171875</ele>         <time>2026-02-28T08:57:06.000Z</time>         <extensions>           <ns3:TrackPointExtension>             <ns3:hr>107</ns3:hr>           </ns3:TrackPointExtension>         </extensions>       </trkpt>
       <trkpt lat="45.57157295756042003631591796875" lon="14.4038022123277187347412109375">         <ele>1282.199951171875</ele>         <time>2026-02-28T08:57:09.000Z</time>         <extensions>           <ns3:TrackPointExtension>             <ns3:hr>103</ns3:hr>           </ns3:TrackPointExtension>         </extensions>       </trkpt>
       <trkpt lat="45.57157538831233978271484375" lon="14.40380581654608249664306640625">         <ele>1282.199951171875</ele>         <time>2026-02-28T08:57:10.000Z</time>         <extensions>           <ns3:TrackPointExtension>             <ns3:hr>100</ns3:hr>           </ns3:TrackPointExtension>         </extensions>       </trkpt>
       <trkpt lat="45.57160899974405765533447265625" lon="14.40381956286728382110595703125">         <ele>1282.199951171875</ele>         <time>2026-02-28T08:57:12.000Z</time>         <extensions>           <ns3:TrackPointExtension>             <ns3:hr>97</ns3:hr>           </ns3:TrackPointExtension>         </extensions>       </trkpt>
       <trkpt lat="45.57161604054272174835205078125" lon="14.4038330577313899993896484375">         <ele>1282.199951171875</ele>         <time>2026-02-28T08:57:14.000Z</time>         <extensions>           <ns3:TrackPointExtension>             <ns3:hr>97</ns3:hr>           </ns3:TrackPointExtension>         </extensions>       </trkpt>
       <trkpt lat="45.5716469697654247283935546875" lon="14.40384672023355960845947265625">         <ele>1282.199951171875</ele>         <time>2026-02-28T08:57:20.000Z</time>         <extensions>           <ns3:TrackPointExtension>             <ns3:hr>99</ns3:hr>           </ns3:TrackPointExtension>         </extensions>       </trkpt>
       <trkpt lat="45.57165342383086681365966796875" lon="14.40385124646127223968505859375">         <ele>1282.199951171875</ele>         <time>2026-02-28T08:57:23.000Z</time>         <extensions>           <ns3:TrackPointExtension>             <ns3:hr>102</ns3:hr>           </ns3:TrackPointExtension>         </extensions>       </trkpt>
       <trkpt lat="45.57166214101016521453857421875" lon="14.4038464687764644622802734375">         <ele>1281.800048828125</ele>         <time>2026-02-28T08:57:27.000Z</time>         <extensions>           <ns3:TrackPointExtension>             <ns3:hr>102</ns3:hr>           </ns3:TrackPointExtension>         </extensions>       </trkpt>
       <trkpt lat="45.571654178202152252197265625" lon="14.40385594032704830169677734375">         <ele>1281.800048828125</ele>         <time>2026-02-28T08:57:33.000Z</time>         <extensions>           <ns3:TrackPointExtension>             <ns3:hr>99</ns3:hr>           </ns3:TrackPointExtension>         </extensions>       </trkpt>
       <trkpt lat="45.57164135389029979705810546875" lon="14.40386096946895122528076171875">         <ele>1281.800048828125</ele>         <time>2026-02-28T08:57:36.000Z</time>         <extensions>           <ns3:TrackPointExtension>             <ns3:hr>97</ns3:hr>           </ns3:TrackPointExtension>         </extensions>       </trkpt>
       <trkpt lat="45.571643449366092681884765625" lon="14.4038575328886508941650390625">         <ele>1282</ele>         <time>2026-02-28T08:57:41.000Z</time>         <extensions>           <ns3:TrackPointExtension>             <ns3:hr>93</ns3:hr>           </ns3:TrackPointExtension>         </extensions>       </trkpt>
       <trkpt lat="45.57164085097610950469970703125" lon="14.40385560505092144012451171875">         <ele>1282</ele>         <time>2026-02-28T08:57:42.000Z</time>         <extensions>           <ns3:TrackPointExtension>             <ns3:hr>90</ns3:hr>           </ns3:TrackPointExtension>         </extensions>       </trkpt>
       <trkpt lat="45.57163364253938198089599609375" lon="14.40385459922254085540771484375">         <ele>1282</ele>         <time>2026-02-28T08:57:43.000Z</time>         <extensions>           <ns3:TrackPointExtension>             <ns3:hr>85</ns3:hr>           </ns3:TrackPointExtension>         </extensions>       </trkpt>
       <trkpt lat="45.5716161243617534637451171875" lon="14.40384789370000362396240234375">         <ele>1282.199951171875</ele>         <time>2026-02-28T08:57:45.000Z</time>         <extensions>           <ns3:TrackPointExtension>             <ns3:hr>82</ns3:hr>           </ns3:TrackPointExtension>         </extensions>       </trkpt>
       <trkpt lat="45.5715839378535747528076171875" lon="14.403831548988819122314453125">         <ele>1282.4000244140625</ele>         <time>2026-02-28T08:57:52.000Z</time>         <extensions>           <ns3:TrackPointExtension>             <ns3:hr>80</ns3:hr>           </ns3:TrackPointExtension>         </extensions>       </trkpt>
       <trkpt lat="45.57157899253070354461669921875" lon="14.40380497835576534271240234375">         <ele>1282.199951171875</ele>         <time>2026-02-28T08:57:59.000Z</time>         <extensions>           <ns3:TrackPointExtension>             <ns3:hr>80</ns3:hr>           </ns3:TrackPointExtension>         </extensions>       </trkpt>
       <trkpt lat="45.5715524218976497650146484375" lon="14.403828866779804229736328125">         <ele>1282.199951171875</ele>         <time>2026-02-28T08:58:08.000Z</time>         <extensions>           <ns3:TrackPointExtension>             <ns3:hr>82</ns3:hr>           </ns3:TrackPointExtension>         </extensions>       </trkpt>
       <trkpt lat="45.57159491814672946929931640625" lon="14.40382844768464565277099609375">         <ele>1281.800048828125</ele>         <time>2026-02-28T08:58:16.000Z</time>         <extensions>           <ns3:TrackPointExtension>             <ns3:hr>82</ns3:hr>           </ns3:TrackPointExtension>         </extensions>       </trkpt>
       <trkpt lat="45.571608245372772216796875" lon="14.4038204848766326904296875">         <ele>1281.800048828125</ele>         <time>2026-02-28T08:58:18.000Z</time>         <extensions>           <ns3:TrackPointExtension>             <ns3:hr>83</ns3:hr>           </ns3:TrackPointExtension>         </extensions>       </trkpt>
       <trkpt lat="45.5716345645487308502197265625" lon="14.40380581654608249664306640625">         <ele>1281.800048828125</ele>         <time>2026-02-28T08:58:23.000Z</time>         <extensions>           <ns3:TrackPointExtension>             <ns3:hr>80</ns3:hr>           </ns3:TrackPointExtension>         </extensions>       </trkpt>
       <trkpt lat="45.57163976132869720458984375" lon="14.4038102589547634124755859375">         <ele>1281.800048828125</ele>         <time>2026-02-28T08:58:25.000Z</time>         <extensions>           <ns3:TrackPointExtension>             <ns3:hr>79</ns3:hr>           </ns3:TrackPointExtension>         </extensions>       </trkpt>
       <trkpt lat="45.57163816876709461212158203125" lon="14.40382056869566440582275390625">         <ele>1281.800048828125</ele>         <time>2026-02-28T08:58:28.000Z</time>         <extensions>           <ns3:TrackPointExtension>             <ns3:hr>76</ns3:hr>           </ns3:TrackPointExtension>         </extensions>       </trkpt>
       <trkpt lat="45.5716369114816188812255859375" lon="14.40381822176277637481689453125">         <ele>1281.800048828125</ele>         <time>2026-02-28T08:58:32.000Z</time>         <extensions>           <ns3:TrackPointExtension>             <ns3:hr>72</ns3:hr>           </ns3:TrackPointExtension>         </extensions>       </trkpt>
       <trkpt lat="45.571631379425525665283203125" lon="14.40382517874240875244140625">         <ele>1281.800048828125</ele>         <time>2026-02-28T08:58:34.000Z</time>         <extensions>           <ns3:TrackPointExtension>             <ns3:hr>73</ns3:hr>           </ns3:TrackPointExtension>         </extensions>       </trkpt>
       <trkpt lat="45.571627356112003326416015625" lon="14.40383054316043853759765625">         <ele>1281.800048828125</ele>         <time>2026-02-28T08:58:35.000Z</time>         <extensions>           <ns3:TrackPointExtension>             <ns3:hr>76</ns3:hr>           </ns3:TrackPointExtension>         </extensions>       </trkpt>
       <trkpt lat="45.5716204829514026641845703125" lon="14.4038392603397369384765625">         <ele>1281.800048828125</ele>         <time>2026-02-28T08:58:36.000Z</time>         <extensions>           <ns3:TrackPointExtension>             <ns3:hr>80</ns3:hr>           </ns3:TrackPointExtension>         </extensions>       </trkpt>
       <trkpt lat="45.571613609790802001953125" lon="14.403846301138401031494140625">         <ele>1281.800048828125</ele>         <time>2026-02-28T08:58:37.000Z</time>         <extensions>           <ns3:TrackPointExtension>             <ns3:hr>85</ns3:hr>           </ns3:TrackPointExtension>         </extensions>       </trkpt>
       <trkpt lat="45.5716057308018207550048828125" lon="14.4038585387170314788818359375">         <ele>1282</ele>         <time>2026-02-28T08:58:40.000Z</time>         <extensions>           <ns3:TrackPointExtension>             <ns3:hr>88</ns3:hr>           </ns3:TrackPointExtension>         </extensions>       </trkpt>
       <trkpt lat="45.57161671109497547149658203125" lon="14.40385476686060428619384765625">         <ele>1282.199951171875</ele>         <time>2026-02-28T08:58:44.000Z</time>         <extensions>           <ns3:TrackPointExtension>             <ns3:hr>89</ns3:hr>           </ns3:TrackPointExtension>         </extensions>       </trkpt>
       <trkpt lat="45.5716231651604175567626953125" lon="14.40384990535676479339599609375">         <ele>1282.199951171875</ele>         <time>2026-02-28T08:58:47.000Z</time>         <extensions>           <ns3:TrackPointExtension>             <ns3:hr>86</ns3:hr>           </ns3:TrackPointExtension>         </extensions>       </trkpt>
       <trkpt lat="45.571638755500316619873046875" lon="14.403854347765445709228515625">         <ele>1282.199951171875</ele>         <time>2026-02-28T08:58:50.000Z</time>         <extensions>           <ns3:TrackPointExtension>             <ns3:hr>83</ns3:hr>           </ns3:TrackPointExtension>         </extensions>       </trkpt>
       <trkpt lat="45.5716446228325366973876953125" lon="14.40384470857679843902587890625">         <ele>1282</ele>         <time>2026-02-28T08:58:54.000Z</time>         <extensions>           <ns3:TrackPointExtension>             <ns3:hr>82</ns3:hr>           </ns3:TrackPointExtension>         </extensions>       </trkpt>
       <trkpt lat="45.57163112796843051910400390625" lon="14.40384571440517902374267578125">         <ele>1282.199951171875</ele>         <time>2026-02-28T08:59:06.000Z</time>         <extensions>           <ns3:TrackPointExtension>             <ns3:hr>84</ns3:hr>           </ns3:TrackPointExtension>         </extensions>       </trkpt>
       <trkpt lat="45.57160983793437480926513671875" lon="14.40387521870434284210205078125">         <ele>1282</ele>         <time>2026-02-28T08:59:14.000Z</time>         <extensions>           <ns3:TrackPointExtension>             <ns3:hr>87</ns3:hr>           </ns3:TrackPointExtension>         </extensions>       </trkpt>
       <trkpt lat="45.57160799391567707061767578125" lon="14.403861053287982940673828125">         <ele>1282.199951171875</ele>         <time>2026-02-28T08:59:18.000Z</time>         <extensions>           <ns3:TrackPointExtension>             <ns3:hr>90</ns3:hr>           </ns3:TrackPointExtension>         </extensions>       </trkpt>
       <trkpt lat="45.571605227887630462646484375" lon="14.403863735496997833251953125">         <ele>1282.4000244140625</ele>         <time>2026-02-28T08:59:21.000Z</time>         <extensions>           <ns3:TrackPointExtension>             <ns3:hr>91</ns3:hr>           </ns3:TrackPointExtension>         </extensions>       </trkpt>
       <trkpt lat="45.571605227887630462646484375" lon="14.40384403802454471588134765625">         <ele>1282.199951171875</ele>         <time>2026-02-28T08:59:27.000Z</time>         <extensions>           <ns3:TrackPointExtension>             <ns3:hr>94</ns3:hr>           </ns3:TrackPointExtension>         </extensions>       </trkpt>
       <trkpt lat="45.5716042220592498779296875" lon="14.40384672023355960845947265625">         <ele>1282.199951171875</ele>         <time>2026-02-28T08:59:33.000Z</time>         <extensions>           <ns3:TrackPointExtension>             <ns3:hr>97</ns3:hr>           </ns3:TrackPointExtension>         </extensions>       </trkpt>
       <trkpt lat="45.5716067366302013397216796875" lon="14.40385191701352596282958984375">         <ele>1282.199951171875</ele>         <time>2026-02-28T08:59:35.000Z</time>         <extensions>           <ns3:TrackPointExtension>             <ns3:hr>97</ns3:hr>           </ns3:TrackPointExtension>         </extensions>       </trkpt>
       <trkpt lat="45.5715943314135074615478515625" lon="14.403878487646579742431640625">         <ele>1282.199951171875</ele>         <time>2026-02-28T08:59:43.000Z</time>         <extensions>           <ns3:TrackPointExtension>             <ns3:hr>93</ns3:hr>           </ns3:TrackPointExtension>         </extensions>       </trkpt>
       <trkpt lat="45.57159458287060260772705078125" lon="14.40387739799916744232177734375">         <ele>1282.199951171875</ele>         <time>2026-02-28T08:59:44.000Z</time>         <extensions>           <ns3:TrackPointExtension>             <ns3:hr>92</ns3:hr>           </ns3:TrackPointExtension>         </extensions>       </trkpt>
       <trkpt lat="45.57159726507961750030517578125" lon="14.4038585387170314788818359375">         <ele>1282.199951171875</ele>         <time>2026-02-28T08:59:49.000Z</time>         <extensions>           <ns3:TrackPointExtension>             <ns3:hr>89</ns3:hr>           </ns3:TrackPointExtension>         </extensions>       </trkpt>
       <trkpt lat="45.5715973488986492156982421875" lon="14.40385778434574604034423828125">         <ele>1282.199951171875</ele>         <time>2026-02-28T08:59:52.000Z</time>         <extensions>           <ns3:TrackPointExtension>             <ns3:hr>88</ns3:hr>           </ns3:TrackPointExtension>         </extensions>       </trkpt>
       <trkpt lat="45.571592152118682861328125" lon="14.40385124646127223968505859375">         <ele>1282.4000244140625</ele>         <time>2026-02-28T08:59:56.000Z</time>         <extensions>           <ns3:TrackPointExtension>             <ns3:hr>91</ns3:hr>           </ns3:TrackPointExtension>         </extensions>       </trkpt>
       <trkpt lat="45.571598522365093231201171875" lon="14.40384152345359325408935546875">         <ele>1282.4000244140625</ele>         <time>2026-02-28T08:59:58.000Z</time>         <extensions>           <ns3:TrackPointExtension>             <ns3:hr>90</ns3:hr>           </ns3:TrackPointExtension>         </extensions>       </trkpt>
       <trkpt lat="45.5716095864772796630859375" lon="14.40380799584090709686279296875">         <ele>1282.4000244140625</ele>         <time>2026-02-28T09:00:04.000Z</time>         <extensions>           <ns3:TrackPointExtension>             <ns3:hr>93</ns3:hr>           </ns3:TrackPointExtension>         </extensions>       </trkpt>
       <trkpt lat="45.5715789087116718292236328125" lon="14.40380145795643329620361328125">         <ele>1282.4000244140625</ele>         <time>2026-02-28T09:00:08.000Z</time>         <extensions>           <ns3:TrackPointExtension>             <ns3:hr>90</ns3:hr>           </ns3:TrackPointExtension>         </extensions>       </trkpt>
       <trkpt lat="45.57155988179147243499755859375" lon="14.40380414016544818878173828125">         <ele>1282.4000244140625</ele>         <time>2026-02-28T09:00:09.000Z</time>         <extensions>           <ns3:TrackPointExtension>             <ns3:hr>88</ns3:hr>           </ns3:TrackPointExtension>         </extensions>       </trkpt>
       <trkpt lat="45.57154160924255847930908203125" lon="14.403796680271625518798828125">         <ele>1282.4000244140625</ele>         <time>2026-02-28T09:00:11.000Z</time>         <extensions>           <ns3:TrackPointExtension>             <ns3:hr>84</ns3:hr>           </ns3:TrackPointExtension>         </extensions>       </trkpt>
       <trkpt lat="45.57153381407260894775390625" lon="14.40379031002521514892578125">         <ele>1282.4000244140625</ele>         <time>2026-02-28T09:00:12.000Z</time>         <extensions>           <ns3:TrackPointExtension>             <ns3:hr>80</ns3:hr>           </ns3:TrackPointExtension>         </extensions>       </trkpt>
       <trkpt lat="45.57152702473104000091552734375" lon="14.4037562794983386993408203125">         <ele>1282.4000244140625</ele>         <time>2026-02-28T09:00:15.000Z</time>         <extensions>           <ns3:TrackPointExtension>             <ns3:hr>83</ns3:hr>           </ns3:TrackPointExtension>         </extensions>       </trkpt>
       <trkpt lat="45.5715279467403888702392578125" lon="14.4037502445280551910400390625">         <ele>1282.4000244140625</ele>         <time>2026-02-28T09:00:16.000Z</time>         <extensions>           <ns3:TrackPointExtension>             <ns3:hr>91</ns3:hr>           </ns3:TrackPointExtension>         </extensions>       </trkpt>
       <trkpt lat="45.57152752764523029327392578125" lon="14.4037388451397418975830078125">         <ele>1282.5999755859375</ele>         <time>2026-02-28T09:00:17.000Z</time>         <extensions>           <ns3:TrackPointExtension>             <ns3:hr>96</ns3:hr>           </ns3:TrackPointExtension>         </extensions>       </trkpt>
       <trkpt lat="45.5715309642255306243896484375" lon="14.40373264253139495849609375">         <ele>1282.5999755859375</ele>         <time>2026-02-28T09:00:20.000Z</time>         <extensions>           <ns3:TrackPointExtension>             <ns3:hr>99</ns3:hr>           </ns3:TrackPointExtension>         </extensions>       </trkpt>
       <trkpt lat="45.57153322733938694000244140625" lon="14.40372685901820659637451171875">         <ele>1282.5999755859375</ele>         <time>2026-02-28T09:00:22.000Z</time>         <extensions>           <ns3:TrackPointExtension>             <ns3:hr>100</ns3:hr>           </ns3:TrackPointExtension>         </extensions>       </trkpt>
       <trkpt lat="45.57154797948896884918212890625" lon="14.40374412573873996734619140625">         <ele>1282.5999755859375</ele>         <time>2026-02-28T09:00:31.000Z</time>         <extensions>           <ns3:TrackPointExtension>             <ns3:hr>97</ns3:hr>           </ns3:TrackPointExtension>         </extensions>       </trkpt>
       <trkpt lat="45.5715463869273662567138671875" lon="14.40373104996979236602783203125">         <ele>1282.5999755859375</ele>         <time>2026-02-28T09:00:33.000Z</time>         <extensions>           <ns3:TrackPointExtension>             <ns3:hr>92</ns3:hr>           </ns3:TrackPointExtension>         </extensions>       </trkpt>
       <trkpt lat="45.571533478796482086181640625" lon="14.40371998585760593414306640625">         <ele>1282.4000244140625</ele>         <time>2026-02-28T09:00:42.000Z</time>         <extensions>           <ns3:TrackPointExtension>             <ns3:hr>91</ns3:hr>           </ns3:TrackPointExtension>         </extensions>       </trkpt>
       <trkpt lat="45.5715242587029933929443359375" lon="14.403735660016536712646484375">         <ele>1282.5999755859375</ele>         <time>2026-02-28T09:00:46.000Z</time>         <extensions>           <ns3:TrackPointExtension>             <ns3:hr>87</ns3:hr>           </ns3:TrackPointExtension>         </extensions>       </trkpt>
       <trkpt lat="45.57153205387294292449951171875" lon="14.40377815626561641693115234375">         <ele>1282.5999755859375</ele>         <time>2026-02-28T09:00:50.000Z</time>         <extensions>           <ns3:TrackPointExtension>             <ns3:hr>85</ns3:hr>           </ns3:TrackPointExtension>         </extensions>       </trkpt>
       <trkpt lat="45.5715517513453960418701171875" lon="14.403802044689655303955078125">         <ele>1282.800048828125</ele>         <time>2026-02-28T09:01:01.000Z</time>         <extensions>           <ns3:TrackPointExtension>             <ns3:hr>89</ns3:hr>           </ns3:TrackPointExtension>         </extensions>       </trkpt>
       <trkpt lat="45.57155250571668148040771484375" lon="14.40379944629967212677001953125">         <ele>1282.800048828125</ele>         <time>2026-02-28T09:01:02.000Z</time>         <extensions>           <ns3:TrackPointExtension>             <ns3:hr>89</ns3:hr>           </ns3:TrackPointExtension>         </extensions>       </trkpt>
       <trkpt lat="45.57152979075908660888671875" lon="14.40375837497413158416748046875">         <ele>1282.5999755859375</ele>         <time>2026-02-28T09:01:08.000Z</time>         <extensions>           <ns3:TrackPointExtension>             <ns3:hr>87</ns3:hr>           </ns3:TrackPointExtension>         </extensions>       </trkpt>
       <trkpt lat="45.57151009328663349151611328125" lon="14.4036855362355709075927734375">         <ele>1282.800048828125</ele>         <time>2026-02-28T09:01:14.000Z</time>         <extensions>           <ns3:TrackPointExtension>             <ns3:hr>86</ns3:hr>           </ns3:TrackPointExtension>         </extensions>       </trkpt>
       <trkpt lat="45.5714736320078372955322265625" lon="14.40361286513507366180419921875">         <ele>1283</ele>         <time>2026-02-28T09:01:21.000Z</time>         <extensions>           <ns3:TrackPointExtension>             <ns3:hr>87</ns3:hr>           </ns3:TrackPointExtension>         </extensions>       </trkpt>
       <trkpt lat="45.57141001336276531219482421875" lon="14.40352619625627994537353515625">         <ele>1283</ele>         <time>2026-02-28T09:01:27.000Z</time>         <extensions>           <ns3:TrackPointExtension>             <ns3:hr>90</ns3:hr>           </ns3:TrackPointExtension>         </extensions>       </trkpt>
       <trkpt lat="45.57138101197779178619384765625" lon="14.40348923206329345703125">         <ele>1283.199951171875</ele>         <time>2026-02-28T09:01:30.000Z</time>         <extensions>           <ns3:TrackPointExtension>             <ns3:hr>92</ns3:hr>           </ns3:TrackPointExtension>         </extensions>       </trkpt>
       <trkpt lat="45.57136475108563899993896484375" lon="14.4034448079764842987060546875">         <ele>1283.199951171875</ele>         <time>2026-02-28T09:01:34.000Z</time>         <extensions>           <ns3:TrackPointExtension>             <ns3:hr>92</ns3:hr>           </ns3:TrackPointExtension>         </extensions>       </trkpt>
       <trkpt lat="45.5713547766208648681640625" lon="14.4034223444759845733642578125">         <ele>1283.4000244140625</ele>         <time>2026-02-28T09:01:37.000Z</time>         <extensions>           <ns3:TrackPointExtension>             <ns3:hr>95</ns3:hr>           </ns3:TrackPointExtension>         </extensions>       </trkpt>
       <trkpt lat="45.57132954709231853485107421875" lon="14.40337859094142913818359375">         <ele>1283.5999755859375</ele>         <time>2026-02-28T09:01:41.000Z</time>         <extensions>           <ns3:TrackPointExtension>             <ns3:hr>99</ns3:hr>           </ns3:TrackPointExtension>         </extensions>       </trkpt>
       <trkpt lat="45.57132502086460590362548828125" lon="14.40337054431438446044921875">         <ele>1283.5999755859375</ele>         <time>2026-02-28T09:01:42.000Z</time>         <extensions>           <ns3:TrackPointExtension>             <ns3:hr>101</ns3:hr>           </ns3:TrackPointExtension>         </extensions>       </trkpt>
       <trkpt lat="45.57131915353238582611083984375" lon="14.40334699116647243499755859375">         <ele>1283.800048828125</ele>         <time>2026-02-28T09:01:44.000Z</time>         <extensions>           <ns3:TrackPointExtension>             <ns3:hr>104</ns3:hr>           </ns3:TrackPointExtension>         </extensions>       </trkpt>
       <trkpt lat="45.5713170580565929412841796875" lon="14.403340704739093780517578125">         <ele>1283.800048828125</ele>         <time>2026-02-28T09:01:47.000Z</time>         <extensions>           <ns3:TrackPointExtension>             <ns3:hr>106</ns3:hr>           </ns3:TrackPointExtension>         </extensions>       </trkpt>
       <trkpt lat="45.57126986794173717498779296875" lon="14.40328580327332019805908203125">         <ele>1284</ele>         <time>2026-02-28T09:01:53.000Z</time>         <extensions>           <ns3:TrackPointExtension>             <ns3:hr>104</ns3:hr>           </ns3:TrackPointExtension>         </extensions>       </trkpt>
       <trkpt lat="45.57121253572404384613037109375" lon="14.4032714702188968658447265625">         <ele>1284</ele>         <time>2026-02-28T09:02:00.000Z</time>         <extensions>           <ns3:TrackPointExtension>             <ns3:hr>103</ns3:hr>           </ns3:TrackPointExtension>         </extensions>       </trkpt>
       <trkpt lat="45.57117096148431301116943359375" lon="14.40326568670570850372314453125">         <ele>1284.4000244140625</ele>         <time>2026-02-28T09:02:03.000Z</time>         <extensions>           <ns3:TrackPointExtension>             <ns3:hr>104</ns3:hr>           </ns3:TrackPointExtension>         </extensions>       </trkpt>
       <trkpt lat="45.57114011608064174652099609375" lon="14.40326350741088390350341796875">         <ele>1284.5999755859375</ele>         <time>2026-02-28T09:02:06.000Z</time>         <extensions>           <ns3:TrackPointExtension>             <ns3:hr>103</ns3:hr>           </ns3:TrackPointExtension>         </extensions>       </trkpt>
       <trkpt lat="45.5710538662970066070556640625" lon="14.40325914882123470306396484375">         <ele>1284.5999755859375</ele>         <time>2026-02-28T09:02:12.000Z</time>         <extensions>           <ns3:TrackPointExtension>             <ns3:hr>103</ns3:hr>           </ns3:TrackPointExtension>         </extensions>       </trkpt>
       <trkpt lat="45.571003742516040802001953125" lon="14.40326937474310398101806640625">         <ele>1285</ele>         <time>2026-02-28T09:02:17.000Z</time>         <extensions>           <ns3:TrackPointExtension>             <ns3:hr>100</ns3:hr>           </ns3:TrackPointExtension>         </extensions>       </trkpt>
       <trkpt lat="45.57096979580819606781005859375" lon="14.40327842719852924346923828125">         <ele>1285</ele>         <time>2026-02-28T09:02:19.000Z</time>         <extensions>           <ns3:TrackPointExtension>             <ns3:hr>97</ns3:hr>           </ns3:TrackPointExtension>         </extensions>       </trkpt>
       <trkpt lat="45.57094582356512546539306640625" lon="14.4032818637788295745849609375">         <ele>1285</ele>         <time>2026-02-28T09:02:21.000Z</time>         <extensions>           <ns3:TrackPointExtension>             <ns3:hr>95</ns3:hr>           </ns3:TrackPointExtension>         </extensions>       </trkpt>
       <trkpt lat="45.57092218659818172454833984375" lon="14.40328932367265224456787109375">         <ele>1285.199951171875</ele>         <time>2026-02-28T09:02:23.000Z</time>         <extensions>           <ns3:TrackPointExtension>             <ns3:hr>92</ns3:hr>           </ns3:TrackPointExtension>         </extensions>       </trkpt>
       <trkpt lat="45.57090374641120433807373046875" lon="14.403293766081333160400390625">         <ele>1285.199951171875</ele>         <time>2026-02-28T09:02:25.000Z</time>         <extensions>           <ns3:TrackPointExtension>             <ns3:hr>91</ns3:hr>           </ns3:TrackPointExtension>         </extensions>       </trkpt>
       <trkpt lat="45.570872984826564788818359375" lon="14.403305165469646453857421875">         <ele>1285.4000244140625</ele>         <time>2026-02-28T09:02:28.000Z</time>         <extensions>           <ns3:TrackPointExtension>             <ns3:hr>94</ns3:hr>           </ns3:TrackPointExtension>         </extensions>       </trkpt>
       <trkpt lat="45.5708590708673000335693359375" lon="14.40331078134477138519287109375">         <ele>1285.5999755859375</ele>         <time>2026-02-28T09:02:30.000Z</time>         <extensions>           <ns3:TrackPointExtension>             <ns3:hr>96</ns3:hr>           </ns3:TrackPointExtension>         </extensions>       </trkpt>
       <trkpt lat="45.570841133594512939453125" lon="14.4033207558095455169677734375">         <ele>1285.5999755859375</ele>         <time>2026-02-28T09:02:32.000Z</time>         <extensions>           <ns3:TrackPointExtension>             <ns3:hr>99</ns3:hr>           </ns3:TrackPointExtension>         </extensions>       </trkpt>
       <trkpt lat="45.57081808336079120635986328125" lon="14.40333475358784198760986328125">         <ele>1285.800048828125</ele>         <time>2026-02-28T09:02:35.000Z</time>         <extensions>           <ns3:TrackPointExtension>             <ns3:hr>100</ns3:hr>           </ns3:TrackPointExtension>         </extensions>       </trkpt>
       <trkpt lat="45.5707916803658008575439453125" lon="14.40334665589034557342529296875">         <ele>1286</ele>         <time>2026-02-28T09:02:38.000Z</time>         <extensions>           <ns3:TrackPointExtension>             <ns3:hr>103</ns3:hr>           </ns3:TrackPointExtension>         </extensions>       </trkpt>
       <trkpt lat="45.57077080942690372467041015625" lon="14.40335000865161418914794921875">         <ele>1286</ele>         <time>2026-02-28T09:02:40.000Z</time>         <extensions>           <ns3:TrackPointExtension>             <ns3:hr>104</ns3:hr>           </ns3:TrackPointExtension>         </extensions>       </trkpt>
       <trkpt lat="45.5707175843417644500732421875" lon="14.40337280742824077606201171875">         <ele>1286.199951171875</ele>         <time>2026-02-28T09:02:45.000Z</time>         <extensions>           <ns3:TrackPointExtension>             <ns3:hr>103</ns3:hr>           </ns3:TrackPointExtension>         </extensions>       </trkpt>
       <trkpt lat="45.57068757712841033935546875" lon="14.40337683074176311492919921875">         <ele>1286.4000244140625</ele>         <time>2026-02-28T09:02:47.000Z</time>         <extensions>           <ns3:TrackPointExtension>             <ns3:hr>104</ns3:hr>           </ns3:TrackPointExtension>         </extensions>       </trkpt>
       <trkpt lat="45.570663772523403167724609375" lon="14.40338739193975925445556640625">         <ele>1286.5999755859375</ele>         <time>2026-02-28T09:02:50.000Z</time>         <extensions>           <ns3:TrackPointExtension>             <ns3:hr>104</ns3:hr>           </ns3:TrackPointExtension>         </extensions>       </trkpt>
       <trkpt lat="45.57063284330070018768310546875" lon="14.40340432338416576385498046875">         <ele>1287</ele>         <time>2026-02-28T09:02:55.000Z</time>         <extensions>           <ns3:TrackPointExtension>             <ns3:hr>105</ns3:hr>           </ns3:TrackPointExtension>         </extensions>       </trkpt>
       <trkpt lat="45.5706126429140567779541015625" lon="14.403414465487003326416015625">         <ele>1287.199951171875</ele>         <time>2026-02-28T09:02:57.000Z</time>         <extensions>           <ns3:TrackPointExtension>             <ns3:hr>109</ns3:hr>           </ns3:TrackPointExtension>         </extensions>       </trkpt>
       <trkpt lat="45.570594035089015960693359375" lon="14.4034280441701412200927734375">         <ele>1287.199951171875</ele>         <time>2026-02-28T09:03:00.000Z</time>         <extensions>           <ns3:TrackPointExtension>             <ns3:hr>112</ns3:hr>           </ns3:TrackPointExtension>         </extensions>       </trkpt>
       <trkpt lat="45.57058355771005153656005859375" lon="14.40343357622623443603515625">         <ele>1287.199951171875</ele>         <time>2026-02-28T09:03:01.000Z</time>         <extensions>           <ns3:TrackPointExtension>             <ns3:hr>113</ns3:hr>           </ns3:TrackPointExtension>         </extensions>       </trkpt>
       <trkpt lat="45.57053578086197376251220703125" lon="14.403457380831241607666015625">         <ele>1287.4000244140625</ele>         <time>2026-02-28T09:03:08.000Z</time>         <extensions>           <ns3:TrackPointExtension>             <ns3:hr>111</ns3:hr>           </ns3:TrackPointExtension>         </extensions>       </trkpt>
       <trkpt lat="45.570531673729419708251953125" lon="14.403460733592510223388671875">         <ele>1287.5999755859375</ele>         <time>2026-02-28T09:03:09.000Z</time>         <extensions>           <ns3:TrackPointExtension>             <ns3:hr>109</ns3:hr>           </ns3:TrackPointExtension>         </extensions>       </trkpt>
       <trkpt lat="45.5705184303224086761474609375" lon="14.40346986986696720123291015625">         <ele>1287.800048828125</ele>         <time>2026-02-28T09:03:13.000Z</time>         <extensions>           <ns3:TrackPointExtension>             <ns3:hr>110</ns3:hr>           </ns3:TrackPointExtension>         </extensions>       </trkpt>
       <trkpt lat="45.57047903537750244140625" lon="14.4034847058355808258056640625">         <ele>1288</ele>         <time>2026-02-28T09:03:17.000Z</time>         <extensions>           <ns3:TrackPointExtension>             <ns3:hr>114</ns3:hr>           </ns3:TrackPointExtension>         </extensions>       </trkpt>
       <trkpt lat="45.5704698152840137481689453125" lon="14.40348730422556400299072265625">         <ele>1288.199951171875</ele>         <time>2026-02-28T09:03:18.000Z</time>         <extensions>           <ns3:TrackPointExtension>             <ns3:hr>115</ns3:hr>           </ns3:TrackPointExtension>         </extensions>       </trkpt>
       <trkpt lat="45.5704416520893573760986328125" lon="14.403487555682659149169921875">         <ele>1288.5999755859375</ele>         <time>2026-02-28T09:03:23.000Z</time>         <extensions>           <ns3:TrackPointExtension>             <ns3:hr>115</ns3:hr>           </ns3:TrackPointExtension>         </extensions>       </trkpt>
       <trkpt lat="45.57039865292608737945556640625" lon="14.40350121818482875823974609375">         <ele>1288.5999755859375</ele>         <time>2026-02-28T09:03:28.000Z</time>         <extensions>           <ns3:TrackPointExtension>             <ns3:hr>114</ns3:hr>           </ns3:TrackPointExtension>         </extensions>       </trkpt>
       <trkpt lat="45.57033763267099857330322265625" lon="14.40354061312973499298095703125">         <ele>1288.800048828125</ele>         <time>2026-02-28T09:03:34.000Z</time>         <extensions>           <ns3:TrackPointExtension>             <ns3:hr>115</ns3:hr>           </ns3:TrackPointExtension>         </extensions>       </trkpt>
       <trkpt lat="45.57029723189771175384521484375" lon="14.403568021953105926513671875">         <ele>1289.199951171875</ele>         <time>2026-02-28T09:03:40.000Z</time>         <extensions>           <ns3:TrackPointExtension>             <ns3:hr>115</ns3:hr>           </ns3:TrackPointExtension>         </extensions>       </trkpt>
       <trkpt lat="45.57024274952709674835205078125" lon="14.40360448323190212249755859375">         <ele>1289.5999755859375</ele>         <time>2026-02-28T09:03:46.000Z</time>         <extensions>           <ns3:TrackPointExtension>             <ns3:hr>115</ns3:hr>           </ns3:TrackPointExtension>         </extensions>       </trkpt>
       <trkpt lat="45.57022900320589542388916015625" lon="14.4036147929728031158447265625">         <ele>1289.5999755859375</ele>         <time>2026-02-28T09:03:48.000Z</time>         <extensions>           <ns3:TrackPointExtension>             <ns3:hr>115</ns3:hr>           </ns3:TrackPointExtension>         </extensions>       </trkpt>
       <trkpt lat="45.57018868625164031982421875" lon="14.40365091897547245025634765625">         <ele>1289.5999755859375</ele>         <time>2026-02-28T09:03:53.000Z</time>         <extensions>           <ns3:TrackPointExtension>             <ns3:hr>115</ns3:hr>           </ns3:TrackPointExtension>         </extensions>       </trkpt>
       <trkpt lat="45.5701362155377864837646484375" lon="14.40371763892471790313720703125">         <ele>1290</ele>         <time>2026-02-28T09:03:58.000Z</time>         <extensions>           <ns3:TrackPointExtension>             <ns3:hr>115</ns3:hr>           </ns3:TrackPointExtension>         </extensions>       </trkpt>
       <trkpt lat="45.57012498378753662109375" lon="14.4037428684532642364501953125">         <ele>1290.199951171875</ele>         <time>2026-02-28T09:04:05.000Z</time>         <extensions>           <ns3:TrackPointExtension>             <ns3:hr>115</ns3:hr>           </ns3:TrackPointExtension>         </extensions>       </trkpt>
       <trkpt lat="45.570117942988872528076171875" lon="14.40375803969800472259521484375">         <ele>1290.4000244140625</ele>         <time>2026-02-28T09:04:11.000Z</time>         <extensions>           <ns3:TrackPointExtension>             <ns3:hr>114</ns3:hr>           </ns3:TrackPointExtension>         </extensions>       </trkpt>
       <trkpt lat="45.57011534459888935089111328125" lon="14.40378335304558277130126953125">         <ele>1290.5999755859375</ele>         <time>2026-02-28T09:04:16.000Z</time>         <extensions>           <ns3:TrackPointExtension>             <ns3:hr>114</ns3:hr>           </ns3:TrackPointExtension>         </extensions>       </trkpt>
       <trkpt lat="45.5701100639998912811279296875" lon="14.4037934951484203338623046875">         <ele>1290.5999755859375</ele>         <time>2026-02-28T09:04:18.000Z</time>         <extensions>           <ns3:TrackPointExtension>             <ns3:hr>115</ns3:hr>           </ns3:TrackPointExtension>         </extensions>       </trkpt>
       <trkpt lat="45.57009975425899028778076171875" lon="14.4038474746048450469970703125">         <ele>1290.800048828125</ele>         <time>2026-02-28T09:04:22.000Z</time>         <extensions>           <ns3:TrackPointExtension>             <ns3:hr>117</ns3:hr>           </ns3:TrackPointExtension>         </extensions>       </trkpt>
       <trkpt lat="45.57008919306099414825439453125" lon="14.4039027951657772064208984375">         <ele>1291.199951171875</ele>         <time>2026-02-28T09:04:27.000Z</time>         <extensions>           <ns3:TrackPointExtension>             <ns3:hr>115</ns3:hr>           </ns3:TrackPointExtension>         </extensions>       </trkpt>
       <trkpt lat="45.570095814764499664306640625" lon="14.40396557562053203582763671875">         <ele>1291.5999755859375</ele>         <time>2026-02-28T09:04:33.000Z</time>         <extensions>           <ns3:TrackPointExtension>             <ns3:hr>115</ns3:hr>           </ns3:TrackPointExtension>         </extensions>       </trkpt>
       <trkpt lat="45.570099838078022003173828125" lon="14.4039787352085113525390625">         <ele>1291.5999755859375</ele>         <time>2026-02-28T09:04:35.000Z</time>         <extensions>           <ns3:TrackPointExtension>             <ns3:hr>115</ns3:hr>           </ns3:TrackPointExtension>         </extensions>       </trkpt>
       <trkpt lat="45.57010411284863948822021484375" lon="14.40399348735809326171875">         <ele>1291.800048828125</ele>         <time>2026-02-28T09:04:37.000Z</time>         <extensions>           <ns3:TrackPointExtension>             <ns3:hr>114</ns3:hr>           </ns3:TrackPointExtension>         </extensions>       </trkpt>
       <trkpt lat="45.57010612450540065765380859375" lon="14.4040617160499095916748046875">         <ele>1292</ele>         <time>2026-02-28T09:04:43.000Z</time>         <extensions>           <ns3:TrackPointExtension>             <ns3:hr>114</ns3:hr>           </ns3:TrackPointExtension>         </extensions>       </trkpt>
       <trkpt lat="45.570101179182529449462890625" lon="14.40412315540015697479248046875">         <ele>1292.4000244140625</ele>         <time>2026-02-28T09:04:47.000Z</time>         <extensions>           <ns3:TrackPointExtension>             <ns3:hr>118</ns3:hr>           </ns3:TrackPointExtension>         </extensions>       </trkpt>
       <trkpt lat="45.57010352611541748046875" lon="14.4041284359991550445556640625">         <ele>1292.5999755859375</ele>         <time>2026-02-28T09:04:48.000Z</time>         <extensions>           <ns3:TrackPointExtension>             <ns3:hr>122</ns3:hr>           </ns3:TrackPointExtension>         </extensions>       </trkpt>
       <trkpt lat="45.5701050348579883575439453125" lon="14.40413874574005603790283203125">         <ele>1292.5999755859375</ele>         <time>2026-02-28T09:04:49.000Z</time>         <extensions>           <ns3:TrackPointExtension>             <ns3:hr>126</ns3:hr>           </ns3:TrackPointExtension>         </extensions>       </trkpt>
       <trkpt lat="45.57010687887668609619140625" lon="14.40414436161518096923828125">         <ele>1292.5999755859375</ele>         <time>2026-02-28T09:04:50.000Z</time>         <extensions>           <ns3:TrackPointExtension>             <ns3:hr>129</ns3:hr>           </ns3:TrackPointExtension>         </extensions>       </trkpt>
       <trkpt lat="45.57010813616216182708740234375" lon="14.40415919758379459381103515625">         <ele>1292.5999755859375</ele>         <time>2026-02-28T09:04:51.000Z</time>         <extensions>           <ns3:TrackPointExtension>             <ns3:hr>129</ns3:hr>           </ns3:TrackPointExtension>         </extensions>       </trkpt>
       <trkpt lat="45.57010956108570098876953125" lon="14.40420831553637981414794921875">         <ele>1292.5999755859375</ele>         <time>2026-02-28T09:04:55.000Z</time>         <extensions>           <ns3:TrackPointExtension>             <ns3:hr>127</ns3:hr>           </ns3:TrackPointExtension>         </extensions>       </trkpt>
       <trkpt lat="45.570113919675350189208984375" lon="14.40423564054071903228759765625">         <ele>1293</ele>         <time>2026-02-28T09:04:59.000Z</time>         <extensions>           <ns3:TrackPointExtension>             <ns3:hr>124</ns3:hr>           </ns3:TrackPointExtension>         </extensions>       </trkpt>
       <trkpt lat="45.570113249123096466064453125" lon="14.40423287451267242431640625">         <ele>1293</ele>         <time>2026-02-28T09:05:00.000Z</time>         <extensions>           <ns3:TrackPointExtension>             <ns3:hr>123</ns3:hr>           </ns3:TrackPointExtension>         </extensions>       </trkpt>
       <trkpt lat="45.5700981616973876953125" lon="14.404228515923023223876953125">         <ele>1293.199951171875</ele>         <time>2026-02-28T09:05:05.000Z</time>         <extensions>           <ns3:TrackPointExtension>             <ns3:hr>120</ns3:hr>           </ns3:TrackPointExtension>         </extensions>       </trkpt>
       <trkpt lat="45.57009371928870677947998046875" lon="14.40423346124589443206787109375">         <ele>1293.199951171875</ele>         <time>2026-02-28T09:05:06.000Z</time>         <extensions>           <ns3:TrackPointExtension>             <ns3:hr>120</ns3:hr>           </ns3:TrackPointExtension>         </extensions>       </trkpt>
       <trkpt lat="45.57007930241525173187255859375" lon="14.40428207628428936004638671875">         <ele>1293.4000244140625</ele>         <time>2026-02-28T09:05:10.000Z</time>         <extensions>           <ns3:TrackPointExtension>             <ns3:hr>116</ns3:hr>           </ns3:TrackPointExtension>         </extensions>       </trkpt>
       <trkpt lat="45.57007494382560253143310546875" lon="14.4042920507490634918212890625">         <ele>1293.4000244140625</ele>         <time>2026-02-28T09:05:12.000Z</time>         <extensions>           <ns3:TrackPointExtension>             <ns3:hr>114</ns3:hr>           </ns3:TrackPointExtension>         </extensions>       </trkpt>
       <trkpt lat="45.57007335126399993896484375" lon="14.40429548732936382293701171875">         <ele>1293.4000244140625</ele>         <time>2026-02-28T09:05:14.000Z</time>         <extensions>           <ns3:TrackPointExtension>             <ns3:hr>111</ns3:hr>           </ns3:TrackPointExtension>         </extensions>       </trkpt>
       <trkpt lat="45.570068992674350738525390625" lon="14.40429884009063243865966796875">         <ele>1293.5999755859375</ele>         <time>2026-02-28T09:05:18.000Z</time>         <extensions>           <ns3:TrackPointExtension>             <ns3:hr>108</ns3:hr>           </ns3:TrackPointExtension>         </extensions>       </trkpt>
       <trkpt lat="45.57007695548236370086669921875" lon="14.404335133731365203857421875">         <ele>1293.5999755859375</ele>         <time>2026-02-28T09:05:22.000Z</time>         <extensions>           <ns3:TrackPointExtension>             <ns3:hr>108</ns3:hr>           </ns3:TrackPointExtension>         </extensions>       </trkpt>
       <trkpt lat="45.5700835771858692169189453125" lon="14.4043456949293613433837890625">         <ele>1293.5999755859375</ele>         <time>2026-02-28T09:05:24.000Z</time>         <extensions>           <ns3:TrackPointExtension>             <ns3:hr>108</ns3:hr>           </ns3:TrackPointExtension>         </extensions>       </trkpt>
       <trkpt lat="45.5700906179845333099365234375" lon="14.4043778814375400543212890625">         <ele>1293.800048828125</ele>         <time>2026-02-28T09:05:27.000Z</time>         <extensions>           <ns3:TrackPointExtension>             <ns3:hr>109</ns3:hr>           </ns3:TrackPointExtension>         </extensions>       </trkpt>
       <trkpt lat="45.57012925855815410614013671875" lon="14.4044325314462184906005859375">         <ele>1294.199951171875</ele>         <time>2026-02-28T09:05:33.000Z</time>         <extensions>           <ns3:TrackPointExtension>             <ns3:hr>109</ns3:hr>           </ns3:TrackPointExtension>         </extensions>       </trkpt>
       <trkpt lat="45.5701499618589878082275390625" lon="14.404460527002811431884765625">         <ele>1294.5999755859375</ele>         <time>2026-02-28T09:05:38.000Z</time>         <extensions>           <ns3:TrackPointExtension>             <ns3:hr>112</ns3:hr>           </ns3:TrackPointExtension>         </extensions>       </trkpt>
       <trkpt lat="45.57017049752175807952880859375" lon="14.4044898636639118194580078125">         <ele>1294.800048828125</ele>         <time>2026-02-28T09:05:41.000Z</time>         <extensions>           <ns3:TrackPointExtension>             <ns3:hr>113</ns3:hr>           </ns3:TrackPointExtension>         </extensions>       </trkpt>
       <trkpt lat="45.5701772868633270263671875" lon="14.4045062921941280364990234375">         <ele>1294.800048828125</ele>         <time>2026-02-28T09:05:43.000Z</time>         <extensions>           <ns3:TrackPointExtension>             <ns3:hr>113</ns3:hr>           </ns3:TrackPointExtension>         </extensions>       </trkpt>
       <trkpt lat="45.5701995827257633209228515625" lon="14.4045475311577320098876953125">         <ele>1295.4000244140625</ele>         <time>2026-02-28T09:05:49.000Z</time>         <extensions>           <ns3:TrackPointExtension>             <ns3:hr>113</ns3:hr>           </ns3:TrackPointExtension>         </extensions>       </trkpt>
       <trkpt lat="45.57022900320589542388916015625" lon="14.40459430217742919921875">         <ele>1295.5999755859375</ele>         <time>2026-02-28T09:05:55.000Z</time>         <extensions>           <ns3:TrackPointExtension>             <ns3:hr>112</ns3:hr>           </ns3:TrackPointExtension>         </extensions>       </trkpt>
       <trkpt lat="45.57024928741157054901123046875" lon="14.4046551547944545745849609375">         <ele>1295.800048828125</ele>         <time>2026-02-28T09:06:00.000Z</time>         <extensions>           <ns3:TrackPointExtension>             <ns3:hr>110</ns3:hr>           </ns3:TrackPointExtension>         </extensions>       </trkpt>
       <trkpt lat="45.57026957161724567413330078125" lon="14.404729418456554412841796875">         <ele>1296</ele>         <time>2026-02-28T09:06:04.000Z</time>         <extensions>           <ns3:TrackPointExtension>             <ns3:hr>111</ns3:hr>           </ns3:TrackPointExtension>         </extensions>       </trkpt>
       <trkpt lat="45.570286251604557037353515625" lon="14.40477526746690273284912109375">         <ele>1296.4000244140625</ele>         <time>2026-02-28T09:06:09.000Z</time>         <extensions>           <ns3:TrackPointExtension>             <ns3:hr>111</ns3:hr>           </ns3:TrackPointExtension>         </extensions>       </trkpt>
       <trkpt lat="45.57029790244996547698974609375" lon="14.40482966601848602294921875">         <ele>1296.800048828125</ele>         <time>2026-02-28T09:06:16.000Z</time>         <extensions>           <ns3:TrackPointExtension>             <ns3:hr>112</ns3:hr>           </ns3:TrackPointExtension>         </extensions>       </trkpt>
       <trkpt lat="45.5703006684780120849609375" lon="14.40483813174068927764892578125">         <ele>1296.800048828125</ele>         <time>2026-02-28T09:06:17.000Z</time>         <extensions>           <ns3:TrackPointExtension>             <ns3:hr>109</ns3:hr>           </ns3:TrackPointExtension>         </extensions>       </trkpt>
       <trkpt lat="45.57030159048736095428466796875" lon="14.4048516266047954559326171875">         <ele>1296.800048828125</ele>         <time>2026-02-28T09:06:18.000Z</time>         <extensions>           <ns3:TrackPointExtension>             <ns3:hr>104</ns3:hr>           </ns3:TrackPointExtension>         </extensions>       </trkpt>
       <trkpt lat="45.5703060328960418701171875" lon="14.40489797852933406829833984375">         <ele>1297</ele>         <time>2026-02-28T09:06:21.000Z</time>         <extensions>           <ns3:TrackPointExtension>             <ns3:hr>103</ns3:hr>           </ns3:TrackPointExtension>         </extensions>       </trkpt>
       <trkpt lat="45.5703075416386127471923828125" lon="14.4049602560698986053466796875">         <ele>1297.199951171875</ele>         <time>2026-02-28T09:06:26.000Z</time>         <extensions>           <ns3:TrackPointExtension>             <ns3:hr>106</ns3:hr>           </ns3:TrackPointExtension>         </extensions>       </trkpt>
       <trkpt lat="45.57031500153243541717529296875" lon="14.40498632378876209259033203125">         <ele>1297.4000244140625</ele>         <time>2026-02-28T09:06:30.000Z</time>         <extensions>           <ns3:TrackPointExtension>             <ns3:hr>109</ns3:hr>           </ns3:TrackPointExtension>         </extensions>       </trkpt>
       <trkpt lat="45.57031667791306972503662109375" lon="14.4049984775483608245849609375">         <ele>1297.4000244140625</ele>         <time>2026-02-28T09:06:31.000Z</time>         <extensions>           <ns3:TrackPointExtension>             <ns3:hr>110</ns3:hr>           </ns3:TrackPointExtension>         </extensions>       </trkpt>
       <trkpt lat="45.57031785137951374053955078125" lon="14.405037872493267059326171875">         <ele>1297.800048828125</ele>         <time>2026-02-28T09:06:34.000Z</time>         <extensions>           <ns3:TrackPointExtension>             <ns3:hr>110</ns3:hr>           </ns3:TrackPointExtension>         </extensions>       </trkpt>
       <trkpt lat="45.570319779217243194580078125" lon="14.4050729088485240936279296875">         <ele>1297.800048828125</ele>         <time>2026-02-28T09:06:36.000Z</time>         <extensions>           <ns3:TrackPointExtension>             <ns3:hr>110</ns3:hr>           </ns3:TrackPointExtension>         </extensions>       </trkpt>
       <trkpt lat="45.57031651027500629425048828125" lon="14.4051429815590381622314453125">         <ele>1298.199951171875</ele>         <time>2026-02-28T09:06:41.000Z</time>         <extensions>           <ns3:TrackPointExtension>             <ns3:hr>111</ns3:hr>           </ns3:TrackPointExtension>         </extensions>       </trkpt>
       <trkpt lat="45.57031583972275257110595703125" lon="14.4051661156117916107177734375">         <ele>1298.4000244140625</ele>         <time>2026-02-28T09:06:43.000Z</time>         <extensions>           <ns3:TrackPointExtension>             <ns3:hr>115</ns3:hr>           </ns3:TrackPointExtension>         </extensions>       </trkpt>
       <trkpt lat="45.57031475007534027099609375" lon="14.4051858969032764434814453125">         <ele>1298.5999755859375</ele>         <time>2026-02-28T09:06:46.000Z</time>         <extensions>           <ns3:TrackPointExtension>             <ns3:hr>115</ns3:hr>           </ns3:TrackPointExtension>         </extensions>       </trkpt>
       <trkpt lat="45.57031014002859592437744140625" lon="14.40523711033165454864501953125">         <ele>1298.800048828125</ele>         <time>2026-02-28T09:06:51.000Z</time>         <extensions>           <ns3:TrackPointExtension>             <ns3:hr>115</ns3:hr>           </ns3:TrackPointExtension>         </extensions>       </trkpt>
       <trkpt lat="45.570311732590198516845703125" lon="14.4052710570394992828369140625">         <ele>1299</ele>         <time>2026-02-28T09:06:54.000Z</time>         <extensions>           <ns3:TrackPointExtension>             <ns3:hr>118</ns3:hr>           </ns3:TrackPointExtension>         </extensions>       </trkpt>
       <trkpt lat="45.570309720933437347412109375" lon="14.40528237260878086090087890625">         <ele>1299.199951171875</ele>         <time>2026-02-28T09:06:55.000Z</time>         <extensions>           <ns3:TrackPointExtension>             <ns3:hr>119</ns3:hr>           </ns3:TrackPointExtension>         </extensions>       </trkpt>
       <trkpt lat="45.5702988244593143463134765625" lon="14.405370466411113739013671875">         <ele>1299.5999755859375</ele>         <time>2026-02-28T09:07:01.000Z</time>         <extensions>           <ns3:TrackPointExtension>             <ns3:hr>116</ns3:hr>           </ns3:TrackPointExtension>         </extensions>       </trkpt>
       <trkpt lat="45.5702971480786800384521484375" lon="14.4054125435650348663330078125">         <ele>1299.800048828125</ele>         <time>2026-02-28T09:07:04.000Z</time>         <extensions>           <ns3:TrackPointExtension>             <ns3:hr>114</ns3:hr>           </ns3:TrackPointExtension>         </extensions>       </trkpt>
       <trkpt lat="45.57029421441256999969482421875" lon="14.40545520745217800140380859375">         <ele>1300</ele>         <time>2026-02-28T09:07:07.000Z</time>         <extensions>           <ns3:TrackPointExtension>             <ns3:hr>113</ns3:hr>           </ns3:TrackPointExtension>         </extensions>       </trkpt>
       <trkpt lat="45.57028549723327159881591796875" lon="14.405555538833141326904296875">         <ele>1300.199951171875</ele>         <time>2026-02-28T09:07:14.000Z</time>         <extensions>           <ns3:TrackPointExtension>             <ns3:hr>114</ns3:hr>           </ns3:TrackPointExtension>         </extensions>       </trkpt>
       <trkpt lat="45.57028231211006641387939453125" lon="14.4055979512631893157958984375">         <ele>1300.5999755859375</ele>         <time>2026-02-28T09:07:18.000Z</time>         <extensions>           <ns3:TrackPointExtension>             <ns3:hr>113</ns3:hr>           </ns3:TrackPointExtension>         </extensions>       </trkpt>
       <trkpt lat="45.57027644477784633636474609375" lon="14.40564581193029880523681640625">         <ele>1300.800048828125</ele>         <time>2026-02-28T09:07:21.000Z</time>         <extensions>           <ns3:TrackPointExtension>             <ns3:hr>114</ns3:hr>           </ns3:TrackPointExtension>         </extensions>       </trkpt>
       <trkpt lat="45.5702726729214191436767578125" lon="14.4056841172277927398681640625">         <ele>1301.199951171875</ele>         <time>2026-02-28T09:07:23.000Z</time>         <extensions>           <ns3:TrackPointExtension>             <ns3:hr>114</ns3:hr>           </ns3:TrackPointExtension>         </extensions>       </trkpt>
       <trkpt lat="45.57026370428502559661865234375" lon="14.40575771033763885498046875">         <ele>1301.4000244140625</ele>         <time>2026-02-28T09:07:28.000Z</time>         <extensions>           <ns3:TrackPointExtension>             <ns3:hr>116</ns3:hr>           </ns3:TrackPointExtension>         </extensions>       </trkpt>
       <trkpt lat="45.5702522210776805877685546875" lon="14.40579618327319622039794921875">         <ele>1301.5999755859375</ele>         <time>2026-02-28T09:07:34.000Z</time>         <extensions>           <ns3:TrackPointExtension>             <ns3:hr>117</ns3:hr>           </ns3:TrackPointExtension>         </extensions>       </trkpt>
       <trkpt lat="45.5702445097267627716064453125" lon="14.4058209098875522613525390625">         <ele>1301.800048828125</ele>         <time>2026-02-28T09:07:37.000Z</time>         <extensions>           <ns3:TrackPointExtension>             <ns3:hr>114</ns3:hr>           </ns3:TrackPointExtension>         </extensions>       </trkpt>
       <trkpt lat="45.5702336132526397705078125" lon="14.40583557821810245513916015625">         <ele>1301.800048828125</ele>         <time>2026-02-28T09:07:39.000Z</time>         <extensions>           <ns3:TrackPointExtension>             <ns3:hr>109</ns3:hr>           </ns3:TrackPointExtension>         </extensions>       </trkpt>
       <trkpt lat="45.57021978311240673065185546875" lon="14.40587212331593036651611328125">         <ele>1302</ele>         <time>2026-02-28T09:07:43.000Z</time>         <extensions>           <ns3:TrackPointExtension>             <ns3:hr>107</ns3:hr>           </ns3:TrackPointExtension>         </extensions>       </trkpt>
       <trkpt lat="45.5701989121735095977783203125" lon="14.4059255160391330718994140625">         <ele>1302.199951171875</ele>         <time>2026-02-28T09:07:47.000Z</time>         <extensions>           <ns3:TrackPointExtension>             <ns3:hr>106</ns3:hr>           </ns3:TrackPointExtension>         </extensions>       </trkpt>
       <trkpt lat="45.57017862796783447265625" lon="14.405971281230449676513671875">         <ele>1302.4000244140625</ele>         <time>2026-02-28T09:07:51.000Z</time>         <extensions>           <ns3:TrackPointExtension>             <ns3:hr>109</ns3:hr>           </ns3:TrackPointExtension>         </extensions>       </trkpt>
       <trkpt lat="45.5701625347137451171875" lon="14.406003467738628387451171875">         <ele>1302.5999755859375</ele>         <time>2026-02-28T09:07:54.000Z</time>         <extensions>           <ns3:TrackPointExtension>             <ns3:hr>112</ns3:hr>           </ns3:TrackPointExtension>         </extensions>       </trkpt>
       <trkpt lat="45.570157505571842193603515625" lon="14.40601277165114879608154296875">         <ele>1302.800048828125</ele>         <time>2026-02-28T09:07:55.000Z</time>         <extensions>           <ns3:TrackPointExtension>             <ns3:hr>114</ns3:hr>           </ns3:TrackPointExtension>         </extensions>       </trkpt>
       <trkpt lat="45.57014049030840396881103515625" lon="14.4060472212731838226318359375">         <ele>1303</ele>         <time>2026-02-28T09:07:58.000Z</time>         <extensions>           <ns3:TrackPointExtension>             <ns3:hr>115</ns3:hr>           </ns3:TrackPointExtension>         </extensions>       </trkpt>
       <trkpt lat="45.5701358802616596221923828125" lon="14.4060562737286090850830078125">         <ele>1303</ele>         <time>2026-02-28T09:07:59.000Z</time>         <extensions>           <ns3:TrackPointExtension>             <ns3:hr>118</ns3:hr>           </ns3:TrackPointExtension>         </extensions>       </trkpt>
       <trkpt lat="45.570108890533447265625" lon="14.406115114688873291015625">         <ele>1303.5999755859375</ele>         <time>2026-02-28T09:08:04.000Z</time>         <extensions>           <ns3:TrackPointExtension>             <ns3:hr>121</ns3:hr>           </ns3:TrackPointExtension>         </extensions>       </trkpt>
       <trkpt lat="45.57009908370673656463623046875" lon="14.4061459600925445556640625">         <ele>1303.800048828125</ele>         <time>2026-02-28T09:08:08.000Z</time>         <extensions>           <ns3:TrackPointExtension>             <ns3:hr>121</ns3:hr>           </ns3:TrackPointExtension>         </extensions>       </trkpt>
       <trkpt lat="45.570094473659992218017578125" lon="14.4061806611716747283935546875">         <ele>1304</ele>         <time>2026-02-28T09:08:11.000Z</time>         <extensions>           <ns3:TrackPointExtension>             <ns3:hr>120</ns3:hr>           </ns3:TrackPointExtension>         </extensions>       </trkpt>
       <trkpt lat="45.57008785195648670196533203125" lon="14.40621611662209033966064453125">         <ele>1304.199951171875</ele>         <time>2026-02-28T09:08:14.000Z</time>         <extensions>           <ns3:TrackPointExtension>             <ns3:hr>118</ns3:hr>           </ns3:TrackPointExtension>         </extensions>       </trkpt>
       <trkpt lat="45.57007737457752227783203125" lon="14.40624612383544445037841796875">         <ele>1304.5999755859375</ele>         <time>2026-02-28T09:08:17.000Z</time>         <extensions>           <ns3:TrackPointExtension>             <ns3:hr>115</ns3:hr>           </ns3:TrackPointExtension>         </extensions>       </trkpt>
       <trkpt lat="45.57006664574146270751953125" lon="14.40626733005046844482421875">         <ele>1304.5999755859375</ele>         <time>2026-02-28T09:08:19.000Z</time>         <extensions>           <ns3:TrackPointExtension>             <ns3:hr>112</ns3:hr>           </ns3:TrackPointExtension>         </extensions>       </trkpt>
       <trkpt lat="45.57006387971341609954833984375" lon="14.406274370849132537841796875">         <ele>1304.5999755859375</ele>         <time>2026-02-28T09:08:20.000Z</time>         <extensions>           <ns3:TrackPointExtension>             <ns3:hr>112</ns3:hr>           </ns3:TrackPointExtension>         </extensions>       </trkpt>
       <trkpt lat="45.57002381421625614166259765625" lon="14.40633228980004787445068359375">         <ele>1305</ele>         <time>2026-02-28T09:08:26.000Z</time>         <extensions>           <ns3:TrackPointExtension>             <ns3:hr>112</ns3:hr>           </ns3:TrackPointExtension>         </extensions>       </trkpt>
       <trkpt lat="45.5699940584599971771240234375" lon="14.40639029256999492645263671875">         <ele>1305.4000244140625</ele>         <time>2026-02-28T09:08:31.000Z</time>         <extensions>           <ns3:TrackPointExtension>             <ns3:hr>114</ns3:hr>           </ns3:TrackPointExtension>         </extensions>       </trkpt>
       <trkpt lat="45.56997134350240230560302734375" lon="14.40644192509353160858154296875">         <ele>1305.800048828125</ele>         <time>2026-02-28T09:08:36.000Z</time>         <extensions>           <ns3:TrackPointExtension>             <ns3:hr>113</ns3:hr>           </ns3:TrackPointExtension>         </extensions>       </trkpt>
       <trkpt lat="45.5699605308473110198974609375" lon="14.40649020485579967498779296875">         <ele>1306</ele>         <time>2026-02-28T09:08:41.000Z</time>         <extensions>           <ns3:TrackPointExtension>             <ns3:hr>114</ns3:hr>           </ns3:TrackPointExtension>         </extensions>       </trkpt>
       <trkpt lat="45.56995156221091747283935546875" lon="14.406513758003711700439453125">         <ele>1306.199951171875</ele>         <time>2026-02-28T09:08:43.000Z</time>         <extensions>           <ns3:TrackPointExtension>             <ns3:hr>114</ns3:hr>           </ns3:TrackPointExtension>         </extensions>       </trkpt>
       <trkpt lat="45.56993597187101840972900390625" lon="14.40655273385345935821533203125">         <ele>1306.5999755859375</ele>         <time>2026-02-28T09:08:49.000Z</time>         <extensions>           <ns3:TrackPointExtension>             <ns3:hr>115</ns3:hr>           </ns3:TrackPointExtension>         </extensions>       </trkpt>
       <trkpt lat="45.5699296854436397552490234375" lon="14.406608305871486663818359375">         <ele>1307</ele>         <time>2026-02-28T09:08:54.000Z</time>         <extensions>           <ns3:TrackPointExtension>             <ns3:hr>114</ns3:hr>           </ns3:TrackPointExtension>         </extensions>       </trkpt>
       <trkpt lat="45.5699266679584980010986328125" lon="14.40663613379001617431640625">         <ele>1307</ele>         <time>2026-02-28T09:08:56.000Z</time>         <extensions>           <ns3:TrackPointExtension>             <ns3:hr>113</ns3:hr>           </ns3:TrackPointExtension>         </extensions>       </trkpt>
       <trkpt lat="45.56992758996784687042236328125" lon="14.40666706301271915435791015625">         <ele>1307</ele>         <time>2026-02-28T09:08:58.000Z</time>         <extensions>           <ns3:TrackPointExtension>             <ns3:hr>110</ns3:hr>           </ns3:TrackPointExtension>         </extensions>       </trkpt>
       <trkpt lat="45.5699273385107517242431640625" lon="14.40667896531522274017333984375">         <ele>1307.199951171875</ele>         <time>2026-02-28T09:08:59.000Z</time>         <extensions>           <ns3:TrackPointExtension>             <ns3:hr>107</ns3:hr>           </ns3:TrackPointExtension>         </extensions>       </trkpt>
       <trkpt lat="45.56993479840457439422607421875" lon="14.40670989453792572021484375">         <ele>1307.199951171875</ele>         <time>2026-02-28T09:09:02.000Z</time>         <extensions>           <ns3:TrackPointExtension>             <ns3:hr>104</ns3:hr>           </ns3:TrackPointExtension>         </extensions>       </trkpt>
       <trkpt lat="45.5699358880519866943359375" lon="14.4067217968404293060302734375">         <ele>1307.4000244140625</ele>         <time>2026-02-28T09:09:04.000Z</time>         <extensions>           <ns3:TrackPointExtension>             <ns3:hr>102</ns3:hr>           </ns3:TrackPointExtension>         </extensions>       </trkpt>
       <trkpt lat="45.56994485668838024139404296875" lon="14.4067968986928462982177734375">         <ele>1307.5999755859375</ele>         <time>2026-02-28T09:09:10.000Z</time>         <extensions>           <ns3:TrackPointExtension>             <ns3:hr>104</ns3:hr>           </ns3:TrackPointExtension>         </extensions>       </trkpt>
       <trkpt lat="45.56996078230440616607666015625" lon="14.40683570690453052520751953125">         <ele>1308</ele>         <time>2026-02-28T09:09:14.000Z</time>         <extensions>           <ns3:TrackPointExtension>             <ns3:hr>106</ns3:hr>           </ns3:TrackPointExtension>         </extensions>       </trkpt>
       <trkpt lat="45.569966398179531097412109375" lon="14.406865797936916351318359375">         <ele>1308</ele>         <time>2026-02-28T09:09:16.000Z</time>         <extensions>           <ns3:TrackPointExtension>             <ns3:hr>104</ns3:hr>           </ns3:TrackPointExtension>         </extensions>       </trkpt>
       <trkpt lat="45.56998291052877902984619140625" lon="14.4069179333746433258056640625">         <ele>1308.199951171875</ele>         <time>2026-02-28T09:09:20.000Z</time>         <extensions>           <ns3:TrackPointExtension>             <ns3:hr>106</ns3:hr>           </ns3:TrackPointExtension>         </extensions>       </trkpt>
       <trkpt lat="45.569995902478694915771484375" lon="14.40697199665009975433349609375">         <ele>1308.4000244140625</ele>         <time>2026-02-28T09:09:25.000Z</time>         <extensions>           <ns3:TrackPointExtension>             <ns3:hr>109</ns3:hr>           </ns3:TrackPointExtension>         </extensions>       </trkpt>
       <trkpt lat="45.56999648921191692352294921875" lon="14.406987167894840240478515625">         <ele>1308.4000244140625</ele>         <time>2026-02-28T09:09:26.000Z</time>         <extensions>           <ns3:TrackPointExtension>             <ns3:hr>109</ns3:hr>           </ns3:TrackPointExtension>         </extensions>       </trkpt>
       <trkpt lat="45.5700098164379596710205078125" lon="14.407054893672466278076171875">         <ele>1308.4000244140625</ele>         <time>2026-02-28T09:09:33.000Z</time>         <extensions>           <ns3:TrackPointExtension>             <ns3:hr>112</ns3:hr>           </ns3:TrackPointExtension>         </extensions>       </trkpt>
       <trkpt lat="45.5700108222663402557373046875" lon="14.4070590846240520477294921875">         <ele>1308.4000244140625</ele>         <time>2026-02-28T09:09:34.000Z</time>         <extensions>           <ns3:TrackPointExtension>             <ns3:hr>114</ns3:hr>           </ns3:TrackPointExtension>         </extensions>       </trkpt>
       <trkpt lat="45.57001744396984577178955078125" lon="14.40710878930985927581787109375">         <ele>1308.4000244140625</ele>         <time>2026-02-28T09:09:39.000Z</time>         <extensions>           <ns3:TrackPointExtension>             <ns3:hr>117</ns3:hr>           </ns3:TrackPointExtension>         </extensions>       </trkpt>
       <trkpt lat="45.57003504596650600433349609375" lon="14.40716092474758625030517578125">         <ele>1308.4000244140625</ele>         <time>2026-02-28T09:09:46.000Z</time>         <extensions>           <ns3:TrackPointExtension>             <ns3:hr>117</ns3:hr>           </ns3:TrackPointExtension>         </extensions>       </trkpt>
       <trkpt lat="45.5700513906776905059814453125" lon="14.40720601938664913177490234375">         <ele>1308.4000244140625</ele>         <time>2026-02-28T09:09:58.000Z</time>         <extensions>           <ns3:TrackPointExtension>             <ns3:hr>117</ns3:hr>           </ns3:TrackPointExtension>         </extensions>       </trkpt>
       <trkpt lat="45.57004007510840892791748046875" lon="14.40718405880033969879150390625">         <ele>1308.4000244140625</ele>         <time>2026-02-28T09:10:02.000Z</time>         <extensions>           <ns3:TrackPointExtension>             <ns3:hr>112</ns3:hr>           </ns3:TrackPointExtension>         </extensions>       </trkpt>
       <trkpt lat="45.57002482004463672637939453125" lon="14.40714575350284576416015625">         <ele>1308.4000244140625</ele>         <time>2026-02-28T09:10:07.000Z</time>         <extensions>           <ns3:TrackPointExtension>             <ns3:hr>112</ns3:hr>           </ns3:TrackPointExtension>         </extensions>       </trkpt>
       <trkpt lat="45.57002549059689044952392578125" lon="14.40715371631085872650146484375">         <ele>1308.4000244140625</ele>         <time>2026-02-28T09:10:14.000Z</time>         <extensions>           <ns3:TrackPointExtension>             <ns3:hr>109</ns3:hr>           </ns3:TrackPointExtension>         </extensions>       </trkpt>
       <trkpt lat="45.5700363032519817352294921875" lon="14.407161511480808258056640625">         <ele>1308.4000244140625</ele>         <time>2026-02-28T09:10:18.000Z</time>         <extensions>           <ns3:TrackPointExtension>             <ns3:hr>106</ns3:hr>           </ns3:TrackPointExtension>         </extensions>       </trkpt>
       <trkpt lat="45.57004879228770732879638671875" lon="14.40717517398297786712646484375">         <ele>1308.4000244140625</ele>         <time>2026-02-28T09:10:23.000Z</time>         <extensions>           <ns3:TrackPointExtension>             <ns3:hr>103</ns3:hr>           </ns3:TrackPointExtension>         </extensions>       </trkpt>
       <trkpt lat="45.57004518806934356689453125" lon="14.40716813318431377410888671875">         <ele>1308.199951171875</ele>         <time>2026-02-28T09:10:29.000Z</time>         <extensions>           <ns3:TrackPointExtension>             <ns3:hr>100</ns3:hr>           </ns3:TrackPointExtension>         </extensions>       </trkpt>
       <trkpt lat="45.57002414949238300323486328125" lon="14.40713896416127681732177734375">         <ele>1308</ele>         <time>2026-02-28T09:10:37.000Z</time>         <extensions>           <ns3:TrackPointExtension>             <ns3:hr>103</ns3:hr>           </ns3:TrackPointExtension>         </extensions>       </trkpt>
       <trkpt lat="45.57002297602593898773193359375" lon="14.407152794301509857177734375">         <ele>1307.800048828125</ele>         <time>2026-02-28T09:10:43.000Z</time>         <extensions>           <ns3:TrackPointExtension>             <ns3:hr>105</ns3:hr>           </ns3:TrackPointExtension>         </extensions>       </trkpt>
       <trkpt lat="45.57001593522727489471435546875" lon="14.4071147404611110687255859375">         <ele>1307.800048828125</ele>         <time>2026-02-28T09:10:51.000Z</time>         <extensions>           <ns3:TrackPointExtension>             <ns3:hr>106</ns3:hr>           </ns3:TrackPointExtension>         </extensions>       </trkpt>
       <trkpt lat="45.5700235627591609954833984375" lon="14.40711683593690395355224609375">         <ele>1307.800048828125</ele>         <time>2026-02-28T09:11:00.000Z</time>         <extensions>           <ns3:TrackPointExtension>             <ns3:hr>104</ns3:hr>           </ns3:TrackPointExtension>         </extensions>       </trkpt>
       <trkpt lat="45.57003923691809177398681640625" lon="14.40713879652321338653564453125">         <ele>1307.800048828125</ele>         <time>2026-02-28T09:11:06.000Z</time>         <extensions>           <ns3:TrackPointExtension>             <ns3:hr>103</ns3:hr>           </ns3:TrackPointExtension>         </extensions>       </trkpt>
       <trkpt lat="45.57008768431842327117919921875" lon="14.4072049297392368316650390625">         <ele>1307.800048828125</ele>         <time>2026-02-28T09:11:13.000Z</time>         <extensions>           <ns3:TrackPointExtension>             <ns3:hr>104</ns3:hr>           </ns3:TrackPointExtension>         </extensions>       </trkpt>
       <trkpt lat="45.57012498378753662109375" lon="14.40727106295526027679443359375">         <ele>1307.5999755859375</ele>         <time>2026-02-28T09:11:18.000Z</time>         <extensions>           <ns3:TrackPointExtension>             <ns3:hr>104</ns3:hr>           </ns3:TrackPointExtension>         </extensions>       </trkpt>
       <trkpt lat="45.57018307037651538848876953125" lon="14.4073323346674442291259765625">         <ele>1307.4000244140625</ele>         <time>2026-02-28T09:11:24.000Z</time>         <extensions>           <ns3:TrackPointExtension>             <ns3:hr>105</ns3:hr>           </ns3:TrackPointExtension>         </extensions>       </trkpt>
       <trkpt lat="45.5702062882483005523681640625" lon="14.40736611373722553253173828125">         <ele>1307.199951171875</ele>         <time>2026-02-28T09:11:27.000Z</time>         <extensions>           <ns3:TrackPointExtension>             <ns3:hr>102</ns3:hr>           </ns3:TrackPointExtension>         </extensions>       </trkpt>
       <trkpt lat="45.57021810673177242279052734375" lon="14.40738304518163204193115234375">         <ele>1307.199951171875</ele>         <time>2026-02-28T09:11:29.000Z</time>         <extensions>           <ns3:TrackPointExtension>             <ns3:hr>99</ns3:hr>           </ns3:TrackPointExtension>         </extensions>       </trkpt>
       <trkpt lat="45.5702260695397853851318359375" lon="14.4073958694934844970703125">         <ele>1307.199951171875</ele>         <time>2026-02-28T09:11:30.000Z</time>         <extensions>           <ns3:TrackPointExtension>             <ns3:hr>96</ns3:hr>           </ns3:TrackPointExtension>         </extensions>       </trkpt>
       <trkpt lat="45.570232607424259185791015625" lon="14.40740215592086315155029296875">         <ele>1307.199951171875</ele>         <time>2026-02-28T09:11:31.000Z</time>         <extensions>           <ns3:TrackPointExtension>             <ns3:hr>96</ns3:hr>           </ns3:TrackPointExtension>         </extensions>       </trkpt>
       <trkpt lat="45.5702693201601505279541015625" lon="14.40745211206376552581787109375">         <ele>1307.199951171875</ele>         <time>2026-02-28T09:11:35.000Z</time>         <extensions>           <ns3:TrackPointExtension>             <ns3:hr>95</ns3:hr>           </ns3:TrackPointExtension>         </extensions>       </trkpt>
       <trkpt lat="45.57028465904295444488525390625" lon="14.40746895968914031982421875">         <ele>1307</ele>         <time>2026-02-28T09:11:37.000Z</time>         <extensions>           <ns3:TrackPointExtension>             <ns3:hr>95</ns3:hr>           </ns3:TrackPointExtension>         </extensions>       </trkpt>
       <trkpt lat="45.57031114585697650909423828125" lon="14.4074919261038303375244140625">         <ele>1307</ele>         <time>2026-02-28T09:11:41.000Z</time>         <extensions>           <ns3:TrackPointExtension>             <ns3:hr>96</ns3:hr>           </ns3:TrackPointExtension>         </extensions>       </trkpt>
       <trkpt lat="45.57035339064896106719970703125" lon="14.40757490694522857666015625">         <ele>1307</ele>         <time>2026-02-28T09:11:48.000Z</time>         <extensions>           <ns3:TrackPointExtension>             <ns3:hr>95</ns3:hr>           </ns3:TrackPointExtension>         </extensions>       </trkpt>
       <trkpt lat="45.5703923664987087249755859375" lon="14.40765344537794589996337890625">         <ele>1307</ele>         <time>2026-02-28T09:11:55.000Z</time>         <extensions>           <ns3:TrackPointExtension>             <ns3:hr>96</ns3:hr>           </ns3:TrackPointExtension>         </extensions>       </trkpt>
       <trkpt lat="45.5704272352159023284912109375" lon="14.40771178342401981353759765625">         <ele>1307</ele>         <time>2026-02-28T09:12:00.000Z</time>         <extensions>           <ns3:TrackPointExtension>             <ns3:hr>98</ns3:hr>           </ns3:TrackPointExtension>         </extensions>       </trkpt>
       <trkpt lat="45.570476688444614410400390625" lon="14.407790489494800567626953125">         <ele>1307</ele>         <time>2026-02-28T09:12:06.000Z</time>         <extensions>           <ns3:TrackPointExtension>             <ns3:hr>98</ns3:hr>           </ns3:TrackPointExtension>         </extensions>       </trkpt>
       <trkpt lat="45.57050652801990509033203125" lon="14.40784178674221038818359375">         <ele>1306.800048828125</ele>         <time>2026-02-28T09:12:10.000Z</time>         <extensions>           <ns3:TrackPointExtension>             <ns3:hr>95</ns3:hr>           </ns3:TrackPointExtension>         </extensions>       </trkpt>
       <trkpt lat="45.5705174244940280914306640625" lon="14.40787397325038909912109375">         <ele>1306.800048828125</ele>         <time>2026-02-28T09:12:12.000Z</time>         <extensions>           <ns3:TrackPointExtension>             <ns3:hr>93</ns3:hr>           </ns3:TrackPointExtension>         </extensions>       </trkpt>
       <trkpt lat="45.57052287273108959197998046875" lon="14.40788243897259235382080078125">         <ele>1306.800048828125</ele>         <time>2026-02-28T09:12:13.000Z</time>         <extensions>           <ns3:TrackPointExtension>             <ns3:hr>90</ns3:hr>           </ns3:TrackPointExtension>         </extensions>       </trkpt>
       <trkpt lat="45.57056629098951816558837890625" lon="14.407948069274425506591796875">         <ele>1306.800048828125</ele>         <time>2026-02-28T09:12:18.000Z</time>         <extensions>           <ns3:TrackPointExtension>             <ns3:hr>90</ns3:hr>           </ns3:TrackPointExtension>         </extensions>       </trkpt>
       <trkpt lat="45.57057584635913372039794921875" lon="14.40797782503068447113037109375">         <ele>1306.5999755859375</ele>         <time>2026-02-28T09:12:21.000Z</time>         <extensions>           <ns3:TrackPointExtension>             <ns3:hr>93</ns3:hr>           </ns3:TrackPointExtension>         </extensions>       </trkpt>
       <trkpt lat="45.57058833539485931396484375" lon="14.40800699405372142791748046875">         <ele>1306.5999755859375</ele>         <time>2026-02-28T09:12:23.000Z</time>         <extensions>           <ns3:TrackPointExtension>             <ns3:hr>93</ns3:hr>           </ns3:TrackPointExtension>         </extensions>       </trkpt>
       <trkpt lat="45.5706076137721538543701171875" lon="14.40806013531982898712158203125">         <ele>1306.800048828125</ele>         <time>2026-02-28T09:12:27.000Z</time>         <extensions>           <ns3:TrackPointExtension>             <ns3:hr>96</ns3:hr>           </ns3:TrackPointExtension>         </extensions>       </trkpt>
       <trkpt lat="45.57061708532273769378662109375" lon="14.4080850295722484588623046875">         <ele>1306.5999755859375</ele>         <time>2026-02-28T09:12:29.000Z</time>         <extensions>           <ns3:TrackPointExtension>             <ns3:hr>98</ns3:hr>           </ns3:TrackPointExtension>         </extensions>       </trkpt>
       <trkpt lat="45.57066016830503940582275390625" lon="14.40816365182399749755859375">         <ele>1306.5999755859375</ele>         <time>2026-02-28T09:12:35.000Z</time>         <extensions>           <ns3:TrackPointExtension>             <ns3:hr>101</ns3:hr>           </ns3:TrackPointExtension>         </extensions>       </trkpt>
       <trkpt lat="45.5706656165421009063720703125" lon="14.40817748196423053741455078125">         <ele>1306.5999755859375</ele>         <time>2026-02-28T09:12:36.000Z</time>         <extensions>           <ns3:TrackPointExtension>             <ns3:hr>102</ns3:hr>           </ns3:TrackPointExtension>         </extensions>       </trkpt>
       <trkpt lat="45.57069285772740840911865234375" lon="14.40821419470012187957763671875">         <ele>1306.5999755859375</ele>         <time>2026-02-28T09:12:41.000Z</time>         <extensions>           <ns3:TrackPointExtension>             <ns3:hr>101</ns3:hr>           </ns3:TrackPointExtension>         </extensions>       </trkpt>
       <trkpt lat="45.57073853909969329833984375" lon="14.40828326158225536346435546875">         <ele>1306.5999755859375</ele>         <time>2026-02-28T09:12:46.000Z</time>         <extensions>           <ns3:TrackPointExtension>             <ns3:hr>101</ns3:hr>           </ns3:TrackPointExtension>         </extensions>       </trkpt>
       <trkpt lat="45.570756308734416961669921875" lon="14.40836573950946331024169921875">         <ele>1306.5999755859375</ele>         <time>2026-02-28T09:12:51.000Z</time>         <extensions>           <ns3:TrackPointExtension>             <ns3:hr>102</ns3:hr>           </ns3:TrackPointExtension>         </extensions>       </trkpt>
       <trkpt lat="45.570779778063297271728515625" lon="14.40842675976455211639404296875">         <ele>1306.5999755859375</ele>         <time>2026-02-28T09:12:56.000Z</time>         <extensions>           <ns3:TrackPointExtension>             <ns3:hr>102</ns3:hr>           </ns3:TrackPointExtension>         </extensions>       </trkpt>
       <trkpt lat="45.57078924961388111114501953125" lon="14.408449642360210418701171875">         <ele>1306.199951171875</ele>         <time>2026-02-28T09:12:58.000Z</time>         <extensions>           <ns3:TrackPointExtension>             <ns3:hr>105</ns3:hr>           </ns3:TrackPointExtension>         </extensions>       </trkpt>
       <trkpt lat="45.57080366648733615875244140625" lon="14.40847621299326419830322265625">         <ele>1306.4000244140625</ele>         <time>2026-02-28T09:13:00.000Z</time>         <extensions>           <ns3:TrackPointExtension>             <ns3:hr>108</ns3:hr>           </ns3:TrackPointExtension>         </extensions>       </trkpt>
       <trkpt lat="45.57081204839050769805908203125" lon="14.4085007719695568084716796875">         <ele>1306.4000244140625</ele>         <time>2026-02-28T09:13:02.000Z</time>         <extensions>           <ns3:TrackPointExtension>             <ns3:hr>109</ns3:hr>           </ns3:TrackPointExtension>         </extensions>       </trkpt>
       <trkpt lat="45.57083702646195888519287109375" lon="14.4085584394633769989013671875">         <ele>1306.4000244140625</ele>         <time>2026-02-28T09:13:07.000Z</time>         <extensions>           <ns3:TrackPointExtension>             <ns3:hr>109</ns3:hr>           </ns3:TrackPointExtension>         </extensions>       </trkpt>
       <trkpt lat="45.5708647705614566802978515625" lon="14.408601187169551849365234375">         <ele>1306.5999755859375</ele>         <time>2026-02-28T09:13:12.000Z</time>         <extensions>           <ns3:TrackPointExtension>             <ns3:hr>108</ns3:hr>           </ns3:TrackPointExtension>         </extensions>       </trkpt>
       <trkpt lat="45.57091212831437587738037109375" lon="14.40865793265402317047119140625">         <ele>1306.5999755859375</ele>         <time>2026-02-28T09:13:16.000Z</time>         <extensions>           <ns3:TrackPointExtension>             <ns3:hr>105</ns3:hr>           </ns3:TrackPointExtension>         </extensions>       </trkpt>
       <trkpt lat="45.5709210969507694244384765625" lon="14.40867134369909763336181640625">         <ele>1306.5999755859375</ele>         <time>2026-02-28T09:13:17.000Z</time>         <extensions>           <ns3:TrackPointExtension>             <ns3:hr>104</ns3:hr>           </ns3:TrackPointExtension>         </extensions>       </trkpt>
       <trkpt lat="45.57095638476312160491943359375" lon="14.40873093903064727783203125">         <ele>1306.5999755859375</ele>         <time>2026-02-28T09:13:23.000Z</time>         <extensions>           <ns3:TrackPointExtension>             <ns3:hr>103</ns3:hr>           </ns3:TrackPointExtension>         </extensions>       </trkpt>
       <trkpt lat="45.57100349105894565582275390625" lon="14.40879455767571926116943359375">         <ele>1306.800048828125</ele>         <time>2026-02-28T09:13:29.000Z</time>         <extensions>           <ns3:TrackPointExtension>             <ns3:hr>102</ns3:hr>           </ns3:TrackPointExtension>         </extensions>       </trkpt>
       <trkpt lat="45.571039281785488128662109375" lon="14.4088578410446643829345703125">         <ele>1306.800048828125</ele>         <time>2026-02-28T09:13:34.000Z</time>         <extensions>           <ns3:TrackPointExtension>             <ns3:hr>104</ns3:hr>           </ns3:TrackPointExtension>         </extensions>       </trkpt>
       <trkpt lat="45.5710729770362377166748046875" lon="14.4089259020984172821044921875">         <ele>1306.5999755859375</ele>         <time>2026-02-28T09:13:39.000Z</time>         <extensions>           <ns3:TrackPointExtension>             <ns3:hr>102</ns3:hr>           </ns3:TrackPointExtension>         </extensions>       </trkpt>
       <trkpt lat="45.5711179040372371673583984375" lon="14.4089849106967449188232421875">         <ele>1306.5999755859375</ele>         <time>2026-02-28T09:13:45.000Z</time>         <extensions>           <ns3:TrackPointExtension>             <ns3:hr>102</ns3:hr>           </ns3:TrackPointExtension>         </extensions>       </trkpt>
       <trkpt lat="45.57116073556244373321533203125" lon="14.40902036614716053009033203125">         <ele>1306.4000244140625</ele>         <time>2026-02-28T09:13:50.000Z</time>         <extensions>           <ns3:TrackPointExtension>             <ns3:hr>104</ns3:hr>           </ns3:TrackPointExtension>         </extensions>       </trkpt>
       <trkpt lat="45.57121505029499530792236328125" lon="14.4090637005865573883056640625">         <ele>1306.199951171875</ele>         <time>2026-02-28T09:13:56.000Z</time>         <extensions>           <ns3:TrackPointExtension>             <ns3:hr>105</ns3:hr>           </ns3:TrackPointExtension>         </extensions>       </trkpt>
       <trkpt lat="45.57123298756778240203857421875" lon="14.40907962620258331298828125">         <ele>1306</ele>         <time>2026-02-28T09:13:58.000Z</time>         <extensions>           <ns3:TrackPointExtension>             <ns3:hr>106</ns3:hr>           </ns3:TrackPointExtension>         </extensions>       </trkpt>
       <trkpt lat="45.57127137668430805206298828125" lon="14.4091170094907283782958984375">         <ele>1305.800048828125</ele>         <time>2026-02-28T09:14:02.000Z</time>         <extensions>           <ns3:TrackPointExtension>             <ns3:hr>107</ns3:hr>           </ns3:TrackPointExtension>         </extensions>       </trkpt>
       <trkpt lat="45.571316890418529510498046875" lon="14.40914290957152843475341796875">         <ele>1305.5999755859375</ele>         <time>2026-02-28T09:14:07.000Z</time>         <extensions>           <ns3:TrackPointExtension>             <ns3:hr>104</ns3:hr>           </ns3:TrackPointExtension>         </extensions>       </trkpt>
       <trkpt lat="45.5713301338255405426025390625" lon="14.40915405750274658203125">         <ele>1305.5999755859375</ele>         <time>2026-02-28T09:14:08.000Z</time>         <extensions>           <ns3:TrackPointExtension>             <ns3:hr>103</ns3:hr>           </ns3:TrackPointExtension>         </extensions>       </trkpt>
       <trkpt lat="45.57138620875775814056396484375" lon="14.409201331436634063720703125">         <ele>1305.4000244140625</ele>         <time>2026-02-28T09:14:14.000Z</time>         <extensions>           <ns3:TrackPointExtension>             <ns3:hr>100</ns3:hr>           </ns3:TrackPointExtension>         </extensions>       </trkpt>
       <trkpt lat="45.57140615768730640411376953125" lon="14.4092276506125926971435546875">         <ele>1305.4000244140625</ele>         <time>2026-02-28T09:14:18.000Z</time>         <extensions>           <ns3:TrackPointExtension>             <ns3:hr>103</ns3:hr>           </ns3:TrackPointExtension>         </extensions>       </trkpt>
       <trkpt lat="45.57141236029565334320068359375" lon="14.4092457555234432220458984375">         <ele>1305.5999755859375</ele>         <time>2026-02-28T09:14:20.000Z</time>         <extensions>           <ns3:TrackPointExtension>             <ns3:hr>106</ns3:hr>           </ns3:TrackPointExtension>         </extensions>       </trkpt>
       <trkpt lat="45.57142308913171291351318359375" lon="14.4092762656509876251220703125">         <ele>1305.4000244140625</ele>         <time>2026-02-28T09:14:23.000Z</time>         <extensions>           <ns3:TrackPointExtension>             <ns3:hr>106</ns3:hr>           </ns3:TrackPointExtension>         </extensions>       </trkpt>
       <trkpt lat="45.57147723622620105743408203125" lon="14.4093372859060764312744140625">         <ele>1305.4000244140625</ele>         <time>2026-02-28T09:14:30.000Z</time>         <extensions>           <ns3:TrackPointExtension>             <ns3:hr>103</ns3:hr>           </ns3:TrackPointExtension>         </extensions>       </trkpt>
       <trkpt lat="45.57150992564857006072998046875" lon="14.40936989150941371917724609375">         <ele>1305.4000244140625</ele>         <time>2026-02-28T09:14:33.000Z</time>         <extensions>           <ns3:TrackPointExtension>             <ns3:hr>102</ns3:hr>           </ns3:TrackPointExtension>         </extensions>       </trkpt>
       <trkpt lat="45.5715722031891345977783203125" lon="14.4094234518706798553466796875">         <ele>1305.4000244140625</ele>         <time>2026-02-28T09:14:39.000Z</time>         <extensions>           <ns3:TrackPointExtension>             <ns3:hr>101</ns3:hr>           </ns3:TrackPointExtension>         </extensions>       </trkpt>
       <trkpt lat="45.57161025702953338623046875" lon="14.40946661867201328277587890625">         <ele>1305.5999755859375</ele>         <time>2026-02-28T09:14:44.000Z</time>         <extensions>           <ns3:TrackPointExtension>             <ns3:hr>102</ns3:hr>           </ns3:TrackPointExtension>         </extensions>       </trkpt>
       <trkpt lat="45.571675635874271392822265625" lon="14.4095176644623279571533203125">         <ele>1305.800048828125</ele>         <time>2026-02-28T09:14:51.000Z</time>         <extensions>           <ns3:TrackPointExtension>             <ns3:hr>102</ns3:hr>           </ns3:TrackPointExtension>         </extensions>       </trkpt>
       <trkpt lat="45.5717006139457225799560546875" lon="14.40952529199421405792236328125">         <ele>1306</ele>         <time>2026-02-28T09:14:56.000Z</time>         <extensions>           <ns3:TrackPointExtension>             <ns3:hr>101</ns3:hr>           </ns3:TrackPointExtension>         </extensions>       </trkpt>
       <trkpt lat="45.5716954171657562255859375" lon="14.40950735472142696380615234375">         <ele>1306.199951171875</ele>         <time>2026-02-28T09:15:04.000Z</time>         <extensions>           <ns3:TrackPointExtension>             <ns3:hr>102</ns3:hr>           </ns3:TrackPointExtension>         </extensions>       </trkpt>
       <trkpt lat="45.5716798268258571624755859375" lon="14.40950810909271240234375">         <ele>1306.199951171875</ele>         <time>2026-02-28T09:15:13.000Z</time>         <extensions>           <ns3:TrackPointExtension>             <ns3:hr>104</ns3:hr>           </ns3:TrackPointExtension>         </extensions>       </trkpt>
       <trkpt lat="45.5716791562736034393310546875" lon="14.40952026285231113433837890625">         <ele>1306.199951171875</ele>         <time>2026-02-28T09:15:17.000Z</time>         <extensions>           <ns3:TrackPointExtension>             <ns3:hr>101</ns3:hr>           </ns3:TrackPointExtension>         </extensions>       </trkpt>
       <trkpt lat="45.57165526784956455230712890625" lon="14.409505426883697509765625">         <ele>1306.199951171875</ele>         <time>2026-02-28T09:15:20.000Z</time>         <extensions>           <ns3:TrackPointExtension>             <ns3:hr>98</ns3:hr>           </ns3:TrackPointExtension>         </extensions>       </trkpt>
       <trkpt lat="45.5716444551944732666015625" lon="14.4095039181411266326904296875">         <ele>1306.4000244140625</ele>         <time>2026-02-28T09:15:22.000Z</time>         <extensions>           <ns3:TrackPointExtension>             <ns3:hr>96</ns3:hr>           </ns3:TrackPointExtension>         </extensions>       </trkpt>
       <trkpt lat="45.5716476403176784515380859375" lon="14.4095067679882049560546875">         <ele>1306.4000244140625</ele>         <time>2026-02-28T09:15:24.000Z</time>         <extensions>           <ns3:TrackPointExtension>             <ns3:hr>93</ns3:hr>           </ns3:TrackPointExtension>         </extensions>       </trkpt>
       <trkpt lat="45.5716690979897975921630859375" lon="14.409526884555816650390625">         <ele>1306.199951171875</ele>         <time>2026-02-28T09:15:27.000Z</time>         <extensions>           <ns3:TrackPointExtension>             <ns3:hr>90</ns3:hr>           </ns3:TrackPointExtension>         </extensions>       </trkpt>
       <trkpt lat="45.5716645717620849609375" lon="14.40952328033745288848876953125">         <ele>1306.199951171875</ele>         <time>2026-02-28T09:15:31.000Z</time>         <extensions>           <ns3:TrackPointExtension>             <ns3:hr>87</ns3:hr>           </ns3:TrackPointExtension>         </extensions>       </trkpt>
       <trkpt lat="45.57166281156241893768310546875" lon="14.40952277742326259613037109375">         <ele>1306</ele>         <time>2026-02-28T09:15:37.000Z</time>         <extensions>           <ns3:TrackPointExtension>             <ns3:hr>85</ns3:hr>           </ns3:TrackPointExtension>         </extensions>       </trkpt>
       <trkpt lat="45.5716603808104991912841796875" lon="14.40952613018453121185302734375">         <ele>1306</ele>         <time>2026-02-28T09:15:41.000Z</time>         <extensions>           <ns3:TrackPointExtension>             <ns3:hr>88</ns3:hr>           </ns3:TrackPointExtension>         </extensions>       </trkpt>
       <trkpt lat="45.5716627277433872222900390625" lon="14.40952847711741924285888671875">         <ele>1306</ele>         <time>2026-02-28T09:15:42.000Z</time>         <extensions>           <ns3:TrackPointExtension>             <ns3:hr>91</ns3:hr>           </ns3:TrackPointExtension>         </extensions>       </trkpt>
       <trkpt lat="45.57166348211467266082763671875" lon="14.409531243145465850830078125">         <ele>1305.800048828125</ele>         <time>2026-02-28T09:15:43.000Z</time>         <extensions>           <ns3:TrackPointExtension>             <ns3:hr>94</ns3:hr>           </ns3:TrackPointExtension>         </extensions>       </trkpt>
       <trkpt lat="45.57166130281984806060791015625" lon="14.40953082405030727386474609375">         <ele>1305.800048828125</ele>         <time>2026-02-28T09:15:44.000Z</time>         <extensions>           <ns3:TrackPointExtension>             <ns3:hr>98</ns3:hr>           </ns3:TrackPointExtension>         </extensions>       </trkpt>
       <trkpt lat="45.57165862061083316802978515625" lon="14.4095277227461338043212890625">         <ele>1305.800048828125</ele>         <time>2026-02-28T09:15:45.000Z</time>         <extensions>           <ns3:TrackPointExtension>             <ns3:hr>101</ns3:hr>           </ns3:TrackPointExtension>         </extensions>       </trkpt>
       <trkpt lat="45.57165451347827911376953125" lon="14.4095243699848651885986328125">         <ele>1306</ele>         <time>2026-02-28T09:15:51.000Z</time>         <extensions>           <ns3:TrackPointExtension>             <ns3:hr>97</ns3:hr>           </ns3:TrackPointExtension>         </extensions>       </trkpt>
       <trkpt lat="45.57168024592101573944091796875" lon="14.4095404632389545440673828125">         <ele>1305.5999755859375</ele>         <time>2026-02-28T09:15:55.000Z</time>         <extensions>           <ns3:TrackPointExtension>             <ns3:hr>96</ns3:hr>           </ns3:TrackPointExtension>         </extensions>       </trkpt>
       <trkpt lat="45.57171092368662357330322265625" lon="14.40955303609371185302734375">         <ele>1305.4000244140625</ele>         <time>2026-02-28T09:15:58.000Z</time>         <extensions>           <ns3:TrackPointExtension>             <ns3:hr>93</ns3:hr>           </ns3:TrackPointExtension>         </extensions>       </trkpt>
       <trkpt lat="45.57172835804522037506103515625" lon="14.40956703387200832366943359375">         <ele>1305.5999755859375</ele>         <time>2026-02-28T09:16:01.000Z</time>         <extensions>           <ns3:TrackPointExtension>             <ns3:hr>92</ns3:hr>           </ns3:TrackPointExtension>         </extensions>       </trkpt>
       <trkpt lat="45.5717264302074909210205078125" lon="14.4095589034259319305419921875">         <ele>1305.4000244140625</ele>         <time>2026-02-28T09:16:03.000Z</time>         <extensions>           <ns3:TrackPointExtension>             <ns3:hr>96</ns3:hr>           </ns3:TrackPointExtension>         </extensions>       </trkpt>
       <trkpt lat="45.57174277491867542266845703125" lon="14.4095820374786853790283203125">         <ele>1305.800048828125</ele>         <time>2026-02-28T09:16:09.000Z</time>         <extensions>           <ns3:TrackPointExtension>             <ns3:hr>97</ns3:hr>           </ns3:TrackPointExtension>         </extensions>       </trkpt>
       <trkpt lat="45.5717549286782741546630859375" lon="14.40962051041424274444580078125">         <ele>1306</ele>         <time>2026-02-28T09:16:14.000Z</time>         <extensions>           <ns3:TrackPointExtension>             <ns3:hr>96</ns3:hr>           </ns3:TrackPointExtension>         </extensions>       </trkpt>
       <trkpt lat="45.571767501533031463623046875" lon="14.40964682959020137786865234375">         <ele>1306</ele>         <time>2026-02-28T09:16:18.000Z</time>         <extensions>           <ns3:TrackPointExtension>             <ns3:hr>100</ns3:hr>           </ns3:TrackPointExtension>         </extensions>       </trkpt>
       <trkpt lat="45.57177797891199588775634765625" lon="14.409702904522418975830078125">         <ele>1306.199951171875</ele>         <time>2026-02-28T09:16:22.000Z</time>         <extensions>           <ns3:TrackPointExtension>             <ns3:hr>103</ns3:hr>           </ns3:TrackPointExtension>         </extensions>       </trkpt>
       <trkpt lat="45.57177563197910785675048828125" lon="14.40974439494311809539794921875">         <ele>1306.199951171875</ele>         <time>2026-02-28T09:16:24.000Z</time>         <extensions>           <ns3:TrackPointExtension>             <ns3:hr>106</ns3:hr>           </ns3:TrackPointExtension>         </extensions>       </trkpt>
       <trkpt lat="45.5717750452458858489990234375" lon="14.4097748212516307830810546875">         <ele>1306.199951171875</ele>         <time>2026-02-28T09:16:26.000Z</time>         <extensions>           <ns3:TrackPointExtension>             <ns3:hr>109</ns3:hr>           </ns3:TrackPointExtension>         </extensions>       </trkpt>
       <trkpt lat="45.57177378796041011810302734375" lon="14.40978479571640491485595703125">         <ele>1306.199951171875</ele>         <time>2026-02-28T09:16:27.000Z</time>         <extensions>           <ns3:TrackPointExtension>             <ns3:hr>110</ns3:hr>           </ns3:TrackPointExtension>         </extensions>       </trkpt>
       <trkpt lat="45.57177009992301464080810546875" lon="14.4098603166639804840087890625">         <ele>1306.199951171875</ele>         <time>2026-02-28T09:16:33.000Z</time>         <extensions>           <ns3:TrackPointExtension>             <ns3:hr>107</ns3:hr>           </ns3:TrackPointExtension>         </extensions>       </trkpt>
       <trkpt lat="45.571765489876270294189453125" lon="14.40987029112875461578369140625">         <ele>1306.199951171875</ele>         <time>2026-02-28T09:16:34.000Z</time>         <extensions>           <ns3:TrackPointExtension>             <ns3:hr>106</ns3:hr>           </ns3:TrackPointExtension>         </extensions>       </trkpt>
       <trkpt lat="45.5717515759170055389404296875" lon="14.40990750677883625030517578125">         <ele>1306.4000244140625</ele>         <time>2026-02-28T09:16:38.000Z</time>         <extensions>           <ns3:TrackPointExtension>             <ns3:hr>109</ns3:hr>           </ns3:TrackPointExtension>         </extensions>       </trkpt>
       <trkpt lat="45.57175241410732269287109375" lon="14.40991488285362720489501953125">         <ele>1306.4000244140625</ele>         <time>2026-02-28T09:16:39.000Z</time>         <extensions>           <ns3:TrackPointExtension>             <ns3:hr>109</ns3:hr>           </ns3:TrackPointExtension>         </extensions>       </trkpt>
       <trkpt lat="45.57175400666892528533935546875" lon="14.409982860088348388671875">         <ele>1306.5999755859375</ele>         <time>2026-02-28T09:16:46.000Z</time>         <extensions>           <ns3:TrackPointExtension>             <ns3:hr>110</ns3:hr>           </ns3:TrackPointExtension>         </extensions>       </trkpt>
       <trkpt lat="45.57173640467226505279541015625" lon="14.41005100496113300323486328125">         <ele>1306.800048828125</ele>         <time>2026-02-28T09:16:53.000Z</time>         <extensions>           <ns3:TrackPointExtension>             <ns3:hr>112</ns3:hr>           </ns3:TrackPointExtension>         </extensions>       </trkpt>
       <trkpt lat="45.5717291124165058135986328125" lon="14.410123340785503387451171875">         <ele>1306.800048828125</ele>         <time>2026-02-28T09:16:59.000Z</time>         <extensions>           <ns3:TrackPointExtension>             <ns3:hr>109</ns3:hr>           </ns3:TrackPointExtension>         </extensions>       </trkpt>
       <trkpt lat="45.57173095643520355224609375" lon="14.4101335667073726654052734375">         <ele>1306.800048828125</ele>         <time>2026-02-28T09:17:00.000Z</time>         <extensions>           <ns3:TrackPointExtension>             <ns3:hr>109</ns3:hr>           </ns3:TrackPointExtension>         </extensions>       </trkpt>
       <trkpt lat="45.57173573412001132965087890625" lon="14.4102287851274013519287109375">         <ele>1306.800048828125</ele>         <time>2026-02-28T09:17:07.000Z</time>         <extensions>           <ns3:TrackPointExtension>             <ns3:hr>111</ns3:hr>           </ns3:TrackPointExtension>         </extensions>       </trkpt>
       <trkpt lat="45.57174780406057834625244140625" lon="14.41031184978783130645751953125">         <ele>1306.800048828125</ele>         <time>2026-02-28T09:17:14.000Z</time>         <extensions>           <ns3:TrackPointExtension>             <ns3:hr>114</ns3:hr>           </ns3:TrackPointExtension>         </extensions>       </trkpt>
       <trkpt lat="45.57174998335540294647216796875" lon="14.410327188670635223388671875">         <ele>1306.800048828125</ele>         <time>2026-02-28T09:17:15.000Z</time>         <extensions>           <ns3:TrackPointExtension>             <ns3:hr>115</ns3:hr>           </ns3:TrackPointExtension>         </extensions>       </trkpt>
       <trkpt lat="45.57175576686859130859375" lon="14.41038359887897968292236328125">         <ele>1306.800048828125</ele>         <time>2026-02-28T09:17:20.000Z</time>         <extensions>           <ns3:TrackPointExtension>             <ns3:hr>117</ns3:hr>           </ns3:TrackPointExtension>         </extensions>       </trkpt>
       <trkpt lat="45.571754090487957000732421875" lon="14.41046859137713909149169921875">         <ele>1306.800048828125</ele>         <time>2026-02-28T09:17:25.000Z</time>         <extensions>           <ns3:TrackPointExtension>             <ns3:hr>115</ns3:hr>           </ns3:TrackPointExtension>         </extensions>       </trkpt>
       <trkpt lat="45.57175249792635440826416015625" lon="14.41049960441887378692626953125">         <ele>1306.800048828125</ele>         <time>2026-02-28T09:17:28.000Z</time>         <extensions>           <ns3:TrackPointExtension>             <ns3:hr>118</ns3:hr>           </ns3:TrackPointExtension>         </extensions>       </trkpt>
       <trkpt lat="45.5717529170215129852294921875" lon="14.41050848923623561859130859375">         <ele>1306.800048828125</ele>         <time>2026-02-28T09:17:29.000Z</time>         <extensions>           <ns3:TrackPointExtension>             <ns3:hr>118</ns3:hr>           </ns3:TrackPointExtension>         </extensions>       </trkpt>
       <trkpt lat="45.57174973189830780029296875" lon="14.41056179814040660858154296875">         <ele>1306.800048828125</ele>         <time>2026-02-28T09:17:33.000Z</time>         <extensions>           <ns3:TrackPointExtension>             <ns3:hr>121</ns3:hr>           </ns3:TrackPointExtension>         </extensions>       </trkpt>
       <trkpt lat="45.57174746878445148468017578125" lon="14.4105768017470836639404296875">         <ele>1306.5999755859375</ele>         <time>2026-02-28T09:17:34.000Z</time>         <extensions>           <ns3:TrackPointExtension>             <ns3:hr>122</ns3:hr>           </ns3:TrackPointExtension>         </extensions>       </trkpt>
       <trkpt lat="45.5717418529093265533447265625" lon="14.410642683506011962890625">         <ele>1306.4000244140625</ele>         <time>2026-02-28T09:17:39.000Z</time>         <extensions>           <ns3:TrackPointExtension>             <ns3:hr>125</ns3:hr>           </ns3:TrackPointExtension>         </extensions>       </trkpt>
       <trkpt lat="45.57173958979547023773193359375" lon="14.41064729355275630950927734375">         <ele>1306.4000244140625</ele>         <time>2026-02-28T09:17:40.000Z</time>         <extensions>           <ns3:TrackPointExtension>             <ns3:hr>125</ns3:hr>           </ns3:TrackPointExtension>         </extensions>       </trkpt>
       <trkpt lat="45.57173590175807476043701171875" lon="14.41070848144590854644775390625">         <ele>1306.4000244140625</ele>         <time>2026-02-28T09:17:45.000Z</time>         <extensions>           <ns3:TrackPointExtension>             <ns3:hr>125</ns3:hr>           </ns3:TrackPointExtension>         </extensions>       </trkpt>
       <trkpt lat="45.57173657231032848358154296875" lon="14.41079246811568737030029296875">         <ele>1306.199951171875</ele>         <time>2026-02-28T09:17:51.000Z</time>         <extensions>           <ns3:TrackPointExtension>             <ns3:hr>125</ns3:hr>           </ns3:TrackPointExtension>         </extensions>       </trkpt>
       <trkpt lat="45.57173497974872589111328125" lon="14.41082331351935863494873046875">         <ele>1306.199951171875</ele>         <time>2026-02-28T09:17:53.000Z</time>         <extensions>           <ns3:TrackPointExtension>             <ns3:hr>122</ns3:hr>           </ns3:TrackPointExtension>         </extensions>       </trkpt>
       <trkpt lat="45.57173430919647216796875" lon="14.410866312682628631591796875">         <ele>1306.199951171875</ele>         <time>2026-02-28T09:17:56.000Z</time>         <extensions>           <ns3:TrackPointExtension>             <ns3:hr>121</ns3:hr>           </ns3:TrackPointExtension>         </extensions>       </trkpt>
       <trkpt lat="45.5717371590435504913330078125" lon="14.4109100662171840667724609375">         <ele>1306.199951171875</ele>         <time>2026-02-28T09:17:59.000Z</time>         <extensions>           <ns3:TrackPointExtension>             <ns3:hr>118</ns3:hr>           </ns3:TrackPointExtension>         </extensions>       </trkpt>
       <trkpt lat="45.5717361532151699066162109375" lon="14.41096748225390911102294921875">         <ele>1306.199951171875</ele>         <time>2026-02-28T09:18:03.000Z</time>         <extensions>           <ns3:TrackPointExtension>             <ns3:hr>117</ns3:hr>           </ns3:TrackPointExtension>         </extensions>       </trkpt>
       <trkpt lat="45.5717475526034832000732421875" lon="14.41102749668061733245849609375">         <ele>1306.4000244140625</ele>         <time>2026-02-28T09:18:08.000Z</time>         <extensions>           <ns3:TrackPointExtension>             <ns3:hr>115</ns3:hr>           </ns3:TrackPointExtension>         </extensions>       </trkpt>
       <trkpt lat="45.57175082154572010040283203125" lon="14.411053396761417388916015625">         <ele>1306.4000244140625</ele>         <time>2026-02-28T09:18:10.000Z</time>         <extensions>           <ns3:TrackPointExtension>             <ns3:hr>112</ns3:hr>           </ns3:TrackPointExtension>         </extensions>       </trkpt>
       <trkpt lat="45.57174981571733951568603515625" lon="14.4110777042806148529052734375">         <ele>1306.4000244140625</ele>         <time>2026-02-28T09:18:12.000Z</time>         <extensions>           <ns3:TrackPointExtension>             <ns3:hr>107</ns3:hr>           </ns3:TrackPointExtension>         </extensions>       </trkpt>
       <trkpt lat="45.5717544257640838623046875" lon="14.4110847450792789459228515625">         <ele>1306.4000244140625</ele>         <time>2026-02-28T09:18:13.000Z</time>         <extensions>           <ns3:TrackPointExtension>             <ns3:hr>106</ns3:hr>           </ns3:TrackPointExtension>         </extensions>       </trkpt>
       <trkpt lat="45.57176490314304828643798828125" lon="14.41113528795540332794189453125">         <ele>1306.5999755859375</ele>         <time>2026-02-28T09:18:18.000Z</time>         <extensions>           <ns3:TrackPointExtension>             <ns3:hr>105</ns3:hr>           </ns3:TrackPointExtension>         </extensions>       </trkpt>
       <trkpt lat="45.5717676691710948944091796875" lon="14.4111953862011432647705078125">         <ele>1306.5999755859375</ele>         <time>2026-02-28T09:18:23.000Z</time>         <extensions>           <ns3:TrackPointExtension>             <ns3:hr>104</ns3:hr>           </ns3:TrackPointExtension>         </extensions>       </trkpt>
       <trkpt lat="45.57177060283720493316650390625" lon="14.41124995239078998565673828125">         <ele>1307</ele>         <time>2026-02-28T09:18:28.000Z</time>         <extensions>           <ns3:TrackPointExtension>             <ns3:hr>104</ns3:hr>           </ns3:TrackPointExtension>         </extensions>       </trkpt>
       <trkpt lat="45.571776218712329864501953125" lon="14.41128431819379329681396484375">         <ele>1307</ele>         <time>2026-02-28T09:18:31.000Z</time>         <extensions>           <ns3:TrackPointExtension>             <ns3:hr>103</ns3:hr>           </ns3:TrackPointExtension>         </extensions>       </trkpt>
       <trkpt lat="45.57178133167326450347900390625" lon="14.4113006629049777984619140625">         <ele>1307</ele>         <time>2026-02-28T09:18:33.000Z</time>         <extensions>           <ns3:TrackPointExtension>             <ns3:hr>107</ns3:hr>           </ns3:TrackPointExtension>         </extensions>       </trkpt>
       <trkpt lat="45.5717812478542327880859375" lon="14.4113118946552276611328125">         <ele>1307</ele>         <time>2026-02-28T09:18:34.000Z</time>         <extensions>           <ns3:TrackPointExtension>             <ns3:hr>112</ns3:hr>           </ns3:TrackPointExtension>         </extensions>       </trkpt>
       <trkpt lat="45.57178166694939136505126953125" lon="14.41132656298577785491943359375">         <ele>1307</ele>         <time>2026-02-28T09:18:35.000Z</time>         <extensions>           <ns3:TrackPointExtension>             <ns3:hr>117</ns3:hr>           </ns3:TrackPointExtension>         </extensions>       </trkpt>
       <trkpt lat="45.5717794038355350494384765625" lon="14.4113362021744251251220703125">         <ele>1307</ele>         <time>2026-02-28T09:18:36.000Z</time>         <extensions>           <ns3:TrackPointExtension>             <ns3:hr>120</ns3:hr>           </ns3:TrackPointExtension>         </extensions>       </trkpt>
       <trkpt lat="45.57177848182618618011474609375" lon="14.411353133618831634521484375">         <ele>1307</ele>         <time>2026-02-28T09:18:37.000Z</time>         <extensions>           <ns3:TrackPointExtension>             <ns3:hr>120</ns3:hr>           </ns3:TrackPointExtension>         </extensions>       </trkpt>
       <trkpt lat="45.57177781127393245697021484375" lon="14.411375261843204498291015625">         <ele>1307.199951171875</ele>         <time>2026-02-28T09:18:39.000Z</time>         <extensions>           <ns3:TrackPointExtension>             <ns3:hr>120</ns3:hr>           </ns3:TrackPointExtension>         </extensions>       </trkpt>
       <trkpt lat="45.5717740394175052642822265625" lon="14.41143058240413665771484375">         <ele>1307.4000244140625</ele>         <time>2026-02-28T09:18:46.000Z</time>         <extensions>           <ns3:TrackPointExtension>             <ns3:hr>122</ns3:hr>           </ns3:TrackPointExtension>         </extensions>       </trkpt>
       <trkpt lat="45.57177546434104442596435546875" lon="14.41143871285021305084228515625">         <ele>1307.5999755859375</ele>         <time>2026-02-28T09:18:47.000Z</time>         <extensions>           <ns3:TrackPointExtension>             <ns3:hr>125</ns3:hr>           </ns3:TrackPointExtension>         </extensions>       </trkpt>
       <trkpt lat="45.57178057730197906494140625" lon="14.41148020327091217041015625">         <ele>1307.5999755859375</ele>         <time>2026-02-28T09:18:52.000Z</time>         <extensions>           <ns3:TrackPointExtension>             <ns3:hr>124</ns3:hr>           </ns3:TrackPointExtension>         </extensions>       </trkpt>
       <trkpt lat="45.57178183458745479583740234375" lon="14.4114830531179904937744140625">         <ele>1307.4000244140625</ele>         <time>2026-02-28T09:18:54.000Z</time>         <extensions>           <ns3:TrackPointExtension>             <ns3:hr>121</ns3:hr>           </ns3:TrackPointExtension>         </extensions>       </trkpt>
       <trkpt lat="45.57178300805389881134033203125" lon="14.4114800356328487396240234375">         <ele>1307.4000244140625</ele>         <time>2026-02-28T09:18:55.000Z</time>         <extensions>           <ns3:TrackPointExtension>             <ns3:hr>118</ns3:hr>           </ns3:TrackPointExtension>         </extensions>       </trkpt>
       <trkpt lat="45.57178334333002567291259765625" lon="14.41148632206022739410400390625">         <ele>1307.4000244140625</ele>         <time>2026-02-28T09:18:56.000Z</time>         <extensions>           <ns3:TrackPointExtension>             <ns3:hr>118</ns3:hr>           </ns3:TrackPointExtension>         </extensions>       </trkpt>
       <trkpt lat="45.5717844329774379730224609375" lon="14.41152571700513362884521484375">         <ele>1307.5999755859375</ele>         <time>2026-02-28T09:18:59.000Z</time>         <extensions>           <ns3:TrackPointExtension>             <ns3:hr>117</ns3:hr>           </ns3:TrackPointExtension>         </extensions>       </trkpt>
       <trkpt lat="45.5717866122722625732421875" lon="14.41155522130429744720458984375">         <ele>1307.800048828125</ele>         <time>2026-02-28T09:19:01.000Z</time>         <extensions>           <ns3:TrackPointExtension>             <ns3:hr>114</ns3:hr>           </ns3:TrackPointExtension>         </extensions>       </trkpt>
       <trkpt lat="45.5717958323657512664794921875" lon="14.411599896848201751708984375">         <ele>1307.800048828125</ele>         <time>2026-02-28T09:19:04.000Z</time>         <extensions>           <ns3:TrackPointExtension>             <ns3:hr>113</ns3:hr>           </ns3:TrackPointExtension>         </extensions>       </trkpt>
       <trkpt lat="45.57180446572601795196533203125" lon="14.411657564342021942138671875">         <ele>1307.800048828125</ele>         <time>2026-02-28T09:19:07.000Z</time>         <extensions>           <ns3:TrackPointExtension>             <ns3:hr>116</ns3:hr>           </ns3:TrackPointExtension>         </extensions>       </trkpt>
       <trkpt lat="45.5718080699443817138671875" lon="14.4116771779954433441162109375">         <ele>1308</ele>         <time>2026-02-28T09:19:08.000Z</time>         <extensions>           <ns3:TrackPointExtension>             <ns3:hr>117</ns3:hr>           </ns3:TrackPointExtension>         </extensions>       </trkpt>
       <trkpt lat="45.57181469164788722991943359375" lon="14.411693103611469268798828125">         <ele>1308</ele>         <time>2026-02-28T09:19:10.000Z</time>         <extensions>           <ns3:TrackPointExtension>             <ns3:hr>118</ns3:hr>           </ns3:TrackPointExtension>         </extensions>       </trkpt>
       <trkpt lat="45.57182215154170989990234375" lon="14.411742053925991058349609375">         <ele>1308.199951171875</ele>         <time>2026-02-28T09:19:14.000Z</time>         <extensions>           <ns3:TrackPointExtension>             <ns3:hr>119</ns3:hr>           </ns3:TrackPointExtension>         </extensions>       </trkpt>
       <trkpt lat="45.57183648459613323211669921875" lon="14.4118008948862552642822265625">         <ele>1308.199951171875</ele>         <time>2026-02-28T09:19:19.000Z</time>         <extensions>           <ns3:TrackPointExtension>             <ns3:hr>119</ns3:hr>           </ns3:TrackPointExtension>         </extensions>       </trkpt>
       <trkpt lat="45.5718444474041461944580078125" lon="14.41183081828057765960693359375">         <ele>1308.199951171875</ele>         <time>2026-02-28T09:19:21.000Z</time>         <extensions>           <ns3:TrackPointExtension>             <ns3:hr>116</ns3:hr>           </ns3:TrackPointExtension>         </extensions>       </trkpt>
       <trkpt lat="45.5718545056879520416259765625" lon="14.4118840433657169342041015625">         <ele>1308.199951171875</ele>         <time>2026-02-28T09:19:25.000Z</time>         <extensions>           <ns3:TrackPointExtension>             <ns3:hr>115</ns3:hr>           </ns3:TrackPointExtension>         </extensions>       </trkpt>
       <trkpt lat="45.5718665756285190582275390625" lon="14.41194850020110607147216796875">         <ele>1308</ele>         <time>2026-02-28T09:19:30.000Z</time>         <extensions>           <ns3:TrackPointExtension>             <ns3:hr>115</ns3:hr>           </ns3:TrackPointExtension>         </extensions>       </trkpt>
       <trkpt lat="45.57188224978744983673095703125" lon="14.41200566478073596954345703125">         <ele>1308</ele>         <time>2026-02-28T09:19:34.000Z</time>         <extensions>           <ns3:TrackPointExtension>             <ns3:hr>116</ns3:hr>           </ns3:TrackPointExtension>         </extensions>       </trkpt>
       <trkpt lat="45.57189281098544597625732421875" lon="14.41205411218106746673583984375">         <ele>1308</ele>         <time>2026-02-28T09:19:38.000Z</time>         <extensions>           <ns3:TrackPointExtension>             <ns3:hr>115</ns3:hr>           </ns3:TrackPointExtension>         </extensions>       </trkpt>
       <trkpt lat="45.571908988058567047119140625" lon="14.4120905734598636627197265625">         <ele>1308</ele>         <time>2026-02-28T09:19:41.000Z</time>         <extensions>           <ns3:TrackPointExtension>             <ns3:hr>112</ns3:hr>           </ns3:TrackPointExtension>         </extensions>       </trkpt>
       <trkpt lat="45.57191669940948486328125" lon="14.41211345605552196502685546875">         <ele>1308</ele>         <time>2026-02-28T09:19:43.000Z</time>         <extensions>           <ns3:TrackPointExtension>             <ns3:hr>110</ns3:hr>           </ns3:TrackPointExtension>         </extensions>       </trkpt>
       <trkpt lat="45.5719406716525554656982421875" lon="14.41215452738106250762939453125">         <ele>1307.800048828125</ele>         <time>2026-02-28T09:19:48.000Z</time>         <extensions>           <ns3:TrackPointExtension>             <ns3:hr>110</ns3:hr>           </ns3:TrackPointExtension>         </extensions>       </trkpt>
       <trkpt lat="45.5719497241079807281494140625" lon="14.4121541082859039306640625">         <ele>1307.5999755859375</ele>         <time>2026-02-28T09:19:53.000Z</time>         <extensions>           <ns3:TrackPointExtension>             <ns3:hr>110</ns3:hr>           </ns3:TrackPointExtension>         </extensions>       </trkpt>
       <trkpt lat="45.571908988058567047119140625" lon="14.4121422059834003448486328125">         <ele>1307.5999755859375</ele>         <time>2026-02-28T09:19:59.000Z</time>         <extensions>           <ns3:TrackPointExtension>             <ns3:hr>113</ns3:hr>           </ns3:TrackPointExtension>         </extensions>       </trkpt>
       <trkpt lat="45.5718799866735935211181640625" lon="14.41213843412697315216064453125">         <ele>1307.4000244140625</ele>         <time>2026-02-28T09:20:05.000Z</time>         <extensions>           <ns3:TrackPointExtension>             <ns3:hr>109</ns3:hr>           </ns3:TrackPointExtension>         </extensions>       </trkpt>
       <trkpt lat="45.5718897096812725067138671875" lon="14.41214228980243206024169921875">         <ele>1307.4000244140625</ele>         <time>2026-02-28T09:20:06.000Z</time>         <extensions>           <ns3:TrackPointExtension>             <ns3:hr>107</ns3:hr>           </ns3:TrackPointExtension>         </extensions>       </trkpt>
       <trkpt lat="45.571899600327014923095703125" lon="14.41214648075401782989501953125">         <ele>1307.4000244140625</ele>         <time>2026-02-28T09:20:12.000Z</time>         <extensions>           <ns3:TrackPointExtension>             <ns3:hr>104</ns3:hr>           </ns3:TrackPointExtension>         </extensions>       </trkpt>
       <trkpt lat="45.57188694365322589874267578125" lon="14.4121455587446689605712890625">         <ele>1307.4000244140625</ele>         <time>2026-02-28T09:20:14.000Z</time>         <extensions>           <ns3:TrackPointExtension>             <ns3:hr>102</ns3:hr>           </ns3:TrackPointExtension>         </extensions>       </trkpt>
       <trkpt lat="45.5718858540058135986328125" lon="14.4121415354311466217041015625">         <ele>1307.4000244140625</ele>         <time>2026-02-28T09:20:20.000Z</time>         <extensions>           <ns3:TrackPointExtension>             <ns3:hr>102</ns3:hr>           </ns3:TrackPointExtension>         </extensions>       </trkpt>
       <trkpt lat="45.571896247565746307373046875" lon="14.412150084972381591796875">         <ele>1307.4000244140625</ele>         <time>2026-02-28T09:20:24.000Z</time>         <extensions>           <ns3:TrackPointExtension>             <ns3:hr>99</ns3:hr>           </ns3:TrackPointExtension>         </extensions>       </trkpt>
       <trkpt lat="45.5719153583049774169921875" lon="14.412155449390411376953125">         <ele>1307.4000244140625</ele>         <time>2026-02-28T09:20:27.000Z</time>         <extensions>           <ns3:TrackPointExtension>             <ns3:hr>96</ns3:hr>           </ns3:TrackPointExtension>         </extensions>       </trkpt>
       <trkpt lat="45.57196305133402347564697265625" lon="14.41215821541845798492431640625">         <ele>1307.4000244140625</ele>         <time>2026-02-28T09:20:32.000Z</time>         <extensions>           <ns3:TrackPointExtension>             <ns3:hr>94</ns3:hr>           </ns3:TrackPointExtension>         </extensions>       </trkpt>
       <trkpt lat="45.57200294919312000274658203125" lon="14.41214405000209808349609375">         <ele>1307.4000244140625</ele>         <time>2026-02-28T09:20:35.000Z</time>         <extensions>           <ns3:TrackPointExtension>             <ns3:hr>97</ns3:hr>           </ns3:TrackPointExtension>         </extensions>       </trkpt>
       <trkpt lat="45.5720476247370243072509765625" lon="14.41213642247021198272705078125">         <ele>1307.199951171875</ele>         <time>2026-02-28T09:20:38.000Z</time>         <extensions>           <ns3:TrackPointExtension>             <ns3:hr>101</ns3:hr>           </ns3:TrackPointExtension>         </extensions>       </trkpt>
       <trkpt lat="45.57210973463952541351318359375" lon="14.41211814992129802703857421875">         <ele>1307.4000244140625</ele>         <time>2026-02-28T09:20:43.000Z</time>         <extensions>           <ns3:TrackPointExtension>             <ns3:hr>102</ns3:hr>           </ns3:TrackPointExtension>         </extensions>       </trkpt>
       <trkpt lat="45.5721594393253326416015625" lon="14.41213843412697315216064453125">         <ele>1307.199951171875</ele>         <time>2026-02-28T09:20:50.000Z</time>         <extensions>           <ns3:TrackPointExtension>             <ns3:hr>102</ns3:hr>           </ns3:TrackPointExtension>         </extensions>       </trkpt>
       <trkpt lat="45.5721924640238285064697265625" lon="14.41214941442012786865234375">         <ele>1307.199951171875</ele>         <time>2026-02-28T09:20:52.000Z</time>         <extensions>           <ns3:TrackPointExtension>             <ns3:hr>98</ns3:hr>           </ns3:TrackPointExtension>         </extensions>       </trkpt>
       <trkpt lat="45.57220964692533016204833984375" lon="14.412152767181396484375">         <ele>1307.199951171875</ele>         <time>2026-02-28T09:20:54.000Z</time>         <extensions>           <ns3:TrackPointExtension>             <ns3:hr>101</ns3:hr>           </ns3:TrackPointExtension>         </extensions>       </trkpt>
       <trkpt lat="45.572224818170070648193359375" lon="14.41215285100042819976806640625">         <ele>1307.199951171875</ele>         <time>2026-02-28T09:20:55.000Z</time>         <extensions>           <ns3:TrackPointExtension>             <ns3:hr>102</ns3:hr>           </ns3:TrackPointExtension>         </extensions>       </trkpt>
       <trkpt lat="45.57228910736739635467529296875" lon="14.4121460616588592529296875">         <ele>1307.199951171875</ele>         <time>2026-02-28T09:21:00.000Z</time>         <extensions>           <ns3:TrackPointExtension>             <ns3:hr>102</ns3:hr>           </ns3:TrackPointExtension>         </extensions>       </trkpt>
       <trkpt lat="45.57229598052799701690673828125" lon="14.4121422059834003448486328125">         <ele>1307</ele>         <time>2026-02-28T09:21:01.000Z</time>         <extensions>           <ns3:TrackPointExtension>             <ns3:hr>102</ns3:hr>           </ns3:TrackPointExtension>         </extensions>       </trkpt>
       <trkpt lat="45.57233638130128383636474609375" lon="14.41213591955602169036865234375">         <ele>1307</ele>         <time>2026-02-28T09:21:06.000Z</time>         <extensions>           <ns3:TrackPointExtension>             <ns3:hr>100</ns3:hr>           </ns3:TrackPointExtension>         </extensions>       </trkpt>
       <trkpt lat="45.57239773683249950408935546875" lon="14.412126950919628143310546875">         <ele>1307.199951171875</ele>         <time>2026-02-28T09:21:12.000Z</time>         <extensions>           <ns3:TrackPointExtension>             <ns3:hr>99</ns3:hr>           </ns3:TrackPointExtension>         </extensions>       </trkpt>
       <trkpt lat="45.57244434021413326263427734375" lon="14.41211898811161518096923828125">         <ele>1307</ele>         <time>2026-02-28T09:21:16.000Z</time>         <extensions>           <ns3:TrackPointExtension>             <ns3:hr>102</ns3:hr>           </ns3:TrackPointExtension>         </extensions>       </trkpt>
       <trkpt lat="45.5725027620792388916015625" lon="14.4121163897216320037841796875">         <ele>1307</ele>         <time>2026-02-28T09:21:20.000Z</time>         <extensions>           <ns3:TrackPointExtension>             <ns3:hr>103</ns3:hr>           </ns3:TrackPointExtension>         </extensions>       </trkpt>
       <trkpt lat="45.572548694908618927001953125" lon="14.41212636418640613555908203125">         <ele>1307.199951171875</ele>         <time>2026-02-28T09:21:26.000Z</time>         <extensions>           <ns3:TrackPointExtension>             <ns3:hr>103</ns3:hr>           </ns3:TrackPointExtension>         </extensions>       </trkpt>
       <trkpt lat="45.57260242290794849395751953125" lon="14.41213667392730712890625">         <ele>1307.4000244140625</ele>         <time>2026-02-28T09:21:32.000Z</time>         <extensions>           <ns3:TrackPointExtension>             <ns3:hr>100</ns3:hr>           </ns3:TrackPointExtension>         </extensions>       </trkpt>
       <trkpt lat="45.5726836435496807098388671875" lon="14.4121643342077732086181640625">         <ele>1307.4000244140625</ele>         <time>2026-02-28T09:21:39.000Z</time>         <extensions>           <ns3:TrackPointExtension>             <ns3:hr>101</ns3:hr>           </ns3:TrackPointExtension>         </extensions>       </trkpt>
       <trkpt lat="45.572745501995086669921875" lon="14.41219492815434932708740234375">         <ele>1307.5999755859375</ele>         <time>2026-02-28T09:21:45.000Z</time>         <extensions>           <ns3:TrackPointExtension>             <ns3:hr>101</ns3:hr>           </ns3:TrackPointExtension>         </extensions>       </trkpt>
       <trkpt lat="45.57280275039374828338623046875" lon="14.41222761757671833038330078125">         <ele>1307.5999755859375</ele>         <time>2026-02-28T09:21:52.000Z</time>         <extensions>           <ns3:TrackPointExtension>             <ns3:hr>102</ns3:hr>           </ns3:TrackPointExtension>         </extensions>       </trkpt>
       <trkpt lat="45.57280962355434894561767578125" lon="14.412230551242828369140625">         <ele>1307.4000244140625</ele>         <time>2026-02-28T09:21:53.000Z</time>         <extensions>           <ns3:TrackPointExtension>             <ns3:hr>106</ns3:hr>           </ns3:TrackPointExtension>         </extensions>       </trkpt>
       <trkpt lat="45.57282253168523311614990234375" lon="14.41223667003214359283447265625">         <ele>1307.199951171875</ele>         <time>2026-02-28T09:21:56.000Z</time>         <extensions>           <ns3:TrackPointExtension>             <ns3:hr>109</ns3:hr>           </ns3:TrackPointExtension>         </extensions>       </trkpt>
       <trkpt lat="45.5728326737880706787109375" lon="14.4122431240975856781005859375">         <ele>1307.199951171875</ele>         <time>2026-02-28T09:21:58.000Z</time>         <extensions>           <ns3:TrackPointExtension>             <ns3:hr>110</ns3:hr>           </ns3:TrackPointExtension>         </extensions>       </trkpt>
       <trkpt lat="45.572888664901256561279296875" lon="14.41224773414433002471923828125">         <ele>1307.199951171875</ele>         <time>2026-02-28T09:22:03.000Z</time>         <extensions>           <ns3:TrackPointExtension>             <ns3:hr>110</ns3:hr>           </ns3:TrackPointExtension>         </extensions>       </trkpt>
       <trkpt lat="45.57293300516903400421142578125" lon="14.412238262593746185302734375">         <ele>1307.4000244140625</ele>         <time>2026-02-28T09:22:10.000Z</time>         <extensions>           <ns3:TrackPointExtension>             <ns3:hr>110</ns3:hr>           </ns3:TrackPointExtension>         </extensions>       </trkpt>
       <trkpt lat="45.572976171970367431640625" lon="14.41223097033798694610595703125">         <ele>1307.5999755859375</ele>         <time>2026-02-28T09:22:16.000Z</time>         <extensions>           <ns3:TrackPointExtension>             <ns3:hr>108</ns3:hr>           </ns3:TrackPointExtension>         </extensions>       </trkpt>
       <trkpt lat="45.573022104799747467041015625" lon="14.41223264671862125396728515625">         <ele>1307.800048828125</ele>         <time>2026-02-28T09:22:21.000Z</time>         <extensions>           <ns3:TrackPointExtension>             <ns3:hr>110</ns3:hr>           </ns3:TrackPointExtension>         </extensions>       </trkpt>
       <trkpt lat="45.57303291745483875274658203125" lon="14.41224689595401287078857421875">         <ele>1308</ele>         <time>2026-02-28T09:22:29.000Z</time>         <extensions>           <ns3:TrackPointExtension>             <ns3:hr>113</ns3:hr>           </ns3:TrackPointExtension>         </extensions>       </trkpt>
       <trkpt lat="45.57304389774799346923828125" lon="14.41226332448422908782958984375">         <ele>1308</ele>         <time>2026-02-28T09:22:36.000Z</time>         <extensions>           <ns3:TrackPointExtension>             <ns3:hr>113</ns3:hr>           </ns3:TrackPointExtension>         </extensions>       </trkpt>
       <trkpt lat="45.5730497650802135467529296875" lon="14.41227422095835208892822265625">         <ele>1308.199951171875</ele>         <time>2026-02-28T09:22:41.000Z</time>         <extensions>           <ns3:TrackPointExtension>             <ns3:hr>113</ns3:hr>           </ns3:TrackPointExtension>         </extensions>       </trkpt>
       <trkpt lat="45.57304926216602325439453125" lon="14.41227690316736698150634765625">         <ele>1308.199951171875</ele>         <time>2026-02-28T09:22:43.000Z</time>         <extensions>           <ns3:TrackPointExtension>             <ns3:hr>112</ns3:hr>           </ns3:TrackPointExtension>         </extensions>       </trkpt>
       <trkpt lat="45.57306527160108089447021484375" lon="14.41228243522346019744873046875">         <ele>1307.800048828125</ele>         <time>2026-02-28T09:22:47.000Z</time>         <extensions>           <ns3:TrackPointExtension>             <ns3:hr>109</ns3:hr>           </ns3:TrackPointExtension>         </extensions>       </trkpt>
       <trkpt lat="45.5730739049613475799560546875" lon="14.4122766517102718353271484375">         <ele>1308</ele>         <time>2026-02-28T09:22:49.000Z</time>         <extensions>           <ns3:TrackPointExtension>             <ns3:hr>108</ns3:hr>           </ns3:TrackPointExtension>         </extensions>       </trkpt>
       <trkpt lat="45.5730631761252880096435546875" lon="14.412265084683895111083984375">         <ele>1308</ele>         <time>2026-02-28T09:22:56.000Z</time>         <extensions>           <ns3:TrackPointExtension>             <ns3:hr>106</ns3:hr>           </ns3:TrackPointExtension>         </extensions>       </trkpt>
       <trkpt lat="45.573062337934970855712890625" lon="14.41226265393197536468505859375">         <ele>1308</ele>         <time>2026-02-28T09:23:00.000Z</time>         <extensions>           <ns3:TrackPointExtension>             <ns3:hr>103</ns3:hr>           </ns3:TrackPointExtension>         </extensions>       </trkpt>
       <trkpt lat="45.573088489472866058349609375" lon="14.41227187402546405792236328125">         <ele>1308.199951171875</ele>         <time>2026-02-28T09:23:03.000Z</time>         <extensions>           <ns3:TrackPointExtension>             <ns3:hr>102</ns3:hr>           </ns3:TrackPointExtension>         </extensions>       </trkpt>
       <trkpt lat="45.57314858771860599517822265625" lon="14.412272460758686065673828125">         <ele>1308.199951171875</ele>         <time>2026-02-28T09:23:08.000Z</time>         <extensions>           <ns3:TrackPointExtension>             <ns3:hr>102</ns3:hr>           </ns3:TrackPointExtension>         </extensions>       </trkpt>
       <trkpt lat="45.57317574508488178253173828125" lon="14.4122722931206226348876953125">         <ele>1308.199951171875</ele>         <time>2026-02-28T09:23:12.000Z</time>         <extensions>           <ns3:TrackPointExtension>             <ns3:hr>99</ns3:hr>           </ns3:TrackPointExtension>         </extensions>       </trkpt>
       <trkpt lat="45.573187731206417083740234375" lon="14.41227011382579803466796875">         <ele>1308.199951171875</ele>         <time>2026-02-28T09:23:14.000Z</time>         <extensions>           <ns3:TrackPointExtension>             <ns3:hr>99</ns3:hr>           </ns3:TrackPointExtension>         </extensions>       </trkpt>
       <trkpt lat="45.57323844172060489654541015625" lon="14.41226609051227569580078125">         <ele>1308.199951171875</ele>         <time>2026-02-28T09:23:20.000Z</time>         <extensions>           <ns3:TrackPointExtension>             <ns3:hr>101</ns3:hr>           </ns3:TrackPointExtension>         </extensions>       </trkpt>
       <trkpt lat="45.57328663766384124755859375" lon="14.4122642464935779571533203125">         <ele>1308.4000244140625</ele>         <time>2026-02-28T09:23:26.000Z</time>         <extensions>           <ns3:TrackPointExtension>             <ns3:hr>102</ns3:hr>           </ns3:TrackPointExtension>         </extensions>       </trkpt>
       <trkpt lat="45.57329258881509304046630859375" lon="14.412262402474880218505859375">         <ele>1308.4000244140625</ele>         <time>2026-02-28T09:23:27.000Z</time>         <extensions>           <ns3:TrackPointExtension>             <ns3:hr>105</ns3:hr>           </ns3:TrackPointExtension>         </extensions>       </trkpt>
       <trkpt lat="45.57330968789756298065185546875" lon="14.41227145493030548095703125">         <ele>1308.5999755859375</ele>         <time>2026-02-28T09:23:30.000Z</time>         <extensions>           <ns3:TrackPointExtension>             <ns3:hr>108</ns3:hr>           </ns3:TrackPointExtension>         </extensions>       </trkpt>
       <trkpt lat="45.5733327381312847137451171875" lon="14.4122779928147792816162109375">         <ele>1308.5999755859375</ele>         <time>2026-02-28T09:23:32.000Z</time>         <extensions>           <ns3:TrackPointExtension>             <ns3:hr>108</ns3:hr>           </ns3:TrackPointExtension>         </extensions>       </trkpt>
       <trkpt lat="45.57336936704814434051513671875" lon="14.412291236221790313720703125">         <ele>1308.800048828125</ele>         <time>2026-02-28T09:23:35.000Z</time>         <extensions>           <ns3:TrackPointExtension>             <ns3:hr>104</ns3:hr>           </ns3:TrackPointExtension>         </extensions>       </trkpt>
       <trkpt lat="45.57340197265148162841796875" lon="14.4123017974197864532470703125">         <ele>1309</ele>         <time>2026-02-28T09:23:38.000Z</time>         <extensions>           <ns3:TrackPointExtension>             <ns3:hr>102</ns3:hr>           </ns3:TrackPointExtension>         </extensions>       </trkpt>
       <trkpt lat="45.57341932319104671478271484375" lon="14.41231411881744861602783203125">         <ele>1309</ele>         <time>2026-02-28T09:23:42.000Z</time>         <extensions>           <ns3:TrackPointExtension>             <ns3:hr>105</ns3:hr>           </ns3:TrackPointExtension>         </extensions>       </trkpt>
       <trkpt lat="45.57342317886650562286376953125" lon="14.41231428645551204681396484375">         <ele>1309</ele>         <time>2026-02-28T09:23:43.000Z</time>         <extensions>           <ns3:TrackPointExtension>             <ns3:hr>107</ns3:hr>           </ns3:TrackPointExtension>         </extensions>       </trkpt>
       <trkpt lat="45.57344128377735614776611328125" lon="14.41231830976903438568115234375">         <ele>1309.199951171875</ele>         <time>2026-02-28T09:23:45.000Z</time>         <extensions>           <ns3:TrackPointExtension>             <ns3:hr>110</ns3:hr>           </ns3:TrackPointExtension>         </extensions>       </trkpt>
       <trkpt lat="45.57344497181475162506103515625" lon="14.412320069968700408935546875">         <ele>1309.199951171875</ele>         <time>2026-02-28T09:23:46.000Z</time>         <extensions>           <ns3:TrackPointExtension>             <ns3:hr>110</ns3:hr>           </ns3:TrackPointExtension>         </extensions>       </trkpt>
       <trkpt lat="45.573450587689876556396484375" lon="14.4123262725770473480224609375">         <ele>1309.199951171875</ele>         <time>2026-02-28T09:23:48.000Z</time>         <extensions>           <ns3:TrackPointExtension>             <ns3:hr>109</ns3:hr>           </ns3:TrackPointExtension>         </extensions>       </trkpt>
       <trkpt lat="45.57345787994563579559326171875" lon="14.41232920624315738677978515625">         <ele>1309.199951171875</ele>         <time>2026-02-28T09:23:52.000Z</time>         <extensions>           <ns3:TrackPointExtension>             <ns3:hr>112</ns3:hr>           </ns3:TrackPointExtension>         </extensions>       </trkpt>
       <trkpt lat="45.5734718777239322662353515625" lon="14.41233222372829914093017578125">         <ele>1309.4000244140625</ele>         <time>2026-02-28T09:23:54.000Z</time>         <extensions>           <ns3:TrackPointExtension>             <ns3:hr>112</ns3:hr>           </ns3:TrackPointExtension>         </extensions>       </trkpt>
       <trkpt lat="45.5735161341726779937744140625" lon="14.4123591296374797821044921875">         <ele>1309.4000244140625</ele>         <time>2026-02-28T09:23:59.000Z</time>         <extensions>           <ns3:TrackPointExtension>             <ns3:hr>113</ns3:hr>           </ns3:TrackPointExtension>         </extensions>       </trkpt>
       <trkpt lat="45.57356064207851886749267578125" lon="14.41238385625183582305908203125">         <ele>1309.5999755859375</ele>         <time>2026-02-28T09:24:04.000Z</time>         <extensions>           <ns3:TrackPointExtension>             <ns3:hr>113</ns3:hr>           </ns3:TrackPointExtension>         </extensions>       </trkpt>
       <trkpt lat="45.57357958517968654632568359375" lon="14.41239827312529087066650390625">         <ele>1309.5999755859375</ele>         <time>2026-02-28T09:24:07.000Z</time>         <extensions>           <ns3:TrackPointExtension>             <ns3:hr>110</ns3:hr>           </ns3:TrackPointExtension>         </extensions>       </trkpt>
       <trkpt lat="45.57359215803444385528564453125" lon="14.41240648739039897918701171875">         <ele>1309.800048828125</ele>         <time>2026-02-28T09:24:09.000Z</time>         <extensions>           <ns3:TrackPointExtension>             <ns3:hr>108</ns3:hr>           </ns3:TrackPointExtension>         </extensions>       </trkpt>
       <trkpt lat="45.57362015359103679656982421875" lon="14.4124214909970760345458984375">         <ele>1310</ele>         <time>2026-02-28T09:24:13.000Z</time>         <extensions>           <ns3:TrackPointExtension>             <ns3:hr>109</ns3:hr>           </ns3:TrackPointExtension>         </extensions>       </trkpt>
       <trkpt lat="45.57364647276699542999267578125" lon="14.4124235026538372039794921875">         <ele>1310.199951171875</ele>         <time>2026-02-28T09:24:18.000Z</time>         <extensions>           <ns3:TrackPointExtension>             <ns3:hr>111</ns3:hr>           </ns3:TrackPointExtension>         </extensions>       </trkpt>
       <trkpt lat="45.5736592970788478851318359375" lon="14.4124276936054229736328125">         <ele>1310.199951171875</ele>         <time>2026-02-28T09:24:19.000Z</time>         <extensions>           <ns3:TrackPointExtension>             <ns3:hr>111</ns3:hr>           </ns3:TrackPointExtension>         </extensions>       </trkpt>
       <trkpt lat="45.57370112277567386627197265625" lon="14.4124395959079265594482421875">         <ele>1310.4000244140625</ele>         <time>2026-02-28T09:24:23.000Z</time>         <extensions>           <ns3:TrackPointExtension>             <ns3:hr>113</ns3:hr>           </ns3:TrackPointExtension>         </extensions>       </trkpt>
       <trkpt lat="45.573732219636440277099609375" lon="14.41245007328689098358154296875">         <ele>1310.5999755859375</ele>         <time>2026-02-28T09:24:27.000Z</time>         <extensions>           <ns3:TrackPointExtension>             <ns3:hr>109</ns3:hr>           </ns3:TrackPointExtension>         </extensions>       </trkpt>
       <trkpt lat="45.57374705560505390167236328125" lon="14.412450492382049560546875">         <ele>1310.5999755859375</ele>         <time>2026-02-28T09:24:29.000Z</time>         <extensions>           <ns3:TrackPointExtension>             <ns3:hr>107</ns3:hr>           </ns3:TrackPointExtension>         </extensions>       </trkpt>
       <trkpt lat="45.57376365177333354949951171875" lon="14.41245493479073047637939453125">         <ele>1310.5999755859375</ele>         <time>2026-02-28T09:24:31.000Z</time>         <extensions>           <ns3:TrackPointExtension>             <ns3:hr>104</ns3:hr>           </ns3:TrackPointExtension>         </extensions>       </trkpt>
       <trkpt lat="45.5737977661192417144775390625" lon="14.412453174591064453125">         <ele>1310.800048828125</ele>         <time>2026-02-28T09:24:34.000Z</time>         <extensions>           <ns3:TrackPointExtension>             <ns3:hr>103</ns3:hr>           </ns3:TrackPointExtension>         </extensions>       </trkpt>
       <trkpt lat="45.5738571099936962127685546875" lon="14.41247530281543731689453125">         <ele>1311</ele>         <time>2026-02-28T09:24:39.000Z</time>         <extensions>           <ns3:TrackPointExtension>             <ns3:hr>105</ns3:hr>           </ns3:TrackPointExtension>         </extensions>       </trkpt>
       <trkpt lat="45.5738840997219085693359375" lon="14.412485696375370025634765625">         <ele>1311.199951171875</ele>         <time>2026-02-28T09:24:42.000Z</time>         <extensions>           <ns3:TrackPointExtension>             <ns3:hr>109</ns3:hr>           </ns3:TrackPointExtension>         </extensions>       </trkpt>
       <trkpt lat="45.57389105670154094696044921875" lon="14.4124892167747020721435546875">         <ele>1311.199951171875</ele>         <time>2026-02-28T09:24:43.000Z</time>         <extensions>           <ns3:TrackPointExtension>             <ns3:hr>112</ns3:hr>           </ns3:TrackPointExtension>         </extensions>       </trkpt>
       <trkpt lat="45.5739189684391021728515625" lon="14.41250346601009368896484375">         <ele>1311.4000244140625</ele>         <time>2026-02-28T09:24:45.000Z</time>         <extensions>           <ns3:TrackPointExtension>             <ns3:hr>116</ns3:hr>           </ns3:TrackPointExtension>         </extensions>       </trkpt>
       <trkpt lat="45.57398728094995021820068359375" lon="14.41254110075533390045166015625">         <ele>1311.4000244140625</ele>         <time>2026-02-28T09:24:52.000Z</time>         <extensions>           <ns3:TrackPointExtension>             <ns3:hr>116</ns3:hr>           </ns3:TrackPointExtension>         </extensions>       </trkpt>
       <trkpt lat="45.57405048049986362457275390625" lon="14.412577562034130096435546875">         <ele>1311.5999755859375</ele>         <time>2026-02-28T09:24:59.000Z</time>         <extensions>           <ns3:TrackPointExtension>             <ns3:hr>118</ns3:hr>           </ns3:TrackPointExtension>         </extensions>       </trkpt>
       <trkpt lat="45.5740871094167232513427734375" lon="14.4126162864267826080322265625">         <ele>1311.800048828125</ele>         <time>2026-02-28T09:25:04.000Z</time>         <extensions>           <ns3:TrackPointExtension>             <ns3:hr>117</ns3:hr>           </ns3:TrackPointExtension>         </extensions>       </trkpt>
       <trkpt lat="45.5741496384143829345703125" lon="14.41267671994864940643310546875">         <ele>1311.800048828125</ele>         <time>2026-02-28T09:25:11.000Z</time>         <extensions>           <ns3:TrackPointExtension>             <ns3:hr>116</ns3:hr>           </ns3:TrackPointExtension>         </extensions>       </trkpt>
       <trkpt lat="45.57419096119701862335205078125" lon="14.4127135165035724639892578125">         <ele>1311.800048828125</ele>         <time>2026-02-28T09:25:17.000Z</time>         <extensions>           <ns3:TrackPointExtension>             <ns3:hr>117</ns3:hr>           </ns3:TrackPointExtension>         </extensions>       </trkpt>
       <trkpt lat="45.5742322839796543121337890625" lon="14.41277244128286838531494140625">         <ele>1311.800048828125</ele>         <time>2026-02-28T09:25:22.000Z</time>         <extensions>           <ns3:TrackPointExtension>             <ns3:hr>116</ns3:hr>           </ns3:TrackPointExtension>         </extensions>       </trkpt>
       <trkpt lat="45.57426631450653076171875" lon="14.412816278636455535888671875">         <ele>1312</ele>         <time>2026-02-28T09:25:28.000Z</time>         <extensions>           <ns3:TrackPointExtension>             <ns3:hr>114</ns3:hr>           </ns3:TrackPointExtension>         </extensions>       </trkpt>
       <trkpt lat="45.5743043683469295501708984375" lon="14.41286631859838962554931640625">         <ele>1312.199951171875</ele>         <time>2026-02-28T09:25:34.000Z</time>         <extensions>           <ns3:TrackPointExtension>             <ns3:hr>112</ns3:hr>           </ns3:TrackPointExtension>         </extensions>       </trkpt>
       <trkpt lat="45.574329011142253875732421875" lon="14.4128878600895404815673828125">         <ele>1312.199951171875</ele>         <time>2026-02-28T09:25:38.000Z</time>         <extensions>           <ns3:TrackPointExtension>             <ns3:hr>115</ns3:hr>           </ns3:TrackPointExtension>         </extensions>       </trkpt>
       <trkpt lat="45.574347116053104400634765625" lon="14.41291124559938907623291015625">         <ele>1312.199951171875</ele>         <time>2026-02-28T09:25:40.000Z</time>         <extensions>           <ns3:TrackPointExtension>             <ns3:hr>117</ns3:hr>           </ns3:TrackPointExtension>         </extensions>       </trkpt>
       <trkpt lat="45.57435759343206882476806640625" lon="14.41293186508119106292724609375">         <ele>1312.199951171875</ele>         <time>2026-02-28T09:25:42.000Z</time>         <extensions>           <ns3:TrackPointExtension>             <ns3:hr>121</ns3:hr>           </ns3:TrackPointExtension>         </extensions>       </trkpt>
       <trkpt lat="45.5743682384490966796875" lon="14.41294427029788494110107421875">         <ele>1312.199951171875</ele>         <time>2026-02-28T09:25:44.000Z</time>         <extensions>           <ns3:TrackPointExtension>             <ns3:hr>126</ns3:hr>           </ns3:TrackPointExtension>         </extensions>       </trkpt>
       <trkpt lat="45.57437888346612453460693359375" lon="14.41295751370489597320556640625">         <ele>1312.199951171875</ele>         <time>2026-02-28T09:25:45.000Z</time>         <extensions>           <ns3:TrackPointExtension>             <ns3:hr>128</ns3:hr>           </ns3:TrackPointExtension>         </extensions>       </trkpt>
       <trkpt lat="45.57438508607447147369384765625" lon="14.4129636324942111968994140625">         <ele>1312.199951171875</ele>         <time>2026-02-28T09:25:46.000Z</time>         <extensions>           <ns3:TrackPointExtension>             <ns3:hr>131</ns3:hr>           </ns3:TrackPointExtension>         </extensions>       </trkpt>
       <trkpt lat="45.57439598254859447479248046875" lon="14.41297528333961963653564453125">         <ele>1312.4000244140625</ele>         <time>2026-02-28T09:25:47.000Z</time>         <extensions>           <ns3:TrackPointExtension>             <ns3:hr>131</ns3:hr>           </ns3:TrackPointExtension>         </extensions>       </trkpt>
       <trkpt lat="45.57443269528448581695556640625" lon="14.41301216371357440948486328125">         <ele>1312.4000244140625</ele>         <time>2026-02-28T09:25:52.000Z</time>         <extensions>           <ns3:TrackPointExtension>             <ns3:hr>130</ns3:hr>           </ns3:TrackPointExtension>         </extensions>       </trkpt>
       <trkpt lat="45.57442163117229938507080078125" lon="14.41303211264312267303466796875">         <ele>1312.4000244140625</ele>         <time>2026-02-28T09:25:58.000Z</time>         <extensions>           <ns3:TrackPointExtension>             <ns3:hr>127</ns3:hr>           </ns3:TrackPointExtension>         </extensions>       </trkpt>
       <trkpt lat="45.57442481629550457000732421875" lon="14.413041584193706512451171875">         <ele>1312.4000244140625</ele>         <time>2026-02-28T09:25:59.000Z</time>         <extensions>           <ns3:TrackPointExtension>             <ns3:hr>126</ns3:hr>           </ns3:TrackPointExtension>         </extensions>       </trkpt>
       <trkpt lat="45.5744143389165401458740234375" lon="14.41306270658969879150390625">         <ele>1312.199951171875</ele>         <time>2026-02-28T09:26:03.000Z</time>         <extensions>           <ns3:TrackPointExtension>             <ns3:hr>123</ns3:hr>           </ns3:TrackPointExtension>         </extensions>       </trkpt>
       <trkpt lat="45.57441593147814273834228515625" lon="14.41309112124145030975341796875">         <ele>1312.199951171875</ele>         <time>2026-02-28T09:26:07.000Z</time>         <extensions>           <ns3:TrackPointExtension>             <ns3:hr>122</ns3:hr>           </ns3:TrackPointExtension>         </extensions>       </trkpt>
       <trkpt lat="45.57444292120635509490966796875" lon="14.413130097091197967529296875">         <ele>1312.4000244140625</ele>         <time>2026-02-28T09:26:14.000Z</time>         <extensions>           <ns3:TrackPointExtension>             <ns3:hr>119</ns3:hr>           </ns3:TrackPointExtension>         </extensions>       </trkpt>
       <trkpt lat="45.57445817627012729644775390625" lon="14.41314258612692356109619140625">         <ele>1312.4000244140625</ele>         <time>2026-02-28T09:26:16.000Z</time>         <extensions>           <ns3:TrackPointExtension>             <ns3:hr>117</ns3:hr>           </ns3:TrackPointExtension>         </extensions>       </trkpt>
       <trkpt lat="45.5745102278888225555419921875" lon="14.4131760299205780029296875">         <ele>1312.4000244140625</ele>         <time>2026-02-28T09:26:22.000Z</time>         <extensions>           <ns3:TrackPointExtension>             <ns3:hr>114</ns3:hr>           </ns3:TrackPointExtension>         </extensions>       </trkpt>
       <trkpt lat="45.5745199508965015411376953125" lon="14.41318214870989322662353515625">         <ele>1312.4000244140625</ele>         <time>2026-02-28T09:26:23.000Z</time>         <extensions>           <ns3:TrackPointExtension>             <ns3:hr>113</ns3:hr>           </ns3:TrackPointExtension>         </extensions>       </trkpt>
       <trkpt lat="45.57454593479633331298828125" lon="14.41319413483142852783203125">         <ele>1312.4000244140625</ele>         <time>2026-02-28T09:26:26.000Z</time>         <extensions>           <ns3:TrackPointExtension>             <ns3:hr>110</ns3:hr>           </ns3:TrackPointExtension>         </extensions>       </trkpt>
       <trkpt lat="45.57456412352621555328369140625" lon="14.41319941543042659759521484375">         <ele>1312.199951171875</ele>         <time>2026-02-28T09:26:30.000Z</time>         <extensions>           <ns3:TrackPointExtension>             <ns3:hr>109</ns3:hr>           </ns3:TrackPointExtension>         </extensions>       </trkpt>
       <trkpt lat="45.5745626986026763916015625" lon="14.413190782070159912109375">         <ele>1312.5999755859375</ele>         <time>2026-02-28T09:26:39.000Z</time>         <extensions>           <ns3:TrackPointExtension>             <ns3:hr>107</ns3:hr>           </ns3:TrackPointExtension>         </extensions>       </trkpt>
       <trkpt lat="45.57457854039967060089111328125" lon="14.4131921231746673583984375">         <ele>1312.4000244140625</ele>         <time>2026-02-28T09:26:45.000Z</time>         <extensions>           <ns3:TrackPointExtension>             <ns3:hr>106</ns3:hr>           </ns3:TrackPointExtension>         </extensions>       </trkpt>
       <trkpt lat="45.5745853297412395477294921875" lon="14.4131986610591411590576171875">         <ele>1312.5999755859375</ele>         <time>2026-02-28T09:26:47.000Z</time>         <extensions>           <ns3:TrackPointExtension>             <ns3:hr>103</ns3:hr>           </ns3:TrackPointExtension>         </extensions>       </trkpt>
       <trkpt lat="45.57460092008113861083984375" lon="14.41321265883743762969970703125">         <ele>1312.4000244140625</ele>         <time>2026-02-28T09:26:50.000Z</time>         <extensions>           <ns3:TrackPointExtension>             <ns3:hr>100</ns3:hr>           </ns3:TrackPointExtension>         </extensions>       </trkpt>
       <trkpt lat="45.57460636831820011138916015625" lon="14.41321701742708683013916015625">         <ele>1312.4000244140625</ele>         <time>2026-02-28T09:26:51.000Z</time>         <extensions>           <ns3:TrackPointExtension>             <ns3:hr>100</ns3:hr>           </ns3:TrackPointExtension>         </extensions>       </trkpt>
       <trkpt lat="45.57464257813990116119384765625" lon="14.41326982341706752777099609375">         <ele>1312.5999755859375</ele>         <time>2026-02-28T09:26:57.000Z</time>         <extensions>           <ns3:TrackPointExtension>             <ns3:hr>101</ns3:hr>           </ns3:TrackPointExtension>         </extensions>       </trkpt>
       <trkpt lat="45.57469136081635951995849609375" lon="14.41331257112324237823486328125">         <ele>1312.800048828125</ele>         <time>2026-02-28T09:27:03.000Z</time>         <extensions>           <ns3:TrackPointExtension>             <ns3:hr>102</ns3:hr>           </ns3:TrackPointExtension>         </extensions>       </trkpt>
       <trkpt lat="45.57470611296594142913818359375" lon="14.41332732327282428741455078125">         <ele>1312.800048828125</ele>         <time>2026-02-28T09:27:06.000Z</time>         <extensions>           <ns3:TrackPointExtension>             <ns3:hr>105</ns3:hr>           </ns3:TrackPointExtension>         </extensions>       </trkpt>
       <trkpt lat="45.574719607830047607421875" lon="14.41334190778434276580810546875">         <ele>1312.800048828125</ele>         <time>2026-02-28T09:27:08.000Z</time>         <extensions>           <ns3:TrackPointExtension>             <ns3:hr>108</ns3:hr>           </ns3:TrackPointExtension>         </extensions>       </trkpt>
       <trkpt lat="45.57478523813188076019287109375" lon="14.41341583617031574249267578125">         <ele>1312.800048828125</ele>         <time>2026-02-28T09:27:14.000Z</time>         <extensions>           <ns3:TrackPointExtension>             <ns3:hr>109</ns3:hr>           </ns3:TrackPointExtension>         </extensions>       </trkpt>
       <trkpt lat="45.574829913675785064697265625" lon="14.41348959691822528839111328125">         <ele>1312.800048828125</ele>         <time>2026-02-28T09:27:21.000Z</time>         <extensions>           <ns3:TrackPointExtension>             <ns3:hr>108</ns3:hr>           </ns3:TrackPointExtension>         </extensions>       </trkpt>
       <trkpt lat="45.574875511229038238525390625" lon="14.4135657884180545806884765625">         <ele>1313</ele>         <time>2026-02-28T09:27:27.000Z</time>         <extensions>           <ns3:TrackPointExtension>             <ns3:hr>110</ns3:hr>           </ns3:TrackPointExtension>         </extensions>       </trkpt>
       <trkpt lat="45.57490292005240917205810546875" lon="14.4135929457843303680419921875">         <ele>1313</ele>         <time>2026-02-28T09:27:31.000Z</time>         <extensions>           <ns3:TrackPointExtension>             <ns3:hr>114</ns3:hr>           </ns3:TrackPointExtension>         </extensions>       </trkpt>
       <trkpt lat="45.57490694336593151092529296875" lon="14.4135952927172183990478515625">         <ele>1313</ele>         <time>2026-02-28T09:27:32.000Z</time>         <extensions>           <ns3:TrackPointExtension>             <ns3:hr>118</ns3:hr>           </ns3:TrackPointExtension>         </extensions>       </trkpt>
       <trkpt lat="45.57491004467010498046875" lon="14.4136009924113750457763671875">         <ele>1313</ele>         <time>2026-02-28T09:27:33.000Z</time>         <extensions>           <ns3:TrackPointExtension>             <ns3:hr>122</ns3:hr>           </ns3:TrackPointExtension>         </extensions>       </trkpt>
       <trkpt lat="45.57491348125040531158447265625" lon="14.4136053510010242462158203125">         <ele>1313.199951171875</ele>         <time>2026-02-28T09:27:34.000Z</time>         <extensions>           <ns3:TrackPointExtension>             <ns3:hr>125</ns3:hr>           </ns3:TrackPointExtension>         </extensions>       </trkpt>
       <trkpt lat="45.57494935579597949981689453125" lon="14.4136486016213893890380859375">         <ele>1313.199951171875</ele>         <time>2026-02-28T09:27:38.000Z</time>         <extensions>           <ns3:TrackPointExtension>             <ns3:hr>125</ns3:hr>           </ns3:TrackPointExtension>         </extensions>       </trkpt>
       <trkpt lat="45.5749703943729400634765625" lon="14.413686655461788177490234375">         <ele>1313.199951171875</ele>         <time>2026-02-28T09:27:41.000Z</time>         <extensions>           <ns3:TrackPointExtension>             <ns3:hr>122</ns3:hr>           </ns3:TrackPointExtension>         </extensions>       </trkpt>
       <trkpt lat="45.57499595917761325836181640625" lon="14.41373133100569248199462890625">         <ele>1313.199951171875</ele>         <time>2026-02-28T09:27:46.000Z</time>         <extensions>           <ns3:TrackPointExtension>             <ns3:hr>120</ns3:hr>           </ns3:TrackPointExtension>         </extensions>       </trkpt>
       <trkpt lat="45.57499880902469158172607421875" lon="14.41373937763273715972900390625">         <ele>1313.199951171875</ele>         <time>2026-02-28T09:27:47.000Z</time>         <extensions>           <ns3:TrackPointExtension>             <ns3:hr>119</ns3:hr>           </ns3:TrackPointExtension>         </extensions>       </trkpt>
       <trkpt lat="45.57499730028212070465087890625" lon="14.41375748254358768463134765625">         <ele>1313.4000244140625</ele>         <time>2026-02-28T09:27:51.000Z</time>         <extensions>           <ns3:TrackPointExtension>             <ns3:hr>116</ns3:hr>           </ns3:TrackPointExtension>         </extensions>       </trkpt>
       <trkpt lat="45.5750007368624210357666015625" lon="14.41378380171954631805419921875">         <ele>1313.4000244140625</ele>         <time>2026-02-28T09:27:53.000Z</time>         <extensions>           <ns3:TrackPointExtension>             <ns3:hr>116</ns3:hr>           </ns3:TrackPointExtension>         </extensions>       </trkpt>
       <trkpt lat="45.57501473464071750640869140625" lon="14.41381867043673992156982421875">         <ele>1313.5999755859375</ele>         <time>2026-02-28T09:27:56.000Z</time>         <extensions>           <ns3:TrackPointExtension>             <ns3:hr>113</ns3:hr>           </ns3:TrackPointExtension>         </extensions>       </trkpt>
       <trkpt lat="45.57503099553287029266357421875" lon="14.4138584844768047332763671875">         <ele>1313.800048828125</ele>         <time>2026-02-28T09:27:59.000Z</time>         <extensions>           <ns3:TrackPointExtension>             <ns3:hr>111</ns3:hr>           </ns3:TrackPointExtension>         </extensions>       </trkpt>
       <trkpt lat="45.57504457421600818634033203125" lon="14.41389963962137699127197265625">         <ele>1313.800048828125</ele>         <time>2026-02-28T09:28:04.000Z</time>         <extensions>           <ns3:TrackPointExtension>             <ns3:hr>112</ns3:hr>           </ns3:TrackPointExtension>         </extensions>       </trkpt>
       <trkpt lat="45.57505823671817779541015625" lon="14.41391120664775371551513671875">         <ele>1313.800048828125</ele>         <time>2026-02-28T09:28:07.000Z</time>         <extensions>           <ns3:TrackPointExtension>             <ns3:hr>116</ns3:hr>           </ns3:TrackPointExtension>         </extensions>       </trkpt>
       <trkpt lat="45.57508346624672412872314453125" lon="14.41393199376761913299560546875">         <ele>1314</ele>         <time>2026-02-28T09:28:10.000Z</time>         <extensions>           <ns3:TrackPointExtension>             <ns3:hr>118</ns3:hr>           </ns3:TrackPointExtension>         </extensions>       </trkpt>
       <trkpt lat="45.57512386702001094818115234375" lon="14.4139744900166988372802734375">         <ele>1314.199951171875</ele>         <time>2026-02-28T09:28:15.000Z</time>         <extensions>           <ns3:TrackPointExtension>             <ns3:hr>115</ns3:hr>           </ns3:TrackPointExtension>         </extensions>       </trkpt>
       <trkpt lat="45.57513912208378314971923828125" lon="14.4139999710023403167724609375">         <ele>1314.199951171875</ele>         <time>2026-02-28T09:28:17.000Z</time>         <extensions>           <ns3:TrackPointExtension>             <ns3:hr>114</ns3:hr>           </ns3:TrackPointExtension>         </extensions>       </trkpt>
       <trkpt lat="45.5751650221645832061767578125" lon="14.41403794102370738983154296875">         <ele>1314.4000244140625</ele>         <time>2026-02-28T09:28:21.000Z</time>         <extensions>           <ns3:TrackPointExtension>             <ns3:hr>114</ns3:hr>           </ns3:TrackPointExtension>         </extensions>       </trkpt>
       <trkpt lat="45.5751814506947994232177734375" lon="14.414074905216693878173828125">         <ele>1314.4000244140625</ele>         <time>2026-02-28T09:28:23.000Z</time>         <extensions>           <ns3:TrackPointExtension>             <ns3:hr>110</ns3:hr>           </ns3:TrackPointExtension>         </extensions>       </trkpt>
       <trkpt lat="45.57518287561833858489990234375" lon="14.41408236511051654815673828125">         <ele>1314.4000244140625</ele>         <time>2026-02-28T09:28:24.000Z</time>         <extensions>           <ns3:TrackPointExtension>             <ns3:hr>107</ns3:hr>           </ns3:TrackPointExtension>         </extensions>       </trkpt>
       <trkpt lat="45.5751849710941314697265625" lon="14.41409829072654247283935546875">         <ele>1314.4000244140625</ele>         <time>2026-02-28T09:28:25.000Z</time>         <extensions>           <ns3:TrackPointExtension>             <ns3:hr>107</ns3:hr>           </ns3:TrackPointExtension>         </extensions>       </trkpt>
       <trkpt lat="45.57519108988344669342041015625" lon="14.41411689855158329010009765625">         <ele>1314.4000244140625</ele>         <time>2026-02-28T09:28:26.000Z</time>         <extensions>           <ns3:TrackPointExtension>             <ns3:hr>106</ns3:hr>           </ns3:TrackPointExtension>         </extensions>       </trkpt>
       <trkpt lat="45.575206764042377471923828125" lon="14.414145648479461669921875">         <ele>1314.199951171875</ele>         <time>2026-02-28T09:28:30.000Z</time>         <extensions>           <ns3:TrackPointExtension>             <ns3:hr>110</ns3:hr>           </ns3:TrackPointExtension>         </extensions>       </trkpt>
       <trkpt lat="45.57521439157426357269287109375" lon="14.4141577184200286865234375">         <ele>1314.199951171875</ele>         <time>2026-02-28T09:28:31.000Z</time>         <extensions>           <ns3:TrackPointExtension>             <ns3:hr>112</ns3:hr>           </ns3:TrackPointExtension>         </extensions>       </trkpt>
       <trkpt lat="45.57522327639162540435791015625" lon="14.414173476397991180419921875">         <ele>1314.4000244140625</ele>         <time>2026-02-28T09:28:33.000Z</time>         <extensions>           <ns3:TrackPointExtension>             <ns3:hr>116</ns3:hr>           </ns3:TrackPointExtension>         </extensions>       </trkpt>
       <trkpt lat="45.57522562332451343536376953125" lon="14.4141776673495769500732421875">         <ele>1314.4000244140625</ele>         <time>2026-02-28T09:28:35.000Z</time>         <extensions>           <ns3:TrackPointExtension>             <ns3:hr>119</ns3:hr>           </ns3:TrackPointExtension>         </extensions>       </trkpt>
       <trkpt lat="45.57525579817593097686767578125" lon="14.4142081774771213531494140625">         <ele>1314.4000244140625</ele>         <time>2026-02-28T09:28:40.000Z</time>         <extensions>           <ns3:TrackPointExtension>             <ns3:hr>122</ns3:hr>           </ns3:TrackPointExtension>         </extensions>       </trkpt>
       <trkpt lat="45.57527189143002033233642578125" lon="14.41422351635992527008056640625">         <ele>1314.199951171875</ele>         <time>2026-02-28T09:28:42.000Z</time>         <extensions>           <ns3:TrackPointExtension>             <ns3:hr>125</ns3:hr>           </ns3:TrackPointExtension>         </extensions>       </trkpt>
       <trkpt lat="45.575323440134525299072265625" lon="14.41427397541701793670654296875">         <ele>1314</ele>         <time>2026-02-28T09:28:47.000Z</time>         <extensions>           <ns3:TrackPointExtension>             <ns3:hr>127</ns3:hr>           </ns3:TrackPointExtension>         </extensions>       </trkpt>
       <trkpt lat="45.57536610402166843414306640625" lon="14.4143154658377170562744140625">         <ele>1313.800048828125</ele>         <time>2026-02-28T09:28:52.000Z</time>         <extensions>           <ns3:TrackPointExtension>             <ns3:hr>125</ns3:hr>           </ns3:TrackPointExtension>         </extensions>       </trkpt>
       <trkpt lat="45.5754236876964569091796875" lon="14.41438092850148677825927734375">         <ele>1313.800048828125</ele>         <time>2026-02-28T09:28:57.000Z</time>         <extensions>           <ns3:TrackPointExtension>             <ns3:hr>122</ns3:hr>           </ns3:TrackPointExtension>         </extensions>       </trkpt>
       <trkpt lat="45.575440116226673126220703125" lon="14.41440087743103504180908203125">         <ele>1313.5999755859375</ele>         <time>2026-02-28T09:28:59.000Z</time>         <extensions>           <ns3:TrackPointExtension>             <ns3:hr>121</ns3:hr>           </ns3:TrackPointExtension>         </extensions>       </trkpt>
       <trkpt lat="45.5754585564136505126953125" lon="14.4144251011312007904052734375">         <ele>1313.5999755859375</ele>         <time>2026-02-28T09:29:01.000Z</time>         <extensions>           <ns3:TrackPointExtension>             <ns3:hr>117</ns3:hr>           </ns3:TrackPointExtension>         </extensions>       </trkpt>
       <trkpt lat="45.5754754878580570220947265625" lon="14.414450414478778839111328125">         <ele>1313.800048828125</ele>         <time>2026-02-28T09:29:03.000Z</time>         <extensions>           <ns3:TrackPointExtension>             <ns3:hr>113</ns3:hr>           </ns3:TrackPointExtension>         </extensions>       </trkpt>
       <trkpt lat="45.57548361830413341522216796875" lon="14.41445854492485523223876953125">         <ele>1313.800048828125</ele>         <time>2026-02-28T09:29:04.000Z</time>         <extensions>           <ns3:TrackPointExtension>             <ns3:hr>113</ns3:hr>           </ns3:TrackPointExtension>         </extensions>       </trkpt>
       <trkpt lat="45.575525276362895965576171875" lon="14.41452878527343273162841796875">         <ele>1313.800048828125</ele>         <time>2026-02-28T09:29:09.000Z</time>         <extensions>           <ns3:TrackPointExtension>             <ns3:hr>113</ns3:hr>           </ns3:TrackPointExtension>         </extensions>       </trkpt>
       <trkpt lat="45.5755596421658992767333984375" lon="14.41459332592785358428955078125">         <ele>1313.800048828125</ele>         <time>2026-02-28T09:29:15.000Z</time>         <extensions>           <ns3:TrackPointExtension>             <ns3:hr>113</ns3:hr>           </ns3:TrackPointExtension>         </extensions>       </trkpt>
       <trkpt lat="45.57556676678359508514404296875" lon="14.41464847885072231292724609375">         <ele>1313.5999755859375</ele>         <time>2026-02-28T09:29:22.000Z</time>         <extensions>           <ns3:TrackPointExtension>             <ns3:hr>115</ns3:hr>           </ns3:TrackPointExtension>         </extensions>       </trkpt>
       <trkpt lat="45.57558797299861907958984375" lon="14.41469483077526092529296875">         <ele>1313.800048828125</ele>         <time>2026-02-28T09:29:27.000Z</time>         <extensions>           <ns3:TrackPointExtension>             <ns3:hr>114</ns3:hr>           </ns3:TrackPointExtension>         </extensions>       </trkpt>
       <trkpt lat="45.57561353780329227447509765625" lon="14.4147620536386966705322265625">         <ele>1313.800048828125</ele>         <time>2026-02-28T09:29:33.000Z</time>         <extensions>           <ns3:TrackPointExtension>             <ns3:hr>113</ns3:hr>           </ns3:TrackPointExtension>         </extensions>       </trkpt>
       <trkpt lat="45.57562560774385929107666015625" lon="14.41480572335422039031982421875">         <ele>1313.800048828125</ele>         <time>2026-02-28T09:29:36.000Z</time>         <extensions>           <ns3:TrackPointExtension>             <ns3:hr>110</ns3:hr>           </ns3:TrackPointExtension>         </extensions>       </trkpt>
       <trkpt lat="45.57563901878893375396728515625" lon="14.41483623348176479339599609375">         <ele>1313.800048828125</ele>         <time>2026-02-28T09:29:38.000Z</time>         <extensions>           <ns3:TrackPointExtension>             <ns3:hr>111</ns3:hr>           </ns3:TrackPointExtension>         </extensions>       </trkpt>
       <trkpt lat="45.575660727918148040771484375" lon="14.4148938171565532684326171875">         <ele>1313.800048828125</ele>         <time>2026-02-28T09:29:45.000Z</time>         <extensions>           <ns3:TrackPointExtension>             <ns3:hr>110</ns3:hr>           </ns3:TrackPointExtension>         </extensions>       </trkpt>
       <trkpt lat="45.575684197247028350830078125" lon="14.41493396647274494171142578125">         <ele>1313.800048828125</ele>         <time>2026-02-28T09:29:49.000Z</time>         <extensions>           <ns3:TrackPointExtension>             <ns3:hr>114</ns3:hr>           </ns3:TrackPointExtension>         </extensions>       </trkpt>
       <trkpt lat="45.57568796910345554351806640625" lon="14.41493765451014041900634765625">         <ele>1313.800048828125</ele>         <time>2026-02-28T09:29:50.000Z</time>         <extensions>           <ns3:TrackPointExtension>             <ns3:hr>117</ns3:hr>           </ns3:TrackPointExtension>         </extensions>       </trkpt>
       <trkpt lat="45.57569433934986591339111328125" lon="14.41495475359261035919189453125">         <ele>1313.800048828125</ele>         <time>2026-02-28T09:29:51.000Z</time>         <extensions>           <ns3:TrackPointExtension>             <ns3:hr>118</ns3:hr>           </ns3:TrackPointExtension>         </extensions>       </trkpt>
       <trkpt lat="45.5757118575274944305419921875" lon="14.4149954058229923248291015625">         <ele>1313.800048828125</ele>         <time>2026-02-28T09:29:56.000Z</time>         <extensions>           <ns3:TrackPointExtension>             <ns3:hr>114</ns3:hr>           </ns3:TrackPointExtension>         </extensions>       </trkpt>
       <trkpt lat="45.57573105208575725555419921875" lon="14.4150406681001186370849609375">         <ele>1314</ele>         <time>2026-02-28T09:30:01.000Z</time>         <extensions>           <ns3:TrackPointExtension>             <ns3:hr>112</ns3:hr>           </ns3:TrackPointExtension>         </extensions>       </trkpt>
       <trkpt lat="45.57575452141463756561279296875" lon="14.41508333198726177215576171875">         <ele>1314</ele>         <time>2026-02-28T09:30:07.000Z</time>         <extensions>           <ns3:TrackPointExtension>             <ns3:hr>112</ns3:hr>           </ns3:TrackPointExtension>         </extensions>       </trkpt>
       <trkpt lat="45.57578972540795803070068359375" lon="14.41514636389911174774169921875">         <ele>1314</ele>         <time>2026-02-28T09:30:12.000Z</time>         <extensions>           <ns3:TrackPointExtension>             <ns3:hr>112</ns3:hr>           </ns3:TrackPointExtension>         </extensions>       </trkpt>
       <trkpt lat="45.57581185363233089447021484375" lon="14.4152119942009449005126953125">         <ele>1314</ele>         <time>2026-02-28T09:30:17.000Z</time>         <extensions>           <ns3:TrackPointExtension>             <ns3:hr>113</ns3:hr>           </ns3:TrackPointExtension>         </extensions>       </trkpt>
       <trkpt lat="45.5758233368396759033203125" lon="14.41524812020361423492431640625">         <ele>1314</ele>         <time>2026-02-28T09:30:21.000Z</time>         <extensions>           <ns3:TrackPointExtension>             <ns3:hr>110</ns3:hr>           </ns3:TrackPointExtension>         </extensions>       </trkpt>
       <trkpt lat="45.57582694105803966522216796875" lon="14.41525314934551715850830078125">         <ele>1314.199951171875</ele>         <time>2026-02-28T09:30:22.000Z</time>         <extensions>           <ns3:TrackPointExtension>             <ns3:hr>110</ns3:hr>           </ns3:TrackPointExtension>         </extensions>       </trkpt>
       <trkpt lat="45.5758452974259853363037109375" lon="14.41527661867439746856689453125">         <ele>1314.199951171875</ele>         <time>2026-02-28T09:30:27.000Z</time>         <extensions>           <ns3:TrackPointExtension>             <ns3:hr>110</ns3:hr>           </ns3:TrackPointExtension>         </extensions>       </trkpt>
       <trkpt lat="45.575862564146518707275390625" lon="14.4153125770390033721923828125">         <ele>1314</ele>         <time>2026-02-28T09:30:32.000Z</time>         <extensions>           <ns3:TrackPointExtension>             <ns3:hr>109</ns3:hr>           </ns3:TrackPointExtension>         </extensions>       </trkpt>
       <trkpt lat="45.575883351266384124755859375" lon="14.41535708494484424591064453125">         <ele>1314.199951171875</ele>         <time>2026-02-28T09:30:37.000Z</time>         <extensions>           <ns3:TrackPointExtension>             <ns3:hr>108</ns3:hr>           </ns3:TrackPointExtension>         </extensions>       </trkpt>
       <trkpt lat="45.57591830380260944366455078125" lon="14.41542816348373889923095703125">         <ele>1314.199951171875</ele>         <time>2026-02-28T09:30:44.000Z</time>         <extensions>           <ns3:TrackPointExtension>             <ns3:hr>105</ns3:hr>           </ns3:TrackPointExtension>         </extensions>       </trkpt>
       <trkpt lat="45.5759559385478496551513671875" lon="14.41548096947371959686279296875">         <ele>1314.199951171875</ele>         <time>2026-02-28T09:30:50.000Z</time>         <extensions>           <ns3:TrackPointExtension>             <ns3:hr>108</ns3:hr>           </ns3:TrackPointExtension>         </extensions>       </trkpt>
       <trkpt lat="45.57596440427005290985107421875" lon="14.41548834554851055145263671875">         <ele>1314.199951171875</ele>         <time>2026-02-28T09:30:51.000Z</time>         <extensions>           <ns3:TrackPointExtension>             <ns3:hr>108</ns3:hr>           </ns3:TrackPointExtension>         </extensions>       </trkpt>
       <trkpt lat="45.57598904706537723541259765625" lon="14.41551935859024524688720703125">         <ele>1314.199951171875</ele>         <time>2026-02-28T09:30:54.000Z</time>         <extensions>           <ns3:TrackPointExtension>             <ns3:hr>111</ns3:hr>           </ns3:TrackPointExtension>         </extensions>       </trkpt>
       <trkpt lat="45.5760139413177967071533203125" lon="14.41555892117321491241455078125">         <ele>1314.199951171875</ele>         <time>2026-02-28T09:30:57.000Z</time>         <extensions>           <ns3:TrackPointExtension>             <ns3:hr>112</ns3:hr>           </ns3:TrackPointExtension>         </extensions>       </trkpt>
       <trkpt lat="45.57604118250310420989990234375" lon="14.41561005078256130218505859375">         <ele>1314.199951171875</ele>         <time>2026-02-28T09:31:01.000Z</time>         <extensions>           <ns3:TrackPointExtension>             <ns3:hr>113</ns3:hr>           </ns3:TrackPointExtension>         </extensions>       </trkpt>
       <trkpt lat="45.5760709382593631744384765625" lon="14.41568456590175628662109375">         <ele>1314.199951171875</ele>         <time>2026-02-28T09:31:07.000Z</time>         <extensions>           <ns3:TrackPointExtension>             <ns3:hr>112</ns3:hr>           </ns3:TrackPointExtension>         </extensions>       </trkpt>
       <trkpt lat="45.5761054717004299163818359375" lon="14.41574986092746257781982421875">         <ele>1314.199951171875</ele>         <time>2026-02-28T09:31:13.000Z</time>         <extensions>           <ns3:TrackPointExtension>             <ns3:hr>112</ns3:hr>           </ns3:TrackPointExtension>         </extensions>       </trkpt>
       <trkpt lat="45.57613355107605457305908203125" lon="14.41581356339156627655029296875">         <ele>1314.199951171875</ele>         <time>2026-02-28T09:31:20.000Z</time>         <extensions>           <ns3:TrackPointExtension>             <ns3:hr>112</ns3:hr>           </ns3:TrackPointExtension>         </extensions>       </trkpt>
       <trkpt lat="45.5761497281491756439208984375" lon="14.41586486063897609710693359375">         <ele>1313.800048828125</ele>         <time>2026-02-28T09:31:26.000Z</time>         <extensions>           <ns3:TrackPointExtension>             <ns3:hr>112</ns3:hr>           </ns3:TrackPointExtension>         </extensions>       </trkpt>
       <trkpt lat="45.5761695094406604766845703125" lon="14.41589654423296451568603515625">         <ele>1314.199951171875</ele>         <time>2026-02-28T09:31:33.000Z</time>         <extensions>           <ns3:TrackPointExtension>             <ns3:hr>114</ns3:hr>           </ns3:TrackPointExtension>         </extensions>       </trkpt>
       <trkpt lat="45.5761934816837310791015625" lon="14.41591112874448299407958984375">         <ele>1314.199951171875</ele>         <time>2026-02-28T09:31:41.000Z</time>         <extensions>           <ns3:TrackPointExtension>             <ns3:hr>111</ns3:hr>           </ns3:TrackPointExtension>         </extensions>       </trkpt>
       <trkpt lat="45.57619255967438220977783203125" lon="14.41591112874448299407958984375">         <ele>1314.4000244140625</ele>         <time>2026-02-28T09:31:43.000Z</time>         <extensions>           <ns3:TrackPointExtension>             <ns3:hr>109</ns3:hr>           </ns3:TrackPointExtension>         </extensions>       </trkpt>
       <trkpt lat="45.576188452541828155517578125" lon="14.41591314040124416351318359375">         <ele>1314.4000244140625</ele>         <time>2026-02-28T09:31:45.000Z</time>         <extensions>           <ns3:TrackPointExtension>             <ns3:hr>106</ns3:hr>           </ns3:TrackPointExtension>         </extensions>       </trkpt>
       <trkpt lat="45.57619775645434856414794921875" lon="14.41594733856618404388427734375">         <ele>1314.199951171875</ele>         <time>2026-02-28T09:31:49.000Z</time>         <extensions>           <ns3:TrackPointExtension>             <ns3:hr>103</ns3:hr>           </ns3:TrackPointExtension>         </extensions>       </trkpt>
       <trkpt lat="45.576200187206268310546875" lon="14.41595622338354587554931640625">         <ele>1314.4000244140625</ele>         <time>2026-02-28T09:31:50.000Z</time>         <extensions>           <ns3:TrackPointExtension>             <ns3:hr>103</ns3:hr>           </ns3:TrackPointExtension>         </extensions>       </trkpt>
       <trkpt lat="45.57622441090643405914306640625" lon="14.4160287268459796905517578125">         <ele>1314.800048828125</ele>         <time>2026-02-28T09:31:57.000Z</time>         <extensions>           <ns3:TrackPointExtension>             <ns3:hr>105</ns3:hr>           </ns3:TrackPointExtension>         </extensions>       </trkpt>
       <trkpt lat="45.57623564265668392181396484375" lon="14.41605077125132083892822265625">         <ele>1314.800048828125</ele>         <time>2026-02-28T09:31:59.000Z</time>         <extensions>           <ns3:TrackPointExtension>             <ns3:hr>111</ns3:hr>           </ns3:TrackPointExtension>         </extensions>       </trkpt>
       <trkpt lat="45.5762442760169506072998046875" lon="14.41606820560991764068603515625">         <ele>1315</ele>         <time>2026-02-28T09:32:01.000Z</time>         <extensions>           <ns3:TrackPointExtension>             <ns3:hr>115</ns3:hr>           </ns3:TrackPointExtension>         </extensions>       </trkpt>
       <trkpt lat="45.57625140063464641571044921875" lon="14.41608211956918239593505859375">         <ele>1315</ele>         <time>2026-02-28T09:32:02.000Z</time>         <extensions>           <ns3:TrackPointExtension>             <ns3:hr>115</ns3:hr>           </ns3:TrackPointExtension>         </extensions>       </trkpt>
       <trkpt lat="45.57625559158623218536376953125" lon="14.41613459028303623199462890625">         <ele>1315.199951171875</ele>         <time>2026-02-28T09:32:06.000Z</time>         <extensions>           <ns3:TrackPointExtension>             <ns3:hr>116</ns3:hr>           </ns3:TrackPointExtension>         </extensions>       </trkpt>
       <trkpt lat="45.57626045309007167816162109375" lon="14.41617541015148162841796875">         <ele>1315.4000244140625</ele>         <time>2026-02-28T09:32:10.000Z</time>         <extensions>           <ns3:TrackPointExtension>             <ns3:hr>116</ns3:hr>           </ns3:TrackPointExtension>         </extensions>       </trkpt>
       <trkpt lat="45.57626179419457912445068359375" lon="14.41618370823562145233154296875">         <ele>1315.4000244140625</ele>         <time>2026-02-28T09:32:11.000Z</time>         <extensions>           <ns3:TrackPointExtension>             <ns3:hr>116</ns3:hr>           </ns3:TrackPointExtension>         </extensions>       </trkpt>
       <trkpt lat="45.57627730071544647216796875" lon="14.4162362627685070037841796875">         <ele>1315.5999755859375</ele>         <time>2026-02-28T09:32:16.000Z</time>         <extensions>           <ns3:TrackPointExtension>             <ns3:hr>114</ns3:hr>           </ns3:TrackPointExtension>         </extensions>       </trkpt>
       <trkpt lat="45.57628576643764972686767578125" lon="14.41628814674913883209228515625">         <ele>1315.5999755859375</ele>         <time>2026-02-28T09:32:20.000Z</time>         <extensions>           <ns3:TrackPointExtension>             <ns3:hr>112</ns3:hr>           </ns3:TrackPointExtension>         </extensions>       </trkpt>
       <trkpt lat="45.57629046030342578887939453125" lon="14.4163321517407894134521484375">         <ele>1315.800048828125</ele>         <time>2026-02-28T09:32:24.000Z</time>         <extensions>           <ns3:TrackPointExtension>             <ns3:hr>112</ns3:hr>           </ns3:TrackPointExtension>         </extensions>       </trkpt>
       <trkpt lat="45.576288364827632904052734375" lon="14.416397698223590850830078125">         <ele>1315.5999755859375</ele>         <time>2026-02-28T09:32:31.000Z</time>         <extensions>           <ns3:TrackPointExtension>             <ns3:hr>110</ns3:hr>           </ns3:TrackPointExtension>         </extensions>       </trkpt>
       <trkpt lat="45.57629213668406009674072265625" lon="14.41644019447267055511474609375">         <ele>1316</ele>         <time>2026-02-28T09:32:36.000Z</time>         <extensions>           <ns3:TrackPointExtension>             <ns3:hr>113</ns3:hr>           </ns3:TrackPointExtension>         </extensions>       </trkpt>
       <trkpt lat="45.57629205286502838134765625" lon="14.41647171042859554290771484375">         <ele>1316.199951171875</ele>         <time>2026-02-28T09:32:39.000Z</time>         <extensions>           <ns3:TrackPointExtension>             <ns3:hr>112</ns3:hr>           </ns3:TrackPointExtension>         </extensions>       </trkpt>
       <trkpt lat="45.576294399797916412353515625" lon="14.41649995744228363037109375">         <ele>1316.4000244140625</ele>         <time>2026-02-28T09:32:42.000Z</time>         <extensions>           <ns3:TrackPointExtension>             <ns3:hr>113</ns3:hr>           </ns3:TrackPointExtension>         </extensions>       </trkpt>
       <trkpt lat="45.57629582472145557403564453125" lon="14.41651613451540470123291015625">         <ele>1316.4000244140625</ele>         <time>2026-02-28T09:32:43.000Z</time>         <extensions>           <ns3:TrackPointExtension>             <ns3:hr>112</ns3:hr>           </ns3:TrackPointExtension>         </extensions>       </trkpt>
       <trkpt lat="45.57629800401628017425537109375" lon="14.416569359600543975830078125">         <ele>1316.5999755859375</ele>         <time>2026-02-28T09:32:48.000Z</time>         <extensions>           <ns3:TrackPointExtension>             <ns3:hr>116</ns3:hr>           </ns3:TrackPointExtension>         </extensions>       </trkpt>
       <trkpt lat="45.57630814611911773681640625" lon="14.41661956720054149627685546875">         <ele>1317</ele>         <time>2026-02-28T09:32:54.000Z</time>         <extensions>           <ns3:TrackPointExtension>             <ns3:hr>116</ns3:hr>           </ns3:TrackPointExtension>         </extensions>       </trkpt>
       <trkpt lat="45.576334297657012939453125" lon="14.4166737981140613555908203125">         <ele>1317.199951171875</ele>         <time>2026-02-28T09:33:00.000Z</time>         <extensions>           <ns3:TrackPointExtension>             <ns3:hr>114</ns3:hr>           </ns3:TrackPointExtension>         </extensions>       </trkpt>
       <trkpt lat="45.5763436853885650634765625" lon="14.41670246422290802001953125">         <ele>1317.4000244140625</ele>         <time>2026-02-28T09:33:03.000Z</time>         <extensions>           <ns3:TrackPointExtension>             <ns3:hr>113</ns3:hr>           </ns3:TrackPointExtension>         </extensions>       </trkpt>
       <trkpt lat="45.57635449804365634918212890625" lon="14.41671931184828281402587890625">         <ele>1317.4000244140625</ele>         <time>2026-02-28T09:33:05.000Z</time>         <extensions>           <ns3:TrackPointExtension>             <ns3:hr>114</ns3:hr>           </ns3:TrackPointExtension>         </extensions>       </trkpt>
       <trkpt lat="45.5763679929077625274658203125" lon="14.41676742397248744964599609375">         <ele>1317.5999755859375</ele>         <time>2026-02-28T09:33:10.000Z</time>         <extensions>           <ns3:TrackPointExtension>             <ns3:hr>114</ns3:hr>           </ns3:TrackPointExtension>         </extensions>       </trkpt>
       <trkpt lat="45.5763777159154415130615234375" lon="14.41679944284260272979736328125">         <ele>1317.800048828125</ele>         <time>2026-02-28T09:33:13.000Z</time>         <extensions>           <ns3:TrackPointExtension>             <ns3:hr>117</ns3:hr>           </ns3:TrackPointExtension>         </extensions>       </trkpt>
       <trkpt lat="45.576382242143154144287109375" lon="14.4168250076472759246826171875">         <ele>1317.800048828125</ele>         <time>2026-02-28T09:33:15.000Z</time>         <extensions>           <ns3:TrackPointExtension>             <ns3:hr>122</ns3:hr>           </ns3:TrackPointExtension>         </extensions>       </trkpt>
       <trkpt lat="45.57638081721961498260498046875" lon="14.41682852804660797119140625">         <ele>1318</ele>         <time>2026-02-28T09:33:16.000Z</time>         <extensions>           <ns3:TrackPointExtension>             <ns3:hr>122</ns3:hr>           </ns3:TrackPointExtension>         </extensions>       </trkpt>
       <trkpt lat="45.57637746445834636688232421875" lon="14.41682492382824420928955078125">         <ele>1318</ele>         <time>2026-02-28T09:33:18.000Z</time>         <extensions>           <ns3:TrackPointExtension>             <ns3:hr>118</ns3:hr>           </ns3:TrackPointExtension>         </extensions>       </trkpt>
       <trkpt lat="45.5763820745050907135009765625" lon="14.4168270193040370941162109375">         <ele>1318</ele>         <time>2026-02-28T09:33:20.000Z</time>         <extensions>           <ns3:TrackPointExtension>             <ns3:hr>115</ns3:hr>           </ns3:TrackPointExtension>         </extensions>       </trkpt>
       <trkpt lat="45.57638551108539104461669921875" lon="14.4168412685394287109375">         <ele>1318</ele>         <time>2026-02-28T09:33:23.000Z</time>         <extensions>           <ns3:TrackPointExtension>             <ns3:hr>112</ns3:hr>           </ns3:TrackPointExtension>         </extensions>       </trkpt>
       <trkpt lat="45.57637612335383892059326171875" lon="14.4168850220739841461181640625">         <ele>1318.4000244140625</ele>         <time>2026-02-28T09:33:28.000Z</time>         <extensions>           <ns3:TrackPointExtension>             <ns3:hr>110</ns3:hr>           </ns3:TrackPointExtension>         </extensions>       </trkpt>
       <trkpt lat="45.5763773806393146514892578125" lon="14.41689155995845794677734375">         <ele>1318.4000244140625</ele>         <time>2026-02-28T09:33:29.000Z</time>         <extensions>           <ns3:TrackPointExtension>             <ns3:hr>109</ns3:hr>           </ns3:TrackPointExtension>         </extensions>       </trkpt>
       <trkpt lat="45.57638232596218585968017578125" lon="14.4169393368065357208251953125">         <ele>1318.800048828125</ele>         <time>2026-02-28T09:33:34.000Z</time>         <extensions>           <ns3:TrackPointExtension>             <ns3:hr>107</ns3:hr>           </ns3:TrackPointExtension>         </extensions>       </trkpt>
       <trkpt lat="45.576390288770198822021484375" lon="14.416974373161792755126953125">         <ele>1319</ele>         <time>2026-02-28T09:33:38.000Z</time>         <extensions>           <ns3:TrackPointExtension>             <ns3:hr>110</ns3:hr>           </ns3:TrackPointExtension>         </extensions>       </trkpt>
       <trkpt lat="45.57639255188405513763427734375" lon="14.41699055023491382598876953125">         <ele>1319.199951171875</ele>         <time>2026-02-28T09:33:39.000Z</time>         <extensions>           <ns3:TrackPointExtension>             <ns3:hr>110</ns3:hr>           </ns3:TrackPointExtension>         </extensions>       </trkpt>
       <trkpt lat="45.57639598846435546875" lon="14.4170151092112064361572265625">         <ele>1319.4000244140625</ele>         <time>2026-02-28T09:33:41.000Z</time>         <extensions>           <ns3:TrackPointExtension>             <ns3:hr>111</ns3:hr>           </ns3:TrackPointExtension>         </extensions>       </trkpt>
       <trkpt lat="45.57640797458589076995849609375" lon="14.4170533306896686553955078125">         <ele>1319.800048828125</ele>         <time>2026-02-28T09:33:44.000Z</time>         <extensions>           <ns3:TrackPointExtension>             <ns3:hr>110</ns3:hr>           </ns3:TrackPointExtension>         </extensions>       </trkpt>
       <trkpt lat="45.57642892934381961822509765625" lon="14.4171042926609516143798828125">         <ele>1320.199951171875</ele>         <time>2026-02-28T09:33:49.000Z</time>         <extensions>           <ns3:TrackPointExtension>             <ns3:hr>110</ns3:hr>           </ns3:TrackPointExtension>         </extensions>       </trkpt>
       <trkpt lat="45.5764430947601795196533203125" lon="14.41716372035443782806396484375">         <ele>1320.4000244140625</ele>         <time>2026-02-28T09:33:55.000Z</time>         <extensions>           <ns3:TrackPointExtension>             <ns3:hr>108</ns3:hr>           </ns3:TrackPointExtension>         </extensions>       </trkpt>
       <trkpt lat="45.5764548294246196746826171875" lon="14.4171981699764728546142578125">         <ele>1320.5999755859375</ele>         <time>2026-02-28T09:33:58.000Z</time>         <extensions>           <ns3:TrackPointExtension>             <ns3:hr>109</ns3:hr>           </ns3:TrackPointExtension>         </extensions>       </trkpt>
       <trkpt lat="45.5764658935368061065673828125" lon="14.4172427617013454437255859375">         <ele>1321</ele>         <time>2026-02-28T09:34:01.000Z</time>         <extensions>           <ns3:TrackPointExtension>             <ns3:hr>109</ns3:hr>           </ns3:TrackPointExtension>         </extensions>       </trkpt>
       <trkpt lat="45.57647754438221454620361328125" lon="14.417306296527385711669921875">         <ele>1321.4000244140625</ele>         <time>2026-02-28T09:34:09.000Z</time>         <extensions>           <ns3:TrackPointExtension>             <ns3:hr>110</ns3:hr>           </ns3:TrackPointExtension>         </extensions>       </trkpt>
       <trkpt lat="45.57647905312478542327880859375" lon="14.41734476946294307708740234375">         <ele>1321.5999755859375</ele>         <time>2026-02-28T09:34:13.000Z</time>         <extensions>           <ns3:TrackPointExtension>             <ns3:hr>109</ns3:hr>           </ns3:TrackPointExtension>         </extensions>       </trkpt>
       <trkpt lat="45.57648156769573688507080078125" lon="14.41737259738147258758544921875">         <ele>1322</ele>         <time>2026-02-28T09:34:16.000Z</time>         <extensions>           <ns3:TrackPointExtension>             <ns3:hr>112</ns3:hr>           </ns3:TrackPointExtension>         </extensions>       </trkpt>
       <trkpt lat="45.5764816515147686004638671875" lon="14.417390115559101104736328125">         <ele>1322.199951171875</ele>         <time>2026-02-28T09:34:18.000Z</time>         <extensions>           <ns3:TrackPointExtension>             <ns3:hr>114</ns3:hr>           </ns3:TrackPointExtension>         </extensions>       </trkpt>
       <trkpt lat="45.57648651301860809326171875" lon="14.41743093542754650115966796875">         <ele>1322.5999755859375</ele>         <time>2026-02-28T09:34:24.000Z</time>         <extensions>           <ns3:TrackPointExtension>             <ns3:hr>113</ns3:hr>           </ns3:TrackPointExtension>         </extensions>       </trkpt>
       <trkpt lat="45.576486177742481231689453125" lon="14.417443759739398956298828125">         <ele>1323</ele>         <time>2026-02-28T09:34:26.000Z</time>         <extensions>           <ns3:TrackPointExtension>             <ns3:hr>114</ns3:hr>           </ns3:TrackPointExtension>         </extensions>       </trkpt>
       <trkpt lat="45.57649615220725536346435546875" lon="14.4175086356699466705322265625">         <ele>1323.4000244140625</ele>         <time>2026-02-28T09:34:31.000Z</time>         <extensions>           <ns3:TrackPointExtension>             <ns3:hr>114</ns3:hr>           </ns3:TrackPointExtension>         </extensions>       </trkpt>
       <trkpt lat="45.57650302536785602569580078125" lon="14.4175347872078418731689453125">         <ele>1323.800048828125</ele>         <time>2026-02-28T09:34:35.000Z</time>         <extensions>           <ns3:TrackPointExtension>             <ns3:hr>111</ns3:hr>           </ns3:TrackPointExtension>         </extensions>       </trkpt>
       <trkpt lat="45.57650838978588581085205078125" lon="14.41755901090800762176513671875">         <ele>1323.800048828125</ele>         <time>2026-02-28T09:34:37.000Z</time>         <extensions>           <ns3:TrackPointExtension>             <ns3:hr>110</ns3:hr>           </ns3:TrackPointExtension>         </extensions>       </trkpt>
       <trkpt lat="45.57651777751743793487548828125" lon="14.417603351175785064697265625">         <ele>1324.199951171875</ele>         <time>2026-02-28T09:34:41.000Z</time>         <extensions>           <ns3:TrackPointExtension>             <ns3:hr>110</ns3:hr>           </ns3:TrackPointExtension>         </extensions>       </trkpt>
       <trkpt lat="45.57653688825666904449462890625" lon="14.4176756031811237335205078125">         <ele>1324.5999755859375</ele>         <time>2026-02-28T09:34:47.000Z</time>         <extensions>           <ns3:TrackPointExtension>             <ns3:hr>107</ns3:hr>           </ns3:TrackPointExtension>         </extensions>       </trkpt>
       <trkpt lat="45.5765389837324619293212890625" lon="14.41769530065357685089111328125">         <ele>1324.800048828125</ele>         <time>2026-02-28T09:34:49.000Z</time>         <extensions>           <ns3:TrackPointExtension>             <ns3:hr>108</ns3:hr>           </ns3:TrackPointExtension>         </extensions>       </trkpt>
       <trkpt lat="45.57654845528304576873779296875" lon="14.41773251630365848541259765625">         <ele>1325.199951171875</ele>         <time>2026-02-28T09:34:52.000Z</time>         <extensions>           <ns3:TrackPointExtension>             <ns3:hr>109</ns3:hr>           </ns3:TrackPointExtension>         </extensions>       </trkpt>
       <trkpt lat="45.5765577591955661773681640625" lon="14.41777610220015048980712890625">         <ele>1325.4000244140625</ele>         <time>2026-02-28T09:34:56.000Z</time>         <extensions>           <ns3:TrackPointExtension>             <ns3:hr>109</ns3:hr>           </ns3:TrackPointExtension>         </extensions>       </trkpt>
       <trkpt lat="45.5765694938600063323974609375" lon="14.41782639361917972564697265625">         <ele>1325.800048828125</ele>         <time>2026-02-28T09:35:02.000Z</time>         <extensions>           <ns3:TrackPointExtension>             <ns3:hr>109</ns3:hr>           </ns3:TrackPointExtension>         </extensions>       </trkpt>
       <trkpt lat="45.57657846249639987945556640625" lon="14.417862184345722198486328125">         <ele>1326.4000244140625</ele>         <time>2026-02-28T09:35:07.000Z</time>         <extensions>           <ns3:TrackPointExtension>             <ns3:hr>110</ns3:hr>           </ns3:TrackPointExtension>         </extensions>       </trkpt>
       <trkpt lat="45.57658650912344455718994140625" lon="14.4179002381861209869384765625">         <ele>1326.5999755859375</ele>         <time>2026-02-28T09:35:11.000Z</time>         <extensions>           <ns3:TrackPointExtension>             <ns3:hr>106</ns3:hr>           </ns3:TrackPointExtension>         </extensions>       </trkpt>
       <trkpt lat="45.57658919133245944976806640625" lon="14.4179079495370388031005859375">         <ele>1326.5999755859375</ele>         <time>2026-02-28T09:35:12.000Z</time>         <extensions>           <ns3:TrackPointExtension>             <ns3:hr>105</ns3:hr>           </ns3:TrackPointExtension>         </extensions>       </trkpt>
       <trkpt lat="45.57659757323563098907470703125" lon="14.417943321168422698974609375">         <ele>1326.800048828125</ele>         <time>2026-02-28T09:35:16.000Z</time>         <extensions>           <ns3:TrackPointExtension>             <ns3:hr>105</ns3:hr>           </ns3:TrackPointExtension>         </extensions>       </trkpt>
       <trkpt lat="45.5765996687114238739013671875" lon="14.4179696403443813323974609375">         <ele>1327</ele>         <time>2026-02-28T09:35:19.000Z</time>         <extensions>           <ns3:TrackPointExtension>             <ns3:hr>110</ns3:hr>           </ns3:TrackPointExtension>         </extensions>       </trkpt>
       <trkpt lat="45.5766103975474834442138671875" lon="14.41801146604120731353759765625">         <ele>1327.4000244140625</ele>         <time>2026-02-28T09:35:23.000Z</time>         <extensions>           <ns3:TrackPointExtension>             <ns3:hr>107</ns3:hr>           </ns3:TrackPointExtension>         </extensions>       </trkpt>
       <trkpt lat="45.5766144208610057830810546875" lon="14.41802755929529666900634765625">         <ele>1327.4000244140625</ele>         <time>2026-02-28T09:35:24.000Z</time>         <extensions>           <ns3:TrackPointExtension>             <ns3:hr>108</ns3:hr>           </ns3:TrackPointExtension>         </extensions>       </trkpt>
       <trkpt lat="45.5766157619655132293701171875" lon="14.418036527931690216064453125">         <ele>1327.5999755859375</ele>         <time>2026-02-28T09:35:25.000Z</time>         <extensions>           <ns3:TrackPointExtension>             <ns3:hr>113</ns3:hr>           </ns3:TrackPointExtension>         </extensions>       </trkpt>
       <trkpt lat="45.57661685161292552947998046875" lon="14.4180501066148281097412109375">         <ele>1327.5999755859375</ele>         <time>2026-02-28T09:35:26.000Z</time>         <extensions>           <ns3:TrackPointExtension>             <ns3:hr>113</ns3:hr>           </ns3:TrackPointExtension>         </extensions>       </trkpt>
       <trkpt lat="45.576628334820270538330078125" lon="14.41807583905756473541259765625">         <ele>1327.800048828125</ele>         <time>2026-02-28T09:35:29.000Z</time>         <extensions>           <ns3:TrackPointExtension>             <ns3:hr>113</ns3:hr>           </ns3:TrackPointExtension>         </extensions>       </trkpt>
       <trkpt lat="45.5766298435628414154052734375" lon="14.418081454932689666748046875">         <ele>1327.800048828125</ele>         <time>2026-02-28T09:35:30.000Z</time>         <extensions>           <ns3:TrackPointExtension>             <ns3:hr>116</ns3:hr>           </ns3:TrackPointExtension>         </extensions>       </trkpt>
       <trkpt lat="45.5766333639621734619140625" lon="14.41809075884521007537841796875">         <ele>1328</ele>         <time>2026-02-28T09:35:31.000Z</time>         <extensions>           <ns3:TrackPointExtension>             <ns3:hr>117</ns3:hr>           </ns3:TrackPointExtension>         </extensions>       </trkpt>
       <trkpt lat="45.57663797400891780853271484375" lon="14.41810182295739650726318359375">         <ele>1328</ele>         <time>2026-02-28T09:35:32.000Z</time>         <extensions>           <ns3:TrackPointExtension>             <ns3:hr>120</ns3:hr>           </ns3:TrackPointExtension>         </extensions>       </trkpt>
       <trkpt lat="45.576649792492389678955078125" lon="14.41811758093535900115966796875">         <ele>1328</ele>         <time>2026-02-28T09:35:34.000Z</time>         <extensions>           <ns3:TrackPointExtension>             <ns3:hr>121</ns3:hr>           </ns3:TrackPointExtension>         </extensions>       </trkpt>
       <trkpt lat="45.5766563303768634796142578125" lon="14.418136775493621826171875">         <ele>1328.4000244140625</ele>         <time>2026-02-28T09:35:38.000Z</time>         <extensions>           <ns3:TrackPointExtension>             <ns3:hr>121</ns3:hr>           </ns3:TrackPointExtension>         </extensions>       </trkpt>
       <trkpt lat="45.57666613720357418060302734375" lon="14.4181503541767597198486328125">         <ele>1328.5999755859375</ele>         <time>2026-02-28T09:35:42.000Z</time>         <extensions>           <ns3:TrackPointExtension>             <ns3:hr>118</ns3:hr>           </ns3:TrackPointExtension>         </extensions>       </trkpt>
       <trkpt lat="45.57667334564030170440673828125" lon="14.41816234029829502105712890625">         <ele>1328.800048828125</ele>         <time>2026-02-28T09:35:43.000Z</time>         <extensions>           <ns3:TrackPointExtension>             <ns3:hr>119</ns3:hr>           </ns3:TrackPointExtension>         </extensions>       </trkpt>
       <trkpt lat="45.57668097317218780517578125" lon="14.41817172802984714508056640625">         <ele>1328.800048828125</ele>         <time>2026-02-28T09:35:45.000Z</time>         <extensions>           <ns3:TrackPointExtension>             <ns3:hr>122</ns3:hr>           </ns3:TrackPointExtension>         </extensions>       </trkpt>
       <trkpt lat="45.5767022632062435150146484375" lon="14.4181993044912815093994140625">         <ele>1329</ele>         <time>2026-02-28T09:35:48.000Z</time>         <extensions>           <ns3:TrackPointExtension>             <ns3:hr>121</ns3:hr>           </ns3:TrackPointExtension>         </extensions>       </trkpt>
       <trkpt lat="45.57670134119689464569091796875" lon="14.418218247592449188232421875">         <ele>1329.4000244140625</ele>         <time>2026-02-28T09:35:52.000Z</time>         <extensions>           <ns3:TrackPointExtension>             <ns3:hr>118</ns3:hr>           </ns3:TrackPointExtension>         </extensions>       </trkpt>
       <trkpt lat="45.57669564150273799896240234375" lon="14.4182314909994602203369140625">         <ele>1329.5999755859375</ele>         <time>2026-02-28T09:35:55.000Z</time>         <extensions>           <ns3:TrackPointExtension>             <ns3:hr>117</ns3:hr>           </ns3:TrackPointExtension>         </extensions>       </trkpt>
       <trkpt lat="45.5767059512436389923095703125" lon="14.41827465780079364776611328125">         <ele>1329.5999755859375</ele>         <time>2026-02-28T09:36:00.000Z</time>         <extensions>           <ns3:TrackPointExtension>             <ns3:hr>115</ns3:hr>           </ns3:TrackPointExtension>         </extensions>       </trkpt>
       <trkpt lat="45.57671894319355487823486328125" lon="14.41829360090196132659912109375">         <ele>1329.800048828125</ele>         <time>2026-02-28T09:36:04.000Z</time>         <extensions>           <ns3:TrackPointExtension>             <ns3:hr>111</ns3:hr>           </ns3:TrackPointExtension>         </extensions>       </trkpt>
       <trkpt lat="45.57672028429806232452392578125" lon="14.41829594783484935760498046875">         <ele>1329.800048828125</ele>         <time>2026-02-28T09:36:05.000Z</time>         <extensions>           <ns3:TrackPointExtension>             <ns3:hr>109</ns3:hr>           </ns3:TrackPointExtension>         </extensions>       </trkpt>
       <trkpt lat="45.576729588210582733154296875" lon="14.41830550320446491241455078125">         <ele>1329.800048828125</ele>         <time>2026-02-28T09:36:07.000Z</time>         <extensions>           <ns3:TrackPointExtension>             <ns3:hr>106</ns3:hr>           </ns3:TrackPointExtension>         </extensions>       </trkpt>
       <trkpt lat="45.57673931121826171875" lon="14.4183233566582202911376953125">         <ele>1330</ele>         <time>2026-02-28T09:36:10.000Z</time>         <extensions>           <ns3:TrackPointExtension>             <ns3:hr>104</ns3:hr>           </ns3:TrackPointExtension>         </extensions>       </trkpt>
       <trkpt lat="45.57673998177051544189453125" lon="14.41832947544753551483154296875">         <ele>1330.199951171875</ele>         <time>2026-02-28T09:36:12.000Z</time>         <extensions>           <ns3:TrackPointExtension>             <ns3:hr>106</ns3:hr>           </ns3:TrackPointExtension>         </extensions>       </trkpt>
       <trkpt lat="45.576747693121433258056640625" lon="14.41833836026489734649658203125">         <ele>1330.4000244140625</ele>         <time>2026-02-28T09:36:15.000Z</time>         <extensions>           <ns3:TrackPointExtension>             <ns3:hr>109</ns3:hr>           </ns3:TrackPointExtension>         </extensions>       </trkpt>
       <trkpt lat="45.5767595954239368438720703125" lon="14.4183495081961154937744140625">         <ele>1330.4000244140625</ele>         <time>2026-02-28T09:36:17.000Z</time>         <extensions>           <ns3:TrackPointExtension>             <ns3:hr>110</ns3:hr>           </ns3:TrackPointExtension>         </extensions>       </trkpt>
       <trkpt lat="45.5767877586185932159423828125" lon="14.41837473772466182708740234375">         <ele>1330.800048828125</ele>         <time>2026-02-28T09:36:21.000Z</time>         <extensions>           <ns3:TrackPointExtension>             <ns3:hr>107</ns3:hr>           </ns3:TrackPointExtension>         </extensions>       </trkpt>
       <trkpt lat="45.5768082104623317718505859375" lon="14.41839099861681461334228515625">         <ele>1331</ele>         <time>2026-02-28T09:36:24.000Z</time>         <extensions>           <ns3:TrackPointExtension>             <ns3:hr>105</ns3:hr>           </ns3:TrackPointExtension>         </extensions>       </trkpt>
       <trkpt lat="45.57682908140122890472412109375" lon="14.418410360813140869140625">         <ele>1331.199951171875</ele>         <time>2026-02-28T09:36:26.000Z</time>         <extensions>           <ns3:TrackPointExtension>             <ns3:hr>110</ns3:hr>           </ns3:TrackPointExtension>         </extensions>       </trkpt>
       <trkpt lat="45.57683025486767292022705078125" lon="14.4184117019176483154296875">         <ele>1331.199951171875</ele>         <time>2026-02-28T09:36:27.000Z</time>         <extensions>           <ns3:TrackPointExtension>             <ns3:hr>113</ns3:hr>           </ns3:TrackPointExtension>         </extensions>       </trkpt>
       <trkpt lat="45.5768511258065700531005859375" lon="14.41842854954302310943603515625">         <ele>1331.4000244140625</ele>         <time>2026-02-28T09:36:29.000Z</time>         <extensions>           <ns3:TrackPointExtension>             <ns3:hr>117</ns3:hr>           </ns3:TrackPointExtension>         </extensions>       </trkpt>
       <trkpt lat="45.57685506530106067657470703125" lon="14.41843894310295581817626953125">         <ele>1331.4000244140625</ele>         <time>2026-02-28T09:36:30.000Z</time>         <extensions>           <ns3:TrackPointExtension>             <ns3:hr>119</ns3:hr>           </ns3:TrackPointExtension>         </extensions>       </trkpt>
       <trkpt lat="45.57686093263328075408935546875" lon="14.4184510968625545501708984375">         <ele>1331.5999755859375</ele>         <time>2026-02-28T09:36:32.000Z</time>         <extensions>           <ns3:TrackPointExtension>             <ns3:hr>122</ns3:hr>           </ns3:TrackPointExtension>         </extensions>       </trkpt>
       <trkpt lat="45.576875098049640655517578125" lon="14.418464340269565582275390625">         <ele>1331.800048828125</ele>         <time>2026-02-28T09:36:35.000Z</time>         <extensions>           <ns3:TrackPointExtension>             <ns3:hr>122</ns3:hr>           </ns3:TrackPointExtension>         </extensions>       </trkpt>
       <trkpt lat="45.576887167990207672119140625" lon="14.4184692017734050750732421875">         <ele>1332</ele>         <time>2026-02-28T09:36:37.000Z</time>         <extensions>           <ns3:TrackPointExtension>             <ns3:hr>121</ns3:hr>           </ns3:TrackPointExtension>         </extensions>       </trkpt>
       <trkpt lat="45.576892532408237457275390625" lon="14.41847146488726139068603515625">         <ele>1332.199951171875</ele>         <time>2026-02-28T09:36:38.000Z</time>         <extensions>           <ns3:TrackPointExtension>             <ns3:hr>118</ns3:hr>           </ns3:TrackPointExtension>         </extensions>       </trkpt>
       <trkpt lat="45.57688389904797077178955078125" lon="14.41848076879978179931640625">         <ele>1332.4000244140625</ele>         <time>2026-02-28T09:36:40.000Z</time>         <extensions>           <ns3:TrackPointExtension>             <ns3:hr>113</ns3:hr>           </ns3:TrackPointExtension>         </extensions>       </trkpt>
       <trkpt lat="45.5768802948296070098876953125" lon="14.4184812717139720916748046875">         <ele>1332.4000244140625</ele>         <time>2026-02-28T09:36:41.000Z</time>         <extensions>           <ns3:TrackPointExtension>             <ns3:hr>111</ns3:hr>           </ns3:TrackPointExtension>         </extensions>       </trkpt>
       <trkpt lat="45.57687886990606784820556640625" lon="14.418483115732669830322265625">         <ele>1332.4000244140625</ele>         <time>2026-02-28T09:36:42.000Z</time>         <extensions>           <ns3:TrackPointExtension>             <ns3:hr>108</ns3:hr>           </ns3:TrackPointExtension>         </extensions>       </trkpt>
       <trkpt lat="45.5768749304115772247314453125" lon="14.418481774628162384033203125">         <ele>1332.4000244140625</ele>         <time>2026-02-28T09:36:43.000Z</time>         <extensions>           <ns3:TrackPointExtension>             <ns3:hr>108</ns3:hr>           </ns3:TrackPointExtension>         </extensions>       </trkpt>
       <trkpt lat="45.57688792236149311065673828125" lon="14.41848671995103359222412109375">         <ele>1332.5999755859375</ele>         <time>2026-02-28T09:36:48.000Z</time>         <extensions>           <ns3:TrackPointExtension>             <ns3:hr>107</ns3:hr>           </ns3:TrackPointExtension>         </extensions>       </trkpt>
       <trkpt lat="45.57692815549671649932861328125" lon="14.418490491807460784912109375">         <ele>1333</ele>         <time>2026-02-28T09:36:54.000Z</time>         <extensions>           <ns3:TrackPointExtension>             <ns3:hr>106</ns3:hr>           </ns3:TrackPointExtension>         </extensions>       </trkpt>
       <trkpt lat="45.5769369564950466156005859375" lon="14.418492503464221954345703125">         <ele>1333.199951171875</ele>         <time>2026-02-28T09:36:55.000Z</time>         <extensions>           <ns3:TrackPointExtension>             <ns3:hr>106</ns3:hr>           </ns3:TrackPointExtension>         </extensions>       </trkpt>
       <trkpt lat="45.57697140611708164215087890625" lon="14.4185033999383449554443359375">         <ele>1333.5999755859375</ele>         <time>2026-02-28T09:37:00.000Z</time>         <extensions>           <ns3:TrackPointExtension>             <ns3:hr>105</ns3:hr>           </ns3:TrackPointExtension>         </extensions>       </trkpt>
       <trkpt lat="45.5770169198513031005859375" lon="14.41852142103016376495361328125">         <ele>1333.800048828125</ele>         <time>2026-02-28T09:37:05.000Z</time>         <extensions>           <ns3:TrackPointExtension>             <ns3:hr>106</ns3:hr>           </ns3:TrackPointExtension>         </extensions>       </trkpt>
       <trkpt lat="45.5770429037511348724365234375" lon="14.41853634081780910491943359375">         <ele>1334.199951171875</ele>         <time>2026-02-28T09:37:10.000Z</time>         <extensions>           <ns3:TrackPointExtension>             <ns3:hr>105</ns3:hr>           </ns3:TrackPointExtension>         </extensions>       </trkpt>
       <trkpt lat="45.57704449631273746490478515625" lon="14.41854204051196575164794921875">         <ele>1334.199951171875</ele>         <time>2026-02-28T09:37:11.000Z</time>         <extensions>           <ns3:TrackPointExtension>             <ns3:hr>105</ns3:hr>           </ns3:TrackPointExtension>         </extensions>       </trkpt>
       <trkpt lat="45.5770687200129032135009765625" lon="14.4185694493353366851806640625">         <ele>1334.5999755859375</ele>         <time>2026-02-28T09:37:15.000Z</time>         <extensions>           <ns3:TrackPointExtension>             <ns3:hr>103</ns3:hr>           </ns3:TrackPointExtension>         </extensions>       </trkpt>
       <trkpt lat="45.57711373083293437957763671875" lon="14.41861219704151153564453125">         <ele>1335</ele>         <time>2026-02-28T09:37:20.000Z</time>         <extensions>           <ns3:TrackPointExtension>             <ns3:hr>102</ns3:hr>           </ns3:TrackPointExtension>         </extensions>       </trkpt>
       <trkpt lat="45.5771243758499622344970703125" lon="14.418629966676235198974609375">         <ele>1335.199951171875</ele>         <time>2026-02-28T09:37:22.000Z</time>         <extensions>           <ns3:TrackPointExtension>             <ns3:hr>103</ns3:hr>           </ns3:TrackPointExtension>         </extensions>       </trkpt>
       <trkpt lat="45.577139966189861297607421875" lon="14.4186465628445148468017578125">         <ele>1335.5999755859375</ele>         <time>2026-02-28T09:37:24.000Z</time>         <extensions>           <ns3:TrackPointExtension>             <ns3:hr>102</ns3:hr>           </ns3:TrackPointExtension>         </extensions>       </trkpt>
       <trkpt lat="45.57719470001757144927978515625" lon="14.4186965189874172210693359375">         <ele>1336</ele>         <time>2026-02-28T09:37:30.000Z</time>         <extensions>           <ns3:TrackPointExtension>             <ns3:hr>102</ns3:hr>           </ns3:TrackPointExtension>         </extensions>       </trkpt>
       <trkpt lat="45.57721473276615142822265625" lon="14.41871588118374347686767578125">         <ele>1336.4000244140625</ele>         <time>2026-02-28T09:37:34.000Z</time>         <extensions>           <ns3:TrackPointExtension>             <ns3:hr>103</ns3:hr>           </ns3:TrackPointExtension>         </extensions>       </trkpt>
       <trkpt lat="45.5772449076175689697265625" lon="14.418745972216129302978515625">         <ele>1336.800048828125</ele>         <time>2026-02-28T09:37:40.000Z</time>         <extensions>           <ns3:TrackPointExtension>             <ns3:hr>105</ns3:hr>           </ns3:TrackPointExtension>         </extensions>       </trkpt>
       <trkpt lat="45.5772698856890201568603515625" lon="14.41877623088657855987548828125">         <ele>1337.4000244140625</ele>         <time>2026-02-28T09:37:45.000Z</time>         <extensions>           <ns3:TrackPointExtension>             <ns3:hr>111</ns3:hr>           </ns3:TrackPointExtension>         </extensions>       </trkpt>
       <trkpt lat="45.5772739090025424957275390625" lon="14.41877991892397403717041015625">         <ele>1337.4000244140625</ele>         <time>2026-02-28T09:37:46.000Z</time>         <extensions>           <ns3:TrackPointExtension>             <ns3:hr>115</ns3:hr>           </ns3:TrackPointExtension>         </extensions>       </trkpt>
       <trkpt lat="45.577278099954128265380859375" lon="14.418784193694591522216796875">         <ele>1337.4000244140625</ele>         <time>2026-02-28T09:37:47.000Z</time>         <extensions>           <ns3:TrackPointExtension>             <ns3:hr>118</ns3:hr>           </ns3:TrackPointExtension>         </extensions>       </trkpt>
       <trkpt lat="45.57729176245629787445068359375" lon="14.41879617981612682342529296875">         <ele>1337.5999755859375</ele>         <time>2026-02-28T09:37:50.000Z</time>         <extensions>           <ns3:TrackPointExtension>             <ns3:hr>121</ns3:hr>           </ns3:TrackPointExtension>         </extensions>       </trkpt>
       <trkpt lat="45.577308274805545806884765625" lon="14.4188034720718860626220703125">         <ele>1338</ele>         <time>2026-02-28T09:37:53.000Z</time>         <extensions>           <ns3:TrackPointExtension>             <ns3:hr>121</ns3:hr>           </ns3:TrackPointExtension>         </extensions>       </trkpt>
       <trkpt lat="45.5773226916790008544921875" lon="14.418814368546009063720703125">         <ele>1338</ele>         <time>2026-02-28T09:37:55.000Z</time>         <extensions>           <ns3:TrackPointExtension>             <ns3:hr>118</ns3:hr>           </ns3:TrackPointExtension>         </extensions>       </trkpt>
       <trkpt lat="45.57732763700187206268310546875" lon="14.41881948150694370269775390625">         <ele>1338.199951171875</ele>         <time>2026-02-28T09:37:56.000Z</time>         <extensions>           <ns3:TrackPointExtension>             <ns3:hr>115</ns3:hr>           </ns3:TrackPointExtension>         </extensions>       </trkpt>
       <trkpt lat="45.57733920402824878692626953125" lon="14.41882652230560779571533203125">         <ele>1338.4000244140625</ele>         <time>2026-02-28T09:37:57.000Z</time>         <extensions>           <ns3:TrackPointExtension>             <ns3:hr>114</ns3:hr>           </ns3:TrackPointExtension>         </extensions>       </trkpt>
       <trkpt lat="45.5773409642279148101806640625" lon="14.41882434301078319549560546875">         <ele>1338.4000244140625</ele>         <time>2026-02-28T09:37:58.000Z</time>         <extensions>           <ns3:TrackPointExtension>             <ns3:hr>113</ns3:hr>           </ns3:TrackPointExtension>         </extensions>       </trkpt>
       <trkpt lat="45.57737071998417377471923828125" lon="14.4188467226922512054443359375">         <ele>1339</ele>         <time>2026-02-28T09:38:04.000Z</time>         <extensions>           <ns3:TrackPointExtension>             <ns3:hr>111</ns3:hr>           </ns3:TrackPointExtension>         </extensions>       </trkpt>
       <trkpt lat="45.57738698087632656097412109375" lon="14.41886960528790950775146484375">         <ele>1339.4000244140625</ele>         <time>2026-02-28T09:38:08.000Z</time>         <extensions>           <ns3:TrackPointExtension>             <ns3:hr>112</ns3:hr>           </ns3:TrackPointExtension>         </extensions>       </trkpt>
       <trkpt lat="45.577389411628246307373046875" lon="14.41887279041111469268798828125">         <ele>1339.4000244140625</ele>         <time>2026-02-28T09:38:09.000Z</time>         <extensions>           <ns3:TrackPointExtension>             <ns3:hr>112</ns3:hr>           </ns3:TrackPointExtension>         </extensions>       </trkpt>
       <trkpt lat="45.57741179130971431732177734375" lon="14.41889458335936069488525390625">         <ele>1339.800048828125</ele>         <time>2026-02-28T09:38:14.000Z</time>         <extensions>           <ns3:TrackPointExtension>             <ns3:hr>109</ns3:hr>           </ns3:TrackPointExtension>         </extensions>       </trkpt>
       <trkpt lat="45.57741455733776092529296875" lon="14.4188976846635341644287109375">         <ele>1339.800048828125</ele>         <time>2026-02-28T09:38:15.000Z</time>         <extensions>           <ns3:TrackPointExtension>             <ns3:hr>108</ns3:hr>           </ns3:TrackPointExtension>         </extensions>       </trkpt>
       <trkpt lat="45.57743425481021404266357421875" lon="14.4189067371189594268798828125">         <ele>1340.4000244140625</ele>         <time>2026-02-28T09:38:21.000Z</time>         <extensions>           <ns3:TrackPointExtension>             <ns3:hr>106</ns3:hr>           </ns3:TrackPointExtension>         </extensions>       </trkpt>
       <trkpt lat="45.57744096033275127410888671875" lon="14.41890799440443515777587890625">         <ele>1340.4000244140625</ele>         <time>2026-02-28T09:38:22.000Z</time>         <extensions>           <ns3:TrackPointExtension>             <ns3:hr>106</ns3:hr>           </ns3:TrackPointExtension>         </extensions>       </trkpt>
       <trkpt lat="45.57747147046029567718505859375" lon="14.41892660222947597503662109375">         <ele>1340.800048828125</ele>         <time>2026-02-28T09:38:26.000Z</time>         <extensions>           <ns3:TrackPointExtension>             <ns3:hr>103</ns3:hr>           </ns3:TrackPointExtension>         </extensions>       </trkpt>
       <trkpt lat="45.57748655788600444793701171875" lon="14.41893682815134525299072265625">         <ele>1340.800048828125</ele>         <time>2026-02-28T09:38:28.000Z</time>         <extensions>           <ns3:TrackPointExtension>             <ns3:hr>104</ns3:hr>           </ns3:TrackPointExtension>         </extensions>       </trkpt>
       <trkpt lat="45.5775122903287410736083984375" lon="14.41894688643515110015869140625">         <ele>1341</ele>         <time>2026-02-28T09:38:31.000Z</time>         <extensions>           <ns3:TrackPointExtension>             <ns3:hr>107</ns3:hr>           </ns3:TrackPointExtension>         </extensions>       </trkpt>
       <trkpt lat="45.57753785513341426849365234375" lon="14.41895510070025920867919921875">         <ele>1341.4000244140625</ele>         <time>2026-02-28T09:38:34.000Z</time>         <extensions>           <ns3:TrackPointExtension>             <ns3:hr>110</ns3:hr>           </ns3:TrackPointExtension>         </extensions>       </trkpt>
       <trkpt lat="45.5775525234639644622802734375" lon="14.4189633987843990325927734375">         <ele>1341.5999755859375</ele>         <time>2026-02-28T09:38:36.000Z</time>         <extensions>           <ns3:TrackPointExtension>             <ns3:hr>111</ns3:hr>           </ns3:TrackPointExtension>         </extensions>       </trkpt>
       <trkpt lat="45.57760742492973804473876953125" lon="14.41900053061544895172119140625">         <ele>1342.4000244140625</ele>         <time>2026-02-28T09:38:44.000Z</time>         <extensions>           <ns3:TrackPointExtension>             <ns3:hr>113</ns3:hr>           </ns3:TrackPointExtension>         </extensions>       </trkpt>
       <trkpt lat="45.57762511074542999267578125" lon="14.41902257502079010009765625">         <ele>1342.4000244140625</ele>         <time>2026-02-28T09:38:48.000Z</time>         <extensions>           <ns3:TrackPointExtension>             <ns3:hr>114</ns3:hr>           </ns3:TrackPointExtension>         </extensions>       </trkpt>
       <trkpt lat="45.57764363475143909454345703125" lon="14.41904596053063869476318359375">         <ele>1342.800048828125</ele>         <time>2026-02-28T09:38:51.000Z</time>         <extensions>           <ns3:TrackPointExtension>             <ns3:hr>114</ns3:hr>           </ns3:TrackPointExtension>         </extensions>       </trkpt>
       <trkpt lat="45.577690489590167999267578125" lon="14.41907848231494426727294921875">         <ele>1343.199951171875</ele>         <time>2026-02-28T09:38:57.000Z</time>         <extensions>           <ns3:TrackPointExtension>             <ns3:hr>113</ns3:hr>           </ns3:TrackPointExtension>         </extensions>       </trkpt>
       <trkpt lat="45.57770951651036739349365234375" lon="14.4190971739590167999267578125">         <ele>1343.4000244140625</ele>         <time>2026-02-28T09:38:59.000Z</time>         <extensions>           <ns3:TrackPointExtension>             <ns3:hr>109</ns3:hr>           </ns3:TrackPointExtension>         </extensions>       </trkpt>
       <trkpt lat="45.5777168087661266326904296875" lon="14.41911645233631134033203125">         <ele>1343.5999755859375</ele>         <time>2026-02-28T09:39:01.000Z</time>         <extensions>           <ns3:TrackPointExtension>             <ns3:hr>109</ns3:hr>           </ns3:TrackPointExtension>         </extensions>       </trkpt>
       <trkpt lat="45.57775628753006458282470703125" lon="14.41914469934999942779541015625">         <ele>1344</ele>         <time>2026-02-28T09:39:06.000Z</time>         <extensions>           <ns3:TrackPointExtension>             <ns3:hr>109</ns3:hr>           </ns3:TrackPointExtension>         </extensions>       </trkpt>
       <trkpt lat="45.5777966044843196868896484375" lon="14.4191689230501651763916015625">         <ele>1344.800048828125</ele>         <time>2026-02-28T09:39:11.000Z</time>         <extensions>           <ns3:TrackPointExtension>             <ns3:hr>108</ns3:hr>           </ns3:TrackPointExtension>         </extensions>       </trkpt>
       <trkpt lat="45.57784178294241428375244140625" lon="14.41921510733664035797119140625">         <ele>1345</ele>         <time>2026-02-28T09:39:17.000Z</time>         <extensions>           <ns3:TrackPointExtension>             <ns3:hr>113</ns3:hr>           </ns3:TrackPointExtension>         </extensions>       </trkpt>
       <trkpt lat="45.57786223478615283966064453125" lon="14.41924394108355045318603515625">         <ele>1345.4000244140625</ele>         <time>2026-02-28T09:39:21.000Z</time>         <extensions>           <ns3:TrackPointExtension>             <ns3:hr>116</ns3:hr>           </ns3:TrackPointExtension>         </extensions>       </trkpt>
       <trkpt lat="45.5778693594038486480712890625" lon="14.41925500519573688507080078125">         <ele>1345.4000244140625</ele>         <time>2026-02-28T09:39:22.000Z</time>         <extensions>           <ns3:TrackPointExtension>             <ns3:hr>118</ns3:hr>           </ns3:TrackPointExtension>         </extensions>       </trkpt>
       <trkpt lat="45.5778844468295574188232421875" lon="14.4192780554294586181640625">         <ele>1345.800048828125</ele>         <time>2026-02-28T09:39:25.000Z</time>         <extensions>           <ns3:TrackPointExtension>             <ns3:hr>120</ns3:hr>           </ns3:TrackPointExtension>         </extensions>       </trkpt>
       <trkpt lat="45.57789559476077556610107421875" lon="14.41929775290191173553466796875">         <ele>1345.800048828125</ele>         <time>2026-02-28T09:39:27.000Z</time>         <extensions>           <ns3:TrackPointExtension>             <ns3:hr>117</ns3:hr>           </ns3:TrackPointExtension>         </extensions>       </trkpt>
       <trkpt lat="45.57790674269199371337890625" lon="14.4193154387176036834716796875">         <ele>1346</ele>         <time>2026-02-28T09:39:29.000Z</time>         <extensions>           <ns3:TrackPointExtension>             <ns3:hr>114</ns3:hr>           </ns3:TrackPointExtension>         </extensions>       </trkpt>
       <trkpt lat="45.5779152922332286834716796875" lon="14.41933161579072475433349609375">         <ele>1346.199951171875</ele>         <time>2026-02-28T09:39:31.000Z</time>         <extensions>           <ns3:TrackPointExtension>             <ns3:hr>111</ns3:hr>           </ns3:TrackPointExtension>         </extensions>       </trkpt>
       <trkpt lat="45.57792258448898792266845703125" lon="14.41935039125382900238037109375">         <ele>1346.4000244140625</ele>         <time>2026-02-28T09:39:34.000Z</time>         <extensions>           <ns3:TrackPointExtension>             <ns3:hr>111</ns3:hr>           </ns3:TrackPointExtension>         </extensions>       </trkpt>
       <trkpt lat="45.5779310502111911773681640625" lon="14.41938878037035465240478515625">         <ele>1346.800048828125</ele>         <time>2026-02-28T09:39:39.000Z</time>         <extensions>           <ns3:TrackPointExtension>             <ns3:hr>111</ns3:hr>           </ns3:TrackPointExtension>         </extensions>       </trkpt>
       <trkpt lat="45.57793465442955493927001953125" lon="14.4193948991596698760986328125">         <ele>1346.800048828125</ele>         <time>2026-02-28T09:39:40.000Z</time>         <extensions>           <ns3:TrackPointExtension>             <ns3:hr>111</ns3:hr>           </ns3:TrackPointExtension>         </extensions>       </trkpt>
       <trkpt lat="45.57795527391135692596435546875" lon="14.41944426856935024261474609375">         <ele>1347.199951171875</ele>         <time>2026-02-28T09:39:46.000Z</time>         <extensions>           <ns3:TrackPointExtension>             <ns3:hr>110</ns3:hr>           </ns3:TrackPointExtension>         </extensions>       </trkpt>
       <trkpt lat="45.5779692716896533966064453125" lon="14.4194780476391315460205078125">         <ele>1347.5999755859375</ele>         <time>2026-02-28T09:39:50.000Z</time>         <extensions>           <ns3:TrackPointExtension>             <ns3:hr>110</ns3:hr>           </ns3:TrackPointExtension>         </extensions>       </trkpt>
       <trkpt lat="45.5779981054365634918212890625" lon="14.41951744258403778076171875">         <ele>1347.800048828125</ele>         <time>2026-02-28T09:39:55.000Z</time>         <extensions>           <ns3:TrackPointExtension>             <ns3:hr>110</ns3:hr>           </ns3:TrackPointExtension>         </extensions>       </trkpt>
       <trkpt lat="45.5780044756829738616943359375" lon="14.41952439956367015838623046875">         <ele>1347.800048828125</ele>         <time>2026-02-28T09:39:56.000Z</time>         <extensions>           <ns3:TrackPointExtension>             <ns3:hr>109</ns3:hr>           </ns3:TrackPointExtension>         </extensions>       </trkpt>
       <trkpt lat="45.57802216149866580963134765625" lon="14.4195570051670074462890625">         <ele>1348.199951171875</ele>         <time>2026-02-28T09:40:01.000Z</time>         <extensions>           <ns3:TrackPointExtension>             <ns3:hr>106</ns3:hr>           </ns3:TrackPointExtension>         </extensions>       </trkpt>
       <trkpt lat="45.578025095164775848388671875" lon="14.4195652194321155548095703125">         <ele>1348.199951171875</ele>         <time>2026-02-28T09:40:02.000Z</time>         <extensions>           <ns3:TrackPointExtension>             <ns3:hr>106</ns3:hr>           </ns3:TrackPointExtension>         </extensions>       </trkpt>
       <trkpt lat="45.5780437029898166656494140625" lon="14.41960536874830722808837890625">         <ele>1348.5999755859375</ele>         <time>2026-02-28T09:40:08.000Z</time>         <extensions>           <ns3:TrackPointExtension>             <ns3:hr>107</ns3:hr>           </ns3:TrackPointExtension>         </extensions>       </trkpt>
       <trkpt lat="45.57804747484624385833740234375" lon="14.41961894743144512176513671875">         <ele>1348.800048828125</ele>         <time>2026-02-28T09:40:10.000Z</time>         <extensions>           <ns3:TrackPointExtension>             <ns3:hr>107</ns3:hr>           </ns3:TrackPointExtension>         </extensions>       </trkpt>
       <trkpt lat="45.57806239463388919830322265625" lon="14.41965800710022449493408203125">         <ele>1349</ele>         <time>2026-02-28T09:40:13.000Z</time>         <extensions>           <ns3:TrackPointExtension>             <ns3:hr>105</ns3:hr>           </ns3:TrackPointExtension>         </extensions>       </trkpt>
       <trkpt lat="45.5780799128115177154541015625" lon="14.419701509177684783935546875">         <ele>1349.4000244140625</ele>         <time>2026-02-28T09:40:19.000Z</time>         <extensions>           <ns3:TrackPointExtension>             <ns3:hr>104</ns3:hr>           </ns3:TrackPointExtension>         </extensions>       </trkpt>
       <trkpt lat="45.5780906416475772857666015625" lon="14.419738389551639556884765625">         <ele>1349.5999755859375</ele>         <time>2026-02-28T09:40:25.000Z</time>         <extensions>           <ns3:TrackPointExtension>             <ns3:hr>107</ns3:hr>           </ns3:TrackPointExtension>         </extensions>       </trkpt>
       <trkpt lat="45.5781050585210323333740234375" lon="14.41976881586015224456787109375">         <ele>1350</ele>         <time>2026-02-28T09:40:29.000Z</time>         <extensions>           <ns3:TrackPointExtension>             <ns3:hr>109</ns3:hr>           </ns3:TrackPointExtension>         </extensions>       </trkpt>
       <trkpt lat="45.57811218313872814178466796875" lon="14.41979371011257171630859375">         <ele>1350.199951171875</ele>         <time>2026-02-28T09:40:31.000Z</time>         <extensions>           <ns3:TrackPointExtension>             <ns3:hr>107</ns3:hr>           </ns3:TrackPointExtension>         </extensions>       </trkpt>
       <trkpt lat="45.578129701316356658935546875" lon="14.4198441691696643829345703125">         <ele>1350.5999755859375</ele>         <time>2026-02-28T09:40:37.000Z</time>         <extensions>           <ns3:TrackPointExtension>             <ns3:hr>105</ns3:hr>           </ns3:TrackPointExtension>         </extensions>       </trkpt>
       <trkpt lat="45.5781466327607631683349609375" lon="14.41988624632358551025390625">         <ele>1350.800048828125</ele>         <time>2026-02-28T09:40:43.000Z</time>         <extensions>           <ns3:TrackPointExtension>             <ns3:hr>105</ns3:hr>           </ns3:TrackPointExtension>         </extensions>       </trkpt>
       <trkpt lat="45.5781540088355541229248046875" lon="14.41990711726248264312744140625">         <ele>1351</ele>         <time>2026-02-28T09:40:45.000Z</time>         <extensions>           <ns3:TrackPointExtension>             <ns3:hr>106</ns3:hr>           </ns3:TrackPointExtension>         </extensions>       </trkpt>
       <trkpt lat="45.57816415093839168548583984375" lon="14.41994517110288143157958984375">         <ele>1351.4000244140625</ele>         <time>2026-02-28T09:40:50.000Z</time>         <extensions>           <ns3:TrackPointExtension>             <ns3:hr>107</ns3:hr>           </ns3:TrackPointExtension>         </extensions>       </trkpt>
       <trkpt lat="45.5781697668135166168212890625" lon="14.42000485025346279144287109375">         <ele>1351.800048828125</ele>         <time>2026-02-28T09:40:55.000Z</time>         <extensions>           <ns3:TrackPointExtension>             <ns3:hr>109</ns3:hr>           </ns3:TrackPointExtension>         </extensions>       </trkpt>
       <trkpt lat="45.5781771428883075714111328125" lon="14.42004240117967128753662109375">         <ele>1352</ele>         <time>2026-02-28T09:40:58.000Z</time>         <extensions>           <ns3:TrackPointExtension>             <ns3:hr>110</ns3:hr>           </ns3:TrackPointExtension>         </extensions>       </trkpt>
       <trkpt lat="45.57817672379314899444580078125" lon="14.4200517050921916961669921875">         <ele>1352.199951171875</ele>         <time>2026-02-28T09:40:59.000Z</time>         <extensions>           <ns3:TrackPointExtension>             <ns3:hr>110</ns3:hr>           </ns3:TrackPointExtension>         </extensions>       </trkpt>
       <trkpt lat="45.578185021877288818359375" lon="14.42009470425546169281005859375">         <ele>1352.5999755859375</ele>         <time>2026-02-28T09:41:04.000Z</time>         <extensions>           <ns3:TrackPointExtension>             <ns3:hr>110</ns3:hr>           </ns3:TrackPointExtension>         </extensions>       </trkpt>
       <trkpt lat="45.5781992711126804351806640625" lon="14.420147426426410675048828125">         <ele>1353.199951171875</ele>         <time>2026-02-28T09:41:09.000Z</time>         <extensions>           <ns3:TrackPointExtension>             <ns3:hr>109</ns3:hr>           </ns3:TrackPointExtension>         </extensions>       </trkpt>
       <trkpt lat="45.5782024562358856201171875" lon="14.4202183373272418975830078125">         <ele>1353.5999755859375</ele>         <time>2026-02-28T09:41:15.000Z</time>         <extensions>           <ns3:TrackPointExtension>             <ns3:hr>110</ns3:hr>           </ns3:TrackPointExtension>         </extensions>       </trkpt>
       <trkpt lat="45.5781982652842998504638671875" lon="14.42024842835962772369384765625">         <ele>1354</ele>         <time>2026-02-28T09:41:19.000Z</time>         <extensions>           <ns3:TrackPointExtension>             <ns3:hr>113</ns3:hr>           </ns3:TrackPointExtension>         </extensions>       </trkpt>
       <trkpt lat="45.57819818146526813507080078125" lon="14.42026049830019474029541015625">         <ele>1354.199951171875</ele>         <time>2026-02-28T09:41:21.000Z</time>         <extensions>           <ns3:TrackPointExtension>             <ns3:hr>113</ns3:hr>           </ns3:TrackPointExtension>         </extensions>       </trkpt>
       <trkpt lat="45.57819818146526813507080078125" lon="14.42026720382273197174072265625">         <ele>1354.199951171875</ele>         <time>2026-02-28T09:41:22.000Z</time>         <extensions>           <ns3:TrackPointExtension>             <ns3:hr>115</ns3:hr>           </ns3:TrackPointExtension>         </extensions>       </trkpt>
       <trkpt lat="45.5781841836869716644287109375" lon="14.420326463878154754638671875">         <ele>1354.5999755859375</ele>         <time>2026-02-28T09:41:27.000Z</time>         <extensions>           <ns3:TrackPointExtension>             <ns3:hr>113</ns3:hr>           </ns3:TrackPointExtension>         </extensions>       </trkpt>
       <trkpt lat="45.57817286811769008636474609375" lon="14.420370720326900482177734375">         <ele>1354.800048828125</ele>         <time>2026-02-28T09:41:31.000Z</time>         <extensions>           <ns3:TrackPointExtension>             <ns3:hr>112</ns3:hr>           </ns3:TrackPointExtension>         </extensions>       </trkpt>
       <trkpt lat="45.578161887824535369873046875" lon="14.42040030844509601593017578125">         <ele>1355.199951171875</ele>         <time>2026-02-28T09:41:35.000Z</time>         <extensions>           <ns3:TrackPointExtension>             <ns3:hr>111</ns3:hr>           </ns3:TrackPointExtension>         </extensions>       </trkpt>
       <trkpt lat="45.5781519971787929534912109375" lon="14.420410953462123870849609375">         <ele>1355.5999755859375</ele>         <time>2026-02-28T09:41:37.000Z</time>         <extensions>           <ns3:TrackPointExtension>             <ns3:hr>111</ns3:hr>           </ns3:TrackPointExtension>         </extensions>       </trkpt>
       <trkpt lat="45.57813263498246669769287109375" lon="14.420453868806362152099609375">         <ele>1356</ele>         <time>2026-02-28T09:41:42.000Z</time>         <extensions>           <ns3:TrackPointExtension>             <ns3:hr>114</ns3:hr>           </ns3:TrackPointExtension>         </extensions>       </trkpt>
       <trkpt lat="45.57812475599348545074462890625" lon="14.42046560347080230712890625">         <ele>1356</ele>         <time>2026-02-28T09:41:44.000Z</time>         <extensions>           <ns3:TrackPointExtension>             <ns3:hr>114</ns3:hr>           </ns3:TrackPointExtension>         </extensions>       </trkpt>
       <trkpt lat="45.57811385951936244964599609375" lon="14.42049100063741207122802734375">         <ele>1356.4000244140625</ele>         <time>2026-02-28T09:41:48.000Z</time>         <extensions>           <ns3:TrackPointExtension>             <ns3:hr>115</ns3:hr>           </ns3:TrackPointExtension>         </extensions>       </trkpt>
       <trkpt lat="45.57811151258647441864013671875" lon="14.4205207563936710357666015625">         <ele>1356.5999755859375</ele>         <time>2026-02-28T09:41:52.000Z</time>         <extensions>           <ns3:TrackPointExtension>             <ns3:hr>114</ns3:hr>           </ns3:TrackPointExtension>         </extensions>       </trkpt>
       <trkpt lat="45.578116290271282196044921875" lon="14.42057029344141483306884765625">         <ele>1357.199951171875</ele>         <time>2026-02-28T09:41:59.000Z</time>         <extensions>           <ns3:TrackPointExtension>             <ns3:hr>116</ns3:hr>           </ns3:TrackPointExtension>         </extensions>       </trkpt>
       <trkpt lat="45.57811955921351909637451171875" lon="14.42058353684842586517333984375">         <ele>1357.4000244140625</ele>         <time>2026-02-28T09:42:01.000Z</time>         <extensions>           <ns3:TrackPointExtension>             <ns3:hr>116</ns3:hr>           </ns3:TrackPointExtension>         </extensions>       </trkpt>
       <trkpt lat="45.578132383525371551513671875" lon="14.42059527151286602020263671875">         <ele>1357.5999755859375</ele>         <time>2026-02-28T09:42:05.000Z</time>         <extensions>           <ns3:TrackPointExtension>             <ns3:hr>115</ns3:hr>           </ns3:TrackPointExtension>         </extensions>       </trkpt>
       <trkpt lat="45.57815811596810817718505859375" lon="14.4205971993505954742431640625">         <ele>1358</ele>         <time>2026-02-28T09:42:10.000Z</time>         <extensions>           <ns3:TrackPointExtension>             <ns3:hr>112</ns3:hr>           </ns3:TrackPointExtension>         </extensions>       </trkpt>
       <trkpt lat="45.578167252242565155029296875" lon="14.42059434950351715087890625">         <ele>1358.199951171875</ele>         <time>2026-02-28T09:42:12.000Z</time>         <extensions>           <ns3:TrackPointExtension>             <ns3:hr>112</ns3:hr>           </ns3:TrackPointExtension>         </extensions>       </trkpt>
       <trkpt lat="45.5781868658959865570068359375" lon="14.420594684779644012451171875">         <ele>1358.4000244140625</ele>         <time>2026-02-28T09:42:15.000Z</time>         <extensions>           <ns3:TrackPointExtension>             <ns3:hr>110</ns3:hr>           </ns3:TrackPointExtension>         </extensions>       </trkpt>
       <trkpt lat="45.578206144273281097412109375" lon="14.420594014227390289306640625">         <ele>1358.800048828125</ele>         <time>2026-02-28T09:42:19.000Z</time>         <extensions>           <ns3:TrackPointExtension>             <ns3:hr>110</ns3:hr>           </ns3:TrackPointExtension>         </extensions>       </trkpt>
       <trkpt lat="45.57825132273137569427490234375" lon="14.42058320157229900360107421875">         <ele>1359</ele>         <time>2026-02-28T09:42:25.000Z</time>         <extensions>           <ns3:TrackPointExtension>             <ns3:hr>109</ns3:hr>           </ns3:TrackPointExtension>         </extensions>       </trkpt>
       <trkpt lat="45.578277222812175750732421875" lon="14.42056777887046337127685546875">         <ele>1359.4000244140625</ele>         <time>2026-02-28T09:42:29.000Z</time>         <extensions>           <ns3:TrackPointExtension>             <ns3:hr>107</ns3:hr>           </ns3:TrackPointExtension>         </extensions>       </trkpt>
       <trkpt lat="45.5782787315547466278076171875" lon="14.4205633364617824554443359375">         <ele>1359.800048828125</ele>         <time>2026-02-28T09:42:32.000Z</time>         <extensions>           <ns3:TrackPointExtension>             <ns3:hr>108</ns3:hr>           </ns3:TrackPointExtension>         </extensions>       </trkpt>
       <trkpt lat="45.57828837074339389801025390625" lon="14.42055411636829376220703125">         <ele>1360</ele>         <time>2026-02-28T09:42:36.000Z</time>         <extensions>           <ns3:TrackPointExtension>             <ns3:hr>105</ns3:hr>           </ns3:TrackPointExtension>         </extensions>       </trkpt>
       <trkpt lat="45.57829725556075572967529296875" lon="14.42055000923573970794677734375">         <ele>1360.199951171875</ele>         <time>2026-02-28T09:42:38.000Z</time>         <extensions>           <ns3:TrackPointExtension>             <ns3:hr>108</ns3:hr>           </ns3:TrackPointExtension>         </extensions>       </trkpt>
       <trkpt lat="45.57830505073070526123046875" lon="14.42054531536996364593505859375">         <ele>1360.199951171875</ele>         <time>2026-02-28T09:42:39.000Z</time>         <extensions>           <ns3:TrackPointExtension>             <ns3:hr>108</ns3:hr>           </ns3:TrackPointExtension>         </extensions>       </trkpt>
       <trkpt lat="45.5783102475106716156005859375" lon="14.42054070532321929931640625">         <ele>1360.4000244140625</ele>         <time>2026-02-28T09:42:41.000Z</time>         <extensions>           <ns3:TrackPointExtension>             <ns3:hr>105</ns3:hr>           </ns3:TrackPointExtension>         </extensions>       </trkpt>
       <trkpt lat="45.57831401936709880828857421875" lon="14.4205365143716335296630859375">         <ele>1360.4000244140625</ele>         <time>2026-02-28T09:42:42.000Z</time>         <extensions>           <ns3:TrackPointExtension>             <ns3:hr>104</ns3:hr>           </ns3:TrackPointExtension>         </extensions>       </trkpt>
       <trkpt lat="45.57832525111734867095947265625" lon="14.4205294735729694366455078125">         <ele>1360.5999755859375</ele>         <time>2026-02-28T09:42:44.000Z</time>         <extensions>           <ns3:TrackPointExtension>             <ns3:hr>101</ns3:hr>           </ns3:TrackPointExtension>         </extensions>       </trkpt>
       <trkpt lat="45.57832759805023670196533203125" lon="14.42052754573523998260498046875">         <ele>1360.800048828125</ele>         <time>2026-02-28T09:42:45.000Z</time>         <extensions>           <ns3:TrackPointExtension>             <ns3:hr>100</ns3:hr>           </ns3:TrackPointExtension>         </extensions>       </trkpt>
       <trkpt lat="45.578346960246562957763671875" lon="14.42051799036562442779541015625">         <ele>1361</ele>         <time>2026-02-28T09:42:48.000Z</time>         <extensions>           <ns3:TrackPointExtension>             <ns3:hr>104</ns3:hr>           </ns3:TrackPointExtension>         </extensions>       </trkpt>
       <trkpt lat="45.57836028747260570526123046875" lon="14.42050575278699398040771484375">         <ele>1361.199951171875</ele>         <time>2026-02-28T09:42:52.000Z</time>         <extensions>           <ns3:TrackPointExtension>             <ns3:hr>103</ns3:hr>           </ns3:TrackPointExtension>         </extensions>       </trkpt>
       <trkpt lat="45.5783840082585811614990234375" lon="14.42050072364509105682373046875">         <ele>1361.4000244140625</ele>         <time>2026-02-28T09:42:55.000Z</time>         <extensions>           <ns3:TrackPointExtension>             <ns3:hr>107</ns3:hr>           </ns3:TrackPointExtension>         </extensions>       </trkpt>
       <trkpt lat="45.5783900432288646697998046875" lon="14.42049955017864704132080078125">         <ele>1361.5999755859375</ele>         <time>2026-02-28T09:42:57.000Z</time>         <extensions>           <ns3:TrackPointExtension>             <ns3:hr>111</ns3:hr>           </ns3:TrackPointExtension>         </extensions>       </trkpt>
       <trkpt lat="45.57839264161884784698486328125" lon="14.4204986281692981719970703125">         <ele>1361.5999755859375</ele>         <time>2026-02-28T09:42:59.000Z</time>         <extensions>           <ns3:TrackPointExtension>             <ns3:hr>115</ns3:hr>           </ns3:TrackPointExtension>         </extensions>       </trkpt>
       <trkpt lat="45.57839850895106792449951171875" lon="14.42048798315227031707763671875">         <ele>1361.5999755859375</ele>         <time>2026-02-28T09:43:01.000Z</time>         <extensions>           <ns3:TrackPointExtension>             <ns3:hr>116</ns3:hr>           </ns3:TrackPointExtension>         </extensions>       </trkpt>
       <trkpt lat="45.57841099798679351806640625" lon="14.4204751588404178619384765625">         <ele>1361.4000244140625</ele>         <time>2026-02-28T09:43:08.000Z</time>         <extensions>           <ns3:TrackPointExtension>             <ns3:hr>117</ns3:hr>           </ns3:TrackPointExtension>         </extensions>       </trkpt>
       <trkpt lat="45.57840965688228607177734375" lon="14.42047289572656154632568359375">         <ele>1361.800048828125</ele>         <time>2026-02-28T09:43:15.000Z</time>         <extensions>           <ns3:TrackPointExtension>             <ns3:hr>117</ns3:hr>           </ns3:TrackPointExtension>         </extensions>       </trkpt>
       <trkpt lat="45.578416697680950164794921875" lon="14.4204543717205524444580078125">         <ele>1362</ele>         <time>2026-02-28T09:43:24.000Z</time>         <extensions>           <ns3:TrackPointExtension>             <ns3:hr>118</ns3:hr>           </ns3:TrackPointExtension>         </extensions>       </trkpt>
       <trkpt lat="45.57842616923153400421142578125" lon="14.42046199925243854522705078125">         <ele>1362.199951171875</ele>         <time>2026-02-28T09:43:31.000Z</time>         <extensions>           <ns3:TrackPointExtension>             <ns3:hr>117</ns3:hr>           </ns3:TrackPointExtension>         </extensions>       </trkpt>
       <trkpt lat="45.578423403203487396240234375" lon="14.420465268194675445556640625">         <ele>1361.800048828125</ele>         <time>2026-02-28T09:43:38.000Z</time>         <extensions>           <ns3:TrackPointExtension>             <ns3:hr>119</ns3:hr>           </ns3:TrackPointExtension>         </extensions>       </trkpt>
       <trkpt lat="45.5784141831099987030029296875" lon="14.420459903776645660400390625">         <ele>1362.4000244140625</ele>         <time>2026-02-28T09:43:43.000Z</time>         <extensions>           <ns3:TrackPointExtension>             <ns3:hr>122</ns3:hr>           </ns3:TrackPointExtension>         </extensions>       </trkpt>
       <trkpt lat="45.57841233909130096435546875" lon="14.42046292126178741455078125">         <ele>1362.5999755859375</ele>         <time>2026-02-28T09:43:44.000Z</time>         <extensions>           <ns3:TrackPointExtension>             <ns3:hr>122</ns3:hr>           </ns3:TrackPointExtension>         </extensions>       </trkpt>
       <trkpt lat="45.57839482091367244720458984375" lon="14.42044992931187152862548828125">         <ele>1362.4000244140625</ele>         <time>2026-02-28T09:43:49.000Z</time>         <extensions>           <ns3:TrackPointExtension>             <ns3:hr>121</ns3:hr>           </ns3:TrackPointExtension>         </extensions>       </trkpt>
       <trkpt lat="45.57839465327560901641845703125" lon="14.42044925875961780548095703125">         <ele>1362.4000244140625</ele>         <time>2026-02-28T09:43:50.000Z</time>         <extensions>           <ns3:TrackPointExtension>             <ns3:hr>115</ns3:hr>           </ns3:TrackPointExtension>         </extensions>       </trkpt>
       <trkpt lat="45.578394569456577301025390625" lon="14.420449174940586090087890625">         <ele>1362.4000244140625</ele>         <time>2026-02-28T09:43:51.000Z</time>         <extensions>           <ns3:TrackPointExtension>             <ns3:hr>112</ns3:hr>           </ns3:TrackPointExtension>         </extensions>       </trkpt>
       <trkpt lat="45.57841208763420581817626953125" lon="14.42046049050986766815185546875">         <ele>1362.4000244140625</ele>         <time>2026-02-28T09:43:56.000Z</time>         <extensions>           <ns3:TrackPointExtension>             <ns3:hr>115</ns3:hr>           </ns3:TrackPointExtension>         </extensions>       </trkpt>
       <trkpt lat="45.5784188769757747650146484375" lon="14.42045613192021846771240234375">         <ele>1362.4000244140625</ele>         <time>2026-02-28T09:43:59.000Z</time>         <extensions>           <ns3:TrackPointExtension>             <ns3:hr>115</ns3:hr>           </ns3:TrackPointExtension>         </extensions>       </trkpt>
       <trkpt lat="45.5784420110285282135009765625" lon="14.420464597642421722412109375">         <ele>1362.199951171875</ele>         <time>2026-02-28T09:44:03.000Z</time>         <extensions>           <ns3:TrackPointExtension>             <ns3:hr>118</ns3:hr>           </ns3:TrackPointExtension>         </extensions>       </trkpt>
       <trkpt lat="45.57843647897243499755859375" lon="14.42045629955828189849853515625">         <ele>1362.4000244140625</ele>         <time>2026-02-28T09:44:07.000Z</time>         <extensions>           <ns3:TrackPointExtension>             <ns3:hr>119</ns3:hr>           </ns3:TrackPointExtension>         </extensions>       </trkpt>
       <trkpt lat="45.57842114008963108062744140625" lon="14.4204617477953433990478515625">         <ele>1362</ele>         <time>2026-02-28T09:44:18.000Z</time>         <extensions>           <ns3:TrackPointExtension>             <ns3:hr>121</ns3:hr>           </ns3:TrackPointExtension>         </extensions>       </trkpt>
       <trkpt lat="45.57843019254505634307861328125" lon="14.4204842112958431243896484375">         <ele>1362</ele>         <time>2026-02-28T09:44:24.000Z</time>         <extensions>           <ns3:TrackPointExtension>             <ns3:hr>123</ns3:hr>           </ns3:TrackPointExtension>         </extensions>       </trkpt>
       <trkpt lat="45.57843036018311977386474609375" lon="14.42048613913357257843017578125">         <ele>1362.199951171875</ele>         <time>2026-02-28T09:44:31.000Z</time>         <extensions>           <ns3:TrackPointExtension>             <ns3:hr>119</ns3:hr>           </ns3:TrackPointExtension>         </extensions>       </trkpt>
       <trkpt lat="45.57843237183988094329833984375" lon="14.4204872287809848785400390625">         <ele>1362</ele>         <time>2026-02-28T09:44:32.000Z</time>         <extensions>           <ns3:TrackPointExtension>             <ns3:hr>113</ns3:hr>           </ns3:TrackPointExtension>         </extensions>       </trkpt>
       <trkpt lat="45.57843740098178386688232421875" lon="14.42048848606646060943603515625">         <ele>1362.199951171875</ele>         <time>2026-02-28T09:44:34.000Z</time>         <extensions>           <ns3:TrackPointExtension>             <ns3:hr>112</ns3:hr>           </ns3:TrackPointExtension>         </extensions>       </trkpt>
       <trkpt lat="45.5784386582672595977783203125" lon="14.420485384762287139892578125">         <ele>1362.199951171875</ele>         <time>2026-02-28T09:44:36.000Z</time>         <extensions>           <ns3:TrackPointExtension>             <ns3:hr>115</ns3:hr>           </ns3:TrackPointExtension>         </extensions>       </trkpt>
       <trkpt lat="45.578431449830532073974609375" lon="14.4204640947282314300537109375">         <ele>1362.4000244140625</ele>         <time>2026-02-28T09:44:43.000Z</time>         <extensions>           <ns3:TrackPointExtension>             <ns3:hr>117</ns3:hr>           </ns3:TrackPointExtension>         </extensions>       </trkpt>
       <trkpt lat="45.578437484800815582275390625" lon="14.4204661063849925994873046875">         <ele>1362.4000244140625</ele>         <time>2026-02-28T09:44:47.000Z</time>         <extensions>           <ns3:TrackPointExtension>             <ns3:hr>114</ns3:hr>           </ns3:TrackPointExtension>         </extensions>       </trkpt>
       <trkpt lat="45.57843807153403759002685546875" lon="14.42046317271888256072998046875">         <ele>1362.4000244140625</ele>         <time>2026-02-28T09:44:50.000Z</time>         <extensions>           <ns3:TrackPointExtension>             <ns3:hr>111</ns3:hr>           </ns3:TrackPointExtension>         </extensions>       </trkpt>
       <trkpt lat="45.578407980501651763916015625" lon="14.42046032287180423736572265625">         <ele>1362.199951171875</ele>         <time>2026-02-28T09:44:57.000Z</time>         <extensions>           <ns3:TrackPointExtension>             <ns3:hr>112</ns3:hr>           </ns3:TrackPointExtension>         </extensions>       </trkpt>
       <trkpt lat="45.57843371294438838958740234375" lon="14.42045462317764759063720703125">         <ele>1362</ele>         <time>2026-02-28T09:45:06.000Z</time>         <extensions>           <ns3:TrackPointExtension>             <ns3:hr>113</ns3:hr>           </ns3:TrackPointExtension>         </extensions>       </trkpt>
       <trkpt lat="45.5784353055059909820556640625" lon="14.42045998759567737579345703125">         <ele>1361.800048828125</ele>         <time>2026-02-28T09:45:11.000Z</time>         <extensions>           <ns3:TrackPointExtension>             <ns3:hr>117</ns3:hr>           </ns3:TrackPointExtension>         </extensions>       </trkpt>
       <trkpt lat="45.5784346349537372589111328125" lon="14.4204607419669628143310546875">         <ele>1361.5999755859375</ele>         <time>2026-02-28T09:45:12.000Z</time>         <extensions>           <ns3:TrackPointExtension>             <ns3:hr>117</ns3:hr>           </ns3:TrackPointExtension>         </extensions>       </trkpt>
       <trkpt lat="45.5784342996776103973388671875" lon="14.4204671122133731842041015625">         <ele>1361.800048828125</ele>         <time>2026-02-28T09:45:19.000Z</time>         <extensions>           <ns3:TrackPointExtension>             <ns3:hr>118</ns3:hr>           </ns3:TrackPointExtension>         </extensions>       </trkpt>
       <trkpt lat="45.5784239061176776885986328125" lon="14.4204662740230560302734375">         <ele>1361.5999755859375</ele>         <time>2026-02-28T09:45:24.000Z</time>         <extensions>           <ns3:TrackPointExtension>             <ns3:hr>112</ns3:hr>           </ns3:TrackPointExtension>         </extensions>       </trkpt>
       <trkpt lat="45.5784212239086627960205078125" lon="14.420465938746929168701171875">         <ele>1361.800048828125</ele>         <time>2026-02-28T09:45:25.000Z</time>         <extensions>           <ns3:TrackPointExtension>             <ns3:hr>109</ns3:hr>           </ns3:TrackPointExtension>         </extensions>       </trkpt>
       <trkpt lat="45.57842097245156764984130859375" lon="14.42046551965177059173583984375">         <ele>1361.800048828125</ele>         <time>2026-02-28T09:45:26.000Z</time>         <extensions>           <ns3:TrackPointExtension>             <ns3:hr>103</ns3:hr>           </ns3:TrackPointExtension>         </extensions>       </trkpt>
       <trkpt lat="45.57842080481350421905517578125" lon="14.4204654358327388763427734375">         <ele>1361.800048828125</ele>         <time>2026-02-28T09:45:27.000Z</time>         <extensions>           <ns3:TrackPointExtension>             <ns3:hr>100</ns3:hr>           </ns3:TrackPointExtension>         </extensions>       </trkpt>
       <trkpt lat="45.57842147536575794219970703125" lon="14.4204671122133731842041015625">         <ele>1361.800048828125</ele>         <time>2026-02-28T09:45:28.000Z</time>         <extensions>           <ns3:TrackPointExtension>             <ns3:hr>100</ns3:hr>           </ns3:TrackPointExtension>         </extensions>       </trkpt>
       <trkpt lat="45.5784292705357074737548828125" lon="14.4204676151275634765625">         <ele>1361.5999755859375</ele>         <time>2026-02-28T09:45:30.000Z</time>         <extensions>           <ns3:TrackPointExtension>             <ns3:hr>101</ns3:hr>           </ns3:TrackPointExtension>         </extensions>       </trkpt>
       <trkpt lat="45.57843304239213466644287109375" lon="14.42046426236629486083984375">         <ele>1361.4000244140625</ele>         <time>2026-02-28T09:45:31.000Z</time>         <extensions>           <ns3:TrackPointExtension>             <ns3:hr>101</ns3:hr>           </ns3:TrackPointExtension>         </extensions>       </trkpt>
       <trkpt lat="45.5784426815807819366455078125" lon="14.4204708002507686614990234375">         <ele>1361.5999755859375</ele>         <time>2026-02-28T09:45:36.000Z</time>         <extensions>           <ns3:TrackPointExtension>             <ns3:hr>100</ns3:hr>           </ns3:TrackPointExtension>         </extensions>       </trkpt>
       <trkpt lat="45.57845835573971271514892578125" lon="14.4204811938107013702392578125">         <ele>1362</ele>         <time>2026-02-28T09:45:40.000Z</time>         <extensions>           <ns3:TrackPointExtension>             <ns3:hr>101</ns3:hr>           </ns3:TrackPointExtension>         </extensions>       </trkpt>
       <trkpt lat="45.57849037460982799530029296875" lon="14.42048379220068454742431640625">         <ele>1362.5999755859375</ele>         <time>2026-02-28T09:45:45.000Z</time>         <extensions>           <ns3:TrackPointExtension>             <ns3:hr>101</ns3:hr>           </ns3:TrackPointExtension>         </extensions>       </trkpt>
       <trkpt lat="45.578499175608158111572265625" lon="14.420483373105525970458984375">         <ele>1362.5999755859375</ele>         <time>2026-02-28T09:45:46.000Z</time>         <extensions>           <ns3:TrackPointExtension>             <ns3:hr>101</ns3:hr>           </ns3:TrackPointExtension>         </extensions>       </trkpt>
       <trkpt lat="45.5785566754639148712158203125" lon="14.420487396419048309326171875">         <ele>1363.199951171875</ele>         <time>2026-02-28T09:45:52.000Z</time>         <extensions>           <ns3:TrackPointExtension>             <ns3:hr>102</ns3:hr>           </ns3:TrackPointExtension>         </extensions>       </trkpt>
       <trkpt lat="45.57858861051499843597412109375" lon="14.42050072364509105682373046875">         <ele>1363.5999755859375</ele>         <time>2026-02-28T09:45:55.000Z</time>         <extensions>           <ns3:TrackPointExtension>             <ns3:hr>102</ns3:hr>           </ns3:TrackPointExtension>         </extensions>       </trkpt>
       <trkpt lat="45.57861677370965480804443359375" lon="14.420511536300182342529296875">         <ele>1364</ele>         <time>2026-02-28T09:45:58.000Z</time>         <extensions>           <ns3:TrackPointExtension>             <ns3:hr>103</ns3:hr>           </ns3:TrackPointExtension>         </extensions>       </trkpt>
       <trkpt lat="45.5786636285483837127685546875" lon="14.4205375202000141143798828125">         <ele>1364.199951171875</ele>         <time>2026-02-28T09:46:03.000Z</time>         <extensions>           <ns3:TrackPointExtension>             <ns3:hr>104</ns3:hr>           </ns3:TrackPointExtension>         </extensions>       </trkpt>
       <trkpt lat="45.5787067115306854248046875" lon="14.420575238764286041259765625">         <ele>1364.5999755859375</ele>         <time>2026-02-28T09:46:08.000Z</time>         <extensions>           <ns3:TrackPointExtension>             <ns3:hr>106</ns3:hr>           </ns3:TrackPointExtension>         </extensions>       </trkpt>
       <trkpt lat="45.57872238568961620330810546875" lon="14.4205950200557708740234375">         <ele>1364.5999755859375</ele>         <time>2026-02-28T09:46:10.000Z</time>         <extensions>           <ns3:TrackPointExtension>             <ns3:hr>106</ns3:hr>           </ns3:TrackPointExtension>         </extensions>       </trkpt>
       <trkpt lat="45.5787390656769275665283203125" lon="14.4206236861646175384521484375">         <ele>1364.800048828125</ele>         <time>2026-02-28T09:46:13.000Z</time>         <extensions>           <ns3:TrackPointExtension>             <ns3:hr>106</ns3:hr>           </ns3:TrackPointExtension>         </extensions>       </trkpt>
       <trkpt lat="45.5787601880729198455810546875" lon="14.42065495066344738006591796875">         <ele>1365</ele>         <time>2026-02-28T09:46:17.000Z</time>         <extensions>           <ns3:TrackPointExtension>             <ns3:hr>105</ns3:hr>           </ns3:TrackPointExtension>         </extensions>       </trkpt>
       <trkpt lat="45.57878608815371990203857421875" lon="14.4206984527409076690673828125">         <ele>1365.5999755859375</ele>         <time>2026-02-28T09:46:22.000Z</time>         <extensions>           <ns3:TrackPointExtension>             <ns3:hr>107</ns3:hr>           </ns3:TrackPointExtension>         </extensions>       </trkpt>
       <trkpt lat="45.57880938984453678131103515625" lon="14.42074044607579708099365234375">         <ele>1366.4000244140625</ele>         <time>2026-02-28T09:46:27.000Z</time>         <extensions>           <ns3:TrackPointExtension>             <ns3:hr>107</ns3:hr>           </ns3:TrackPointExtension>         </extensions>       </trkpt>
       <trkpt lat="45.57883604429662227630615234375" lon="14.4207738898694515228271484375">         <ele>1366.800048828125</ele>         <time>2026-02-28T09:46:31.000Z</time>         <extensions>           <ns3:TrackPointExtension>             <ns3:hr>106</ns3:hr>           </ns3:TrackPointExtension>         </extensions>       </trkpt>
       <trkpt lat="45.5788542330265045166015625" lon="14.42079476080834865570068359375">         <ele>1367</ele>         <time>2026-02-28T09:46:33.000Z</time>         <extensions>           <ns3:TrackPointExtension>             <ns3:hr>106</ns3:hr>           </ns3:TrackPointExtension>         </extensions>       </trkpt>
       <trkpt lat="45.57888532988727092742919921875" lon="14.42081320099532604217529296875">         <ele>1367.4000244140625</ele>         <time>2026-02-28T09:46:37.000Z</time>         <extensions>           <ns3:TrackPointExtension>             <ns3:hr>107</ns3:hr>           </ns3:TrackPointExtension>         </extensions>       </trkpt>
       <trkpt lat="45.5789170973002910614013671875" lon="14.42084505222737789154052734375">         <ele>1367.4000244140625</ele>         <time>2026-02-28T09:46:43.000Z</time>         <extensions>           <ns3:TrackPointExtension>             <ns3:hr>109</ns3:hr>           </ns3:TrackPointExtension>         </extensions>       </trkpt>
       <trkpt lat="45.57894433848559856414794921875" lon="14.42088578827679157257080078125">         <ele>1367.800048828125</ele>         <time>2026-02-28T09:46:48.000Z</time>         <extensions>           <ns3:TrackPointExtension>             <ns3:hr>107</ns3:hr>           </ns3:TrackPointExtension>         </extensions>       </trkpt>
       <trkpt lat="45.578975938260555267333984375" lon="14.420915544033050537109375">         <ele>1368.5999755859375</ele>         <time>2026-02-28T09:46:54.000Z</time>         <extensions>           <ns3:TrackPointExtension>             <ns3:hr>105</ns3:hr>           </ns3:TrackPointExtension>         </extensions>       </trkpt>
       <trkpt lat="45.57902161963284015655517578125" lon="14.42096776328980922698974609375">         <ele>1368.800048828125</ele>         <time>2026-02-28T09:47:01.000Z</time>         <extensions>           <ns3:TrackPointExtension>             <ns3:hr>105</ns3:hr>           </ns3:TrackPointExtension>         </extensions>       </trkpt>
       <trkpt lat="45.5790297500789165496826171875" lon="14.42098452709615230560302734375">         <ele>1369</ele>         <time>2026-02-28T09:47:03.000Z</time>         <extensions>           <ns3:TrackPointExtension>             <ns3:hr>105</ns3:hr>           </ns3:TrackPointExtension>         </extensions>       </trkpt>
       <trkpt lat="45.579034946858882904052734375" lon="14.42099374718964099884033203125">         <ele>1369.199951171875</ele>         <time>2026-02-28T09:47:04.000Z</time>         <extensions>           <ns3:TrackPointExtension>             <ns3:hr>108</ns3:hr>           </ns3:TrackPointExtension>         </extensions>       </trkpt>
       <trkpt lat="45.57903955690562725067138671875" lon="14.420997686684131622314453125">         <ele>1369.199951171875</ele>         <time>2026-02-28T09:47:05.000Z</time>         <extensions>           <ns3:TrackPointExtension>             <ns3:hr>111</ns3:hr>           </ns3:TrackPointExtension>         </extensions>       </trkpt>
       <trkpt lat="45.57904676534235477447509765625" lon="14.4210027158260345458984375">         <ele>1369.4000244140625</ele>         <time>2026-02-28T09:47:07.000Z</time>         <extensions>           <ns3:TrackPointExtension>             <ns3:hr>114</ns3:hr>           </ns3:TrackPointExtension>         </extensions>       </trkpt>
       <trkpt lat="45.57905196212232112884521484375" lon="14.42101134918630123138427734375">         <ele>1369.5999755859375</ele>         <time>2026-02-28T09:47:08.000Z</time>         <extensions>           <ns3:TrackPointExtension>             <ns3:hr>117</ns3:hr>           </ns3:TrackPointExtension>         </extensions>       </trkpt>
       <trkpt lat="45.579056404531002044677734375" lon="14.4210126064717769622802734375">         <ele>1369.800048828125</ele>         <time>2026-02-28T09:47:09.000Z</time>         <extensions>           <ns3:TrackPointExtension>             <ns3:hr>122</ns3:hr>           </ns3:TrackPointExtension>         </extensions>       </trkpt>
       <trkpt lat="45.57906537316739559173583984375" lon="14.42101956345140933990478515625">         <ele>1370</ele>         <time>2026-02-28T09:47:11.000Z</time>         <extensions>           <ns3:TrackPointExtension>             <ns3:hr>123</ns3:hr>           </ns3:TrackPointExtension>         </extensions>       </trkpt>
       <trkpt lat="45.57909496128559112548828125" lon="14.421027861535549163818359375">         <ele>1370.4000244140625</ele>         <time>2026-02-28T09:47:15.000Z</time>         <extensions>           <ns3:TrackPointExtension>             <ns3:hr>120</ns3:hr>           </ns3:TrackPointExtension>         </extensions>       </trkpt>
       <trkpt lat="45.57910594157874584197998046875" lon="14.421033561229705810546875">         <ele>1370.5999755859375</ele>         <time>2026-02-28T09:47:16.000Z</time>         <extensions>           <ns3:TrackPointExtension>             <ns3:hr>119</ns3:hr>           </ns3:TrackPointExtension>         </extensions>       </trkpt>
       <trkpt lat="45.5791323445737361907958984375" lon="14.42104454152286052703857421875">         <ele>1371</ele>         <time>2026-02-28T09:47:20.000Z</time>         <extensions>           <ns3:TrackPointExtension>             <ns3:hr>117</ns3:hr>           </ns3:TrackPointExtension>         </extensions>       </trkpt>
       <trkpt lat="45.57913594879209995269775390625" lon="14.4210474751889705657958984375">         <ele>1371.199951171875</ele>         <time>2026-02-28T09:47:21.000Z</time>         <extensions>           <ns3:TrackPointExtension>             <ns3:hr>116</ns3:hr>           </ns3:TrackPointExtension>         </extensions>       </trkpt>
       <trkpt lat="45.57918255217373371124267578125" lon="14.4210831820964813232421875">         <ele>1371.5999755859375</ele>         <time>2026-02-28T09:47:28.000Z</time>         <extensions>           <ns3:TrackPointExtension>             <ns3:hr>117</ns3:hr>           </ns3:TrackPointExtension>         </extensions>       </trkpt>
       <trkpt lat="45.57923041284084320068359375" lon="14.421119056642055511474609375">         <ele>1372</ele>         <time>2026-02-28T09:47:35.000Z</time>         <extensions>           <ns3:TrackPointExtension>             <ns3:hr>117</ns3:hr>           </ns3:TrackPointExtension>         </extensions>       </trkpt>
       <trkpt lat="45.57924072258174419403076171875" lon="14.4211272709071636199951171875">         <ele>1372.199951171875</ele>         <time>2026-02-28T09:47:36.000Z</time>         <extensions>           <ns3:TrackPointExtension>             <ns3:hr>117</ns3:hr>           </ns3:TrackPointExtension>         </extensions>       </trkpt>
       <trkpt lat="45.57927575893700122833251953125" lon="14.42116163671016693115234375">         <ele>1372.4000244140625</ele>         <time>2026-02-28T09:47:42.000Z</time>         <extensions>           <ns3:TrackPointExtension>             <ns3:hr>115</ns3:hr>           </ns3:TrackPointExtension>         </extensions>       </trkpt>
       <trkpt lat="45.57932152412831783294677734375" lon="14.4211812503635883331298828125">         <ele>1373.199951171875</ele>         <time>2026-02-28T09:47:48.000Z</time>         <extensions>           <ns3:TrackPointExtension>             <ns3:hr>115</ns3:hr>           </ns3:TrackPointExtension>         </extensions>       </trkpt>
       <trkpt lat="45.5793576501309871673583984375" lon="14.42120832391083240509033203125">         <ele>1373.800048828125</ele>         <time>2026-02-28T09:47:54.000Z</time>         <extensions>           <ns3:TrackPointExtension>             <ns3:hr>113</ns3:hr>           </ns3:TrackPointExtension>         </extensions>       </trkpt>
       <trkpt lat="45.57937433011829853057861328125" lon="14.4212211482226848602294921875">         <ele>1374</ele>         <time>2026-02-28T09:47:57.000Z</time>         <extensions>           <ns3:TrackPointExtension>             <ns3:hr>110</ns3:hr>           </ns3:TrackPointExtension>         </extensions>       </trkpt>
       <trkpt lat="45.57939277030527591705322265625" lon="14.42123531363904476165771484375">         <ele>1374.199951171875</ele>         <time>2026-02-28T09:48:01.000Z</time>         <extensions>           <ns3:TrackPointExtension>             <ns3:hr>109</ns3:hr>           </ns3:TrackPointExtension>         </extensions>       </trkpt>
       <trkpt lat="45.57940819300711154937744140625" lon="14.42124151624739170074462890625">         <ele>1374.4000244140625</ele>         <time>2026-02-28T09:48:03.000Z</time>         <extensions>           <ns3:TrackPointExtension>             <ns3:hr>110</ns3:hr>           </ns3:TrackPointExtension>         </extensions>       </trkpt>
       <trkpt lat="45.579464770853519439697265625" lon="14.42126800306141376495361328125">         <ele>1375.199951171875</ele>         <time>2026-02-28T09:48:10.000Z</time>         <extensions>           <ns3:TrackPointExtension>             <ns3:hr>111</ns3:hr>           </ns3:TrackPointExtension>         </extensions>       </trkpt>
       <trkpt lat="45.57947047054767608642578125" lon="14.4212774746119976043701171875">         <ele>1375.199951171875</ele>         <time>2026-02-28T09:48:11.000Z</time>         <extensions>           <ns3:TrackPointExtension>             <ns3:hr>111</ns3:hr>           </ns3:TrackPointExtension>         </extensions>       </trkpt>
       <trkpt lat="45.57948815636336803436279296875" lon="14.4213012792170047760009765625">         <ele>1375.4000244140625</ele>         <time>2026-02-28T09:48:14.000Z</time>         <extensions>           <ns3:TrackPointExtension>             <ns3:hr>108</ns3:hr>           </ns3:TrackPointExtension>         </extensions>       </trkpt>
       <trkpt lat="45.5794988013803958892822265625" lon="14.42131343297660350799560546875">         <ele>1375.5999755859375</ele>         <time>2026-02-28T09:48:15.000Z</time>         <extensions>           <ns3:TrackPointExtension>             <ns3:hr>106</ns3:hr>           </ns3:TrackPointExtension>         </extensions>       </trkpt>
       <trkpt lat="45.57953350245952606201171875" lon="14.4213421829044818878173828125">         <ele>1376</ele>         <time>2026-02-28T09:48:20.000Z</time>         <extensions>           <ns3:TrackPointExtension>             <ns3:hr>104</ns3:hr>           </ns3:TrackPointExtension>         </extensions>       </trkpt>
       <trkpt lat="45.5795527808368206024169921875" lon="14.4213609583675861358642578125">         <ele>1376.199951171875</ele>         <time>2026-02-28T09:48:23.000Z</time>         <extensions>           <ns3:TrackPointExtension>             <ns3:hr>105</ns3:hr>           </ns3:TrackPointExtension>         </extensions>       </trkpt>
       <trkpt lat="45.57956208474934101104736328125" lon="14.42136791534721851348876953125">         <ele>1376.4000244140625</ele>         <time>2026-02-28T09:48:24.000Z</time>         <extensions>           <ns3:TrackPointExtension>             <ns3:hr>105</ns3:hr>           </ns3:TrackPointExtension>         </extensions>       </trkpt>
       <trkpt lat="45.5795980431139469146728515625" lon="14.421402029693126678466796875">         <ele>1376.5999755859375</ele>         <time>2026-02-28T09:48:29.000Z</time>         <extensions>           <ns3:TrackPointExtension>             <ns3:hr>107</ns3:hr>           </ns3:TrackPointExtension>         </extensions>       </trkpt>
       <trkpt lat="45.57963165454566478729248046875" lon="14.42143564112484455108642578125">         <ele>1377.199951171875</ele>         <time>2026-02-28T09:48:34.000Z</time>         <extensions>           <ns3:TrackPointExtension>             <ns3:hr>106</ns3:hr>           </ns3:TrackPointExtension>         </extensions>       </trkpt>
       <trkpt lat="45.579638779163360595703125" lon="14.4214531593024730682373046875">         <ele>1377.199951171875</ele>         <time>2026-02-28T09:48:36.000Z</time>         <extensions>           <ns3:TrackPointExtension>             <ns3:hr>106</ns3:hr>           </ns3:TrackPointExtension>         </extensions>       </trkpt>
       <trkpt lat="45.57965713553130626678466796875" lon="14.4214726053178310394287109375">         <ele>1377.4000244140625</ele>         <time>2026-02-28T09:48:38.000Z</time>         <extensions>           <ns3:TrackPointExtension>             <ns3:hr>106</ns3:hr>           </ns3:TrackPointExtension>         </extensions>       </trkpt>
       <trkpt lat="45.5796832032501697540283203125" lon="14.42151593975722789764404296875">         <ele>1377.800048828125</ele>         <time>2026-02-28T09:48:43.000Z</time>         <extensions>           <ns3:TrackPointExtension>             <ns3:hr>105</ns3:hr>           </ns3:TrackPointExtension>         </extensions>       </trkpt>
       <trkpt lat="45.5797063373029232025146484375" lon="14.42156103439629077911376953125">         <ele>1378.199951171875</ele>         <time>2026-02-28T09:48:48.000Z</time>         <extensions>           <ns3:TrackPointExtension>             <ns3:hr>106</ns3:hr>           </ns3:TrackPointExtension>         </extensions>       </trkpt>
       <trkpt lat="45.57971195317804813385009765625" lon="14.4215748645365238189697265625">         <ele>1378.4000244140625</ele>         <time>2026-02-28T09:48:49.000Z</time>         <extensions>           <ns3:TrackPointExtension>             <ns3:hr>107</ns3:hr>           </ns3:TrackPointExtension>         </extensions>       </trkpt>
       <trkpt lat="45.57972620241343975067138671875" lon="14.42162557505071163177490234375">         <ele>1378.5999755859375</ele>         <time>2026-02-28T09:48:53.000Z</time>         <extensions>           <ns3:TrackPointExtension>             <ns3:hr>106</ns3:hr>           </ns3:TrackPointExtension>         </extensions>       </trkpt>
       <trkpt lat="45.579744391143321990966796875" lon="14.42167620174586772918701171875">         <ele>1379.199951171875</ele>         <time>2026-02-28T09:48:59.000Z</time>         <extensions>           <ns3:TrackPointExtension>             <ns3:hr>106</ns3:hr>           </ns3:TrackPointExtension>         </extensions>       </trkpt>
       <trkpt lat="45.5797541141510009765625" lon="14.4217116571962833404541015625">         <ele>1379.4000244140625</ele>         <time>2026-02-28T09:49:03.000Z</time>         <extensions>           <ns3:TrackPointExtension>             <ns3:hr>106</ns3:hr>           </ns3:TrackPointExtension>         </extensions>       </trkpt>
       <trkpt lat="45.57975537143647670745849609375" lon="14.42172213457524776458740234375">         <ele>1379.5999755859375</ele>         <time>2026-02-28T09:49:04.000Z</time>         <extensions>           <ns3:TrackPointExtension>             <ns3:hr>106</ns3:hr>           </ns3:TrackPointExtension>         </extensions>       </trkpt>
       <trkpt lat="45.5797635018825531005859375" lon="14.42175599746406078338623046875">         <ele>1380</ele>         <time>2026-02-28T09:49:09.000Z</time>         <extensions>           <ns3:TrackPointExtension>             <ns3:hr>106</ns3:hr>           </ns3:TrackPointExtension>         </extensions>       </trkpt>
       <trkpt lat="45.5797780863940715789794921875" lon="14.421808384358882904052734375">         <ele>1380.4000244140625</ele>         <time>2026-02-28T09:49:15.000Z</time>         <extensions>           <ns3:TrackPointExtension>             <ns3:hr>104</ns3:hr>           </ns3:TrackPointExtension>         </extensions>       </trkpt>
       <trkpt lat="45.579781271517276763916015625" lon="14.42181718535721302032470703125">         <ele>1380.5999755859375</ele>         <time>2026-02-28T09:49:16.000Z</time>         <extensions>           <ns3:TrackPointExtension>             <ns3:hr>105</ns3:hr>           </ns3:TrackPointExtension>         </extensions>       </trkpt>
       <trkpt lat="45.57979912497103214263916015625" lon="14.421864040195941925048828125">         <ele>1381.199951171875</ele>         <time>2026-02-28T09:49:22.000Z</time>         <extensions>           <ns3:TrackPointExtension>             <ns3:hr>105</ns3:hr>           </ns3:TrackPointExtension>         </extensions>       </trkpt>
       <trkpt lat="45.5798109434545040130615234375" lon="14.421889521181583404541015625">         <ele>1381.5999755859375</ele>         <time>2026-02-28T09:49:26.000Z</time>         <extensions>           <ns3:TrackPointExtension>             <ns3:hr>104</ns3:hr>           </ns3:TrackPointExtension>         </extensions>       </trkpt>
       <trkpt lat="45.5798146314918994903564453125" lon="14.421900920569896697998046875">         <ele>1381.800048828125</ele>         <time>2026-02-28T09:49:28.000Z</time>         <extensions>           <ns3:TrackPointExtension>             <ns3:hr>104</ns3:hr>           </ns3:TrackPointExtension>         </extensions>       </trkpt>
       <trkpt lat="45.5798354186117649078369140625" lon="14.421947859227657318115234375">         <ele>1382.199951171875</ele>         <time>2026-02-28T09:49:33.000Z</time>         <extensions>           <ns3:TrackPointExtension>             <ns3:hr>104</ns3:hr>           </ns3:TrackPointExtension>         </extensions>       </trkpt>
       <trkpt lat="45.57985444553196430206298828125" lon="14.42200225777924060821533203125">         <ele>1382.5999755859375</ele>         <time>2026-02-28T09:49:39.000Z</time>         <extensions>           <ns3:TrackPointExtension>             <ns3:hr>104</ns3:hr>           </ns3:TrackPointExtension>         </extensions>       </trkpt>
       <trkpt lat="45.57986768893897533416748046875" lon="14.42204869352281093597412109375">         <ele>1383.199951171875</ele>         <time>2026-02-28T09:49:45.000Z</time>         <extensions>           <ns3:TrackPointExtension>             <ns3:hr>105</ns3:hr>           </ns3:TrackPointExtension>         </extensions>       </trkpt>
       <trkpt lat="45.57988084852695465087890625" lon="14.422071240842342376708984375">         <ele>1383.5999755859375</ele>         <time>2026-02-28T09:49:50.000Z</time>         <extensions>           <ns3:TrackPointExtension>             <ns3:hr>105</ns3:hr>           </ns3:TrackPointExtension>         </extensions>       </trkpt>
       <trkpt lat="45.57988344691693782806396484375" lon="14.42207492887973785400390625">         <ele>1383.5999755859375</ele>         <time>2026-02-28T09:49:51.000Z</time>         <extensions>           <ns3:TrackPointExtension>             <ns3:hr>105</ns3:hr>           </ns3:TrackPointExtension>         </extensions>       </trkpt>
       <trkpt lat="45.5799007974565029144287109375" lon="14.4221002422273159027099609375">         <ele>1384</ele>         <time>2026-02-28T09:49:56.000Z</time>         <extensions>           <ns3:TrackPointExtension>             <ns3:hr>103</ns3:hr>           </ns3:TrackPointExtension>         </extensions>       </trkpt>
       <trkpt lat="45.57994748465716838836669921875" lon="14.42215095274150371551513671875">         <ele>1384.5999755859375</ele>         <time>2026-02-28T09:50:03.000Z</time>         <extensions>           <ns3:TrackPointExtension>             <ns3:hr>106</ns3:hr>           </ns3:TrackPointExtension>         </extensions>       </trkpt>
       <trkpt lat="45.57995318435132503509521484375" lon="14.4221535511314868927001953125">         <ele>1384.5999755859375</ele>         <time>2026-02-28T09:50:04.000Z</time>         <extensions>           <ns3:TrackPointExtension>             <ns3:hr>107</ns3:hr>           </ns3:TrackPointExtension>         </extensions>       </trkpt>
       <trkpt lat="45.5799579620361328125" lon="14.42215531133115291595458984375">         <ele>1384.5999755859375</ele>         <time>2026-02-28T09:50:05.000Z</time>         <extensions>           <ns3:TrackPointExtension>             <ns3:hr>108</ns3:hr>           </ns3:TrackPointExtension>         </extensions>       </trkpt>
       <trkpt lat="45.5799906514585018157958984375" lon="14.4221669621765613555908203125">         <ele>1385.199951171875</ele>         <time>2026-02-28T09:50:11.000Z</time>         <extensions>           <ns3:TrackPointExtension>             <ns3:hr>105</ns3:hr>           </ns3:TrackPointExtension>         </extensions>       </trkpt>
       <trkpt lat="45.58000314049422740936279296875" lon="14.42217676900327205657958984375">         <ele>1385.800048828125</ele>         <time>2026-02-28T09:50:15.000Z</time>         <extensions>           <ns3:TrackPointExtension>             <ns3:hr>107</ns3:hr>           </ns3:TrackPointExtension>         </extensions>       </trkpt>
       <trkpt lat="45.58000816963613033294677734375" lon="14.4221746735274791717529296875">         <ele>1386</ele>         <time>2026-02-28T09:50:18.000Z</time>         <extensions>           <ns3:TrackPointExtension>             <ns3:hr>107</ns3:hr>           </ns3:TrackPointExtension>         </extensions>       </trkpt>
       <trkpt lat="45.580014623701572418212890625" lon="14.42217492498457431793212890625">         <ele>1386.199951171875</ele>         <time>2026-02-28T09:50:20.000Z</time>         <extensions>           <ns3:TrackPointExtension>             <ns3:hr>110</ns3:hr>           </ns3:TrackPointExtension>         </extensions>       </trkpt>
       <trkpt lat="45.580020658671855926513671875" lon="14.42217551171779632568359375">         <ele>1386.4000244140625</ele>         <time>2026-02-28T09:50:21.000Z</time>         <extensions>           <ns3:TrackPointExtension>             <ns3:hr>113</ns3:hr>           </ns3:TrackPointExtension>         </extensions>       </trkpt>
       <trkpt lat="45.5800181441009044647216796875" lon="14.4221716560423374176025390625">         <ele>1386.4000244140625</ele>         <time>2026-02-28T09:50:22.000Z</time>         <extensions>           <ns3:TrackPointExtension>             <ns3:hr>116</ns3:hr>           </ns3:TrackPointExtension>         </extensions>       </trkpt>
       <trkpt lat="45.58001923374831676483154296875" lon="14.422171153128147125244140625">         <ele>1386.4000244140625</ele>         <time>2026-02-28T09:50:23.000Z</time>         <extensions>           <ns3:TrackPointExtension>             <ns3:hr>116</ns3:hr>           </ns3:TrackPointExtension>         </extensions>       </trkpt>
       <trkpt lat="45.580025352537631988525390625" lon="14.42217123694717884063720703125">         <ele>1386.5999755859375</ele>         <time>2026-02-28T09:50:24.000Z</time>         <extensions>           <ns3:TrackPointExtension>             <ns3:hr>116</ns3:hr>           </ns3:TrackPointExtension>         </extensions>       </trkpt>
       <trkpt lat="45.58003641664981842041015625" lon="14.42217928357422351837158203125">         <ele>1386.5999755859375</ele>         <time>2026-02-28T09:50:26.000Z</time>         <extensions>           <ns3:TrackPointExtension>             <ns3:hr>119</ns3:hr>           </ns3:TrackPointExtension>         </extensions>       </trkpt>
       <trkpt lat="45.5800545215606689453125" lon="14.42218917421996593475341796875">         <ele>1386.800048828125</ele>         <time>2026-02-28T09:50:30.000Z</time>         <extensions>           <ns3:TrackPointExtension>             <ns3:hr>119</ns3:hr>           </ns3:TrackPointExtension>         </extensions>       </trkpt>
       <trkpt lat="45.580058880150318145751953125" lon="14.42219101823866367340087890625">         <ele>1386.800048828125</ele>         <time>2026-02-28T09:50:31.000Z</time>         <extensions>           <ns3:TrackPointExtension>             <ns3:hr>120</ns3:hr>           </ns3:TrackPointExtension>         </extensions>       </trkpt>
       <trkpt lat="45.58009064756333827972412109375" lon="14.42220509983599185943603515625">         <ele>1387.4000244140625</ele>         <time>2026-02-28T09:50:37.000Z</time>         <extensions>           <ns3:TrackPointExtension>             <ns3:hr>118</ns3:hr>           </ns3:TrackPointExtension>         </extensions>       </trkpt>
       <trkpt lat="45.58012333698570728302001953125" lon="14.42222354002296924591064453125">         <ele>1387.800048828125</ele>         <time>2026-02-28T09:50:42.000Z</time>         <extensions>           <ns3:TrackPointExtension>             <ns3:hr>116</ns3:hr>           </ns3:TrackPointExtension>         </extensions>       </trkpt>
       <trkpt lat="45.58013222180306911468505859375" lon="14.42223208956420421600341796875">         <ele>1387.800048828125</ele>         <time>2026-02-28T09:50:43.000Z</time>         <extensions>           <ns3:TrackPointExtension>             <ns3:hr>116</ns3:hr>           </ns3:TrackPointExtension>         </extensions>       </trkpt>
       <trkpt lat="45.5801696889102458953857421875" lon="14.4222537986934185028076171875">         <ele>1388.199951171875</ele>         <time>2026-02-28T09:50:47.000Z</time>         <extensions>           <ns3:TrackPointExtension>             <ns3:hr>113</ns3:hr>           </ns3:TrackPointExtension>         </extensions>       </trkpt>
       <trkpt lat="45.58018469251692295074462890625" lon="14.4222668744623661041259765625">         <ele>1388.4000244140625</ele>         <time>2026-02-28T09:50:49.000Z</time>         <extensions>           <ns3:TrackPointExtension>             <ns3:hr>113</ns3:hr>           </ns3:TrackPointExtension>         </extensions>       </trkpt>
       <trkpt lat="45.5802256800234317779541015625" lon="14.42230434156954288482666015625">         <ele>1388.800048828125</ele>         <time>2026-02-28T09:50:54.000Z</time>         <extensions>           <ns3:TrackPointExtension>             <ns3:hr>112</ns3:hr>           </ns3:TrackPointExtension>         </extensions>       </trkpt>
       <trkpt lat="45.58023448102176189422607421875" lon="14.42231104709208011627197265625">         <ele>1389</ele>         <time>2026-02-28T09:50:55.000Z</time>         <extensions>           <ns3:TrackPointExtension>             <ns3:hr>112</ns3:hr>           </ns3:TrackPointExtension>         </extensions>       </trkpt>
       <trkpt lat="45.5802732892334461212158203125" lon="14.42233367823064327239990234375">         <ele>1389.199951171875</ele>         <time>2026-02-28T09:50:59.000Z</time>         <extensions>           <ns3:TrackPointExtension>             <ns3:hr>110</ns3:hr>           </ns3:TrackPointExtension>         </extensions>       </trkpt>
       <trkpt lat="45.580333136022090911865234375" lon="14.4224083609879016876220703125">         <ele>1389.800048828125</ele>         <time>2026-02-28T09:51:06.000Z</time>         <extensions>           <ns3:TrackPointExtension>             <ns3:hr>110</ns3:hr>           </ns3:TrackPointExtension>         </extensions>       </trkpt>
       <trkpt lat="45.58035652153193950653076171875" lon="14.42243945784866809844970703125">         <ele>1390</ele>         <time>2026-02-28T09:51:09.000Z</time>         <extensions>           <ns3:TrackPointExtension>             <ns3:hr>110</ns3:hr>           </ns3:TrackPointExtension>         </extensions>       </trkpt>
       <trkpt lat="45.5803775601089000701904296875" lon="14.4224750809371471405029296875">         <ele>1390.199951171875</ele>         <time>2026-02-28T09:51:12.000Z</time>         <extensions>           <ns3:TrackPointExtension>             <ns3:hr>108</ns3:hr>           </ns3:TrackPointExtension>         </extensions>       </trkpt>
       <trkpt lat="45.5803899653255939483642578125" lon="14.4224945269525051116943359375">         <ele>1390.4000244140625</ele>         <time>2026-02-28T09:51:14.000Z</time>         <extensions>           <ns3:TrackPointExtension>             <ns3:hr>105</ns3:hr>           </ns3:TrackPointExtension>         </extensions>       </trkpt>
       <trkpt lat="45.58040815405547618865966796875" lon="14.4225206784904003143310546875">         <ele>1390.5999755859375</ele>         <time>2026-02-28T09:51:18.000Z</time>         <extensions>           <ns3:TrackPointExtension>             <ns3:hr>103</ns3:hr>           </ns3:TrackPointExtension>         </extensions>       </trkpt>
       <trkpt lat="45.5804409272968769073486328125" lon="14.42258228547871112823486328125">         <ele>1391</ele>         <time>2026-02-28T09:51:24.000Z</time>         <extensions>           <ns3:TrackPointExtension>             <ns3:hr>103</ns3:hr>           </ns3:TrackPointExtension>         </extensions>       </trkpt>
       <trkpt lat="45.58046079240739345550537109375" lon="14.42262201569974422454833984375">         <ele>1391.4000244140625</ele>         <time>2026-02-28T09:51:28.000Z</time>         <extensions>           <ns3:TrackPointExtension>             <ns3:hr>106</ns3:hr>           </ns3:TrackPointExtension>         </extensions>       </trkpt>
       <trkpt lat="45.580475293099880218505859375" lon="14.4226484186947345733642578125">         <ele>1391.4000244140625</ele>         <time>2026-02-28T09:51:30.000Z</time>         <extensions>           <ns3:TrackPointExtension>             <ns3:hr>107</ns3:hr>           </ns3:TrackPointExtension>         </extensions>       </trkpt>
       <trkpt lat="45.5805197171866893768310546875" lon="14.4226977042853832244873046875">         <ele>1392</ele>         <time>2026-02-28T09:51:37.000Z</time>         <extensions>           <ns3:TrackPointExtension>             <ns3:hr>107</ns3:hr>           </ns3:TrackPointExtension>         </extensions>       </trkpt>
       <trkpt lat="45.58053840883076190948486328125" lon="14.42273383028805255889892578125">         <ele>1392.4000244140625</ele>         <time>2026-02-28T09:51:42.000Z</time>         <extensions>           <ns3:TrackPointExtension>             <ns3:hr>110</ns3:hr>           </ns3:TrackPointExtension>         </extensions>       </trkpt>
       <trkpt lat="45.58054310269653797149658203125" lon="14.422741793096065521240234375">         <ele>1392.5999755859375</ele>         <time>2026-02-28T09:51:44.000Z</time>         <extensions>           <ns3:TrackPointExtension>             <ns3:hr>111</ns3:hr>           </ns3:TrackPointExtension>         </extensions>       </trkpt>
       <trkpt lat="45.58057310990989208221435546875" lon="14.4227917492389678955078125">         <ele>1393</ele>         <time>2026-02-28T09:51:50.000Z</time>         <extensions>           <ns3:TrackPointExtension>             <ns3:hr>114</ns3:hr>           </ns3:TrackPointExtension>         </extensions>       </trkpt>
       <trkpt lat="45.580595321953296661376953125" lon="14.42283391021192073822021484375">         <ele>1393.5999755859375</ele>         <time>2026-02-28T09:51:56.000Z</time>         <extensions>           <ns3:TrackPointExtension>             <ns3:hr>115</ns3:hr>           </ns3:TrackPointExtension>         </extensions>       </trkpt>
       <trkpt lat="45.58061887510120868682861328125" lon="14.42285570316016674041748046875">         <ele>1394</ele>         <time>2026-02-28T09:52:02.000Z</time>         <extensions>           <ns3:TrackPointExtension>             <ns3:hr>113</ns3:hr>           </ns3:TrackPointExtension>         </extensions>       </trkpt>
       <trkpt lat="45.5806244909763336181640625" lon="14.42286509089171886444091796875">         <ele>1394</ele>         <time>2026-02-28T09:52:04.000Z</time>         <extensions>           <ns3:TrackPointExtension>             <ns3:hr>113</ns3:hr>           </ns3:TrackPointExtension>         </extensions>       </trkpt>
       <trkpt lat="45.58063211850821971893310546875" lon="14.42286944948136806488037109375">         <ele>1394.4000244140625</ele>         <time>2026-02-28T09:52:07.000Z</time>         <extensions>           <ns3:TrackPointExtension>             <ns3:hr>114</ns3:hr>           </ns3:TrackPointExtension>         </extensions>       </trkpt>
       <trkpt lat="45.580648966133594512939453125" lon="14.4228911586105823516845703125">         <ele>1394.4000244140625</ele>         <time>2026-02-28T09:52:11.000Z</time>         <extensions>           <ns3:TrackPointExtension>             <ns3:hr>115</ns3:hr>           </ns3:TrackPointExtension>         </extensions>       </trkpt>
       <trkpt lat="45.5806846730411052703857421875" lon="14.42292795516550540924072265625">         <ele>1395</ele>         <time>2026-02-28T09:52:17.000Z</time>         <extensions>           <ns3:TrackPointExtension>             <ns3:hr>116</ns3:hr>           </ns3:TrackPointExtension>         </extensions>       </trkpt>
       <trkpt lat="45.58070135302841663360595703125" lon="14.4229421205818653106689453125">         <ele>1395.199951171875</ele>         <time>2026-02-28T09:52:20.000Z</time>         <extensions>           <ns3:TrackPointExtension>             <ns3:hr>116</ns3:hr>           </ns3:TrackPointExtension>         </extensions>       </trkpt>
       <trkpt lat="45.5807289294898509979248046875" lon="14.42296835593879222869873046875">         <ele>1395.4000244140625</ele>         <time>2026-02-28T09:52:24.000Z</time>         <extensions>           <ns3:TrackPointExtension>             <ns3:hr>117</ns3:hr>           </ns3:TrackPointExtension>         </extensions>       </trkpt>
       <trkpt lat="45.58075332082808017730712890625" lon="14.42301043309271335601806640625">         <ele>1395.800048828125</ele>         <time>2026-02-28T09:52:29.000Z</time>         <extensions>           <ns3:TrackPointExtension>             <ns3:hr>117</ns3:hr>           </ns3:TrackPointExtension>         </extensions>       </trkpt>
       <trkpt lat="45.58076597750186920166015625" lon="14.4230624847114086151123046875">         <ele>1396</ele>         <time>2026-02-28T09:52:34.000Z</time>         <extensions>           <ns3:TrackPointExtension>             <ns3:hr>113</ns3:hr>           </ns3:TrackPointExtension>         </extensions>       </trkpt>
       <trkpt lat="45.580769665539264678955078125" lon="14.42306843586266040802001953125">         <ele>1396.199951171875</ele>         <time>2026-02-28T09:52:35.000Z</time>         <extensions>           <ns3:TrackPointExtension>             <ns3:hr>113</ns3:hr>           </ns3:TrackPointExtension>         </extensions>       </trkpt>
       <trkpt lat="45.58078131638467311859130859375" lon="14.42309341393411159515380859375">         <ele>1396.4000244140625</ele>         <time>2026-02-28T09:52:38.000Z</time>         <extensions>           <ns3:TrackPointExtension>             <ns3:hr>110</ns3:hr>           </ns3:TrackPointExtension>         </extensions>       </trkpt>
       <trkpt lat="45.58081467635929584503173828125" lon="14.42314915359020233154296875">         <ele>1396.800048828125</ele>         <time>2026-02-28T09:52:42.000Z</time>         <extensions>           <ns3:TrackPointExtension>             <ns3:hr>109</ns3:hr>           </ns3:TrackPointExtension>         </extensions>       </trkpt>
       <trkpt lat="45.58083747513592243194580078125" lon="14.42320145666599273681640625">         <ele>1397.199951171875</ele>         <time>2026-02-28T09:52:46.000Z</time>         <extensions>           <ns3:TrackPointExtension>             <ns3:hr>107</ns3:hr>           </ns3:TrackPointExtension>         </extensions>       </trkpt>
       <trkpt lat="45.58083848096430301666259765625" lon="14.42320673726499080657958984375">         <ele>1397.199951171875</ele>         <time>2026-02-28T09:52:47.000Z</time>         <extensions>           <ns3:TrackPointExtension>             <ns3:hr>107</ns3:hr>           </ns3:TrackPointExtension>         </extensions>       </trkpt>
       <trkpt lat="45.58086387813091278076171875" lon="14.4232468865811824798583984375">         <ele>1397.800048828125</ele>         <time>2026-02-28T09:52:53.000Z</time>         <extensions>           <ns3:TrackPointExtension>             <ns3:hr>106</ns3:hr>           </ns3:TrackPointExtension>         </extensions>       </trkpt>
       <trkpt lat="45.58088491670787334442138671875" lon="14.42327412776648998260498046875">         <ele>1398.199951171875</ele>         <time>2026-02-28T09:52:57.000Z</time>         <extensions>           <ns3:TrackPointExtension>             <ns3:hr>107</ns3:hr>           </ns3:TrackPointExtension>         </extensions>       </trkpt>
       <trkpt lat="45.58092213235795497894287109375" lon="14.42330631427466869354248046875">         <ele>1398.800048828125</ele>         <time>2026-02-28T09:53:03.000Z</time>         <extensions>           <ns3:TrackPointExtension>             <ns3:hr>106</ns3:hr>           </ns3:TrackPointExtension>         </extensions>       </trkpt>
       <trkpt lat="45.5809595994651317596435546875" lon="14.42333682440221309661865234375">         <ele>1399.199951171875</ele>         <time>2026-02-28T09:53:10.000Z</time>         <extensions>           <ns3:TrackPointExtension>             <ns3:hr>107</ns3:hr>           </ns3:TrackPointExtension>         </extensions>       </trkpt>
       <trkpt lat="45.5809663049876689910888671875" lon="14.4233467988669872283935546875">         <ele>1399.4000244140625</ele>         <time>2026-02-28T09:53:11.000Z</time>         <extensions>           <ns3:TrackPointExtension>             <ns3:hr>110</ns3:hr>           </ns3:TrackPointExtension>         </extensions>       </trkpt>
       <trkpt lat="45.58098851703107357025146484375" lon="14.42337219603359699249267578125">         <ele>1399.800048828125</ele>         <time>2026-02-28T09:53:15.000Z</time>         <extensions>           <ns3:TrackPointExtension>             <ns3:hr>111</ns3:hr>           </ns3:TrackPointExtension>         </extensions>       </trkpt>
       <trkpt lat="45.5810263194143772125244140625" lon="14.42343019880354404449462890625">         <ele>1400.199951171875</ele>         <time>2026-02-28T09:53:21.000Z</time>         <extensions>           <ns3:TrackPointExtension>             <ns3:hr>112</ns3:hr>           </ns3:TrackPointExtension>         </extensions>       </trkpt>
       <trkpt lat="45.58103377930819988250732421875" lon="14.4234376586973667144775390625">         <ele>1400.4000244140625</ele>         <time>2026-02-28T09:53:22.000Z</time>         <extensions>           <ns3:TrackPointExtension>             <ns3:hr>110</ns3:hr>           </ns3:TrackPointExtension>         </extensions>       </trkpt>
       <trkpt lat="45.5810554884374141693115234375" lon="14.42346137948334217071533203125">         <ele>1400.800048828125</ele>         <time>2026-02-28T09:53:27.000Z</time>         <extensions>           <ns3:TrackPointExtension>             <ns3:hr>109</ns3:hr>           </ns3:TrackPointExtension>         </extensions>       </trkpt>
       <trkpt lat="45.58107920922338962554931640625" lon="14.42349825985729694366455078125">         <ele>1401.4000244140625</ele>         <time>2026-02-28T09:53:32.000Z</time>         <extensions>           <ns3:TrackPointExtension>             <ns3:hr>107</ns3:hr>           </ns3:TrackPointExtension>         </extensions>       </trkpt>
       <trkpt lat="45.58110083453357219696044921875" lon="14.42352977581322193145751953125">         <ele>1401.5999755859375</ele>         <time>2026-02-28T09:53:36.000Z</time>         <extensions>           <ns3:TrackPointExtension>             <ns3:hr>106</ns3:hr>           </ns3:TrackPointExtension>         </extensions>       </trkpt>
       <trkpt lat="45.58111064136028289794921875" lon="14.4235496409237384796142578125">         <ele>1401.800048828125</ele>         <time>2026-02-28T09:53:38.000Z</time>         <extensions>           <ns3:TrackPointExtension>             <ns3:hr>109</ns3:hr>           </ns3:TrackPointExtension>         </extensions>       </trkpt>
       <trkpt lat="45.58112162165343761444091796875" lon="14.42356481216847896575927734375">         <ele>1402</ele>         <time>2026-02-28T09:53:41.000Z</time>         <extensions>           <ns3:TrackPointExtension>             <ns3:hr>111</ns3:hr>           </ns3:TrackPointExtension>         </extensions>       </trkpt>
       <trkpt lat="45.581153891980648040771484375" lon="14.4236146844923496246337890625">         <ele>1402.4000244140625</ele>         <time>2026-02-28T09:53:46.000Z</time>         <extensions>           <ns3:TrackPointExtension>             <ns3:hr>114</ns3:hr>           </ns3:TrackPointExtension>         </extensions>       </trkpt>
       <trkpt lat="45.5811627767980098724365234375" lon="14.423621557652950286865234375">         <ele>1402.5999755859375</ele>         <time>2026-02-28T09:53:47.000Z</time>         <extensions>           <ns3:TrackPointExtension>             <ns3:hr>114</ns3:hr>           </ns3:TrackPointExtension>         </extensions>       </trkpt>
       <trkpt lat="45.5811865814030170440673828125" lon="14.42364226095378398895263671875">         <ele>1402.800048828125</ele>         <time>2026-02-28T09:53:51.000Z</time>         <extensions>           <ns3:TrackPointExtension>             <ns3:hr>117</ns3:hr>           </ns3:TrackPointExtension>         </extensions>       </trkpt>
       <trkpt lat="45.58119454421103000640869140625" lon="14.423652403056621551513671875">         <ele>1402.800048828125</ele>         <time>2026-02-28T09:53:52.000Z</time>         <extensions>           <ns3:TrackPointExtension>             <ns3:hr>117</ns3:hr>           </ns3:TrackPointExtension>         </extensions>       </trkpt>
       <trkpt lat="45.58120996691286563873291015625" lon="14.42368718795478343963623046875">         <ele>1403.199951171875</ele>         <time>2026-02-28T09:53:56.000Z</time>         <extensions>           <ns3:TrackPointExtension>             <ns3:hr>114</ns3:hr>           </ns3:TrackPointExtension>         </extensions>       </trkpt>
       <trkpt lat="45.5812154151499271392822265625" lon="14.42369632422924041748046875">         <ele>1403.199951171875</ele>         <time>2026-02-28T09:53:57.000Z</time>         <extensions>           <ns3:TrackPointExtension>             <ns3:hr>113</ns3:hr>           </ns3:TrackPointExtension>         </extensions>       </trkpt>
       <trkpt lat="45.58122807182371616363525390625" lon="14.42372071556746959686279296875">         <ele>1403.5999755859375</ele>         <time>2026-02-28T09:54:00.000Z</time>         <extensions>           <ns3:TrackPointExtension>             <ns3:hr>113</ns3:hr>           </ns3:TrackPointExtension>         </extensions>       </trkpt>
       <trkpt lat="45.58123980648815631866455078125" lon="14.4237377308309078216552734375">         <ele>1403.800048828125</ele>         <time>2026-02-28T09:54:02.000Z</time>         <extensions>           <ns3:TrackPointExtension>             <ns3:hr>114</ns3:hr>           </ns3:TrackPointExtension>         </extensions>       </trkpt>
       <trkpt lat="45.581261850893497467041015625" lon="14.4237613677978515625">         <ele>1404.199951171875</ele>         <time>2026-02-28T09:54:06.000Z</time>         <extensions>           <ns3:TrackPointExtension>             <ns3:hr>111</ns3:hr>           </ns3:TrackPointExtension>         </extensions>       </trkpt>
       <trkpt lat="45.58126813732087612152099609375" lon="14.4237689115107059478759765625">         <ele>1404.199951171875</ele>         <time>2026-02-28T09:54:07.000Z</time>         <extensions>           <ns3:TrackPointExtension>             <ns3:hr>110</ns3:hr>           </ns3:TrackPointExtension>         </extensions>       </trkpt>
       <trkpt lat="45.5812921933829784393310546875" lon="14.4238017685711383819580078125">         <ele>1404.4000244140625</ele>         <time>2026-02-28T09:54:12.000Z</time>         <extensions>           <ns3:TrackPointExtension>             <ns3:hr>110</ns3:hr>           </ns3:TrackPointExtension>         </extensions>       </trkpt>
       <trkpt lat="45.58130334131419658660888671875" lon="14.42382548935711383819580078125">         <ele>1404.5999755859375</ele>         <time>2026-02-28T09:54:14.000Z</time>         <extensions>           <ns3:TrackPointExtension>             <ns3:hr>110</ns3:hr>           </ns3:TrackPointExtension>         </extensions>       </trkpt>
       <trkpt lat="45.581307113170623779296875" lon="14.42383403889834880828857421875">         <ele>1404.800048828125</ele>         <time>2026-02-28T09:54:16.000Z</time>         <extensions>           <ns3:TrackPointExtension>             <ns3:hr>109</ns3:hr>           </ns3:TrackPointExtension>         </extensions>       </trkpt>
       <trkpt lat="45.58132044039666652679443359375" lon="14.4238705001771450042724609375">         <ele>1405.4000244140625</ele>         <time>2026-02-28T09:54:21.000Z</time>         <extensions>           <ns3:TrackPointExtension>             <ns3:hr>111</ns3:hr>           </ns3:TrackPointExtension>         </extensions>       </trkpt>
       <trkpt lat="45.581337623298168182373046875" lon="14.4238939695060253143310546875">         <ele>1405.4000244140625</ele>         <time>2026-02-28T09:54:24.000Z</time>         <extensions>           <ns3:TrackPointExtension>             <ns3:hr>114</ns3:hr>           </ns3:TrackPointExtension>         </extensions>       </trkpt>
       <trkpt lat="45.58135782368481159210205078125" lon="14.4239223003387451171875">         <ele>1405.800048828125</ele>         <time>2026-02-28T09:54:27.000Z</time>         <extensions>           <ns3:TrackPointExtension>             <ns3:hr>116</ns3:hr>           </ns3:TrackPointExtension>         </extensions>       </trkpt>
       <trkpt lat="45.5813693068921566009521484375" lon="14.423960186541080474853515625">         <ele>1406.199951171875</ele>         <time>2026-02-28T09:54:32.000Z</time>         <extensions>           <ns3:TrackPointExtension>             <ns3:hr>113</ns3:hr>           </ns3:TrackPointExtension>         </extensions>       </trkpt>
       <trkpt lat="45.58137425221502780914306640625" lon="14.4239754416048526763916015625">         <ele>1406.4000244140625</ele>         <time>2026-02-28T09:54:34.000Z</time>         <extensions>           <ns3:TrackPointExtension>             <ns3:hr>111</ns3:hr>           </ns3:TrackPointExtension>         </extensions>       </trkpt>
       <trkpt lat="45.581385903060436248779296875" lon="14.424006454646587371826171875">         <ele>1406.800048828125</ele>         <time>2026-02-28T09:54:37.000Z</time>         <extensions>           <ns3:TrackPointExtension>             <ns3:hr>111</ns3:hr>           </ns3:TrackPointExtension>         </extensions>       </trkpt>
       <trkpt lat="45.58138766326010227203369140625" lon="14.42402749322354793548583984375">         <ele>1407.199951171875</ele>         <time>2026-02-28T09:54:40.000Z</time>         <extensions>           <ns3:TrackPointExtension>             <ns3:hr>111</ns3:hr>           </ns3:TrackPointExtension>         </extensions>       </trkpt>
       <trkpt lat="45.58140459470450878143310546875" lon="14.4240711629390716552734375">         <ele>1407.5999755859375</ele>         <time>2026-02-28T09:54:45.000Z</time>         <extensions>           <ns3:TrackPointExtension>             <ns3:hr>114</ns3:hr>           </ns3:TrackPointExtension>         </extensions>       </trkpt>
       <trkpt lat="45.58141364715993404388427734375" lon="14.42410259507596492767333984375">         <ele>1407.800048828125</ele>         <time>2026-02-28T09:54:48.000Z</time>         <extensions>           <ns3:TrackPointExtension>             <ns3:hr>117</ns3:hr>           </ns3:TrackPointExtension>         </extensions>       </trkpt>
       <trkpt lat="45.581416748464107513427734375" lon="14.4241140782833099365234375">         <ele>1408</ele>         <time>2026-02-28T09:54:49.000Z</time>         <extensions>           <ns3:TrackPointExtension>             <ns3:hr>117</ns3:hr>           </ns3:TrackPointExtension>         </extensions>       </trkpt>
       <trkpt lat="45.58143024332821369171142578125" lon="14.42414416931569576263427734375">         <ele>1408.4000244140625</ele>         <time>2026-02-28T09:54:53.000Z</time>         <extensions>           <ns3:TrackPointExtension>             <ns3:hr>114</ns3:hr>           </ns3:TrackPointExtension>         </extensions>       </trkpt>
       <trkpt lat="45.58144097216427326202392578125" lon="14.42416529171168804168701171875">         <ele>1408.5999755859375</ele>         <time>2026-02-28T09:54:55.000Z</time>         <extensions>           <ns3:TrackPointExtension>             <ns3:hr>111</ns3:hr>           </ns3:TrackPointExtension>         </extensions>       </trkpt>
       <trkpt lat="45.58144499547779560089111328125" lon="14.42417534999549388885498046875">         <ele>1408.800048828125</ele>         <time>2026-02-28T09:54:57.000Z</time>         <extensions>           <ns3:TrackPointExtension>             <ns3:hr>108</ns3:hr>           </ns3:TrackPointExtension>         </extensions>       </trkpt>
       <trkpt lat="45.58144717477262020111083984375" lon="14.42418448626995086669921875">         <ele>1408.800048828125</ele>         <time>2026-02-28T09:54:58.000Z</time>         <extensions>           <ns3:TrackPointExtension>             <ns3:hr>107</ns3:hr>           </ns3:TrackPointExtension>         </extensions>       </trkpt>
       <trkpt lat="45.58146310038864612579345703125" lon="14.42421642132103443145751953125">         <ele>1409.199951171875</ele>         <time>2026-02-28T09:55:02.000Z</time>         <extensions>           <ns3:TrackPointExtension>             <ns3:hr>105</ns3:hr>           </ns3:TrackPointExtension>         </extensions>       </trkpt>
       <trkpt lat="45.58148539625108242034912109375" lon="14.42426436580717563629150390625">         <ele>1409.800048828125</ele>         <time>2026-02-28T09:55:08.000Z</time>         <extensions>           <ns3:TrackPointExtension>             <ns3:hr>103</ns3:hr>           </ns3:TrackPointExtension>         </extensions>       </trkpt>
       <trkpt lat="45.58148824609816074371337890625" lon="14.4242822192609310150146484375">         <ele>1410</ele>         <time>2026-02-28T09:55:10.000Z</time>         <extensions>           <ns3:TrackPointExtension>             <ns3:hr>103</ns3:hr>           </ns3:TrackPointExtension>         </extensions>       </trkpt>
       <trkpt lat="45.5815010704100131988525390625" lon="14.42430141381919384002685546875">         <ele>1410.199951171875</ele>         <time>2026-02-28T09:55:13.000Z</time>         <extensions>           <ns3:TrackPointExtension>             <ns3:hr>104</ns3:hr>           </ns3:TrackPointExtension>         </extensions>       </trkpt>
       <trkpt lat="45.58150769211351871490478515625" lon="14.4243177585303783416748046875">         <ele>1410.4000244140625</ele>         <time>2026-02-28T09:55:15.000Z</time>         <extensions>           <ns3:TrackPointExtension>             <ns3:hr>107</ns3:hr>           </ns3:TrackPointExtension>         </extensions>       </trkpt>
       <trkpt lat="45.58152026496827602386474609375" lon="14.42433930002152919769287109375">         <ele>1410.5999755859375</ele>         <time>2026-02-28T09:55:18.000Z</time>         <extensions>           <ns3:TrackPointExtension>             <ns3:hr>109</ns3:hr>           </ns3:TrackPointExtension>         </extensions>       </trkpt>
       <trkpt lat="45.581532418727874755859375" lon="14.4243710674345493316650390625">         <ele>1411</ele>         <time>2026-02-28T09:55:21.000Z</time>         <extensions>           <ns3:TrackPointExtension>             <ns3:hr>112</ns3:hr>           </ns3:TrackPointExtension>         </extensions>       </trkpt>
       <trkpt lat="45.58153845369815826416015625" lon="14.42439093254506587982177734375">         <ele>1411.199951171875</ele>         <time>2026-02-28T09:55:23.000Z</time>         <extensions>           <ns3:TrackPointExtension>             <ns3:hr>115</ns3:hr>           </ns3:TrackPointExtension>         </extensions>       </trkpt>
       <trkpt lat="45.5815470032393932342529296875" lon="14.424411468207836151123046875">         <ele>1411.199951171875</ele>         <time>2026-02-28T09:55:25.000Z</time>         <extensions>           <ns3:TrackPointExtension>             <ns3:hr>117</ns3:hr>           </ns3:TrackPointExtension>         </extensions>       </trkpt>
       <trkpt lat="45.58156552724540233612060546875" lon="14.42447223700582981109619140625">         <ele>1412</ele>         <time>2026-02-28T09:55:32.000Z</time>         <extensions>           <ns3:TrackPointExtension>             <ns3:hr>117</ns3:hr>           </ns3:TrackPointExtension>         </extensions>       </trkpt>
       <trkpt lat="45.58157265186309814453125" lon="14.42448883317410945892333984375">         <ele>1412</ele>         <time>2026-02-28T09:55:34.000Z</time>         <extensions>           <ns3:TrackPointExtension>             <ns3:hr>114</ns3:hr>           </ns3:TrackPointExtension>         </extensions>       </trkpt>
       <trkpt lat="45.581583045423030853271484375" lon="14.4245108775794506072998046875">         <ele>1412.4000244140625</ele>         <time>2026-02-28T09:55:37.000Z</time>         <extensions>           <ns3:TrackPointExtension>             <ns3:hr>110</ns3:hr>           </ns3:TrackPointExtension>         </extensions>       </trkpt>
       <trkpt lat="45.58160207234323024749755859375" lon="14.4245444051921367645263671875">         <ele>1412.800048828125</ele>         <time>2026-02-28T09:55:41.000Z</time>         <extensions>           <ns3:TrackPointExtension>             <ns3:hr>108</ns3:hr>           </ns3:TrackPointExtension>         </extensions>       </trkpt>
       <trkpt lat="45.58161414228379726409912109375" lon="14.4245802797377109527587890625">         <ele>1413</ele>         <time>2026-02-28T09:55:44.000Z</time>         <extensions>           <ns3:TrackPointExtension>             <ns3:hr>108</ns3:hr>           </ns3:TrackPointExtension>         </extensions>       </trkpt>
       <trkpt lat="45.58162688277661800384521484375" lon="14.42461774684488773345947265625">         <ele>1413.5999755859375</ele>         <time>2026-02-28T09:55:50.000Z</time>         <extensions>           <ns3:TrackPointExtension>             <ns3:hr>107</ns3:hr>           </ns3:TrackPointExtension>         </extensions>       </trkpt>
       <trkpt lat="45.581650435924530029296875" lon="14.42467021755874156951904296875">         <ele>1414.199951171875</ele>         <time>2026-02-28T09:55:56.000Z</time>         <extensions>           <ns3:TrackPointExtension>             <ns3:hr>106</ns3:hr>           </ns3:TrackPointExtension>         </extensions>       </trkpt>
       <trkpt lat="45.58166527189314365386962890625" lon="14.42470014095306396484375">         <ele>1414.4000244140625</ele>         <time>2026-02-28T09:56:00.000Z</time>         <extensions>           <ns3:TrackPointExtension>             <ns3:hr>103</ns3:hr>           </ns3:TrackPointExtension>         </extensions>       </trkpt>
       <trkpt lat="45.581698715686798095703125" lon="14.424754790961742401123046875">         <ele>1414.800048828125</ele>         <time>2026-02-28T09:56:06.000Z</time>         <extensions>           <ns3:TrackPointExtension>             <ns3:hr>103</ns3:hr>           </ns3:TrackPointExtension>         </extensions>       </trkpt>
       <trkpt lat="45.58171053417026996612548828125" lon="14.42477650009095668792724609375">         <ele>1415.199951171875</ele>         <time>2026-02-28T09:56:09.000Z</time>         <extensions>           <ns3:TrackPointExtension>             <ns3:hr>105</ns3:hr>           </ns3:TrackPointExtension>         </extensions>       </trkpt>
       <trkpt lat="45.5817163176834583282470703125" lon="14.4247904978692531585693359375">         <ele>1415.199951171875</ele>         <time>2026-02-28T09:56:11.000Z</time>         <extensions>           <ns3:TrackPointExtension>             <ns3:hr>106</ns3:hr>           </ns3:TrackPointExtension>         </extensions>       </trkpt>
       <trkpt lat="45.5817374400794506072998046875" lon="14.42483919672667980194091796875">         <ele>1416</ele>         <time>2026-02-28T09:56:17.000Z</time>         <extensions>           <ns3:TrackPointExtension>             <ns3:hr>107</ns3:hr>           </ns3:TrackPointExtension>         </extensions>       </trkpt>
       <trkpt lat="45.5817485041916370391845703125" lon="14.42487155087292194366455078125">         <ele>1416.199951171875</ele>         <time>2026-02-28T09:56:20.000Z</time>         <extensions>           <ns3:TrackPointExtension>             <ns3:hr>110</ns3:hr>           </ns3:TrackPointExtension>         </extensions>       </trkpt>
       <trkpt lat="45.58176233433187007904052734375" lon="14.42489719949662685394287109375">         <ele>1416.4000244140625</ele>         <time>2026-02-28T09:56:24.000Z</time>         <extensions>           <ns3:TrackPointExtension>             <ns3:hr>112</ns3:hr>           </ns3:TrackPointExtension>         </extensions>       </trkpt>
       <trkpt lat="45.58178110979497432708740234375" lon="14.4249497540295124053955078125">         <ele>1417.199951171875</ele>         <time>2026-02-28T09:56:30.000Z</time>         <extensions>           <ns3:TrackPointExtension>             <ns3:hr>111</ns3:hr>           </ns3:TrackPointExtension>         </extensions>       </trkpt>
       <trkpt lat="45.58178429491817951202392578125" lon="14.424959309399127960205078125">         <ele>1417.199951171875</ele>         <time>2026-02-28T09:56:31.000Z</time>         <extensions>           <ns3:TrackPointExtension>             <ns3:hr>111</ns3:hr>           </ns3:TrackPointExtension>         </extensions>       </trkpt>
       <trkpt lat="45.58179066516458988189697265625" lon="14.42501387558877468109130859375">         <ele>1417.800048828125</ele>         <time>2026-02-28T09:56:37.000Z</time>         <extensions>           <ns3:TrackPointExtension>             <ns3:hr>110</ns3:hr>           </ns3:TrackPointExtension>         </extensions>       </trkpt>
       <trkpt lat="45.58179133571684360504150390625" lon="14.42504740320146083831787109375">         <ele>1418.199951171875</ele>         <time>2026-02-28T09:56:41.000Z</time>         <extensions>           <ns3:TrackPointExtension>             <ns3:hr>108</ns3:hr>           </ns3:TrackPointExtension>         </extensions>       </trkpt>
       <trkpt lat="45.58179326355457305908203125" lon="14.42507657222449779510498046875">         <ele>1418.4000244140625</ele>         <time>2026-02-28T09:56:44.000Z</time>         <extensions>           <ns3:TrackPointExtension>             <ns3:hr>105</ns3:hr>           </ns3:TrackPointExtension>         </extensions>       </trkpt>
       <trkpt lat="45.5817920900881290435791015625" lon="14.4251237623393535614013671875">         <ele>1418.800048828125</ele>         <time>2026-02-28T09:56:49.000Z</time>         <extensions>           <ns3:TrackPointExtension>             <ns3:hr>104</ns3:hr>           </ns3:TrackPointExtension>         </extensions>       </trkpt>
       <trkpt lat="45.5817977897822856903076171875" lon="14.4251764006912708282470703125">         <ele>1419.4000244140625</ele>         <time>2026-02-28T09:56:55.000Z</time>         <extensions>           <ns3:TrackPointExtension>             <ns3:hr>107</ns3:hr>           </ns3:TrackPointExtension>         </extensions>       </trkpt>
       <trkpt lat="45.5818021483719348907470703125" lon="14.4252323918044567108154296875">         <ele>1419.800048828125</ele>         <time>2026-02-28T09:57:01.000Z</time>         <extensions>           <ns3:TrackPointExtension>             <ns3:hr>109</ns3:hr>           </ns3:TrackPointExtension>         </extensions>       </trkpt>
       <trkpt lat="45.5818140506744384765625" lon="14.4252781569957733154296875">         <ele>1420.4000244140625</ele>         <time>2026-02-28T09:57:08.000Z</time>         <extensions>           <ns3:TrackPointExtension>             <ns3:hr>111</ns3:hr>           </ns3:TrackPointExtension>         </extensions>       </trkpt>
       <trkpt lat="45.581816732883453369140625" lon="14.42529064603149890899658203125">         <ele>1420.5999755859375</ele>         <time>2026-02-28T09:57:09.000Z</time>         <extensions>           <ns3:TrackPointExtension>             <ns3:hr>111</ns3:hr>           </ns3:TrackPointExtension>         </extensions>       </trkpt>
       <trkpt lat="45.5818259529769420623779296875" lon="14.4253410212695598602294921875">         <ele>1421</ele>         <time>2026-02-28T09:57:14.000Z</time>         <extensions>           <ns3:TrackPointExtension>             <ns3:hr>114</ns3:hr>           </ns3:TrackPointExtension>         </extensions>       </trkpt>
       <trkpt lat="45.5818276293575763702392578125" lon="14.425358287990093231201171875">         <ele>1421.199951171875</ele>         <time>2026-02-28T09:57:16.000Z</time>         <extensions>           <ns3:TrackPointExtension>             <ns3:hr>114</ns3:hr>           </ns3:TrackPointExtension>         </extensions>       </trkpt>
       <trkpt lat="45.58182519860565662384033203125" lon="14.42540463991463184356689453125">         <ele>1421.4000244140625</ele>         <time>2026-02-28T09:57:21.000Z</time>         <extensions>           <ns3:TrackPointExtension>             <ns3:hr>117</ns3:hr>           </ns3:TrackPointExtension>         </extensions>       </trkpt>
       <trkpt lat="45.5818262882530689239501953125" lon="14.42541134543716907501220703125">         <ele>1421.4000244140625</ele>         <time>2026-02-28T09:57:22.000Z</time>         <extensions>           <ns3:TrackPointExtension>             <ns3:hr>117</ns3:hr>           </ns3:TrackPointExtension>         </extensions>       </trkpt>
       <trkpt lat="45.5818276293575763702392578125" lon="14.42542500793933868408203125">         <ele>1421.5999755859375</ele>         <time>2026-02-28T09:57:23.000Z</time>         <extensions>           <ns3:TrackPointExtension>             <ns3:hr>117</ns3:hr>           </ns3:TrackPointExtension>         </extensions>       </trkpt>
       <trkpt lat="45.581837184727191925048828125" lon="14.42547923885285854339599609375">         <ele>1422.199951171875</ele>         <time>2026-02-28T09:57:28.000Z</time>         <extensions>           <ns3:TrackPointExtension>             <ns3:hr>115</ns3:hr>           </ns3:TrackPointExtension>         </extensions>       </trkpt>
       <trkpt lat="45.58183793909847736358642578125" lon="14.4254969246685504913330078125">         <ele>1422.4000244140625</ele>         <time>2026-02-28T09:57:30.000Z</time>         <extensions>           <ns3:TrackPointExtension>             <ns3:hr>112</ns3:hr>           </ns3:TrackPointExtension>         </extensions>       </trkpt>
       <trkpt lat="45.58183894492685794830322265625" lon="14.42551477812230587005615234375">         <ele>1422.5999755859375</ele>         <time>2026-02-28T09:57:32.000Z</time>         <extensions>           <ns3:TrackPointExtension>             <ns3:hr>115</ns3:hr>           </ns3:TrackPointExtension>         </extensions>       </trkpt>
       <trkpt lat="45.5818413756787776947021484375" lon="14.42553020082414150238037109375">         <ele>1422.800048828125</ele>         <time>2026-02-28T09:57:34.000Z</time>         <extensions>           <ns3:TrackPointExtension>             <ns3:hr>118</ns3:hr>           </ns3:TrackPointExtension>         </extensions>       </trkpt>
       <trkpt lat="45.581851266324520111083984375" lon="14.4255827553570270538330078125">         <ele>1423.199951171875</ele>         <time>2026-02-28T09:57:40.000Z</time>         <extensions>           <ns3:TrackPointExtension>             <ns3:hr>115</ns3:hr>           </ns3:TrackPointExtension>         </extensions>       </trkpt>
       <trkpt lat="45.58185956440865993499755859375" lon="14.42562273703515529632568359375">         <ele>1423.5999755859375</ele>         <time>2026-02-28T09:57:44.000Z</time>         <extensions>           <ns3:TrackPointExtension>             <ns3:hr>114</ns3:hr>           </ns3:TrackPointExtension>         </extensions>       </trkpt>
       <trkpt lat="45.58186107315123081207275390625" lon="14.4256390817463397979736328125">         <ele>1423.800048828125</ele>         <time>2026-02-28T09:57:46.000Z</time>         <extensions>           <ns3:TrackPointExtension>             <ns3:hr>115</ns3:hr>           </ns3:TrackPointExtension>         </extensions>       </trkpt>
       <trkpt lat="45.58187146671116352081298828125" lon="14.425692223012447357177734375">         <ele>1424.199951171875</ele>         <time>2026-02-28T09:57:52.000Z</time>         <extensions>           <ns3:TrackPointExtension>             <ns3:hr>112</ns3:hr>           </ns3:TrackPointExtension>         </extensions>       </trkpt>
       <trkpt lat="45.5818851292133331298828125" lon="14.42575215362012386322021484375">         <ele>1424.5999755859375</ele>         <time>2026-02-28T09:57:59.000Z</time>         <extensions>           <ns3:TrackPointExtension>             <ns3:hr>110</ns3:hr>           </ns3:TrackPointExtension>         </extensions>       </trkpt>
       <trkpt lat="45.58190348558127880096435546875" lon="14.4258037023246288299560546875">         <ele>1425.199951171875</ele>         <time>2026-02-28T09:58:05.000Z</time>         <extensions>           <ns3:TrackPointExtension>             <ns3:hr>109</ns3:hr>           </ns3:TrackPointExtension>         </extensions>       </trkpt>
       <trkpt lat="45.58192544616758823394775390625" lon="14.4258777983486652374267578125">         <ele>1425.5999755859375</ele>         <time>2026-02-28T09:58:12.000Z</time>         <extensions>           <ns3:TrackPointExtension>             <ns3:hr>107</ns3:hr>           </ns3:TrackPointExtension>         </extensions>       </trkpt>
       <trkpt lat="45.58192963711917400360107421875" lon="14.4258935563266277313232421875">         <ele>1425.800048828125</ele>         <time>2026-02-28T09:58:14.000Z</time>         <extensions>           <ns3:TrackPointExtension>             <ns3:hr>107</ns3:hr>           </ns3:TrackPointExtension>         </extensions>       </trkpt>
       <trkpt lat="45.58193718083202838897705078125" lon="14.42592347972095012664794921875">         <ele>1426</ele>         <time>2026-02-28T09:58:18.000Z</time>         <extensions>           <ns3:TrackPointExtension>             <ns3:hr>107</ns3:hr>           </ns3:TrackPointExtension>         </extensions>       </trkpt>
       <trkpt lat="45.58194346725940704345703125" lon="14.42594711668789386749267578125">         <ele>1426.199951171875</ele>         <time>2026-02-28T09:58:20.000Z</time>         <extensions>           <ns3:TrackPointExtension>             <ns3:hr>110</ns3:hr>           </ns3:TrackPointExtension>         </extensions>       </trkpt>
       <trkpt lat="45.58195360936224460601806640625" lon="14.4259723462164402008056640625">         <ele>1426.199951171875</ele>         <time>2026-02-28T09:58:23.000Z</time>         <extensions>           <ns3:TrackPointExtension>             <ns3:hr>113</ns3:hr>           </ns3:TrackPointExtension>         </extensions>       </trkpt>
       <trkpt lat="45.58195780031383037567138671875" lon="14.42598802037537097930908203125">         <ele>1426.4000244140625</ele>         <time>2026-02-28T09:58:24.000Z</time>         <extensions>           <ns3:TrackPointExtension>             <ns3:hr>114</ns3:hr>           </ns3:TrackPointExtension>         </extensions>       </trkpt>
       <trkpt lat="45.581972636282444000244140625" lon="14.42602724768221378326416015625">         <ele>1426.800048828125</ele>         <time>2026-02-28T09:58:28.000Z</time>         <extensions>           <ns3:TrackPointExtension>             <ns3:hr>116</ns3:hr>           </ns3:TrackPointExtension>         </extensions>       </trkpt>
       <trkpt lat="45.5819795094430446624755859375" lon="14.42604652605950832366943359375">         <ele>1427</ele>         <time>2026-02-28T09:58:31.000Z</time>         <extensions>           <ns3:TrackPointExtension>             <ns3:hr>116</ns3:hr>           </ns3:TrackPointExtension>         </extensions>       </trkpt>
       <trkpt lat="45.582000799477100372314453125" lon="14.4260947220027446746826171875">         <ele>1427.4000244140625</ele>         <time>2026-02-28T09:58:37.000Z</time>         <extensions>           <ns3:TrackPointExtension>             <ns3:hr>116</ns3:hr>           </ns3:TrackPointExtension>         </extensions>       </trkpt>
       <trkpt lat="45.58202527463436126708984375" lon="14.42613151855766773223876953125">         <ele>1427.800048828125</ele>         <time>2026-02-28T09:58:42.000Z</time>         <extensions>           <ns3:TrackPointExtension>             <ns3:hr>116</ns3:hr>           </ns3:TrackPointExtension>         </extensions>       </trkpt>
       <trkpt lat="45.58203223161399364471435546875" lon="14.426143504679203033447265625">         <ele>1427.800048828125</ele>         <time>2026-02-28T09:58:43.000Z</time>         <extensions>           <ns3:TrackPointExtension>             <ns3:hr>115</ns3:hr>           </ns3:TrackPointExtension>         </extensions>       </trkpt>
       <trkpt lat="45.58205218054354190826416015625" lon="14.42617594264447689056396484375">         <ele>1428.4000244140625</ele>         <time>2026-02-28T09:58:48.000Z</time>         <extensions>           <ns3:TrackPointExtension>             <ns3:hr>115</ns3:hr>           </ns3:TrackPointExtension>         </extensions>       </trkpt>
       <trkpt lat="45.58206039480865001678466796875" lon="14.426206536591053009033203125">         <ele>1428.800048828125</ele>         <time>2026-02-28T09:58:52.000Z</time>         <extensions>           <ns3:TrackPointExtension>             <ns3:hr>115</ns3:hr>           </ns3:TrackPointExtension>         </extensions>       </trkpt>
       <trkpt lat="45.5820686928927898406982421875" lon="14.426225312054157257080078125">         <ele>1429</ele>         <time>2026-02-28T09:58:55.000Z</time>         <extensions>           <ns3:TrackPointExtension>             <ns3:hr>116</ns3:hr>           </ns3:TrackPointExtension>         </extensions>       </trkpt>
       <trkpt lat="45.58209232985973358154296875" lon="14.4262678921222686767578125">         <ele>1429.5999755859375</ele>         <time>2026-02-28T09:59:01.000Z</time>         <extensions>           <ns3:TrackPointExtension>             <ns3:hr>119</ns3:hr>           </ns3:TrackPointExtension>         </extensions>       </trkpt>
       <trkpt lat="45.58209693990647792816162109375" lon="14.426289685070514678955078125">         <ele>1430</ele>         <time>2026-02-28T09:59:04.000Z</time>         <extensions>           <ns3:TrackPointExtension>             <ns3:hr>121</ns3:hr>           </ns3:TrackPointExtension>         </extensions>       </trkpt>
       <trkpt lat="45.58211370371282100677490234375" lon="14.42632488906383514404296875">         <ele>1430.4000244140625</ele>         <time>2026-02-28T09:59:08.000Z</time>         <extensions>           <ns3:TrackPointExtension>             <ns3:hr>120</ns3:hr>           </ns3:TrackPointExtension>         </extensions>       </trkpt>
       <trkpt lat="45.5821260251104831695556640625" lon="14.4263525493443012237548828125">         <ele>1430.5999755859375</ele>         <time>2026-02-28T09:59:11.000Z</time>         <extensions>           <ns3:TrackPointExtension>             <ns3:hr>115</ns3:hr>           </ns3:TrackPointExtension>         </extensions>       </trkpt>
       <trkpt lat="45.58213683776557445526123046875" lon="14.42637492902576923370361328125">         <ele>1430.800048828125</ele>         <time>2026-02-28T09:59:14.000Z</time>         <extensions>           <ns3:TrackPointExtension>             <ns3:hr>113</ns3:hr>           </ns3:TrackPointExtension>         </extensions>       </trkpt>
       <trkpt lat="45.582142286002635955810546875" lon="14.4263857416808605194091796875">         <ele>1431</ele>         <time>2026-02-28T09:59:15.000Z</time>         <extensions>           <ns3:TrackPointExtension>             <ns3:hr>114</ns3:hr>           </ns3:TrackPointExtension>         </extensions>       </trkpt>
       <trkpt lat="45.58215133845806121826171875" lon="14.42640460096299648284912109375">         <ele>1431.199951171875</ele>         <time>2026-02-28T09:59:17.000Z</time>         <extensions>           <ns3:TrackPointExtension>             <ns3:hr>117</ns3:hr>           </ns3:TrackPointExtension>         </extensions>       </trkpt>
       <trkpt lat="45.58215544559061527252197265625" lon="14.4264229573309421539306640625">         <ele>1431.4000244140625</ele>         <time>2026-02-28T09:59:19.000Z</time>         <extensions>           <ns3:TrackPointExtension>             <ns3:hr>121</ns3:hr>           </ns3:TrackPointExtension>         </extensions>       </trkpt>
       <trkpt lat="45.5821587145328521728515625" lon="14.426429159939289093017578125">         <ele>1431.5999755859375</ele>         <time>2026-02-28T09:59:20.000Z</time>         <extensions>           <ns3:TrackPointExtension>             <ns3:hr>117</ns3:hr>           </ns3:TrackPointExtension>         </extensions>       </trkpt>
       <trkpt lat="45.5821756459772586822509765625" lon="14.42645723931491374969482421875">         <ele>1432.199951171875</ele>         <time>2026-02-28T09:59:25.000Z</time>         <extensions>           <ns3:TrackPointExtension>             <ns3:hr>118</ns3:hr>           </ns3:TrackPointExtension>         </extensions>       </trkpt>
       <trkpt lat="45.58218193240463733673095703125" lon="14.4264709018170833587646484375">         <ele>1432.199951171875</ele>         <time>2026-02-28T09:59:26.000Z</time>         <extensions>           <ns3:TrackPointExtension>             <ns3:hr>118</ns3:hr>           </ns3:TrackPointExtension>         </extensions>       </trkpt>
       <trkpt lat="45.582200624048709869384765625" lon="14.42652069032192230224609375">         <ele>1433</ele>         <time>2026-02-28T09:59:32.000Z</time>         <extensions>           <ns3:TrackPointExtension>             <ns3:hr>119</ns3:hr>           </ns3:TrackPointExtension>         </extensions>       </trkpt>
       <trkpt lat="45.58220590464770793914794921875" lon="14.426539130508899688720703125">         <ele>1433.199951171875</ele>         <time>2026-02-28T09:59:35.000Z</time>         <extensions>           <ns3:TrackPointExtension>             <ns3:hr>121</ns3:hr>           </ns3:TrackPointExtension>         </extensions>       </trkpt>
       <trkpt lat="45.58221302926540374755859375" lon="14.4265637733042240142822265625">         <ele>1433.5999755859375</ele>         <time>2026-02-28T09:59:38.000Z</time>         <extensions>           <ns3:TrackPointExtension>             <ns3:hr>121</ns3:hr>           </ns3:TrackPointExtension>         </extensions>       </trkpt>
       <trkpt lat="45.58222166262567043304443359375" lon="14.4265843927860260009765625">         <ele>1433.800048828125</ele>         <time>2026-02-28T09:59:41.000Z</time>         <extensions>           <ns3:TrackPointExtension>             <ns3:hr>117</ns3:hr>           </ns3:TrackPointExtension>         </extensions>       </trkpt>
       <trkpt lat="45.58223641477525234222412109375" lon="14.4266009889543056488037109375">         <ele>1434.199951171875</ele>         <time>2026-02-28T09:59:45.000Z</time>         <extensions>           <ns3:TrackPointExtension>             <ns3:hr>117</ns3:hr>           </ns3:TrackPointExtension>         </extensions>       </trkpt>
       <trkpt lat="45.5822484008967876434326171875" lon="14.42662755958735942840576171875">         <ele>1434.5999755859375</ele>         <time>2026-02-28T09:59:48.000Z</time>         <extensions>           <ns3:TrackPointExtension>             <ns3:hr>120</ns3:hr>           </ns3:TrackPointExtension>         </extensions>       </trkpt>
       <trkpt lat="45.58226759545505046844482421875" lon="14.42666829563677310943603515625">         <ele>1435</ele>         <time>2026-02-28T09:59:53.000Z</time>         <extensions>           <ns3:TrackPointExtension>             <ns3:hr>120</ns3:hr>           </ns3:TrackPointExtension>         </extensions>       </trkpt>
       <trkpt lat="45.58227798901498317718505859375" lon="14.42670517601072788238525390625">         <ele>1435.4000244140625</ele>         <time>2026-02-28T09:59:58.000Z</time>         <extensions>           <ns3:TrackPointExtension>             <ns3:hr>121</ns3:hr>           </ns3:TrackPointExtension>         </extensions>       </trkpt>
       <trkpt lat="45.58229458518326282501220703125" lon="14.4267709739506244659423828125">         <ele>1436.199951171875</ele>         <time>2026-02-28T10:00:06.000Z</time>         <extensions>           <ns3:TrackPointExtension>             <ns3:hr>122</ns3:hr>           </ns3:TrackPointExtension>         </extensions>       </trkpt>
       <trkpt lat="45.58229885995388031005859375" lon="14.4267920963466167449951171875">         <ele>1436.4000244140625</ele>         <time>2026-02-28T10:00:08.000Z</time>         <extensions>           <ns3:TrackPointExtension>             <ns3:hr>121</ns3:hr>           </ns3:TrackPointExtension>         </extensions>       </trkpt>
       <trkpt lat="45.5823104269802570343017578125" lon="14.42683358676731586456298828125">         <ele>1437</ele>         <time>2026-02-28T10:00:13.000Z</time>         <extensions>           <ns3:TrackPointExtension>             <ns3:hr>121</ns3:hr>           </ns3:TrackPointExtension>         </extensions>       </trkpt>
       <trkpt lat="45.58232023380696773529052734375" lon="14.42688681185245513916015625">         <ele>1437.4000244140625</ele>         <time>2026-02-28T10:00:19.000Z</time>         <extensions>           <ns3:TrackPointExtension>             <ns3:hr>122</ns3:hr>           </ns3:TrackPointExtension>         </extensions>       </trkpt>
       <trkpt lat="45.58233775198459625244140625" lon="14.42691623233258724212646484375">         <ele>1437.800048828125</ele>         <time>2026-02-28T10:00:23.000Z</time>         <extensions>           <ns3:TrackPointExtension>             <ns3:hr>123</ns3:hr>           </ns3:TrackPointExtension>         </extensions>       </trkpt>
       <trkpt lat="45.582347474992275238037109375" lon="14.4269674457609653472900390625">         <ele>1438.5999755859375</ele>         <time>2026-02-28T10:00:30.000Z</time>         <extensions>           <ns3:TrackPointExtension>             <ns3:hr>123</ns3:hr>           </ns3:TrackPointExtension>         </extensions>       </trkpt>
       <trkpt lat="45.582353174686431884765625" lon="14.42700910381972789764404296875">         <ele>1439.199951171875</ele>         <time>2026-02-28T10:00:35.000Z</time>         <extensions>           <ns3:TrackPointExtension>             <ns3:hr>122</ns3:hr>           </ns3:TrackPointExtension>         </extensions>       </trkpt>
       <trkpt lat="45.582359544932842254638671875" lon="14.427057802677154541015625">         <ele>1439.800048828125</ele>         <time>2026-02-28T10:00:40.000Z</time>         <extensions>           <ns3:TrackPointExtension>             <ns3:hr>122</ns3:hr>           </ns3:TrackPointExtension>         </extensions>       </trkpt>
       <trkpt lat="45.58236214332282543182373046875" lon="14.4270864687860012054443359375">         <ele>1440.199951171875</ele>         <time>2026-02-28T10:00:43.000Z</time>         <extensions>           <ns3:TrackPointExtension>             <ns3:hr>121</ns3:hr>           </ns3:TrackPointExtension>         </extensions>       </trkpt>
       <trkpt lat="45.58236599899828433990478515625" lon="14.4271300546824932098388671875">         <ele>1440.800048828125</ele>         <time>2026-02-28T10:00:48.000Z</time>         <extensions>           <ns3:TrackPointExtension>             <ns3:hr>121</ns3:hr>           </ns3:TrackPointExtension>         </extensions>       </trkpt>
       <trkpt lat="45.58236591517925262451171875" lon="14.427145980298519134521484375">         <ele>1440.800048828125</ele>         <time>2026-02-28T10:00:50.000Z</time>         <extensions>           <ns3:TrackPointExtension>             <ns3:hr>122</ns3:hr>           </ns3:TrackPointExtension>         </extensions>       </trkpt>
       <trkpt lat="45.5823701061308383941650390625" lon="14.42718612961471080780029296875">         <ele>1441.199951171875</ele>         <time>2026-02-28T10:00:54.000Z</time>         <extensions>           <ns3:TrackPointExtension>             <ns3:hr>124</ns3:hr>           </ns3:TrackPointExtension>         </extensions>       </trkpt>
       <trkpt lat="45.582374632358551025390625" lon="14.42724714986979961395263671875">         <ele>1441.800048828125</ele>         <time>2026-02-28T10:01:00.000Z</time>         <extensions>           <ns3:TrackPointExtension>             <ns3:hr>123</ns3:hr>           </ns3:TrackPointExtension>         </extensions>       </trkpt>
       <trkpt lat="45.58237639255821704864501953125" lon="14.42725352011620998382568359375">         <ele>1441.800048828125</ele>         <time>2026-02-28T10:01:01.000Z</time>         <extensions>           <ns3:TrackPointExtension>             <ns3:hr>123</ns3:hr>           </ns3:TrackPointExtension>         </extensions>       </trkpt>
       <trkpt lat="45.58238360099494457244873046875" lon="14.42730230279266834259033203125">         <ele>1442.199951171875</ele>         <time>2026-02-28T10:01:06.000Z</time>         <extensions>           <ns3:TrackPointExtension>             <ns3:hr>120</ns3:hr>           </ns3:TrackPointExtension>         </extensions>       </trkpt>
       <trkpt lat="45.58238494209945201873779296875" lon="14.42731269635260105133056640625">         <ele>1442.4000244140625</ele>         <time>2026-02-28T10:01:07.000Z</time>         <extensions>           <ns3:TrackPointExtension>             <ns3:hr>120</ns3:hr>           </ns3:TrackPointExtension>         </extensions>       </trkpt>
       <trkpt lat="45.5823878757655620574951171875" lon="14.42737455479800701141357421875">         <ele>1442.800048828125</ele>         <time>2026-02-28T10:01:13.000Z</time>         <extensions>           <ns3:TrackPointExtension>             <ns3:hr>119</ns3:hr>           </ns3:TrackPointExtension>         </extensions>       </trkpt>
       <trkpt lat="45.58238812722265720367431640625" lon="14.42739333026111125946044921875">         <ele>1442.800048828125</ele>         <time>2026-02-28T10:01:15.000Z</time>         <extensions>           <ns3:TrackPointExtension>             <ns3:hr>119</ns3:hr>           </ns3:TrackPointExtension>         </extensions>       </trkpt>
       <trkpt lat="45.5823908932507038116455078125" lon="14.42742593586444854736328125">         <ele>1443.199951171875</ele>         <time>2026-02-28T10:01:18.000Z</time>         <extensions>           <ns3:TrackPointExtension>             <ns3:hr>119</ns3:hr>           </ns3:TrackPointExtension>         </extensions>       </trkpt>
       <trkpt lat="45.58238209225237369537353515625" lon="14.42749424837529659271240234375">         <ele>1443.5999755859375</ele>         <time>2026-02-28T10:01:26.000Z</time>         <extensions>           <ns3:TrackPointExtension>             <ns3:hr>119</ns3:hr>           </ns3:TrackPointExtension>         </extensions>       </trkpt>
       <trkpt lat="45.58237404562532901763916015625" lon="14.42754688672721385955810546875">         <ele>1443.5999755859375</ele>         <time>2026-02-28T10:01:32.000Z</time>         <extensions>           <ns3:TrackPointExtension>             <ns3:hr>120</ns3:hr>           </ns3:TrackPointExtension>         </extensions>       </trkpt>
       <trkpt lat="45.58236281387507915496826171875" lon="14.427594244480133056640625">         <ele>1444</ele>         <time>2026-02-28T10:01:36.000Z</time>         <extensions>           <ns3:TrackPointExtension>             <ns3:hr>120</ns3:hr>           </ns3:TrackPointExtension>         </extensions>       </trkpt>
       <trkpt lat="45.5823603831231594085693359375" lon="14.427623413503170013427734375">         <ele>1444</ele>         <time>2026-02-28T10:01:38.000Z</time>         <extensions>           <ns3:TrackPointExtension>             <ns3:hr>119</ns3:hr>           </ns3:TrackPointExtension>         </extensions>       </trkpt>
       <trkpt lat="45.5823463015258312225341796875" lon="14.4276507385075092315673828125">         <ele>1444.199951171875</ele>         <time>2026-02-28T10:01:44.000Z</time>         <extensions>           <ns3:TrackPointExtension>             <ns3:hr>119</ns3:hr>           </ns3:TrackPointExtension>         </extensions>       </trkpt>
       <trkpt lat="45.58233867399394512176513671875" lon="14.4276460446417331695556640625">         <ele>1444.199951171875</ele>         <time>2026-02-28T10:01:50.000Z</time>         <extensions>           <ns3:TrackPointExtension>             <ns3:hr>114</ns3:hr>           </ns3:TrackPointExtension>         </extensions>       </trkpt>
       <trkpt lat="45.582338087260723114013671875" lon="14.42764847539365291595458984375">         <ele>1444.199951171875</ele>         <time>2026-02-28T10:01:51.000Z</time>         <extensions>           <ns3:TrackPointExtension>             <ns3:hr>111</ns3:hr>           </ns3:TrackPointExtension>         </extensions>       </trkpt>
       <trkpt lat="45.58234177529811859130859375" lon="14.4276534207165241241455078125">         <ele>1444.199951171875</ele>         <time>2026-02-28T10:01:52.000Z</time>         <extensions>           <ns3:TrackPointExtension>             <ns3:hr>110</ns3:hr>           </ns3:TrackPointExtension>         </extensions>       </trkpt>
       <trkpt lat="45.58234923519194126129150390625" lon="14.42768217064440250396728515625">         <ele>1444.199951171875</ele>         <time>2026-02-28T10:01:55.000Z</time>         <extensions>           <ns3:TrackPointExtension>             <ns3:hr>107</ns3:hr>           </ns3:TrackPointExtension>         </extensions>       </trkpt>
       <trkpt lat="45.5823546834290027618408203125" lon="14.427725337445735931396484375">         <ele>1444.4000244140625</ele>         <time>2026-02-28T10:01:59.000Z</time>         <extensions>           <ns3:TrackPointExtension>             <ns3:hr>109</ns3:hr>           </ns3:TrackPointExtension>         </extensions>       </trkpt>
       <trkpt lat="45.58235786855220794677734375" lon="14.4277969188988208770751953125">         <ele>1444.800048828125</ele>         <time>2026-02-28T10:02:07.000Z</time>         <extensions>           <ns3:TrackPointExtension>             <ns3:hr>107</ns3:hr>           </ns3:TrackPointExtension>         </extensions>       </trkpt>
       <trkpt lat="45.5823536776006221771240234375" lon="14.42781812511384487152099609375">         <ele>1445</ele>         <time>2026-02-28T10:02:09.000Z</time>         <extensions>           <ns3:TrackPointExtension>             <ns3:hr>107</ns3:hr>           </ns3:TrackPointExtension>         </extensions>       </trkpt>
       <trkpt lat="45.58235518634319305419921875" lon="14.4278539158403873443603515625">         <ele>1445.199951171875</ele>         <time>2026-02-28T10:02:13.000Z</time>         <extensions>           <ns3:TrackPointExtension>             <ns3:hr>106</ns3:hr>           </ns3:TrackPointExtension>         </extensions>       </trkpt>
       <trkpt lat="45.5823625624179840087890625" lon="14.427932538092136383056640625">         <ele>1445.5999755859375</ele>         <time>2026-02-28T10:02:19.000Z</time>         <extensions>           <ns3:TrackPointExtension>             <ns3:hr>105</ns3:hr>           </ns3:TrackPointExtension>         </extensions>       </trkpt>
       <trkpt lat="45.5823737941682338714599609375" lon="14.4279952347278594970703125">         <ele>1446</ele>         <time>2026-02-28T10:02:26.000Z</time>         <extensions>           <ns3:TrackPointExtension>             <ns3:hr>105</ns3:hr>           </ns3:TrackPointExtension>         </extensions>       </trkpt>
       <trkpt lat="45.5823734588921070098876953125" lon="14.428001604974269866943359375">         <ele>1446</ele>         <time>2026-02-28T10:02:27.000Z</time>         <extensions>           <ns3:TrackPointExtension>             <ns3:hr>105</ns3:hr>           </ns3:TrackPointExtension>         </extensions>       </trkpt>
       <trkpt lat="45.58237798511981964111328125" lon="14.42806203849613666534423828125">         <ele>1446.5999755859375</ele>         <time>2026-02-28T10:02:33.000Z</time>         <extensions>           <ns3:TrackPointExtension>             <ns3:hr>106</ns3:hr>           </ns3:TrackPointExtension>         </extensions>       </trkpt>
       <trkpt lat="45.58237773366272449493408203125" lon="14.42809380590915679931640625">         <ele>1446.800048828125</ele>         <time>2026-02-28T10:02:37.000Z</time>         <extensions>           <ns3:TrackPointExtension>             <ns3:hr>109</ns3:hr>           </ns3:TrackPointExtension>         </extensions>       </trkpt>
       <trkpt lat="45.58238125406205654144287109375" lon="14.428114257752895355224609375">         <ele>1447.199951171875</ele>         <time>2026-02-28T10:02:40.000Z</time>         <extensions>           <ns3:TrackPointExtension>             <ns3:hr>109</ns3:hr>           </ns3:TrackPointExtension>         </extensions>       </trkpt>
       <trkpt lat="45.582387037575244903564453125" lon="14.42816446535289287567138671875">         <ele>1447.800048828125</ele>         <time>2026-02-28T10:02:46.000Z</time>         <extensions>           <ns3:TrackPointExtension>             <ns3:hr>109</ns3:hr>           </ns3:TrackPointExtension>         </extensions>       </trkpt>
       <trkpt lat="45.58239466510713100433349609375" lon="14.42821056582033634185791015625">         <ele>1448.199951171875</ele>         <time>2026-02-28T10:02:51.000Z</time>         <extensions>           <ns3:TrackPointExtension>             <ns3:hr>109</ns3:hr>           </ns3:TrackPointExtension>         </extensions>       </trkpt>
       <trkpt lat="45.5823932401835918426513671875" lon="14.42821542732417583465576171875">         <ele>1448.199951171875</ele>         <time>2026-02-28T10:02:52.000Z</time>         <extensions>           <ns3:TrackPointExtension>             <ns3:hr>109</ns3:hr>           </ns3:TrackPointExtension>         </extensions>       </trkpt>
       <trkpt lat="45.5824183858931064605712890625" lon="14.42826974205672740936279296875">         <ele>1448.800048828125</ele>         <time>2026-02-28T10:02:59.000Z</time>         <extensions>           <ns3:TrackPointExtension>             <ns3:hr>111</ns3:hr>           </ns3:TrackPointExtension>         </extensions>       </trkpt>
       <trkpt lat="45.58244110085070133209228515625" lon="14.42830896936357021331787109375">         <ele>1449.199951171875</ele>         <time>2026-02-28T10:03:04.000Z</time>         <extensions>           <ns3:TrackPointExtension>             <ns3:hr>112</ns3:hr>           </ns3:TrackPointExtension>         </extensions>       </trkpt>
       <trkpt lat="45.58244881220161914825439453125" lon="14.4283209554851055145263671875">         <ele>1449.4000244140625</ele>         <time>2026-02-28T10:03:06.000Z</time>         <extensions>           <ns3:TrackPointExtension>             <ns3:hr>113</ns3:hr>           </ns3:TrackPointExtension>         </extensions>       </trkpt>
       <trkpt lat="45.58246859349310398101806640625" lon="14.4283722527325153350830078125">         <ele>1449.800048828125</ele>         <time>2026-02-28T10:03:12.000Z</time>         <extensions>           <ns3:TrackPointExtension>             <ns3:hr>113</ns3:hr>           </ns3:TrackPointExtension>         </extensions>       </trkpt>
       <trkpt lat="45.5824871174991130828857421875" lon="14.42842329852283000946044921875">         <ele>1450.199951171875</ele>         <time>2026-02-28T10:03:18.000Z</time>         <extensions>           <ns3:TrackPointExtension>             <ns3:hr>113</ns3:hr>           </ns3:TrackPointExtension>         </extensions>       </trkpt>
       <trkpt lat="45.58249155990779399871826171875" lon="14.4284346140921115875244140625">         <ele>1450.4000244140625</ele>         <time>2026-02-28T10:03:19.000Z</time>         <extensions>           <ns3:TrackPointExtension>             <ns3:hr>113</ns3:hr>           </ns3:TrackPointExtension>         </extensions>       </trkpt>
       <trkpt lat="45.58253028430044651031494140625" lon="14.42850292660295963287353515625">         <ele>1450.5999755859375</ele>         <time>2026-02-28T10:03:27.000Z</time>         <extensions>           <ns3:TrackPointExtension>             <ns3:hr>115</ns3:hr>           </ns3:TrackPointExtension>         </extensions>       </trkpt>
       <trkpt lat="45.5825625546276569366455078125" lon="14.42856143228709697723388671875">         <ele>1450.800048828125</ele>         <time>2026-02-28T10:03:34.000Z</time>         <extensions>           <ns3:TrackPointExtension>             <ns3:hr>114</ns3:hr>           </ns3:TrackPointExtension>         </extensions>       </trkpt>
       <trkpt lat="45.5826007761061191558837890625" lon="14.428626559674739837646484375">         <ele>1451</ele>         <time>2026-02-28T10:03:41.000Z</time>         <extensions>           <ns3:TrackPointExtension>             <ns3:hr>114</ns3:hr>           </ns3:TrackPointExtension>         </extensions>       </trkpt>
       <trkpt lat="45.5826229043304920196533203125" lon="14.42866553552448749542236328125">         <ele>1451.199951171875</ele>         <time>2026-02-28T10:03:45.000Z</time>         <extensions>           <ns3:TrackPointExtension>             <ns3:hr>112</ns3:hr>           </ns3:TrackPointExtension>         </extensions>       </trkpt>
       <trkpt lat="45.58263455517590045928955078125" lon="14.42868364043533802032470703125">         <ele>1451.4000244140625</ele>         <time>2026-02-28T10:03:47.000Z</time>         <extensions>           <ns3:TrackPointExtension>             <ns3:hr>112</ns3:hr>           </ns3:TrackPointExtension>         </extensions>       </trkpt>
       <trkpt lat="45.58265701867640018463134765625" lon="14.428730495274066925048828125">         <ele>1451.800048828125</ele>         <time>2026-02-28T10:03:53.000Z</time>         <extensions>           <ns3:TrackPointExtension>             <ns3:hr>113</ns3:hr>           </ns3:TrackPointExtension>         </extensions>       </trkpt>
       <trkpt lat="45.58267361484467983245849609375" lon="14.42878019995987415313720703125">         <ele>1452</ele>         <time>2026-02-28T10:03:58.000Z</time>         <extensions>           <ns3:TrackPointExtension>             <ns3:hr>113</ns3:hr>           </ns3:TrackPointExtension>         </extensions>       </trkpt>
       <trkpt lat="45.58267839252948760986328125" lon="14.428811967372894287109375">         <ele>1452.4000244140625</ele>         <time>2026-02-28T10:04:01.000Z</time>         <extensions>           <ns3:TrackPointExtension>             <ns3:hr>114</ns3:hr>           </ns3:TrackPointExtension>         </extensions>       </trkpt>
       <trkpt lat="45.58268115855753421783447265625" lon="14.42883149720728397369384765625">         <ele>1452.4000244140625</ele>         <time>2026-02-28T10:04:03.000Z</time>         <extensions>           <ns3:TrackPointExtension>             <ns3:hr>114</ns3:hr>           </ns3:TrackPointExtension>         </extensions>       </trkpt>
       <trkpt lat="45.582678727805614471435546875" lon="14.4288942776620388031005859375">         <ele>1453</ele>         <time>2026-02-28T10:04:09.000Z</time>         <extensions>           <ns3:TrackPointExtension>             <ns3:hr>115</ns3:hr>           </ns3:TrackPointExtension>         </extensions>       </trkpt>
       <trkpt lat="45.58268384076654911041259765625" lon="14.42896150052547454833984375">         <ele>1453.4000244140625</ele>         <time>2026-02-28T10:04:16.000Z</time>         <extensions>           <ns3:TrackPointExtension>             <ns3:hr>112</ns3:hr>           </ns3:TrackPointExtension>         </extensions>       </trkpt>
       <trkpt lat="45.5826923064887523651123046875" lon="14.429031573235988616943359375">         <ele>1454</ele>         <time>2026-02-28T10:04:23.000Z</time>         <extensions>           <ns3:TrackPointExtension>             <ns3:hr>114</ns3:hr>           </ns3:TrackPointExtension>         </extensions>       </trkpt>
       <trkpt lat="45.5826906301081180572509765625" lon="14.4291014783084392547607421875">         <ele>1454.4000244140625</ele>         <time>2026-02-28T10:04:29.000Z</time>         <extensions>           <ns3:TrackPointExtension>             <ns3:hr>113</ns3:hr>           </ns3:TrackPointExtension>         </extensions>       </trkpt>
       <trkpt lat="45.58268903754651546478271484375" lon="14.42912503145635128021240234375">         <ele>1454.4000244140625</ele>         <time>2026-02-28T10:04:31.000Z</time>         <extensions>           <ns3:TrackPointExtension>             <ns3:hr>112</ns3:hr>           </ns3:TrackPointExtension>         </extensions>       </trkpt>
       <trkpt lat="45.5826876126229763031005859375" lon="14.42916157655417919158935546875">         <ele>1454.4000244140625</ele>         <time>2026-02-28T10:04:35.000Z</time>         <extensions>           <ns3:TrackPointExtension>             <ns3:hr>111</ns3:hr>           </ns3:TrackPointExtension>         </extensions>       </trkpt>
       <trkpt lat="45.58268886990845203399658203125" lon="14.42921907640993595123291015625">         <ele>1454.800048828125</ele>         <time>2026-02-28T10:04:41.000Z</time>         <extensions>           <ns3:TrackPointExtension>             <ns3:hr>112</ns3:hr>           </ns3:TrackPointExtension>         </extensions>       </trkpt>
       <trkpt lat="45.5826978385448455810546875" lon="14.42927707917988300323486328125">         <ele>1455</ele>         <time>2026-02-28T10:04:47.000Z</time>         <extensions>           <ns3:TrackPointExtension>             <ns3:hr>111</ns3:hr>           </ns3:TrackPointExtension>         </extensions>       </trkpt>
       <trkpt lat="45.58270563371479511260986328125" lon="14.4293160550296306610107421875">         <ele>1455.199951171875</ele>         <time>2026-02-28T10:04:52.000Z</time>         <extensions>           <ns3:TrackPointExtension>             <ns3:hr>112</ns3:hr>           </ns3:TrackPointExtension>         </extensions>       </trkpt>
       <trkpt lat="45.5827094055712223052978515625" lon="14.42934648133814334869384765625">         <ele>1455.5999755859375</ele>         <time>2026-02-28T10:04:55.000Z</time>         <extensions>           <ns3:TrackPointExtension>             <ns3:hr>111</ns3:hr>           </ns3:TrackPointExtension>         </extensions>       </trkpt>
       <trkpt lat="45.582704208791255950927734375" lon="14.429369866847991943359375">         <ele>1456</ele>         <time>2026-02-28T10:04:58.000Z</time>         <extensions>           <ns3:TrackPointExtension>             <ns3:hr>111</ns3:hr>           </ns3:TrackPointExtension>         </extensions>       </trkpt>
       <trkpt lat="45.58270647190511226654052734375" lon="14.42943046800792217254638671875">         <ele>1456.5999755859375</ele>         <time>2026-02-28T10:05:03.000Z</time>         <extensions>           <ns3:TrackPointExtension>             <ns3:hr>109</ns3:hr>           </ns3:TrackPointExtension>         </extensions>       </trkpt>
       <trkpt lat="45.5827134288847446441650390625" lon="14.42949182353913784027099609375">         <ele>1457.199951171875</ele>         <time>2026-02-28T10:05:08.000Z</time>         <extensions>           <ns3:TrackPointExtension>             <ns3:hr>112</ns3:hr>           </ns3:TrackPointExtension>         </extensions>       </trkpt>
       <trkpt lat="45.582713596522808074951171875" lon="14.42949836142361164093017578125">         <ele>1457.199951171875</ele>         <time>2026-02-28T10:05:09.000Z</time>         <extensions>           <ns3:TrackPointExtension>             <ns3:hr>113</ns3:hr>           </ns3:TrackPointExtension>         </extensions>       </trkpt>
       <trkpt lat="45.582716278731822967529296875" lon="14.42956860177218914031982421875">         <ele>1457.5999755859375</ele>         <time>2026-02-28T10:05:15.000Z</time>         <extensions>           <ns3:TrackPointExtension>             <ns3:hr>114</ns3:hr>           </ns3:TrackPointExtension>         </extensions>       </trkpt>
       <trkpt lat="45.58272063732147216796875" lon="14.42961419932544231414794921875">         <ele>1458</ele>         <time>2026-02-28T10:05:20.000Z</time>         <extensions>           <ns3:TrackPointExtension>             <ns3:hr>113</ns3:hr>           </ns3:TrackPointExtension>         </extensions>       </trkpt>
       <trkpt lat="45.5827181227505207061767578125" lon="14.429658539593219757080078125">         <ele>1458.5999755859375</ele>         <time>2026-02-28T10:05:26.000Z</time>         <extensions>           <ns3:TrackPointExtension>             <ns3:hr>112</ns3:hr>           </ns3:TrackPointExtension>         </extensions>       </trkpt>
       <trkpt lat="45.5827164463698863983154296875" lon="14.42967404611408710479736328125">         <ele>1458.800048828125</ele>         <time>2026-02-28T10:05:27.000Z</time>         <extensions>           <ns3:TrackPointExtension>             <ns3:hr>112</ns3:hr>           </ns3:TrackPointExtension>         </extensions>       </trkpt>
       <trkpt lat="45.58271971531212329864501953125" lon="14.42970807664096355438232421875">         <ele>1459</ele>         <time>2026-02-28T10:05:31.000Z</time>         <extensions>           <ns3:TrackPointExtension>             <ns3:hr>113</ns3:hr>           </ns3:TrackPointExtension>         </extensions>       </trkpt>
       <trkpt lat="45.5827181227505207061767578125" lon="14.4297683425247669219970703125">         <ele>1459.4000244140625</ele>         <time>2026-02-28T10:05:36.000Z</time>         <extensions>           <ns3:TrackPointExtension>             <ns3:hr>114</ns3:hr>           </ns3:TrackPointExtension>         </extensions>       </trkpt>
       <trkpt lat="45.58271988295018672943115234375" lon="14.42979843355715274810791015625">         <ele>1459.5999755859375</ele>         <time>2026-02-28T10:05:39.000Z</time>         <extensions>           <ns3:TrackPointExtension>             <ns3:hr>117</ns3:hr>           </ns3:TrackPointExtension>         </extensions>       </trkpt>
       <trkpt lat="45.58272206224501132965087890625" lon="14.4298152811825275421142578125">         <ele>1459.800048828125</ele>         <time>2026-02-28T10:05:41.000Z</time>         <extensions>           <ns3:TrackPointExtension>             <ns3:hr>117</ns3:hr>           </ns3:TrackPointExtension>         </extensions>       </trkpt>
       <trkpt lat="45.58272155933082103729248046875" lon="14.42982248961925506591796875">         <ele>1459.800048828125</ele>         <time>2026-02-28T10:05:42.000Z</time>         <extensions>           <ns3:TrackPointExtension>             <ns3:hr>117</ns3:hr>           </ns3:TrackPointExtension>         </extensions>       </trkpt>
       <trkpt lat="45.5827005207538604736328125" lon="14.4298954121768474578857421875">         <ele>1460.4000244140625</ele>         <time>2026-02-28T10:05:50.000Z</time>         <extensions>           <ns3:TrackPointExtension>             <ns3:hr>116</ns3:hr>           </ns3:TrackPointExtension>         </extensions>       </trkpt>
       <trkpt lat="45.58268585242331027984619140625" lon="14.42992449738085269927978515625">         <ele>1460.800048828125</ele>         <time>2026-02-28T10:05:54.000Z</time>         <extensions>           <ns3:TrackPointExtension>             <ns3:hr>116</ns3:hr>           </ns3:TrackPointExtension>         </extensions>       </trkpt>
       <trkpt lat="45.58267897926270961761474609375" lon="14.4299423508346080780029296875">         <ele>1461</ele>         <time>2026-02-28T10:05:56.000Z</time>         <extensions>           <ns3:TrackPointExtension>             <ns3:hr>115</ns3:hr>           </ns3:TrackPointExtension>         </extensions>       </trkpt>
       <trkpt lat="45.58266498148441314697265625" lon="14.429966323077678680419921875">         <ele>1461.5999755859375</ele>         <time>2026-02-28T10:06:01.000Z</time>         <extensions>           <ns3:TrackPointExtension>             <ns3:hr>112</ns3:hr>           </ns3:TrackPointExtension>         </extensions>       </trkpt>
       <trkpt lat="45.58265266008675098419189453125" lon="14.4299959950149059295654296875">         <ele>1461.800048828125</ele>         <time>2026-02-28T10:06:04.000Z</time>         <extensions>           <ns3:TrackPointExtension>             <ns3:hr>113</ns3:hr>           </ns3:TrackPointExtension>         </extensions>       </trkpt>
       <trkpt lat="45.58264352381229400634765625" lon="14.43002172745764255523681640625">         <ele>1462</ele>         <time>2026-02-28T10:06:07.000Z</time>         <extensions>           <ns3:TrackPointExtension>             <ns3:hr>114</ns3:hr>           </ns3:TrackPointExtension>         </extensions>       </trkpt>
       <trkpt lat="45.58263287879526615142822265625" lon="14.43004972301423549652099609375">         <ele>1462.199951171875</ele>         <time>2026-02-28T10:06:10.000Z</time>         <extensions>           <ns3:TrackPointExtension>             <ns3:hr>117</ns3:hr>           </ns3:TrackPointExtension>         </extensions>       </trkpt>
       <trkpt lat="45.5826245807111263275146484375" lon="14.4300643913447856903076171875">         <ele>1462.4000244140625</ele>         <time>2026-02-28T10:06:12.000Z</time>         <extensions>           <ns3:TrackPointExtension>             <ns3:hr>118</ns3:hr>           </ns3:TrackPointExtension>         </extensions>       </trkpt>
       <trkpt lat="45.58260999619960784912109375" lon="14.43009280599653720855712890625">         <ele>1462.800048828125</ele>         <time>2026-02-28T10:06:16.000Z</time>         <extensions>           <ns3:TrackPointExtension>             <ns3:hr>116</ns3:hr>           </ns3:TrackPointExtension>         </extensions>       </trkpt>
       <trkpt lat="45.582604296505451202392578125" lon="14.4300975836813449859619140625">         <ele>1463</ele>         <time>2026-02-28T10:06:17.000Z</time>         <extensions>           <ns3:TrackPointExtension>             <ns3:hr>114</ns3:hr>           </ns3:TrackPointExtension>         </extensions>       </trkpt>
       <trkpt lat="45.5825856886804103851318359375" lon="14.43012884818017482757568359375">         <ele>1463.5999755859375</ele>         <time>2026-02-28T10:06:22.000Z</time>         <extensions>           <ns3:TrackPointExtension>             <ns3:hr>113</ns3:hr>           </ns3:TrackPointExtension>         </extensions>       </trkpt>
       <trkpt lat="45.58256833814084529876708984375" lon="14.43019003607332706451416015625">         <ele>1464</ele>         <time>2026-02-28T10:06:28.000Z</time>         <extensions>           <ns3:TrackPointExtension>             <ns3:hr>115</ns3:hr>           </ns3:TrackPointExtension>         </extensions>       </trkpt>
       <trkpt lat="45.58255056850612163543701171875" lon="14.4302256591618061065673828125">         <ele>1464.800048828125</ele>         <time>2026-02-28T10:06:34.000Z</time>         <extensions>           <ns3:TrackPointExtension>             <ns3:hr>116</ns3:hr>           </ns3:TrackPointExtension>         </extensions>       </trkpt>
       <trkpt lat="45.5825370736420154571533203125" lon="14.43027050234377384185791015625">         <ele>1465</ele>         <time>2026-02-28T10:06:39.000Z</time>         <extensions>           <ns3:TrackPointExtension>             <ns3:hr>116</ns3:hr>           </ns3:TrackPointExtension>         </extensions>       </trkpt>
       <trkpt lat="45.58252039365470409393310546875" lon="14.430325739085674285888671875">         <ele>1465.5999755859375</ele>         <time>2026-02-28T10:06:44.000Z</time>         <extensions>           <ns3:TrackPointExtension>             <ns3:hr>119</ns3:hr>           </ns3:TrackPointExtension>         </extensions>       </trkpt>
       <trkpt lat="45.58251603506505489349365234375" lon="14.43033353425562381744384765625">         <ele>1465.5999755859375</ele>         <time>2026-02-28T10:06:45.000Z</time>         <extensions>           <ns3:TrackPointExtension>             <ns3:hr>119</ns3:hr>           </ns3:TrackPointExtension>         </extensions>       </trkpt>
       <trkpt lat="45.5825018696486949920654296875" lon="14.4303772039711475372314453125">         <ele>1466.199951171875</ele>         <time>2026-02-28T10:06:50.000Z</time>         <extensions>           <ns3:TrackPointExtension>             <ns3:hr>118</ns3:hr>           </ns3:TrackPointExtension>         </extensions>       </trkpt>
       <trkpt lat="45.58246356435120105743408203125" lon="14.4304279983043670654296875">         <ele>1466.4000244140625</ele>         <time>2026-02-28T10:06:56.000Z</time>         <extensions>           <ns3:TrackPointExtension>             <ns3:hr>118</ns3:hr>           </ns3:TrackPointExtension>         </extensions>       </trkpt>
       <trkpt lat="45.5824344791471958160400390625" lon="14.43048155866563320159912109375">         <ele>1466.800048828125</ele>         <time>2026-02-28T10:07:02.000Z</time>         <extensions>           <ns3:TrackPointExtension>             <ns3:hr>118</ns3:hr>           </ns3:TrackPointExtension>         </extensions>       </trkpt>
       <trkpt lat="45.58238997124135494232177734375" lon="14.43055297248065471649169921875">         <ele>1467</ele>         <time>2026-02-28T10:07:10.000Z</time>         <extensions>           <ns3:TrackPointExtension>             <ns3:hr>117</ns3:hr>           </ns3:TrackPointExtension>         </extensions>       </trkpt>
       <trkpt lat="45.58237354271113872528076171875" lon="14.43057962693274021148681640625">         <ele>1467.199951171875</ele>         <time>2026-02-28T10:07:13.000Z</time>         <extensions>           <ns3:TrackPointExtension>             <ns3:hr>117</ns3:hr>           </ns3:TrackPointExtension>         </extensions>       </trkpt>
       <trkpt lat="45.58235409669578075408935546875" lon="14.43060242570936679840087890625">         <ele>1467.4000244140625</ele>         <time>2026-02-28T10:07:16.000Z</time>         <extensions>           <ns3:TrackPointExtension>             <ns3:hr>117</ns3:hr>           </ns3:TrackPointExtension>         </extensions>       </trkpt>
       <trkpt lat="45.58232442475855350494384765625" lon="14.4306346960365772247314453125">         <ele>1467.5999755859375</ele>         <time>2026-02-28T10:07:20.000Z</time>         <extensions>           <ns3:TrackPointExtension>             <ns3:hr>116</ns3:hr>           </ns3:TrackPointExtension>         </extensions>       </trkpt>
       <trkpt lat="45.58230447582900524139404296875" lon="14.43066948093473911285400390625">         <ele>1467.5999755859375</ele>         <time>2026-02-28T10:07:25.000Z</time>         <extensions>           <ns3:TrackPointExtension>             <ns3:hr>115</ns3:hr>           </ns3:TrackPointExtension>         </extensions>       </trkpt>
       <trkpt lat="45.58226793073117733001708984375" lon="14.4306906871497631072998046875">         <ele>1468</ele>         <time>2026-02-28T10:07:30.000Z</time>         <extensions>           <ns3:TrackPointExtension>             <ns3:hr>113</ns3:hr>           </ns3:TrackPointExtension>         </extensions>       </trkpt>
       <trkpt lat="45.58222166262567043304443359375" lon="14.430732429027557373046875">         <ele>1468.199951171875</ele>         <time>2026-02-28T10:07:36.000Z</time>         <extensions>           <ns3:TrackPointExtension>             <ns3:hr>112</ns3:hr>           </ns3:TrackPointExtension>         </extensions>       </trkpt>
       <trkpt lat="45.58218461461365222930908203125" lon="14.430769979953765869140625">         <ele>1468.199951171875</ele>         <time>2026-02-28T10:07:41.000Z</time>         <extensions>           <ns3:TrackPointExtension>             <ns3:hr>112</ns3:hr>           </ns3:TrackPointExtension>         </extensions>       </trkpt>
       <trkpt lat="45.58213717304170131683349609375" lon="14.4308102130889892578125">         <ele>1468.800048828125</ele>         <time>2026-02-28T10:07:48.000Z</time>         <extensions>           <ns3:TrackPointExtension>             <ns3:hr>114</ns3:hr>           </ns3:TrackPointExtension>         </extensions>       </trkpt>
       <trkpt lat="45.58210716582834720611572265625" lon="14.43084868602454662322998046875">         <ele>1469</ele>         <time>2026-02-28T10:07:53.000Z</time>         <extensions>           <ns3:TrackPointExtension>             <ns3:hr>115</ns3:hr>           </ns3:TrackPointExtension>         </extensions>       </trkpt>
       <trkpt lat="45.5820804275572299957275390625" lon="14.430883638560771942138671875">         <ele>1469.199951171875</ele>         <time>2026-02-28T10:07:58.000Z</time>         <extensions>           <ns3:TrackPointExtension>             <ns3:hr>113</ns3:hr>           </ns3:TrackPointExtension>         </extensions>       </trkpt>
       <trkpt lat="45.58207598514854907989501953125" lon="14.43088891915977001190185546875">         <ele>1469.4000244140625</ele>         <time>2026-02-28T10:07:59.000Z</time>         <extensions>           <ns3:TrackPointExtension>             <ns3:hr>113</ns3:hr>           </ns3:TrackPointExtension>         </extensions>       </trkpt>
       <trkpt lat="45.58205000124871730804443359375" lon="14.4309134781360626220703125">         <ele>1469.5999755859375</ele>         <time>2026-02-28T10:08:04.000Z</time>         <extensions>           <ns3:TrackPointExtension>             <ns3:hr>113</ns3:hr>           </ns3:TrackPointExtension>         </extensions>       </trkpt>
       <trkpt lat="45.5819989554584026336669921875" lon="14.4309456646442413330078125">         <ele>1470</ele>         <time>2026-02-28T10:08:10.000Z</time>         <extensions>           <ns3:TrackPointExtension>             <ns3:hr>112</ns3:hr>           </ns3:TrackPointExtension>         </extensions>       </trkpt>
       <trkpt lat="45.5819681100547313690185546875" lon="14.4309726543724536895751953125">         <ele>1470.199951171875</ele>         <time>2026-02-28T10:08:15.000Z</time>         <extensions>           <ns3:TrackPointExtension>             <ns3:hr>112</ns3:hr>           </ns3:TrackPointExtension>         </extensions>       </trkpt>
       <trkpt lat="45.58192946948111057281494140625" lon="14.43101783283054828643798828125">         <ele>1470</ele>         <time>2026-02-28T10:08:20.000Z</time>         <extensions>           <ns3:TrackPointExtension>             <ns3:hr>113</ns3:hr>           </ns3:TrackPointExtension>         </extensions>       </trkpt>
       <trkpt lat="45.58188320137560367584228515625" lon="14.431072063744068145751953125">         <ele>1470</ele>         <time>2026-02-28T10:08:26.000Z</time>         <extensions>           <ns3:TrackPointExtension>             <ns3:hr>114</ns3:hr>           </ns3:TrackPointExtension>         </extensions>       </trkpt>
       <trkpt lat="45.5818554572761058807373046875" lon="14.43110064603388309478759765625">         <ele>1470.4000244140625</ele>         <time>2026-02-28T10:08:30.000Z</time>         <extensions>           <ns3:TrackPointExtension>             <ns3:hr>113</ns3:hr>           </ns3:TrackPointExtension>         </extensions>       </trkpt>
       <trkpt lat="45.58184682391583919525146484375" lon="14.431120343506336212158203125">         <ele>1470.4000244140625</ele>         <time>2026-02-28T10:08:32.000Z</time>         <extensions>           <ns3:TrackPointExtension>             <ns3:hr>112</ns3:hr>           </ns3:TrackPointExtension>         </extensions>       </trkpt>
       <trkpt lat="45.58182788081467151641845703125" lon="14.43116703070700168609619140625">         <ele>1470.4000244140625</ele>         <time>2026-02-28T10:08:37.000Z</time>         <extensions>           <ns3:TrackPointExtension>             <ns3:hr>111</ns3:hr>           </ns3:TrackPointExtension>         </extensions>       </trkpt>
       <trkpt lat="45.581796281039714813232421875" lon="14.4312143884599208831787109375">         <ele>1470.5999755859375</ele>         <time>2026-02-28T10:08:43.000Z</time>         <extensions>           <ns3:TrackPointExtension>             <ns3:hr>111</ns3:hr>           </ns3:TrackPointExtension>         </extensions>       </trkpt>
       <trkpt lat="45.5817612446844577789306640625" lon="14.43124548532068729400634765625">         <ele>1470.4000244140625</ele>         <time>2026-02-28T10:08:48.000Z</time>         <extensions>           <ns3:TrackPointExtension>             <ns3:hr>110</ns3:hr>           </ns3:TrackPointExtension>         </extensions>       </trkpt>
       <trkpt lat="45.5817216821014881134033203125" lon="14.43128672428429126739501953125">         <ele>1470.4000244140625</ele>         <time>2026-02-28T10:08:53.000Z</time>         <extensions>           <ns3:TrackPointExtension>             <ns3:hr>110</ns3:hr>           </ns3:TrackPointExtension>         </extensions>       </trkpt>
       <trkpt lat="45.58167918585240840911865234375" lon="14.43132989108562469482421875">         <ele>1470.199951171875</ele>         <time>2026-02-28T10:08:58.000Z</time>         <extensions>           <ns3:TrackPointExtension>             <ns3:hr>110</ns3:hr>           </ns3:TrackPointExtension>         </extensions>       </trkpt>
       <trkpt lat="45.58164163492619991302490234375" lon="14.4313828647136688232421875">         <ele>1470.199951171875</ele>         <time>2026-02-28T10:09:04.000Z</time>         <extensions>           <ns3:TrackPointExtension>             <ns3:hr>111</ns3:hr>           </ns3:TrackPointExtension>         </extensions>       </trkpt>
       <trkpt lat="45.58161648921668529510498046875" lon="14.43144564516842365264892578125">         <ele>1469.800048828125</ele>         <time>2026-02-28T10:09:11.000Z</time>         <extensions>           <ns3:TrackPointExtension>             <ns3:hr>110</ns3:hr>           </ns3:TrackPointExtension>         </extensions>       </trkpt>
       <trkpt lat="45.58158949948847293853759765625" lon="14.43148202262818813323974609375">         <ele>1469.5999755859375</ele>         <time>2026-02-28T10:09:15.000Z</time>         <extensions>           <ns3:TrackPointExtension>             <ns3:hr>109</ns3:hr>           </ns3:TrackPointExtension>         </extensions>       </trkpt>
       <trkpt lat="45.58157022111117839813232421875" lon="14.43153030239045619964599609375">         <ele>1469.4000244140625</ele>         <time>2026-02-28T10:09:20.000Z</time>         <extensions>           <ns3:TrackPointExtension>             <ns3:hr>108</ns3:hr>           </ns3:TrackPointExtension>         </extensions>       </trkpt>
       <trkpt lat="45.58156250976026058197021484375" lon="14.43157975561916828155517578125">         <ele>1469.5999755859375</ele>         <time>2026-02-28T10:09:27.000Z</time>         <extensions>           <ns3:TrackPointExtension>             <ns3:hr>110</ns3:hr>           </ns3:TrackPointExtension>         </extensions>       </trkpt>
       <trkpt lat="45.58155865408480167388916015625" lon="14.43166541866958141326904296875">         <ele>1469.4000244140625</ele>         <time>2026-02-28T10:09:33.000Z</time>         <extensions>           <ns3:TrackPointExtension>             <ns3:hr>110</ns3:hr>           </ns3:TrackPointExtension>         </extensions>       </trkpt>
       <trkpt lat="45.58156183920800685882568359375" lon="14.43169056437909603118896484375">         <ele>1469.5999755859375</ele>         <time>2026-02-28T10:09:36.000Z</time>         <extensions>           <ns3:TrackPointExtension>             <ns3:hr>106</ns3:hr>           </ns3:TrackPointExtension>         </extensions>       </trkpt>
       <trkpt lat="45.581566952168941497802734375" lon="14.431717805564403533935546875">         <ele>1469.5999755859375</ele>         <time>2026-02-28T10:09:38.000Z</time>         <extensions>           <ns3:TrackPointExtension>             <ns3:hr>103</ns3:hr>           </ns3:TrackPointExtension>         </extensions>       </trkpt>
       <trkpt lat="45.58156787417829036712646484375" lon="14.43172845058143138885498046875">         <ele>1469.5999755859375</ele>         <time>2026-02-28T10:09:39.000Z</time>         <extensions>           <ns3:TrackPointExtension>             <ns3:hr>103</ns3:hr>           </ns3:TrackPointExtension>         </extensions>       </trkpt>
       <trkpt lat="45.581565611064434051513671875" lon="14.43178184330463409423828125">         <ele>1469.5999755859375</ele>         <time>2026-02-28T10:09:44.000Z</time>         <extensions>           <ns3:TrackPointExtension>             <ns3:hr>103</ns3:hr>           </ns3:TrackPointExtension>         </extensions>       </trkpt>
       <trkpt lat="45.58156368322670459747314453125" lon="14.4318091683089733123779296875">         <ele>1469.800048828125</ele>         <time>2026-02-28T10:09:50.000Z</time>         <extensions>           <ns3:TrackPointExtension>             <ns3:hr>103</ns3:hr>           </ns3:TrackPointExtension>         </extensions>       </trkpt>
       <trkpt lat="45.5815553851425647735595703125" lon="14.4318500719964504241943359375">         <ele>1470.199951171875</ele>         <time>2026-02-28T10:09:55.000Z</time>         <extensions>           <ns3:TrackPointExtension>             <ns3:hr>105</ns3:hr>           </ns3:TrackPointExtension>         </extensions>       </trkpt>
       <trkpt lat="45.58153836987912654876708984375" lon="14.43189717829227447509765625">         <ele>1470.4000244140625</ele>         <time>2026-02-28T10:10:00.000Z</time>         <extensions>           <ns3:TrackPointExtension>             <ns3:hr>107</ns3:hr>           </ns3:TrackPointExtension>         </extensions>       </trkpt>
       <trkpt lat="45.581524707376956939697265625" lon="14.43195082247257232666015625">         <ele>1470.800048828125</ele>         <time>2026-02-28T10:10:06.000Z</time>         <extensions>           <ns3:TrackPointExtension>             <ns3:hr>107</ns3:hr>           </ns3:TrackPointExtension>         </extensions>       </trkpt>
       <trkpt lat="45.581512637436389923095703125" lon="14.43198896013200283050537109375">         <ele>1471</ele>         <time>2026-02-28T10:10:11.000Z</time>         <extensions>           <ns3:TrackPointExtension>             <ns3:hr>108</ns3:hr>           </ns3:TrackPointExtension>         </extensions>       </trkpt>
       <trkpt lat="45.58150718919932842254638671875" lon="14.43203841336071491241455078125">         <ele>1471.4000244140625</ele>         <time>2026-02-28T10:10:16.000Z</time>         <extensions>           <ns3:TrackPointExtension>             <ns3:hr>109</ns3:hr>           </ns3:TrackPointExtension>         </extensions>       </trkpt>
       <trkpt lat="45.5815050937235355377197265625" lon="14.432041682302951812744140625">         <ele>1471.5999755859375</ele>         <time>2026-02-28T10:10:18.000Z</time>         <extensions>           <ns3:TrackPointExtension>             <ns3:hr>109</ns3:hr>           </ns3:TrackPointExtension>         </extensions>       </trkpt>
       <trkpt lat="45.58151255361735820770263671875" lon="14.4320669956505298614501953125">         <ele>1471.5999755859375</ele>         <time>2026-02-28T10:10:25.000Z</time>         <extensions>           <ns3:TrackPointExtension>             <ns3:hr>112</ns3:hr>           </ns3:TrackPointExtension>         </extensions>       </trkpt>
       <trkpt lat="45.581512637436389923095703125" lon="14.4320775568485260009765625">         <ele>1471.4000244140625</ele>         <time>2026-02-28T10:10:27.000Z</time>         <extensions>           <ns3:TrackPointExtension>             <ns3:hr>114</ns3:hr>           </ns3:TrackPointExtension>         </extensions>       </trkpt>
       <trkpt lat="45.58150618337094783782958984375" lon="14.43212474696338176727294921875">         <ele>1471.5999755859375</ele>         <time>2026-02-28T10:10:33.000Z</time>         <extensions>           <ns3:TrackPointExtension>             <ns3:hr>115</ns3:hr>           </ns3:TrackPointExtension>         </extensions>       </trkpt>
       <trkpt lat="45.58149059303104877471923828125" lon="14.43217487074434757232666015625">         <ele>1472</ele>         <time>2026-02-28T10:10:38.000Z</time>         <extensions>           <ns3:TrackPointExtension>             <ns3:hr>116</ns3:hr>           </ns3:TrackPointExtension>         </extensions>       </trkpt>
       <trkpt lat="45.58147030882537364959716796875" lon="14.43222432397305965423583984375">         <ele>1472.199951171875</ele>         <time>2026-02-28T10:10:42.000Z</time>         <extensions>           <ns3:TrackPointExtension>             <ns3:hr>113</ns3:hr>           </ns3:TrackPointExtension>         </extensions>       </trkpt>
       <trkpt lat="45.58146477676928043365478515625" lon="14.4322430156171321868896484375">         <ele>1472.4000244140625</ele>         <time>2026-02-28T10:10:44.000Z</time>         <extensions>           <ns3:TrackPointExtension>             <ns3:hr>110</ns3:hr>           </ns3:TrackPointExtension>         </extensions>       </trkpt>
       <trkpt lat="45.5814621783792972564697265625" lon="14.43227939307689666748046875">         <ele>1472.4000244140625</ele>         <time>2026-02-28T10:10:47.000Z</time>         <extensions>           <ns3:TrackPointExtension>             <ns3:hr>109</ns3:hr>           </ns3:TrackPointExtension>         </extensions>       </trkpt>
       <trkpt lat="45.581449605524539947509765625" lon="14.43231736309826374053955078125">         <ele>1472.800048828125</ele>         <time>2026-02-28T10:10:51.000Z</time>         <extensions>           <ns3:TrackPointExtension>             <ns3:hr>109</ns3:hr>           </ns3:TrackPointExtension>         </extensions>       </trkpt>
       <trkpt lat="45.58143074624240398406982421875" lon="14.43235985934734344482421875">         <ele>1473.199951171875</ele>         <time>2026-02-28T10:10:55.000Z</time>         <extensions>           <ns3:TrackPointExtension>             <ns3:hr>108</ns3:hr>           </ns3:TrackPointExtension>         </extensions>       </trkpt>
       <trkpt lat="45.5814132280647754669189453125" lon="14.4324235618114471435546875">         <ele>1473.5999755859375</ele>         <time>2026-02-28T10:11:01.000Z</time>         <extensions>           <ns3:TrackPointExtension>             <ns3:hr>108</ns3:hr>           </ns3:TrackPointExtension>         </extensions>       </trkpt>
       <trkpt lat="45.58140107430517673492431640625" lon="14.43247494287788867950439453125">         <ele>1474</ele>         <time>2026-02-28T10:11:06.000Z</time>         <extensions>           <ns3:TrackPointExtension>             <ns3:hr>109</ns3:hr>           </ns3:TrackPointExtension>         </extensions>       </trkpt>
       <trkpt lat="45.58138883672654628753662109375" lon="14.43252892233431339263916015625">         <ele>1474.199951171875</ele>         <time>2026-02-28T10:11:11.000Z</time>         <extensions>           <ns3:TrackPointExtension>             <ns3:hr>109</ns3:hr>           </ns3:TrackPointExtension>         </extensions>       </trkpt>
       <trkpt lat="45.58139135129749774932861328125" lon="14.4325541518628597259521484375">         <ele>1474.5999755859375</ele>         <time>2026-02-28T10:11:14.000Z</time>         <extensions>           <ns3:TrackPointExtension>             <ns3:hr>109</ns3:hr>           </ns3:TrackPointExtension>         </extensions>       </trkpt>
       <trkpt lat="45.581395961344242095947265625" lon="14.4325737655162811279296875">         <ele>1474.800048828125</ele>         <time>2026-02-28T10:11:17.000Z</time>         <extensions>           <ns3:TrackPointExtension>             <ns3:hr>110</ns3:hr>           </ns3:TrackPointExtension>         </extensions>       </trkpt>
       <trkpt lat="45.58141917921602725982666015625" lon="14.4325950555503368377685546875">         <ele>1475.800048828125</ele>         <time>2026-02-28T10:11:23.000Z</time>         <extensions>           <ns3:TrackPointExtension>             <ns3:hr>111</ns3:hr>           </ns3:TrackPointExtension>         </extensions>       </trkpt>
       <trkpt lat="45.581430494785308837890625" lon="14.432579465210437774658203125">         <ele>1476.199951171875</ele>         <time>2026-02-28T10:11:27.000Z</time>         <extensions>           <ns3:TrackPointExtension>             <ns3:hr>114</ns3:hr>           </ns3:TrackPointExtension>         </extensions>       </trkpt>
       <trkpt lat="45.581432171165943145751953125" lon="14.432567059993743896484375">         <ele>1476.5999755859375</ele>         <time>2026-02-28T10:11:29.000Z</time>         <extensions>           <ns3:TrackPointExtension>             <ns3:hr>116</ns3:hr>           </ns3:TrackPointExtension>         </extensions>       </trkpt>
       <trkpt lat="45.58143493719398975372314453125" lon="14.43255758844316005706787109375">         <ele>1476.800048828125</ele>         <time>2026-02-28T10:11:30.000Z</time>         <extensions>           <ns3:TrackPointExtension>             <ns3:hr>116</ns3:hr>           </ns3:TrackPointExtension>         </extensions>       </trkpt>
       <trkpt lat="45.581442900002002716064453125" lon="14.43253462202847003936767578125">         <ele>1477</ele>         <time>2026-02-28T10:11:33.000Z</time>         <extensions>           <ns3:TrackPointExtension>             <ns3:hr>117</ns3:hr>           </ns3:TrackPointExtension>         </extensions>       </trkpt>
       <trkpt lat="45.581466369330883026123046875" lon="14.432502686977386474609375">         <ele>1477.5999755859375</ele>         <time>2026-02-28T10:11:38.000Z</time>         <extensions>           <ns3:TrackPointExtension>             <ns3:hr>120</ns3:hr>           </ns3:TrackPointExtension>         </extensions>       </trkpt>
       <trkpt lat="45.58147676289081573486328125" lon="14.432500340044498443603515625">         <ele>1477.800048828125</ele>         <time>2026-02-28T10:11:40.000Z</time>         <extensions>           <ns3:TrackPointExtension>             <ns3:hr>121</ns3:hr>           </ns3:TrackPointExtension>         </extensions>       </trkpt>
       <trkpt lat="45.58148824609816074371337890625" lon="14.43248835392296314239501953125">         <ele>1478</ele>         <time>2026-02-28T10:11:43.000Z</time>         <extensions>           <ns3:TrackPointExtension>             <ns3:hr>122</ns3:hr>           </ns3:TrackPointExtension>         </extensions>       </trkpt>
       <trkpt lat="45.5815111286938190460205078125" lon="14.43245851434767246246337890625">         <ele>1478.4000244140625</ele>         <time>2026-02-28T10:11:48.000Z</time>         <extensions>           <ns3:TrackPointExtension>             <ns3:hr>120</ns3:hr>           </ns3:TrackPointExtension>         </extensions>       </trkpt>
       <trkpt lat="45.5815188400447368621826171875" lon="14.4324471987783908843994140625">         <ele>1478.800048828125</ele>         <time>2026-02-28T10:11:50.000Z</time>         <extensions>           <ns3:TrackPointExtension>             <ns3:hr>120</ns3:hr>           </ns3:TrackPointExtension>         </extensions>       </trkpt>
       <trkpt lat="45.58154591359198093414306640625" lon="14.4324143417179584503173828125">         <ele>1479.4000244140625</ele>         <time>2026-02-28T10:11:55.000Z</time>         <extensions>           <ns3:TrackPointExtension>             <ns3:hr>120</ns3:hr>           </ns3:TrackPointExtension>         </extensions>       </trkpt>
       <trkpt lat="45.58156250976026058197021484375" lon="14.43239950574934482574462890625">         <ele>1479.800048828125</ele>         <time>2026-02-28T10:11:58.000Z</time>         <extensions>           <ns3:TrackPointExtension>             <ns3:hr>120</ns3:hr>           </ns3:TrackPointExtension>         </extensions>       </trkpt>
       <trkpt lat="45.58157491497695446014404296875" lon="14.432389698922634124755859375">         <ele>1480</ele>         <time>2026-02-28T10:12:00.000Z</time>         <extensions>           <ns3:TrackPointExtension>             <ns3:hr>120</ns3:hr>           </ns3:TrackPointExtension>         </extensions>       </trkpt>
       <trkpt lat="45.58161221444606781005859375" lon="14.43237863481044769287109375">         <ele>1480.5999755859375</ele>         <time>2026-02-28T10:12:05.000Z</time>         <extensions>           <ns3:TrackPointExtension>             <ns3:hr>121</ns3:hr>           </ns3:TrackPointExtension>         </extensions>       </trkpt>
       <trkpt lat="45.58162135072052478790283203125" lon="14.43237218074500560760498046875">         <ele>1480.800048828125</ele>         <time>2026-02-28T10:12:08.000Z</time>         <extensions>           <ns3:TrackPointExtension>             <ns3:hr>122</ns3:hr>           </ns3:TrackPointExtension>         </extensions>       </trkpt>
       <trkpt lat="45.58162369765341281890869140625" lon="14.43237117491662502288818359375">         <ele>1481</ele>         <time>2026-02-28T10:12:10.000Z</time>         <extensions>           <ns3:TrackPointExtension>             <ns3:hr>122</ns3:hr>           </ns3:TrackPointExtension>         </extensions>       </trkpt>
       <trkpt lat="45.58164699934422969818115234375" lon="14.4323690794408321380615234375">         <ele>1481.4000244140625</ele>         <time>2026-02-28T10:12:16.000Z</time>         <extensions>           <ns3:TrackPointExtension>             <ns3:hr>121</ns3:hr>           </ns3:TrackPointExtension>         </extensions>       </trkpt>
       <trkpt lat="45.58166292496025562286376953125" lon="14.43237737752497196197509765625">         <ele>1481.5999755859375</ele>         <time>2026-02-28T10:12:20.000Z</time>         <extensions>           <ns3:TrackPointExtension>             <ns3:hr>121</ns3:hr>           </ns3:TrackPointExtension>         </extensions>       </trkpt>
       <trkpt lat="45.581671558320522308349609375" lon="14.43238525651395320892333984375">         <ele>1482</ele>         <time>2026-02-28T10:12:22.000Z</time>         <extensions>           <ns3:TrackPointExtension>             <ns3:hr>121</ns3:hr>           </ns3:TrackPointExtension>         </extensions>       </trkpt>
       <trkpt lat="45.58168924413621425628662109375" lon="14.43238425068557262420654296875">         <ele>1482.199951171875</ele>         <time>2026-02-28T10:12:26.000Z</time>         <extensions>           <ns3:TrackPointExtension>             <ns3:hr>120</ns3:hr>           </ns3:TrackPointExtension>         </extensions>       </trkpt>
       <trkpt lat="45.5817246995866298675537109375" lon="14.43238760344684123992919921875">         <ele>1482.800048828125</ele>         <time>2026-02-28T10:12:32.000Z</time>         <extensions>           <ns3:TrackPointExtension>             <ns3:hr>119</ns3:hr>           </ns3:TrackPointExtension>         </extensions>       </trkpt>
       <trkpt lat="45.58173417113721370697021484375" lon="14.43239145912230014801025390625">         <ele>1483</ele>         <time>2026-02-28T10:12:34.000Z</time>         <extensions>           <ns3:TrackPointExtension>             <ns3:hr>119</ns3:hr>           </ns3:TrackPointExtension>         </extensions>       </trkpt>
       <trkpt lat="45.58173970319330692291259765625" lon="14.4323982484638690948486328125">         <ele>1483</ele>         <time>2026-02-28T10:12:36.000Z</time>         <extensions>           <ns3:TrackPointExtension>             <ns3:hr>120</ns3:hr>           </ns3:TrackPointExtension>         </extensions>       </trkpt>
       <trkpt lat="45.58175663463771343231201171875" lon="14.4324247352778911590576171875">         <ele>1483.5999755859375</ele>         <time>2026-02-28T10:12:42.000Z</time>         <extensions>           <ns3:TrackPointExtension>             <ns3:hr>119</ns3:hr>           </ns3:TrackPointExtension>         </extensions>       </trkpt>
       <trkpt lat="45.58176820166409015655517578125" lon="14.43243437446653842926025390625">         <ele>1484</ele>         <time>2026-02-28T10:12:45.000Z</time>         <extensions>           <ns3:TrackPointExtension>             <ns3:hr>119</ns3:hr>           </ns3:TrackPointExtension>         </extensions>       </trkpt>
       <trkpt lat="45.58179083280265331268310546875" lon="14.43245214410126209259033203125">         <ele>1484.4000244140625</ele>         <time>2026-02-28T10:12:48.000Z</time>         <extensions>           <ns3:TrackPointExtension>             <ns3:hr>119</ns3:hr>           </ns3:TrackPointExtension>         </extensions>       </trkpt>
       <trkpt lat="45.58183559216558933258056640625" lon="14.43246454931795597076416015625">         <ele>1485.199951171875</ele>         <time>2026-02-28T10:12:54.000Z</time>         <extensions>           <ns3:TrackPointExtension>             <ns3:hr>118</ns3:hr>           </ns3:TrackPointExtension>         </extensions>       </trkpt>
       <trkpt lat="45.58184288442134857177734375" lon="14.43246739916503429412841796875">         <ele>1485.199951171875</ele>         <time>2026-02-28T10:12:55.000Z</time>         <extensions>           <ns3:TrackPointExtension>             <ns3:hr>117</ns3:hr>           </ns3:TrackPointExtension>         </extensions>       </trkpt>
       <trkpt lat="45.58186425827443599700927734375" lon="14.4324927963316440582275390625">         <ele>1485.800048828125</ele>         <time>2026-02-28T10:13:00.000Z</time>         <extensions>           <ns3:TrackPointExtension>             <ns3:hr>115</ns3:hr>           </ns3:TrackPointExtension>         </extensions>       </trkpt>
       <trkpt lat="45.58188219554722309112548828125" lon="14.43251140415668487548828125">         <ele>1486.199951171875</ele>         <time>2026-02-28T10:13:03.000Z</time>         <extensions>           <ns3:TrackPointExtension>             <ns3:hr>113</ns3:hr>           </ns3:TrackPointExtension>         </extensions>       </trkpt>
       <trkpt lat="45.58189292438328266143798828125" lon="14.432517103850841522216796875">         <ele>1486.5999755859375</ele>         <time>2026-02-28T10:13:06.000Z</time>         <extensions>           <ns3:TrackPointExtension>             <ns3:hr>114</ns3:hr>           </ns3:TrackPointExtension>         </extensions>       </trkpt>
       <trkpt lat="45.58192946948111057281494140625" lon="14.43252892233431339263916015625">         <ele>1487.199951171875</ele>         <time>2026-02-28T10:13:13.000Z</time>         <extensions>           <ns3:TrackPointExtension>             <ns3:hr>113</ns3:hr>           </ns3:TrackPointExtension>         </extensions>       </trkpt>
       <trkpt lat="45.5819355882704257965087890625" lon="14.43253160454332828521728515625">         <ele>1487.199951171875</ele>         <time>2026-02-28T10:13:14.000Z</time>         <extensions>           <ns3:TrackPointExtension>             <ns3:hr>113</ns3:hr>           </ns3:TrackPointExtension>         </extensions>       </trkpt>
       <trkpt lat="45.58197808451950550079345703125" lon="14.43253613077104091644287109375">         <ele>1488</ele>         <time>2026-02-28T10:13:21.000Z</time>         <extensions>           <ns3:TrackPointExtension>             <ns3:hr>112</ns3:hr>           </ns3:TrackPointExtension>         </extensions>       </trkpt>
       <trkpt lat="45.5819892324507236480712890625" lon="14.43253344856202602386474609375">         <ele>1488.199951171875</ele>         <time>2026-02-28T10:13:24.000Z</time>         <extensions>           <ns3:TrackPointExtension>             <ns3:hr>112</ns3:hr>           </ns3:TrackPointExtension>         </extensions>       </trkpt>
       <trkpt lat="45.58200390078127384185791015625" lon="14.4325380586087703704833984375">         <ele>1488.4000244140625</ele>         <time>2026-02-28T10:13:26.000Z</time>         <extensions>           <ns3:TrackPointExtension>             <ns3:hr>112</ns3:hr>           </ns3:TrackPointExtension>         </extensions>       </trkpt>
       <trkpt lat="45.5820334888994693756103515625" lon="14.43254132755100727081298828125">         <ele>1488.800048828125</ele>         <time>2026-02-28T10:13:31.000Z</time>         <extensions>           <ns3:TrackPointExtension>             <ns3:hr>111</ns3:hr>           </ns3:TrackPointExtension>         </extensions>       </trkpt>
       <trkpt lat="45.58206257410347461700439453125" lon="14.43255071528255939483642578125">         <ele>1489.199951171875</ele>         <time>2026-02-28T10:13:35.000Z</time>         <extensions>           <ns3:TrackPointExtension>             <ns3:hr>115</ns3:hr>           </ns3:TrackPointExtension>         </extensions>       </trkpt>
       <trkpt lat="45.58207623660564422607421875" lon="14.432557336986064910888671875">         <ele>1489.4000244140625</ele>         <time>2026-02-28T10:13:37.000Z</time>         <extensions>           <ns3:TrackPointExtension>             <ns3:hr>117</ns3:hr>           </ns3:TrackPointExtension>         </extensions>       </trkpt>
       <trkpt lat="45.58208034373819828033447265625" lon="14.4325615279376506805419921875">         <ele>1489.5999755859375</ele>         <time>2026-02-28T10:13:38.000Z</time>         <extensions>           <ns3:TrackPointExtension>             <ns3:hr>117</ns3:hr>           </ns3:TrackPointExtension>         </extensions>       </trkpt>
       <trkpt lat="45.58212627656757831573486328125" lon="14.4325833208858966827392578125">         <ele>1490</ele>         <time>2026-02-28T10:13:44.000Z</time>         <extensions>           <ns3:TrackPointExtension>             <ns3:hr>116</ns3:hr>           </ns3:TrackPointExtension>         </extensions>       </trkpt>
       <trkpt lat="45.582153685390949249267578125" lon="14.4326064549386501312255859375">         <ele>1490.4000244140625</ele>         <time>2026-02-28T10:13:48.000Z</time>         <extensions>           <ns3:TrackPointExtension>             <ns3:hr>115</ns3:hr>           </ns3:TrackPointExtension>         </extensions>       </trkpt>
       <trkpt lat="45.58216315694153308868408203125" lon="14.43261408247053623199462890625">         <ele>1490.800048828125</ele>         <time>2026-02-28T10:13:51.000Z</time>         <extensions>           <ns3:TrackPointExtension>             <ns3:hr>115</ns3:hr>           </ns3:TrackPointExtension>         </extensions>       </trkpt>
       <trkpt lat="45.58219492435455322265625" lon="14.43264291621744632720947265625">         <ele>1491.5999755859375</ele>         <time>2026-02-28T10:13:58.000Z</time>         <extensions>           <ns3:TrackPointExtension>             <ns3:hr>114</ns3:hr>           </ns3:TrackPointExtension>         </extensions>       </trkpt>
       <trkpt lat="45.58223490603268146514892578125" lon="14.4326832331717014312744140625">         <ele>1492</ele>         <time>2026-02-28T10:14:04.000Z</time>         <extensions>           <ns3:TrackPointExtension>             <ns3:hr>114</ns3:hr>           </ns3:TrackPointExtension>         </extensions>       </trkpt>
       <trkpt lat="45.5822698585689067840576171875" lon="14.4327239692211151123046875">         <ele>1492.5999755859375</ele>         <time>2026-02-28T10:14:09.000Z</time>         <extensions>           <ns3:TrackPointExtension>             <ns3:hr>115</ns3:hr>           </ns3:TrackPointExtension>         </extensions>       </trkpt>
       <trkpt lat="45.58227480389177799224853515625" lon="14.43272857926785945892333984375">         <ele>1492.5999755859375</ele>         <time>2026-02-28T10:14:10.000Z</time>         <extensions>           <ns3:TrackPointExtension>             <ns3:hr>115</ns3:hr>           </ns3:TrackPointExtension>         </extensions>       </trkpt>
       <trkpt lat="45.5823043920099735260009765625" lon="14.43275414407253265380859375">         <ele>1493</ele>         <time>2026-02-28T10:14:15.000Z</time>         <extensions>           <ns3:TrackPointExtension>             <ns3:hr>114</ns3:hr>           </ns3:TrackPointExtension>         </extensions>       </trkpt>
       <trkpt lat="45.58234848082065582275390625" lon="14.4327928684651851654052734375">         <ele>1493.5999755859375</ele>         <time>2026-02-28T10:14:21.000Z</time>         <extensions>           <ns3:TrackPointExtension>             <ns3:hr>114</ns3:hr>           </ns3:TrackPointExtension>         </extensions>       </trkpt>
       <trkpt lat="45.582357533276081085205078125" lon="14.43279915489256381988525390625">         <ele>1493.800048828125</ele>         <time>2026-02-28T10:14:22.000Z</time>         <extensions>           <ns3:TrackPointExtension>             <ns3:hr>114</ns3:hr>           </ns3:TrackPointExtension>         </extensions>       </trkpt>
       <trkpt lat="45.5823952518403530120849609375" lon="14.43283368833363056182861328125">         <ele>1494.199951171875</ele>         <time>2026-02-28T10:14:28.000Z</time>         <extensions>           <ns3:TrackPointExtension>             <ns3:hr>112</ns3:hr>           </ns3:TrackPointExtension>         </extensions>       </trkpt>
       <trkpt lat="45.582417547702789306640625" lon="14.43285916931927204132080078125">         <ele>1494.5999755859375</ele>         <time>2026-02-28T10:14:32.000Z</time>         <extensions>           <ns3:TrackPointExtension>             <ns3:hr>113</ns3:hr>           </ns3:TrackPointExtension>         </extensions>       </trkpt>
       <trkpt lat="45.58242534287273883819580078125" lon="14.43286268971860408782958984375">         <ele>1494.800048828125</ele>         <time>2026-02-28T10:14:33.000Z</time>         <extensions>           <ns3:TrackPointExtension>             <ns3:hr>114</ns3:hr>           </ns3:TrackPointExtension>         </extensions>       </trkpt>
       <trkpt lat="45.5824576131999492645263671875" lon="14.4328887574374675750732421875">         <ele>1495.199951171875</ele>         <time>2026-02-28T10:14:38.000Z</time>         <extensions>           <ns3:TrackPointExtension>             <ns3:hr>116</ns3:hr>           </ns3:TrackPointExtension>         </extensions>       </trkpt>
       <trkpt lat="45.58249910362064838409423828125" lon="14.43290007300674915313720703125">         <ele>1495.800048828125</ele>         <time>2026-02-28T10:14:44.000Z</time>         <extensions>           <ns3:TrackPointExtension>             <ns3:hr>115</ns3:hr>           </ns3:TrackPointExtension>         </extensions>       </trkpt>
       <trkpt lat="45.5825058929622173309326171875" lon="14.43290241993963718414306640625">         <ele>1495.800048828125</ele>         <time>2026-02-28T10:14:45.000Z</time>         <extensions>           <ns3:TrackPointExtension>             <ns3:hr>115</ns3:hr>           </ns3:TrackPointExtension>         </extensions>       </trkpt>
       <trkpt lat="45.5825427733361721038818359375" lon="14.43291381932795047760009765625">         <ele>1496.4000244140625</ele>         <time>2026-02-28T10:14:51.000Z</time>         <extensions>           <ns3:TrackPointExtension>             <ns3:hr>115</ns3:hr>           </ns3:TrackPointExtension>         </extensions>       </trkpt>
       <trkpt lat="45.582584850490093231201171875" lon="14.432932846248149871826171875">         <ele>1496.800048828125</ele>         <time>2026-02-28T10:14:57.000Z</time>         <extensions>           <ns3:TrackPointExtension>             <ns3:hr>114</ns3:hr>           </ns3:TrackPointExtension>         </extensions>       </trkpt>
       <trkpt lat="45.5826014466583728790283203125" lon="14.4329383783042430877685546875">         <ele>1497</ele>         <time>2026-02-28T10:14:59.000Z</time>         <extensions>           <ns3:TrackPointExtension>             <ns3:hr>112</ns3:hr>           </ns3:TrackPointExtension>         </extensions>       </trkpt>
       <trkpt lat="45.5826389975845813751220703125" lon="14.432950280606746673583984375">         <ele>1497.5999755859375</ele>         <time>2026-02-28T10:15:04.000Z</time>         <extensions>           <ns3:TrackPointExtension>             <ns3:hr>109</ns3:hr>           </ns3:TrackPointExtension>         </extensions>       </trkpt>
       <trkpt lat="45.58267772197723388671875" lon="14.4329621829092502593994140625">         <ele>1498</ele>         <time>2026-02-28T10:15:08.000Z</time>         <extensions>           <ns3:TrackPointExtension>             <ns3:hr>109</ns3:hr>           </ns3:TrackPointExtension>         </extensions>       </trkpt>
       <trkpt lat="45.582694150507450103759765625" lon="14.43297970108687877655029296875">         <ele>1498.199951171875</ele>         <time>2026-02-28T10:15:11.000Z</time>         <extensions>           <ns3:TrackPointExtension>             <ns3:hr>110</ns3:hr>           </ns3:TrackPointExtension>         </extensions>       </trkpt>
       <trkpt lat="45.5827281810343265533447265625" lon="14.43301591090857982635498046875">         <ele>1498.4000244140625</ele>         <time>2026-02-28T10:15:17.000Z</time>         <extensions>           <ns3:TrackPointExtension>             <ns3:hr>110</ns3:hr>           </ns3:TrackPointExtension>         </extensions>       </trkpt>
       <trkpt lat="45.58275357820093631744384765625" lon="14.433028399944305419921875">         <ele>1499</ele>         <time>2026-02-28T10:15:22.000Z</time>         <extensions>           <ns3:TrackPointExtension>             <ns3:hr>112</ns3:hr>           </ns3:TrackPointExtension>         </extensions>       </trkpt>
       <trkpt lat="45.5827613733708858489990234375" lon="14.43302915431559085845947265625">         <ele>1499</ele>         <time>2026-02-28T10:15:23.000Z</time>         <extensions>           <ns3:TrackPointExtension>             <ns3:hr>112</ns3:hr>           </ns3:TrackPointExtension>         </extensions>       </trkpt>
       <trkpt lat="45.58280755765736103057861328125" lon="14.4330590777099132537841796875">         <ele>1499.4000244140625</ele>         <time>2026-02-28T10:15:29.000Z</time>         <extensions>           <ns3:TrackPointExtension>             <ns3:hr>114</ns3:hr>           </ns3:TrackPointExtension>         </extensions>       </trkpt>
       <trkpt lat="45.58285139501094818115234375" lon="14.43309000693261623382568359375">         <ele>1500</ele>         <time>2026-02-28T10:15:35.000Z</time>         <extensions>           <ns3:TrackPointExtension>             <ns3:hr>112</ns3:hr>           </ns3:TrackPointExtension>         </extensions>       </trkpt>
       <trkpt lat="45.58287058956921100616455078125" lon="14.43311464972794055938720703125">         <ele>1500.199951171875</ele>         <time>2026-02-28T10:15:39.000Z</time>         <extensions>           <ns3:TrackPointExtension>             <ns3:hr>113</ns3:hr>           </ns3:TrackPointExtension>         </extensions>       </trkpt>
       <trkpt lat="45.5829018540680408477783203125" lon="14.433152116835117340087890625">         <ele>1500.800048828125</ele>         <time>2026-02-28T10:15:45.000Z</time>         <extensions>           <ns3:TrackPointExtension>             <ns3:hr>112</ns3:hr>           </ns3:TrackPointExtension>         </extensions>       </trkpt>
       <trkpt lat="45.58293462730944156646728515625" lon="14.4331804476678371429443359375">         <ele>1501.199951171875</ele>         <time>2026-02-28T10:15:51.000Z</time>         <extensions>           <ns3:TrackPointExtension>             <ns3:hr>112</ns3:hr>           </ns3:TrackPointExtension>         </extensions>       </trkpt>
       <trkpt lat="45.5829417519271373748779296875" lon="14.4331868179142475128173828125">         <ele>1501.199951171875</ele>         <time>2026-02-28T10:15:52.000Z</time>         <extensions>           <ns3:TrackPointExtension>             <ns3:hr>111</ns3:hr>           </ns3:TrackPointExtension>         </extensions>       </trkpt>
       <trkpt lat="45.58299397118389606475830078125" lon="14.433239288628101348876953125">         <ele>1501.5999755859375</ele>         <time>2026-02-28T10:15:59.000Z</time>         <extensions>           <ns3:TrackPointExtension>             <ns3:hr>111</ns3:hr>           </ns3:TrackPointExtension>         </extensions>       </trkpt>
       <trkpt lat="45.58302079327404499053955078125" lon="14.43327122367918491363525390625">         <ele>1502</ele>         <time>2026-02-28T10:16:04.000Z</time>         <extensions>           <ns3:TrackPointExtension>             <ns3:hr>111</ns3:hr>           </ns3:TrackPointExtension>         </extensions>       </trkpt>
       <trkpt lat="45.58302565477788448333740234375" lon="14.4332756660878658294677734375">         <ele>1502.199951171875</ele>         <time>2026-02-28T10:16:05.000Z</time>         <extensions>           <ns3:TrackPointExtension>             <ns3:hr>111</ns3:hr>           </ns3:TrackPointExtension>         </extensions>       </trkpt>
       <trkpt lat="45.58306940831243991851806640625" lon="14.4333219341933727264404296875">         <ele>1502.5999755859375</ele>         <time>2026-02-28T10:16:11.000Z</time>         <extensions>           <ns3:TrackPointExtension>             <ns3:hr>110</ns3:hr>           </ns3:TrackPointExtension>         </extensions>       </trkpt>
       <trkpt lat="45.58309203945100307464599609375" lon="14.4333568029105663299560546875">         <ele>1503</ele>         <time>2026-02-28T10:16:17.000Z</time>         <extensions>           <ns3:TrackPointExtension>             <ns3:hr>111</ns3:hr>           </ns3:TrackPointExtension>         </extensions>       </trkpt>
       <trkpt lat="45.583099834620952606201171875" lon="14.43336275406181812286376953125">         <ele>1503.199951171875</ele>         <time>2026-02-28T10:16:18.000Z</time>         <extensions>           <ns3:TrackPointExtension>             <ns3:hr>111</ns3:hr>           </ns3:TrackPointExtension>         </extensions>       </trkpt>
       <trkpt lat="45.583136379718780517578125" lon="14.4333863072097301483154296875">         <ele>1503.5999755859375</ele>         <time>2026-02-28T10:16:23.000Z</time>         <extensions>           <ns3:TrackPointExtension>             <ns3:hr>113</ns3:hr>           </ns3:TrackPointExtension>         </extensions>       </trkpt>
       <trkpt lat="45.5831767804920673370361328125" lon="14.4334017299115657806396484375">         <ele>1504</ele>         <time>2026-02-28T10:16:28.000Z</time>         <extensions>           <ns3:TrackPointExtension>             <ns3:hr>115</ns3:hr>           </ns3:TrackPointExtension>         </extensions>       </trkpt>
       <trkpt lat="45.58319044299423694610595703125" lon="14.43340701051056385040283203125">         <ele>1504.199951171875</ele>         <time>2026-02-28T10:16:30.000Z</time>         <extensions>           <ns3:TrackPointExtension>             <ns3:hr>115</ns3:hr>           </ns3:TrackPointExtension>         </extensions>       </trkpt>
       <trkpt lat="45.58321743272244930267333984375" lon="14.43342897109687328338623046875">         <ele>1504.800048828125</ele>         <time>2026-02-28T10:16:35.000Z</time>         <extensions>           <ns3:TrackPointExtension>             <ns3:hr>117</ns3:hr>           </ns3:TrackPointExtension>         </extensions>       </trkpt>
       <trkpt lat="45.58324224315583705902099609375" lon="14.433444477617740631103515625">         <ele>1505.199951171875</ele>         <time>2026-02-28T10:16:39.000Z</time>         <extensions>           <ns3:TrackPointExtension>             <ns3:hr>117</ns3:hr>           </ns3:TrackPointExtension>         </extensions>       </trkpt>
       <trkpt lat="45.58324567973613739013671875" lon="14.43344883620738983154296875">         <ele>1505.4000244140625</ele>         <time>2026-02-28T10:16:40.000Z</time>         <extensions>           <ns3:TrackPointExtension>             <ns3:hr>117</ns3:hr>           </ns3:TrackPointExtension>         </extensions>       </trkpt>
       <trkpt lat="45.583254732191562652587890625" lon="14.43347021006047725677490234375">         <ele>1506</ele>         <time>2026-02-28T10:16:46.000Z</time>         <extensions>           <ns3:TrackPointExtension>             <ns3:hr>117</ns3:hr>           </ns3:TrackPointExtension>         </extensions>       </trkpt>
       <trkpt lat="45.5832686461508274078369140625" lon="14.43348445929586887359619140625">         <ele>1506.4000244140625</ele>         <time>2026-02-28T10:16:49.000Z</time>         <extensions>           <ns3:TrackPointExtension>             <ns3:hr>116</ns3:hr>           </ns3:TrackPointExtension>         </extensions>       </trkpt>
       <trkpt lat="45.583297312259674072265625" lon="14.4335049949586391448974609375">         <ele>1506.800048828125</ele>         <time>2026-02-28T10:16:53.000Z</time>         <extensions>           <ns3:TrackPointExtension>             <ns3:hr>115</ns3:hr>           </ns3:TrackPointExtension>         </extensions>       </trkpt>
       <trkpt lat="45.58333461172878742218017578125" lon="14.43354883231222629547119140625">         <ele>1507.4000244140625</ele>         <time>2026-02-28T10:16:59.000Z</time>         <extensions>           <ns3:TrackPointExtension>             <ns3:hr>114</ns3:hr>           </ns3:TrackPointExtension>         </extensions>       </trkpt>
       <trkpt lat="45.583343915641307830810546875" lon="14.4335596449673175811767578125">         <ele>1507.4000244140625</ele>         <time>2026-02-28T10:17:00.000Z</time>         <extensions>           <ns3:TrackPointExtension>             <ns3:hr>114</ns3:hr>           </ns3:TrackPointExtension>         </extensions>       </trkpt>
       <trkpt lat="45.583364032208919525146484375" lon="14.433593340218067169189453125">         <ele>1507.800048828125</ele>         <time>2026-02-28T10:17:05.000Z</time>         <extensions>           <ns3:TrackPointExtension>             <ns3:hr>114</ns3:hr>           </ns3:TrackPointExtension>         </extensions>       </trkpt>
       <trkpt lat="45.58339579962193965911865234375" lon="14.43361421115696430206298828125">         <ele>1508.4000244140625</ele>         <time>2026-02-28T10:17:10.000Z</time>         <extensions>           <ns3:TrackPointExtension>             <ns3:hr>113</ns3:hr>           </ns3:TrackPointExtension>         </extensions>       </trkpt>
       <trkpt lat="45.5834300816059112548828125" lon="14.43363499827682971954345703125">         <ele>1509.199951171875</ele>         <time>2026-02-28T10:17:16.000Z</time>         <extensions>           <ns3:TrackPointExtension>             <ns3:hr>113</ns3:hr>           </ns3:TrackPointExtension>         </extensions>       </trkpt>
       <trkpt lat="45.58342949487268924713134765625" lon="14.4336280412971973419189453125">         <ele>1509.4000244140625</ele>         <time>2026-02-28T10:17:19.000Z</time>         <extensions>           <ns3:TrackPointExtension>             <ns3:hr>113</ns3:hr>           </ns3:TrackPointExtension>         </extensions>       </trkpt>
       <trkpt lat="45.58341407217085361480712890625" lon="14.4336199946701526641845703125">         <ele>1509.4000244140625</ele>         <time>2026-02-28T10:17:24.000Z</time>         <extensions>           <ns3:TrackPointExtension>             <ns3:hr>114</ns3:hr>           </ns3:TrackPointExtension>         </extensions>       </trkpt>
       <trkpt lat="45.58339831419289112091064453125" lon="14.4336189888417720794677734375">         <ele>1509.4000244140625</ele>         <time>2026-02-28T10:17:32.000Z</time>         <extensions>           <ns3:TrackPointExtension>             <ns3:hr>111</ns3:hr>           </ns3:TrackPointExtension>         </extensions>       </trkpt>
       <trkpt lat="45.583408959209918975830078125" lon="14.43362359888851642608642578125">         <ele>1509.5999755859375</ele>         <time>2026-02-28T10:17:34.000Z</time>         <extensions>           <ns3:TrackPointExtension>             <ns3:hr>111</ns3:hr>           </ns3:TrackPointExtension>         </extensions>       </trkpt>
       <trkpt lat="45.583449192345142364501953125" lon="14.43365058861672878265380859375">         <ele>1510</ele>         <time>2026-02-28T10:17:40.000Z</time>         <extensions>           <ns3:TrackPointExtension>             <ns3:hr>111</ns3:hr>           </ns3:TrackPointExtension>         </extensions>       </trkpt>
       <trkpt lat="45.58348615653812885284423828125" lon="14.4336681067943572998046875">         <ele>1510.4000244140625</ele>         <time>2026-02-28T10:17:44.000Z</time>         <extensions>           <ns3:TrackPointExtension>             <ns3:hr>110</ns3:hr>           </ns3:TrackPointExtension>         </extensions>       </trkpt>
       <trkpt lat="45.583493448793888092041015625" lon="14.433672465384006500244140625">         <ele>1510.5999755859375</ele>         <time>2026-02-28T10:17:45.000Z</time>         <extensions>           <ns3:TrackPointExtension>             <ns3:hr>110</ns3:hr>           </ns3:TrackPointExtension>         </extensions>       </trkpt>
       <trkpt lat="45.583543740212917327880859375" lon="14.4337056577205657958984375">         <ele>1511.4000244140625</ele>         <time>2026-02-28T10:17:53.000Z</time>         <extensions>           <ns3:TrackPointExtension>             <ns3:hr>110</ns3:hr>           </ns3:TrackPointExtension>         </extensions>       </trkpt>
       <trkpt lat="45.58358766138553619384765625" lon="14.4337539374828338623046875">         <ele>1512.4000244140625</ele>         <time>2026-02-28T10:18:02.000Z</time>         <extensions>           <ns3:TrackPointExtension>             <ns3:hr>109</ns3:hr>           </ns3:TrackPointExtension>         </extensions>       </trkpt>
       <trkpt lat="45.58359461836516857147216796875" lon="14.43375754170119762420654296875">         <ele>1512.5999755859375</ele>         <time>2026-02-28T10:18:03.000Z</time>         <extensions>           <ns3:TrackPointExtension>             <ns3:hr>109</ns3:hr>           </ns3:TrackPointExtension>         </extensions>       </trkpt>
       <trkpt lat="45.58361087925732135772705078125" lon="14.43377078510820865631103515625">         <ele>1513.199951171875</ele>         <time>2026-02-28T10:18:08.000Z</time>         <extensions>           <ns3:TrackPointExtension>             <ns3:hr>108</ns3:hr>           </ns3:TrackPointExtension>         </extensions>       </trkpt>
       <trkpt lat="45.5836320854723453521728515625" lon="14.43379475735127925872802734375">         <ele>1513.5999755859375</ele>         <time>2026-02-28T10:18:13.000Z</time>         <extensions>           <ns3:TrackPointExtension>             <ns3:hr>108</ns3:hr>           </ns3:TrackPointExtension>         </extensions>       </trkpt>
       <trkpt lat="45.58364130556583404541015625" lon="14.43380598910152912139892578125">         <ele>1514</ele>         <time>2026-02-28T10:18:15.000Z</time>         <extensions>           <ns3:TrackPointExtension>             <ns3:hr>109</ns3:hr>           </ns3:TrackPointExtension>         </extensions>       </trkpt>
       <trkpt lat="45.5836760066449642181396484375" lon="14.43384018726646900177001953125">         <ele>1514.5999755859375</ele>         <time>2026-02-28T10:18:21.000Z</time>         <extensions>           <ns3:TrackPointExtension>             <ns3:hr>111</ns3:hr>           </ns3:TrackPointExtension>         </extensions>       </trkpt>
       <trkpt lat="45.58368279598653316497802734375" lon="14.43384773097932338714599609375">         <ele>1515</ele>         <time>2026-02-28T10:18:23.000Z</time>         <extensions>           <ns3:TrackPointExtension>             <ns3:hr>112</ns3:hr>           </ns3:TrackPointExtension>         </extensions>       </trkpt>
       <trkpt lat="45.5837199278175830841064453125" lon="14.43387262523174285888671875">         <ele>1515.5999755859375</ele>         <time>2026-02-28T10:18:28.000Z</time>         <extensions>           <ns3:TrackPointExtension>             <ns3:hr>115</ns3:hr>           </ns3:TrackPointExtension>         </extensions>       </trkpt>
       <trkpt lat="45.583728142082691192626953125" lon="14.43387933075428009033203125">         <ele>1515.800048828125</ele>         <time>2026-02-28T10:18:29.000Z</time>         <extensions>           <ns3:TrackPointExtension>             <ns3:hr>115</ns3:hr>           </ns3:TrackPointExtension>         </extensions>       </trkpt>
       <trkpt lat="45.5837366916239261627197265625" lon="14.43388603627681732177734375">         <ele>1515.800048828125</ele>         <time>2026-02-28T10:18:30.000Z</time>         <extensions>           <ns3:TrackPointExtension>             <ns3:hr>115</ns3:hr>           </ns3:TrackPointExtension>         </extensions>       </trkpt>
       <trkpt lat="45.583757646381855010986328125" lon="14.433894418179988861083984375">         <ele>1516.199951171875</ele>         <time>2026-02-28T10:18:34.000Z</time>         <extensions>           <ns3:TrackPointExtension>             <ns3:hr>114</ns3:hr>           </ns3:TrackPointExtension>         </extensions>       </trkpt>
       <trkpt lat="45.58377063833177089691162109375" lon="14.433904476463794708251953125">         <ele>1516.800048828125</ele>         <time>2026-02-28T10:18:39.000Z</time>         <extensions>           <ns3:TrackPointExtension>             <ns3:hr>113</ns3:hr>           </ns3:TrackPointExtension>         </extensions>       </trkpt>
       <trkpt lat="45.5837816186249256134033203125" lon="14.4339140318334102630615234375">         <ele>1517.199951171875</ele>         <time>2026-02-28T10:18:42.000Z</time>         <extensions>           <ns3:TrackPointExtension>             <ns3:hr>113</ns3:hr>           </ns3:TrackPointExtension>         </extensions>       </trkpt>
       <trkpt lat="45.5838101170957088470458984375" lon="14.43392802961170673370361328125">         <ele>1518</ele>         <time>2026-02-28T10:18:46.000Z</time>         <extensions>           <ns3:TrackPointExtension>             <ns3:hr>116</ns3:hr>           </ns3:TrackPointExtension>         </extensions>       </trkpt>
       <trkpt lat="45.5838208459317684173583984375" lon="14.43393054418265819549560546875">         <ele>1518.199951171875</ele>         <time>2026-02-28T10:18:48.000Z</time>         <extensions>           <ns3:TrackPointExtension>             <ns3:hr>116</ns3:hr>           </ns3:TrackPointExtension>         </extensions>       </trkpt>
       <trkpt lat="45.58384473435580730438232421875" lon="14.43395099602639675140380859375">         <ele>1518.800048828125</ele>         <time>2026-02-28T10:18:53.000Z</time>         <extensions>           <ns3:TrackPointExtension>             <ns3:hr>117</ns3:hr>           </ns3:TrackPointExtension>         </extensions>       </trkpt>
       <trkpt lat="45.5838503502309322357177734375" lon="14.433954767882823944091796875">         <ele>1519</ele>         <time>2026-02-28T10:18:54.000Z</time>         <extensions>           <ns3:TrackPointExtension>             <ns3:hr>117</ns3:hr>           </ns3:TrackPointExtension>         </extensions>       </trkpt>
       <trkpt lat="45.58388798497617244720458984375" lon="14.43395636044442653656005859375">         <ele>1519.5999755859375</ele>         <time>2026-02-28T10:19:00.000Z</time>         <extensions>           <ns3:TrackPointExtension>             <ns3:hr>119</ns3:hr>           </ns3:TrackPointExtension>         </extensions>       </trkpt>
       <trkpt lat="45.5839043296873569488525390625" lon="14.433962143957614898681640625">         <ele>1520.199951171875</ele>         <time>2026-02-28T10:19:03.000Z</time>         <extensions>           <ns3:TrackPointExtension>             <ns3:hr>119</ns3:hr>           </ns3:TrackPointExtension>         </extensions>       </trkpt>
       <trkpt lat="45.5839174054563045501708984375" lon="14.4339703582227230072021484375">         <ele>1520.4000244140625</ele>         <time>2026-02-28T10:19:06.000Z</time>         <extensions>           <ns3:TrackPointExtension>             <ns3:hr>120</ns3:hr>           </ns3:TrackPointExtension>         </extensions>       </trkpt>
       <trkpt lat="45.58396023698151111602783203125" lon="14.43399340845644474029541015625">         <ele>1521.199951171875</ele>         <time>2026-02-28T10:19:12.000Z</time>         <extensions>           <ns3:TrackPointExtension>             <ns3:hr>119</ns3:hr>           </ns3:TrackPointExtension>         </extensions>       </trkpt>
       <trkpt lat="45.58396358974277973175048828125" lon="14.4339968450367450714111328125">         <ele>1521.4000244140625</ele>         <time>2026-02-28T10:19:13.000Z</time>         <extensions>           <ns3:TrackPointExtension>             <ns3:hr>120</ns3:hr>           </ns3:TrackPointExtension>         </extensions>       </trkpt>
       <trkpt lat="45.58399158529937267303466796875" lon="14.4340136088430881500244140625">         <ele>1522.199951171875</ele>         <time>2026-02-28T10:19:21.000Z</time>         <extensions>           <ns3:TrackPointExtension>             <ns3:hr>121</ns3:hr>           </ns3:TrackPointExtension>         </extensions>       </trkpt>
       <trkpt lat="45.58399611152708530426025390625" lon="14.43401754833757877349853515625">         <ele>1522.4000244140625</ele>         <time>2026-02-28T10:19:22.000Z</time>         <extensions>           <ns3:TrackPointExtension>             <ns3:hr>121</ns3:hr>           </ns3:TrackPointExtension>         </extensions>       </trkpt>
       <trkpt lat="45.584035925567150115966796875" lon="14.43404562771320343017578125">         <ele>1522.800048828125</ele>         <time>2026-02-28T10:19:29.000Z</time>         <extensions>           <ns3:TrackPointExtension>             <ns3:hr>122</ns3:hr>           </ns3:TrackPointExtension>         </extensions>       </trkpt>
       <trkpt lat="45.58404439128935337066650390625" lon="14.43405509926378726959228515625">         <ele>1523.4000244140625</ele>         <time>2026-02-28T10:19:32.000Z</time>         <extensions>           <ns3:TrackPointExtension>             <ns3:hr>122</ns3:hr>           </ns3:TrackPointExtension>         </extensions>       </trkpt>
       <trkpt lat="45.58406651951372623443603515625" lon="14.43406297825276851654052734375">         <ele>1524</ele>         <time>2026-02-28T10:19:37.000Z</time>         <extensions>           <ns3:TrackPointExtension>             <ns3:hr>122</ns3:hr>           </ns3:TrackPointExtension>         </extensions>       </trkpt>
       <trkpt lat="45.58407557196915149688720703125" lon="14.43405912257730960845947265625">         <ele>1524.4000244140625</ele>         <time>2026-02-28T10:19:40.000Z</time>         <extensions>           <ns3:TrackPointExtension>             <ns3:hr>121</ns3:hr>           </ns3:TrackPointExtension>         </extensions>       </trkpt>
       <trkpt lat="45.58408630080521106719970703125" lon="14.43406767211854457855224609375">         <ele>1525</ele>         <time>2026-02-28T10:19:43.000Z</time>         <extensions>           <ns3:TrackPointExtension>             <ns3:hr>120</ns3:hr>           </ns3:TrackPointExtension>         </extensions>       </trkpt>
       <trkpt lat="45.58409702964127063751220703125" lon="14.434077478945255279541015625">         <ele>1525.5999755859375</ele>         <time>2026-02-28T10:19:46.000Z</time>         <extensions>           <ns3:TrackPointExtension>             <ns3:hr>119</ns3:hr>           </ns3:TrackPointExtension>         </extensions>       </trkpt>
       <trkpt lat="45.58411714620888233184814453125" lon="14.43408594466745853424072265625">         <ele>1526.199951171875</ele>         <time>2026-02-28T10:19:50.000Z</time>         <extensions>           <ns3:TrackPointExtension>             <ns3:hr>119</ns3:hr>           </ns3:TrackPointExtension>         </extensions>       </trkpt>
       <trkpt lat="45.58412653394043445587158203125" lon="14.43409658968448638916015625">         <ele>1526.5999755859375</ele>         <time>2026-02-28T10:19:54.000Z</time>         <extensions>           <ns3:TrackPointExtension>             <ns3:hr>119</ns3:hr>           </ns3:TrackPointExtension>         </extensions>       </trkpt>
       <trkpt lat="45.5841500870883464813232421875" lon="14.43410086445510387420654296875">         <ele>1527</ele>         <time>2026-02-28T10:19:57.000Z</time>         <extensions>           <ns3:TrackPointExtension>             <ns3:hr>119</ns3:hr>           </ns3:TrackPointExtension>         </extensions>       </trkpt>
       <trkpt lat="45.584163665771484375" lon="14.43410933017730712890625">         <ele>1527.5999755859375</ele>         <time>2026-02-28T10:20:00.000Z</time>         <extensions>           <ns3:TrackPointExtension>             <ns3:hr>119</ns3:hr>           </ns3:TrackPointExtension>         </extensions>       </trkpt>
       <trkpt lat="45.58417397551238536834716796875" lon="14.4341195560991764068603515625">         <ele>1528</ele>         <time>2026-02-28T10:20:02.000Z</time>         <extensions>           <ns3:TrackPointExtension>             <ns3:hr>119</ns3:hr>           </ns3:TrackPointExtension>         </extensions>       </trkpt>
       <trkpt lat="45.58422376401722431182861328125" lon="14.434143193066120147705078125">         <ele>1528.800048828125</ele>         <time>2026-02-28T10:20:07.000Z</time>         <extensions>           <ns3:TrackPointExtension>             <ns3:hr>119</ns3:hr>           </ns3:TrackPointExtension>         </extensions>       </trkpt>
       <trkpt lat="45.584239102900028228759765625" lon="14.43414411507546901702880859375">         <ele>1529</ele>         <time>2026-02-28T10:20:09.000Z</time>         <extensions>           <ns3:TrackPointExtension>             <ns3:hr>120</ns3:hr>           </ns3:TrackPointExtension>         </extensions>       </trkpt>
       <trkpt lat="45.58426248840987682342529296875" lon="14.4341517426073551177978515625">         <ele>1529.800048828125</ele>         <time>2026-02-28T10:20:15.000Z</time>         <extensions>           <ns3:TrackPointExtension>             <ns3:hr>121</ns3:hr>           </ns3:TrackPointExtension>         </extensions>       </trkpt>
       <trkpt lat="45.5842694453895092010498046875" lon="14.43415434099733829498291015625">         <ele>1530</ele>         <time>2026-02-28T10:20:16.000Z</time>         <extensions>           <ns3:TrackPointExtension>             <ns3:hr>122</ns3:hr>           </ns3:TrackPointExtension>         </extensions>       </trkpt>
       <trkpt lat="45.584296770393848419189453125" lon="14.43417261354625225067138671875">         <ele>1530.5999755859375</ele>         <time>2026-02-28T10:20:22.000Z</time>         <extensions>           <ns3:TrackPointExtension>             <ns3:hr>123</ns3:hr>           </ns3:TrackPointExtension>         </extensions>       </trkpt>
       <trkpt lat="45.58431143872439861297607421875" lon="14.4341845996677875518798828125">         <ele>1531</ele>         <time>2026-02-28T10:20:24.000Z</time>         <extensions>           <ns3:TrackPointExtension>             <ns3:hr>124</ns3:hr>           </ns3:TrackPointExtension>         </extensions>       </trkpt>
       <trkpt lat="45.58431990444660186767578125" lon="14.4341993518173694610595703125">         <ele>1531.4000244140625</ele>         <time>2026-02-28T10:20:27.000Z</time>         <extensions>           <ns3:TrackPointExtension>             <ns3:hr>123</ns3:hr>           </ns3:TrackPointExtension>         </extensions>       </trkpt>
       <trkpt lat="45.58433339931070804595947265625" lon="14.43421049974858760833740234375">         <ele>1532</ele>         <time>2026-02-28T10:20:31.000Z</time>         <extensions>           <ns3:TrackPointExtension>             <ns3:hr>123</ns3:hr>           </ns3:TrackPointExtension>         </extensions>       </trkpt>
       <trkpt lat="45.584338009357452392578125" lon="14.43421385250985622406005859375">         <ele>1532</ele>         <time>2026-02-28T10:20:32.000Z</time>         <extensions>           <ns3:TrackPointExtension>             <ns3:hr>124</ns3:hr>           </ns3:TrackPointExtension>         </extensions>       </trkpt>
       <trkpt lat="45.5843619816005229949951171875" lon="14.434221647679805755615234375">         <ele>1532.5999755859375</ele>         <time>2026-02-28T10:20:38.000Z</time>         <extensions>           <ns3:TrackPointExtension>             <ns3:hr>126</ns3:hr>           </ns3:TrackPointExtension>         </extensions>       </trkpt>
       <trkpt lat="45.584378577768802642822265625" lon="14.43421971984207630157470703125">         <ele>1533</ele>         <time>2026-02-28T10:20:42.000Z</time>         <extensions>           <ns3:TrackPointExtension>             <ns3:hr>125</ns3:hr>           </ns3:TrackPointExtension>         </extensions>       </trkpt>
       <trkpt lat="45.58438989333808422088623046875" lon="14.43422374315559864044189453125">         <ele>1533.4000244140625</ele>         <time>2026-02-28T10:20:45.000Z</time>         <extensions>           <ns3:TrackPointExtension>             <ns3:hr>123</ns3:hr>           </ns3:TrackPointExtension>         </extensions>       </trkpt>
       <trkpt lat="45.58441068045794963836669921875" lon="14.43423070013523101806640625">         <ele>1533.800048828125</ele>         <time>2026-02-28T10:20:49.000Z</time>         <extensions>           <ns3:TrackPointExtension>             <ns3:hr>120</ns3:hr>           </ns3:TrackPointExtension>         </extensions>       </trkpt>
       <trkpt lat="45.584418140351772308349609375" lon="14.4342288561165332794189453125">         <ele>1534.199951171875</ele>         <time>2026-02-28T10:20:51.000Z</time>         <extensions>           <ns3:TrackPointExtension>             <ns3:hr>120</ns3:hr>           </ns3:TrackPointExtension>         </extensions>       </trkpt>
       <trkpt lat="45.58444806374609470367431640625" lon="14.4342328794300556182861328125">         <ele>1534.5999755859375</ele>         <time>2026-02-28T10:20:57.000Z</time>         <extensions>           <ns3:TrackPointExtension>             <ns3:hr>121</ns3:hr>           </ns3:TrackPointExtension>         </extensions>       </trkpt>
       <trkpt lat="45.58447974734008312225341796875" lon="14.43424813449382781982421875">         <ele>1535</ele>         <time>2026-02-28T10:21:04.000Z</time>         <extensions>           <ns3:TrackPointExtension>             <ns3:hr>120</ns3:hr>           </ns3:TrackPointExtension>         </extensions>       </trkpt>
       <trkpt lat="45.58448393829166889190673828125" lon="14.43425090052187442779541015625">         <ele>1535.199951171875</ele>         <time>2026-02-28T10:21:05.000Z</time>         <extensions>           <ns3:TrackPointExtension>             <ns3:hr>120</ns3:hr>           </ns3:TrackPointExtension>         </extensions>       </trkpt>
       <trkpt lat="45.5845024622976779937744140625" lon="14.43426397629082202911376953125">         <ele>1535.5999755859375</ele>         <time>2026-02-28T10:21:09.000Z</time>         <extensions>           <ns3:TrackPointExtension>             <ns3:hr>120</ns3:hr>           </ns3:TrackPointExtension>         </extensions>       </trkpt>
       <trkpt lat="45.58452215977013111114501953125" lon="14.43427763879299163818359375">         <ele>1536.199951171875</ele>         <time>2026-02-28T10:21:14.000Z</time>         <extensions>           <ns3:TrackPointExtension>             <ns3:hr>119</ns3:hr>           </ns3:TrackPointExtension>         </extensions>       </trkpt>
       <trkpt lat="45.58453557081520557403564453125" lon="14.43428493104875087738037109375">         <ele>1536.4000244140625</ele>         <time>2026-02-28T10:21:17.000Z</time>         <extensions>           <ns3:TrackPointExtension>             <ns3:hr>117</ns3:hr>           </ns3:TrackPointExtension>         </extensions>       </trkpt>
       <trkpt lat="45.58456239290535449981689453125" lon="14.43428928963840007781982421875">         <ele>1536.800048828125</ele>         <time>2026-02-28T10:21:23.000Z</time>         <extensions>           <ns3:TrackPointExtension>             <ns3:hr>116</ns3:hr>           </ns3:TrackPointExtension>         </extensions>       </trkpt>
       <trkpt lat="45.584577731788158416748046875" lon="14.43430085666477680206298828125">         <ele>1537.199951171875</ele>         <time>2026-02-28T10:21:26.000Z</time>         <extensions>           <ns3:TrackPointExtension>             <ns3:hr>116</ns3:hr>           </ns3:TrackPointExtension>         </extensions>       </trkpt>
       <trkpt lat="45.58459575287997722625732421875" lon="14.43430571816861629486083984375">         <ele>1537.5999755859375</ele>         <time>2026-02-28T10:21:29.000Z</time>         <extensions>           <ns3:TrackPointExtension>             <ns3:hr>117</ns3:hr>           </ns3:TrackPointExtension>         </extensions>       </trkpt>
       <trkpt lat="45.58462726883590221405029296875" lon="14.4343160279095172882080078125">         <ele>1538.4000244140625</ele>         <time>2026-02-28T10:21:34.000Z</time>         <extensions>           <ns3:TrackPointExtension>             <ns3:hr>116</ns3:hr>           </ns3:TrackPointExtension>         </extensions>       </trkpt>
       <trkpt lat="45.58464202098548412322998046875" lon="14.43432449363172054290771484375">         <ele>1538.5999755859375</ele>         <time>2026-02-28T10:21:36.000Z</time>         <extensions>           <ns3:TrackPointExtension>             <ns3:hr>117</ns3:hr>           </ns3:TrackPointExtension>         </extensions>       </trkpt>
       <trkpt lat="45.58467202819883823394775390625" lon="14.4343455322086811065673828125">         <ele>1539.199951171875</ele>         <time>2026-02-28T10:21:41.000Z</time>         <extensions>           <ns3:TrackPointExtension>             <ns3:hr>117</ns3:hr>           </ns3:TrackPointExtension>         </extensions>       </trkpt>
       <trkpt lat="45.5846851877868175506591796875" lon="14.43435810506343841552734375">         <ele>1539.4000244140625</ele>         <time>2026-02-28T10:21:43.000Z</time>         <extensions>           <ns3:TrackPointExtension>             <ns3:hr>117</ns3:hr>           </ns3:TrackPointExtension>         </extensions>       </trkpt>
       <trkpt lat="45.58470748364925384521484375" lon="14.4343850947916507720947265625">         <ele>1539.5999755859375</ele>         <time>2026-02-28T10:21:49.000Z</time>         <extensions>           <ns3:TrackPointExtension>             <ns3:hr>116</ns3:hr>           </ns3:TrackPointExtension>         </extensions>       </trkpt>
       <trkpt lat="45.58474369347095489501953125" lon="14.43440378643572330474853515625">         <ele>1540.199951171875</ele>         <time>2026-02-28T10:21:54.000Z</time>         <extensions>           <ns3:TrackPointExtension>             <ns3:hr>116</ns3:hr>           </ns3:TrackPointExtension>         </extensions>       </trkpt>
       <trkpt lat="45.58474838733673095703125" lon="14.43441443145275115966796875">         <ele>1540.4000244140625</ele>         <time>2026-02-28T10:21:55.000Z</time>         <extensions>           <ns3:TrackPointExtension>             <ns3:hr>116</ns3:hr>           </ns3:TrackPointExtension>         </extensions>       </trkpt>
       <trkpt lat="45.58474947698414325714111328125" lon="14.434418119490146636962890625">         <ele>1540.5999755859375</ele>         <time>2026-02-28T10:21:56.000Z</time>         <extensions>           <ns3:TrackPointExtension>             <ns3:hr>115</ns3:hr>           </ns3:TrackPointExtension>         </extensions>       </trkpt>
       <trkpt lat="45.58474293909966945648193359375" lon="14.434413425624370574951171875">         <ele>1540.5999755859375</ele>         <time>2026-02-28T10:21:58.000Z</time>         <extensions>           <ns3:TrackPointExtension>             <ns3:hr>119</ns3:hr>           </ns3:TrackPointExtension>         </extensions>       </trkpt>
       <trkpt lat="45.58473941870033740997314453125" lon="14.43441283889114856719970703125">         <ele>1540.800048828125</ele>         <time>2026-02-28T10:21:59.000Z</time>         <extensions>           <ns3:TrackPointExtension>             <ns3:hr>120</ns3:hr>           </ns3:TrackPointExtension>         </extensions>       </trkpt>
       <trkpt lat="45.58475132100284099578857421875" lon="14.43439540453255176544189453125">         <ele>1541</ele>         <time>2026-02-28T10:22:06.000Z</time>         <extensions>           <ns3:TrackPointExtension>             <ns3:hr>117</ns3:hr>           </ns3:TrackPointExtension>         </extensions>       </trkpt>
       <trkpt lat="45.5847604572772979736328125" lon="14.43439473398029804229736328125">         <ele>1541.199951171875</ele>         <time>2026-02-28T10:22:08.000Z</time>         <extensions>           <ns3:TrackPointExtension>             <ns3:hr>117</ns3:hr>           </ns3:TrackPointExtension>         </extensions>       </trkpt>
       <trkpt lat="45.58479733765125274658203125" lon="14.43440236151218414306640625">         <ele>1541.5999755859375</ele>         <time>2026-02-28T10:22:13.000Z</time>         <extensions>           <ns3:TrackPointExtension>             <ns3:hr>115</ns3:hr>           </ns3:TrackPointExtension>         </extensions>       </trkpt>
       <trkpt lat="45.58483086526393890380859375" lon="14.43441585637629032135009765625">         <ele>1542.199951171875</ele>         <time>2026-02-28T10:22:19.000Z</time>         <extensions>           <ns3:TrackPointExtension>             <ns3:hr>114</ns3:hr>           </ns3:TrackPointExtension>         </extensions>       </trkpt>
       <trkpt lat="45.58486967347562313079833984375" lon="14.4344397448003292083740234375">         <ele>1542.5999755859375</ele>         <time>2026-02-28T10:22:23.000Z</time>         <extensions>           <ns3:TrackPointExtension>             <ns3:hr>115</ns3:hr>           </ns3:TrackPointExtension>         </extensions>       </trkpt>
       <trkpt lat="45.58488476090133190155029296875" lon="14.43445005454123020172119140625">         <ele>1543</ele>         <time>2026-02-28T10:22:26.000Z</time>         <extensions>           <ns3:TrackPointExtension>             <ns3:hr>114</ns3:hr>           </ns3:TrackPointExtension>         </extensions>       </trkpt>
       <trkpt lat="45.58492097072303295135498046875" lon="14.43447670899331569671630859375">         <ele>1543.5999755859375</ele>         <time>2026-02-28T10:22:32.000Z</time>         <extensions>           <ns3:TrackPointExtension>             <ns3:hr>114</ns3:hr>           </ns3:TrackPointExtension>         </extensions>       </trkpt>
       <trkpt lat="45.58494728989899158477783203125" lon="14.43449967540800571441650390625">         <ele>1543.800048828125</ele>         <time>2026-02-28T10:22:35.000Z</time>         <extensions>           <ns3:TrackPointExtension>             <ns3:hr>113</ns3:hr>           </ns3:TrackPointExtension>         </extensions>       </trkpt>
       <trkpt lat="45.58497126214206218719482421875" lon="14.4345156848430633544921875">         <ele>1544.199951171875</ele>         <time>2026-02-28T10:22:38.000Z</time>         <extensions>           <ns3:TrackPointExtension>             <ns3:hr>114</ns3:hr>           </ns3:TrackPointExtension>         </extensions>       </trkpt>
       <trkpt lat="45.58501685969531536102294921875" lon="14.43454585969448089599609375">         <ele>1544.5999755859375</ele>         <time>2026-02-28T10:22:45.000Z</time>         <extensions>           <ns3:TrackPointExtension>             <ns3:hr>113</ns3:hr>           </ns3:TrackPointExtension>         </extensions>       </trkpt>
       <trkpt lat="45.5850194580852985382080078125" lon="14.4345510564744472503662109375">         <ele>1544.800048828125</ele>         <time>2026-02-28T10:22:46.000Z</time>         <extensions>           <ns3:TrackPointExtension>             <ns3:hr>113</ns3:hr>           </ns3:TrackPointExtension>         </extensions>       </trkpt>
       <trkpt lat="45.58503228239715099334716796875" lon="14.43456807173788547515869140625">         <ele>1545</ele>         <time>2026-02-28T10:22:49.000Z</time>         <extensions>           <ns3:TrackPointExtension>             <ns3:hr>118</ns3:hr>           </ns3:TrackPointExtension>         </extensions>       </trkpt>
       <trkpt lat="45.58504384942352771759033203125" lon="14.43458667956292629241943359375">         <ele>1545.199951171875</ele>         <time>2026-02-28T10:22:51.000Z</time>         <extensions>           <ns3:TrackPointExtension>             <ns3:hr>119</ns3:hr>           </ns3:TrackPointExtension>         </extensions>       </trkpt>
       <trkpt lat="45.5850975774228572845458984375" lon="14.434640742838382720947265625">         <ele>1545.800048828125</ele>         <time>2026-02-28T10:22:58.000Z</time>         <extensions>           <ns3:TrackPointExtension>             <ns3:hr>119</ns3:hr>           </ns3:TrackPointExtension>         </extensions>       </trkpt>
       <trkpt lat="45.58510067872703075408935546875" lon="14.43464803509414196014404296875">         <ele>1546</ele>         <time>2026-02-28T10:22:59.000Z</time>         <extensions>           <ns3:TrackPointExtension>             <ns3:hr>119</ns3:hr>           </ns3:TrackPointExtension>         </extensions>       </trkpt>
       <trkpt lat="45.58512565679848194122314453125" lon="14.4346734322607517242431640625">         <ele>1546.5999755859375</ele>         <time>2026-02-28T10:23:05.000Z</time>         <extensions>           <ns3:TrackPointExtension>             <ns3:hr>119</ns3:hr>           </ns3:TrackPointExtension>         </extensions>       </trkpt>
       <trkpt lat="45.5851374752819538116455078125" lon="14.43468156270682811737060546875">         <ele>1547</ele>         <time>2026-02-28T10:23:07.000Z</time>         <extensions>           <ns3:TrackPointExtension>             <ns3:hr>118</ns3:hr>           </ns3:TrackPointExtension>         </extensions>       </trkpt>
       <trkpt lat="45.5851522274315357208251953125" lon="14.43469882942736148834228515625">         <ele>1547.199951171875</ele>         <time>2026-02-28T10:23:11.000Z</time>         <extensions>           <ns3:TrackPointExtension>             <ns3:hr>119</ns3:hr>           </ns3:TrackPointExtension>         </extensions>       </trkpt>
       <trkpt lat="45.58517158962786197662353515625" lon="14.4347294233739376068115234375">         <ele>1547.800048828125</ele>         <time>2026-02-28T10:23:16.000Z</time>         <extensions>           <ns3:TrackPointExtension>             <ns3:hr>116</ns3:hr>           </ns3:TrackPointExtension>         </extensions>       </trkpt>
       <trkpt lat="45.58517678640782833099365234375" lon="14.43473872728645801544189453125">         <ele>1548</ele>         <time>2026-02-28T10:23:17.000Z</time>         <extensions>           <ns3:TrackPointExtension>             <ns3:hr>117</ns3:hr>           </ns3:TrackPointExtension>         </extensions>       </trkpt>
       <trkpt lat="45.58518818579614162445068359375" lon="14.43475364707410335540771484375">         <ele>1548.199951171875</ele>         <time>2026-02-28T10:23:19.000Z</time>         <extensions>           <ns3:TrackPointExtension>             <ns3:hr>120</ns3:hr>           </ns3:TrackPointExtension>         </extensions>       </trkpt>
       <trkpt lat="45.58520847000181674957275390625" lon="14.43476621992886066436767578125">         <ele>1548.800048828125</ele>         <time>2026-02-28T10:23:24.000Z</time>         <extensions>           <ns3:TrackPointExtension>             <ns3:hr>123</ns3:hr>           </ns3:TrackPointExtension>         </extensions>       </trkpt>
       <trkpt lat="45.58521400205790996551513671875" lon="14.43477275781333446502685546875">         <ele>1549</ele>         <time>2026-02-28T10:23:26.000Z</time>         <extensions>           <ns3:TrackPointExtension>             <ns3:hr>122</ns3:hr>           </ns3:TrackPointExtension>         </extensions>       </trkpt>
       <trkpt lat="45.5852239765226840972900390625" lon="14.43478449247777462005615234375">         <ele>1549.4000244140625</ele>         <time>2026-02-28T10:23:29.000Z</time>         <extensions>           <ns3:TrackPointExtension>             <ns3:hr>121</ns3:hr>           </ns3:TrackPointExtension>         </extensions>       </trkpt>
       <trkpt lat="45.5852484516799449920654296875" lon="14.43478700704872608184814453125">         <ele>1550.199951171875</ele>         <time>2026-02-28T10:23:35.000Z</time>         <extensions>           <ns3:TrackPointExtension>             <ns3:hr>121</ns3:hr>           </ns3:TrackPointExtension>         </extensions>       </trkpt>
       <trkpt lat="45.585255660116672515869140625" lon="14.43478994071483612060546875">         <ele>1550.199951171875</ele>         <time>2026-02-28T10:23:36.000Z</time>         <extensions>           <ns3:TrackPointExtension>             <ns3:hr>120</ns3:hr>           </ns3:TrackPointExtension>         </extensions>       </trkpt>
       <trkpt lat="45.58529748581349849700927734375" lon="14.43481265567243099212646484375">         <ele>1551.199951171875</ele>         <time>2026-02-28T10:23:42.000Z</time>         <extensions>           <ns3:TrackPointExtension>             <ns3:hr>120</ns3:hr>           </ns3:TrackPointExtension>         </extensions>       </trkpt>
       <trkpt lat="45.58530201204121112823486328125" lon="14.4348135776817798614501953125">         <ele>1551.199951171875</ele>         <time>2026-02-28T10:23:43.000Z</time>         <extensions>           <ns3:TrackPointExtension>             <ns3:hr>121</ns3:hr>           </ns3:TrackPointExtension>         </extensions>       </trkpt>
       <trkpt lat="45.58533838950097560882568359375" lon="14.43484568037092685699462890625">         <ele>1552</ele>         <time>2026-02-28T10:23:49.000Z</time>         <extensions>           <ns3:TrackPointExtension>             <ns3:hr>122</ns3:hr>           </ns3:TrackPointExtension>         </extensions>       </trkpt>
       <trkpt lat="45.58536202646791934967041015625" lon="14.43485724739730358123779296875">         <ele>1552.4000244140625</ele>         <time>2026-02-28T10:23:53.000Z</time>         <extensions>           <ns3:TrackPointExtension>             <ns3:hr>123</ns3:hr>           </ns3:TrackPointExtension>         </extensions>       </trkpt>
       <trkpt lat="45.5853701569139957427978515625" lon="14.43486596457660198211669921875">         <ele>1552.5999755859375</ele>         <time>2026-02-28T10:23:56.000Z</time>         <extensions>           <ns3:TrackPointExtension>             <ns3:hr>124</ns3:hr>           </ns3:TrackPointExtension>         </extensions>       </trkpt>
       <trkpt lat="45.585394464433193206787109375" lon="14.4348886795341968536376953125">         <ele>1553</ele>         <time>2026-02-28T10:24:01.000Z</time>         <extensions>           <ns3:TrackPointExtension>             <ns3:hr>123</ns3:hr>           </ns3:TrackPointExtension>         </extensions>       </trkpt>
       <trkpt lat="45.58540561236441135406494140625" lon="14.4348943792283535003662109375">         <ele>1553.4000244140625</ele>         <time>2026-02-28T10:24:04.000Z</time>         <extensions>           <ns3:TrackPointExtension>             <ns3:hr>123</ns3:hr>           </ns3:TrackPointExtension>         </extensions>       </trkpt>
       <trkpt lat="45.585427321493625640869140625" lon="14.4349087961018085479736328125">         <ele>1553.800048828125</ele>         <time>2026-02-28T10:24:08.000Z</time>         <extensions>           <ns3:TrackPointExtension>             <ns3:hr>124</ns3:hr>           </ns3:TrackPointExtension>         </extensions>       </trkpt>
       <trkpt lat="45.58542338199913501739501953125" lon="14.434911310672760009765625">         <ele>1554</ele>         <time>2026-02-28T10:24:13.000Z</time>         <extensions>           <ns3:TrackPointExtension>             <ns3:hr>123</ns3:hr>           </ns3:TrackPointExtension>         </extensions>       </trkpt>
       <trkpt lat="45.5854291655123233795166015625" lon="14.43490083329379558563232421875">         <ele>1554.4000244140625</ele>         <time>2026-02-28T10:24:18.000Z</time>         <extensions>           <ns3:TrackPointExtension>             <ns3:hr>121</ns3:hr>           </ns3:TrackPointExtension>         </extensions>       </trkpt>
       <trkpt lat="45.58543436229228973388671875" lon="14.434897564351558685302734375">         <ele>1554.199951171875</ele>         <time>2026-02-28T10:24:22.000Z</time>         <extensions>           <ns3:TrackPointExtension>             <ns3:hr>120</ns3:hr>           </ns3:TrackPointExtension>         </extensions>       </trkpt>
       <trkpt lat="45.5854444205760955810546875" lon="14.4348943792283535003662109375">         <ele>1554</ele>         <time>2026-02-28T10:24:27.000Z</time>         <extensions>           <ns3:TrackPointExtension>             <ns3:hr>117</ns3:hr>           </ns3:TrackPointExtension>         </extensions>       </trkpt>
       <trkpt lat="45.58544768951833248138427734375" lon="14.4348977319896221160888671875">         <ele>1554</ele>         <time>2026-02-28T10:24:28.000Z</time>         <extensions>           <ns3:TrackPointExtension>             <ns3:hr>117</ns3:hr>           </ns3:TrackPointExtension>         </extensions>       </trkpt>
       <trkpt lat="45.58548138476908206939697265625" lon="14.43491910584270954132080078125">         <ele>1554.199951171875</ele>         <time>2026-02-28T10:24:33.000Z</time>         <extensions>           <ns3:TrackPointExtension>             <ns3:hr>116</ns3:hr>           </ns3:TrackPointExtension>         </extensions>       </trkpt>
       <trkpt lat="45.58553167618811130523681640625" lon="14.43495481275022029876708984375">         <ele>1555</ele>         <time>2026-02-28T10:24:40.000Z</time>         <extensions>           <ns3:TrackPointExtension>             <ns3:hr>116</ns3:hr>           </ns3:TrackPointExtension>         </extensions>       </trkpt>
       <trkpt lat="45.5855498649179935455322265625" lon="14.434958584606647491455078125">         <ele>1555.4000244140625</ele>         <time>2026-02-28T10:24:43.000Z</time>         <extensions>           <ns3:TrackPointExtension>             <ns3:hr>116</ns3:hr>           </ns3:TrackPointExtension>         </extensions>       </trkpt>
       <trkpt lat="45.585566461086273193359375" lon="14.434965290129184722900390625">         <ele>1555.5999755859375</ele>         <time>2026-02-28T10:24:45.000Z</time>         <extensions>           <ns3:TrackPointExtension>             <ns3:hr>116</ns3:hr>           </ns3:TrackPointExtension>         </extensions>       </trkpt>
       <trkpt lat="45.585597641766071319580078125" lon="14.43499102257192134857177734375">         <ele>1556.4000244140625</ele>         <time>2026-02-28T10:24:51.000Z</time>         <extensions>           <ns3:TrackPointExtension>             <ns3:hr>115</ns3:hr>           </ns3:TrackPointExtension>         </extensions>       </trkpt>
       <trkpt lat="45.5856038443744182586669921875" lon="14.43499512970447540283203125">         <ele>1556.4000244140625</ele>         <time>2026-02-28T10:24:52.000Z</time>         <extensions>           <ns3:TrackPointExtension>             <ns3:hr>115</ns3:hr>           </ns3:TrackPointExtension>         </extensions>       </trkpt>
       <trkpt lat="45.58563209138810634613037109375" lon="14.43501482717692852020263671875">         <ele>1557</ele>         <time>2026-02-28T10:24:57.000Z</time>         <extensions>           <ns3:TrackPointExtension>             <ns3:hr>113</ns3:hr>           </ns3:TrackPointExtension>         </extensions>       </trkpt>
       <trkpt lat="45.58567517437040805816650390625" lon="14.43504449911415576934814453125">         <ele>1557.5999755859375</ele>         <time>2026-02-28T10:25:03.000Z</time>         <extensions>           <ns3:TrackPointExtension>             <ns3:hr>112</ns3:hr>           </ns3:TrackPointExtension>         </extensions>       </trkpt>
       <trkpt lat="45.585719011723995208740234375" lon="14.43506780080497264862060546875">         <ele>1558</ele>         <time>2026-02-28T10:25:10.000Z</time>         <extensions>           <ns3:TrackPointExtension>             <ns3:hr>114</ns3:hr>           </ns3:TrackPointExtension>         </extensions>       </trkpt>
       <trkpt lat="45.58575346134603023529052734375" lon="14.43509034812450408935546875">         <ele>1558.5999755859375</ele>         <time>2026-02-28T10:25:15.000Z</time>         <extensions>           <ns3:TrackPointExtension>             <ns3:hr>114</ns3:hr>           </ns3:TrackPointExtension>         </extensions>       </trkpt>
       <trkpt lat="45.5857698060572147369384765625" lon="14.43510954268276691436767578125">         <ele>1559.5999755859375</ele>         <time>2026-02-28T10:25:21.000Z</time>         <extensions>           <ns3:TrackPointExtension>             <ns3:hr>115</ns3:hr>           </ns3:TrackPointExtension>         </extensions>       </trkpt>
       <trkpt lat="45.5857731588184833526611328125" lon="14.4351123087108135223388671875">         <ele>1559.5999755859375</ele>         <time>2026-02-28T10:25:22.000Z</time>         <extensions>           <ns3:TrackPointExtension>             <ns3:hr>115</ns3:hr>           </ns3:TrackPointExtension>         </extensions>       </trkpt>
       <trkpt lat="45.5857825465500354766845703125" lon="14.435124211013317108154296875">         <ele>1559.5999755859375</ele>         <time>2026-02-28T10:25:27.000Z</time>         <extensions>           <ns3:TrackPointExtension>             <ns3:hr>116</ns3:hr>           </ns3:TrackPointExtension>         </extensions>       </trkpt>
       <trkpt lat="45.5857939459383487701416015625" lon="14.4351299107074737548828125">         <ele>1559.4000244140625</ele>         <time>2026-02-28T10:25:30.000Z</time>         <extensions>           <ns3:TrackPointExtension>             <ns3:hr>119</ns3:hr>           </ns3:TrackPointExtension>         </extensions>       </trkpt>
       <trkpt lat="45.58580945245921611785888671875" lon="14.435134939849376678466796875">         <ele>1559.5999755859375</ele>         <time>2026-02-28T10:25:33.000Z</time>         <extensions>           <ns3:TrackPointExtension>             <ns3:hr>119</ns3:hr>           </ns3:TrackPointExtension>         </extensions>       </trkpt>
       <trkpt lat="45.58583208359777927398681640625" lon="14.43515111692249774932861328125">         <ele>1560.800048828125</ele>         <time>2026-02-28T10:25:38.000Z</time>         <extensions>           <ns3:TrackPointExtension>             <ns3:hr>118</ns3:hr>           </ns3:TrackPointExtension>         </extensions>       </trkpt>
       <trkpt lat="45.58583845384418964385986328125" lon="14.435155726969242095947265625">         <ele>1561</ele>         <time>2026-02-28T10:25:39.000Z</time>         <extensions>           <ns3:TrackPointExtension>             <ns3:hr>118</ns3:hr>           </ns3:TrackPointExtension>         </extensions>       </trkpt>
       <trkpt lat="45.58586963452398777008056640625" lon="14.43518598563969135284423828125">         <ele>1561.199951171875</ele>         <time>2026-02-28T10:25:45.000Z</time>         <extensions>           <ns3:TrackPointExtension>             <ns3:hr>115</ns3:hr>           </ns3:TrackPointExtension>         </extensions>       </trkpt>
       <trkpt lat="45.58588824234902858734130859375" lon="14.43522043526172637939453125">         <ele>1561.800048828125</ele>         <time>2026-02-28T10:25:50.000Z</time>         <extensions>           <ns3:TrackPointExtension>             <ns3:hr>115</ns3:hr>           </ns3:TrackPointExtension>         </extensions>       </trkpt>
       <trkpt lat="45.58589360676705837249755859375" lon="14.43522571586072444915771484375">         <ele>1562</ele>         <time>2026-02-28T10:25:51.000Z</time>         <extensions>           <ns3:TrackPointExtension>             <ns3:hr>115</ns3:hr>           </ns3:TrackPointExtension>         </extensions>       </trkpt>
       <trkpt lat="45.58590349741280078887939453125" lon="14.435261674225330352783203125">         <ele>1562.5999755859375</ele>         <time>2026-02-28T10:25:57.000Z</time>         <extensions>           <ns3:TrackPointExtension>             <ns3:hr>115</ns3:hr>           </ns3:TrackPointExtension>         </extensions>       </trkpt>
       <trkpt lat="45.58590835891664028167724609375" lon="14.4352779351174831390380859375">         <ele>1562.800048828125</ele>         <time>2026-02-28T10:26:03.000Z</time>         <extensions>           <ns3:TrackPointExtension>             <ns3:hr>114</ns3:hr>           </ns3:TrackPointExtension>         </extensions>       </trkpt>
       <trkpt lat="45.58590131811797618865966796875" lon="14.4352809526026248931884765625">         <ele>1562.4000244140625</ele>         <time>2026-02-28T10:26:10.000Z</time>         <extensions>           <ns3:TrackPointExtension>             <ns3:hr>117</ns3:hr>           </ns3:TrackPointExtension>         </extensions>       </trkpt>
       <trkpt lat="45.5859005637466907501220703125" lon="14.435281120240688323974609375">         <ele>1561.800048828125</ele>         <time>2026-02-28T10:26:15.000Z</time>         <extensions>           <ns3:TrackPointExtension>             <ns3:hr>119</ns3:hr>           </ns3:TrackPointExtension>         </extensions>       </trkpt>
       <trkpt lat="45.58590014465153217315673828125" lon="14.43527684547007083892822265625">         <ele>1562.199951171875</ele>         <time>2026-02-28T10:26:25.000Z</time>         <extensions>           <ns3:TrackPointExtension>             <ns3:hr>113</ns3:hr>           </ns3:TrackPointExtension>         </extensions>       </trkpt>
       <trkpt lat="45.58590316213667392730712890625" lon="14.4352799467742443084716796875">         <ele>1562</ele>         <time>2026-02-28T10:26:35.000Z</time>         <extensions>           <ns3:TrackPointExtension>             <ns3:hr>110</ns3:hr>           </ns3:TrackPointExtension>         </extensions>       </trkpt>
       <trkpt lat="45.5859029106795787811279296875" lon="14.43528086878359317779541015625">         <ele>1562</ele>         <time>2026-02-28T10:26:37.000Z</time>         <extensions>           <ns3:TrackPointExtension>             <ns3:hr>106</ns3:hr>           </ns3:TrackPointExtension>         </extensions>       </trkpt>
       <trkpt lat="45.585902072489261627197265625" lon="14.43528153933584690093994140625">         <ele>1562</ele>         <time>2026-02-28T10:26:38.000Z</time>         <extensions>           <ns3:TrackPointExtension>             <ns3:hr>102</ns3:hr>           </ns3:TrackPointExtension>         </extensions>       </trkpt>
       <trkpt lat="45.5859008990228176116943359375" lon="14.43527868948876857757568359375">         <ele>1561.800048828125</ele>         <time>2026-02-28T10:26:39.000Z</time>         <extensions>           <ns3:TrackPointExtension>             <ns3:hr>99</ns3:hr>           </ns3:TrackPointExtension>         </extensions>       </trkpt>
       <trkpt lat="45.585900731384754180908203125" lon="14.43527634255588054656982421875">         <ele>1561.800048828125</ele>         <time>2026-02-28T10:26:41.000Z</time>         <extensions>           <ns3:TrackPointExtension>             <ns3:hr>93</ns3:hr>           </ns3:TrackPointExtension>         </extensions>       </trkpt>
       <trkpt lat="45.58589930646121501922607421875" lon="14.43527047522366046905517578125">         <ele>1562.199951171875</ele>         <time>2026-02-28T10:26:52.000Z</time>         <extensions>           <ns3:TrackPointExtension>             <ns3:hr>92</ns3:hr>           </ns3:TrackPointExtension>         </extensions>       </trkpt>
       <trkpt lat="45.585924871265888214111328125" lon="14.4353107921779155731201171875">         <ele>1562.5999755859375</ele>         <time>2026-02-28T10:27:00.000Z</time>         <extensions>           <ns3:TrackPointExtension>             <ns3:hr>93</ns3:hr>           </ns3:TrackPointExtension>         </extensions>       </trkpt>
       <trkpt lat="45.58592696674168109893798828125" lon="14.43532747216522693634033203125">         <ele>1562.4000244140625</ele>         <time>2026-02-28T10:27:09.000Z</time>         <extensions>           <ns3:TrackPointExtension>             <ns3:hr>91</ns3:hr>           </ns3:TrackPointExtension>         </extensions>       </trkpt>
       <trkpt lat="45.5859406292438507080078125" lon="14.4353577308356761932373046875">         <ele>1563</ele>         <time>2026-02-28T10:27:13.000Z</time>         <extensions>           <ns3:TrackPointExtension>             <ns3:hr>90</ns3:hr>           </ns3:TrackPointExtension>         </extensions>       </trkpt>
       <trkpt lat="45.58594456873834133148193359375" lon="14.435371644794940948486328125">         <ele>1563.199951171875</ele>         <time>2026-02-28T10:27:15.000Z</time>         <extensions>           <ns3:TrackPointExtension>             <ns3:hr>90</ns3:hr>           </ns3:TrackPointExtension>         </extensions>       </trkpt>
       <trkpt lat="45.58595730923116207122802734375" lon="14.435410201549530029296875">         <ele>1564</ele>         <time>2026-02-28T10:27:21.000Z</time>         <extensions>           <ns3:TrackPointExtension>             <ns3:hr>89</ns3:hr>           </ns3:TrackPointExtension>         </extensions>       </trkpt>
       <trkpt lat="45.5859575606882572174072265625" lon="14.43542084656655788421630859375">         <ele>1564</ele>         <time>2026-02-28T10:27:22.000Z</time>         <extensions>           <ns3:TrackPointExtension>             <ns3:hr>86</ns3:hr>           </ns3:TrackPointExtension>         </extensions>       </trkpt>
       <trkpt lat="45.585957728326320648193359375" lon="14.4354271329939365386962890625">         <ele>1564.199951171875</ele>         <time>2026-02-28T10:27:23.000Z</time>         <extensions>           <ns3:TrackPointExtension>             <ns3:hr>83</ns3:hr>           </ns3:TrackPointExtension>         </extensions>       </trkpt>
       <trkpt lat="45.58595915324985980987548828125" lon="14.4354371912777423858642578125">         <ele>1564.199951171875</ele>         <time>2026-02-28T10:27:24.000Z</time>         <extensions>           <ns3:TrackPointExtension>             <ns3:hr>78</ns3:hr>           </ns3:TrackPointExtension>         </extensions>       </trkpt>
       <trkpt lat="45.58596099726855754852294921875" lon="14.435446076095104217529296875">         <ele>1564.4000244140625</ele>         <time>2026-02-28T10:27:25.000Z</time>         <extensions>           <ns3:TrackPointExtension>             <ns3:hr>73</ns3:hr>           </ns3:TrackPointExtension>         </extensions>       </trkpt>
       <trkpt lat="45.585961751639842987060546875" lon="14.435453116893768310546875">         <ele>1564.5999755859375</ele>         <time>2026-02-28T10:27:26.000Z</time>         <extensions>           <ns3:TrackPointExtension>             <ns3:hr>63</ns3:hr>           </ns3:TrackPointExtension>         </extensions>       </trkpt>
       <trkpt lat="45.58596485294401645660400390625" lon="14.435464851558208465576171875">         <ele>1564.800048828125</ele>         <time>2026-02-28T10:27:27.000Z</time>         <extensions>           <ns3:TrackPointExtension>             <ns3:hr>56</ns3:hr>           </ns3:TrackPointExtension>         </extensions>       </trkpt>
       <trkpt lat="45.58596502058207988739013671875" lon="14.43547834642231464385986328125">         <ele>1565</ele>         <time>2026-02-28T10:27:29.000Z</time>         <extensions>           <ns3:TrackPointExtension>             <ns3:hr>53</ns3:hr>           </ns3:TrackPointExtension>         </extensions>       </trkpt>
       <trkpt lat="45.58597273193299770355224609375" lon="14.43551388569176197052001953125">         <ele>1565.199951171875</ele>         <time>2026-02-28T10:27:33.000Z</time>         <extensions>           <ns3:TrackPointExtension>             <ns3:hr>54</ns3:hr>           </ns3:TrackPointExtension>         </extensions>       </trkpt>
       <trkpt lat="45.58597474358975887298583984375" lon="14.43552084267139434814453125">         <ele>1565.4000244140625</ele>         <time>2026-02-28T10:27:34.000Z</time>         <extensions>           <ns3:TrackPointExtension>             <ns3:hr>58</ns3:hr>           </ns3:TrackPointExtension>         </extensions>       </trkpt>
       <trkpt lat="45.5859736539423465728759765625" lon="14.435525871813297271728515625">         <ele>1565.4000244140625</ele>         <time>2026-02-28T10:27:35.000Z</time>         <extensions>           <ns3:TrackPointExtension>             <ns3:hr>62</ns3:hr>           </ns3:TrackPointExtension>         </extensions>       </trkpt>
       <trkpt lat="45.58597574941813945770263671875" lon="14.4355360977351665496826171875">         <ele>1565.5999755859375</ele>         <time>2026-02-28T10:27:36.000Z</time>         <extensions>           <ns3:TrackPointExtension>             <ns3:hr>66</ns3:hr>           </ns3:TrackPointExtension>         </extensions>       </trkpt>
       <trkpt lat="45.585979521274566650390625" lon="14.4355518557131290435791015625">         <ele>1565.5999755859375</ele>         <time>2026-02-28T10:27:37.000Z</time>         <extensions>           <ns3:TrackPointExtension>             <ns3:hr>69</ns3:hr>           </ns3:TrackPointExtension>         </extensions>       </trkpt>
       <trkpt lat="45.5859827063977718353271484375" lon="14.4355644285678863525390625">         <ele>1565.800048828125</ele>         <time>2026-02-28T10:27:39.000Z</time>         <extensions>           <ns3:TrackPointExtension>             <ns3:hr>74</ns3:hr>           </ns3:TrackPointExtension>         </extensions>       </trkpt>
       <trkpt lat="45.58598262257874011993408203125" lon="14.43556702695786952972412109375">         <ele>1566</ele>         <time>2026-02-28T10:27:40.000Z</time>         <extensions>           <ns3:TrackPointExtension>             <ns3:hr>78</ns3:hr>           </ns3:TrackPointExtension>         </extensions>       </trkpt>
       <trkpt lat="45.58598396368324756622314453125" lon="14.43557473830878734588623046875">         <ele>1566</ele>         <time>2026-02-28T10:27:41.000Z</time>         <extensions>           <ns3:TrackPointExtension>             <ns3:hr>80</ns3:hr>           </ns3:TrackPointExtension>         </extensions>       </trkpt>
       <trkpt lat="45.5859867297112941741943359375" lon="14.43559016101062297821044921875">         <ele>1566.4000244140625</ele>         <time>2026-02-28T10:27:43.000Z</time>         <extensions>           <ns3:TrackPointExtension>             <ns3:hr>85</ns3:hr>           </ns3:TrackPointExtension>         </extensions>       </trkpt>
       <trkpt lat="45.5859867297112941741943359375" lon="14.4355992972850799560546875">         <ele>1566.4000244140625</ele>         <time>2026-02-28T10:27:44.000Z</time>         <extensions>           <ns3:TrackPointExtension>             <ns3:hr>89</ns3:hr>           </ns3:TrackPointExtension>         </extensions>       </trkpt>
       <trkpt lat="45.585987567901611328125" lon="14.43561069667339324951171875">         <ele>1566.5999755859375</ele>         <time>2026-02-28T10:27:45.000Z</time>         <extensions>           <ns3:TrackPointExtension>             <ns3:hr>90</ns3:hr>           </ns3:TrackPointExtension>         </extensions>       </trkpt>
       <trkpt lat="45.585986562073230743408203125" lon="14.43562704138457775115966796875">         <ele>1566.800048828125</ele>         <time>2026-02-28T10:27:47.000Z</time>         <extensions>           <ns3:TrackPointExtension>             <ns3:hr>93</ns3:hr>           </ns3:TrackPointExtension>         </extensions>       </trkpt>
       <trkpt lat="45.585987567901611328125" lon="14.4356350041925907135009765625">         <ele>1566.800048828125</ele>         <time>2026-02-28T10:27:48.000Z</time>         <extensions>           <ns3:TrackPointExtension>             <ns3:hr>97</ns3:hr>           </ns3:TrackPointExtension>         </extensions>       </trkpt>
       <trkpt lat="45.5859880708158016204833984375" lon="14.43564045242965221405029296875">         <ele>1567</ele>         <time>2026-02-28T10:27:49.000Z</time>         <extensions>           <ns3:TrackPointExtension>             <ns3:hr>101</ns3:hr>           </ns3:TrackPointExtension>         </extensions>       </trkpt>
       <trkpt lat="45.58599083684384822845458984375" lon="14.43564799614250659942626953125">         <ele>1567</ele>         <time>2026-02-28T10:27:50.000Z</time>         <extensions>           <ns3:TrackPointExtension>             <ns3:hr>103</ns3:hr>           </ns3:TrackPointExtension>         </extensions>       </trkpt>
       <trkpt lat="45.58599092066287994384765625" lon="14.43566844798624515533447265625">         <ele>1567.4000244140625</ele>         <time>2026-02-28T10:27:52.000Z</time>         <extensions>           <ns3:TrackPointExtension>             <ns3:hr>105</ns3:hr>           </ns3:TrackPointExtension>         </extensions>       </trkpt>
       <trkpt lat="45.58598832227289676666259765625" lon="14.43568739108741283416748046875">         <ele>1567.5999755859375</ele>         <time>2026-02-28T10:27:54.000Z</time>         <extensions>           <ns3:TrackPointExtension>             <ns3:hr>110</ns3:hr>           </ns3:TrackPointExtension>         </extensions>       </trkpt>
       <trkpt lat="45.5859889090061187744140625" lon="14.43570457398891448974609375">         <ele>1567.800048828125</ele>         <time>2026-02-28T10:27:57.000Z</time>         <extensions>           <ns3:TrackPointExtension>             <ns3:hr>113</ns3:hr>           </ns3:TrackPointExtension>         </extensions>       </trkpt>
       <trkpt lat="45.585989244282245635986328125" lon="14.43572812713682651519775390625">         <ele>1568.199951171875</ele>         <time>2026-02-28T10:28:01.000Z</time>         <extensions>           <ns3:TrackPointExtension>             <ns3:hr>114</ns3:hr>           </ns3:TrackPointExtension>         </extensions>       </trkpt>
       <trkpt lat="45.58598865754902362823486328125" lon="14.4357429631054401397705078125">         <ele>1568.4000244140625</ele>         <time>2026-02-28T10:28:03.000Z</time>         <extensions>           <ns3:TrackPointExtension>             <ns3:hr>115</ns3:hr>           </ns3:TrackPointExtension>         </extensions>       </trkpt>
       <trkpt lat="45.58598580770194530487060546875" lon="14.435796104371547698974609375">         <ele>1568.800048828125</ele>         <time>2026-02-28T10:28:10.000Z</time>         <extensions>           <ns3:TrackPointExtension>             <ns3:hr>117</ns3:hr>           </ns3:TrackPointExtension>         </extensions>       </trkpt>
       <trkpt lat="45.58598161675035953521728515625" lon="14.43584346212446689605712890625">         <ele>1569.199951171875</ele>         <time>2026-02-28T10:28:15.000Z</time>         <extensions>           <ns3:TrackPointExtension>             <ns3:hr>117</ns3:hr>           </ns3:TrackPointExtension>         </extensions>       </trkpt>
       <trkpt lat="45.58598228730261325836181640625" lon="14.43585016764700412750244140625">         <ele>1569.199951171875</ele>         <time>2026-02-28T10:28:16.000Z</time>         <extensions>           <ns3:TrackPointExtension>             <ns3:hr>118</ns3:hr>           </ns3:TrackPointExtension>         </extensions>       </trkpt>
       <trkpt lat="45.58597122319042682647705078125" lon="14.43589643575251102447509765625">         <ele>1569.800048828125</ele>         <time>2026-02-28T10:28:22.000Z</time>         <extensions>           <ns3:TrackPointExtension>             <ns3:hr>118</ns3:hr>           </ns3:TrackPointExtension>         </extensions>       </trkpt>
       <trkpt lat="45.58596317656338214874267578125" lon="14.43594153039157390594482421875">         <ele>1570.4000244140625</ele>         <time>2026-02-28T10:28:28.000Z</time>         <extensions>           <ns3:TrackPointExtension>             <ns3:hr>117</ns3:hr>           </ns3:TrackPointExtension>         </extensions>       </trkpt>
       <trkpt lat="45.585956387221813201904296875" lon="14.4359800033271312713623046875">         <ele>1570.800048828125</ele>         <time>2026-02-28T10:28:34.000Z</time>         <extensions>           <ns3:TrackPointExtension>             <ns3:hr>118</ns3:hr>           </ns3:TrackPointExtension>         </extensions>       </trkpt>
       <trkpt lat="45.58595194481313228607177734375" lon="14.43603373132646083831787109375">         <ele>1571.199951171875</ele>         <time>2026-02-28T10:28:41.000Z</time>         <extensions>           <ns3:TrackPointExtension>             <ns3:hr>119</ns3:hr>           </ns3:TrackPointExtension>         </extensions>       </trkpt>
       <trkpt lat="45.5859513580799102783203125" lon="14.43603582680225372314453125">         <ele>1571.4000244140625</ele>         <time>2026-02-28T10:28:42.000Z</time>         <extensions>           <ns3:TrackPointExtension>             <ns3:hr>119</ns3:hr>           </ns3:TrackPointExtension>         </extensions>       </trkpt>
       <trkpt lat="45.58595060370862483978271484375" lon="14.436043538153171539306640625">         <ele>1571.5999755859375</ele>         <time>2026-02-28T10:28:48.000Z</time>         <extensions>           <ns3:TrackPointExtension>             <ns3:hr>117</ns3:hr>           </ns3:TrackPointExtension>         </extensions>       </trkpt>
       <trkpt lat="45.58593928813934326171875" lon="14.43607346154749393463134765625">         <ele>1571.800048828125</ele>         <time>2026-02-28T10:29:01.000Z</time>         <extensions>           <ns3:TrackPointExtension>             <ns3:hr>115</ns3:hr>           </ns3:TrackPointExtension>         </extensions>       </trkpt>
       <trkpt lat="45.58593870140612125396728515625" lon="14.436129033565521240234375">         <ele>1572.199951171875</ele>         <time>2026-02-28T10:29:07.000Z</time>         <extensions>           <ns3:TrackPointExtension>             <ns3:hr>115</ns3:hr>           </ns3:TrackPointExtension>         </extensions>       </trkpt>
       <trkpt lat="45.5859486758708953857421875" lon="14.4361523352563381195068359375">         <ele>1572.199951171875</ele>         <time>2026-02-28T10:29:11.000Z</time>         <extensions>           <ns3:TrackPointExtension>             <ns3:hr>111</ns3:hr>           </ns3:TrackPointExtension>         </extensions>       </trkpt>
       <trkpt lat="45.58596217073500156402587890625" lon="14.4361781515181064605712890625">         <ele>1572.199951171875</ele>         <time>2026-02-28T10:29:14.000Z</time>         <extensions>           <ns3:TrackPointExtension>             <ns3:hr>110</ns3:hr>           </ns3:TrackPointExtension>         </extensions>       </trkpt>
       <trkpt lat="45.585990585386753082275390625" lon="14.436234645545482635498046875">         <ele>1572.4000244140625</ele>         <time>2026-02-28T10:29:20.000Z</time>         <extensions>           <ns3:TrackPointExtension>             <ns3:hr>110</ns3:hr>           </ns3:TrackPointExtension>         </extensions>       </trkpt>
       <trkpt lat="45.58599184267222881317138671875" lon="14.436243362724781036376953125">         <ele>1572.4000244140625</ele>         <time>2026-02-28T10:29:21.000Z</time>         <extensions>           <ns3:TrackPointExtension>             <ns3:hr>110</ns3:hr>           </ns3:TrackPointExtension>         </extensions>       </trkpt>
       <trkpt lat="45.58600676245987415313720703125" lon="14.4363099150359630584716796875">         <ele>1573</ele>         <time>2026-02-28T10:29:29.000Z</time>         <extensions>           <ns3:TrackPointExtension>             <ns3:hr>107</ns3:hr>           </ns3:TrackPointExtension>         </extensions>       </trkpt>
       <trkpt lat="45.58603249490261077880859375" lon="14.4363608770072460174560546875">         <ele>1573.4000244140625</ele>         <time>2026-02-28T10:29:36.000Z</time>         <extensions>           <ns3:TrackPointExtension>             <ns3:hr>106</ns3:hr>           </ns3:TrackPointExtension>         </extensions>       </trkpt>
       <trkpt lat="45.5860346741974353790283203125" lon="14.43636439740657806396484375">         <ele>1573.4000244140625</ele>         <time>2026-02-28T10:29:39.000Z</time>         <extensions>           <ns3:TrackPointExtension>             <ns3:hr>107</ns3:hr>           </ns3:TrackPointExtension>         </extensions>       </trkpt>
       <trkpt lat="45.5860390327870845794677734375" lon="14.4363744556903839111328125">         <ele>1573.800048828125</ele>         <time>2026-02-28T10:29:44.000Z</time>         <extensions>           <ns3:TrackPointExtension>             <ns3:hr>109</ns3:hr>           </ns3:TrackPointExtension>         </extensions>       </trkpt>
       <trkpt lat="45.5860534496605396270751953125" lon="14.436388872563838958740234375">         <ele>1573.800048828125</ele>         <time>2026-02-28T10:29:49.000Z</time>         <extensions>           <ns3:TrackPointExtension>             <ns3:hr>111</ns3:hr>           </ns3:TrackPointExtension>         </extensions>       </trkpt>
       <trkpt lat="45.58604883961379528045654296875" lon="14.43639834411442279815673828125">         <ele>1574.4000244140625</ele>         <time>2026-02-28T10:29:57.000Z</time>         <extensions>           <ns3:TrackPointExtension>             <ns3:hr>112</ns3:hr>           </ns3:TrackPointExtension>         </extensions>       </trkpt>
       <trkpt lat="45.58605420403182506561279296875" lon="14.436400271952152252197265625">         <ele>1573.4000244140625</ele>         <time>2026-02-28T10:30:03.000Z</time>         <extensions>           <ns3:TrackPointExtension>             <ns3:hr>114</ns3:hr>           </ns3:TrackPointExtension>         </extensions>       </trkpt>
       <trkpt lat="45.58605269528925418853759765625" lon="14.43638845346868038177490234375">         <ele>1573.4000244140625</ele>         <time>2026-02-28T10:30:06.000Z</time>         <extensions>           <ns3:TrackPointExtension>             <ns3:hr>111</ns3:hr>           </ns3:TrackPointExtension>         </extensions>       </trkpt>
       <trkpt lat="45.586056299507617950439453125" lon="14.43640672601759433746337890625">         <ele>1573.4000244140625</ele>         <time>2026-02-28T10:30:15.000Z</time>         <extensions>           <ns3:TrackPointExtension>             <ns3:hr>109</ns3:hr>           </ns3:TrackPointExtension>         </extensions>       </trkpt>
       <trkpt lat="45.586056970059871673583984375" lon="14.43638694472610950469970703125">         <ele>1573.800048828125</ele>         <time>2026-02-28T10:30:19.000Z</time>         <extensions>           <ns3:TrackPointExtension>             <ns3:hr>104</ns3:hr>           </ns3:TrackPointExtension>         </extensions>       </trkpt>
       <trkpt lat="45.58605738915503025054931640625" lon="14.43638208322227001190185546875">         <ele>1573.5999755859375</ele>         <time>2026-02-28T10:30:20.000Z</time>         <extensions>           <ns3:TrackPointExtension>             <ns3:hr>97</ns3:hr>           </ns3:TrackPointExtension>         </extensions>       </trkpt>
       <trkpt lat="45.5860571376979351043701171875" lon="14.43637655116617679595947265625">         <ele>1573.5999755859375</ele>         <time>2026-02-28T10:30:21.000Z</time>         <extensions>           <ns3:TrackPointExtension>             <ns3:hr>94</ns3:hr>           </ns3:TrackPointExtension>         </extensions>       </trkpt>
       <trkpt lat="45.58605730533599853515625" lon="14.43638241849839687347412109375">         <ele>1573.5999755859375</ele>         <time>2026-02-28T10:30:25.000Z</time>         <extensions>           <ns3:TrackPointExtension>             <ns3:hr>91</ns3:hr>           </ns3:TrackPointExtension>         </extensions>       </trkpt>
       <trkpt lat="45.58605738915503025054931640625" lon="14.43638526834547519683837890625">         <ele>1573.5999755859375</ele>         <time>2026-02-28T10:30:26.000Z</time>         <extensions>           <ns3:TrackPointExtension>             <ns3:hr>90</ns3:hr>           </ns3:TrackPointExtension>         </extensions>       </trkpt>
       <trkpt lat="45.5860604904592037200927734375" lon="14.43640136159956455230712890625">         <ele>1573.4000244140625</ele>         <time>2026-02-28T10:30:39.000Z</time>         <extensions>           <ns3:TrackPointExtension>             <ns3:hr>89</ns3:hr>           </ns3:TrackPointExtension>         </extensions>       </trkpt>
       <trkpt lat="45.5860604904592037200927734375" lon="14.43640136159956455230712890625">         <ele>1573.4000244140625</ele>         <time>2026-02-28T10:30:52.000Z</time>         <extensions>           <ns3:TrackPointExtension>             <ns3:hr>87</ns3:hr>           </ns3:TrackPointExtension>         </extensions>       </trkpt>
       <trkpt lat="45.5860604904592037200927734375" lon="14.43640136159956455230712890625">         <ele>1574</ele>         <time>2026-02-28T10:31:01.000Z</time>         <extensions>           <ns3:TrackPointExtension>             <ns3:hr>86</ns3:hr>           </ns3:TrackPointExtension>         </extensions>       </trkpt>
       <trkpt lat="45.5860604904592037200927734375" lon="14.43640136159956455230712890625">         <ele>1573.800048828125</ele>         <time>2026-02-28T10:31:04.000Z</time>         <extensions>           <ns3:TrackPointExtension>             <ns3:hr>83</ns3:hr>           </ns3:TrackPointExtension>         </extensions>       </trkpt>
       <trkpt lat="45.5860604904592037200927734375" lon="14.43640136159956455230712890625">         <ele>1574</ele>         <time>2026-02-28T10:31:08.000Z</time>         <extensions>           <ns3:TrackPointExtension>             <ns3:hr>91</ns3:hr>           </ns3:TrackPointExtension>         </extensions>       </trkpt>
       <trkpt lat="45.5860604904592037200927734375" lon="14.43640136159956455230712890625">         <ele>1574.4000244140625</ele>         <time>2026-02-28T10:31:09.000Z</time>         <extensions>           <ns3:TrackPointExtension>             <ns3:hr>100</ns3:hr>           </ns3:TrackPointExtension>         </extensions>       </trkpt>
       <trkpt lat="45.5860604904592037200927734375" lon="14.43640136159956455230712890625">         <ele>1574.800048828125</ele>         <time>2026-02-28T10:31:10.000Z</time>         <extensions>           <ns3:TrackPointExtension>             <ns3:hr>105</ns3:hr>           </ns3:TrackPointExtension>         </extensions>       </trkpt>
       <trkpt lat="45.5860604904592037200927734375" lon="14.43640136159956455230712890625">         <ele>1575</ele>         <time>2026-02-28T10:31:11.000Z</time>         <extensions>           <ns3:TrackPointExtension>             <ns3:hr>106</ns3:hr>           </ns3:TrackPointExtension>         </extensions>       </trkpt>
       <trkpt lat="45.5860604904592037200927734375" lon="14.43640136159956455230712890625">         <ele>1574</ele>         <time>2026-02-28T10:31:18.000Z</time>         <extensions>           <ns3:TrackPointExtension>             <ns3:hr>103</ns3:hr>           </ns3:TrackPointExtension>         </extensions>       </trkpt>
       <trkpt lat="45.5860604904592037200927734375" lon="14.43640136159956455230712890625">         <ele>1574</ele>         <time>2026-02-28T10:31:21.000Z</time>         <extensions>           <ns3:TrackPointExtension>             <ns3:hr>101</ns3:hr>           </ns3:TrackPointExtension>         </extensions>       </trkpt>
       <trkpt lat="45.5860604904592037200927734375" lon="14.43640136159956455230712890625">         <ele>1574</ele>         <time>2026-02-28T10:31:24.000Z</time>         <extensions>           <ns3:TrackPointExtension>             <ns3:hr>98</ns3:hr>           </ns3:TrackPointExtension>         </extensions>       </trkpt>
       <trkpt lat="45.5860604904592037200927734375" lon="14.43640136159956455230712890625">         <ele>1574.199951171875</ele>         <time>2026-02-28T10:31:30.000Z</time>         <extensions>           <ns3:TrackPointExtension>             <ns3:hr>96</ns3:hr>           </ns3:TrackPointExtension>         </extensions>       </trkpt>
       <trkpt lat="45.5860604904592037200927734375" lon="14.43640136159956455230712890625">         <ele>1574.5999755859375</ele>         <time>2026-02-28T10:31:38.000Z</time>         <extensions>           <ns3:TrackPointExtension>             <ns3:hr>95</ns3:hr>           </ns3:TrackPointExtension>         </extensions>       </trkpt>
       <trkpt lat="45.5860604904592037200927734375" lon="14.43640136159956455230712890625">         <ele>1574.4000244140625</ele>         <time>2026-02-28T10:31:45.000Z</time>         <extensions>           <ns3:TrackPointExtension>             <ns3:hr>99</ns3:hr>           </ns3:TrackPointExtension>         </extensions>       </trkpt>
       <trkpt lat="45.5860604904592037200927734375" lon="14.43640136159956455230712890625">         <ele>1574.199951171875</ele>         <time>2026-02-28T10:31:47.000Z</time>         <extensions>           <ns3:TrackPointExtension>             <ns3:hr>103</ns3:hr>           </ns3:TrackPointExtension>         </extensions>       </trkpt>
       <trkpt lat="45.5860604904592037200927734375" lon="14.43640136159956455230712890625">         <ele>1574</ele>         <time>2026-02-28T10:31:49.000Z</time>         <extensions>           <ns3:TrackPointExtension>             <ns3:hr>105</ns3:hr>           </ns3:TrackPointExtension>         </extensions>       </trkpt>
       <trkpt lat="45.5860604904592037200927734375" lon="14.43640136159956455230712890625">         <ele>1573.5999755859375</ele>         <time>2026-02-28T10:31:54.000Z</time>         <extensions>           <ns3:TrackPointExtension>             <ns3:hr>106</ns3:hr>           </ns3:TrackPointExtension>         </extensions>       </trkpt>
       <trkpt lat="45.5860604904592037200927734375" lon="14.43640136159956455230712890625">         <ele>1573.5999755859375</ele>         <time>2026-02-28T10:32:00.000Z</time>         <extensions>           <ns3:TrackPointExtension>             <ns3:hr>107</ns3:hr>           </ns3:TrackPointExtension>         </extensions>       </trkpt>
       <trkpt lat="45.5860604904592037200927734375" lon="14.43640136159956455230712890625">         <ele>1573.5999755859375</ele>         <time>2026-02-28T10:32:10.000Z</time>         <extensions>           <ns3:TrackPointExtension>             <ns3:hr>110</ns3:hr>           </ns3:TrackPointExtension>         </extensions>       </trkpt>
       <trkpt lat="45.5860641784965991973876953125" lon="14.43639658391475677490234375">         <ele>1574</ele>         <time>2026-02-28T10:32:16.000Z</time>         <extensions>           <ns3:TrackPointExtension>             <ns3:hr>107</ns3:hr>           </ns3:TrackPointExtension>         </extensions>       </trkpt>
       <trkpt lat="45.58606057427823543548583984375" lon="14.4363927282392978668212890625">         <ele>1574.199951171875</ele>         <time>2026-02-28T10:32:19.000Z</time>         <extensions>           <ns3:TrackPointExtension>             <ns3:hr>107</ns3:hr>           </ns3:TrackPointExtension>         </extensions>       </trkpt>
       <trkpt lat="45.586058981716632843017578125" lon="14.4363964162766933441162109375">         <ele>1574</ele>         <time>2026-02-28T10:32:27.000Z</time>         <extensions>           <ns3:TrackPointExtension>             <ns3:hr>108</ns3:hr>           </ns3:TrackPointExtension>         </extensions>       </trkpt>
       <trkpt lat="45.58606040664017200469970703125" lon="14.436391554772853851318359375">         <ele>1574</ele>         <time>2026-02-28T10:32:32.000Z</time>         <extensions>           <ns3:TrackPointExtension>             <ns3:hr>105</ns3:hr>           </ns3:TrackPointExtension>         </extensions>       </trkpt>
       <trkpt lat="45.58606526814401149749755859375" lon="14.43639163859188556671142578125">         <ele>1573.800048828125</ele>         <time>2026-02-28T10:32:35.000Z</time>         <extensions>           <ns3:TrackPointExtension>             <ns3:hr>101</ns3:hr>           </ns3:TrackPointExtension>         </extensions>       </trkpt>
       <trkpt lat="45.58606736361980438232421875" lon="14.43638945929706096649169921875">         <ele>1573.800048828125</ele>         <time>2026-02-28T10:32:36.000Z</time>         <extensions>           <ns3:TrackPointExtension>             <ns3:hr>99</ns3:hr>           </ns3:TrackPointExtension>         </extensions>       </trkpt>
       <trkpt lat="45.58605856262147426605224609375" lon="14.436386525630950927734375">         <ele>1573.4000244140625</ele>         <time>2026-02-28T10:32:47.000Z</time>         <extensions>           <ns3:TrackPointExtension>             <ns3:hr>96</ns3:hr>           </ns3:TrackPointExtension>         </extensions>       </trkpt>
       <trkpt lat="45.58605722151696681976318359375" lon="14.436387531459331512451171875">         <ele>1573.4000244140625</ele>         <time>2026-02-28T10:32:48.000Z</time>         <extensions>           <ns3:TrackPointExtension>             <ns3:hr>96</ns3:hr>           </ns3:TrackPointExtension>         </extensions>       </trkpt>
       <trkpt lat="45.5860604904592037200927734375" lon="14.43640136159956455230712890625">         <ele>1573.5999755859375</ele>         <time>2026-02-28T10:32:52.000Z</time>         <extensions>           <ns3:TrackPointExtension>             <ns3:hr>99</ns3:hr>           </ns3:TrackPointExtension>         </extensions>       </trkpt>
       <trkpt lat="45.5860604904592037200927734375" lon="14.43640136159956455230712890625">         <ele>1573.5999755859375</ele>         <time>2026-02-28T10:32:54.000Z</time>         <extensions>           <ns3:TrackPointExtension>             <ns3:hr>104</ns3:hr>           </ns3:TrackPointExtension>         </extensions>       </trkpt>
       <trkpt lat="45.5860604904592037200927734375" lon="14.43640136159956455230712890625">         <ele>1573.800048828125</ele>         <time>2026-02-28T10:32:55.000Z</time>         <extensions>           <ns3:TrackPointExtension>             <ns3:hr>107</ns3:hr>           </ns3:TrackPointExtension>         </extensions>       </trkpt>
       <trkpt lat="45.5860604904592037200927734375" lon="14.43640136159956455230712890625">         <ele>1573.800048828125</ele>         <time>2026-02-28T10:32:56.000Z</time>         <extensions>           <ns3:TrackPointExtension>             <ns3:hr>107</ns3:hr>           </ns3:TrackPointExtension>         </extensions>       </trkpt>
       <trkpt lat="45.5860604904592037200927734375" lon="14.43640136159956455230712890625">         <ele>1573.800048828125</ele>         <time>2026-02-28T10:33:03.000Z</time>         <extensions>           <ns3:TrackPointExtension>             <ns3:hr>105</ns3:hr>           </ns3:TrackPointExtension>         </extensions>       </trkpt>
       <trkpt lat="45.5860604904592037200927734375" lon="14.43640136159956455230712890625">         <ele>1574</ele>         <time>2026-02-28T10:33:14.000Z</time>         <extensions>           <ns3:TrackPointExtension>             <ns3:hr>99</ns3:hr>           </ns3:TrackPointExtension>         </extensions>       </trkpt>
       <trkpt lat="45.5860604904592037200927734375" lon="14.43640136159956455230712890625">         <ele>1573.800048828125</ele>         <time>2026-02-28T10:33:17.000Z</time>         <extensions>           <ns3:TrackPointExtension>             <ns3:hr>102</ns3:hr>           </ns3:TrackPointExtension>         </extensions>       </trkpt>
       <trkpt lat="45.5860604904592037200927734375" lon="14.43640136159956455230712890625">         <ele>1573.4000244140625</ele>         <time>2026-02-28T10:33:26.000Z</time>         <extensions>           <ns3:TrackPointExtension>             <ns3:hr>99</ns3:hr>           </ns3:TrackPointExtension>         </extensions>       </trkpt>
       <trkpt lat="45.5860561318695545196533203125" lon="14.43638845346868038177490234375">         <ele>1573.4000244140625</ele>         <time>2026-02-28T10:33:30.000Z</time>         <extensions>           <ns3:TrackPointExtension>             <ns3:hr>97</ns3:hr>           </ns3:TrackPointExtension>         </extensions>       </trkpt>
       <trkpt lat="45.5860648490488529205322265625" lon="14.4363954104483127593994140625">         <ele>1573.5999755859375</ele>         <time>2026-02-28T10:33:37.000Z</time>         <extensions>           <ns3:TrackPointExtension>             <ns3:hr>97</ns3:hr>           </ns3:TrackPointExtension>         </extensions>       </trkpt>
       <trkpt lat="45.58606945909559726715087890625" lon="14.43639180622994899749755859375">         <ele>1573.199951171875</ele>         <time>2026-02-28T10:33:46.000Z</time>         <extensions>           <ns3:TrackPointExtension>             <ns3:hr>96</ns3:hr>           </ns3:TrackPointExtension>         </extensions>       </trkpt>
       <trkpt lat="45.58607004582881927490234375" lon="14.43638719618320465087890625">         <ele>1573.199951171875</ele>         <time>2026-02-28T10:33:51.000Z</time>         <extensions>           <ns3:TrackPointExtension>             <ns3:hr>99</ns3:hr>           </ns3:TrackPointExtension>         </extensions>       </trkpt>
       <trkpt lat="45.586071051657199859619140625" lon="14.4363736175000667572021484375">         <ele>1573.199951171875</ele>         <time>2026-02-28T10:33:54.000Z</time>         <extensions>           <ns3:TrackPointExtension>             <ns3:hr>102</ns3:hr>           </ns3:TrackPointExtension>         </extensions>       </trkpt>
       <trkpt lat="45.58606862090528011322021484375" lon="14.43637856282293796539306640625">         <ele>1573.800048828125</ele>         <time>2026-02-28T10:34:03.000Z</time>         <extensions>           <ns3:TrackPointExtension>             <ns3:hr>101</ns3:hr>           </ns3:TrackPointExtension>         </extensions>       </trkpt>
       <trkpt lat="45.586053617298603057861328125" lon="14.4363819994032382965087890625">         <ele>1573.4000244140625</ele>         <time>2026-02-28T10:34:09.000Z</time>         <extensions>           <ns3:TrackPointExtension>             <ns3:hr>99</ns3:hr>           </ns3:TrackPointExtension>         </extensions>       </trkpt>
       <trkpt lat="45.58605168946087360382080078125" lon="14.4363825023174285888671875">         <ele>1573.5999755859375</ele>         <time>2026-02-28T10:34:12.000Z</time>         <extensions>           <ns3:TrackPointExtension>             <ns3:hr>102</ns3:hr>           </ns3:TrackPointExtension>         </extensions>       </trkpt>
       <trkpt lat="45.5860537849366664886474609375" lon="14.4363752938807010650634765625">         <ele>1573.5999755859375</ele>         <time>2026-02-28T10:34:15.000Z</time>         <extensions>           <ns3:TrackPointExtension>             <ns3:hr>105</ns3:hr>           </ns3:TrackPointExtension>         </extensions>       </trkpt>
       <trkpt lat="45.58605261147022247314453125" lon="14.43637973628938198089599609375">         <ele>1573.5999755859375</ele>         <time>2026-02-28T10:34:18.000Z</time>         <extensions>           <ns3:TrackPointExtension>             <ns3:hr>103</ns3:hr>           </ns3:TrackPointExtension>         </extensions>       </trkpt>
       <trkpt lat="45.58605152182281017303466796875" lon="14.43638912402093410491943359375">         <ele>1573.5999755859375</ele>         <time>2026-02-28T10:34:20.000Z</time>         <extensions>           <ns3:TrackPointExtension>             <ns3:hr>100</ns3:hr>           </ns3:TrackPointExtension>         </extensions>       </trkpt>
       <trkpt lat="45.5860554613173007965087890625" lon="14.4363920576870441436767578125">         <ele>1573.4000244140625</ele>         <time>2026-02-28T10:34:24.000Z</time>         <extensions>           <ns3:TrackPointExtension>             <ns3:hr>104</ns3:hr>           </ns3:TrackPointExtension>         </extensions>       </trkpt>
       <trkpt lat="45.58605420403182506561279296875" lon="14.43639113567769527435302734375">         <ele>1573.4000244140625</ele>         <time>2026-02-28T10:34:25.000Z</time>         <extensions>           <ns3:TrackPointExtension>             <ns3:hr>104</ns3:hr>           </ns3:TrackPointExtension>         </extensions>       </trkpt>
       <trkpt lat="45.58605839498341083526611328125" lon="14.4364386610686779022216796875">         <ele>1573.4000244140625</ele>         <time>2026-02-28T10:34:30.000Z</time>         <extensions>           <ns3:TrackPointExtension>             <ns3:hr>101</ns3:hr>           </ns3:TrackPointExtension>         </extensions>       </trkpt>
       <trkpt lat="45.58605956844985485076904296875" lon="14.4364517368376255035400390625">         <ele>1573.4000244140625</ele>         <time>2026-02-28T10:34:31.000Z</time>         <extensions>           <ns3:TrackPointExtension>             <ns3:hr>100</ns3:hr>           </ns3:TrackPointExtension>         </extensions>       </trkpt>
       <trkpt lat="45.5860613286495208740234375" lon="14.43647059611976146697998046875">         <ele>1573.4000244140625</ele>         <time>2026-02-28T10:34:33.000Z</time>         <extensions>           <ns3:TrackPointExtension>             <ns3:hr>104</ns3:hr>           </ns3:TrackPointExtension>         </extensions>       </trkpt>
       <trkpt lat="45.5860896594822406768798828125" lon="14.4365073926746845245361328125">         <ele>1573.5999755859375</ele>         <time>2026-02-28T10:34:39.000Z</time>         <extensions>           <ns3:TrackPointExtension>             <ns3:hr>106</ns3:hr>           </ns3:TrackPointExtension>         </extensions>       </trkpt>
       <trkpt lat="45.58613240718841552734375" lon="14.43650311790406703948974609375">         <ele>1574.4000244140625</ele>         <time>2026-02-28T10:34:46.000Z</time>         <extensions>           <ns3:TrackPointExtension>             <ns3:hr>106</ns3:hr>           </ns3:TrackPointExtension>         </extensions>       </trkpt>
       <trkpt lat="45.5861444771289825439453125" lon="14.43649356253445148468017578125">         <ele>1574.800048828125</ele>         <time>2026-02-28T10:34:49.000Z</time>         <extensions>           <ns3:TrackPointExtension>             <ns3:hr>107</ns3:hr>           </ns3:TrackPointExtension>         </extensions>       </trkpt>
       <trkpt lat="45.5861419625580310821533203125" lon="14.4364946521818637847900390625">         <ele>1574.800048828125</ele>         <time>2026-02-28T10:34:50.000Z</time>         <extensions>           <ns3:TrackPointExtension>             <ns3:hr>107</ns3:hr>           </ns3:TrackPointExtension>         </extensions>       </trkpt>
       <trkpt lat="45.58613483794033527374267578125" lon="14.43649808876216411590576171875">         <ele>1575.800048828125</ele>         <time>2026-02-28T10:34:58.000Z</time>         <extensions>           <ns3:TrackPointExtension>             <ns3:hr>107</ns3:hr>           </ns3:TrackPointExtension>         </extensions>       </trkpt>
       <trkpt lat="45.58616794645786285400390625" lon="14.4364691711962223052978515625">         <ele>1575.199951171875</ele>         <time>2026-02-28T10:35:04.000Z</time>         <extensions>           <ns3:TrackPointExtension>             <ns3:hr>109</ns3:hr>           </ns3:TrackPointExtension>         </extensions>       </trkpt>
       <trkpt lat="45.58619803749024868011474609375" lon="14.43646229803562164306640625">         <ele>1575.800048828125</ele>         <time>2026-02-28T10:35:08.000Z</time>         <extensions>           <ns3:TrackPointExtension>             <ns3:hr>111</ns3:hr>           </ns3:TrackPointExtension>         </extensions>       </trkpt>
       <trkpt lat="45.58620809577405452728271484375" lon="14.436455927789211273193359375">         <ele>1575.800048828125</ele>         <time>2026-02-28T10:35:09.000Z</time>         <extensions>           <ns3:TrackPointExtension>             <ns3:hr>111</ns3:hr>           </ns3:TrackPointExtension>         </extensions>       </trkpt>
       <trkpt lat="45.58623257093131542205810546875" lon="14.4364473782479763031005859375">         <ele>1576.199951171875</ele>         <time>2026-02-28T10:35:15.000Z</time>         <extensions>           <ns3:TrackPointExtension>             <ns3:hr>109</ns3:hr>           </ns3:TrackPointExtension>         </extensions>       </trkpt>
       <trkpt lat="45.58624598197638988494873046875" lon="14.43641804158687591552734375">         <ele>1576.800048828125</ele>         <time>2026-02-28T10:35:20.000Z</time>         <extensions>           <ns3:TrackPointExtension>             <ns3:hr>110</ns3:hr>           </ns3:TrackPointExtension>         </extensions>       </trkpt>
       <trkpt lat="45.58624598197638988494873046875" lon="14.43641192279756069183349609375">         <ele>1577</ele>         <time>2026-02-28T10:35:21.000Z</time>         <extensions>           <ns3:TrackPointExtension>             <ns3:hr>110</ns3:hr>           </ns3:TrackPointExtension>         </extensions>       </trkpt>
       <trkpt lat="45.5862784199416637420654296875" lon="14.436372108757495880126953125">         <ele>1577.800048828125</ele>         <time>2026-02-28T10:35:27.000Z</time>         <extensions>           <ns3:TrackPointExtension>             <ns3:hr>113</ns3:hr>           </ns3:TrackPointExtension>         </extensions>       </trkpt>
       <trkpt lat="45.58628872968256473541259765625" lon="14.436369426548480987548828125">         <ele>1578</ele>         <time>2026-02-28T10:35:28.000Z</time>         <extensions>           <ns3:TrackPointExtension>             <ns3:hr>113</ns3:hr>           </ns3:TrackPointExtension>         </extensions>       </trkpt>
       <trkpt lat="45.58630197308957576751708984375" lon="14.43637780845165252685546875">         <ele>1578.4000244140625</ele>         <time>2026-02-28T10:35:30.000Z</time>         <extensions>           <ns3:TrackPointExtension>             <ns3:hr>114</ns3:hr>           </ns3:TrackPointExtension>         </extensions>       </trkpt>
       <trkpt lat="45.5863054096698760986328125" lon="14.43637688644230365753173828125">         <ele>1578.5999755859375</ele>         <time>2026-02-28T10:35:31.000Z</time>         <extensions>           <ns3:TrackPointExtension>             <ns3:hr>115</ns3:hr>           </ns3:TrackPointExtension>         </extensions>       </trkpt>
       <trkpt lat="45.5863370932638645172119140625" lon="14.4363883696496486663818359375">         <ele>1579</ele>         <time>2026-02-28T10:35:35.000Z</time>         <extensions>           <ns3:TrackPointExtension>             <ns3:hr>117</ns3:hr>           </ns3:TrackPointExtension>         </extensions>       </trkpt>
       <trkpt lat="45.58635729365050792694091796875" lon="14.43640538491308689117431640625">         <ele>1580</ele>         <time>2026-02-28T10:35:39.000Z</time>         <extensions>           <ns3:TrackPointExtension>             <ns3:hr>118</ns3:hr>           </ns3:TrackPointExtension>         </extensions>       </trkpt>
       <trkpt lat="45.5863563716411590576171875" lon="14.4364037923514842987060546875">         <ele>1580.199951171875</ele>         <time>2026-02-28T10:35:40.000Z</time>         <extensions>           <ns3:TrackPointExtension>             <ns3:hr>118</ns3:hr>           </ns3:TrackPointExtension>         </extensions>       </trkpt>
       <trkpt lat="45.58637808077037334442138671875" lon="14.43641577847301959991455078125">         <ele>1580.5999755859375</ele>         <time>2026-02-28T10:35:43.000Z</time>         <extensions>           <ns3:TrackPointExtension>             <ns3:hr>118</ns3:hr>           </ns3:TrackPointExtension>         </extensions>       </trkpt>
       <trkpt lat="45.58641211129724979400634765625" lon="14.43642717786133289337158203125">         <ele>1581.4000244140625</ele>         <time>2026-02-28T10:35:47.000Z</time>         <extensions>           <ns3:TrackPointExtension>             <ns3:hr>119</ns3:hr>           </ns3:TrackPointExtension>         </extensions>       </trkpt>
       <trkpt lat="45.58641848154366016387939453125" lon="14.43643421865999698638916015625">         <ele>1581.5999755859375</ele>         <time>2026-02-28T10:35:48.000Z</time>         <extensions>           <ns3:TrackPointExtension>             <ns3:hr>119</ns3:hr>           </ns3:TrackPointExtension>         </extensions>       </trkpt>
       <trkpt lat="45.5864314734935760498046875" lon="14.43645886145532131195068359375">         <ele>1582</ele>         <time>2026-02-28T10:35:52.000Z</time>         <extensions>           <ns3:TrackPointExtension>             <ns3:hr>120</ns3:hr>           </ns3:TrackPointExtension>         </extensions>       </trkpt>
       <trkpt lat="45.586449913680553436279296875" lon="14.4364886172115802764892578125">         <ele>1582.4000244140625</ele>         <time>2026-02-28T10:35:56.000Z</time>         <extensions>           <ns3:TrackPointExtension>             <ns3:hr>120</ns3:hr>           </ns3:TrackPointExtension>         </extensions>       </trkpt>
       <trkpt lat="45.5864564515650272369384765625" lon="14.43649641238152980804443359375">         <ele>1582.4000244140625</ele>         <time>2026-02-28T10:35:57.000Z</time>         <extensions>           <ns3:TrackPointExtension>             <ns3:hr>120</ns3:hr>           </ns3:TrackPointExtension>         </extensions>       </trkpt>
       <trkpt lat="45.5864745564758777618408203125" lon="14.43656648509204387664794921875">         <ele>1582.800048828125</ele>         <time>2026-02-28T10:36:04.000Z</time>         <extensions>           <ns3:TrackPointExtension>             <ns3:hr>118</ns3:hr>           </ns3:TrackPointExtension>         </extensions>       </trkpt>
       <trkpt lat="45.5864799208939075469970703125" lon="14.43661225028336048126220703125">         <ele>1583.4000244140625</ele>         <time>2026-02-28T10:36:10.000Z</time>         <extensions>           <ns3:TrackPointExtension>             <ns3:hr>116</ns3:hr>           </ns3:TrackPointExtension>         </extensions>       </trkpt>
       <trkpt lat="45.586484111845493316650390625" lon="14.43663119338452816009521484375">         <ele>1583.5999755859375</ele>         <time>2026-02-28T10:36:12.000Z</time>         <extensions>           <ns3:TrackPointExtension>             <ns3:hr>113</ns3:hr>           </ns3:TrackPointExtension>         </extensions>       </trkpt>
       <trkpt lat="45.5865084193646907806396484375" lon="14.43667930550873279571533203125">         <ele>1584</ele>         <time>2026-02-28T10:36:19.000Z</time>         <extensions>           <ns3:TrackPointExtension>             <ns3:hr>117</ns3:hr>           </ns3:TrackPointExtension>         </extensions>       </trkpt>
       <trkpt lat="45.58651906438171863555908203125" lon="14.4366797246038913726806640625">         <ele>1584.199951171875</ele>         <time>2026-02-28T10:36:22.000Z</time>         <extensions>           <ns3:TrackPointExtension>             <ns3:hr>120</ns3:hr>           </ns3:TrackPointExtension>         </extensions>       </trkpt>
       <trkpt lat="45.58651872910559177398681640625" lon="14.43667980842292308807373046875">         <ele>1584</ele>         <time>2026-02-28T10:36:26.000Z</time>         <extensions>           <ns3:TrackPointExtension>             <ns3:hr>124</ns3:hr>           </ns3:TrackPointExtension>         </extensions>       </trkpt>
       <trkpt lat="45.58651688508689403533935546875" lon="14.43667955696582794189453125">         <ele>1584</ele>         <time>2026-02-28T10:36:27.000Z</time>         <extensions>           <ns3:TrackPointExtension>             <ns3:hr>127</ns3:hr>           </ns3:TrackPointExtension>         </extensions>       </trkpt>
       <trkpt lat="45.5865146219730377197265625" lon="14.4366964884102344512939453125">         <ele>1584.199951171875</ele>         <time>2026-02-28T10:36:29.000Z</time>         <extensions>           <ns3:TrackPointExtension>             <ns3:hr>128</ns3:hr>           </ns3:TrackPointExtension>         </extensions>       </trkpt>
       <trkpt lat="45.5865184776484966278076171875" lon="14.43671149201691150665283203125">         <ele>1584.4000244140625</ele>         <time>2026-02-28T10:36:32.000Z</time>         <extensions>           <ns3:TrackPointExtension>             <ns3:hr>129</ns3:hr>           </ns3:TrackPointExtension>         </extensions>       </trkpt>
       <trkpt lat="45.58653398416936397552490234375" lon="14.43673227913677692413330078125">         <ele>1584.5999755859375</ele>         <time>2026-02-28T10:36:38.000Z</time>         <extensions>           <ns3:TrackPointExtension>             <ns3:hr>129</ns3:hr>           </ns3:TrackPointExtension>         </extensions>       </trkpt>
       <trkpt lat="45.58653406798839569091796875" lon="14.43673177622258663177490234375">         <ele>1584.800048828125</ele>         <time>2026-02-28T10:36:43.000Z</time>         <extensions>           <ns3:TrackPointExtension>             <ns3:hr>125</ns3:hr>           </ns3:TrackPointExtension>         </extensions>       </trkpt>
       <trkpt lat="45.58653406798839569091796875" lon="14.43673177622258663177490234375">         <ele>1584.800048828125</ele>         <time>2026-02-28T10:36:50.000Z</time>         <extensions>           <ns3:TrackPointExtension>             <ns3:hr>122</ns3:hr>           </ns3:TrackPointExtension>         </extensions>       </trkpt>
       <trkpt lat="45.58653406798839569091796875" lon="14.43673177622258663177490234375">         <ele>1584.5999755859375</ele>         <time>2026-02-28T10:36:56.000Z</time>         <extensions>           <ns3:TrackPointExtension>             <ns3:hr>119</ns3:hr>           </ns3:TrackPointExtension>         </extensions>       </trkpt>
       <trkpt lat="45.58653406798839569091796875" lon="14.43673177622258663177490234375">         <ele>1584.5999755859375</ele>         <time>2026-02-28T10:36:59.000Z</time>         <extensions>           <ns3:TrackPointExtension>             <ns3:hr>116</ns3:hr>           </ns3:TrackPointExtension>         </extensions>       </trkpt>
       <trkpt lat="45.58653406798839569091796875" lon="14.43673177622258663177490234375">         <ele>1584.5999755859375</ele>         <time>2026-02-28T10:37:00.000Z</time>         <extensions>           <ns3:TrackPointExtension>             <ns3:hr>115</ns3:hr>           </ns3:TrackPointExtension>         </extensions>       </trkpt>
       <trkpt lat="45.586568601429462432861328125" lon="14.4367531500756740570068359375">         <ele>1585</ele>         <time>2026-02-28T10:37:13.000Z</time>         <extensions>           <ns3:TrackPointExtension>             <ns3:hr>114</ns3:hr>           </ns3:TrackPointExtension>         </extensions>       </trkpt>
       <trkpt lat="45.5865858681499958038330078125" lon="14.4367709197103977203369140625">         <ele>1585.4000244140625</ele>         <time>2026-02-28T10:37:16.000Z</time>         <extensions>           <ns3:TrackPointExtension>             <ns3:hr>114</ns3:hr>           </ns3:TrackPointExtension>         </extensions>       </trkpt>
       <trkpt lat="45.58660355396568775177001953125" lon="14.43677921779453754425048828125">         <ele>1585.5999755859375</ele>         <time>2026-02-28T10:37:19.000Z</time>         <extensions>           <ns3:TrackPointExtension>             <ns3:hr>114</ns3:hr>           </ns3:TrackPointExtension>         </extensions>       </trkpt>
       <trkpt lat="45.586609505116939544677734375" lon="14.43679531104862689971923828125">         <ele>1586</ele>         <time>2026-02-28T10:37:22.000Z</time>         <extensions>           <ns3:TrackPointExtension>             <ns3:hr>111</ns3:hr>           </ns3:TrackPointExtension>         </extensions>       </trkpt>
       <trkpt lat="45.58662048541009426116943359375" lon="14.436807967722415924072265625">         <ele>1586.4000244140625</ele>         <time>2026-02-28T10:37:24.000Z</time>         <extensions>           <ns3:TrackPointExtension>             <ns3:hr>108</ns3:hr>           </ns3:TrackPointExtension>         </extensions>       </trkpt>
       <trkpt lat="45.58662601746618747711181640625" lon="14.436810649931430816650390625">         <ele>1586.5999755859375</ele>         <time>2026-02-28T10:37:25.000Z</time>         <extensions>           <ns3:TrackPointExtension>             <ns3:hr>109</ns3:hr>           </ns3:TrackPointExtension>         </extensions>       </trkpt>
       <trkpt lat="45.58663506992161273956298828125" lon="14.4368191994726657867431640625">         <ele>1586.5999755859375</ele>         <time>2026-02-28T10:37:26.000Z</time>         <extensions>           <ns3:TrackPointExtension>             <ns3:hr>106</ns3:hr>           </ns3:TrackPointExtension>         </extensions>       </trkpt>
       <trkpt lat="45.58664663694798946380615234375" lon="14.43683738820254802703857421875">         <ele>1587.199951171875</ele>         <time>2026-02-28T10:37:29.000Z</time>         <extensions>           <ns3:TrackPointExtension>             <ns3:hr>104</ns3:hr>           </ns3:TrackPointExtension>         </extensions>       </trkpt>
       <trkpt lat="45.58665468357503414154052734375" lon="14.43684509955346584320068359375">         <ele>1587.5999755859375</ele>         <time>2026-02-28T10:37:32.000Z</time>         <extensions>           <ns3:TrackPointExtension>             <ns3:hr>104</ns3:hr>           </ns3:TrackPointExtension>         </extensions>       </trkpt>
       <trkpt lat="45.5866713635623455047607421875" lon="14.4368530623614788055419921875">         <ele>1588.199951171875</ele>         <time>2026-02-28T10:37:35.000Z</time>         <extensions>           <ns3:TrackPointExtension>             <ns3:hr>106</ns3:hr>           </ns3:TrackPointExtension>         </extensions>       </trkpt>
       <trkpt lat="45.58668963611125946044921875" lon="14.43684845231473445892333984375">         <ele>1588.5999755859375</ele>         <time>2026-02-28T10:37:38.000Z</time>         <extensions>           <ns3:TrackPointExtension>             <ns3:hr>105</ns3:hr>           </ns3:TrackPointExtension>         </extensions>       </trkpt>
       <trkpt lat="45.5866908095777034759521484375" lon="14.4368493743240833282470703125">         <ele>1588.800048828125</ele>         <time>2026-02-28T10:37:39.000Z</time>         <extensions>           <ns3:TrackPointExtension>             <ns3:hr>107</ns3:hr>           </ns3:TrackPointExtension>         </extensions>       </trkpt>
       <trkpt lat="45.5866981856524944305419921875" lon="14.43685121834278106689453125">         <ele>1589</ele>         <time>2026-02-28T10:37:40.000Z</time>         <extensions>           <ns3:TrackPointExtension>             <ns3:hr>110</ns3:hr>           </ns3:TrackPointExtension>         </extensions>       </trkpt>
       <trkpt lat="45.58671888895332813262939453125" lon="14.43685113452374935150146484375">         <ele>1589.199951171875</ele>         <time>2026-02-28T10:37:43.000Z</time>         <extensions>           <ns3:TrackPointExtension>             <ns3:hr>113</ns3:hr>           </ns3:TrackPointExtension>         </extensions>       </trkpt>
       <trkpt lat="45.58673179708421230316162109375" lon="14.43684719502925872802734375">         <ele>1589.5999755859375</ele>         <time>2026-02-28T10:37:45.000Z</time>         <extensions>           <ns3:TrackPointExtension>             <ns3:hr>108</ns3:hr>           </ns3:TrackPointExtension>         </extensions>       </trkpt>
       <trkpt lat="45.5867350660264492034912109375" lon="14.4368487037718296051025390625">         <ele>1589.800048828125</ele>         <time>2026-02-28T10:37:46.000Z</time>         <extensions>           <ns3:TrackPointExtension>             <ns3:hr>108</ns3:hr>           </ns3:TrackPointExtension>         </extensions>       </trkpt>
       <trkpt lat="45.58676649816334247589111328125" lon="14.4368684850633144378662109375">         <ele>1590.5999755859375</ele>         <time>2026-02-28T10:37:50.000Z</time>         <extensions>           <ns3:TrackPointExtension>             <ns3:hr>107</ns3:hr>           </ns3:TrackPointExtension>         </extensions>       </trkpt>
       <trkpt lat="45.58678125031292438507080078125" lon="14.436882399022579193115234375">         <ele>1590.800048828125</ele>         <time>2026-02-28T10:37:52.000Z</time>         <extensions>           <ns3:TrackPointExtension>             <ns3:hr>106</ns3:hr>           </ns3:TrackPointExtension>         </extensions>       </trkpt>
       <trkpt lat="45.58679047040641307830810546875" lon="14.4368969835340976715087890625">         <ele>1591.199951171875</ele>         <time>2026-02-28T10:37:54.000Z</time>         <extensions>           <ns3:TrackPointExtension>             <ns3:hr>102</ns3:hr>           </ns3:TrackPointExtension>         </extensions>       </trkpt>
       <trkpt lat="45.58679156005382537841796875" lon="14.43689874373376369476318359375">         <ele>1591.4000244140625</ele>         <time>2026-02-28T10:37:55.000Z</time>         <extensions>           <ns3:TrackPointExtension>             <ns3:hr>100</ns3:hr>           </ns3:TrackPointExtension>         </extensions>       </trkpt>
       <trkpt lat="45.58682215400040149688720703125" lon="14.4369596801698207855224609375">         <ele>1591.5999755859375</ele>         <time>2026-02-28T10:38:01.000Z</time>         <extensions>           <ns3:TrackPointExtension>             <ns3:hr>100</ns3:hr>           </ns3:TrackPointExtension>         </extensions>       </trkpt>
       <trkpt lat="45.58683740906417369842529296875" lon="14.4369948841631412506103515625">         <ele>1591.800048828125</ele>         <time>2026-02-28T10:38:04.000Z</time>         <extensions>           <ns3:TrackPointExtension>             <ns3:hr>103</ns3:hr>           </ns3:TrackPointExtension>         </extensions>       </trkpt>
       <trkpt lat="45.5868396721780300140380859375" lon="14.43700083531439304351806640625">         <ele>1592</ele>         <time>2026-02-28T10:38:05.000Z</time>         <extensions>           <ns3:TrackPointExtension>             <ns3:hr>103</ns3:hr>           </ns3:TrackPointExtension>         </extensions>       </trkpt>
       <trkpt lat="45.5868447013199329376220703125" lon="14.43701022304594516754150390625">         <ele>1592.199951171875</ele>         <time>2026-02-28T10:38:07.000Z</time>         <extensions>           <ns3:TrackPointExtension>             <ns3:hr>103</ns3:hr>           </ns3:TrackPointExtension>         </extensions>       </trkpt>
       <trkpt lat="45.58684763498604297637939453125" lon="14.43703318946063518524169921875">         <ele>1593</ele>         <time>2026-02-28T10:38:11.000Z</time>         <extensions>           <ns3:TrackPointExtension>             <ns3:hr>100</ns3:hr>           </ns3:TrackPointExtension>         </extensions>       </trkpt>
       <trkpt lat="45.58685517869889736175537109375" lon="14.43707576952874660491943359375">         <ele>1594</ele>         <time>2026-02-28T10:38:16.000Z</time>         <extensions>           <ns3:TrackPointExtension>             <ns3:hr>101</ns3:hr>           </ns3:TrackPointExtension>         </extensions>       </trkpt>
       <trkpt lat="45.58685727417469024658203125" lon="14.43708381615579128265380859375">         <ele>1594.199951171875</ele>         <time>2026-02-28T10:38:17.000Z</time>         <extensions>           <ns3:TrackPointExtension>             <ns3:hr>100</ns3:hr>           </ns3:TrackPointExtension>         </extensions>       </trkpt>
       <trkpt lat="45.5868661589920520782470703125" lon="14.43713846616446971893310546875">         <ele>1594.800048828125</ele>         <time>2026-02-28T10:38:22.000Z</time>         <extensions>           <ns3:TrackPointExtension>             <ns3:hr>100</ns3:hr>           </ns3:TrackPointExtension>         </extensions>       </trkpt>
       <trkpt lat="45.58687764219939708709716796875" lon="14.43717735819518566131591796875">         <ele>1595</ele>         <time>2026-02-28T10:38:26.000Z</time>         <extensions>           <ns3:TrackPointExtension>             <ns3:hr>103</ns3:hr>           </ns3:TrackPointExtension>         </extensions>       </trkpt>
       <trkpt lat="45.58688275516033172607421875" lon="14.4371910206973552703857421875">         <ele>1595.199951171875</ele>         <time>2026-02-28T10:38:28.000Z</time>         <extensions>           <ns3:TrackPointExtension>             <ns3:hr>104</ns3:hr>           </ns3:TrackPointExtension>         </extensions>       </trkpt>
       <trkpt lat="45.5868874490261077880859375" lon="14.437208957970142364501953125">         <ele>1595.4000244140625</ele>         <time>2026-02-28T10:38:30.000Z</time>         <extensions>           <ns3:TrackPointExtension>             <ns3:hr>104</ns3:hr>           </ns3:TrackPointExtension>         </extensions>       </trkpt>
       <trkpt lat="45.586895160377025604248046875" lon="14.43723837845027446746826171875">         <ele>1595.800048828125</ele>         <time>2026-02-28T10:38:33.000Z</time>         <extensions>           <ns3:TrackPointExtension>             <ns3:hr>107</ns3:hr>           </ns3:TrackPointExtension>         </extensions>       </trkpt>
       <trkpt lat="45.58690144680440425872802734375" lon="14.437253884971141815185546875">         <ele>1596.199951171875</ele>         <time>2026-02-28T10:38:35.000Z</time>         <extensions>           <ns3:TrackPointExtension>             <ns3:hr>108</ns3:hr>           </ns3:TrackPointExtension>         </extensions>       </trkpt>
       <trkpt lat="45.58690555393695831298828125" lon="14.4372671283781528472900390625">         <ele>1596.4000244140625</ele>         <time>2026-02-28T10:38:37.000Z</time>         <extensions>           <ns3:TrackPointExtension>             <ns3:hr>109</ns3:hr>           </ns3:TrackPointExtension>         </extensions>       </trkpt>
       <trkpt lat="45.58691619895398616790771484375" lon="14.4373120553791522979736328125">         <ele>1596.800048828125</ele>         <time>2026-02-28T10:38:41.000Z</time>         <extensions>           <ns3:TrackPointExtension>             <ns3:hr>106</ns3:hr>           </ns3:TrackPointExtension>         </extensions>       </trkpt>
       <trkpt lat="45.5869177915155887603759765625" lon="14.4373345188796520233154296875">         <ele>1597</ele>         <time>2026-02-28T10:38:44.000Z</time>         <extensions>           <ns3:TrackPointExtension>             <ns3:hr>111</ns3:hr>           </ns3:TrackPointExtension>         </extensions>       </trkpt>
       <trkpt lat="45.58692441321909427642822265625" lon="14.43735681474208831787109375">         <ele>1597</ele>         <time>2026-02-28T10:38:46.000Z</time>         <extensions>           <ns3:TrackPointExtension>             <ns3:hr>114</ns3:hr>           </ns3:TrackPointExtension>         </extensions>       </trkpt>
       <trkpt lat="45.58692541904747486114501953125" lon="14.4373641908168792724609375">         <ele>1597.199951171875</ele>         <time>2026-02-28T10:38:47.000Z</time>         <extensions>           <ns3:TrackPointExtension>             <ns3:hr>112</ns3:hr>           </ns3:TrackPointExtension>         </extensions>       </trkpt>
       <trkpt lat="45.586938746273517608642578125" lon="14.43740643560886383056640625">         <ele>1597.5999755859375</ele>         <time>2026-02-28T10:38:53.000Z</time>         <extensions>           <ns3:TrackPointExtension>             <ns3:hr>111</ns3:hr>           </ns3:TrackPointExtension>         </extensions>       </trkpt>
       <trkpt lat="45.5869496427476406097412109375" lon="14.43743518553674221038818359375">         <ele>1598.199951171875</ele>         <time>2026-02-28T10:38:58.000Z</time>         <extensions>           <ns3:TrackPointExtension>             <ns3:hr>112</ns3:hr>           </ns3:TrackPointExtension>         </extensions>       </trkpt>
       <trkpt lat="45.58695659972727298736572265625" lon="14.43749855272471904754638671875">         <ele>1598.5999755859375</ele>         <time>2026-02-28T10:39:04.000Z</time>         <extensions>           <ns3:TrackPointExtension>             <ns3:hr>109</ns3:hr>           </ns3:TrackPointExtension>         </extensions>       </trkpt>
       <trkpt lat="45.58695777319371700286865234375" lon="14.43750442005693912506103515625">         <ele>1598.5999755859375</ele>         <time>2026-02-28T10:39:05.000Z</time>         <extensions>           <ns3:TrackPointExtension>             <ns3:hr>109</ns3:hr>           </ns3:TrackPointExtension>         </extensions>       </trkpt>
       <trkpt lat="45.5869543366134166717529296875" lon="14.43755571730434894561767578125">         <ele>1599.199951171875</ele>         <time>2026-02-28T10:39:11.000Z</time>         <extensions>           <ns3:TrackPointExtension>             <ns3:hr>108</ns3:hr>           </ns3:TrackPointExtension>         </extensions>       </trkpt>
       <trkpt lat="45.58695844374597072601318359375" lon="14.43755806423723697662353515625">         <ele>1599.4000244140625</ele>         <time>2026-02-28T10:39:13.000Z</time>         <extensions>           <ns3:TrackPointExtension>             <ns3:hr>109</ns3:hr>           </ns3:TrackPointExtension>         </extensions>       </trkpt>
       <trkpt lat="45.58696866966784000396728515625" lon="14.43759578280150890350341796875">         <ele>1599.800048828125</ele>         <time>2026-02-28T10:39:17.000Z</time>         <extensions>           <ns3:TrackPointExtension>             <ns3:hr>110</ns3:hr>           </ns3:TrackPointExtension>         </extensions>       </trkpt>
       <trkpt lat="45.5869774706661701202392578125" lon="14.43762444891035556793212890625">         <ele>1600.199951171875</ele>         <time>2026-02-28T10:39:20.000Z</time>         <extensions>           <ns3:TrackPointExtension>             <ns3:hr>107</ns3:hr>           </ns3:TrackPointExtension>         </extensions>       </trkpt>
       <trkpt lat="45.5869788117706775665283203125" lon="14.43764238618314266204833984375">         <ele>1600.4000244140625</ele>         <time>2026-02-28T10:39:22.000Z</time>         <extensions>           <ns3:TrackPointExtension>             <ns3:hr>106</ns3:hr>           </ns3:TrackPointExtension>         </extensions>       </trkpt>
       <trkpt lat="45.58698392473161220550537109375" lon="14.43767021410167217254638671875">         <ele>1600.4000244140625</ele>         <time>2026-02-28T10:39:24.000Z</time>         <extensions>           <ns3:TrackPointExtension>             <ns3:hr>103</ns3:hr>           </ns3:TrackPointExtension>         </extensions>       </trkpt>
       <trkpt lat="45.5869942344725131988525390625" lon="14.43770944140851497650146484375">         <ele>1600.800048828125</ele>         <time>2026-02-28T10:39:29.000Z</time>         <extensions>           <ns3:TrackPointExtension>             <ns3:hr>101</ns3:hr>           </ns3:TrackPointExtension>         </extensions>       </trkpt>
       <trkpt lat="45.58700571767985820770263671875" lon="14.437743388116359710693359375">         <ele>1601.199951171875</ele>         <time>2026-02-28T10:39:34.000Z</time>         <extensions>           <ns3:TrackPointExtension>             <ns3:hr>99</ns3:hr>           </ns3:TrackPointExtension>         </extensions>       </trkpt>
       <trkpt lat="45.5870160274207592010498046875" lon="14.4377925060689449310302734375">         <ele>1601.4000244140625</ele>         <time>2026-02-28T10:39:39.000Z</time>         <extensions>           <ns3:TrackPointExtension>             <ns3:hr>96</ns3:hr>           </ns3:TrackPointExtension>         </extensions>       </trkpt>
       <trkpt lat="45.58701627887785434722900390625" lon="14.43780633620917797088623046875">         <ele>1601.4000244140625</ele>         <time>2026-02-28T10:39:41.000Z</time>         <extensions>           <ns3:TrackPointExtension>             <ns3:hr>97</ns3:hr>           </ns3:TrackPointExtension>         </extensions>       </trkpt>
       <trkpt lat="45.587017871439456939697265625" lon="14.43782628513872623443603515625">         <ele>1601.800048828125</ele>         <time>2026-02-28T10:39:44.000Z</time>         <extensions>           <ns3:TrackPointExtension>             <ns3:hr>100</ns3:hr>           </ns3:TrackPointExtension>         </extensions>       </trkpt>
       <trkpt lat="45.5870269238948822021484375" lon="14.43784422241151332855224609375">         <ele>1602</ele>         <time>2026-02-28T10:39:46.000Z</time>         <extensions>           <ns3:TrackPointExtension>             <ns3:hr>103</ns3:hr>           </ns3:TrackPointExtension>         </extensions>       </trkpt>
       <trkpt lat="45.5870324559509754180908203125" lon="14.437856040894985198974609375">         <ele>1602</ele>         <time>2026-02-28T10:39:47.000Z</time>         <extensions>           <ns3:TrackPointExtension>             <ns3:hr>104</ns3:hr>           </ns3:TrackPointExtension>         </extensions>       </trkpt>
       <trkpt lat="45.58703321032226085662841796875" lon="14.43786098621785640716552734375">         <ele>1602.4000244140625</ele>         <time>2026-02-28T10:39:49.000Z</time>         <extensions>           <ns3:TrackPointExtension>             <ns3:hr>108</ns3:hr>           </ns3:TrackPointExtension>         </extensions>       </trkpt>
       <trkpt lat="45.58703270740807056427001953125" lon="14.43785930983722209930419921875">         <ele>1602.5999755859375</ele>         <time>2026-02-28T10:39:50.000Z</time>         <extensions>           <ns3:TrackPointExtension>             <ns3:hr>110</ns3:hr>           </ns3:TrackPointExtension>         </extensions>       </trkpt>
       <trkpt lat="45.5870334617793560028076171875" lon="14.43786132149398326873779296875">         <ele>1602.5999755859375</ele>         <time>2026-02-28T10:39:51.000Z</time>         <extensions>           <ns3:TrackPointExtension>             <ns3:hr>113</ns3:hr>           </ns3:TrackPointExtension>         </extensions>       </trkpt>
       <trkpt lat="45.5870334617793560028076171875" lon="14.43786115385591983795166015625">         <ele>1602.5999755859375</ele>         <time>2026-02-28T10:39:52.000Z</time>         <extensions>           <ns3:TrackPointExtension>             <ns3:hr>117</ns3:hr>           </ns3:TrackPointExtension>         </extensions>       </trkpt>
       <trkpt lat="45.58703564107418060302734375" lon="14.43786777555942535400390625">         <ele>1602.5999755859375</ele>         <time>2026-02-28T10:39:53.000Z</time>         <extensions>           <ns3:TrackPointExtension>             <ns3:hr>123</ns3:hr>           </ns3:TrackPointExtension>         </extensions>       </trkpt>
       <trkpt lat="45.5870354734361171722412109375" lon="14.43787037394940853118896484375">         <ele>1602.5999755859375</ele>         <time>2026-02-28T10:39:54.000Z</time>         <extensions>           <ns3:TrackPointExtension>             <ns3:hr>126</ns3:hr>           </ns3:TrackPointExtension>         </extensions>       </trkpt>
       <trkpt lat="45.5870378203690052032470703125" lon="14.43787909112870693206787109375">         <ele>1602.5999755859375</ele>         <time>2026-02-28T10:39:55.000Z</time>         <extensions>           <ns3:TrackPointExtension>             <ns3:hr>127</ns3:hr>           </ns3:TrackPointExtension>         </extensions>       </trkpt>
       <trkpt lat="45.587054751813411712646484375" lon="14.43792016245424747467041015625">         <ele>1603.4000244140625</ele>         <time>2026-02-28T10:40:01.000Z</time>         <extensions>           <ns3:TrackPointExtension>             <ns3:hr>127</ns3:hr>           </ns3:TrackPointExtension>         </extensions>       </trkpt>
       <trkpt lat="45.58706288225948810577392578125" lon="14.4379316456615924835205078125">         <ele>1603.5999755859375</ele>         <time>2026-02-28T10:40:03.000Z</time>         <extensions>           <ns3:TrackPointExtension>             <ns3:hr>127</ns3:hr>           </ns3:TrackPointExtension>         </extensions>       </trkpt>
       <trkpt lat="45.587070174515247344970703125" lon="14.43794832564890384674072265625">         <ele>1604</ele>         <time>2026-02-28T10:40:06.000Z</time>         <extensions>           <ns3:TrackPointExtension>             <ns3:hr>126</ns3:hr>           </ns3:TrackPointExtension>         </extensions>       </trkpt>
       <trkpt lat="45.58708802796900272369384765625" lon="14.43798788823187351226806640625">         <ele>1604.5999755859375</ele>         <time>2026-02-28T10:40:12.000Z</time>         <extensions>           <ns3:TrackPointExtension>             <ns3:hr>126</ns3:hr>           </ns3:TrackPointExtension>         </extensions>       </trkpt>
       <trkpt lat="45.58710847981274127960205078125" lon="14.43804874084889888763427734375">         <ele>1605.4000244140625</ele>         <time>2026-02-28T10:40:21.000Z</time>         <extensions>           <ns3:TrackPointExtension>             <ns3:hr>125</ns3:hr>           </ns3:TrackPointExtension>         </extensions>       </trkpt>
       <trkpt lat="45.587111748754978179931640625" lon="14.4380838610231876373291015625">         <ele>1605.5999755859375</ele>         <time>2026-02-28T10:40:25.000Z</time>         <extensions>           <ns3:TrackPointExtension>             <ns3:hr>126</ns3:hr>           </ns3:TrackPointExtension>         </extensions>       </trkpt>
       <trkpt lat="45.58711233548820018768310546875" lon="14.43810406140983104705810546875">         <ele>1606</ele>         <time>2026-02-28T10:40:28.000Z</time>         <extensions>           <ns3:TrackPointExtension>             <ns3:hr>127</ns3:hr>           </ns3:TrackPointExtension>         </extensions>       </trkpt>
       <trkpt lat="45.58715022169053554534912109375" lon="14.4381742179393768310546875">         <ele>1606.4000244140625</ele>         <time>2026-02-28T10:40:35.000Z</time>         <extensions>           <ns3:TrackPointExtension>             <ns3:hr>127</ns3:hr>           </ns3:TrackPointExtension>         </extensions>       </trkpt>
       <trkpt lat="45.58716430328786373138427734375" lon="14.438226856291294097900390625">         <ele>1606.199951171875</ele>         <time>2026-02-28T10:40:42.000Z</time>         <extensions>           <ns3:TrackPointExtension>             <ns3:hr>126</ns3:hr>           </ns3:TrackPointExtension>         </extensions>       </trkpt>
       <trkpt lat="45.587164051830768585205078125" lon="14.43822828121483325958251953125">         <ele>1606.199951171875</ele>         <time>2026-02-28T10:40:44.000Z</time>         <extensions>           <ns3:TrackPointExtension>             <ns3:hr>121</ns3:hr>           </ns3:TrackPointExtension>         </extensions>       </trkpt>
       <trkpt lat="45.5871598608791828155517578125" lon="14.4382400996983051300048828125">         <ele>1606.199951171875</ele>         <time>2026-02-28T10:40:51.000Z</time>         <extensions>           <ns3:TrackPointExtension>             <ns3:hr>120</ns3:hr>           </ns3:TrackPointExtension>         </extensions>       </trkpt>
       <trkpt lat="45.58716304600238800048828125" lon="14.4382431171834468841552734375">         <ele>1606</ele>         <time>2026-02-28T10:40:54.000Z</time>         <extensions>           <ns3:TrackPointExtension>             <ns3:hr>117</ns3:hr>           </ns3:TrackPointExtension>         </extensions>       </trkpt>
       <trkpt lat="45.58716229163110256195068359375" lon="14.43826583214104175567626953125">         <ele>1605.800048828125</ele>         <time>2026-02-28T10:40:57.000Z</time>         <extensions>           <ns3:TrackPointExtension>             <ns3:hr>118</ns3:hr>           </ns3:TrackPointExtension>         </extensions>       </trkpt>
       <trkpt lat="45.58715575374662876129150390625" lon="14.43828175775706768035888671875">         <ele>1605.800048828125</ele>         <time>2026-02-28T10:41:06.000Z</time>         <extensions>           <ns3:TrackPointExtension>             <ns3:hr>115</ns3:hr>           </ns3:TrackPointExtension>         </extensions>       </trkpt>
       <trkpt lat="45.58717721141874790191650390625" lon="14.43838720209896564483642578125">         <ele>1605.199951171875</ele>         <time>2026-02-28T10:41:13.000Z</time>         <extensions>           <ns3:TrackPointExtension>             <ns3:hr>113</ns3:hr>           </ns3:TrackPointExtension>         </extensions>       </trkpt>
       <trkpt lat="45.58720939792692661285400390625" lon="14.43842374719679355621337890625">         <ele>1605.199951171875</ele>         <time>2026-02-28T10:41:19.000Z</time>         <extensions>           <ns3:TrackPointExtension>             <ns3:hr>114</ns3:hr>           </ns3:TrackPointExtension>         </extensions>       </trkpt>
       <trkpt lat="45.5872416682541370391845703125" lon="14.4384607113897800445556640625">         <ele>1605.800048828125</ele>         <time>2026-02-28T10:41:24.000Z</time>         <extensions>           <ns3:TrackPointExtension>             <ns3:hr>116</ns3:hr>           </ns3:TrackPointExtension>         </extensions>       </trkpt>
       <trkpt lat="45.5872426740825176239013671875" lon="14.4384692609310150146484375">         <ele>1605.800048828125</ele>         <time>2026-02-28T10:41:30.000Z</time>         <extensions>           <ns3:TrackPointExtension>             <ns3:hr>113</ns3:hr>           </ns3:TrackPointExtension>         </extensions>       </trkpt>
       <trkpt lat="45.5872466973960399627685546875" lon="14.43847420625388622283935546875">         <ele>1605.800048828125</ele>         <time>2026-02-28T10:41:31.000Z</time>         <extensions>           <ns3:TrackPointExtension>             <ns3:hr>109</ns3:hr>           </ns3:TrackPointExtension>         </extensions>       </trkpt>
       <trkpt lat="45.5872513912618160247802734375" lon="14.43847588263452053070068359375">         <ele>1605.800048828125</ele>         <time>2026-02-28T10:41:32.000Z</time>         <extensions>           <ns3:TrackPointExtension>             <ns3:hr>106</ns3:hr>           </ns3:TrackPointExtension>         </extensions>       </trkpt>
       <trkpt lat="45.587277710437774658203125" lon="14.438504464924335479736328125">         <ele>1605.5999755859375</ele>         <time>2026-02-28T10:41:35.000Z</time>         <extensions>           <ns3:TrackPointExtension>             <ns3:hr>105</ns3:hr>           </ns3:TrackPointExtension>         </extensions>       </trkpt>
       <trkpt lat="45.5873053707182407379150390625" lon="14.43854830227792263031005859375">         <ele>1605.5999755859375</ele>         <time>2026-02-28T10:41:41.000Z</time>         <extensions>           <ns3:TrackPointExtension>             <ns3:hr>107</ns3:hr>           </ns3:TrackPointExtension>         </extensions>       </trkpt>
       <trkpt lat="45.58731836266815662384033203125" lon="14.4385679997503757476806640625">         <ele>1605.800048828125</ele>         <time>2026-02-28T10:41:44.000Z</time>         <extensions>           <ns3:TrackPointExtension>             <ns3:hr>104</ns3:hr>           </ns3:TrackPointExtension>         </extensions>       </trkpt>
       <trkpt lat="45.587326325476169586181640625" lon="14.43857730366289615631103515625">         <ele>1605.800048828125</ele>         <time>2026-02-28T10:41:45.000Z</time>         <extensions>           <ns3:TrackPointExtension>             <ns3:hr>101</ns3:hr>           </ns3:TrackPointExtension>         </extensions>       </trkpt>
       <trkpt lat="45.5873405747115612030029296875" lon="14.43861083127558231353759765625">         <ele>1605.800048828125</ele>         <time>2026-02-28T10:41:48.000Z</time>         <extensions>           <ns3:TrackPointExtension>             <ns3:hr>98</ns3:hr>           </ns3:TrackPointExtension>         </extensions>       </trkpt>
       <trkpt lat="45.58734811842441558837890625" lon="14.4386511482298374176025390625">         <ele>1605.800048828125</ele>         <time>2026-02-28T10:41:51.000Z</time>         <extensions>           <ns3:TrackPointExtension>             <ns3:hr>99</ns3:hr>           </ns3:TrackPointExtension>         </extensions>       </trkpt>
       <trkpt lat="45.5873801372945308685302734375" lon="14.4387252442538738250732421875">         <ele>1604.800048828125</ele>         <time>2026-02-28T10:41:57.000Z</time>         <extensions>           <ns3:TrackPointExtension>             <ns3:hr>101</ns3:hr>           </ns3:TrackPointExtension>         </extensions>       </trkpt>
       <trkpt lat="45.587387345731258392333984375" lon="14.4387326203286647796630859375">         <ele>1604.5999755859375</ele>         <time>2026-02-28T10:41:58.000Z</time>         <extensions>           <ns3:TrackPointExtension>             <ns3:hr>100</ns3:hr>           </ns3:TrackPointExtension>         </extensions>       </trkpt>
       <trkpt lat="45.5874103121459484100341796875" lon="14.43877276964485645294189453125">         <ele>1603.800048828125</ele>         <time>2026-02-28T10:42:02.000Z</time>         <extensions>           <ns3:TrackPointExtension>             <ns3:hr>102</ns3:hr>           </ns3:TrackPointExtension>         </extensions>       </trkpt>
       <trkpt lat="45.58741441927850246429443359375" lon="14.43877964280545711517333984375">         <ele>1603.4000244140625</ele>         <time>2026-02-28T10:42:05.000Z</time>         <extensions>           <ns3:TrackPointExtension>             <ns3:hr>104</ns3:hr>           </ns3:TrackPointExtension>         </extensions>       </trkpt>
       <trkpt lat="45.58740201406180858612060546875" lon="14.4387765415012836456298828125">         <ele>1603.5999755859375</ele>         <time>2026-02-28T10:42:09.000Z</time>         <extensions>           <ns3:TrackPointExtension>             <ns3:hr>106</ns3:hr>           </ns3:TrackPointExtension>         </extensions>       </trkpt>
       <trkpt lat="45.58740838430821895599365234375" lon="14.4387792237102985382080078125">         <ele>1603.800048828125</ele>         <time>2026-02-28T10:42:18.000Z</time>         <extensions>           <ns3:TrackPointExtension>             <ns3:hr>106</ns3:hr>           </ns3:TrackPointExtension>         </extensions>       </trkpt>
       <trkpt lat="45.58741626329720020294189453125" lon="14.4387788884341716766357421875">         <ele>1603.5999755859375</ele>         <time>2026-02-28T10:42:23.000Z</time>         <extensions>           <ns3:TrackPointExtension>             <ns3:hr>109</ns3:hr>           </ns3:TrackPointExtension>         </extensions>       </trkpt>
       <trkpt lat="45.5874240584671497344970703125" lon="14.43878383375704288482666015625">         <ele>1603.4000244140625</ele>         <time>2026-02-28T10:42:26.000Z</time>         <extensions>           <ns3:TrackPointExtension>             <ns3:hr>109</ns3:hr>           </ns3:TrackPointExtension>         </extensions>       </trkpt>
       <trkpt lat="45.58741726912558078765869140625" lon="14.43877763114869594573974609375">         <ele>1603</ele>         <time>2026-02-28T10:42:32.000Z</time>         <extensions>           <ns3:TrackPointExtension>             <ns3:hr>108</ns3:hr>           </ns3:TrackPointExtension>         </extensions>       </trkpt>
       <trkpt lat="45.58745674788951873779296875" lon="14.43883546628057956695556640625">         <ele>1602.5999755859375</ele>         <time>2026-02-28T10:42:36.000Z</time>         <extensions>           <ns3:TrackPointExtension>             <ns3:hr>108</ns3:hr>           </ns3:TrackPointExtension>         </extensions>       </trkpt>
       <trkpt lat="45.5874756909906864166259765625" lon="14.43886262364685535430908203125">         <ele>1602.199951171875</ele>         <time>2026-02-28T10:42:37.000Z</time>         <extensions>           <ns3:TrackPointExtension>             <ns3:hr>108</ns3:hr>           </ns3:TrackPointExtension>         </extensions>       </trkpt>
       <trkpt lat="45.58749354444444179534912109375" lon="14.43888969719409942626953125">         <ele>1601.800048828125</ele>         <time>2026-02-28T10:42:38.000Z</time>         <extensions>           <ns3:TrackPointExtension>             <ns3:hr>111</ns3:hr>           </ns3:TrackPointExtension>         </extensions>       </trkpt>
       <trkpt lat="45.587528161704540252685546875" lon="14.43893806077539920806884765625">         <ele>1601</ele>         <time>2026-02-28T10:42:40.000Z</time>         <extensions>           <ns3:TrackPointExtension>             <ns3:hr>113</ns3:hr>           </ns3:TrackPointExtension>         </extensions>       </trkpt>
       <trkpt lat="45.58755867183208465576171875" lon="14.4389736838638782501220703125">         <ele>1600.4000244140625</ele>         <time>2026-02-28T10:42:42.000Z</time>         <extensions>           <ns3:TrackPointExtension>             <ns3:hr>113</ns3:hr>           </ns3:TrackPointExtension>         </extensions>       </trkpt>
       <trkpt lat="45.587603263556957244873046875" lon="14.4390142522752285003662109375">         <ele>1600</ele>         <time>2026-02-28T10:42:48.000Z</time>         <extensions>           <ns3:TrackPointExtension>             <ns3:hr>112</ns3:hr>           </ns3:TrackPointExtension>         </extensions>       </trkpt>
       <trkpt lat="45.587654896080493927001953125" lon="14.43904283456504344940185546875">         <ele>1600.4000244140625</ele>         <time>2026-02-28T10:42:54.000Z</time>         <extensions>           <ns3:TrackPointExtension>             <ns3:hr>113</ns3:hr>           </ns3:TrackPointExtension>         </extensions>       </trkpt>
       <trkpt lat="45.587680041790008544921875" lon="14.4390635378658771514892578125">         <ele>1601.199951171875</ele>         <time>2026-02-28T10:42:59.000Z</time>         <extensions>           <ns3:TrackPointExtension>             <ns3:hr>111</ns3:hr>           </ns3:TrackPointExtension>         </extensions>       </trkpt>
       <trkpt lat="45.58770485222339630126953125" lon="14.43907904438674449920654296875">         <ele>1601.4000244140625</ele>         <time>2026-02-28T10:43:04.000Z</time>         <extensions>           <ns3:TrackPointExtension>             <ns3:hr>107</ns3:hr>           </ns3:TrackPointExtension>         </extensions>       </trkpt>
       <trkpt lat="45.58771717362105846405029296875" lon="14.43909044377505779266357421875">         <ele>1601.4000244140625</ele>         <time>2026-02-28T10:43:06.000Z</time>         <extensions>           <ns3:TrackPointExtension>             <ns3:hr>103</ns3:hr>           </ns3:TrackPointExtension>         </extensions>       </trkpt>
       <trkpt lat="45.58773829601705074310302734375" lon="14.4391144998371601104736328125">         <ele>1601.800048828125</ele>         <time>2026-02-28T10:43:11.000Z</time>         <extensions>           <ns3:TrackPointExtension>             <ns3:hr>101</ns3:hr>           </ns3:TrackPointExtension>         </extensions>       </trkpt>
       <trkpt lat="45.58776863850653171539306640625" lon="14.43914123810827732086181640625">         <ele>1601.800048828125</ele>         <time>2026-02-28T10:43:16.000Z</time>         <extensions>           <ns3:TrackPointExtension>             <ns3:hr>102</ns3:hr>           </ns3:TrackPointExtension>         </extensions>       </trkpt>
       <trkpt lat="45.5877831391990184783935546875" lon="14.4391513802111148834228515625">         <ele>1602.199951171875</ele>         <time>2026-02-28T10:43:19.000Z</time>         <extensions>           <ns3:TrackPointExtension>             <ns3:hr>103</ns3:hr>           </ns3:TrackPointExtension>         </extensions>       </trkpt>
       <trkpt lat="45.5877995677292346954345703125" lon="14.4391597621142864227294921875">         <ele>1602.800048828125</ele>         <time>2026-02-28T10:43:23.000Z</time>         <extensions>           <ns3:TrackPointExtension>             <ns3:hr>105</ns3:hr>           </ns3:TrackPointExtension>         </extensions>       </trkpt>
       <trkpt lat="45.58781339786946773529052734375" lon="14.43916730582714080810546875">         <ele>1603</ele>         <time>2026-02-28T10:43:26.000Z</time>         <extensions>           <ns3:TrackPointExtension>             <ns3:hr>108</ns3:hr>           </ns3:TrackPointExtension>         </extensions>       </trkpt>
       <trkpt lat="45.587822534143924713134765625" lon="14.43916864693164825439453125">         <ele>1603.199951171875</ele>         <time>2026-02-28T10:43:27.000Z</time>         <extensions>           <ns3:TrackPointExtension>             <ns3:hr>108</ns3:hr>           </ns3:TrackPointExtension>         </extensions>       </trkpt>
       <trkpt lat="45.587843991816043853759765625" lon="14.4391701556742191314697265625">         <ele>1603.4000244140625</ele>         <time>2026-02-28T10:43:30.000Z</time>         <extensions>           <ns3:TrackPointExtension>             <ns3:hr>109</ns3:hr>           </ns3:TrackPointExtension>         </extensions>       </trkpt>
       <trkpt lat="45.58788992464542388916015625" lon="14.43918733857572078704833984375">         <ele>1603.4000244140625</ele>         <time>2026-02-28T10:43:35.000Z</time>         <extensions>           <ns3:TrackPointExtension>             <ns3:hr>110</ns3:hr>           </ns3:TrackPointExtension>         </extensions>       </trkpt>
       <trkpt lat="45.58792303316295146942138671875" lon="14.4391973130404949188232421875">         <ele>1603.800048828125</ele>         <time>2026-02-28T10:43:40.000Z</time>         <extensions>           <ns3:TrackPointExtension>             <ns3:hr>111</ns3:hr>           </ns3:TrackPointExtension>         </extensions>       </trkpt>
       <trkpt lat="45.58792906813323497772216796875" lon="14.4392093829810619354248046875">         <ele>1604</ele>         <time>2026-02-28T10:43:46.000Z</time>         <extensions>           <ns3:TrackPointExtension>             <ns3:hr>115</ns3:hr>           </ns3:TrackPointExtension>         </extensions>       </trkpt>
       <trkpt lat="45.5879380367696285247802734375" lon="14.4392108917236328125">         <ele>1604</ele>         <time>2026-02-28T10:43:48.000Z</time>         <extensions>           <ns3:TrackPointExtension>             <ns3:hr>119</ns3:hr>           </ns3:TrackPointExtension>         </extensions>       </trkpt>
       <trkpt lat="45.58796293102204799652099609375" lon="14.43921969272196292877197265625">         <ele>1604</ele>         <time>2026-02-28T10:43:52.000Z</time>         <extensions>           <ns3:TrackPointExtension>             <ns3:hr>118</ns3:hr>           </ns3:TrackPointExtension>         </extensions>       </trkpt>
       <trkpt lat="45.5879812873899936676025390625" lon="14.43922639824450016021728515625">         <ele>1604.199951171875</ele>         <time>2026-02-28T10:43:57.000Z</time>         <extensions>           <ns3:TrackPointExtension>             <ns3:hr>117</ns3:hr>           </ns3:TrackPointExtension>         </extensions>       </trkpt>
       <trkpt lat="45.58802135288715362548828125" lon="14.43926193751394748687744140625">         <ele>1604.4000244140625</ele>         <time>2026-02-28T10:44:03.000Z</time>         <extensions>           <ns3:TrackPointExtension>             <ns3:hr>117</ns3:hr>           </ns3:TrackPointExtension>         </extensions>       </trkpt>
       <trkpt lat="45.5880630947649478912353515625" lon="14.439309798181056976318359375">         <ele>1603.5999755859375</ele>         <time>2026-02-28T10:44:08.000Z</time>         <extensions>           <ns3:TrackPointExtension>             <ns3:hr>117</ns3:hr>           </ns3:TrackPointExtension>         </extensions>       </trkpt>
       <trkpt lat="45.58809385634958744049072265625" lon="14.43933687172830104827880859375">         <ele>1603</ele>         <time>2026-02-28T10:44:10.000Z</time>         <extensions>           <ns3:TrackPointExtension>             <ns3:hr>115</ns3:hr>           </ns3:TrackPointExtension>         </extensions>       </trkpt>
       <trkpt lat="45.58813392184674739837646484375" lon="14.439389593899250030517578125">         <ele>1602.4000244140625</ele>         <time>2026-02-28T10:44:14.000Z</time>         <extensions>           <ns3:TrackPointExtension>             <ns3:hr>115</ns3:hr>           </ns3:TrackPointExtension>         </extensions>       </trkpt>
       <trkpt lat="45.58814733289182186126708984375" lon="14.4394222833216190338134765625">         <ele>1602.4000244140625</ele>         <time>2026-02-28T10:44:18.000Z</time>         <extensions>           <ns3:TrackPointExtension>             <ns3:hr>112</ns3:hr>           </ns3:TrackPointExtension>         </extensions>       </trkpt>
       <trkpt lat="45.58815412223339080810546875" lon="14.43947031162679195404052734375">         <ele>1602.800048828125</ele>         <time>2026-02-28T10:44:23.000Z</time>         <extensions>           <ns3:TrackPointExtension>             <ns3:hr>111</ns3:hr>           </ns3:TrackPointExtension>         </extensions>       </trkpt>
       <trkpt lat="45.58815470896661281585693359375" lon="14.439496882259845733642578125">         <ele>1603.4000244140625</ele>         <time>2026-02-28T10:44:30.000Z</time>         <extensions>           <ns3:TrackPointExtension>             <ns3:hr>110</ns3:hr>           </ns3:TrackPointExtension>         </extensions>       </trkpt>
       <trkpt lat="45.588151775300502777099609375" lon="14.43951440043747425079345703125">         <ele>1603.5999755859375</ele>         <time>2026-02-28T10:44:35.000Z</time>         <extensions>           <ns3:TrackPointExtension>             <ns3:hr>105</ns3:hr>           </ns3:TrackPointExtension>         </extensions>       </trkpt>
       <trkpt lat="45.58815144002437591552734375" lon="14.43952043540775775909423828125">         <ele>1603.5999755859375</ele>         <time>2026-02-28T10:44:36.000Z</time>         <extensions>           <ns3:TrackPointExtension>             <ns3:hr>102</ns3:hr>           </ns3:TrackPointExtension>         </extensions>       </trkpt>
       <trkpt lat="45.588149763643741607666015625" lon="14.43952848203480243682861328125">         <ele>1603.800048828125</ele>         <time>2026-02-28T10:44:38.000Z</time>         <extensions>           <ns3:TrackPointExtension>             <ns3:hr>99</ns3:hr>           </ns3:TrackPointExtension>         </extensions>       </trkpt>
       <trkpt lat="45.58814532123506069183349609375" lon="14.4395617581903934478759765625">         <ele>1604</ele>         <time>2026-02-28T10:44:41.000Z</time>         <extensions>           <ns3:TrackPointExtension>             <ns3:hr>102</ns3:hr>           </ns3:TrackPointExtension>         </extensions>       </trkpt>
       <trkpt lat="45.5881455726921558380126953125" lon="14.43956972099840641021728515625">         <ele>1604.199951171875</ele>         <time>2026-02-28T10:44:42.000Z</time>         <extensions>           <ns3:TrackPointExtension>             <ns3:hr>103</ns3:hr>           </ns3:TrackPointExtension>         </extensions>       </trkpt>
       <trkpt lat="45.58813576586544513702392578125" lon="14.439614228904247283935546875">         <ele>1604.5999755859375</ele>         <time>2026-02-28T10:44:47.000Z</time>         <extensions>           <ns3:TrackPointExtension>             <ns3:hr>106</ns3:hr>           </ns3:TrackPointExtension>         </extensions>       </trkpt>
       <trkpt lat="45.58812998235225677490234375" lon="14.43963669240474700927734375">         <ele>1605</ele>         <time>2026-02-28T10:44:55.000Z</time>         <extensions>           <ns3:TrackPointExtension>             <ns3:hr>109</ns3:hr>           </ns3:TrackPointExtension>         </extensions>       </trkpt>
       <trkpt lat="45.5881308205425739288330078125" lon="14.43964918144047260284423828125">         <ele>1605</ele>         <time>2026-02-28T10:44:58.000Z</time>         <extensions>           <ns3:TrackPointExtension>             <ns3:hr>110</ns3:hr>           </ns3:TrackPointExtension>         </extensions>       </trkpt>
       <trkpt lat="45.58813241310417652130126953125" lon="14.4396573118865489959716796875">         <ele>1605.4000244140625</ele>         <time>2026-02-28T10:45:02.000Z</time>         <extensions>           <ns3:TrackPointExtension>             <ns3:hr>110</ns3:hr>           </ns3:TrackPointExtension>         </extensions>       </trkpt>
       <trkpt lat="45.5881375260651111602783203125" lon="14.439656473696231842041015625">         <ele>1605.199951171875</ele>         <time>2026-02-28T10:45:10.000Z</time>         <extensions>           <ns3:TrackPointExtension>             <ns3:hr>112</ns3:hr>           </ns3:TrackPointExtension>         </extensions>       </trkpt>
       <trkpt lat="45.5881375260651111602783203125" lon="14.439654462039470672607421875">         <ele>1605.199951171875</ele>         <time>2026-02-28T10:45:13.000Z</time>         <extensions>           <ns3:TrackPointExtension>             <ns3:hr>115</ns3:hr>           </ns3:TrackPointExtension>         </extensions>       </trkpt>
       <trkpt lat="45.58813056908547878265380859375" lon="14.4396583177149295806884765625">         <ele>1606</ele>         <time>2026-02-28T10:45:19.000Z</time>         <extensions>           <ns3:TrackPointExtension>             <ns3:hr>114</ns3:hr>           </ns3:TrackPointExtension>         </extensions>       </trkpt>
       <trkpt lat="45.5881308205425739288330078125" lon="14.4396697171032428741455078125">         <ele>1606</ele>         <time>2026-02-28T10:45:21.000Z</time>         <extensions>           <ns3:TrackPointExtension>             <ns3:hr>113</ns3:hr>           </ns3:TrackPointExtension>         </extensions>       </trkpt>
       <trkpt lat="45.58812319301068782806396484375" lon="14.4397015683352947235107421875">         <ele>1606.4000244140625</ele>         <time>2026-02-28T10:45:27.000Z</time>         <extensions>           <ns3:TrackPointExtension>             <ns3:hr>112</ns3:hr>           </ns3:TrackPointExtension>         </extensions>       </trkpt>
       <trkpt lat="45.58812470175325870513916015625" lon="14.43970969878137111663818359375">         <ele>1606.199951171875</ele>         <time>2026-02-28T10:45:33.000Z</time>         <extensions>           <ns3:TrackPointExtension>             <ns3:hr>109</ns3:hr>           </ns3:TrackPointExtension>         </extensions>       </trkpt>
       <trkpt lat="45.5881244502961635589599609375" lon="14.4397233612835407257080078125">         <ele>1606.199951171875</ele>         <time>2026-02-28T10:45:35.000Z</time>         <extensions>           <ns3:TrackPointExtension>             <ns3:hr>110</ns3:hr>           </ns3:TrackPointExtension>         </extensions>       </trkpt>
       <trkpt lat="45.58811254799365997314453125" lon="14.43976342678070068359375">         <ele>1606.5999755859375</ele>         <time>2026-02-28T10:45:41.000Z</time>         <extensions>           <ns3:TrackPointExtension>             <ns3:hr>108</ns3:hr>           </ns3:TrackPointExtension>         </extensions>       </trkpt>
       <trkpt lat="45.5881019867956638336181640625" lon="14.4397915899753570556640625">         <ele>1607.199951171875</ele>         <time>2026-02-28T10:45:46.000Z</time>         <extensions>           <ns3:TrackPointExtension>             <ns3:hr>107</ns3:hr>           </ns3:TrackPointExtension>         </extensions>       </trkpt>
       <trkpt lat="45.5880890786647796630859375" lon="14.43981061689555644989013671875">         <ele>1607.4000244140625</ele>         <time>2026-02-28T10:45:49.000Z</time>         <extensions>           <ns3:TrackPointExtension>             <ns3:hr>107</ns3:hr>           </ns3:TrackPointExtension>         </extensions>       </trkpt>
       <trkpt lat="45.5880808643996715545654296875" lon="14.43984531797468662261962890625">         <ele>1608</ele>         <time>2026-02-28T10:45:54.000Z</time>         <extensions>           <ns3:TrackPointExtension>             <ns3:hr>107</ns3:hr>           </ns3:TrackPointExtension>         </extensions>       </trkpt>
       <trkpt lat="45.58807742781937122344970703125" lon="14.43985621444880962371826171875">         <ele>1608.199951171875</ele>         <time>2026-02-28T10:45:56.000Z</time>         <extensions>           <ns3:TrackPointExtension>             <ns3:hr>108</ns3:hr>           </ns3:TrackPointExtension>         </extensions>       </trkpt>
       <trkpt lat="45.58806426823139190673828125" lon="14.43988907150924205780029296875">         <ele>1608.800048828125</ele>         <time>2026-02-28T10:46:00.000Z</time>         <extensions>           <ns3:TrackPointExtension>             <ns3:hr>110</ns3:hr>           </ns3:TrackPointExtension>         </extensions>       </trkpt>
       <trkpt lat="45.5880436487495899200439453125" lon="14.43994170986115932464599609375">         <ele>1609</ele>         <time>2026-02-28T10:46:06.000Z</time>         <extensions>           <ns3:TrackPointExtension>             <ns3:hr>112</ns3:hr>           </ns3:TrackPointExtension>         </extensions>       </trkpt>
       <trkpt lat="45.58803853578865528106689453125" lon="14.43999988026916980743408203125">         <ele>1609</ele>         <time>2026-02-28T10:46:12.000Z</time>         <extensions>           <ns3:TrackPointExtension>             <ns3:hr>112</ns3:hr>           </ns3:TrackPointExtension>         </extensions>       </trkpt>
       <trkpt lat="45.58803208172321319580078125" lon="14.44003307260572910308837890625">         <ele>1609.4000244140625</ele>         <time>2026-02-28T10:46:16.000Z</time>         <extensions>           <ns3:TrackPointExtension>             <ns3:hr>113</ns3:hr>           </ns3:TrackPointExtension>         </extensions>       </trkpt>
       <trkpt lat="45.5880282260477542877197265625" lon="14.4400445558130741119384765625">         <ele>1609.5999755859375</ele>         <time>2026-02-28T10:46:18.000Z</time>         <extensions>           <ns3:TrackPointExtension>             <ns3:hr>113</ns3:hr>           </ns3:TrackPointExtension>         </extensions>       </trkpt>
       <trkpt lat="45.58801892213523387908935546875" lon="14.44010205566883087158203125">         <ele>1610.4000244140625</ele>         <time>2026-02-28T10:46:25.000Z</time>         <extensions>           <ns3:TrackPointExtension>             <ns3:hr>112</ns3:hr>           </ns3:TrackPointExtension>         </extensions>       </trkpt>
       <trkpt lat="45.58801867067813873291015625" lon="14.44010817445814609527587890625">         <ele>1610.5999755859375</ele>         <time>2026-02-28T10:46:26.000Z</time>         <extensions>           <ns3:TrackPointExtension>             <ns3:hr>110</ns3:hr>           </ns3:TrackPointExtension>         </extensions>       </trkpt>
       <trkpt lat="45.58800869621336460113525390625" lon="14.44014840759336948394775390625">         <ele>1611</ele>         <time>2026-02-28T10:46:30.000Z</time>         <extensions>           <ns3:TrackPointExtension>             <ns3:hr>108</ns3:hr>           </ns3:TrackPointExtension>         </extensions>       </trkpt>
       <trkpt lat="45.58799863792955875396728515625" lon="14.4401820190250873565673828125">         <ele>1611.5999755859375</ele>         <time>2026-02-28T10:46:34.000Z</time>         <extensions>           <ns3:TrackPointExtension>             <ns3:hr>106</ns3:hr>           </ns3:TrackPointExtension>         </extensions>       </trkpt>
       <trkpt lat="45.58799545280635356903076171875" lon="14.4402165524661540985107421875">         <ele>1612</ele>         <time>2026-02-28T10:46:37.000Z</time>         <extensions>           <ns3:TrackPointExtension>             <ns3:hr>105</ns3:hr>           </ns3:TrackPointExtension>         </extensions>       </trkpt>
       <trkpt lat="45.58799126185476779937744140625" lon="14.44027044810354709625244140625">         <ele>1612.4000244140625</ele>         <time>2026-02-28T10:46:42.000Z</time>         <extensions>           <ns3:TrackPointExtension>             <ns3:hr>105</ns3:hr>           </ns3:TrackPointExtension>         </extensions>       </trkpt>
       <trkpt lat="45.58799210004508495330810546875" lon="14.44028235040605068206787109375">         <ele>1612.5999755859375</ele>         <time>2026-02-28T10:46:44.000Z</time>         <extensions>           <ns3:TrackPointExtension>             <ns3:hr>105</ns3:hr>           </ns3:TrackPointExtension>         </extensions>       </trkpt>
       <trkpt lat="45.58799830265343189239501953125" lon="14.44031269289553165435791015625">         <ele>1613.199951171875</ele>         <time>2026-02-28T10:46:49.000Z</time>         <extensions>           <ns3:TrackPointExtension>             <ns3:hr>108</ns3:hr>           </ns3:TrackPointExtension>         </extensions>       </trkpt>
       <trkpt lat="45.58800525963306427001953125" lon="14.44031956605613231658935546875">         <ele>1613.4000244140625</ele>         <time>2026-02-28T10:46:51.000Z</time>         <extensions>           <ns3:TrackPointExtension>             <ns3:hr>111</ns3:hr>           </ns3:TrackPointExtension>         </extensions>       </trkpt>
       <trkpt lat="45.58800886385142803192138671875" lon="14.440325684845447540283203125">         <ele>1613.800048828125</ele>         <time>2026-02-28T10:46:53.000Z</time>         <extensions>           <ns3:TrackPointExtension>             <ns3:hr>115</ns3:hr>           </ns3:TrackPointExtension>         </extensions>       </trkpt>
       <trkpt lat="45.58801196515560150146484375" lon="14.44033867679536342620849609375">         <ele>1614.199951171875</ele>         <time>2026-02-28T10:46:55.000Z</time>         <extensions>           <ns3:TrackPointExtension>             <ns3:hr>117</ns3:hr>           </ns3:TrackPointExtension>         </extensions>       </trkpt>
       <trkpt lat="45.58802068233489990234375" lon="14.44036424160003662109375">         <ele>1615</ele>         <time>2026-02-28T10:47:00.000Z</time>         <extensions>           <ns3:TrackPointExtension>             <ns3:hr>119</ns3:hr>           </ns3:TrackPointExtension>         </extensions>       </trkpt>
       <trkpt lat="45.58802478946745395660400390625" lon="14.44037756882607936859130859375">         <ele>1615.4000244140625</ele>         <time>2026-02-28T10:47:04.000Z</time>         <extensions>           <ns3:TrackPointExtension>             <ns3:hr>120</ns3:hr>           </ns3:TrackPointExtension>         </extensions>       </trkpt>
       <trkpt lat="45.5880339257419109344482421875" lon="14.44041226990520954132080078125">         <ele>1615.800048828125</ele>         <time>2026-02-28T10:47:08.000Z</time>         <extensions>           <ns3:TrackPointExtension>             <ns3:hr>123</ns3:hr>           </ns3:TrackPointExtension>         </extensions>       </trkpt>
       <trkpt lat="45.5880369432270526885986328125" lon="14.4404192268848419189453125">         <ele>1616</ele>         <time>2026-02-28T10:47:10.000Z</time>         <extensions>           <ns3:TrackPointExtension>             <ns3:hr>123</ns3:hr>           </ns3:TrackPointExtension>         </extensions>       </trkpt>
       <trkpt lat="45.58803920634090900421142578125" lon="14.44042417220771312713623046875">         <ele>1616.4000244140625</ele>         <time>2026-02-28T10:47:12.000Z</time>         <extensions>           <ns3:TrackPointExtension>             <ns3:hr>123</ns3:hr>           </ns3:TrackPointExtension>         </extensions>       </trkpt>
       <trkpt lat="45.58804658241569995880126953125" lon="14.4404421932995319366455078125">         <ele>1616.800048828125</ele>         <time>2026-02-28T10:47:15.000Z</time>         <extensions>           <ns3:TrackPointExtension>             <ns3:hr>124</ns3:hr>           </ns3:TrackPointExtension>         </extensions>       </trkpt>
       <trkpt lat="45.58805429376661777496337890625" lon="14.440467841923236846923828125">         <ele>1617.199951171875</ele>         <time>2026-02-28T10:47:18.000Z</time>         <extensions>           <ns3:TrackPointExtension>             <ns3:hr>125</ns3:hr>           </ns3:TrackPointExtension>         </extensions>       </trkpt>
       <trkpt lat="45.58805982582271099090576171875" lon="14.44048318080604076385498046875">         <ele>1617.4000244140625</ele>         <time>2026-02-28T10:47:20.000Z</time>         <extensions>           <ns3:TrackPointExtension>             <ns3:hr>126</ns3:hr>           </ns3:TrackPointExtension>         </extensions>       </trkpt>
       <trkpt lat="45.58806368149816989898681640625" lon="14.44049424491822719573974609375">         <ele>1617.800048828125</ele>         <time>2026-02-28T10:47:23.000Z</time>         <extensions>           <ns3:TrackPointExtension>             <ns3:hr>123</ns3:hr>           </ns3:TrackPointExtension>         </extensions>       </trkpt>
       <trkpt lat="45.58806686662137508392333984375" lon="14.44050530903041362762451171875">         <ele>1618.199951171875</ele>         <time>2026-02-28T10:47:26.000Z</time>         <extensions>           <ns3:TrackPointExtension>             <ns3:hr>126</ns3:hr>           </ns3:TrackPointExtension>         </extensions>       </trkpt>
       <trkpt lat="45.5880667828023433685302734375" lon="14.440540932118892669677734375">         <ele>1618.800048828125</ele>         <time>2026-02-28T10:47:31.000Z</time>         <extensions>           <ns3:TrackPointExtension>             <ns3:hr>124</ns3:hr>           </ns3:TrackPointExtension>         </extensions>       </trkpt>
       <trkpt lat="45.5880667828023433685302734375" lon="14.4405799917876720428466796875">         <ele>1619.199951171875</ele>         <time>2026-02-28T10:47:36.000Z</time>         <extensions>           <ns3:TrackPointExtension>             <ns3:hr>123</ns3:hr>           </ns3:TrackPointExtension>         </extensions>       </trkpt>
       <trkpt lat="45.58806150220334529876708984375" lon="14.4405756331980228424072265625">         <ele>1619.199951171875</ele>         <time>2026-02-28T10:47:39.000Z</time>         <extensions>           <ns3:TrackPointExtension>             <ns3:hr>126</ns3:hr>           </ns3:TrackPointExtension>         </extensions>       </trkpt>
       <trkpt lat="45.5880584008991718292236328125" lon="14.4405907206237316131591796875">         <ele>1619.5999755859375</ele>         <time>2026-02-28T10:47:44.000Z</time>         <extensions>           <ns3:TrackPointExtension>             <ns3:hr>127</ns3:hr>           </ns3:TrackPointExtension>         </extensions>       </trkpt>
       <trkpt lat="45.588055215775966644287109375" lon="14.44060388021171092987060546875">         <ele>1620</ele>         <time>2026-02-28T10:47:51.000Z</time>         <extensions>           <ns3:TrackPointExtension>             <ns3:hr>128</ns3:hr>           </ns3:TrackPointExtension>         </extensions>       </trkpt>
       <trkpt lat="45.588055551052093505859375" lon="14.4406269304454326629638671875">         <ele>1620.4000244140625</ele>         <time>2026-02-28T10:47:54.000Z</time>         <extensions>           <ns3:TrackPointExtension>             <ns3:hr>128</ns3:hr>           </ns3:TrackPointExtension>         </extensions>       </trkpt>
       <trkpt lat="45.5880590714514255523681640625" lon="14.4406430236995220184326171875">         <ele>1620.800048828125</ele>         <time>2026-02-28T10:47:58.000Z</time>         <extensions>           <ns3:TrackPointExtension>             <ns3:hr>127</ns3:hr>           </ns3:TrackPointExtension>         </extensions>       </trkpt>
       <trkpt lat="45.588058568537235260009765625" lon="14.44066674448549747467041015625">         <ele>1621.4000244140625</ele>         <time>2026-02-28T10:48:02.000Z</time>         <extensions>           <ns3:TrackPointExtension>             <ns3:hr>124</ns3:hr>           </ns3:TrackPointExtension>         </extensions>       </trkpt>
       <trkpt lat="45.58805848471820354461669921875" lon="14.44067311473190784454345703125">         <ele>1621.5999755859375</ele>         <time>2026-02-28T10:48:03.000Z</time>         <extensions>           <ns3:TrackPointExtension>             <ns3:hr>123</ns3:hr>           </ns3:TrackPointExtension>         </extensions>       </trkpt>
       <trkpt lat="45.588065274059772491455078125" lon="14.44071418605744838714599609375">         <ele>1622.199951171875</ele>         <time>2026-02-28T10:48:08.000Z</time>         <extensions>           <ns3:TrackPointExtension>             <ns3:hr>125</ns3:hr>           </ns3:TrackPointExtension>         </extensions>       </trkpt>
       <trkpt lat="45.58806451968848705291748046875" lon="14.44071368314325809478759765625">         <ele>1622.4000244140625</ele>         <time>2026-02-28T10:48:09.000Z</time>         <extensions>           <ns3:TrackPointExtension>             <ns3:hr>125</ns3:hr>           </ns3:TrackPointExtension>         </extensions>       </trkpt>
       <trkpt lat="45.5880708061158657073974609375" lon="14.4407357275485992431640625">         <ele>1623.199951171875</ele>         <time>2026-02-28T10:48:13.000Z</time>         <extensions>           <ns3:TrackPointExtension>             <ns3:hr>124</ns3:hr>           </ns3:TrackPointExtension>         </extensions>       </trkpt>
       <trkpt lat="45.588072650134563446044921875" lon="14.44075441919267177581787109375">         <ele>1623.5999755859375</ele>         <time>2026-02-28T10:48:17.000Z</time>         <extensions>           <ns3:TrackPointExtension>             <ns3:hr>123</ns3:hr>           </ns3:TrackPointExtension>         </extensions>       </trkpt>
       <trkpt lat="45.58807231485843658447265625" lon="14.44078543223440647125244140625">         <ele>1624</ele>         <time>2026-02-28T10:48:21.000Z</time>         <extensions>           <ns3:TrackPointExtension>             <ns3:hr>123</ns3:hr>           </ns3:TrackPointExtension>         </extensions>       </trkpt>
       <trkpt lat="45.58806317858397960662841796875" lon="14.4408227317035198211669921875">         <ele>1624.5999755859375</ele>         <time>2026-02-28T10:48:26.000Z</time>         <extensions>           <ns3:TrackPointExtension>             <ns3:hr>123</ns3:hr>           </ns3:TrackPointExtension>         </extensions>       </trkpt>
       <trkpt lat="45.58806468732655048370361328125" lon="14.44082801230251789093017578125">         <ele>1624.5999755859375</ele>         <time>2026-02-28T10:48:27.000Z</time>         <extensions>           <ns3:TrackPointExtension>             <ns3:hr>124</ns3:hr>           </ns3:TrackPointExtension>         </extensions>       </trkpt>
       <trkpt lat="45.58806829154491424560546875" lon="14.4408334605395793914794921875">         <ele>1624.800048828125</ele>         <time>2026-02-28T10:48:32.000Z</time>         <extensions>           <ns3:TrackPointExtension>             <ns3:hr>124</ns3:hr>           </ns3:TrackPointExtension>         </extensions>       </trkpt>
       <trkpt lat="45.58806569315493106842041015625" lon="14.44087855517864227294921875">         <ele>1625</ele>         <time>2026-02-28T10:48:40.000Z</time>         <extensions>           <ns3:TrackPointExtension>             <ns3:hr>126</ns3:hr>           </ns3:TrackPointExtension>         </extensions>       </trkpt>
       <trkpt lat="45.58805362321436405181884765625" lon="14.4409031979739665985107421875">         <ele>1625.4000244140625</ele>         <time>2026-02-28T10:48:44.000Z</time>         <extensions>           <ns3:TrackPointExtension>             <ns3:hr>129</ns3:hr>           </ns3:TrackPointExtension>         </extensions>       </trkpt>
       <trkpt lat="45.58804540894925594329833984375" lon="14.4409166090190410614013671875">         <ele>1625.5999755859375</ele>         <time>2026-02-28T10:48:47.000Z</time>         <extensions>           <ns3:TrackPointExtension>             <ns3:hr>131</ns3:hr>           </ns3:TrackPointExtension>         </extensions>       </trkpt>
       <trkpt lat="45.5880439840257167816162109375" lon="14.4409270025789737701416015625">         <ele>1625.800048828125</ele>         <time>2026-02-28T10:48:48.000Z</time>         <extensions>           <ns3:TrackPointExtension>             <ns3:hr>132</ns3:hr>           </ns3:TrackPointExtension>         </extensions>       </trkpt>
       <trkpt lat="45.58803602121770381927490234375" lon="14.440963380038738250732421875">         <ele>1626.4000244140625</ele>         <time>2026-02-28T10:48:52.000Z</time>         <extensions>           <ns3:TrackPointExtension>             <ns3:hr>132</ns3:hr>           </ns3:TrackPointExtension>         </extensions>       </trkpt>
       <trkpt lat="45.588026382029056549072265625" lon="14.4410047866404056549072265625">         <ele>1626.800048828125</ele>         <time>2026-02-28T10:48:57.000Z</time>         <extensions>           <ns3:TrackPointExtension>             <ns3:hr>133</ns3:hr>           </ns3:TrackPointExtension>         </extensions>       </trkpt>
       <trkpt lat="45.58802269399166107177734375" lon="14.44103152491152286529541015625">         <ele>1627.199951171875</ele>         <time>2026-02-28T10:49:00.000Z</time>         <extensions>           <ns3:TrackPointExtension>             <ns3:hr>131</ns3:hr>           </ns3:TrackPointExtension>         </extensions>       </trkpt>
       <trkpt lat="45.588023699820041656494140625" lon="14.441051892936229705810546875">         <ele>1627.4000244140625</ele>         <time>2026-02-28T10:49:02.000Z</time>         <extensions>           <ns3:TrackPointExtension>             <ns3:hr>128</ns3:hr>           </ns3:TrackPointExtension>         </extensions>       </trkpt>
       <trkpt lat="45.58802462182939052581787109375" lon="14.4410817325115203857421875">         <ele>1627.800048828125</ele>         <time>2026-02-28T10:49:05.000Z</time>         <extensions>           <ns3:TrackPointExtension>             <ns3:hr>128</ns3:hr>           </ns3:TrackPointExtension>         </extensions>       </trkpt>
       <trkpt lat="45.58802713640034198760986328125" lon="14.44109573028981685638427734375">         <ele>1628.199951171875</ele>         <time>2026-02-28T10:49:07.000Z</time>         <extensions>           <ns3:TrackPointExtension>             <ns3:hr>129</ns3:hr>           </ns3:TrackPointExtension>         </extensions>       </trkpt>
       <trkpt lat="45.588024370372295379638671875" lon="14.441127665340900421142578125">         <ele>1628.800048828125</ele>         <time>2026-02-28T10:49:10.000Z</time>         <extensions>           <ns3:TrackPointExtension>             <ns3:hr>126</ns3:hr>           </ns3:TrackPointExtension>         </extensions>       </trkpt>
       <trkpt lat="45.58802294544875621795654296875" lon="14.44113068282604217529296875">         <ele>1629</ele>         <time>2026-02-28T10:49:11.000Z</time>         <extensions>           <ns3:TrackPointExtension>             <ns3:hr>125</ns3:hr>           </ns3:TrackPointExtension>         </extensions>       </trkpt>
       <trkpt lat="45.5880154855549335479736328125" lon="14.4411380589008331298828125">         <ele>1629.199951171875</ele>         <time>2026-02-28T10:49:13.000Z</time>         <extensions>           <ns3:TrackPointExtension>             <ns3:hr>125</ns3:hr>           </ns3:TrackPointExtension>         </extensions>       </trkpt>
       <trkpt lat="45.5880060978233814239501953125" lon="14.44116077385842800140380859375">         <ele>1629.5999755859375</ele>         <time>2026-02-28T10:49:21.000Z</time>         <extensions>           <ns3:TrackPointExtension>             <ns3:hr>125</ns3:hr>           </ns3:TrackPointExtension>         </extensions>       </trkpt>
       <trkpt lat="45.58800836093723773956298828125" lon="14.4412012584507465362548828125">         <ele>1630</ele>         <time>2026-02-28T10:49:26.000Z</time>         <extensions>           <ns3:TrackPointExtension>             <ns3:hr>125</ns3:hr>           </ns3:TrackPointExtension>         </extensions>       </trkpt>
       <trkpt lat="45.58800349943339824676513671875" lon="14.44125029258430004119873046875">         <ele>1630.5999755859375</ele>         <time>2026-02-28T10:49:33.000Z</time>         <extensions>           <ns3:TrackPointExtension>             <ns3:hr>124</ns3:hr>           </ns3:TrackPointExtension>         </extensions>       </trkpt>
       <trkpt lat="45.58801037259399890899658203125" lon="14.44126051850616931915283203125">         <ele>1631.199951171875</ele>         <time>2026-02-28T10:49:36.000Z</time>         <extensions>           <ns3:TrackPointExtension>             <ns3:hr>123</ns3:hr>           </ns3:TrackPointExtension>         </extensions>       </trkpt>
       <trkpt lat="45.58800986967980861663818359375" lon="14.44125942885875701904296875">         <ele>1631.4000244140625</ele>         <time>2026-02-28T10:49:37.000Z</time>         <extensions>           <ns3:TrackPointExtension>             <ns3:hr>124</ns3:hr>           </ns3:TrackPointExtension>         </extensions>       </trkpt>
       <trkpt lat="45.588019676506519317626953125" lon="14.441288597881793975830078125">         <ele>1632</ele>         <time>2026-02-28T10:49:41.000Z</time>         <extensions>           <ns3:TrackPointExtension>             <ns3:hr>124</ns3:hr>           </ns3:TrackPointExtension>         </extensions>       </trkpt>
       <trkpt lat="45.58801867067813873291015625" lon="14.4412954710423946380615234375">         <ele>1632.4000244140625</ele>         <time>2026-02-28T10:49:43.000Z</time>         <extensions>           <ns3:TrackPointExtension>             <ns3:hr>124</ns3:hr>           </ns3:TrackPointExtension>         </extensions>       </trkpt>
       <trkpt lat="45.58802068233489990234375" lon="14.44129488430917263031005859375">         <ele>1632.5999755859375</ele>         <time>2026-02-28T10:49:45.000Z</time>         <extensions>           <ns3:TrackPointExtension>             <ns3:hr>124</ns3:hr>           </ns3:TrackPointExtension>         </extensions>       </trkpt>
       <trkpt lat="45.58802914805710315704345703125" lon="14.4413222931325435638427734375">         <ele>1633</ele>         <time>2026-02-28T10:49:49.000Z</time>         <extensions>           <ns3:TrackPointExtension>             <ns3:hr>123</ns3:hr>           </ns3:TrackPointExtension>         </extensions>       </trkpt>
       <trkpt lat="45.5880349315702915191650390625" lon="14.44134651683270931243896484375">         <ele>1633.4000244140625</ele>         <time>2026-02-28T10:49:51.000Z</time>         <extensions>           <ns3:TrackPointExtension>             <ns3:hr>122</ns3:hr>           </ns3:TrackPointExtension>         </extensions>       </trkpt>
       <trkpt lat="45.58803266845643520355224609375" lon="14.44134794175624847412109375">         <ele>1633.5999755859375</ele>         <time>2026-02-28T10:49:54.000Z</time>         <extensions>           <ns3:TrackPointExtension>             <ns3:hr>121</ns3:hr>           </ns3:TrackPointExtension>         </extensions>       </trkpt>
       <trkpt lat="45.5880292318761348724365234375" lon="14.441356323659420013427734375">         <ele>1633.199951171875</ele>         <time>2026-02-28T10:49:58.000Z</time>         <extensions>           <ns3:TrackPointExtension>             <ns3:hr>125</ns3:hr>           </ns3:TrackPointExtension>         </extensions>       </trkpt>
       <trkpt lat="45.58802680112421512603759765625" lon="14.44136261008679866790771484375">         <ele>1633.4000244140625</ele>         <time>2026-02-28T10:50:01.000Z</time>         <extensions>           <ns3:TrackPointExtension>             <ns3:hr>128</ns3:hr>           </ns3:TrackPointExtension>         </extensions>       </trkpt>
       <trkpt lat="45.58802596293389797210693359375" lon="14.44136579521000385284423828125">         <ele>1633.4000244140625</ele>         <time>2026-02-28T10:50:03.000Z</time>         <extensions>           <ns3:TrackPointExtension>             <ns3:hr>128</ns3:hr>           </ns3:TrackPointExtension>         </extensions>       </trkpt>
       <trkpt lat="45.588016994297504425048828125" lon="14.44135003723204135894775390625">         <ele>1633.800048828125</ele>         <time>2026-02-28T10:50:12.000Z</time>         <extensions>           <ns3:TrackPointExtension>             <ns3:hr>128</ns3:hr>           </ns3:TrackPointExtension>         </extensions>       </trkpt>
       <trkpt lat="45.58803166262805461883544921875" lon="14.4413982331752777099609375">         <ele>1634.199951171875</ele>         <time>2026-02-28T10:50:18.000Z</time>         <extensions>           <ns3:TrackPointExtension>             <ns3:hr>125</ns3:hr>           </ns3:TrackPointExtension>         </extensions>       </trkpt>
       <trkpt lat="45.58803417719900608062744140625" lon="14.44141156040132045745849609375">         <ele>1634.4000244140625</ele>         <time>2026-02-28T10:50:19.000Z</time>         <extensions>           <ns3:TrackPointExtension>             <ns3:hr>123</ns3:hr>           </ns3:TrackPointExtension>         </extensions>       </trkpt>
       <trkpt lat="45.58803518302738666534423828125" lon="14.44143067114055156707763671875">         <ele>1634.4000244140625</ele>         <time>2026-02-28T10:50:21.000Z</time>         <extensions>           <ns3:TrackPointExtension>             <ns3:hr>119</ns3:hr>           </ns3:TrackPointExtension>         </extensions>       </trkpt>
       <trkpt lat="45.58803744614124298095703125" lon="14.441447518765926361083984375">         <ele>1634.199951171875</ele>         <time>2026-02-28T10:50:25.000Z</time>         <extensions>           <ns3:TrackPointExtension>             <ns3:hr>118</ns3:hr>           </ns3:TrackPointExtension>         </extensions>       </trkpt>
       <trkpt lat="45.58803870342671871185302734375" lon="14.44145866669714450836181640625">         <ele>1634.199951171875</ele>         <time>2026-02-28T10:50:30.000Z</time>         <extensions>           <ns3:TrackPointExtension>             <ns3:hr>116</ns3:hr>           </ns3:TrackPointExtension>         </extensions>       </trkpt>
       <trkpt lat="45.588035099208354949951171875" lon="14.44145598448812961578369140625">         <ele>1634.199951171875</ele>         <time>2026-02-28T10:50:36.000Z</time>         <extensions>           <ns3:TrackPointExtension>             <ns3:hr>117</ns3:hr>           </ns3:TrackPointExtension>         </extensions>       </trkpt>
       <trkpt lat="45.5880319140851497650146484375" lon="14.44146285764873027801513671875">         <ele>1634.4000244140625</ele>         <time>2026-02-28T10:50:38.000Z</time>         <extensions>           <ns3:TrackPointExtension>             <ns3:hr>117</ns3:hr>           </ns3:TrackPointExtension>         </extensions>       </trkpt>
       <trkpt lat="45.588029064238071441650390625" lon="14.44146604277193546295166015625">         <ele>1634.800048828125</ele>         <time>2026-02-28T10:50:41.000Z</time>         <extensions>           <ns3:TrackPointExtension>             <ns3:hr>118</ns3:hr>           </ns3:TrackPointExtension>         </extensions>       </trkpt>
       <trkpt lat="45.58802671730518341064453125" lon="14.44149035029113292694091796875">         <ele>1635.199951171875</ele>         <time>2026-02-28T10:50:47.000Z</time>         <extensions>           <ns3:TrackPointExtension>             <ns3:hr>117</ns3:hr>           </ns3:TrackPointExtension>         </extensions>       </trkpt>
       <trkpt lat="45.5880295671522617340087890625" lon="14.44154349155724048614501953125">         <ele>1635.5999755859375</ele>         <time>2026-02-28T10:50:52.000Z</time>         <extensions>           <ns3:TrackPointExtension>             <ns3:hr>118</ns3:hr>           </ns3:TrackPointExtension>         </extensions>       </trkpt>
       <trkpt lat="45.58803149498999118804931640625" lon="14.44155656732618808746337890625">         <ele>1635.5999755859375</ele>         <time>2026-02-28T10:50:53.000Z</time>         <extensions>           <ns3:TrackPointExtension>             <ns3:hr>117</ns3:hr>           </ns3:TrackPointExtension>         </extensions>       </trkpt>
       <trkpt lat="45.58803744614124298095703125" lon="14.4416106306016445159912109375">         <ele>1636.199951171875</ele>         <time>2026-02-28T10:50:58.000Z</time>         <extensions>           <ns3:TrackPointExtension>             <ns3:hr>114</ns3:hr>           </ns3:TrackPointExtension>         </extensions>       </trkpt>
       <trkpt lat="45.5880381166934967041015625" lon="14.44162077270448207855224609375">         <ele>1636.199951171875</ele>         <time>2026-02-28T10:50:59.000Z</time>         <extensions>           <ns3:TrackPointExtension>             <ns3:hr>114</ns3:hr>           </ns3:TrackPointExtension>         </extensions>       </trkpt>
       <trkpt lat="45.5880461633205413818359375" lon="14.44165430031716823577880859375">         <ele>1636.5999755859375</ele>         <time>2026-02-28T10:51:03.000Z</time>         <extensions>           <ns3:TrackPointExtension>             <ns3:hr>114</ns3:hr>           </ns3:TrackPointExtension>         </extensions>       </trkpt>
       <trkpt lat="45.588048510253429412841796875" lon="14.44166603498160839080810546875">         <ele>1636.800048828125</ele>         <time>2026-02-28T10:51:04.000Z</time>         <extensions>           <ns3:TrackPointExtension>             <ns3:hr>114</ns3:hr>           </ns3:TrackPointExtension>         </extensions>       </trkpt>
       <trkpt lat="45.588050521910190582275390625" lon="14.441727139055728912353515625">         <ele>1637.4000244140625</ele>         <time>2026-02-28T10:51:10.000Z</time>         <extensions>           <ns3:TrackPointExtension>             <ns3:hr>113</ns3:hr>           </ns3:TrackPointExtension>         </extensions>       </trkpt>
       <trkpt lat="45.58806426823139190673828125" lon="14.44176209159195423126220703125">         <ele>1637.4000244140625</ele>         <time>2026-02-28T10:51:14.000Z</time>         <extensions>           <ns3:TrackPointExtension>             <ns3:hr>110</ns3:hr>           </ns3:TrackPointExtension>         </extensions>       </trkpt>
       <trkpt lat="45.58806720189750194549560546875" lon="14.44177080877125263214111328125">         <ele>1637.5999755859375</ele>         <time>2026-02-28T10:51:15.000Z</time>         <extensions>           <ns3:TrackPointExtension>             <ns3:hr>109</ns3:hr>           </ns3:TrackPointExtension>         </extensions>       </trkpt>
       <trkpt lat="45.58806829154491424560546875" lon="14.44177801720798015594482421875">         <ele>1637.800048828125</ele>         <time>2026-02-28T10:51:16.000Z</time>         <extensions>           <ns3:TrackPointExtension>             <ns3:hr>107</ns3:hr>           </ns3:TrackPointExtension>         </extensions>       </trkpt>
       <trkpt lat="45.5880848877131938934326171875" lon="14.44178891368210315704345703125">         <ele>1638.800048828125</ele>         <time>2026-02-28T10:51:23.000Z</time>         <extensions>           <ns3:TrackPointExtension>             <ns3:hr>110</ns3:hr>           </ns3:TrackPointExtension>         </extensions>       </trkpt>
       <trkpt lat="45.58810005895793437957763671875" lon="14.44181405939161777496337890625">         <ele>1639.5999755859375</ele>         <time>2026-02-28T10:51:27.000Z</time>         <extensions>           <ns3:TrackPointExtension>             <ns3:hr>113</ns3:hr>           </ns3:TrackPointExtension>         </extensions>       </trkpt>
       <trkpt lat="45.58810626156628131866455078125" lon="14.44182696752250194549560546875">         <ele>1639.800048828125</ele>         <time>2026-02-28T10:51:29.000Z</time>         <extensions>           <ns3:TrackPointExtension>             <ns3:hr>116</ns3:hr>           </ns3:TrackPointExtension>         </extensions>       </trkpt>
       <trkpt lat="45.58811112307012081146240234375" lon="14.44183819927275180816650390625">         <ele>1640</ele>         <time>2026-02-28T10:51:31.000Z</time>         <extensions>           <ns3:TrackPointExtension>             <ns3:hr>120</ns3:hr>           </ns3:TrackPointExtension>         </extensions>       </trkpt>
       <trkpt lat="45.58811254799365997314453125" lon="14.44184876047074794769287109375">         <ele>1640.199951171875</ele>         <time>2026-02-28T10:51:33.000Z</time>         <extensions>           <ns3:TrackPointExtension>             <ns3:hr>121</ns3:hr>           </ns3:TrackPointExtension>         </extensions>       </trkpt>
       <trkpt lat="45.58811598457396030426025390625" lon="14.44187977351248264312744140625">         <ele>1641</ele>         <time>2026-02-28T10:51:37.000Z</time>         <extensions>           <ns3:TrackPointExtension>             <ns3:hr>121</ns3:hr>           </ns3:TrackPointExtension>         </extensions>       </trkpt>
       <trkpt lat="45.588121600449085235595703125" lon="14.44189687259495258331298828125">         <ele>1641.199951171875</ele>         <time>2026-02-28T10:51:39.000Z</time>         <extensions>           <ns3:TrackPointExtension>             <ns3:hr>124</ns3:hr>           </ns3:TrackPointExtension>         </extensions>       </trkpt>
       <trkpt lat="45.58812704868614673614501953125" lon="14.4419153966009616851806640625">         <ele>1641.4000244140625</ele>         <time>2026-02-28T10:51:41.000Z</time>         <extensions>           <ns3:TrackPointExtension>             <ns3:hr>125</ns3:hr>           </ns3:TrackPointExtension>         </extensions>       </trkpt>
       <trkpt lat="45.58813476003706455230712890625" lon="14.44194297306239604949951171875">         <ele>1642.199951171875</ele>         <time>2026-02-28T10:51:46.000Z</time>         <extensions>           <ns3:TrackPointExtension>             <ns3:hr>127</ns3:hr>           </ns3:TrackPointExtension>         </extensions>       </trkpt>
       <trkpt lat="45.5881455726921558380126953125" lon="14.4419603236019611358642578125">         <ele>1642.4000244140625</ele>         <time>2026-02-28T10:51:49.000Z</time>         <extensions>           <ns3:TrackPointExtension>             <ns3:hr>128</ns3:hr>           </ns3:TrackPointExtension>         </extensions>       </trkpt>
       <trkpt lat="45.588153786957263946533203125" lon="14.44198421202600002288818359375">         <ele>1643</ele>         <time>2026-02-28T10:51:55.000Z</time>         <extensions>           <ns3:TrackPointExtension>             <ns3:hr>126</ns3:hr>           </ns3:TrackPointExtension>         </extensions>       </trkpt>
       <trkpt lat="45.58815822936594486236572265625" lon="14.442004747688770294189453125">         <ele>1643.199951171875</ele>         <time>2026-02-28T10:51:58.000Z</time>         <extensions>           <ns3:TrackPointExtension>             <ns3:hr>122</ns3:hr>           </ns3:TrackPointExtension>         </extensions>       </trkpt>
       <trkpt lat="45.58816761709749698638916015625" lon="14.4420381076633930206298828125">         <ele>1643.5999755859375</ele>         <time>2026-02-28T10:52:01.000Z</time>         <extensions>           <ns3:TrackPointExtension>             <ns3:hr>118</ns3:hr>           </ns3:TrackPointExtension>         </extensions>       </trkpt>
       <trkpt lat="45.5881737358868122100830078125" lon="14.4420542009174823760986328125">         <ele>1643.800048828125</ele>         <time>2026-02-28T10:52:03.000Z</time>         <extensions>           <ns3:TrackPointExtension>             <ns3:hr>114</ns3:hr>           </ns3:TrackPointExtension>         </extensions>       </trkpt>
       <trkpt lat="45.5881787650287151336669921875" lon="14.44206484593451023101806640625">         <ele>1643.800048828125</ele>         <time>2026-02-28T10:52:06.000Z</time>         <extensions>           <ns3:TrackPointExtension>             <ns3:hr>112</ns3:hr>           </ns3:TrackPointExtension>         </extensions>       </trkpt>
       <trkpt lat="45.5881802737712860107421875" lon="14.4421132095158100128173828125">         <ele>1644.199951171875</ele>         <time>2026-02-28T10:52:11.000Z</time>         <extensions>           <ns3:TrackPointExtension>             <ns3:hr>112</ns3:hr>           </ns3:TrackPointExtension>         </extensions>       </trkpt>
       <trkpt lat="45.5881827883422374725341796875" lon="14.442121423780918121337890625">         <ele>1644.199951171875</ele>         <time>2026-02-28T10:52:12.000Z</time>         <extensions>           <ns3:TrackPointExtension>             <ns3:hr>114</ns3:hr>           </ns3:TrackPointExtension>         </extensions>       </trkpt>
       <trkpt lat="45.58818605728447437286376953125" lon="14.442133493721485137939453125">         <ele>1644.4000244140625</ele>         <time>2026-02-28T10:52:13.000Z</time>         <extensions>           <ns3:TrackPointExtension>             <ns3:hr>119</ns3:hr>           </ns3:TrackPointExtension>         </extensions>       </trkpt>
       <trkpt lat="45.58818924240767955780029296875" lon="14.44214522838592529296875">         <ele>1644.4000244140625</ele>         <time>2026-02-28T10:52:16.000Z</time>         <extensions>           <ns3:TrackPointExtension>             <ns3:hr>121</ns3:hr>           </ns3:TrackPointExtension>         </extensions>       </trkpt>
       <trkpt lat="45.58819309808313846588134765625" lon="14.44216308183968067169189453125">         <ele>1645</ele>         <time>2026-02-28T10:52:20.000Z</time>         <extensions>           <ns3:TrackPointExtension>             <ns3:hr>121</ns3:hr>           </ns3:TrackPointExtension>         </extensions>       </trkpt>
       <trkpt lat="45.58819510973989963531494140625" lon="14.44216392002999782562255859375">         <ele>1645.199951171875</ele>         <time>2026-02-28T10:52:23.000Z</time>         <extensions>           <ns3:TrackPointExtension>             <ns3:hr>118</ns3:hr>           </ns3:TrackPointExtension>         </extensions>       </trkpt>
       <trkpt lat="45.588195025920867919921875" lon="14.4421614892780780792236328125">         <ele>1645.4000244140625</ele>         <time>2026-02-28T10:52:24.000Z</time>         <extensions>           <ns3:TrackPointExtension>             <ns3:hr>119</ns3:hr>           </ns3:TrackPointExtension>         </extensions>       </trkpt>
       <trkpt lat="45.5881978757679462432861328125" lon="14.4421648420393466949462890625">         <ele>1645.5999755859375</ele>         <time>2026-02-28T10:52:26.000Z</time>         <extensions>           <ns3:TrackPointExtension>             <ns3:hr>122</ns3:hr>           </ns3:TrackPointExtension>         </extensions>       </trkpt>
       <trkpt lat="45.5881975404918193817138671875" lon="14.4421712122857570648193359375">         <ele>1645.5999755859375</ele>         <time>2026-02-28T10:52:27.000Z</time>         <extensions>           <ns3:TrackPointExtension>             <ns3:hr>128</ns3:hr>           </ns3:TrackPointExtension>         </extensions>       </trkpt>
       <trkpt lat="45.5881982110440731048583984375" lon="14.4421787559986114501953125">         <ele>1645.800048828125</ele>         <time>2026-02-28T10:52:28.000Z</time>         <extensions>           <ns3:TrackPointExtension>             <ns3:hr>129</ns3:hr>           </ns3:TrackPointExtension>         </extensions>       </trkpt>
       <trkpt lat="45.5882044136524200439453125" lon="14.4422114454209804534912109375">         <ele>1646</ele>         <time>2026-02-28T10:52:35.000Z</time>         <extensions>           <ns3:TrackPointExtension>             <ns3:hr>129</ns3:hr>           </ns3:TrackPointExtension>         </extensions>       </trkpt>
       <trkpt lat="45.58820617385208606719970703125" lon="14.44223600439727306365966796875">         <ele>1646.4000244140625</ele>         <time>2026-02-28T10:52:38.000Z</time>         <extensions>           <ns3:TrackPointExtension>             <ns3:hr>130</ns3:hr>           </ns3:TrackPointExtension>         </extensions>       </trkpt>
       <trkpt lat="45.5882096104323863983154296875" lon="14.442234076559543609619140625">         <ele>1646.4000244140625</ele>         <time>2026-02-28T10:52:42.000Z</time>         <extensions>           <ns3:TrackPointExtension>             <ns3:hr>130</ns3:hr>           </ns3:TrackPointExtension>         </extensions>       </trkpt>
       <trkpt lat="45.588210783898830413818359375" lon="14.44222410209476947784423828125">         <ele>1646.4000244140625</ele>         <time>2026-02-28T10:52:44.000Z</time>         <extensions>           <ns3:TrackPointExtension>             <ns3:hr>127</ns3:hr>           </ns3:TrackPointExtension>         </extensions>       </trkpt>
       <trkpt lat="45.58821187354624271392822265625" lon="14.4422231800854206085205078125">         <ele>1646.4000244140625</ele>         <time>2026-02-28T10:52:45.000Z</time>         <extensions>           <ns3:TrackPointExtension>             <ns3:hr>123</ns3:hr>           </ns3:TrackPointExtension>         </extensions>       </trkpt>
       <trkpt lat="45.58821120299398899078369140625" lon="14.44222058169543743133544921875">         <ele>1646.4000244140625</ele>         <time>2026-02-28T10:52:46.000Z</time>         <extensions>           <ns3:TrackPointExtension>             <ns3:hr>120</ns3:hr>           </ns3:TrackPointExtension>         </extensions>       </trkpt>
       <trkpt lat="45.58821120299398899078369140625" lon="14.442242123186588287353515625">         <ele>1646.5999755859375</ele>         <time>2026-02-28T10:52:49.000Z</time>         <extensions>           <ns3:TrackPointExtension>             <ns3:hr>119</ns3:hr>           </ns3:TrackPointExtension>         </extensions>       </trkpt>
       <trkpt lat="45.58821187354624271392822265625" lon="14.44225788116455078125">         <ele>1646.800048828125</ele>         <time>2026-02-28T10:52:51.000Z</time>         <extensions>           <ns3:TrackPointExtension>             <ns3:hr>122</ns3:hr>           </ns3:TrackPointExtension>         </extensions>       </trkpt>
       <trkpt lat="45.58821715414524078369140625" lon="14.4422815181314945220947265625">         <ele>1647.4000244140625</ele>         <time>2026-02-28T10:52:55.000Z</time>         <extensions>           <ns3:TrackPointExtension>             <ns3:hr>123</ns3:hr>           </ns3:TrackPointExtension>         </extensions>       </trkpt>
       <trkpt lat="45.5882183276116847991943359375" lon="14.44229216314852237701416015625">         <ele>1647.5999755859375</ele>         <time>2026-02-28T10:52:56.000Z</time>         <extensions>           <ns3:TrackPointExtension>             <ns3:hr>123</ns3:hr>           </ns3:TrackPointExtension>         </extensions>       </trkpt>
       <trkpt lat="45.5882258713245391845703125" lon="14.4423163868486881256103515625">         <ele>1648.199951171875</ele>         <time>2026-02-28T10:53:00.000Z</time>         <extensions>           <ns3:TrackPointExtension>             <ns3:hr>119</ns3:hr>           </ns3:TrackPointExtension>         </extensions>       </trkpt>
       <trkpt lat="45.5882303975522518157958984375" lon="14.44233021698892116546630859375">         <ele>1648.4000244140625</ele>         <time>2026-02-28T10:53:02.000Z</time>         <extensions>           <ns3:TrackPointExtension>             <ns3:hr>115</ns3:hr>           </ns3:TrackPointExtension>         </extensions>       </trkpt>
       <trkpt lat="45.58823383413255214691162109375" lon="14.44234446622431278228759765625">         <ele>1648.4000244140625</ele>         <time>2026-02-28T10:53:04.000Z</time>         <extensions>           <ns3:TrackPointExtension>             <ns3:hr>115</ns3:hr>           </ns3:TrackPointExtension>         </extensions>       </trkpt>
       <trkpt lat="45.5882392823696136474609375" lon="14.44236055947840213775634765625">         <ele>1648.5999755859375</ele>         <time>2026-02-28T10:53:07.000Z</time>         <extensions>           <ns3:TrackPointExtension>             <ns3:hr>114</ns3:hr>           </ns3:TrackPointExtension>         </extensions>       </trkpt>
       <trkpt lat="45.58824439533054828643798828125" lon="14.44237849675118923187255859375">         <ele>1648.5999755859375</ele>         <time>2026-02-28T10:53:10.000Z</time>         <extensions>           <ns3:TrackPointExtension>             <ns3:hr>113</ns3:hr>           </ns3:TrackPointExtension>         </extensions>       </trkpt>
       <trkpt lat="45.58824623934924602508544921875" lon="14.44241277873516082763671875">         <ele>1649</ele>         <time>2026-02-28T10:53:15.000Z</time>         <extensions>           <ns3:TrackPointExtension>             <ns3:hr>114</ns3:hr>           </ns3:TrackPointExtension>         </extensions>       </trkpt>
       <trkpt lat="45.58825068175792694091796875" lon="14.4424474798142910003662109375">         <ele>1649.199951171875</ele>         <time>2026-02-28T10:53:19.000Z</time>         <extensions>           <ns3:TrackPointExtension>             <ns3:hr>116</ns3:hr>           </ns3:TrackPointExtension>         </extensions>       </trkpt>
       <trkpt lat="45.58825663290917873382568359375" lon="14.4424816779792308807373046875">         <ele>1649.5999755859375</ele>         <time>2026-02-28T10:53:23.000Z</time>         <extensions>           <ns3:TrackPointExtension>             <ns3:hr>119</ns3:hr>           </ns3:TrackPointExtension>         </extensions>       </trkpt>
       <trkpt lat="45.5882595665752887725830078125" lon="14.4424940831959247589111328125">         <ele>1649.5999755859375</ele>         <time>2026-02-28T10:53:24.000Z</time>         <extensions>           <ns3:TrackPointExtension>             <ns3:hr>119</ns3:hr>           </ns3:TrackPointExtension>         </extensions>       </trkpt>
       <trkpt lat="45.58827306143939495086669921875" lon="14.44252836517989635467529296875">         <ele>1650.199951171875</ele>         <time>2026-02-28T10:53:30.000Z</time>         <extensions>           <ns3:TrackPointExtension>             <ns3:hr>118</ns3:hr>           </ns3:TrackPointExtension>         </extensions>       </trkpt>
       <trkpt lat="45.5882773362100124359130859375" lon="14.44254931993782520294189453125">         <ele>1650.5999755859375</ele>         <time>2026-02-28T10:53:33.000Z</time>         <extensions>           <ns3:TrackPointExtension>             <ns3:hr>119</ns3:hr>           </ns3:TrackPointExtension>         </extensions>       </trkpt>
       <trkpt lat="45.58828018605709075927734375" lon="14.44255602546036243438720703125">         <ele>1650.800048828125</ele>         <time>2026-02-28T10:53:35.000Z</time>         <extensions>           <ns3:TrackPointExtension>             <ns3:hr>120</ns3:hr>           </ns3:TrackPointExtension>         </extensions>       </trkpt>
       <trkpt lat="45.58828446082770824432373046875" lon="14.44257563911378383636474609375">         <ele>1651.800048828125</ele>         <time>2026-02-28T10:53:38.000Z</time>         <extensions>           <ns3:TrackPointExtension>             <ns3:hr>120</ns3:hr>           </ns3:TrackPointExtension>         </extensions>       </trkpt>
       <trkpt lat="45.58828563429415225982666015625" lon="14.4425882957875728607177734375">         <ele>1652</ele>         <time>2026-02-28T10:53:39.000Z</time>         <extensions>           <ns3:TrackPointExtension>             <ns3:hr>119</ns3:hr>           </ns3:TrackPointExtension>         </extensions>       </trkpt>
       <trkpt lat="45.58828697539865970611572265625" lon="14.4426218234002590179443359375">         <ele>1652</ele>         <time>2026-02-28T10:53:43.000Z</time>         <extensions>           <ns3:TrackPointExtension>             <ns3:hr>116</ns3:hr>           </ns3:TrackPointExtension>         </extensions>       </trkpt>
       <trkpt lat="45.5882875621318817138671875" lon="14.4426302053034305572509765625">         <ele>1652</ele>         <time>2026-02-28T10:53:44.000Z</time>         <extensions>           <ns3:TrackPointExtension>             <ns3:hr>114</ns3:hr>           </ns3:TrackPointExtension>         </extensions>       </trkpt>
       <trkpt lat="45.588289909064769744873046875" lon="14.44264772348105907440185546875">         <ele>1652</ele>         <time>2026-02-28T10:53:46.000Z</time>         <extensions>           <ns3:TrackPointExtension>             <ns3:hr>119</ns3:hr>           </ns3:TrackPointExtension>         </extensions>       </trkpt>
       <trkpt lat="45.58829770423471927642822265625" lon="14.4426835142076015472412109375">         <ele>1652.4000244140625</ele>         <time>2026-02-28T10:53:50.000Z</time>         <extensions>           <ns3:TrackPointExtension>             <ns3:hr>120</ns3:hr>           </ns3:TrackPointExtension>         </extensions>       </trkpt>
       <trkpt lat="45.58829954825341701507568359375" lon="14.442688040435314178466796875">         <ele>1652.4000244140625</ele>         <time>2026-02-28T10:53:51.000Z</time>         <extensions>           <ns3:TrackPointExtension>             <ns3:hr>124</ns3:hr>           </ns3:TrackPointExtension>         </extensions>       </trkpt>
       <trkpt lat="45.5883008055388927459716796875" lon="14.442683346569538116455078125">         <ele>1652.4000244140625</ele>         <time>2026-02-28T10:53:52.000Z</time>         <extensions>           <ns3:TrackPointExtension>             <ns3:hr>127</ns3:hr>           </ns3:TrackPointExtension>         </extensions>       </trkpt>
       <trkpt lat="45.588304996490478515625" lon="14.44270136766135692596435546875">         <ele>1652.800048828125</ele>         <time>2026-02-28T10:53:54.000Z</time>         <extensions>           <ns3:TrackPointExtension>             <ns3:hr>131</ns3:hr>           </ns3:TrackPointExtension>         </extensions>       </trkpt>
       <trkpt lat="45.5883075110614299774169921875" lon="14.442710839211940765380859375">         <ele>1653</ele>         <time>2026-02-28T10:53:55.000Z</time>         <extensions>           <ns3:TrackPointExtension>             <ns3:hr>132</ns3:hr>           </ns3:TrackPointExtension>         </extensions>       </trkpt>
       <trkpt lat="45.5883122049272060394287109375" lon="14.442722238600254058837890625">         <ele>1653.199951171875</ele>         <time>2026-02-28T10:53:57.000Z</time>         <extensions>           <ns3:TrackPointExtension>             <ns3:hr>134</ns3:hr>           </ns3:TrackPointExtension>         </extensions>       </trkpt>
       <trkpt lat="45.588315390050411224365234375" lon="14.4427230767905712127685546875">         <ele>1653.199951171875</ele>         <time>2026-02-28T10:54:01.000Z</time>         <extensions>           <ns3:TrackPointExtension>             <ns3:hr>137</ns3:hr>           </ns3:TrackPointExtension>         </extensions>       </trkpt>
       <trkpt lat="45.5883143842220306396484375" lon="14.44272265769541263580322265625">         <ele>1653.4000244140625</ele>         <time>2026-02-28T10:54:02.000Z</time>         <extensions>           <ns3:TrackPointExtension>             <ns3:hr>137</ns3:hr>           </ns3:TrackPointExtension>         </extensions>       </trkpt>
       <trkpt lat="45.58832234703004360198974609375" lon="14.442755095660686492919921875">         <ele>1654</ele>         <time>2026-02-28T10:54:06.000Z</time>         <extensions>           <ns3:TrackPointExtension>             <ns3:hr>139</ns3:hr>           </ns3:TrackPointExtension>         </extensions>       </trkpt>
       <trkpt lat="45.58832402341067790985107421875" lon="14.44277093745768070220947265625">         <ele>1654</ele>         <time>2026-02-28T10:54:07.000Z</time>         <extensions>           <ns3:TrackPointExtension>             <ns3:hr>139</ns3:hr>           </ns3:TrackPointExtension>         </extensions>       </trkpt>
       <trkpt lat="45.58833517134189605712890625" lon="14.44281301461160182952880859375">         <ele>1654.5999755859375</ele>         <time>2026-02-28T10:54:12.000Z</time>         <extensions>           <ns3:TrackPointExtension>             <ns3:hr>138</ns3:hr>           </ns3:TrackPointExtension>         </extensions>       </trkpt>
       <trkpt lat="45.58833441697061061859130859375" lon="14.44282877258956432342529296875">         <ele>1655</ele>         <time>2026-02-28T10:54:15.000Z</time>         <extensions>           <ns3:TrackPointExtension>             <ns3:hr>135</ns3:hr>           </ns3:TrackPointExtension>         </extensions>       </trkpt>
       <trkpt lat="45.58833491988480091094970703125" lon="14.4428377412259578704833984375">         <ele>1655.199951171875</ele>         <time>2026-02-28T10:54:17.000Z</time>         <extensions>           <ns3:TrackPointExtension>             <ns3:hr>132</ns3:hr>           </ns3:TrackPointExtension>         </extensions>       </trkpt>
       <trkpt lat="45.5883319862186908721923828125" lon="14.4428575225174427032470703125">         <ele>1655.4000244140625</ele>         <time>2026-02-28T10:54:20.000Z</time>         <extensions>           <ns3:TrackPointExtension>             <ns3:hr>129</ns3:hr>           </ns3:TrackPointExtension>         </extensions>       </trkpt>
       <trkpt lat="45.588334836065769195556640625" lon="14.442871101200580596923828125">         <ele>1655.4000244140625</ele>         <time>2026-02-28T10:54:22.000Z</time>         <extensions>           <ns3:TrackPointExtension>             <ns3:hr>128</ns3:hr>           </ns3:TrackPointExtension>         </extensions>       </trkpt>
       <trkpt lat="45.58834296651184558868408203125" lon="14.442891217768192291259765625">         <ele>1656</ele>         <time>2026-02-28T10:54:25.000Z</time>         <extensions>           <ns3:TrackPointExtension>             <ns3:hr>125</ns3:hr>           </ns3:TrackPointExtension>         </extensions>       </trkpt>
       <trkpt lat="45.58834615163505077362060546875" lon="14.44291032850742340087890625">         <ele>1656.199951171875</ele>         <time>2026-02-28T10:54:27.000Z</time>         <extensions>           <ns3:TrackPointExtension>             <ns3:hr>124</ns3:hr>           </ns3:TrackPointExtension>         </extensions>       </trkpt>
       <trkpt lat="45.5883510969579219818115234375" lon="14.4429527409374713897705078125">         <ele>1656.4000244140625</ele>         <time>2026-02-28T10:54:32.000Z</time>         <extensions>           <ns3:TrackPointExtension>             <ns3:hr>121</ns3:hr>           </ns3:TrackPointExtension>         </extensions>       </trkpt>
       <trkpt lat="45.588356964290142059326171875" lon="14.4429695047438144683837890625">         <ele>1656.5999755859375</ele>         <time>2026-02-28T10:54:34.000Z</time>         <extensions>           <ns3:TrackPointExtension>             <ns3:hr>122</ns3:hr>           </ns3:TrackPointExtension>         </extensions>       </trkpt>
       <trkpt lat="45.5883675254881381988525390625" lon="14.44300152361392974853515625">         <ele>1657.199951171875</ele>         <time>2026-02-28T10:54:38.000Z</time>         <extensions>           <ns3:TrackPointExtension>             <ns3:hr>124</ns3:hr>           </ns3:TrackPointExtension>         </extensions>       </trkpt>
       <trkpt lat="45.588369034230709075927734375" lon="14.443028680980205535888671875">         <ele>1657.800048828125</ele>         <time>2026-02-28T10:54:42.000Z</time>         <extensions>           <ns3:TrackPointExtension>             <ns3:hr>127</ns3:hr>           </ns3:TrackPointExtension>         </extensions>       </trkpt>
       <trkpt lat="45.58837272226810455322265625" lon="14.443048126995563507080078125">         <ele>1658.199951171875</ele>         <time>2026-02-28T10:54:45.000Z</time>         <extensions>           <ns3:TrackPointExtension>             <ns3:hr>127</ns3:hr>           </ns3:TrackPointExtension>         </extensions>       </trkpt>
       <trkpt lat="45.588376410305500030517578125" lon="14.44306455552577972412109375">         <ele>1658.4000244140625</ele>         <time>2026-02-28T10:54:47.000Z</time>         <extensions>           <ns3:TrackPointExtension>             <ns3:hr>125</ns3:hr>           </ns3:TrackPointExtension>         </extensions>       </trkpt>
       <trkpt lat="45.58839644305408000946044921875" lon="14.44311610423028469085693359375">         <ele>1659.199951171875</ele>         <time>2026-02-28T10:54:55.000Z</time>         <extensions>           <ns3:TrackPointExtension>             <ns3:hr>127</ns3:hr>           </ns3:TrackPointExtension>         </extensions>       </trkpt>
       <trkpt lat="45.58839342556893825531005859375" lon="14.4431247375905513763427734375">         <ele>1659.199951171875</ele>         <time>2026-02-28T10:54:58.000Z</time>         <extensions>           <ns3:TrackPointExtension>             <ns3:hr>127</ns3:hr>           </ns3:TrackPointExtension>         </extensions>       </trkpt>
       <trkpt lat="45.58838772587478160858154296875" lon="14.44311761297285556793212890625">         <ele>1659.5999755859375</ele>         <time>2026-02-28T10:55:01.000Z</time>         <extensions>           <ns3:TrackPointExtension>             <ns3:hr>124</ns3:hr>           </ns3:TrackPointExtension>         </extensions>       </trkpt>
       <trkpt lat="45.588390491902828216552734375" lon="14.44313018582761287689208984375">         <ele>1659.5999755859375</ele>         <time>2026-02-28T10:55:03.000Z</time>         <extensions>           <ns3:TrackPointExtension>             <ns3:hr>122</ns3:hr>           </ns3:TrackPointExtension>         </extensions>       </trkpt>
       <trkpt lat="45.5883930064737796783447265625" lon="14.44314996711909770965576171875">         <ele>1659.5999755859375</ele>         <time>2026-02-28T10:55:05.000Z</time>         <extensions>           <ns3:TrackPointExtension>             <ns3:hr>119</ns3:hr>           </ns3:TrackPointExtension>         </extensions>       </trkpt>
       <trkpt lat="45.58839644305408000946044921875" lon="14.44316153414547443389892578125">         <ele>1659.800048828125</ele>         <time>2026-02-28T10:55:07.000Z</time>         <extensions>           <ns3:TrackPointExtension>             <ns3:hr>116</ns3:hr>           </ns3:TrackPointExtension>         </extensions>       </trkpt>
       <trkpt lat="45.58839795179665088653564453125" lon="14.44316790439188480377197265625">         <ele>1659.800048828125</ele>         <time>2026-02-28T10:55:08.000Z</time>         <extensions>           <ns3:TrackPointExtension>             <ns3:hr>116</ns3:hr>           </ns3:TrackPointExtension>         </extensions>       </trkpt>
       <trkpt lat="45.5884034000337123870849609375" lon="14.44319137372076511383056640625">         <ele>1660.4000244140625</ele>         <time>2026-02-28T10:55:11.000Z</time>         <extensions>           <ns3:TrackPointExtension>             <ns3:hr>118</ns3:hr>           </ns3:TrackPointExtension>         </extensions>       </trkpt>
       <trkpt lat="45.58840692043304443359375" lon="14.4432129152119159698486328125">         <ele>1660.800048828125</ele>         <time>2026-02-28T10:55:14.000Z</time>         <extensions>           <ns3:TrackPointExtension>             <ns3:hr>120</ns3:hr>           </ns3:TrackPointExtension>         </extensions>       </trkpt>
       <trkpt lat="45.5884163081645965576171875" lon="14.4432558305561542510986328125">         <ele>1661.199951171875</ele>         <time>2026-02-28T10:55:21.000Z</time>         <extensions>           <ns3:TrackPointExtension>             <ns3:hr>122</ns3:hr>           </ns3:TrackPointExtension>         </extensions>       </trkpt>
       <trkpt lat="45.58842108584940433502197265625" lon="14.4432679004967212677001953125">         <ele>1661.4000244140625</ele>         <time>2026-02-28T10:55:23.000Z</time>         <extensions>           <ns3:TrackPointExtension>             <ns3:hr>123</ns3:hr>           </ns3:TrackPointExtension>         </extensions>       </trkpt>
       <trkpt lat="45.58842393569648265838623046875" lon="14.44329162128269672393798828125">         <ele>1661.800048828125</ele>         <time>2026-02-28T10:55:26.000Z</time>         <extensions>           <ns3:TrackPointExtension>             <ns3:hr>124</ns3:hr>           </ns3:TrackPointExtension>         </extensions>       </trkpt>
       <trkpt lat="45.58843248523771762847900390625" lon="14.4433067925274372100830078125">         <ele>1662.4000244140625</ele>         <time>2026-02-28T10:55:30.000Z</time>         <extensions>           <ns3:TrackPointExtension>             <ns3:hr>126</ns3:hr>           </ns3:TrackPointExtension>         </extensions>       </trkpt>
       <trkpt lat="45.5884369276463985443115234375" lon="14.4433111511170864105224609375">         <ele>1662.4000244140625</ele>         <time>2026-02-28T10:55:31.000Z</time>         <extensions>           <ns3:TrackPointExtension>             <ns3:hr>126</ns3:hr>           </ns3:TrackPointExtension>         </extensions>       </trkpt>
       <trkpt lat="45.58843952603638172149658203125" lon="14.44331559352576732635498046875">         <ele>1662.5999755859375</ele>         <time>2026-02-28T10:55:34.000Z</time>         <extensions>           <ns3:TrackPointExtension>             <ns3:hr>124</ns3:hr>           </ns3:TrackPointExtension>         </extensions>       </trkpt>
       <trkpt lat="45.58844036422669887542724609375" lon="14.4433362968266010284423828125">         <ele>1663</ele>         <time>2026-02-28T10:55:41.000Z</time>         <extensions>           <ns3:TrackPointExtension>             <ns3:hr>122</ns3:hr>           </ns3:TrackPointExtension>         </extensions>       </trkpt>
       <trkpt lat="45.5884422920644283294677734375" lon="14.44337703287601470947265625">         <ele>1663.5999755859375</ele>         <time>2026-02-28T10:55:46.000Z</time>         <extensions>           <ns3:TrackPointExtension>             <ns3:hr>122</ns3:hr>           </ns3:TrackPointExtension>         </extensions>       </trkpt>
       <trkpt lat="45.58844271115958690643310546875" lon="14.44344987161457538604736328125">         <ele>1664</ele>         <time>2026-02-28T10:55:53.000Z</time>         <extensions>           <ns3:TrackPointExtension>             <ns3:hr>120</ns3:hr>           </ns3:TrackPointExtension>         </extensions>       </trkpt>
       <trkpt lat="45.58844388462603092193603515625" lon="14.44346286356449127197265625">         <ele>1664.5999755859375</ele>         <time>2026-02-28T10:55:57.000Z</time>         <extensions>           <ns3:TrackPointExtension>             <ns3:hr>120</ns3:hr>           </ns3:TrackPointExtension>         </extensions>       </trkpt>
       <trkpt lat="45.58844690211117267608642578125" lon="14.443479292094707489013671875">         <ele>1664.800048828125</ele>         <time>2026-02-28T10:56:00.000Z</time>         <extensions>           <ns3:TrackPointExtension>             <ns3:hr>120</ns3:hr>           </ns3:TrackPointExtension>         </extensions>       </trkpt>
       <trkpt lat="45.588463582098484039306640625" lon="14.44352212361991405487060546875">         <ele>1665.4000244140625</ele>         <time>2026-02-28T10:56:07.000Z</time>         <extensions>           <ns3:TrackPointExtension>             <ns3:hr>119</ns3:hr>           </ns3:TrackPointExtension>         </extensions>       </trkpt>
       <trkpt lat="45.58846383355557918548583984375" lon="14.4435394741594791412353515625">         <ele>1665.800048828125</ele>         <time>2026-02-28T10:56:09.000Z</time>         <extensions>           <ns3:TrackPointExtension>             <ns3:hr>118</ns3:hr>           </ns3:TrackPointExtension>         </extensions>       </trkpt>
       <trkpt lat="45.58846534229815006256103515625" lon="14.443556405603885650634765625">         <ele>1666</ele>         <time>2026-02-28T10:56:11.000Z</time>         <extensions>           <ns3:TrackPointExtension>             <ns3:hr>118</ns3:hr>           </ns3:TrackPointExtension>         </extensions>       </trkpt>
       <trkpt lat="45.5884583853185176849365234375" lon="14.44359353743493556976318359375">         <ele>1666.199951171875</ele>         <time>2026-02-28T10:56:15.000Z</time>         <extensions>           <ns3:TrackPointExtension>             <ns3:hr>118</ns3:hr>           </ns3:TrackPointExtension>         </extensions>       </trkpt>
       <trkpt lat="45.588465593755245208740234375" lon="14.44363796152174472808837890625">         <ele>1666.5999755859375</ele>         <time>2026-02-28T10:56:21.000Z</time>         <extensions>           <ns3:TrackPointExtension>             <ns3:hr>119</ns3:hr>           </ns3:TrackPointExtension>         </extensions>       </trkpt>
       <trkpt lat="45.58846391737461090087890625" lon="14.44365019910037517547607421875">         <ele>1666.800048828125</ele>         <time>2026-02-28T10:56:24.000Z</time>         <extensions>           <ns3:TrackPointExtension>             <ns3:hr>119</ns3:hr>           </ns3:TrackPointExtension>         </extensions>       </trkpt>
       <trkpt lat="45.58846601285040378570556640625" lon="14.44367651827633380889892578125">         <ele>1667.199951171875</ele>         <time>2026-02-28T10:56:27.000Z</time>         <extensions>           <ns3:TrackPointExtension>             <ns3:hr>119</ns3:hr>           </ns3:TrackPointExtension>         </extensions>       </trkpt>
       <trkpt lat="45.588474981486797332763671875" lon="14.44371163845062255859375">         <ele>1667.5999755859375</ele>         <time>2026-02-28T10:56:33.000Z</time>         <extensions>           <ns3:TrackPointExtension>             <ns3:hr>120</ns3:hr>           </ns3:TrackPointExtension>         </extensions>       </trkpt>
       <trkpt lat="45.58847808279097080230712890625" lon="14.4437205232679843902587890625">         <ele>1667.800048828125</ele>         <time>2026-02-28T10:56:34.000Z</time>         <extensions>           <ns3:TrackPointExtension>             <ns3:hr>120</ns3:hr>           </ns3:TrackPointExtension>         </extensions>       </trkpt>
       <trkpt lat="45.58848193846642971038818359375" lon="14.4437352754175662994384765625">         <ele>1668.199951171875</ele>         <time>2026-02-28T10:56:36.000Z</time>         <extensions>           <ns3:TrackPointExtension>             <ns3:hr>117</ns3:hr>           </ns3:TrackPointExtension>         </extensions>       </trkpt>
       <trkpt lat="45.58848663233220577239990234375" lon="14.44374659098684787750244140625">         <ele>1668.4000244140625</ele>         <time>2026-02-28T10:56:38.000Z</time>         <extensions>           <ns3:TrackPointExtension>             <ns3:hr>115</ns3:hr>           </ns3:TrackPointExtension>         </extensions>       </trkpt>
       <trkpt lat="45.58849082328379154205322265625" lon="14.44375681690871715545654296875">         <ele>1668.800048828125</ele>         <time>2026-02-28T10:56:40.000Z</time>         <extensions>           <ns3:TrackPointExtension>             <ns3:hr>118</ns3:hr>           </ns3:TrackPointExtension>         </extensions>       </trkpt>
       <trkpt lat="45.58849065564572811126708984375" lon="14.44375782273709774017333984375">         <ele>1669</ele>         <time>2026-02-28T10:56:41.000Z</time>         <extensions>           <ns3:TrackPointExtension>             <ns3:hr>118</ns3:hr>           </ns3:TrackPointExtension>         </extensions>       </trkpt>
       <trkpt lat="45.588493086397647857666015625" lon="14.44377265870571136474609375">         <ele>1669</ele>         <time>2026-02-28T10:56:42.000Z</time>         <extensions>           <ns3:TrackPointExtension>             <ns3:hr>118</ns3:hr>           </ns3:TrackPointExtension>         </extensions>       </trkpt>
       <trkpt lat="45.5885023064911365509033203125" lon="14.44379889406263828277587890625">         <ele>1669.5999755859375</ele>         <time>2026-02-28T10:56:47.000Z</time>         <extensions>           <ns3:TrackPointExtension>             <ns3:hr>118</ns3:hr>           </ns3:TrackPointExtension>         </extensions>       </trkpt>
       <trkpt lat="45.58851161040365695953369140625" lon="14.4438284821808338165283203125">         <ele>1670</ele>         <time>2026-02-28T10:56:51.000Z</time>         <extensions>           <ns3:TrackPointExtension>             <ns3:hr>118</ns3:hr>           </ns3:TrackPointExtension>         </extensions>       </trkpt>
       <trkpt lat="45.58851429261267185211181640625" lon="14.4438385404646396636962890625">         <ele>1670.199951171875</ele>         <time>2026-02-28T10:56:53.000Z</time>         <extensions>           <ns3:TrackPointExtension>             <ns3:hr>119</ns3:hr>           </ns3:TrackPointExtension>         </extensions>       </trkpt>
       <trkpt lat="45.58852602727711200714111328125" lon="14.44387299008667469024658203125">         <ele>1671</ele>         <time>2026-02-28T10:56:59.000Z</time>         <extensions>           <ns3:TrackPointExtension>             <ns3:hr>120</ns3:hr>           </ns3:TrackPointExtension>         </extensions>       </trkpt>
       <trkpt lat="45.58853407390415668487548828125" lon="14.4438841380178928375244140625">         <ele>1671.5999755859375</ele>         <time>2026-02-28T10:57:03.000Z</time>         <extensions>           <ns3:TrackPointExtension>             <ns3:hr>120</ns3:hr>           </ns3:TrackPointExtension>         </extensions>       </trkpt>
       <trkpt lat="45.58854161761701107025146484375" lon="14.44389863871037960052490234375">         <ele>1672</ele>         <time>2026-02-28T10:57:05.000Z</time>         <extensions>           <ns3:TrackPointExtension>             <ns3:hr>123</ns3:hr>           </ns3:TrackPointExtension>         </extensions>       </trkpt>
       <trkpt lat="45.5885477364063262939453125" lon="14.44391154684126377105712890625">         <ele>1672.199951171875</ele>         <time>2026-02-28T10:57:07.000Z</time>         <extensions>           <ns3:TrackPointExtension>             <ns3:hr>123</ns3:hr>           </ns3:TrackPointExtension>         </extensions>       </trkpt>
       <trkpt lat="45.5885504186153411865234375" lon="14.44392261095345020294189453125">         <ele>1672.4000244140625</ele>         <time>2026-02-28T10:57:08.000Z</time>         <extensions>           <ns3:TrackPointExtension>             <ns3:hr>123</ns3:hr>           </ns3:TrackPointExtension>         </extensions>       </trkpt>
       <trkpt lat="45.58855645358562469482421875" lon="14.44394993595778942108154296875">         <ele>1673.4000244140625</ele>         <time>2026-02-28T10:57:12.000Z</time>         <extensions>           <ns3:TrackPointExtension>             <ns3:hr>119</ns3:hr>           </ns3:TrackPointExtension>         </extensions>       </trkpt>
       <trkpt lat="45.588558800518512725830078125" lon="14.44396468810737133026123046875">         <ele>1674.199951171875</ele>         <time>2026-02-28T10:57:15.000Z</time>         <extensions>           <ns3:TrackPointExtension>             <ns3:hr>116</ns3:hr>           </ns3:TrackPointExtension>         </extensions>       </trkpt>
       <trkpt lat="45.588559806346893310546875" lon="14.44398446939885616302490234375">         <ele>1674.5999755859375</ele>         <time>2026-02-28T10:57:17.000Z</time>         <extensions>           <ns3:TrackPointExtension>             <ns3:hr>116</ns3:hr>           </ns3:TrackPointExtension>         </extensions>       </trkpt>
       <trkpt lat="45.58857480995357036590576171875" lon="14.44404347799718379974365234375">         <ele>1675.4000244140625</ele>         <time>2026-02-28T10:57:25.000Z</time>         <extensions>           <ns3:TrackPointExtension>             <ns3:hr>117</ns3:hr>           </ns3:TrackPointExtension>         </extensions>       </trkpt>
       <trkpt lat="45.5885824374854564666748046875" lon="14.44405303336679935455322265625">         <ele>1675.800048828125</ele>         <time>2026-02-28T10:57:27.000Z</time>         <extensions>           <ns3:TrackPointExtension>             <ns3:hr>117</ns3:hr>           </ns3:TrackPointExtension>         </extensions>       </trkpt>
       <trkpt lat="45.58859207667410373687744140625" lon="14.4440702162683010101318359375">         <ele>1676.199951171875</ele>         <time>2026-02-28T10:57:30.000Z</time>         <extensions>           <ns3:TrackPointExtension>             <ns3:hr>114</ns3:hr>           </ns3:TrackPointExtension>         </extensions>       </trkpt>
       <trkpt lat="45.58860431425273418426513671875" lon="14.44409678690135478973388671875">         <ele>1676.800048828125</ele>         <time>2026-02-28T10:57:33.000Z</time>         <extensions>           <ns3:TrackPointExtension>             <ns3:hr>112</ns3:hr>           </ns3:TrackPointExtension>         </extensions>       </trkpt>
       <trkpt lat="45.58860666118562221527099609375" lon="14.44410013966262340545654296875">         <ele>1676.800048828125</ele>         <time>2026-02-28T10:57:34.000Z</time>         <extensions>           <ns3:TrackPointExtension>             <ns3:hr>112</ns3:hr>           </ns3:TrackPointExtension>         </extensions>       </trkpt>
       <trkpt lat="45.58862208388745784759521484375" lon="14.4441278837621212005615234375">         <ele>1678</ele>         <time>2026-02-28T10:57:41.000Z</time>         <extensions>           <ns3:TrackPointExtension>             <ns3:hr>114</ns3:hr>           </ns3:TrackPointExtension>         </extensions>       </trkpt>
       <trkpt lat="45.58862409554421901702880859375" lon="14.44413073360919952392578125">         <ele>1678.199951171875</ele>         <time>2026-02-28T10:57:42.000Z</time>         <extensions>           <ns3:TrackPointExtension>             <ns3:hr>115</ns3:hr>           </ns3:TrackPointExtension>         </extensions>       </trkpt>
       <trkpt lat="45.5886451341211795806884765625" lon="14.44413986988365650177001953125">         <ele>1678.199951171875</ele>         <time>2026-02-28T10:57:47.000Z</time>         <extensions>           <ns3:TrackPointExtension>             <ns3:hr>118</ns3:hr>           </ns3:TrackPointExtension>         </extensions>       </trkpt>
       <trkpt lat="45.5886585451662540435791015625" lon="14.4441547058522701263427734375">         <ele>1678.4000244140625</ele>         <time>2026-02-28T10:57:50.000Z</time>         <extensions>           <ns3:TrackPointExtension>             <ns3:hr>121</ns3:hr>           </ns3:TrackPointExtension>         </extensions>       </trkpt>
       <trkpt lat="45.5886820144951343536376953125" lon="14.44416602142155170440673828125">         <ele>1678.800048828125</ele>         <time>2026-02-28T10:57:56.000Z</time>         <extensions>           <ns3:TrackPointExtension>             <ns3:hr>118</ns3:hr>           </ns3:TrackPointExtension>         </extensions>       </trkpt>
       <trkpt lat="45.58870531618595123291015625" lon="14.44419116713106632232666015625">         <ele>1679.199951171875</ele>         <time>2026-02-28T10:58:02.000Z</time>         <extensions>           <ns3:TrackPointExtension>             <ns3:hr>117</ns3:hr>           </ns3:TrackPointExtension>         </extensions>       </trkpt>
       <trkpt lat="45.58871009387075901031494140625" lon="14.4441976211965084075927734375">         <ele>1679.5999755859375</ele>         <time>2026-02-28T10:58:03.000Z</time>         <extensions>           <ns3:TrackPointExtension>             <ns3:hr>118</ns3:hr>           </ns3:TrackPointExtension>         </extensions>       </trkpt>
       <trkpt lat="45.5887178890407085418701171875" lon="14.44421480409801006317138671875">         <ele>1679.800048828125</ele>         <time>2026-02-28T10:58:05.000Z</time>         <extensions>           <ns3:TrackPointExtension>             <ns3:hr>121</ns3:hr>           </ns3:TrackPointExtension>         </extensions>       </trkpt>
       <trkpt lat="45.58872886933386325836181640625" lon="14.4442415423691272735595703125">         <ele>1679.800048828125</ele>         <time>2026-02-28T10:58:08.000Z</time>         <extensions>           <ns3:TrackPointExtension>             <ns3:hr>123</ns3:hr>           </ns3:TrackPointExtension>         </extensions>       </trkpt>
       <trkpt lat="45.588733814656734466552734375" lon="14.4442596472799777984619140625">         <ele>1679.800048828125</ele>         <time>2026-02-28T10:58:14.000Z</time>         <extensions>           <ns3:TrackPointExtension>             <ns3:hr>125</ns3:hr>           </ns3:TrackPointExtension>         </extensions>       </trkpt>
       <trkpt lat="45.58873079717159271240234375" lon="14.44425084628164768218994140625">         <ele>1680</ele>         <time>2026-02-28T10:58:22.000Z</time>         <extensions>           <ns3:TrackPointExtension>             <ns3:hr>122</ns3:hr>           </ns3:TrackPointExtension>         </extensions>       </trkpt>
       <trkpt lat="45.58873079717159271240234375" lon="14.44425084628164768218994140625">         <ele>1680</ele>         <time>2026-02-28T10:58:23.000Z</time>         <extensions>           <ns3:TrackPointExtension>             <ns3:hr>123</ns3:hr>           </ns3:TrackPointExtension>         </extensions>       </trkpt>
       <trkpt lat="45.5887316353619098663330078125" lon="14.4442509301006793975830078125">         <ele>1679.5999755859375</ele>         <time>2026-02-28T10:58:28.000Z</time>         <extensions>           <ns3:TrackPointExtension>             <ns3:hr>120</ns3:hr>           </ns3:TrackPointExtension>         </extensions>       </trkpt>
       <trkpt lat="45.588737167418003082275390625" lon="14.44425369612872600555419921875">         <ele>1680</ele>         <time>2026-02-28T10:58:31.000Z</time>         <extensions>           <ns3:TrackPointExtension>             <ns3:hr>120</ns3:hr>           </ns3:TrackPointExtension>         </extensions>       </trkpt>
       <trkpt lat="45.5887408554553985595703125" lon="14.44426107220351696014404296875">         <ele>1680.199951171875</ele>         <time>2026-02-28T10:58:34.000Z</time>         <extensions>           <ns3:TrackPointExtension>             <ns3:hr>119</ns3:hr>           </ns3:TrackPointExtension>         </extensions>       </trkpt>
       <trkpt lat="45.58874429203569889068603515625" lon="14.44425880908966064453125">         <ele>1680.4000244140625</ele>         <time>2026-02-28T10:58:39.000Z</time>         <extensions>           <ns3:TrackPointExtension>             <ns3:hr>118</ns3:hr>           </ns3:TrackPointExtension>         </extensions>       </trkpt>
       <trkpt lat="45.58874429203569889068603515625" lon="14.44425880908966064453125">         <ele>1680.5999755859375</ele>         <time>2026-02-28T10:58:51.000Z</time>         <extensions>           <ns3:TrackPointExtension>             <ns3:hr>118</ns3:hr>           </ns3:TrackPointExtension>         </extensions>       </trkpt>
       <trkpt lat="45.58874429203569889068603515625" lon="14.44425880908966064453125">         <ele>1680.4000244140625</ele>         <time>2026-02-28T10:58:59.000Z</time>         <extensions>           <ns3:TrackPointExtension>             <ns3:hr>116</ns3:hr>           </ns3:TrackPointExtension>         </extensions>       </trkpt>
       <trkpt lat="45.58874429203569889068603515625" lon="14.44425880908966064453125">         <ele>1680.800048828125</ele>         <time>2026-02-28T10:59:04.000Z</time>         <extensions>           <ns3:TrackPointExtension>             <ns3:hr>113</ns3:hr>           </ns3:TrackPointExtension>         </extensions>       </trkpt>
       <trkpt lat="45.58874429203569889068603515625" lon="14.44425880908966064453125">         <ele>1680.800048828125</ele>         <time>2026-02-28T10:59:06.000Z</time>         <extensions>           <ns3:TrackPointExtension>             <ns3:hr>110</ns3:hr>           </ns3:TrackPointExtension>         </extensions>       </trkpt>
       <trkpt lat="45.58874429203569889068603515625" lon="14.44425880908966064453125">         <ele>1680.4000244140625</ele>         <time>2026-02-28T10:59:09.000Z</time>         <extensions>           <ns3:TrackPointExtension>             <ns3:hr>107</ns3:hr>           </ns3:TrackPointExtension>         </extensions>       </trkpt>
       <trkpt lat="45.58874429203569889068603515625" lon="14.44425880908966064453125">         <ele>1680.4000244140625</ele>         <time>2026-02-28T10:59:16.000Z</time>         <extensions>           <ns3:TrackPointExtension>             <ns3:hr>105</ns3:hr>           </ns3:TrackPointExtension>         </extensions>       </trkpt>
       <trkpt lat="45.58874429203569889068603515625" lon="14.44425880908966064453125">         <ele>1680.199951171875</ele>         <time>2026-02-28T10:59:20.000Z</time>         <extensions>           <ns3:TrackPointExtension>             <ns3:hr>102</ns3:hr>           </ns3:TrackPointExtension>         </extensions>       </trkpt>
       <trkpt lat="45.588742531836032867431640625" lon="14.4442740641534328460693359375">         <ele>1680</ele>         <time>2026-02-28T10:59:24.000Z</time>         <extensions>           <ns3:TrackPointExtension>             <ns3:hr>101</ns3:hr>           </ns3:TrackPointExtension>         </extensions>       </trkpt>
       <trkpt lat="45.5887899734079837799072265625" lon="14.44432678632438182830810546875">         <ele>1679.5999755859375</ele>         <time>2026-02-28T10:59:31.000Z</time>         <extensions>           <ns3:TrackPointExtension>             <ns3:hr>102</ns3:hr>           </ns3:TrackPointExtension>         </extensions>       </trkpt>
       <trkpt lat="45.58882894925773143768310546875" lon="14.44436416961252689361572265625">         <ele>1679.5999755859375</ele>         <time>2026-02-28T10:59:37.000Z</time>         <extensions>           <ns3:TrackPointExtension>             <ns3:hr>102</ns3:hr>           </ns3:TrackPointExtension>         </extensions>       </trkpt>
       <trkpt lat="45.58888024650514125823974609375" lon="14.44440440274775028228759765625">         <ele>1679.4000244140625</ele>         <time>2026-02-28T10:59:44.000Z</time>         <extensions>           <ns3:TrackPointExtension>             <ns3:hr>104</ns3:hr>           </ns3:TrackPointExtension>         </extensions>       </trkpt>
       <trkpt lat="45.5889106728136539459228515625" lon="14.44443424232304096221923828125">         <ele>1679.5999755859375</ele>         <time>2026-02-28T10:59:50.000Z</time>         <extensions>           <ns3:TrackPointExtension>             <ns3:hr>103</ns3:hr>           </ns3:TrackPointExtension>         </extensions>       </trkpt>
       <trkpt lat="45.588951073586940765380859375" lon="14.444481097161769866943359375">         <ele>1679.800048828125</ele>         <time>2026-02-28T10:59:57.000Z</time>         <extensions>           <ns3:TrackPointExtension>             <ns3:hr>102</ns3:hr>           </ns3:TrackPointExtension>         </extensions>       </trkpt>
       <trkpt lat="45.588985942304134368896484375" lon="14.44449978880584239959716796875">         <ele>1680</ele>         <time>2026-02-28T11:00:03.000Z</time>         <extensions>           <ns3:TrackPointExtension>             <ns3:hr>105</ns3:hr>           </ns3:TrackPointExtension>         </extensions>       </trkpt>
       <trkpt lat="45.5889924801886081695556640625" lon="14.4445037283003330230712890625">         <ele>1680</ele>         <time>2026-02-28T11:00:04.000Z</time>         <extensions>           <ns3:TrackPointExtension>             <ns3:hr>106</ns3:hr>           </ns3:TrackPointExtension>         </extensions>       </trkpt>
       <trkpt lat="45.5890079028904438018798828125" lon="14.4445084221661090850830078125">         <ele>1680.199951171875</ele>         <time>2026-02-28T11:00:07.000Z</time>         <extensions>           <ns3:TrackPointExtension>             <ns3:hr>109</ns3:hr>           </ns3:TrackPointExtension>         </extensions>       </trkpt>
       <trkpt lat="45.58902449905872344970703125" lon="14.4445181451737880706787109375">         <ele>1680.800048828125</ele>         <time>2026-02-28T11:00:11.000Z</time>         <extensions>           <ns3:TrackPointExtension>             <ns3:hr>110</ns3:hr>           </ns3:TrackPointExtension>         </extensions>       </trkpt>
       <trkpt lat="45.589059703052043914794921875" lon="14.4445261918008327484130859375">         <ele>1681.199951171875</ele>         <time>2026-02-28T11:00:17.000Z</time>         <extensions>           <ns3:TrackPointExtension>             <ns3:hr>109</ns3:hr>           </ns3:TrackPointExtension>         </extensions>       </trkpt>
       <trkpt lat="45.58906800113618373870849609375" lon="14.44452510215342044830322265625">         <ele>1681.4000244140625</ele>         <time>2026-02-28T11:00:19.000Z</time>         <extensions>           <ns3:TrackPointExtension>             <ns3:hr>110</ns3:hr>           </ns3:TrackPointExtension>         </extensions>       </trkpt>
       <trkpt lat="45.58909155428409576416015625" lon="14.44452158175408840179443359375">         <ele>1681.800048828125</ele>         <time>2026-02-28T11:00:23.000Z</time>         <extensions>           <ns3:TrackPointExtension>             <ns3:hr>110</ns3:hr>           </ns3:TrackPointExtension>         </extensions>       </trkpt>
       <trkpt lat="45.58912533335387706756591796875" lon="14.44452099502086639404296875">         <ele>1682</ele>         <time>2026-02-28T11:00:29.000Z</time>         <extensions>           <ns3:TrackPointExtension>             <ns3:hr>109</ns3:hr>           </ns3:TrackPointExtension>         </extensions>       </trkpt>
       <trkpt lat="45.58913522399961948394775390625" lon="14.4445235095918178558349609375">         <ele>1682.199951171875</ele>         <time>2026-02-28T11:00:31.000Z</time>         <extensions>           <ns3:TrackPointExtension>             <ns3:hr>112</ns3:hr>           </ns3:TrackPointExtension>         </extensions>       </trkpt>
       <trkpt lat="45.58915584348142147064208984375" lon="14.44453415460884571075439453125">         <ele>1682.4000244140625</ele>         <time>2026-02-28T11:00:34.000Z</time>         <extensions>           <ns3:TrackPointExtension>             <ns3:hr>113</ns3:hr>           </ns3:TrackPointExtension>         </extensions>       </trkpt>
       <trkpt lat="45.58916020207107067108154296875" lon="14.4445399381220340728759765625">         <ele>1682.5999755859375</ele>         <time>2026-02-28T11:00:36.000Z</time>         <extensions>           <ns3:TrackPointExtension>             <ns3:hr>112</ns3:hr>           </ns3:TrackPointExtension>         </extensions>       </trkpt>
       <trkpt lat="45.5891995131969451904296875" lon="14.4445577077567577362060546875">         <ele>1683.199951171875</ele>         <time>2026-02-28T11:00:45.000Z</time>         <extensions>           <ns3:TrackPointExtension>             <ns3:hr>113</ns3:hr>           </ns3:TrackPointExtension>         </extensions>       </trkpt>
       <trkpt lat="45.589226670563220977783203125" lon="14.444570280611515045166015625">         <ele>1683.4000244140625</ele>         <time>2026-02-28T11:00:50.000Z</time>         <extensions>           <ns3:TrackPointExtension>             <ns3:hr>115</ns3:hr>           </ns3:TrackPointExtension>         </extensions>       </trkpt>
       <trkpt lat="45.58923899196088314056396484375" lon="14.44458126090466976165771484375">         <ele>1683.800048828125</ele>         <time>2026-02-28T11:00:53.000Z</time>         <extensions>           <ns3:TrackPointExtension>             <ns3:hr>113</ns3:hr>           </ns3:TrackPointExtension>         </extensions>       </trkpt>
       <trkpt lat="45.58924687094986438751220703125" lon="14.4445979408919811248779296875">         <ele>1684.4000244140625</ele>         <time>2026-02-28T11:00:58.000Z</time>         <extensions>           <ns3:TrackPointExtension>             <ns3:hr>112</ns3:hr>           </ns3:TrackPointExtension>         </extensions>       </trkpt>
       <trkpt lat="45.58924972079694271087646484375" lon="14.44460154511034488677978515625">         <ele>1684.5999755859375</ele>         <time>2026-02-28T11:00:59.000Z</time>         <extensions>           <ns3:TrackPointExtension>             <ns3:hr>112</ns3:hr>           </ns3:TrackPointExtension>         </extensions>       </trkpt>
       <trkpt lat="45.58927805162966251373291015625" lon="14.44463155232369899749755859375">         <ele>1684.800048828125</ele>         <time>2026-02-28T11:01:05.000Z</time>         <extensions>           <ns3:TrackPointExtension>             <ns3:hr>112</ns3:hr>           </ns3:TrackPointExtension>         </extensions>       </trkpt>
       <trkpt lat="45.58928827755153179168701171875" lon="14.444650076329708099365234375">         <ele>1685.800048828125</ele>         <time>2026-02-28T11:01:10.000Z</time>         <extensions>           <ns3:TrackPointExtension>             <ns3:hr>114</ns3:hr>           </ns3:TrackPointExtension>         </extensions>       </trkpt>
       <trkpt lat="45.589289367198944091796875" lon="14.44466457702219486236572265625">         <ele>1686.199951171875</ele>         <time>2026-02-28T11:01:12.000Z</time>         <extensions>           <ns3:TrackPointExtension>             <ns3:hr>115</ns3:hr>           </ns3:TrackPointExtension>         </extensions>       </trkpt>
       <trkpt lat="45.5892962403595447540283203125" lon="14.44469257257878780364990234375">         <ele>1686.5999755859375</ele>         <time>2026-02-28T11:01:17.000Z</time>         <extensions>           <ns3:TrackPointExtension>             <ns3:hr>116</ns3:hr>           </ns3:TrackPointExtension>         </extensions>       </trkpt>
       <trkpt lat="45.5892942287027835845947265625" lon="14.44470196031033992767333984375">         <ele>1686.800048828125</ele>         <time>2026-02-28T11:01:23.000Z</time>         <extensions>           <ns3:TrackPointExtension>             <ns3:hr>116</ns3:hr>           </ns3:TrackPointExtension>         </extensions>       </trkpt>
       <trkpt lat="45.58929045684635639190673828125" lon="14.444726519286632537841796875">         <ele>1686.800048828125</ele>         <time>2026-02-28T11:01:29.000Z</time>         <extensions>           <ns3:TrackPointExtension>             <ns3:hr>116</ns3:hr>           </ns3:TrackPointExtension>         </extensions>       </trkpt>
       <trkpt lat="45.58929406106472015380859375" lon="14.44474361836910247802734375">         <ele>1687</ele>         <time>2026-02-28T11:01:31.000Z</time>         <extensions>           <ns3:TrackPointExtension>             <ns3:hr>116</ns3:hr>           </ns3:TrackPointExtension>         </extensions>       </trkpt>
       <trkpt lat="45.58930286206305027008056640625" lon="14.44476365111768245697021484375">         <ele>1687.5999755859375</ele>         <time>2026-02-28T11:01:36.000Z</time>         <extensions>           <ns3:TrackPointExtension>             <ns3:hr>119</ns3:hr>           </ns3:TrackPointExtension>         </extensions>       </trkpt>
       <trkpt lat="45.58930470608174800872802734375" lon="14.44477085955440998077392578125">         <ele>1687.800048828125</ele>         <time>2026-02-28T11:01:38.000Z</time>         <extensions>           <ns3:TrackPointExtension>             <ns3:hr>122</ns3:hr>           </ns3:TrackPointExtension>         </extensions>       </trkpt>
       <trkpt lat="45.5893096514046192169189453125" lon="14.44478628225624561309814453125">         <ele>1688.199951171875</ele>         <time>2026-02-28T11:01:40.000Z</time>         <extensions>           <ns3:TrackPointExtension>             <ns3:hr>125</ns3:hr>           </ns3:TrackPointExtension>         </extensions>       </trkpt>
       <trkpt lat="45.58931174688041210174560546875" lon="14.44478921592235565185546875">         <ele>1688.199951171875</ele>         <time>2026-02-28T11:01:41.000Z</time>         <extensions>           <ns3:TrackPointExtension>             <ns3:hr>126</ns3:hr>           </ns3:TrackPointExtension>         </extensions>       </trkpt>
       <trkpt lat="45.58932214044034481048583984375" lon="14.44480773992836475372314453125">         <ele>1688.199951171875</ele>         <time>2026-02-28T11:01:44.000Z</time>         <extensions>           <ns3:TrackPointExtension>             <ns3:hr>130</ns3:hr>           </ns3:TrackPointExtension>         </extensions>       </trkpt>
       <trkpt lat="45.58933169580996036529541015625" lon="14.44483791477978229522705078125">         <ele>1688.5999755859375</ele>         <time>2026-02-28T11:01:49.000Z</time>         <extensions>           <ns3:TrackPointExtension>             <ns3:hr>129</ns3:hr>           </ns3:TrackPointExtension>         </extensions>       </trkpt>
       <trkpt lat="45.58933504857122898101806640625" lon="14.444850571453571319580078125">         <ele>1688.800048828125</ele>         <time>2026-02-28T11:01:51.000Z</time>         <extensions>           <ns3:TrackPointExtension>             <ns3:hr>128</ns3:hr>           </ns3:TrackPointExtension>         </extensions>       </trkpt>
       <trkpt lat="45.5893391557037830352783203125" lon="14.44486876018345355987548828125">         <ele>1689.199951171875</ele>         <time>2026-02-28T11:01:54.000Z</time>         <extensions>           <ns3:TrackPointExtension>             <ns3:hr>126</ns3:hr>           </ns3:TrackPointExtension>         </extensions>       </trkpt>
       <trkpt lat="45.58933756314218044281005859375" lon="14.44487546570599079132080078125">         <ele>1689.4000244140625</ele>         <time>2026-02-28T11:01:56.000Z</time>         <extensions>           <ns3:TrackPointExtension>             <ns3:hr>123</ns3:hr>           </ns3:TrackPointExtension>         </extensions>       </trkpt>
       <trkpt lat="45.58934032917022705078125" lon="14.4448939897119998931884765625">         <ele>1689.800048828125</ele>         <time>2026-02-28T11:01:59.000Z</time>         <extensions>           <ns3:TrackPointExtension>             <ns3:hr>120</ns3:hr>           </ns3:TrackPointExtension>         </extensions>       </trkpt>
       <trkpt lat="45.5893384851515293121337890625" lon="14.444892145693302154541015625">         <ele>1690</ele>         <time>2026-02-28T11:02:00.000Z</time>         <extensions>           <ns3:TrackPointExtension>             <ns3:hr>120</ns3:hr>           </ns3:TrackPointExtension>         </extensions>       </trkpt>
       <trkpt lat="45.58934158645570278167724609375" lon="14.4449348933994770050048828125">         <ele>1691</ele>         <time>2026-02-28T11:02:06.000Z</time>         <extensions>           <ns3:TrackPointExtension>             <ns3:hr>118</ns3:hr>           </ns3:TrackPointExtension>         </extensions>       </trkpt>
       <trkpt lat="45.5893443524837493896484375" lon="14.44495417177677154541015625">         <ele>1691</ele>         <time>2026-02-28T11:02:08.000Z</time>         <extensions>           <ns3:TrackPointExtension>             <ns3:hr>117</ns3:hr>           </ns3:TrackPointExtension>         </extensions>       </trkpt>
       <trkpt lat="45.58935365639626979827880859375" lon="14.44497738964855670928955078125">         <ele>1691.4000244140625</ele>         <time>2026-02-28T11:02:13.000Z</time>         <extensions>           <ns3:TrackPointExtension>             <ns3:hr>116</ns3:hr>           </ns3:TrackPointExtension>         </extensions>       </trkpt>
       <trkpt lat="45.58935700915753841400146484375" lon="14.44498694501817226409912109375">         <ele>1691.4000244140625</ele>         <time>2026-02-28T11:02:20.000Z</time>         <extensions>           <ns3:TrackPointExtension>             <ns3:hr>114</ns3:hr>           </ns3:TrackPointExtension>         </extensions>       </trkpt>
       <trkpt lat="45.5893475376069545745849609375" lon="14.44498761557042598724365234375">         <ele>1692</ele>         <time>2026-02-28T11:02:27.000Z</time>         <extensions>           <ns3:TrackPointExtension>             <ns3:hr>114</ns3:hr>           </ns3:TrackPointExtension>         </extensions>       </trkpt>
       <trkpt lat="45.5893475376069545745849609375" lon="14.44498761557042598724365234375">         <ele>1692</ele>         <time>2026-02-28T11:02:28.000Z</time>         <extensions>           <ns3:TrackPointExtension>             <ns3:hr>114</ns3:hr>           </ns3:TrackPointExtension>         </extensions>       </trkpt>
       <trkpt lat="45.5893475376069545745849609375" lon="14.44498761557042598724365234375">         <ele>1692</ele>         <time>2026-02-28T11:02:34.000Z</time>         <extensions>           <ns3:TrackPointExtension>             <ns3:hr>118</ns3:hr>           </ns3:TrackPointExtension>         </extensions>       </trkpt>
       <trkpt lat="45.5893475376069545745849609375" lon="14.44498761557042598724365234375">         <ele>1691.800048828125</ele>         <time>2026-02-28T11:02:41.000Z</time>         <extensions>           <ns3:TrackPointExtension>             <ns3:hr>115</ns3:hr>           </ns3:TrackPointExtension>         </extensions>       </trkpt>
       <trkpt lat="45.5893565900623798370361328125" lon="14.44500555284321308135986328125">         <ele>1691.800048828125</ele>         <time>2026-02-28T11:02:47.000Z</time>         <extensions>           <ns3:TrackPointExtension>             <ns3:hr>113</ns3:hr>           </ns3:TrackPointExtension>         </extensions>       </trkpt>
       <trkpt lat="45.5893663130700588226318359375" lon="14.44504042156040668487548828125">         <ele>1692.4000244140625</ele>         <time>2026-02-28T11:02:52.000Z</time>         <extensions>           <ns3:TrackPointExtension>             <ns3:hr>110</ns3:hr>           </ns3:TrackPointExtension>         </extensions>       </trkpt>
       <trkpt lat="45.58936941437423229217529296875" lon="14.445046372711658477783203125">         <ele>1692.5999755859375</ele>         <time>2026-02-28T11:02:54.000Z</time>         <extensions>           <ns3:TrackPointExtension>             <ns3:hr>108</ns3:hr>           </ns3:TrackPointExtension>         </extensions>       </trkpt>
       <trkpt lat="45.58937611989676952362060546875" lon="14.44507244043052196502685546875">         <ele>1692.800048828125</ele>         <time>2026-02-28T11:02:56.000Z</time>         <extensions>           <ns3:TrackPointExtension>             <ns3:hr>105</ns3:hr>           </ns3:TrackPointExtension>         </extensions>       </trkpt>
       <trkpt lat="45.58938165195286273956298828125" lon="14.445093311369419097900390625">         <ele>1693.199951171875</ele>         <time>2026-02-28T11:02:58.000Z</time>         <extensions>           <ns3:TrackPointExtension>             <ns3:hr>104</ns3:hr>           </ns3:TrackPointExtension>         </extensions>       </trkpt>
       <trkpt lat="45.589390955865383148193359375" lon="14.44512583315372467041015625">         <ele>1694</ele>         <time>2026-02-28T11:03:04.000Z</time>         <extensions>           <ns3:TrackPointExtension>             <ns3:hr>102</ns3:hr>           </ns3:TrackPointExtension>         </extensions>       </trkpt>
       <trkpt lat="45.58939238078892230987548828125" lon="14.445127509534358978271484375">         <ele>1694</ele>         <time>2026-02-28T11:03:05.000Z</time>         <extensions>           <ns3:TrackPointExtension>             <ns3:hr>106</ns3:hr>           </ns3:TrackPointExtension>         </extensions>       </trkpt>
       <trkpt lat="45.58939305134117603302001953125" lon="14.44513295777142047882080078125">         <ele>1694.199951171875</ele>         <time>2026-02-28T11:03:06.000Z</time>         <extensions>           <ns3:TrackPointExtension>             <ns3:hr>108</ns3:hr>           </ns3:TrackPointExtension>         </extensions>       </trkpt>
       <trkpt lat="45.5893954820930957794189453125" lon="14.4451474584639072418212890625">         <ele>1694.4000244140625</ele>         <time>2026-02-28T11:03:08.000Z</time>         <extensions>           <ns3:TrackPointExtension>             <ns3:hr>112</ns3:hr>           </ns3:TrackPointExtension>         </extensions>       </trkpt>
       <trkpt lat="45.5893953144550323486328125" lon="14.44516933523118495941162109375">         <ele>1694.800048828125</ele>         <time>2026-02-28T11:03:12.000Z</time>         <extensions>           <ns3:TrackPointExtension>             <ns3:hr>116</ns3:hr>           </ns3:TrackPointExtension>         </extensions>       </trkpt>
       <trkpt lat="45.589398331940174102783203125" lon="14.4451836682856082916259765625">         <ele>1695</ele>         <time>2026-02-28T11:03:13.000Z</time>         <extensions>           <ns3:TrackPointExtension>             <ns3:hr>119</ns3:hr>           </ns3:TrackPointExtension>         </extensions>       </trkpt>
       <trkpt lat="45.58940344490110874176025390625" lon="14.445198588073253631591796875">         <ele>1695.199951171875</ele>         <time>2026-02-28T11:03:15.000Z</time>         <extensions>           <ns3:TrackPointExtension>             <ns3:hr>124</ns3:hr>           </ns3:TrackPointExtension>         </extensions>       </trkpt>
       <trkpt lat="45.58940646238625049591064453125" lon="14.4452047906816005706787109375">         <ele>1695.199951171875</ele>         <time>2026-02-28T11:03:16.000Z</time>         <extensions>           <ns3:TrackPointExtension>             <ns3:hr>127</ns3:hr>           </ns3:TrackPointExtension>         </extensions>       </trkpt>
       <trkpt lat="45.58941216208040714263916015625" lon="14.44521610625088214874267578125">         <ele>1695.4000244140625</ele>         <time>2026-02-28T11:03:18.000Z</time>         <extensions>           <ns3:TrackPointExtension>             <ns3:hr>130</ns3:hr>           </ns3:TrackPointExtension>         </extensions>       </trkpt>
       <trkpt lat="45.589411072432994842529296875" lon="14.445216692984104156494140625">         <ele>1695.5999755859375</ele>         <time>2026-02-28T11:03:19.000Z</time>         <extensions>           <ns3:TrackPointExtension>             <ns3:hr>132</ns3:hr>           </ns3:TrackPointExtension>         </extensions>       </trkpt>
       <trkpt lat="45.58941082097589969635009765625" lon="14.44521878845989704132080078125">         <ele>1695.800048828125</ele>         <time>2026-02-28T11:03:20.000Z</time>         <extensions>           <ns3:TrackPointExtension>             <ns3:hr>135</ns3:hr>           </ns3:TrackPointExtension>         </extensions>       </trkpt>
       <trkpt lat="45.58941207826137542724609375" lon="14.4452403299510478973388671875">         <ele>1696.199951171875</ele>         <time>2026-02-28T11:03:28.000Z</time>         <extensions>           <ns3:TrackPointExtension>             <ns3:hr>136</ns3:hr>           </ns3:TrackPointExtension>         </extensions>       </trkpt>
       <trkpt lat="45.58941400609910488128662109375" lon="14.44523924030363559722900390625">         <ele>1696.199951171875</ele>         <time>2026-02-28T11:03:29.000Z</time>         <extensions>           <ns3:TrackPointExtension>             <ns3:hr>135</ns3:hr>           </ns3:TrackPointExtension>         </extensions>       </trkpt>
       <trkpt lat="45.5894119106233119964599609375" lon="14.445235468447208404541015625">         <ele>1696.199951171875</ele>         <time>2026-02-28T11:03:35.000Z</time>         <extensions>           <ns3:TrackPointExtension>             <ns3:hr>132</ns3:hr>           </ns3:TrackPointExtension>         </extensions>       </trkpt>
       <trkpt lat="45.5894119106233119964599609375" lon="14.445235468447208404541015625">         <ele>1696.199951171875</ele>         <time>2026-02-28T11:03:37.000Z</time>         <extensions>           <ns3:TrackPointExtension>             <ns3:hr>128</ns3:hr>           </ns3:TrackPointExtension>         </extensions>       </trkpt>
       <trkpt lat="45.5894119106233119964599609375" lon="14.445235468447208404541015625">         <ele>1696.199951171875</ele>         <time>2026-02-28T11:03:39.000Z</time>         <extensions>           <ns3:TrackPointExtension>             <ns3:hr>122</ns3:hr>           </ns3:TrackPointExtension>         </extensions>       </trkpt>
       <trkpt lat="45.5894119106233119964599609375" lon="14.445235468447208404541015625">         <ele>1696.199951171875</ele>         <time>2026-02-28T11:03:40.000Z</time>         <extensions>           <ns3:TrackPointExtension>             <ns3:hr>117</ns3:hr>           </ns3:TrackPointExtension>         </extensions>       </trkpt>
       <trkpt lat="45.58940981514751911163330078125" lon="14.44524058140814304351806640625">         <ele>1696.199951171875</ele>         <time>2026-02-28T11:03:41.000Z</time>         <extensions>           <ns3:TrackPointExtension>             <ns3:hr>113</ns3:hr>           </ns3:TrackPointExtension>         </extensions>       </trkpt>
       <trkpt lat="45.589413754642009735107421875" lon="14.445251561701297760009765625">         <ele>1696.5999755859375</ele>         <time>2026-02-28T11:03:43.000Z</time>         <extensions>           <ns3:TrackPointExtension>             <ns3:hr>110</ns3:hr>           </ns3:TrackPointExtension>         </extensions>       </trkpt>
       <trkpt lat="45.5894135870039463043212890625" lon="14.4452580995857715606689453125">         <ele>1696.800048828125</ele>         <time>2026-02-28T11:03:44.000Z</time>         <extensions>           <ns3:TrackPointExtension>             <ns3:hr>110</ns3:hr>           </ns3:TrackPointExtension>         </extensions>       </trkpt>
       <trkpt lat="45.58942540548741817474365234375" lon="14.44529338739812374114990234375">         <ele>1697.4000244140625</ele>         <time>2026-02-28T11:03:48.000Z</time>         <extensions>           <ns3:TrackPointExtension>             <ns3:hr>109</ns3:hr>           </ns3:TrackPointExtension>         </extensions>       </trkpt>
       <trkpt lat="45.58943026699125766754150390625" lon="14.4453033618628978729248046875">         <ele>1697.800048828125</ele>         <time>2026-02-28T11:03:52.000Z</time>         <extensions>           <ns3:TrackPointExtension>             <ns3:hr>109</ns3:hr>           </ns3:TrackPointExtension>         </extensions>       </trkpt>
       <trkpt lat="45.5894370563328266143798828125" lon="14.4453174434602260589599609375">         <ele>1698.4000244140625</ele>         <time>2026-02-28T11:03:56.000Z</time>         <extensions>           <ns3:TrackPointExtension>             <ns3:hr>109</ns3:hr>           </ns3:TrackPointExtension>         </extensions>       </trkpt>
       <trkpt lat="45.5894353799521923065185546875" lon="14.4453194551169872283935546875">         <ele>1698.5999755859375</ele>         <time>2026-02-28T11:03:57.000Z</time>         <extensions>           <ns3:TrackPointExtension>             <ns3:hr>109</ns3:hr>           </ns3:TrackPointExtension>         </extensions>       </trkpt>
       <trkpt lat="45.5894444324076175689697265625" lon="14.44534736685454845428466796875">         <ele>1699</ele>         <time>2026-02-28T11:04:02.000Z</time>         <extensions>           <ns3:TrackPointExtension>             <ns3:hr>110</ns3:hr>           </ns3:TrackPointExtension>         </extensions>       </trkpt>
       <trkpt lat="45.5894541554152965545654296875" lon="14.4453697465360164642333984375">         <ele>1699.5999755859375</ele>         <time>2026-02-28T11:04:05.000Z</time>         <extensions>           <ns3:TrackPointExtension>             <ns3:hr>110</ns3:hr>           </ns3:TrackPointExtension>         </extensions>       </trkpt>
       <trkpt lat="45.58946128003299236297607421875" lon="14.4453881867229938507080078125">         <ele>1700.199951171875</ele>         <time>2026-02-28T11:04:08.000Z</time>         <extensions>           <ns3:TrackPointExtension>             <ns3:hr>111</ns3:hr>           </ns3:TrackPointExtension>         </extensions>       </trkpt>
       <trkpt lat="45.58947301469743251800537109375" lon="14.44542179815471172332763671875">         <ele>1700.4000244140625</ele>         <time>2026-02-28T11:04:13.000Z</time>         <extensions>           <ns3:TrackPointExtension>             <ns3:hr>112</ns3:hr>           </ns3:TrackPointExtension>         </extensions>       </trkpt>
       <trkpt lat="45.58947779238224029541015625" lon="14.44543168880045413970947265625">         <ele>1700.5999755859375</ele>         <time>2026-02-28T11:04:15.000Z</time>         <extensions>           <ns3:TrackPointExtension>             <ns3:hr>112</ns3:hr>           </ns3:TrackPointExtension>         </extensions>       </trkpt>
       <trkpt lat="45.58947670273482799530029296875" lon="14.44544912315905094146728515625">         <ele>1700.800048828125</ele>         <time>2026-02-28T11:04:19.000Z</time>         <extensions>           <ns3:TrackPointExtension>             <ns3:hr>113</ns3:hr>           </ns3:TrackPointExtension>         </extensions>       </trkpt>
       <trkpt lat="45.58948189951479434967041015625" lon="14.445468820631504058837890625">         <ele>1701.4000244140625</ele>         <time>2026-02-28T11:04:23.000Z</time>         <extensions>           <ns3:TrackPointExtension>             <ns3:hr>116</ns3:hr>           </ns3:TrackPointExtension>         </extensions>       </trkpt>
       <trkpt lat="45.5894913710653781890869140625" lon="14.44547963328659534454345703125">         <ele>1701.5999755859375</ele>         <time>2026-02-28T11:04:26.000Z</time>         <extensions>           <ns3:TrackPointExtension>             <ns3:hr>117</ns3:hr>           </ns3:TrackPointExtension>         </extensions>       </trkpt>
       <trkpt lat="45.58950201608240604400634765625" lon="14.4454974867403507232666015625">         <ele>1702.4000244140625</ele>         <time>2026-02-28T11:04:32.000Z</time>         <extensions>           <ns3:TrackPointExtension>             <ns3:hr>116</ns3:hr>           </ns3:TrackPointExtension>         </extensions>       </trkpt>
       <trkpt lat="45.58950520120561122894287109375" lon="14.44551332853734493255615234375">         <ele>1702.5999755859375</ele>         <time>2026-02-28T11:04:35.000Z</time>         <extensions>           <ns3:TrackPointExtension>             <ns3:hr>115</ns3:hr>           </ns3:TrackPointExtension>         </extensions>       </trkpt>
       <trkpt lat="45.58950620703399181365966796875" lon="14.4455207884311676025390625">         <ele>1703.199951171875</ele>         <time>2026-02-28T11:04:38.000Z</time>         <extensions>           <ns3:TrackPointExtension>             <ns3:hr>115</ns3:hr>           </ns3:TrackPointExtension>         </extensions>       </trkpt>
       <trkpt lat="45.5895185284316539764404296875" lon="14.44556345231831073760986328125">         <ele>1703.800048828125</ele>         <time>2026-02-28T11:04:44.000Z</time>         <extensions>           <ns3:TrackPointExtension>             <ns3:hr>116</ns3:hr>           </ns3:TrackPointExtension>         </extensions>       </trkpt>
       <trkpt lat="45.58951936662197113037109375" lon="14.44557166658341884613037109375">         <ele>1703.800048828125</ele>         <time>2026-02-28T11:04:45.000Z</time>         <extensions>           <ns3:TrackPointExtension>             <ns3:hr>116</ns3:hr>           </ns3:TrackPointExtension>         </extensions>       </trkpt>
       <trkpt lat="45.58952699415385723114013671875" lon="14.44559446536004543304443359375">         <ele>1704.5999755859375</ele>         <time>2026-02-28T11:04:51.000Z</time>         <extensions>           <ns3:TrackPointExtension>             <ns3:hr>117</ns3:hr>           </ns3:TrackPointExtension>         </extensions>       </trkpt>
       <trkpt lat="45.589531771838665008544921875" lon="14.4456081278622150421142578125">         <ele>1704.800048828125</ele>         <time>2026-02-28T11:04:53.000Z</time>         <extensions>           <ns3:TrackPointExtension>             <ns3:hr>121</ns3:hr>           </ns3:TrackPointExtension>         </extensions>       </trkpt>
       <trkpt lat="45.5895339511334896087646484375" lon="14.4456081278622150421142578125">         <ele>1705.199951171875</ele>         <time>2026-02-28T11:04:56.000Z</time>         <extensions>           <ns3:TrackPointExtension>             <ns3:hr>124</ns3:hr>           </ns3:TrackPointExtension>         </extensions>       </trkpt>
       <trkpt lat="45.58953621424734592437744140625" lon="14.4456158392131328582763671875">         <ele>1705.5999755859375</ele>         <time>2026-02-28T11:04:58.000Z</time>         <extensions>           <ns3:TrackPointExtension>             <ns3:hr>125</ns3:hr>           </ns3:TrackPointExtension>         </extensions>       </trkpt>
       <trkpt lat="45.58954375796020030975341796875" lon="14.44562874734401702880859375">         <ele>1706</ele>         <time>2026-02-28T11:05:01.000Z</time>         <extensions>           <ns3:TrackPointExtension>             <ns3:hr>125</ns3:hr>           </ns3:TrackPointExtension>         </extensions>       </trkpt>
       <trkpt lat="45.58954727835953235626220703125" lon="14.445632435381412506103515625">         <ele>1706.199951171875</ele>         <time>2026-02-28T11:05:03.000Z</time>         <extensions>           <ns3:TrackPointExtension>             <ns3:hr>122</ns3:hr>           </ns3:TrackPointExtension>         </extensions>       </trkpt>
       <trkpt lat="45.5895557440817356109619140625" lon="14.44563955999910831451416015625">         <ele>1706.199951171875</ele>         <time>2026-02-28T11:05:05.000Z</time>         <extensions>           <ns3:TrackPointExtension>             <ns3:hr>121</ns3:hr>           </ns3:TrackPointExtension>         </extensions>       </trkpt>
       <trkpt lat="45.58957292698323726654052734375" lon="14.44565825164318084716796875">         <ele>1707</ele>         <time>2026-02-28T11:05:10.000Z</time>         <extensions>           <ns3:TrackPointExtension>             <ns3:hr>120</ns3:hr>           </ns3:TrackPointExtension>         </extensions>       </trkpt>
       <trkpt lat="45.58957678265869617462158203125" lon="14.44565749727189540863037109375">         <ele>1707.5999755859375</ele>         <time>2026-02-28T11:05:15.000Z</time>         <extensions>           <ns3:TrackPointExtension>             <ns3:hr>119</ns3:hr>           </ns3:TrackPointExtension>         </extensions>       </trkpt>
       <trkpt lat="45.5895698256790637969970703125" lon="14.4456570781767368316650390625">         <ele>1708</ele>         <time>2026-02-28T11:05:18.000Z</time>         <extensions>           <ns3:TrackPointExtension>             <ns3:hr>118</ns3:hr>           </ns3:TrackPointExtension>         </extensions>       </trkpt>
       <trkpt lat="45.5895731784403324127197265625" lon="14.44567359052598476409912109375">         <ele>1708.199951171875</ele>         <time>2026-02-28T11:05:21.000Z</time>         <extensions>           <ns3:TrackPointExtension>             <ns3:hr>116</ns3:hr>           </ns3:TrackPointExtension>         </extensions>       </trkpt>
       <trkpt lat="45.58957745321094989776611328125" lon="14.44569043815135955810546875">         <ele>1708.4000244140625</ele>         <time>2026-02-28T11:05:23.000Z</time>         <extensions>           <ns3:TrackPointExtension>             <ns3:hr>111</ns3:hr>           </ns3:TrackPointExtension>         </extensions>       </trkpt>
       <trkpt lat="45.58957829140126705169677734375" lon="14.44569555111229419708251953125">         <ele>1708.4000244140625</ele>         <time>2026-02-28T11:05:24.000Z</time>         <extensions>           <ns3:TrackPointExtension>             <ns3:hr>111</ns3:hr>           </ns3:TrackPointExtension>         </extensions>       </trkpt>
       <trkpt lat="45.58957812376320362091064453125" lon="14.44571055471897125244140625">         <ele>1709</ele>         <time>2026-02-28T11:05:28.000Z</time>         <extensions>           <ns3:TrackPointExtension>             <ns3:hr>112</ns3:hr>           </ns3:TrackPointExtension>         </extensions>       </trkpt>
       <trkpt lat="45.58957544155418872833251953125" lon="14.44570745341479778289794921875">         <ele>1709.199951171875</ele>         <time>2026-02-28T11:05:30.000Z</time>         <extensions>           <ns3:TrackPointExtension>             <ns3:hr>114</ns3:hr>           </ns3:TrackPointExtension>         </extensions>       </trkpt>
       <trkpt lat="45.58957443572580814361572265625" lon="14.44571516476571559906005859375">         <ele>1709.4000244140625</ele>         <time>2026-02-28T11:05:32.000Z</time>         <extensions>           <ns3:TrackPointExtension>             <ns3:hr>117</ns3:hr>           </ns3:TrackPointExtension>         </extensions>       </trkpt>
       <trkpt lat="45.58957703411579132080078125" lon="14.44572958163917064666748046875">         <ele>1709.4000244140625</ele>         <time>2026-02-28T11:05:33.000Z</time>         <extensions>           <ns3:TrackPointExtension>             <ns3:hr>118</ns3:hr>           </ns3:TrackPointExtension>         </extensions>       </trkpt>
       <trkpt lat="45.589584410190582275390625" lon="14.44575481116771697998046875">         <ele>1710.199951171875</ele>         <time>2026-02-28T11:05:38.000Z</time>         <extensions>           <ns3:TrackPointExtension>             <ns3:hr>119</ns3:hr>           </ns3:TrackPointExtension>         </extensions>       </trkpt>
       <trkpt lat="45.5895879305899143218994140625" lon="14.4457606784999370574951171875">         <ele>1710.4000244140625</ele>         <time>2026-02-28T11:05:39.000Z</time>         <extensions>           <ns3:TrackPointExtension>             <ns3:hr>118</ns3:hr>           </ns3:TrackPointExtension>         </extensions>       </trkpt>
       <trkpt lat="45.5895869247615337371826171875" lon="14.4457586668431758880615234375">         <ele>1710.800048828125</ele>         <time>2026-02-28T11:05:41.000Z</time>         <extensions>           <ns3:TrackPointExtension>             <ns3:hr>115</ns3:hr>           </ns3:TrackPointExtension>         </extensions>       </trkpt>
       <trkpt lat="45.5895884335041046142578125" lon="14.4457740895450115203857421875">         <ele>1711.199951171875</ele>         <time>2026-02-28T11:05:43.000Z</time>         <extensions>           <ns3:TrackPointExtension>             <ns3:hr>111</ns3:hr>           </ns3:TrackPointExtension>         </extensions>       </trkpt>
       <trkpt lat="45.5895879305899143218994140625" lon="14.44577266462147235870361328125">         <ele>1711.199951171875</ele>         <time>2026-02-28T11:05:44.000Z</time>         <extensions>           <ns3:TrackPointExtension>             <ns3:hr>110</ns3:hr>           </ns3:TrackPointExtension>         </extensions>       </trkpt>
       <trkpt lat="45.5895882658660411834716796875" lon="14.44576662965118885040283203125">         <ele>1711.199951171875</ele>         <time>2026-02-28T11:05:46.000Z</time>         <extensions>           <ns3:TrackPointExtension>             <ns3:hr>107</ns3:hr>           </ns3:TrackPointExtension>         </extensions>       </trkpt>
       <trkpt lat="45.589589774608612060546875" lon="14.4457818008959293365478515625">         <ele>1711.4000244140625</ele>         <time>2026-02-28T11:05:49.000Z</time>         <extensions>           <ns3:TrackPointExtension>             <ns3:hr>107</ns3:hr>           </ns3:TrackPointExtension>         </extensions>       </trkpt>
       <trkpt lat="45.58959337882697582244873046875" lon="14.44581692107021808624267578125">         <ele>1711.800048828125</ele>         <time>2026-02-28T11:05:54.000Z</time>         <extensions>           <ns3:TrackPointExtension>             <ns3:hr>105</ns3:hr>           </ns3:TrackPointExtension>         </extensions>       </trkpt>
       <trkpt lat="45.58959589339792728424072265625" lon="14.44583795964717864990234375">         <ele>1712.199951171875</ele>         <time>2026-02-28T11:05:58.000Z</time>         <extensions>           <ns3:TrackPointExtension>             <ns3:hr>103</ns3:hr>           </ns3:TrackPointExtension>         </extensions>       </trkpt>
       <trkpt lat="45.5895963124930858612060546875" lon="14.44584458135068416595458984375">         <ele>1712.4000244140625</ele>         <time>2026-02-28T11:05:59.000Z</time>         <extensions>           <ns3:TrackPointExtension>             <ns3:hr>103</ns3:hr>           </ns3:TrackPointExtension>         </extensions>       </trkpt>
       <trkpt lat="45.5895996652543544769287109375" lon="14.44585539400577545166015625">         <ele>1713.4000244140625</ele>         <time>2026-02-28T11:06:03.000Z</time>         <extensions>           <ns3:TrackPointExtension>             <ns3:hr>104</ns3:hr>           </ns3:TrackPointExtension>         </extensions>       </trkpt>
       <trkpt lat="45.58959840796887874603271484375" lon="14.44585941731929779052734375">         <ele>1713.5999755859375</ele>         <time>2026-02-28T11:06:04.000Z</time>         <extensions>           <ns3:TrackPointExtension>             <ns3:hr>105</ns3:hr>           </ns3:TrackPointExtension>         </extensions>       </trkpt>
       <trkpt lat="45.58959044516086578369140625" lon="14.44584039039909839630126953125">         <ele>1713.800048828125</ele>         <time>2026-02-28T11:06:09.000Z</time>         <extensions>           <ns3:TrackPointExtension>             <ns3:hr>114</ns3:hr>           </ns3:TrackPointExtension>         </extensions>       </trkpt>
       <trkpt lat="45.58959044516086578369140625" lon="14.44584273733198642730712890625">         <ele>1713.800048828125</ele>         <time>2026-02-28T11:06:10.000Z</time>         <extensions>           <ns3:TrackPointExtension>             <ns3:hr>120</ns3:hr>           </ns3:TrackPointExtension>         </extensions>       </trkpt>
       <trkpt lat="45.58959187008440494537353515625" lon="14.44584600627422332763671875">         <ele>1713.800048828125</ele>         <time>2026-02-28T11:06:11.000Z</time>         <extensions>           <ns3:TrackPointExtension>             <ns3:hr>120</ns3:hr>           </ns3:TrackPointExtension>         </extensions>       </trkpt>
       <trkpt lat="45.58959639631211757659912109375" lon="14.4458783604204654693603515625">         <ele>1713.800048828125</ele>         <time>2026-02-28T11:06:15.000Z</time>         <extensions>           <ns3:TrackPointExtension>             <ns3:hr>118</ns3:hr>           </ns3:TrackPointExtension>         </extensions>       </trkpt>
       <trkpt lat="45.58958365581929683685302734375" lon="14.4458211958408355712890625">         <ele>1713.800048828125</ele>         <time>2026-02-28T11:06:28.000Z</time>         <extensions>           <ns3:TrackPointExtension>             <ns3:hr>118</ns3:hr>           </ns3:TrackPointExtension>         </extensions>       </trkpt>
       <trkpt lat="45.5895892716944217681884765625" lon="14.44583284668624401092529296875">         <ele>1713.800048828125</ele>         <time>2026-02-28T11:06:40.000Z</time>         <extensions>           <ns3:TrackPointExtension>             <ns3:hr>120</ns3:hr>           </ns3:TrackPointExtension>         </extensions>       </trkpt>
       <trkpt lat="45.58959312736988067626953125" lon="14.445854388177394866943359375">         <ele>1713.800048828125</ele>         <time>2026-02-28T11:06:50.000Z</time>         <extensions>           <ns3:TrackPointExtension>             <ns3:hr>118</ns3:hr>           </ns3:TrackPointExtension>         </extensions>       </trkpt>
       <trkpt lat="45.5895953066647052764892578125" lon="14.4458569027483463287353515625">         <ele>1714.199951171875</ele>         <time>2026-02-28T11:06:53.000Z</time>         <extensions>           <ns3:TrackPointExtension>             <ns3:hr>115</ns3:hr>           </ns3:TrackPointExtension>         </extensions>       </trkpt>
       <trkpt lat="45.5895979888737201690673828125" lon="14.4458686374127864837646484375">         <ele>1714.4000244140625</ele>         <time>2026-02-28T11:06:54.000Z</time>         <extensions>           <ns3:TrackPointExtension>             <ns3:hr>115</ns3:hr>           </ns3:TrackPointExtension>         </extensions>       </trkpt>
       <trkpt lat="45.58960427530109882354736328125" lon="14.44588447920978069305419921875">         <ele>1715.199951171875</ele>         <time>2026-02-28T11:06:58.000Z</time>         <extensions>           <ns3:TrackPointExtension>             <ns3:hr>114</ns3:hr>           </ns3:TrackPointExtension>         </extensions>       </trkpt>
       <trkpt lat="45.58960863389074802398681640625" lon="14.44588967598974704742431640625">         <ele>1715.5999755859375</ele>         <time>2026-02-28T11:07:00.000Z</time>         <extensions>           <ns3:TrackPointExtension>             <ns3:hr>115</ns3:hr>           </ns3:TrackPointExtension>         </extensions>       </trkpt>
       <trkpt lat="45.58960628695785999298095703125" lon="14.44589302875101566314697265625">         <ele>1715.5999755859375</ele>         <time>2026-02-28T11:07:02.000Z</time>         <extensions>           <ns3:TrackPointExtension>             <ns3:hr>119</ns3:hr>           </ns3:TrackPointExtension>         </extensions>       </trkpt>
       <trkpt lat="45.58960880152881145477294921875" lon="14.44591197185218334197998046875">         <ele>1715.5999755859375</ele>         <time>2026-02-28T11:07:06.000Z</time>         <extensions>           <ns3:TrackPointExtension>             <ns3:hr>122</ns3:hr>           </ns3:TrackPointExtension>         </extensions>       </trkpt>
       <trkpt lat="45.58961190283298492431640625" lon="14.44591549225151538848876953125">         <ele>1715.199951171875</ele>         <time>2026-02-28T11:07:10.000Z</time>         <extensions>           <ns3:TrackPointExtension>             <ns3:hr>125</ns3:hr>           </ns3:TrackPointExtension>         </extensions>       </trkpt>
       <trkpt lat="45.589612908661365509033203125" lon="14.445913732051849365234375">         <ele>1715.199951171875</ele>         <time>2026-02-28T11:07:11.000Z</time>         <extensions>           <ns3:TrackPointExtension>             <ns3:hr>125</ns3:hr>           </ns3:TrackPointExtension>         </extensions>       </trkpt>
       <trkpt lat="45.58961584232747554779052734375" lon="14.44592244923114776611328125">         <ele>1716</ele>         <time>2026-02-28T11:07:18.000Z</time>         <extensions>           <ns3:TrackPointExtension>             <ns3:hr>125</ns3:hr>           </ns3:TrackPointExtension>         </extensions>       </trkpt>
       <trkpt lat="45.58961550705134868621826171875" lon="14.44592705927789211273193359375">         <ele>1716.5999755859375</ele>         <time>2026-02-28T11:07:21.000Z</time>         <extensions>           <ns3:TrackPointExtension>             <ns3:hr>123</ns3:hr>           </ns3:TrackPointExtension>         </extensions>       </trkpt>
       <trkpt lat="45.5896224640309810638427734375" lon="14.445948936045169830322265625">         <ele>1716.800048828125</ele>         <time>2026-02-28T11:07:24.000Z</time>         <extensions>           <ns3:TrackPointExtension>             <ns3:hr>125</ns3:hr>           </ns3:TrackPointExtension>         </extensions>       </trkpt>
       <trkpt lat="45.58962791226804256439208984375" lon="14.4459467567503452301025390625">         <ele>1717.199951171875</ele>         <time>2026-02-28T11:07:26.000Z</time>         <extensions>           <ns3:TrackPointExtension>             <ns3:hr>128</ns3:hr>           </ns3:TrackPointExtension>         </extensions>       </trkpt>
       <trkpt lat="45.58963696472346782684326171875" lon="14.4459625147283077239990234375">         <ele>1717.5999755859375</ele>         <time>2026-02-28T11:07:29.000Z</time>         <extensions>           <ns3:TrackPointExtension>             <ns3:hr>130</ns3:hr>           </ns3:TrackPointExtension>         </extensions>       </trkpt>
       <trkpt lat="45.58964006602764129638671875" lon="14.445967711508274078369140625">         <ele>1717.5999755859375</ele>         <time>2026-02-28T11:07:30.000Z</time>         <extensions>           <ns3:TrackPointExtension>             <ns3:hr>130</ns3:hr>           </ns3:TrackPointExtension>         </extensions>       </trkpt>
       <trkpt lat="45.58964819647371768951416015625" lon="14.4459839724004268646240234375">         <ele>1718.199951171875</ele>         <time>2026-02-28T11:07:34.000Z</time>         <extensions>           <ns3:TrackPointExtension>             <ns3:hr>130</ns3:hr>           </ns3:TrackPointExtension>         </extensions>       </trkpt>
       <trkpt lat="45.5896616913378238677978515625" lon="14.44600065238773822784423828125">         <ele>1718.800048828125</ele>         <time>2026-02-28T11:07:37.000Z</time>         <extensions>           <ns3:TrackPointExtension>             <ns3:hr>129</ns3:hr>           </ns3:TrackPointExtension>         </extensions>       </trkpt>
       <trkpt lat="45.5896596796810626983642578125" lon="14.44599545560777187347412109375">         <ele>1719.4000244140625</ele>         <time>2026-02-28T11:07:40.000Z</time>         <extensions>           <ns3:TrackPointExtension>             <ns3:hr>128</ns3:hr>           </ns3:TrackPointExtension>         </extensions>       </trkpt>
       <trkpt lat="45.58966412208974361419677734375" lon="14.44600827991962432861328125">         <ele>1719.800048828125</ele>         <time>2026-02-28T11:07:45.000Z</time>         <extensions>           <ns3:TrackPointExtension>             <ns3:hr>128</ns3:hr>           </ns3:TrackPointExtension>         </extensions>       </trkpt>
       <trkpt lat="45.589666552841663360595703125" lon="14.44601339288055896759033203125">         <ele>1720</ele>         <time>2026-02-28T11:07:47.000Z</time>         <extensions>           <ns3:TrackPointExtension>             <ns3:hr>128</ns3:hr>           </ns3:TrackPointExtension>         </extensions>       </trkpt>
       <trkpt lat="45.58967761695384979248046875" lon="14.4460275582969188690185546875">         <ele>1720.5999755859375</ele>         <time>2026-02-28T11:07:50.000Z</time>         <extensions>           <ns3:TrackPointExtension>             <ns3:hr>127</ns3:hr>           </ns3:TrackPointExtension>         </extensions>       </trkpt>
       <trkpt lat="45.5896875075995922088623046875" lon="14.4460402987897396087646484375">         <ele>1721</ele>         <time>2026-02-28T11:07:53.000Z</time>         <extensions>           <ns3:TrackPointExtension>             <ns3:hr>124</ns3:hr>           </ns3:TrackPointExtension>         </extensions>       </trkpt>
       <trkpt lat="45.589683316648006439208984375" lon="14.44603451527655124664306640625">         <ele>1721.199951171875</ele>         <time>2026-02-28T11:07:54.000Z</time>         <extensions>           <ns3:TrackPointExtension>             <ns3:hr>123</ns3:hr>           </ns3:TrackPointExtension>         </extensions>       </trkpt>
       <trkpt lat="45.5896932072937488555908203125" lon="14.4460620917379856109619140625">         <ele>1721.5999755859375</ele>         <time>2026-02-28T11:07:58.000Z</time>         <extensions>           <ns3:TrackPointExtension>             <ns3:hr>121</ns3:hr>           </ns3:TrackPointExtension>         </extensions>       </trkpt>
       <trkpt lat="45.58969630859792232513427734375" lon="14.44606033153831958770751953125">         <ele>1722.199951171875</ele>         <time>2026-02-28T11:08:01.000Z</time>         <extensions>           <ns3:TrackPointExtension>             <ns3:hr>120</ns3:hr>           </ns3:TrackPointExtension>         </extensions>       </trkpt>
       <trkpt lat="45.58970033191144466400146484375" lon="14.44606569595634937286376953125">         <ele>1722.4000244140625</ele>         <time>2026-02-28T11:08:03.000Z</time>         <extensions>           <ns3:TrackPointExtension>             <ns3:hr>117</ns3:hr>           </ns3:TrackPointExtension>         </extensions>       </trkpt>
       <trkpt lat="45.5897064507007598876953125" lon="14.446088410913944244384765625">         <ele>1723</ele>         <time>2026-02-28T11:08:07.000Z</time>         <extensions>           <ns3:TrackPointExtension>             <ns3:hr>115</ns3:hr>           </ns3:TrackPointExtension>         </extensions>       </trkpt>
       <trkpt lat="45.589706115424633026123046875" lon="14.44608832709491252899169921875">         <ele>1723.199951171875</ele>         <time>2026-02-28T11:08:08.000Z</time>         <extensions>           <ns3:TrackPointExtension>             <ns3:hr>115</ns3:hr>           </ns3:TrackPointExtension>         </extensions>       </trkpt>
       <trkpt lat="45.58971089310944080352783203125" lon="14.44612093269824981689453125">         <ele>1723.5999755859375</ele>         <time>2026-02-28T11:08:11.000Z</time>         <extensions>           <ns3:TrackPointExtension>             <ns3:hr>114</ns3:hr>           </ns3:TrackPointExtension>         </extensions>       </trkpt>
       <trkpt lat="45.58970502577722072601318359375" lon="14.44614666514098644256591796875">         <ele>1724.199951171875</ele>         <time>2026-02-28T11:08:17.000Z</time>         <extensions>           <ns3:TrackPointExtension>             <ns3:hr>117</ns3:hr>           </ns3:TrackPointExtension>         </extensions>       </trkpt>
       <trkpt lat="45.5897002480924129486083984375" lon="14.446156807243824005126953125">         <ele>1724.4000244140625</ele>         <time>2026-02-28T11:08:18.000Z</time>         <extensions>           <ns3:TrackPointExtension>             <ns3:hr>119</ns3:hr>           </ns3:TrackPointExtension>         </extensions>       </trkpt>
       <trkpt lat="45.58969714678823947906494140625" lon="14.4461650215089321136474609375">         <ele>1725</ele>         <time>2026-02-28T11:08:21.000Z</time>         <extensions>           <ns3:TrackPointExtension>             <ns3:hr>122</ns3:hr>           </ns3:TrackPointExtension>         </extensions>       </trkpt>
       <trkpt lat="45.58969832025468349456787109375" lon="14.4461623392999172210693359375">         <ele>1725.199951171875</ele>         <time>2026-02-28T11:08:22.000Z</time>         <extensions>           <ns3:TrackPointExtension>             <ns3:hr>125</ns3:hr>           </ns3:TrackPointExtension>         </extensions>       </trkpt>
       <trkpt lat="45.589697062969207763671875" lon="14.44616091437637805938720703125">         <ele>1725.4000244140625</ele>         <time>2026-02-28T11:08:23.000Z</time>         <extensions>           <ns3:TrackPointExtension>             <ns3:hr>127</ns3:hr>           </ns3:TrackPointExtension>         </extensions>       </trkpt>
       <trkpt lat="45.58969714678823947906494140625" lon="14.44615655578672885894775390625">         <ele>1725.4000244140625</ele>         <time>2026-02-28T11:08:26.000Z</time>         <extensions>           <ns3:TrackPointExtension>             <ns3:hr>130</ns3:hr>           </ns3:TrackPointExtension>         </extensions>       </trkpt>
       <trkpt lat="45.58969329111278057098388671875" lon="14.44615756161510944366455078125">         <ele>1725.199951171875</ele>         <time>2026-02-28T11:08:34.000Z</time>         <extensions>           <ns3:TrackPointExtension>             <ns3:hr>130</ns3:hr>           </ns3:TrackPointExtension>         </extensions>       </trkpt>
       <trkpt lat="45.589663200080394744873046875" lon="14.44619528017938137054443359375">         <ele>1725.5999755859375</ele>         <time>2026-02-28T11:08:42.000Z</time>         <extensions>           <ns3:TrackPointExtension>             <ns3:hr>129</ns3:hr>           </ns3:TrackPointExtension>         </extensions>       </trkpt>
       <trkpt lat="45.58965750038623809814453125" lon="14.44619058631360530853271484375">         <ele>1726.4000244140625</ele>         <time>2026-02-28T11:08:46.000Z</time>         <extensions>           <ns3:TrackPointExtension>             <ns3:hr>129</ns3:hr>           </ns3:TrackPointExtension>         </extensions>       </trkpt>
       <trkpt lat="45.5896546505391597747802734375" lon="14.4462042488157749176025390625">         <ele>1726.4000244140625</ele>         <time>2026-02-28T11:08:48.000Z</time>         <extensions>           <ns3:TrackPointExtension>             <ns3:hr>128</ns3:hr>           </ns3:TrackPointExtension>         </extensions>       </trkpt>
       <trkpt lat="45.58963445015251636505126953125" lon="14.4462243653833866119384765625">         <ele>1727</ele>         <time>2026-02-28T11:08:53.000Z</time>         <extensions>           <ns3:TrackPointExtension>             <ns3:hr>130</ns3:hr>           </ns3:TrackPointExtension>         </extensions>       </trkpt>
       <trkpt lat="45.5896321870386600494384765625" lon="14.44622562266886234283447265625">         <ele>1727.5999755859375</ele>         <time>2026-02-28T11:08:56.000Z</time>         <extensions>           <ns3:TrackPointExtension>             <ns3:hr>131</ns3:hr>           </ns3:TrackPointExtension>         </extensions>       </trkpt>
       <trkpt lat="45.5896181054413318634033203125" lon="14.4462384469807147979736328125">         <ele>1728.199951171875</ele>         <time>2026-02-28T11:09:00.000Z</time>         <extensions>           <ns3:TrackPointExtension>             <ns3:hr>130</ns3:hr>           </ns3:TrackPointExtension>         </extensions>       </trkpt>
       <trkpt lat="45.5896140821278095245361328125" lon="14.44624305702745914459228515625">         <ele>1728.5999755859375</ele>         <time>2026-02-28T11:09:03.000Z</time>         <extensions>           <ns3:TrackPointExtension>             <ns3:hr>132</ns3:hr>           </ns3:TrackPointExtension>         </extensions>       </trkpt>
       <trkpt lat="45.58961014263331890106201171875" lon="14.4462444819509983062744140625">         <ele>1728.800048828125</ele>         <time>2026-02-28T11:09:06.000Z</time>         <extensions>           <ns3:TrackPointExtension>             <ns3:hr>135</ns3:hr>           </ns3:TrackPointExtension>         </extensions>       </trkpt>
       <trkpt lat="45.589588768780231475830078125" lon="14.446258060634136199951171875">         <ele>1729.199951171875</ele>         <time>2026-02-28T11:09:12.000Z</time>         <extensions>           <ns3:TrackPointExtension>             <ns3:hr>136</ns3:hr>           </ns3:TrackPointExtension>         </extensions>       </trkpt>
       <trkpt lat="45.58957879431545734405517578125" lon="14.44628044031560420989990234375">         <ele>1729.5999755859375</ele>         <time>2026-02-28T11:09:17.000Z</time>         <extensions>           <ns3:TrackPointExtension>             <ns3:hr>134</ns3:hr>           </ns3:TrackPointExtension>         </extensions>       </trkpt>
       <trkpt lat="45.58957108296453952789306640625" lon="14.446302317082881927490234375">         <ele>1730</ele>         <time>2026-02-28T11:09:20.000Z</time>         <extensions>           <ns3:TrackPointExtension>             <ns3:hr>131</ns3:hr>           </ns3:TrackPointExtension>         </extensions>       </trkpt>
       <trkpt lat="45.5895668081939220428466796875" lon="14.446319751441478729248046875">         <ele>1730.800048828125</ele>         <time>2026-02-28T11:09:24.000Z</time>         <extensions>           <ns3:TrackPointExtension>             <ns3:hr>130</ns3:hr>           </ns3:TrackPointExtension>         </extensions>       </trkpt>
       <trkpt lat="45.58956521563231945037841796875" lon="14.446339197456836700439453125">         <ele>1731.199951171875</ele>         <time>2026-02-28T11:09:27.000Z</time>         <extensions>           <ns3:TrackPointExtension>             <ns3:hr>127</ns3:hr>           </ns3:TrackPointExtension>         </extensions>       </trkpt>
       <trkpt lat="45.5895631201565265655517578125" lon="14.4463504292070865631103515625">         <ele>1731.5999755859375</ele>         <time>2026-02-28T11:09:29.000Z</time>         <extensions>           <ns3:TrackPointExtension>             <ns3:hr>126</ns3:hr>           </ns3:TrackPointExtension>         </extensions>       </trkpt>
       <trkpt lat="45.58954761363565921783447265625" lon="14.4463683664798736572265625">         <ele>1731.800048828125</ele>         <time>2026-02-28T11:09:34.000Z</time>         <extensions>           <ns3:TrackPointExtension>             <ns3:hr>125</ns3:hr>           </ns3:TrackPointExtension>         </extensions>       </trkpt>
       <trkpt lat="45.58953344821929931640625" lon="14.44638286717236042022705078125">         <ele>1732.199951171875</ele>         <time>2026-02-28T11:09:38.000Z</time>         <extensions>           <ns3:TrackPointExtension>             <ns3:hr>122</ns3:hr>           </ns3:TrackPointExtension>         </extensions>       </trkpt>
       <trkpt lat="45.5895285867154598236083984375" lon="14.44638538174331188201904296875">         <ele>1732.4000244140625</ele>         <time>2026-02-28T11:09:40.000Z</time>         <extensions>           <ns3:TrackPointExtension>             <ns3:hr>121</ns3:hr>           </ns3:TrackPointExtension>         </extensions>       </trkpt>
       <trkpt lat="45.58952531777322292327880859375" lon="14.4463906623423099517822265625">         <ele>1732.800048828125</ele>         <time>2026-02-28T11:09:42.000Z</time>         <extensions>           <ns3:TrackPointExtension>             <ns3:hr>120</ns3:hr>           </ns3:TrackPointExtension>         </extensions>       </trkpt>
       <trkpt lat="45.5895088054239749908447265625" lon="14.446400888264179229736328125">         <ele>1733.199951171875</ele>         <time>2026-02-28T11:09:46.000Z</time>         <extensions>           <ns3:TrackPointExtension>             <ns3:hr>119</ns3:hr>           </ns3:TrackPointExtension>         </extensions>       </trkpt>
       <trkpt lat="45.58950050733983516693115234375" lon="14.44640935398638248443603515625">         <ele>1734</ele>         <time>2026-02-28T11:09:51.000Z</time>         <extensions>           <ns3:TrackPointExtension>             <ns3:hr>119</ns3:hr>           </ns3:TrackPointExtension>         </extensions>       </trkpt>
       <trkpt lat="45.58949522674083709716796875" lon="14.4464164786040782928466796875">         <ele>1735</ele>         <time>2026-02-28T11:09:56.000Z</time>         <extensions>           <ns3:TrackPointExtension>             <ns3:hr>119</ns3:hr>           </ns3:TrackPointExtension>         </extensions>       </trkpt>
       <trkpt lat="45.589493550360202789306640625" lon="14.44642695598304271697998046875">         <ele>1734.5999755859375</ele>         <time>2026-02-28T11:10:03.000Z</time>         <extensions>           <ns3:TrackPointExtension>             <ns3:hr>124</ns3:hr>           </ns3:TrackPointExtension>         </extensions>       </trkpt>
       <trkpt lat="45.58949547819793224334716796875" lon="14.44642762653529644012451171875">         <ele>1734.800048828125</ele>         <time>2026-02-28T11:10:05.000Z</time>         <extensions>           <ns3:TrackPointExtension>             <ns3:hr>127</ns3:hr>           </ns3:TrackPointExtension>         </extensions>       </trkpt>
       <trkpt lat="45.58948525227606296539306640625" lon="14.4464315660297870635986328125">         <ele>1735.800048828125</ele>         <time>2026-02-28T11:10:12.000Z</time>         <extensions>           <ns3:TrackPointExtension>             <ns3:hr>126</ns3:hr>           </ns3:TrackPointExtension>         </extensions>       </trkpt>
       <trkpt lat="45.589501596987247467041015625" lon="14.4464379362761974334716796875">         <ele>1735.5999755859375</ele>         <time>2026-02-28T11:10:17.000Z</time>         <extensions>           <ns3:TrackPointExtension>             <ns3:hr>123</ns3:hr>           </ns3:TrackPointExtension>         </extensions>       </trkpt>
       <trkpt lat="45.5895128287374973297119140625" lon="14.4464486651122570037841796875">         <ele>1735.5999755859375</ele>         <time>2026-02-28T11:10:19.000Z</time>         <extensions>           <ns3:TrackPointExtension>             <ns3:hr>122</ns3:hr>           </ns3:TrackPointExtension>         </extensions>       </trkpt>
       <trkpt lat="45.5895165167748928070068359375" lon="14.4464533589780330657958984375">         <ele>1736.199951171875</ele>         <time>2026-02-28T11:10:22.000Z</time>         <extensions>           <ns3:TrackPointExtension>             <ns3:hr>121</ns3:hr>           </ns3:TrackPointExtension>         </extensions>       </trkpt>
       <trkpt lat="45.58951802551746368408203125" lon="14.4464550353586673736572265625">         <ele>1736.4000244140625</ele>         <time>2026-02-28T11:10:23.000Z</time>         <extensions>           <ns3:TrackPointExtension>             <ns3:hr>120</ns3:hr>           </ns3:TrackPointExtension>         </extensions>       </trkpt>
       <trkpt lat="45.58952397666871547698974609375" lon="14.44646182470023632049560546875">         <ele>1736.800048828125</ele>         <time>2026-02-28T11:10:25.000Z</time>         <extensions>           <ns3:TrackPointExtension>             <ns3:hr>117</ns3:hr>           </ns3:TrackPointExtension>         </extensions>       </trkpt>
       <trkpt lat="45.58953302912414073944091796875" lon="14.44647490046918392181396484375">         <ele>1737.4000244140625</ele>         <time>2026-02-28T11:10:28.000Z</time>         <extensions>           <ns3:TrackPointExtension>             <ns3:hr>117</ns3:hr>           </ns3:TrackPointExtension>         </extensions>       </trkpt>
       <trkpt lat="45.58953688479959964752197265625" lon="14.4464801810681819915771484375">         <ele>1737.5999755859375</ele>         <time>2026-02-28T11:10:29.000Z</time>         <extensions>           <ns3:TrackPointExtension>             <ns3:hr>117</ns3:hr>           </ns3:TrackPointExtension>         </extensions>       </trkpt>
       <trkpt lat="45.58955197222530841827392578125" lon="14.4464882276952266693115234375">         <ele>1737.800048828125</ele>         <time>2026-02-28T11:10:34.000Z</time>         <extensions>           <ns3:TrackPointExtension>             <ns3:hr>118</ns3:hr>           </ns3:TrackPointExtension>         </extensions>       </trkpt>
       <trkpt lat="45.58957627974450588226318359375" lon="14.44650474004447460174560546875">         <ele>1738.199951171875</ele>         <time>2026-02-28T11:10:39.000Z</time>         <extensions>           <ns3:TrackPointExtension>             <ns3:hr>117</ns3:hr>           </ns3:TrackPointExtension>         </extensions>       </trkpt>
       <trkpt lat="45.58958734385669231414794921875" lon="14.44651278667151927947998046875">         <ele>1738.4000244140625</ele>         <time>2026-02-28T11:10:41.000Z</time>         <extensions>           <ns3:TrackPointExtension>             <ns3:hr>120</ns3:hr>           </ns3:TrackPointExtension>         </extensions>       </trkpt>
       <trkpt lat="45.589606203138828277587890625" lon="14.446534328162670135498046875">         <ele>1739</ele>         <time>2026-02-28T11:10:44.000Z</time>         <extensions>           <ns3:TrackPointExtension>             <ns3:hr>123</ns3:hr>           </ns3:TrackPointExtension>         </extensions>       </trkpt>
       <trkpt lat="45.58961232192814350128173828125" lon="14.44654296152293682098388671875">         <ele>1739.199951171875</ele>         <time>2026-02-28T11:10:47.000Z</time>         <extensions>           <ns3:TrackPointExtension>             <ns3:hr>126</ns3:hr>           </ns3:TrackPointExtension>         </extensions>       </trkpt>
       <trkpt lat="45.5896137468516826629638671875" lon="14.44655050523579120635986328125">         <ele>1739.4000244140625</ele>         <time>2026-02-28T11:10:50.000Z</time>         <extensions>           <ns3:TrackPointExtension>             <ns3:hr>129</ns3:hr>           </ns3:TrackPointExtension>         </extensions>       </trkpt>
       <trkpt lat="45.58962020091712474822998046875" lon="14.4465536065399646759033203125">         <ele>1739.4000244140625</ele>         <time>2026-02-28T11:10:52.000Z</time>         <extensions>           <ns3:TrackPointExtension>             <ns3:hr>130</ns3:hr>           </ns3:TrackPointExtension>         </extensions>       </trkpt>
       <trkpt lat="45.58963160030543804168701171875" lon="14.44656324572861194610595703125">         <ele>1739.800048828125</ele>         <time>2026-02-28T11:10:54.000Z</time>         <extensions>           <ns3:TrackPointExtension>             <ns3:hr>130</ns3:hr>           </ns3:TrackPointExtension>         </extensions>       </trkpt>
       <trkpt lat="45.5896509625017642974853515625" lon="14.4465821050107479095458984375">         <ele>1740.5999755859375</ele>         <time>2026-02-28T11:10:58.000Z</time>         <extensions>           <ns3:TrackPointExtension>             <ns3:hr>128</ns3:hr>           </ns3:TrackPointExtension>         </extensions>       </trkpt>
       <trkpt lat="45.589645765721797943115234375" lon="14.4465757347643375396728515625">         <ele>1740.800048828125</ele>         <time>2026-02-28T11:10:59.000Z</time>         <extensions>           <ns3:TrackPointExtension>             <ns3:hr>127</ns3:hr>           </ns3:TrackPointExtension>         </extensions>       </trkpt>
       <trkpt lat="45.58964367024600505828857421875" lon="14.4465847872197628021240234375">         <ele>1741.800048828125</ele>         <time>2026-02-28T11:11:04.000Z</time>         <extensions>           <ns3:TrackPointExtension>             <ns3:hr>126</ns3:hr>           </ns3:TrackPointExtension>         </extensions>       </trkpt>
       <trkpt lat="45.5896461009979248046875" lon="14.44658503867685794830322265625">         <ele>1741.800048828125</ele>         <time>2026-02-28T11:11:05.000Z</time>         <extensions>           <ns3:TrackPointExtension>             <ns3:hr>127</ns3:hr>           </ns3:TrackPointExtension>         </extensions>       </trkpt>
       <trkpt lat="45.5896620266139507293701171875" lon="14.446582607924938201904296875">         <ele>1741.199951171875</ele>         <time>2026-02-28T11:11:10.000Z</time>         <extensions>           <ns3:TrackPointExtension>             <ns3:hr>127</ns3:hr>           </ns3:TrackPointExtension>         </extensions>       </trkpt>
       <trkpt lat="45.58967585675418376922607421875" lon="14.44660842418670654296875">         <ele>1742</ele>         <time>2026-02-28T11:11:15.000Z</time>         <extensions>           <ns3:TrackPointExtension>             <ns3:hr>127</ns3:hr>           </ns3:TrackPointExtension>         </extensions>       </trkpt>
       <trkpt lat="45.58968507684767246246337890625" lon="14.4466139562427997589111328125">         <ele>1742.5999755859375</ele>         <time>2026-02-28T11:11:18.000Z</time>         <extensions>           <ns3:TrackPointExtension>             <ns3:hr>128</ns3:hr>           </ns3:TrackPointExtension>         </extensions>       </trkpt>
       <trkpt lat="45.5896898545324802398681640625" lon="14.44661538116633892059326171875">         <ele>1742.800048828125</ele>         <time>2026-02-28T11:11:19.000Z</time>         <extensions>           <ns3:TrackPointExtension>             <ns3:hr>128</ns3:hr>           </ns3:TrackPointExtension>         </extensions>       </trkpt>
       <trkpt lat="45.5896905250847339630126953125" lon="14.4466339051723480224609375">         <ele>1743.199951171875</ele>         <time>2026-02-28T11:11:23.000Z</time>         <extensions>           <ns3:TrackPointExtension>             <ns3:hr>126</ns3:hr>           </ns3:TrackPointExtension>         </extensions>       </trkpt>
       <trkpt lat="45.5897037684917449951171875" lon="14.44664740003645420074462890625">         <ele>1743.5999755859375</ele>         <time>2026-02-28T11:11:27.000Z</time>         <extensions>           <ns3:TrackPointExtension>             <ns3:hr>123</ns3:hr>           </ns3:TrackPointExtension>         </extensions>       </trkpt>
       <trkpt lat="45.58969915844500064849853515625" lon="14.4466461427509784698486328125">         <ele>1744</ele>         <time>2026-02-28T11:11:28.000Z</time>         <extensions>           <ns3:TrackPointExtension>             <ns3:hr>123</ns3:hr>           </ns3:TrackPointExtension>         </extensions>       </trkpt>
       <trkpt lat="45.5897233821451663970947265625" lon="14.44665343500673770904541015625">         <ele>1744.5999755859375</ele>         <time>2026-02-28T11:11:33.000Z</time>         <extensions>           <ns3:TrackPointExtension>             <ns3:hr>122</ns3:hr>           </ns3:TrackPointExtension>         </extensions>       </trkpt>
       <trkpt lat="45.58974190615117549896240234375" lon="14.44667791016399860382080078125">         <ele>1745</ele>         <time>2026-02-28T11:11:37.000Z</time>         <extensions>           <ns3:TrackPointExtension>             <ns3:hr>120</ns3:hr>           </ns3:TrackPointExtension>         </extensions>       </trkpt>
       <trkpt lat="45.589739643037319183349609375" lon="14.44668008945882320404052734375">         <ele>1745.199951171875</ele>         <time>2026-02-28T11:11:38.000Z</time>         <extensions>           <ns3:TrackPointExtension>             <ns3:hr>120</ns3:hr>           </ns3:TrackPointExtension>         </extensions>       </trkpt>
       <trkpt lat="45.589747019112110137939453125" lon="14.44669333286583423614501953125">         <ele>1745.4000244140625</ele>         <time>2026-02-28T11:11:40.000Z</time>         <extensions>           <ns3:TrackPointExtension>             <ns3:hr>116</ns3:hr>           </ns3:TrackPointExtension>         </extensions>       </trkpt>
       <trkpt lat="45.5897565744817256927490234375" lon="14.44670590572059154510498046875">         <ele>1746</ele>         <time>2026-02-28T11:11:43.000Z</time>         <extensions>           <ns3:TrackPointExtension>             <ns3:hr>117</ns3:hr>           </ns3:TrackPointExtension>         </extensions>       </trkpt>
       <trkpt lat="45.58975414372980594635009765625" lon="14.44670406170189380645751953125">         <ele>1746.199951171875</ele>         <time>2026-02-28T11:11:44.000Z</time>         <extensions>           <ns3:TrackPointExtension>             <ns3:hr>116</ns3:hr>           </ns3:TrackPointExtension>         </extensions>       </trkpt>
       <trkpt lat="45.58975464664399623870849609375" lon="14.44671571254730224609375">         <ele>1746.5999755859375</ele>         <time>2026-02-28T11:11:48.000Z</time>         <extensions>           <ns3:TrackPointExtension>             <ns3:hr>115</ns3:hr>           </ns3:TrackPointExtension>         </extensions>       </trkpt>
       <trkpt lat="45.5897562392055988311767578125" lon="14.44672350771725177764892578125">         <ele>1747.199951171875</ele>         <time>2026-02-28T11:11:51.000Z</time>         <extensions>           <ns3:TrackPointExtension>             <ns3:hr>115</ns3:hr>           </ns3:TrackPointExtension>         </extensions>       </trkpt>
       <trkpt lat="45.5897622741758823394775390625" lon="14.44673507474362850189208984375">         <ele>1747.4000244140625</ele>         <time>2026-02-28T11:11:52.000Z</time>         <extensions>           <ns3:TrackPointExtension>             <ns3:hr>117</ns3:hr>           </ns3:TrackPointExtension>         </extensions>       </trkpt>
       <trkpt lat="45.589767135679721832275390625" lon="14.4467467255890369415283203125">         <ele>1748.800048828125</ele>         <time>2026-02-28T11:11:56.000Z</time>         <extensions>           <ns3:TrackPointExtension>             <ns3:hr>118</ns3:hr>           </ns3:TrackPointExtension>         </extensions>       </trkpt>
       <trkpt lat="45.58976789005100727081298828125" lon="14.446751587092876434326171875">         <ele>1749.199951171875</ele>         <time>2026-02-28T11:11:57.000Z</time>         <extensions>           <ns3:TrackPointExtension>             <ns3:hr>118</ns3:hr>           </ns3:TrackPointExtension>         </extensions>       </trkpt>
       <trkpt lat="45.58976789005100727081298828125" lon="14.44675552658736705780029296875">         <ele>1749.800048828125</ele>         <time>2026-02-28T11:11:59.000Z</time>         <extensions>           <ns3:TrackPointExtension>             <ns3:hr>117</ns3:hr>           </ns3:TrackPointExtension>         </extensions>       </trkpt>
       <trkpt lat="45.589772500097751617431640625" lon="14.44678050465881824493408203125">         <ele>1749.800048828125</ele>         <time>2026-02-28T11:12:01.000Z</time>         <extensions>           <ns3:TrackPointExtension>             <ns3:hr>116</ns3:hr>           </ns3:TrackPointExtension>         </extensions>       </trkpt>
       <trkpt lat="45.5897817201912403106689453125" lon="14.44680615328252315521240234375">         <ele>1750.4000244140625</ele>         <time>2026-02-28T11:12:07.000Z</time>         <extensions>           <ns3:TrackPointExtension>             <ns3:hr>115</ns3:hr>           </ns3:TrackPointExtension>         </extensions>       </trkpt>
       <trkpt lat="45.58978213928639888763427734375" lon="14.44683331064879894256591796875">         <ele>1750.800048828125</ele>         <time>2026-02-28T11:12:11.000Z</time>         <extensions>           <ns3:TrackPointExtension>             <ns3:hr>116</ns3:hr>           </ns3:TrackPointExtension>         </extensions>       </trkpt>
       <trkpt lat="45.589783228933811187744140625" lon="14.44682744331657886505126953125">         <ele>1751</ele>         <time>2026-02-28T11:12:12.000Z</time>         <extensions>           <ns3:TrackPointExtension>             <ns3:hr>116</ns3:hr>           </ns3:TrackPointExtension>         </extensions>       </trkpt>
       <trkpt lat="45.58977895416319370269775390625" lon="14.44684244692325592041015625">         <ele>1751.5999755859375</ele>         <time>2026-02-28T11:12:14.000Z</time>         <extensions>           <ns3:TrackPointExtension>             <ns3:hr>117</ns3:hr>           </ns3:TrackPointExtension>         </extensions>       </trkpt>
       <trkpt lat="45.589770488440990447998046875" lon="14.446860887110233306884765625">         <ele>1752</ele>         <time>2026-02-28T11:12:17.000Z</time>         <extensions>           <ns3:TrackPointExtension>             <ns3:hr>117</ns3:hr>           </ns3:TrackPointExtension>         </extensions>       </trkpt>
       <trkpt lat="45.58977015316486358642578125" lon="14.44686784408986568450927734375">         <ele>1752.4000244140625</ele>         <time>2026-02-28T11:12:22.000Z</time>         <extensions>           <ns3:TrackPointExtension>             <ns3:hr>118</ns3:hr>           </ns3:TrackPointExtension>         </extensions>       </trkpt>
       <trkpt lat="45.589772500097751617431640625" lon="14.446871280670166015625">         <ele>1752.199951171875</ele>         <time>2026-02-28T11:12:32.000Z</time>         <extensions>           <ns3:TrackPointExtension>             <ns3:hr>119</ns3:hr>           </ns3:TrackPointExtension>         </extensions>       </trkpt>
       <trkpt lat="45.5897632800042629241943359375" lon="14.4468791596591472625732421875">         <ele>1752.4000244140625</ele>         <time>2026-02-28T11:12:40.000Z</time>         <extensions>           <ns3:TrackPointExtension>             <ns3:hr>118</ns3:hr>           </ns3:TrackPointExtension>         </extensions>       </trkpt>
       <trkpt lat="45.5897515453398227691650390625" lon="14.4468949176371097564697265625">         <ele>1753.199951171875</ele>         <time>2026-02-28T11:12:44.000Z</time>         <extensions>           <ns3:TrackPointExtension>             <ns3:hr>117</ns3:hr>           </ns3:TrackPointExtension>         </extensions>       </trkpt>
       <trkpt lat="45.589745678007602691650390625" lon="14.446907825767993927001953125">         <ele>1753.5999755859375</ele>         <time>2026-02-28T11:12:46.000Z</time>         <extensions>           <ns3:TrackPointExtension>             <ns3:hr>117</ns3:hr>           </ns3:TrackPointExtension>         </extensions>       </trkpt>
       <trkpt lat="45.589737631380558013916015625" lon="14.4469344802200794219970703125">         <ele>1754.199951171875</ele>         <time>2026-02-28T11:12:49.000Z</time>         <extensions>           <ns3:TrackPointExtension>             <ns3:hr>115</ns3:hr>           </ns3:TrackPointExtension>         </extensions>       </trkpt>
       <trkpt lat="45.58973453007638454437255859375" lon="14.4469391740858554840087890625">         <ele>1754.4000244140625</ele>         <time>2026-02-28T11:12:50.000Z</time>         <extensions>           <ns3:TrackPointExtension>             <ns3:hr>115</ns3:hr>           </ns3:TrackPointExtension>         </extensions>       </trkpt>
       <trkpt lat="45.5897252261638641357421875" lon="14.44695350714027881622314453125">         <ele>1755.199951171875</ele>         <time>2026-02-28T11:12:54.000Z</time>         <extensions>           <ns3:TrackPointExtension>             <ns3:hr>115</ns3:hr>           </ns3:TrackPointExtension>         </extensions>       </trkpt>
       <trkpt lat="45.58972455561161041259765625" lon="14.446957111358642578125">         <ele>1755.4000244140625</ele>         <time>2026-02-28T11:12:56.000Z</time>         <extensions>           <ns3:TrackPointExtension>             <ns3:hr>115</ns3:hr>           </ns3:TrackPointExtension>         </extensions>       </trkpt>
       <trkpt lat="45.5897183530032634735107421875" lon="14.44700329564511775970458984375">         <ele>1756</ele>         <time>2026-02-28T11:13:02.000Z</time>         <extensions>           <ns3:TrackPointExtension>             <ns3:hr>115</ns3:hr>           </ns3:TrackPointExtension>         </extensions>       </trkpt>
       <trkpt lat="45.5897153355181217193603515625" lon="14.44701603613793849945068359375">         <ele>1756.199951171875</ele>         <time>2026-02-28T11:13:03.000Z</time>         <extensions>           <ns3:TrackPointExtension>             <ns3:hr>115</ns3:hr>           </ns3:TrackPointExtension>         </extensions>       </trkpt>
       <trkpt lat="45.5897103063762187957763671875" lon="14.44701720960438251495361328125">         <ele>1757.5999755859375</ele>         <time>2026-02-28T11:13:07.000Z</time>         <extensions>           <ns3:TrackPointExtension>             <ns3:hr>118</ns3:hr>           </ns3:TrackPointExtension>         </extensions>       </trkpt>
       <trkpt lat="45.58969060890376567840576171875" lon="14.4470330514013767242431640625">         <ele>1758.5999755859375</ele>         <time>2026-02-28T11:13:12.000Z</time>         <extensions>           <ns3:TrackPointExtension>             <ns3:hr>118</ns3:hr>           </ns3:TrackPointExtension>         </extensions>       </trkpt>
       <trkpt lat="45.5896717496216297149658203125" lon="14.44705308414995670318603515625">         <ele>1759.4000244140625</ele>         <time>2026-02-28T11:13:18.000Z</time>         <extensions>           <ns3:TrackPointExtension>             <ns3:hr>117</ns3:hr>           </ns3:TrackPointExtension>         </extensions>       </trkpt>
       <trkpt lat="45.5896610207855701446533203125" lon="14.44707579910755157470703125">         <ele>1759.4000244140625</ele>         <time>2026-02-28T11:13:23.000Z</time>         <extensions>           <ns3:TrackPointExtension>             <ns3:hr>117</ns3:hr>           </ns3:TrackPointExtension>         </extensions>       </trkpt>
       <trkpt lat="45.58965607546269893646240234375" lon="14.4470883719623088836669921875">         <ele>1759.5999755859375</ele>         <time>2026-02-28T11:13:26.000Z</time>         <extensions>           <ns3:TrackPointExtension>             <ns3:hr>117</ns3:hr>           </ns3:TrackPointExtension>         </extensions>       </trkpt>
       <trkpt lat="45.58965272270143032073974609375" lon="14.44709398783743381500244140625">         <ele>1760</ele>         <time>2026-02-28T11:13:28.000Z</time>         <extensions>           <ns3:TrackPointExtension>             <ns3:hr>116</ns3:hr>           </ns3:TrackPointExtension>         </extensions>       </trkpt>
       <trkpt lat="45.589642412960529327392578125" lon="14.44711427204310894012451171875">         <ele>1760.5999755859375</ele>         <time>2026-02-28T11:13:33.000Z</time>         <extensions>           <ns3:TrackPointExtension>             <ns3:hr>115</ns3:hr>           </ns3:TrackPointExtension>         </extensions>       </trkpt>
       <trkpt lat="45.5896318517625331878662109375" lon="14.447128772735595703125">         <ele>1760.4000244140625</ele>         <time>2026-02-28T11:13:38.000Z</time>         <extensions>           <ns3:TrackPointExtension>             <ns3:hr>116</ns3:hr>           </ns3:TrackPointExtension>         </extensions>       </trkpt>
       <trkpt lat="45.58962690643966197967529296875" lon="14.44713841192424297332763671875">         <ele>1760.5999755859375</ele>         <time>2026-02-28T11:13:40.000Z</time>         <extensions>           <ns3:TrackPointExtension>             <ns3:hr>116</ns3:hr>           </ns3:TrackPointExtension>         </extensions>       </trkpt>
       <trkpt lat="45.589616931974887847900390625" lon="14.4471658207476139068603515625">         <ele>1761</ele>         <time>2026-02-28T11:13:43.000Z</time>         <extensions>           <ns3:TrackPointExtension>             <ns3:hr>114</ns3:hr>           </ns3:TrackPointExtension>         </extensions>       </trkpt>
       <trkpt lat="45.5896070413291454315185546875" lon="14.44718199782073497772216796875">         <ele>1761.4000244140625</ele>         <time>2026-02-28T11:13:47.000Z</time>         <extensions>           <ns3:TrackPointExtension>             <ns3:hr>111</ns3:hr>           </ns3:TrackPointExtension>         </extensions>       </trkpt>
       <trkpt lat="45.58960251510143280029296875" lon="14.44718887098133563995361328125">         <ele>1761.800048828125</ele>         <time>2026-02-28T11:13:49.000Z</time>         <extensions>           <ns3:TrackPointExtension>             <ns3:hr>110</ns3:hr>           </ns3:TrackPointExtension>         </extensions>       </trkpt>
       <trkpt lat="45.58959220536053180694580078125" lon="14.44721301086246967315673828125">         <ele>1762.800048828125</ele>         <time>2026-02-28T11:13:54.000Z</time>         <extensions>           <ns3:TrackPointExtension>             <ns3:hr>110</ns3:hr>           </ns3:TrackPointExtension>         </extensions>       </trkpt>
       <trkpt lat="45.58958910405635833740234375" lon="14.44721854291856288909912109375">         <ele>1763</ele>         <time>2026-02-28T11:13:55.000Z</time>         <extensions>           <ns3:TrackPointExtension>             <ns3:hr>110</ns3:hr>           </ns3:TrackPointExtension>         </extensions>       </trkpt>
       <trkpt lat="45.58958449400961399078369140625" lon="14.4472291879355907440185546875">         <ele>1763.4000244140625</ele>         <time>2026-02-28T11:14:00.000Z</time>         <extensions>           <ns3:TrackPointExtension>             <ns3:hr>107</ns3:hr>           </ns3:TrackPointExtension>         </extensions>       </trkpt>
       <trkpt lat="45.5895839072763919830322265625" lon="14.4472368992865085601806640625">         <ele>1763.4000244140625</ele>         <time>2026-02-28T11:14:01.000Z</time>         <extensions>           <ns3:TrackPointExtension>             <ns3:hr>106</ns3:hr>           </ns3:TrackPointExtension>         </extensions>       </trkpt>
       <trkpt lat="45.58958499692380428314208984375" lon="14.4472409226000308990478515625">         <ele>1763.800048828125</ele>         <time>2026-02-28T11:14:03.000Z</time>         <extensions>           <ns3:TrackPointExtension>             <ns3:hr>106</ns3:hr>           </ns3:TrackPointExtension>         </extensions>       </trkpt>
       <trkpt lat="45.589579045772552490234375" lon="14.4472803175449371337890625">         <ele>1764.800048828125</ele>         <time>2026-02-28T11:14:08.000Z</time>         <extensions>           <ns3:TrackPointExtension>             <ns3:hr>111</ns3:hr>           </ns3:TrackPointExtension>         </extensions>       </trkpt>
       <trkpt lat="45.58957393281161785125732421875" lon="14.44729230366647243499755859375">         <ele>1764.199951171875</ele>         <time>2026-02-28T11:14:12.000Z</time>         <extensions>           <ns3:TrackPointExtension>             <ns3:hr>114</ns3:hr>           </ns3:TrackPointExtension>         </extensions>       </trkpt>
       <trkpt lat="45.58956102468073368072509765625" lon="14.44731376133859157562255859375">         <ele>1764.4000244140625</ele>         <time>2026-02-28T11:14:15.000Z</time>         <extensions>           <ns3:TrackPointExtension>             <ns3:hr>114</ns3:hr>           </ns3:TrackPointExtension>         </extensions>       </trkpt>
       <trkpt lat="45.58955281041562557220458984375" lon="14.447318874299526214599609375">         <ele>1765.4000244140625</ele>         <time>2026-02-28T11:14:21.000Z</time>         <extensions>           <ns3:TrackPointExtension>             <ns3:hr>112</ns3:hr>           </ns3:TrackPointExtension>         </extensions>       </trkpt>
       <trkpt lat="45.589550547301769256591796875" lon="14.4473287649452686309814453125">         <ele>1765.4000244140625</ele>         <time>2026-02-28T11:14:31.000Z</time>         <extensions>           <ns3:TrackPointExtension>             <ns3:hr>108</ns3:hr>           </ns3:TrackPointExtension>         </extensions>       </trkpt>
       <trkpt lat="45.5895487032830715179443359375" lon="14.4473327882587909698486328125">         <ele>1765.4000244140625</ele>         <time>2026-02-28T11:14:33.000Z</time>         <extensions>           <ns3:TrackPointExtension>             <ns3:hr>109</ns3:hr>           </ns3:TrackPointExtension>         </extensions>       </trkpt>
       <trkpt lat="45.5895403213798999786376953125" lon="14.44735206663608551025390625">         <ele>1765.5999755859375</ele>         <time>2026-02-28T11:14:36.000Z</time>         <extensions>           <ns3:TrackPointExtension>             <ns3:hr>112</ns3:hr>           </ns3:TrackPointExtension>         </extensions>       </trkpt>
       <trkpt lat="45.5895349569618701934814453125" lon="14.44735466502606868743896484375">         <ele>1765.800048828125</ele>         <time>2026-02-28T11:14:37.000Z</time>         <extensions>           <ns3:TrackPointExtension>             <ns3:hr>112</ns3:hr>           </ns3:TrackPointExtension>         </extensions>       </trkpt>
       <trkpt lat="45.58952112682163715362548828125" lon="14.44735868833959102630615234375">         <ele>1766.4000244140625</ele>         <time>2026-02-28T11:14:39.000Z</time>         <extensions>           <ns3:TrackPointExtension>             <ns3:hr>113</ns3:hr>           </ns3:TrackPointExtension>         </extensions>       </trkpt>
       <trkpt lat="45.58951199054718017578125" lon="14.44736137054860591888427734375">         <ele>1766.800048828125</ele>         <time>2026-02-28T11:14:41.000Z</time>         <extensions>           <ns3:TrackPointExtension>             <ns3:hr>113</ns3:hr>           </ns3:TrackPointExtension>         </extensions>       </trkpt>
       <trkpt lat="45.58950453065335750579833984375" lon="14.4473649747669696807861328125">         <ele>1767.199951171875</ele>         <time>2026-02-28T11:14:45.000Z</time>         <extensions>           <ns3:TrackPointExtension>             <ns3:hr>110</ns3:hr>           </ns3:TrackPointExtension>         </extensions>       </trkpt>
       <trkpt lat="45.5894907005131244659423828125" lon="14.44736120291054248809814453125">         <ele>1767.199951171875</ele>         <time>2026-02-28T11:14:48.000Z</time>         <extensions>           <ns3:TrackPointExtension>             <ns3:hr>107</ns3:hr>           </ns3:TrackPointExtension>         </extensions>       </trkpt>
       <trkpt lat="45.58948257006704807281494140625" lon="14.44736547768115997314453125">         <ele>1768.199951171875</ele>         <time>2026-02-28T11:14:51.000Z</time>         <extensions>           <ns3:TrackPointExtension>             <ns3:hr>105</ns3:hr>           </ns3:TrackPointExtension>         </extensions>       </trkpt>
       <trkpt lat="45.58948022313416004180908203125" lon="14.4473656453192234039306640625">         <ele>1768.4000244140625</ele>         <time>2026-02-28T11:14:52.000Z</time>         <extensions>           <ns3:TrackPointExtension>             <ns3:hr>105</ns3:hr>           </ns3:TrackPointExtension>         </extensions>       </trkpt>
       <trkpt lat="45.58947150595486164093017578125" lon="14.4473716802895069122314453125">         <ele>1769</ele>         <time>2026-02-28T11:14:54.000Z</time>         <extensions>           <ns3:TrackPointExtension>             <ns3:hr>102</ns3:hr>           </ns3:TrackPointExtension>         </extensions>       </trkpt>
       <trkpt lat="45.58947016485035419464111328125" lon="14.44737293757498264312744140625">         <ele>1769.199951171875</ele>         <time>2026-02-28T11:14:55.000Z</time>         <extensions>           <ns3:TrackPointExtension>             <ns3:hr>101</ns3:hr>           </ns3:TrackPointExtension>         </extensions>       </trkpt>
       <trkpt lat="45.58946035802364349365234375" lon="14.44737746380269527435302734375">         <ele>1769.199951171875</ele>         <time>2026-02-28T11:14:57.000Z</time>         <extensions>           <ns3:TrackPointExtension>             <ns3:hr>103</ns3:hr>           </ns3:TrackPointExtension>         </extensions>       </trkpt>
       <trkpt lat="45.58943479321897029876708984375" lon="14.44737411104142665863037109375">         <ele>1769.4000244140625</ele>         <time>2026-02-28T11:15:03.000Z</time>         <extensions>           <ns3:TrackPointExtension>             <ns3:hr>106</ns3:hr>           </ns3:TrackPointExtension>         </extensions>       </trkpt>
       <trkpt lat="45.5894263274967670440673828125" lon="14.44737612269818782806396484375">         <ele>1769.4000244140625</ele>         <time>2026-02-28T11:15:04.000Z</time>         <extensions>           <ns3:TrackPointExtension>             <ns3:hr>108</ns3:hr>           </ns3:TrackPointExtension>         </extensions>       </trkpt>
       <trkpt lat="45.58942289091646671295166015625" lon="14.44737830199301242828369140625">         <ele>1769.5999755859375</ele>         <time>2026-02-28T11:15:05.000Z</time>         <extensions>           <ns3:TrackPointExtension>             <ns3:hr>111</ns3:hr>           </ns3:TrackPointExtension>         </extensions>       </trkpt>
       <trkpt lat="45.58941886760294437408447265625" lon="14.44738064892590045928955078125">         <ele>1769.5999755859375</ele>         <time>2026-02-28T11:15:06.000Z</time>         <extensions>           <ns3:TrackPointExtension>             <ns3:hr>114</ns3:hr>           </ns3:TrackPointExtension>         </extensions>       </trkpt>
       <trkpt lat="45.58941568247973918914794921875" lon="14.4473837502300739288330078125">         <ele>1769.5999755859375</ele>         <time>2026-02-28T11:15:07.000Z</time>         <extensions>           <ns3:TrackPointExtension>             <ns3:hr>117</ns3:hr>           </ns3:TrackPointExtension>         </extensions>       </trkpt>
       <trkpt lat="45.5894186161458492279052734375" lon="14.447381906211376190185546875">         <ele>1769.800048828125</ele>         <time>2026-02-28T11:15:08.000Z</time>         <extensions>           <ns3:TrackPointExtension>             <ns3:hr>117</ns3:hr>           </ns3:TrackPointExtension>         </extensions>       </trkpt>
       <trkpt lat="45.58940537273883819580078125" lon="14.44738400168716907501220703125">         <ele>1770</ele>         <time>2026-02-28T11:15:10.000Z</time>         <extensions>           <ns3:TrackPointExtension>             <ns3:hr>119</ns3:hr>           </ns3:TrackPointExtension>         </extensions>       </trkpt>
       <trkpt lat="45.5894015170633792877197265625" lon="14.44738483987748622894287109375">         <ele>1770.199951171875</ele>         <time>2026-02-28T11:15:11.000Z</time>         <extensions>           <ns3:TrackPointExtension>             <ns3:hr>120</ns3:hr>           </ns3:TrackPointExtension>         </extensions>       </trkpt>
       <trkpt lat="45.58938165195286273956298828125" lon="14.447375871241092681884765625">         <ele>1771</ele>         <time>2026-02-28T11:15:18.000Z</time>         <extensions>           <ns3:TrackPointExtension>             <ns3:hr>120</ns3:hr>           </ns3:TrackPointExtension>         </extensions>       </trkpt>
       <trkpt lat="45.5893575958907604217529296875" lon="14.44738551042973995208740234375">         <ele>1771.199951171875</ele>         <time>2026-02-28T11:15:25.000Z</time>         <extensions>           <ns3:TrackPointExtension>             <ns3:hr>119</ns3:hr>           </ns3:TrackPointExtension>         </extensions>       </trkpt>
       <trkpt lat="45.58935952372848987579345703125" lon="14.44738467223942279815673828125">         <ele>1771.199951171875</ele>         <time>2026-02-28T11:15:26.000Z</time>         <extensions>           <ns3:TrackPointExtension>             <ns3:hr>119</ns3:hr>           </ns3:TrackPointExtension>         </extensions>       </trkpt>
       <trkpt lat="45.58935449458658695220947265625" lon="14.44739037193357944488525390625">         <ele>1771.800048828125</ele>         <time>2026-02-28T11:15:29.000Z</time>         <extensions>           <ns3:TrackPointExtension>             <ns3:hr>116</ns3:hr>           </ns3:TrackPointExtension>         </extensions>       </trkpt>
       <trkpt lat="45.58935441076755523681640625" lon="14.4473824091255664825439453125">         <ele>1771.800048828125</ele>         <time>2026-02-28T11:15:31.000Z</time>         <extensions>           <ns3:TrackPointExtension>             <ns3:hr>114</ns3:hr>           </ns3:TrackPointExtension>         </extensions>       </trkpt>
       <trkpt lat="45.58933052234351634979248046875" lon="14.447387270629405975341796875">         <ele>1772.4000244140625</ele>         <time>2026-02-28T11:15:35.000Z</time>         <extensions>           <ns3:TrackPointExtension>             <ns3:hr>113</ns3:hr>           </ns3:TrackPointExtension>         </extensions>       </trkpt>
       <trkpt lat="45.5893140099942684173583984375" lon="14.44738651625812053680419921875">         <ele>1773</ele>         <time>2026-02-28T11:15:38.000Z</time>         <extensions>           <ns3:TrackPointExtension>             <ns3:hr>117</ns3:hr>           </ns3:TrackPointExtension>         </extensions>       </trkpt>
       <trkpt lat="45.589313842356204986572265625" lon="14.44738559424877166748046875">         <ele>1773</ele>         <time>2026-02-28T11:15:39.000Z</time>         <extensions>           <ns3:TrackPointExtension>             <ns3:hr>121</ns3:hr>           </ns3:TrackPointExtension>         </extensions>       </trkpt>
       <trkpt lat="45.5893140099942684173583984375" lon="14.4473857618868350982666015625">         <ele>1773.199951171875</ele>         <time>2026-02-28T11:15:40.000Z</time>         <extensions>           <ns3:TrackPointExtension>             <ns3:hr>127</ns3:hr>           </ns3:TrackPointExtension>         </extensions>       </trkpt>
       <trkpt lat="45.5893106572329998016357421875" lon="14.44738802500069141387939453125">         <ele>1773.199951171875</ele>         <time>2026-02-28T11:15:41.000Z</time>         <extensions>           <ns3:TrackPointExtension>             <ns3:hr>130</ns3:hr>           </ns3:TrackPointExtension>         </extensions>       </trkpt>
       <trkpt lat="45.58931124396622180938720703125" lon="14.4473871029913425445556640625">         <ele>1773.4000244140625</ele>         <time>2026-02-28T11:15:42.000Z</time>         <extensions>           <ns3:TrackPointExtension>             <ns3:hr>130</ns3:hr>           </ns3:TrackPointExtension>         </extensions>       </trkpt>
       <trkpt lat="45.58930168859660625457763671875" lon="14.44739053957164287567138671875">         <ele>1773.5999755859375</ele>         <time>2026-02-28T11:15:43.000Z</time>         <extensions>           <ns3:TrackPointExtension>             <ns3:hr>130</ns3:hr>           </ns3:TrackPointExtension>         </extensions>       </trkpt>
       <trkpt lat="45.5892987549304962158203125" lon="14.44739020429551601409912109375">         <ele>1773.800048828125</ele>         <time>2026-02-28T11:15:44.000Z</time>         <extensions>           <ns3:TrackPointExtension>             <ns3:hr>130</ns3:hr>           </ns3:TrackPointExtension>         </extensions>       </trkpt>
       <trkpt lat="45.5892865173518657684326171875" lon="14.44738836027681827545166015625">         <ele>1774.800048828125</ele>         <time>2026-02-28T11:15:49.000Z</time>         <extensions>           <ns3:TrackPointExtension>             <ns3:hr>129</ns3:hr>           </ns3:TrackPointExtension>         </extensions>       </trkpt>
       <trkpt lat="45.58928509242832660675048828125" lon="14.44739405997097492218017578125">         <ele>1775.199951171875</ele>         <time>2026-02-28T11:15:53.000Z</time>         <extensions>           <ns3:TrackPointExtension>             <ns3:hr>126</ns3:hr>           </ns3:TrackPointExtension>         </extensions>       </trkpt>
       <trkpt lat="45.5892853438854217529296875" lon="14.4473941437900066375732421875">         <ele>1774.5999755859375</ele>         <time>2026-02-28T11:16:00.000Z</time>         <extensions>           <ns3:TrackPointExtension>             <ns3:hr>131</ns3:hr>           </ns3:TrackPointExtension>         </extensions>       </trkpt>
       <trkpt lat="45.58924368582665920257568359375" lon="14.4473887793719768524169921875">         <ele>1776</ele>         <time>2026-02-28T11:16:07.000Z</time>         <extensions>           <ns3:TrackPointExtension>             <ns3:hr>131</ns3:hr>           </ns3:TrackPointExtension>         </extensions>       </trkpt>
       <trkpt lat="45.58924309909343719482421875" lon="14.44738735444843769073486328125">         <ele>1777</ele>         <time>2026-02-28T11:16:11.000Z</time>         <extensions>           <ns3:TrackPointExtension>             <ns3:hr>130</ns3:hr>           </ns3:TrackPointExtension>         </extensions>       </trkpt>
       <trkpt lat="45.58923195116221904754638671875" lon="14.44738802500069141387939453125">         <ele>1777.199951171875</ele>         <time>2026-02-28T11:16:13.000Z</time>         <extensions>           <ns3:TrackPointExtension>             <ns3:hr>129</ns3:hr>           </ns3:TrackPointExtension>         </extensions>       </trkpt>
       <trkpt lat="45.58921300806105136871337890625" lon="14.4473881088197231292724609375">         <ele>1777.4000244140625</ele>         <time>2026-02-28T11:16:18.000Z</time>         <extensions>           <ns3:TrackPointExtension>             <ns3:hr>126</ns3:hr>           </ns3:TrackPointExtension>         </extensions>       </trkpt>
       <trkpt lat="45.58920596726238727569580078125" lon="14.4473881088197231292724609375">         <ele>1777.4000244140625</ele>         <time>2026-02-28T11:16:19.000Z</time>         <extensions>           <ns3:TrackPointExtension>             <ns3:hr>124</ns3:hr>           </ns3:TrackPointExtension>         </extensions>       </trkpt>
       <trkpt lat="45.58920077048242092132568359375" lon="14.447386264801025390625">         <ele>1777.4000244140625</ele>         <time>2026-02-28T11:16:20.000Z</time>         <extensions>           <ns3:TrackPointExtension>             <ns3:hr>121</ns3:hr>           </ns3:TrackPointExtension>         </extensions>       </trkpt>
       <trkpt lat="45.58919255621731281280517578125" lon="14.44738433696329593658447265625">         <ele>1777.5999755859375</ele>         <time>2026-02-28T11:16:21.000Z</time>         <extensions>           <ns3:TrackPointExtension>             <ns3:hr>117</ns3:hr>           </ns3:TrackPointExtension>         </extensions>       </trkpt>
       <trkpt lat="45.58918836526572704315185546875" lon="14.44738131947815418243408203125">         <ele>1777.800048828125</ele>         <time>2026-02-28T11:16:22.000Z</time>         <extensions>           <ns3:TrackPointExtension>             <ns3:hr>114</ns3:hr>           </ns3:TrackPointExtension>         </extensions>       </trkpt>
       <trkpt lat="45.58918048627674579620361328125" lon="14.447381906211376190185546875">         <ele>1778.199951171875</ele>         <time>2026-02-28T11:16:24.000Z</time>         <extensions>           <ns3:TrackPointExtension>             <ns3:hr>112</ns3:hr>           </ns3:TrackPointExtension>         </extensions>       </trkpt>
       <trkpt lat="45.58916640467941761016845703125" lon="14.44738081656396389007568359375">         <ele>1778.800048828125</ele>         <time>2026-02-28T11:16:30.000Z</time>         <extensions>           <ns3:TrackPointExtension>             <ns3:hr>113</ns3:hr>           </ns3:TrackPointExtension>         </extensions>       </trkpt>
       <trkpt lat="45.5891607888042926788330078125" lon="14.44739456288516521453857421875">         <ele>1778.5999755859375</ele>         <time>2026-02-28T11:16:36.000Z</time>         <extensions>           <ns3:TrackPointExtension>             <ns3:hr>113</ns3:hr>           </ns3:TrackPointExtension>         </extensions>       </trkpt>
       <trkpt lat="45.5891473777592182159423828125" lon="14.44737461395561695098876953125">         <ele>1778.800048828125</ele>         <time>2026-02-28T11:16:43.000Z</time>         <extensions>           <ns3:TrackPointExtension>             <ns3:hr>111</ns3:hr>           </ns3:TrackPointExtension>         </extensions>       </trkpt>
       <trkpt lat="45.5891366489231586456298828125" lon="14.44736589677631855010986328125">         <ele>1779.5999755859375</ele>         <time>2026-02-28T11:16:46.000Z</time>         <extensions>           <ns3:TrackPointExtension>             <ns3:hr>112</ns3:hr>           </ns3:TrackPointExtension>         </extensions>       </trkpt>
       <trkpt lat="45.58910102583467960357666015625" lon="14.44733597338199615478515625">         <ele>1780.4000244140625</ele>         <time>2026-02-28T11:16:53.000Z</time>         <extensions>           <ns3:TrackPointExtension>             <ns3:hr>113</ns3:hr>           </ns3:TrackPointExtension>         </extensions>       </trkpt>
       <trkpt lat="45.58909482322633266448974609375" lon="14.4473301060497760772705078125">         <ele>1780.800048828125</ele>         <time>2026-02-28T11:16:55.000Z</time>         <extensions>           <ns3:TrackPointExtension>             <ns3:hr>112</ns3:hr>           </ns3:TrackPointExtension>         </extensions>       </trkpt>
       <trkpt lat="45.58908476494252681732177734375" lon="14.4473223946988582611083984375">         <ele>1781</ele>         <time>2026-02-28T11:16:57.000Z</time>         <extensions>           <ns3:TrackPointExtension>             <ns3:hr>108</ns3:hr>           </ns3:TrackPointExtension>         </extensions>       </trkpt>
       <trkpt lat="45.589079819619655609130859375" lon="14.4473193772137165069580078125">         <ele>1781.199951171875</ele>         <time>2026-02-28T11:16:58.000Z</time>         <extensions>           <ns3:TrackPointExtension>             <ns3:hr>105</ns3:hr>           </ns3:TrackPointExtension>         </extensions>       </trkpt>
       <trkpt lat="45.5890788137912750244140625" lon="14.44732080213725566864013671875">         <ele>1781.199951171875</ele>         <time>2026-02-28T11:16:59.000Z</time>         <extensions>           <ns3:TrackPointExtension>             <ns3:hr>100</ns3:hr>           </ns3:TrackPointExtension>         </extensions>       </trkpt>
       <trkpt lat="45.589074455201625823974609375" lon="14.44731862284243106842041015625">         <ele>1781.199951171875</ele>         <time>2026-02-28T11:17:00.000Z</time>         <extensions>           <ns3:TrackPointExtension>             <ns3:hr>95</ns3:hr>           </ns3:TrackPointExtension>         </extensions>       </trkpt>
       <trkpt lat="45.58906598947942256927490234375" lon="14.4473190419375896453857421875">         <ele>1781.199951171875</ele>         <time>2026-02-28T11:17:02.000Z</time>         <extensions>           <ns3:TrackPointExtension>             <ns3:hr>92</ns3:hr>           </ns3:TrackPointExtension>         </extensions>       </trkpt>
       <trkpt lat="45.58901754207909107208251953125" lon="14.44730646908283233642578125">         <ele>1781.5999755859375</ele>         <time>2026-02-28T11:17:09.000Z</time>         <extensions>           <ns3:TrackPointExtension>             <ns3:hr>90</ns3:hr>           </ns3:TrackPointExtension>         </extensions>       </trkpt>
       <trkpt lat="45.58900932781398296356201171875" lon="14.447302781045436859130859375">         <ele>1781.800048828125</ele>         <time>2026-02-28T11:17:11.000Z</time>         <extensions>           <ns3:TrackPointExtension>             <ns3:hr>94</ns3:hr>           </ns3:TrackPointExtension>         </extensions>       </trkpt>
       <trkpt lat="45.58899767696857452392578125" lon="14.44729498587548732757568359375">         <ele>1782</ele>         <time>2026-02-28T11:17:14.000Z</time>         <extensions>           <ns3:TrackPointExtension>             <ns3:hr>96</ns3:hr>           </ns3:TrackPointExtension>         </extensions>       </trkpt>
       <trkpt lat="45.58896557427942752838134765625" lon="14.44729113020002841949462890625">         <ele>1782.4000244140625</ele>         <time>2026-02-28T11:17:20.000Z</time>         <extensions>           <ns3:TrackPointExtension>             <ns3:hr>96</ns3:hr>           </ns3:TrackPointExtension>         </extensions>       </trkpt>
       <trkpt lat="45.5889582820236682891845703125" lon="14.44729129783809185028076171875">         <ele>1783.199951171875</ele>         <time>2026-02-28T11:17:22.000Z</time>         <extensions>           <ns3:TrackPointExtension>             <ns3:hr>99</ns3:hr>           </ns3:TrackPointExtension>         </extensions>       </trkpt>
       <trkpt lat="45.588941685855388641357421875" lon="14.4472829997539520263671875">         <ele>1784.199951171875</ele>         <time>2026-02-28T11:17:26.000Z</time>         <extensions>           <ns3:TrackPointExtension>             <ns3:hr>96</ns3:hr>           </ns3:TrackPointExtension>         </extensions>       </trkpt>
       <trkpt lat="45.588907487690448760986328125" lon="14.44727956317365169525146484375">         <ele>1783.800048828125</ele>         <time>2026-02-28T11:17:31.000Z</time>         <extensions>           <ns3:TrackPointExtension>             <ns3:hr>94</ns3:hr>           </ns3:TrackPointExtension>         </extensions>       </trkpt>
       <trkpt lat="45.58888795785605907440185546875" lon="14.44727755151689052581787109375">         <ele>1784.199951171875</ele>         <time>2026-02-28T11:17:36.000Z</time>         <extensions>           <ns3:TrackPointExtension>             <ns3:hr>97</ns3:hr>           </ns3:TrackPointExtension>         </extensions>       </trkpt>
       <trkpt lat="45.58888242579996585845947265625" lon="14.44727889262139797210693359375">         <ele>1784.4000244140625</ele>         <time>2026-02-28T11:17:37.000Z</time>         <extensions>           <ns3:TrackPointExtension>             <ns3:hr>98</ns3:hr>           </ns3:TrackPointExtension>         </extensions>       </trkpt>
       <trkpt lat="45.58886867947876453399658203125" lon="14.4472828321158885955810546875">         <ele>1784.800048828125</ele>         <time>2026-02-28T11:17:39.000Z</time>         <extensions>           <ns3:TrackPointExtension>             <ns3:hr>100</ns3:hr>           </ns3:TrackPointExtension>         </extensions>       </trkpt>
       <trkpt lat="45.5888627283275127410888671875" lon="14.44728677161037921905517578125">         <ele>1785.199951171875</ele>         <time>2026-02-28T11:17:41.000Z</time>         <extensions>           <ns3:TrackPointExtension>             <ns3:hr>103</ns3:hr>           </ns3:TrackPointExtension>         </extensions>       </trkpt>
       <trkpt lat="45.58885820209980010986328125" lon="14.44728769361972808837890625">         <ele>1786</ele>         <time>2026-02-28T11:17:42.000Z</time>         <extensions>           <ns3:TrackPointExtension>             <ns3:hr>104</ns3:hr>           </ns3:TrackPointExtension>         </extensions>       </trkpt>
       <trkpt lat="45.588853172957897186279296875" lon="14.4472892023622989654541015625">         <ele>1787.4000244140625</ele>         <time>2026-02-28T11:17:44.000Z</time>         <extensions>           <ns3:TrackPointExtension>             <ns3:hr>106</ns3:hr>           </ns3:TrackPointExtension>         </extensions>       </trkpt>
       <trkpt lat="45.58884118683636188507080078125" lon="14.4472932256758213043212890625">         <ele>1788</ele>         <time>2026-02-28T11:17:47.000Z</time>         <extensions>           <ns3:TrackPointExtension>             <ns3:hr>107</ns3:hr>           </ns3:TrackPointExtension>         </extensions>       </trkpt>
       <trkpt lat="45.58880682103335857391357421875" lon="14.44729817099869251251220703125">         <ele>1787.800048828125</ele>         <time>2026-02-28T11:17:55.000Z</time>         <extensions>           <ns3:TrackPointExtension>             <ns3:hr>110</ns3:hr>           </ns3:TrackPointExtension>         </extensions>       </trkpt>
       <trkpt lat="45.588796846568584442138671875" lon="14.44729733280837535858154296875">         <ele>1788.199951171875</ele>         <time>2026-02-28T11:17:56.000Z</time>         <extensions>           <ns3:TrackPointExtension>             <ns3:hr>112</ns3:hr>           </ns3:TrackPointExtension>         </extensions>       </trkpt>
       <trkpt lat="45.58878888376057147979736328125" lon="14.447303116321563720703125">         <ele>1788.5999755859375</ele>         <time>2026-02-28T11:17:58.000Z</time>         <extensions>           <ns3:TrackPointExtension>             <ns3:hr>112</ns3:hr>           </ns3:TrackPointExtension>         </extensions>       </trkpt>
       <trkpt lat="45.58878368698060512542724609375" lon="14.4473036192357540130615234375">         <ele>1789</ele>         <time>2026-02-28T11:18:01.000Z</time>         <extensions>           <ns3:TrackPointExtension>             <ns3:hr>113</ns3:hr>           </ns3:TrackPointExtension>         </extensions>       </trkpt>
       <trkpt lat="45.588777400553226470947265625" lon="14.44730604998767375946044921875">         <ele>1789.199951171875</ele>         <time>2026-02-28T11:18:04.000Z</time>         <extensions>           <ns3:TrackPointExtension>             <ns3:hr>110</ns3:hr>           </ns3:TrackPointExtension>         </extensions>       </trkpt>
       <trkpt lat="45.58877346105873584747314453125" lon="14.4473103247582912445068359375">         <ele>1788.4000244140625</ele>         <time>2026-02-28T11:18:08.000Z</time>         <extensions>           <ns3:TrackPointExtension>             <ns3:hr>113</ns3:hr>           </ns3:TrackPointExtension>         </extensions>       </trkpt>
       <trkpt lat="45.588770695030689239501953125" lon="14.44731091149151325225830078125">         <ele>1788.199951171875</ele>         <time>2026-02-28T11:18:09.000Z</time>         <extensions>           <ns3:TrackPointExtension>             <ns3:hr>113</ns3:hr>           </ns3:TrackPointExtension>         </extensions>       </trkpt>
       <trkpt lat="45.58875032700598239898681640625" lon="14.44731594063341617584228515625">         <ele>1789</ele>         <time>2026-02-28T11:18:16.000Z</time>         <extensions>           <ns3:TrackPointExtension>             <ns3:hr>112</ns3:hr>           </ns3:TrackPointExtension>         </extensions>       </trkpt>
       <trkpt lat="45.58872216381132602691650390625" lon="14.4473125040531158447265625">         <ele>1789</ele>         <time>2026-02-28T11:18:22.000Z</time>         <extensions>           <ns3:TrackPointExtension>             <ns3:hr>115</ns3:hr>           </ns3:TrackPointExtension>         </extensions>       </trkpt>
       <trkpt lat="45.58869718573987483978271484375" lon="14.44732080213725566864013671875">         <ele>1789.800048828125</ele>         <time>2026-02-28T11:18:28.000Z</time>         <extensions>           <ns3:TrackPointExtension>             <ns3:hr>116</ns3:hr>           </ns3:TrackPointExtension>         </extensions>       </trkpt>
       <trkpt lat="45.58868645690381526947021484375" lon="14.44732499308884143829345703125">         <ele>1790.199951171875</ele>         <time>2026-02-28T11:18:29.000Z</time>         <extensions>           <ns3:TrackPointExtension>             <ns3:hr>117</ns3:hr>           </ns3:TrackPointExtension>         </extensions>       </trkpt>
       <trkpt lat="45.58868226595222949981689453125" lon="14.4473254121840000152587890625">         <ele>1790.800048828125</ele>         <time>2026-02-28T11:18:30.000Z</time>         <extensions>           <ns3:TrackPointExtension>             <ns3:hr>117</ns3:hr>           </ns3:TrackPointExtension>         </extensions>       </trkpt>
       <trkpt lat="45.5886823497712612152099609375" lon="14.44732214324176311492919921875">         <ele>1791</ele>         <time>2026-02-28T11:18:36.000Z</time>         <extensions>           <ns3:TrackPointExtension>             <ns3:hr>116</ns3:hr>           </ns3:TrackPointExtension>         </extensions>       </trkpt>
       <trkpt lat="45.5886679328978061676025390625" lon="14.4473223946988582611083984375">         <ele>1792</ele>         <time>2026-02-28T11:18:39.000Z</time>         <extensions>           <ns3:TrackPointExtension>             <ns3:hr>115</ns3:hr>           </ns3:TrackPointExtension>         </extensions>       </trkpt>
       <trkpt lat="45.58866432867944240570068359375" lon="14.44732549600303173065185546875">         <ele>1792.199951171875</ele>         <time>2026-02-28T11:18:41.000Z</time>         <extensions>           <ns3:TrackPointExtension>             <ns3:hr>119</ns3:hr>           </ns3:TrackPointExtension>         </extensions>       </trkpt>
       <trkpt lat="45.58865661732852458953857421875" lon="14.44732884876430034637451171875">         <ele>1792.199951171875</ele>         <time>2026-02-28T11:18:43.000Z</time>         <extensions>           <ns3:TrackPointExtension>             <ns3:hr>122</ns3:hr>           </ns3:TrackPointExtension>         </extensions>       </trkpt>
       <trkpt lat="45.58865125291049480438232421875" lon="14.44733236916363239288330078125">         <ele>1792</ele>         <time>2026-02-28T11:18:46.000Z</time>         <extensions>           <ns3:TrackPointExtension>             <ns3:hr>123</ns3:hr>           </ns3:TrackPointExtension>         </extensions>       </trkpt>
       <trkpt lat="45.5886484868824481964111328125" lon="14.4473312795162200927734375">         <ele>1792</ele>         <time>2026-02-28T11:18:48.000Z</time>         <extensions>           <ns3:TrackPointExtension>             <ns3:hr>126</ns3:hr>           </ns3:TrackPointExtension>         </extensions>       </trkpt>
       <trkpt lat="45.58863482438027858734130859375" lon="14.44733756594359874725341796875">         <ele>1792.199951171875</ele>         <time>2026-02-28T11:18:53.000Z</time>         <extensions>           <ns3:TrackPointExtension>             <ns3:hr>126</ns3:hr>           </ns3:TrackPointExtension>         </extensions>       </trkpt>
       <trkpt lat="45.5886008776724338531494140625" lon="14.44736103527247905731201171875">         <ele>1793.199951171875</ele>         <time>2026-02-28T11:18:58.000Z</time>         <extensions>           <ns3:TrackPointExtension>             <ns3:hr>125</ns3:hr>           </ns3:TrackPointExtension>         </extensions>       </trkpt>
       <trkpt lat="45.58859408833086490631103515625" lon="14.44735969416797161102294921875">         <ele>1794.199951171875</ele>         <time>2026-02-28T11:19:01.000Z</time>         <extensions>           <ns3:TrackPointExtension>             <ns3:hr>127</ns3:hr>           </ns3:TrackPointExtension>         </extensions>       </trkpt>
       <trkpt lat="45.58858998119831085205078125" lon="14.447362460196018218994140625">         <ele>1795.199951171875</ele>         <time>2026-02-28T11:19:04.000Z</time>         <extensions>           <ns3:TrackPointExtension>             <ns3:hr>130</ns3:hr>           </ns3:TrackPointExtension>         </extensions>       </trkpt>
       <trkpt lat="45.58858595788478851318359375" lon="14.44735801778733730316162109375">         <ele>1795.5999755859375</ele>         <time>2026-02-28T11:19:06.000Z</time>         <extensions>           <ns3:TrackPointExtension>             <ns3:hr>133</ns3:hr>           </ns3:TrackPointExtension>         </extensions>       </trkpt>
       <trkpt lat="45.5885780788958072662353515625" lon="14.44735349155962467193603515625">         <ele>1796.5999755859375</ele>         <time>2026-02-28T11:19:10.000Z</time>         <extensions>           <ns3:TrackPointExtension>             <ns3:hr>132</ns3:hr>           </ns3:TrackPointExtension>         </extensions>       </trkpt>
       <trkpt lat="45.588553436100482940673828125" lon="14.447363801300525665283203125">         <ele>1796.5999755859375</ele>         <time>2026-02-28T11:19:16.000Z</time>         <extensions>           <ns3:TrackPointExtension>             <ns3:hr>129</ns3:hr>           </ns3:TrackPointExtension>         </extensions>       </trkpt>
       <trkpt lat="45.58855486102402210235595703125" lon="14.44736354984343051910400390625">         <ele>1796.5999755859375</ele>         <time>2026-02-28T11:19:18.000Z</time>         <extensions>           <ns3:TrackPointExtension>             <ns3:hr>126</ns3:hr>           </ns3:TrackPointExtension>         </extensions>       </trkpt>
       <trkpt lat="45.58853692375123500823974609375" lon="14.44735298864543437957763671875">         <ele>1796.800048828125</ele>         <time>2026-02-28T11:19:27.000Z</time>         <extensions>           <ns3:TrackPointExtension>             <ns3:hr>128</ns3:hr>           </ns3:TrackPointExtension>         </extensions>       </trkpt>
       <trkpt lat="45.58853390626609325408935546875" lon="14.44734879769384860992431640625">         <ele>1796.5999755859375</ele>         <time>2026-02-28T11:19:32.000Z</time>         <extensions>           <ns3:TrackPointExtension>             <ns3:hr>123</ns3:hr>           </ns3:TrackPointExtension>         </extensions>       </trkpt>
       <trkpt lat="45.58853725902736186981201171875" lon="14.44734930060803890228271484375">         <ele>1796.800048828125</ele>         <time>2026-02-28T11:19:35.000Z</time>         <extensions>           <ns3:TrackPointExtension>             <ns3:hr>121</ns3:hr>           </ns3:TrackPointExtension>         </extensions>       </trkpt>
       <trkpt lat="45.58854094706475734710693359375" lon="14.4473455287516117095947265625">         <ele>1796</ele>         <time>2026-02-28T11:19:44.000Z</time>         <extensions>           <ns3:TrackPointExtension>             <ns3:hr>118</ns3:hr>           </ns3:TrackPointExtension>         </extensions>       </trkpt>
       <trkpt lat="45.5885418690741062164306640625" lon="14.44734829477965831756591796875">         <ele>1795.800048828125</ele>         <time>2026-02-28T11:19:45.000Z</time>         <extensions>           <ns3:TrackPointExtension>             <ns3:hr>118</ns3:hr>           </ns3:TrackPointExtension>         </extensions>       </trkpt>
       <trkpt lat="45.5885425396263599395751953125" lon="14.44734594784677028656005859375">         <ele>1796.199951171875</ele>         <time>2026-02-28T11:19:50.000Z</time>         <extensions>           <ns3:TrackPointExtension>             <ns3:hr>114</ns3:hr>           </ns3:TrackPointExtension>         </extensions>       </trkpt>
       <trkpt lat="45.58854195289313793182373046875" lon="14.4473420083522796630859375">         <ele>1796.199951171875</ele>         <time>2026-02-28T11:19:52.000Z</time>         <extensions>           <ns3:TrackPointExtension>             <ns3:hr>111</ns3:hr>           </ns3:TrackPointExtension>         </extensions>       </trkpt>
       <trkpt lat="45.58854279108345508575439453125" lon="14.447343349456787109375">         <ele>1796</ele>         <time>2026-02-28T11:19:54.000Z</time>         <extensions>           <ns3:TrackPointExtension>             <ns3:hr>108</ns3:hr>           </ns3:TrackPointExtension>         </extensions>       </trkpt>
       <trkpt lat="45.5885405279695987701416015625" lon="14.447343684732913970947265625">         <ele>1796</ele>         <time>2026-02-28T11:19:55.000Z</time>         <extensions>           <ns3:TrackPointExtension>             <ns3:hr>107</ns3:hr>           </ns3:TrackPointExtension>         </extensions>       </trkpt>
       <trkpt lat="45.58850557543337345123291015625" lon="14.44730504415929317474365234375">         <ele>1796.199951171875</ele>         <time>2026-02-28T11:20:02.000Z</time>         <extensions>           <ns3:TrackPointExtension>             <ns3:hr>106</ns3:hr>           </ns3:TrackPointExtension>         </extensions>       </trkpt>
       <trkpt lat="45.5884899012744426727294921875" lon="14.44728962145745754241943359375">         <ele>1796</ele>         <time>2026-02-28T11:20:05.000Z</time>         <extensions>           <ns3:TrackPointExtension>             <ns3:hr>102</ns3:hr>           </ns3:TrackPointExtension>         </extensions>       </trkpt>
       <trkpt lat="45.58847875334322452545166015625" lon="14.44727838970720767974853515625">         <ele>1795.4000244140625</ele>         <time>2026-02-28T11:20:07.000Z</time>         <extensions>           <ns3:TrackPointExtension>             <ns3:hr>101</ns3:hr>           </ns3:TrackPointExtension>         </extensions>       </trkpt>
       <trkpt lat="45.588470958173274993896484375" lon="14.44726799614727497100830078125">         <ele>1795.199951171875</ele>         <time>2026-02-28T11:20:09.000Z</time>         <extensions>           <ns3:TrackPointExtension>             <ns3:hr>97</ns3:hr>           </ns3:TrackPointExtension>         </extensions>       </trkpt>
       <trkpt lat="45.58846634812653064727783203125" lon="14.44726430810987949371337890625">         <ele>1795</ele>         <time>2026-02-28T11:20:10.000Z</time>         <extensions>           <ns3:TrackPointExtension>             <ns3:hr>100</ns3:hr>           </ns3:TrackPointExtension>         </extensions>       </trkpt>
       <trkpt lat="45.5884660966694355010986328125" lon="14.4472583569586277008056640625">         <ele>1794.800048828125</ele>         <time>2026-02-28T11:20:12.000Z</time>         <extensions>           <ns3:TrackPointExtension>             <ns3:hr>103</ns3:hr>           </ns3:TrackPointExtension>         </extensions>       </trkpt>
       <trkpt lat="45.58846450410783290863037109375" lon="14.44725089706480503082275390625">         <ele>1794.5999755859375</ele>         <time>2026-02-28T11:20:16.000Z</time>         <extensions>           <ns3:TrackPointExtension>             <ns3:hr>104</ns3:hr>           </ns3:TrackPointExtension>         </extensions>       </trkpt>
       <trkpt lat="45.58845411054790019989013671875" lon="14.44723815657198429107666015625">         <ele>1794.4000244140625</ele>         <time>2026-02-28T11:20:18.000Z</time>         <extensions>           <ns3:TrackPointExtension>             <ns3:hr>105</ns3:hr>           </ns3:TrackPointExtension>         </extensions>       </trkpt>
       <trkpt lat="45.5884270370006561279296875" lon="14.44720831699669361114501953125">         <ele>1793.5999755859375</ele>         <time>2026-02-28T11:20:23.000Z</time>         <extensions>           <ns3:TrackPointExtension>             <ns3:hr>104</ns3:hr>           </ns3:TrackPointExtension>         </extensions>       </trkpt>
       <trkpt lat="45.5884285457432270050048828125" lon="14.4471916370093822479248046875">         <ele>1794.800048828125</ele>         <time>2026-02-28T11:20:31.000Z</time>         <extensions>           <ns3:TrackPointExtension>             <ns3:hr>105</ns3:hr>           </ns3:TrackPointExtension>         </extensions>       </trkpt>
       <trkpt lat="45.58842695318162441253662109375" lon="14.4471946544945240020751953125">         <ele>1795.4000244140625</ele>         <time>2026-02-28T11:20:33.000Z</time>         <extensions>           <ns3:TrackPointExtension>             <ns3:hr>106</ns3:hr>           </ns3:TrackPointExtension>         </extensions>       </trkpt>
       <trkpt lat="45.58842292986810207366943359375" lon="14.44718803279101848602294921875">         <ele>1796</ele>         <time>2026-02-28T11:20:39.000Z</time>         <extensions>           <ns3:TrackPointExtension>             <ns3:hr>106</ns3:hr>           </ns3:TrackPointExtension>         </extensions>       </trkpt>
       <trkpt lat="45.588412620127201080322265625" lon="14.44720479659736156463623046875">         <ele>1794.5999755859375</ele>         <time>2026-02-28T11:20:44.000Z</time>         <extensions>           <ns3:TrackPointExtension>             <ns3:hr>109</ns3:hr>           </ns3:TrackPointExtension>         </extensions>       </trkpt>
       <trkpt lat="45.5884134583175182342529296875" lon="14.4472130946815013885498046875">         <ele>1794.4000244140625</ele>         <time>2026-02-28T11:20:45.000Z</time>         <extensions>           <ns3:TrackPointExtension>             <ns3:hr>109</ns3:hr>           </ns3:TrackPointExtension>         </extensions>       </trkpt>
       <trkpt lat="45.5884147994220256805419921875" lon="14.4472147710621356964111328125">         <ele>1794.199951171875</ele>         <time>2026-02-28T11:20:46.000Z</time>         <extensions>           <ns3:TrackPointExtension>             <ns3:hr>109</ns3:hr>           </ns3:TrackPointExtension>         </extensions>       </trkpt>
       <trkpt lat="45.5884191580116748809814453125" lon="14.447222985327243804931640625">         <ele>1795</ele>         <time>2026-02-28T11:20:55.000Z</time>         <extensions>           <ns3:TrackPointExtension>             <ns3:hr>110</ns3:hr>           </ns3:TrackPointExtension>         </extensions>       </trkpt>
       <trkpt lat="45.58840985409915447235107421875" lon="14.44724720902740955352783203125">         <ele>1795.5999755859375</ele>         <time>2026-02-28T11:21:00.000Z</time>         <extensions>           <ns3:TrackPointExtension>             <ns3:hr>110</ns3:hr>           </ns3:TrackPointExtension>         </extensions>       </trkpt>
       <trkpt lat="45.58840683661401271820068359375" lon="14.44725810550153255462646484375">         <ele>1796.5999755859375</ele>         <time>2026-02-28T11:21:01.000Z</time>         <extensions>           <ns3:TrackPointExtension>             <ns3:hr>110</ns3:hr>           </ns3:TrackPointExtension>         </extensions>       </trkpt>
       <trkpt lat="45.58839744888246059417724609375" lon="14.44728040136396884918212890625">         <ele>1796.5999755859375</ele>         <time>2026-02-28T11:21:04.000Z</time>         <extensions>           <ns3:TrackPointExtension>             <ns3:hr>107</ns3:hr>           </ns3:TrackPointExtension>         </extensions>       </trkpt>
       <trkpt lat="45.58837833814322948455810546875" lon="14.44729247130453586578369140625">         <ele>1796</ele>         <time>2026-02-28T11:21:08.000Z</time>         <extensions>           <ns3:TrackPointExtension>             <ns3:hr>104</ns3:hr>           </ns3:TrackPointExtension>         </extensions>       </trkpt>
       <trkpt lat="45.5883635021746158599853515625" lon="14.44727964699268341064453125">         <ele>1796</ele>         <time>2026-02-28T11:21:10.000Z</time>         <extensions>           <ns3:TrackPointExtension>             <ns3:hr>100</ns3:hr>           </ns3:TrackPointExtension>         </extensions>       </trkpt>
       <trkpt lat="45.588354952633380889892578125" lon="14.44726699031889438629150390625">         <ele>1796.199951171875</ele>         <time>2026-02-28T11:21:11.000Z</time>         <extensions>           <ns3:TrackPointExtension>             <ns3:hr>99</ns3:hr>           </ns3:TrackPointExtension>         </extensions>       </trkpt>
       <trkpt lat="45.58835268951952457427978515625" lon="14.4472586922347545623779296875">         <ele>1796.4000244140625</ele>         <time>2026-02-28T11:21:16.000Z</time>         <extensions>           <ns3:TrackPointExtension>             <ns3:hr>101</ns3:hr>           </ns3:TrackPointExtension>         </extensions>       </trkpt>
       <trkpt lat="45.58834983967244625091552734375" lon="14.44726916961371898651123046875">         <ele>1796.4000244140625</ele>         <time>2026-02-28T11:21:23.000Z</time>         <extensions>           <ns3:TrackPointExtension>             <ns3:hr>103</ns3:hr>           </ns3:TrackPointExtension>         </extensions>       </trkpt>
       <trkpt lat="45.58834455907344818115234375" lon="14.4472533278167247772216796875">         <ele>1796</ele>         <time>2026-02-28T11:21:28.000Z</time>         <extensions>           <ns3:TrackPointExtension>             <ns3:hr>106</ns3:hr>           </ns3:TrackPointExtension>         </extensions>       </trkpt>
       <trkpt lat="45.58834833092987537384033203125" lon="14.44727151654660701751708984375">         <ele>1796.4000244140625</ele>         <time>2026-02-28T11:21:32.000Z</time>         <extensions>           <ns3:TrackPointExtension>             <ns3:hr>106</ns3:hr>           </ns3:TrackPointExtension>         </extensions>       </trkpt>
       <trkpt lat="45.58834464289247989654541015625" lon="14.4472737796604633331298828125">         <ele>1796.800048828125</ele>         <time>2026-02-28T11:21:36.000Z</time>         <extensions>           <ns3:TrackPointExtension>             <ns3:hr>110</ns3:hr>           </ns3:TrackPointExtension>         </extensions>       </trkpt>
       <trkpt lat="45.58834481053054332733154296875" lon="14.44727386347949504852294921875">         <ele>1796.800048828125</ele>         <time>2026-02-28T11:21:37.000Z</time>         <extensions>           <ns3:TrackPointExtension>             <ns3:hr>112</ns3:hr>           </ns3:TrackPointExtension>         </extensions>       </trkpt>
       <trkpt lat="45.58834481053054332733154296875" lon="14.44727386347949504852294921875">         <ele>1796.800048828125</ele>         <time>2026-02-28T11:21:39.000Z</time>         <extensions>           <ns3:TrackPointExtension>             <ns3:hr>104</ns3:hr>           </ns3:TrackPointExtension>         </extensions>       </trkpt>
       <trkpt lat="45.58834481053054332733154296875" lon="14.44727386347949504852294921875">         <ele>1796.5999755859375</ele>         <time>2026-02-28T11:21:40.000Z</time>         <extensions>           <ns3:TrackPointExtension>             <ns3:hr>100</ns3:hr>           </ns3:TrackPointExtension>         </extensions>       </trkpt>
       <trkpt lat="45.58834481053054332733154296875" lon="14.44727386347949504852294921875">         <ele>1796.5999755859375</ele>         <time>2026-02-28T11:21:41.000Z</time>         <extensions>           <ns3:TrackPointExtension>             <ns3:hr>100</ns3:hr>           </ns3:TrackPointExtension>         </extensions>       </trkpt>
       <trkpt lat="45.58834430761635303497314453125" lon="14.44727503694593906402587890625">         <ele>1796.199951171875</ele>         <time>2026-02-28T11:21:46.000Z</time>         <extensions>           <ns3:TrackPointExtension>             <ns3:hr>97</ns3:hr>           </ns3:TrackPointExtension>         </extensions>       </trkpt>
       <trkpt lat="45.588338188827037811279296875" lon="14.4472835026681423187255859375">         <ele>1796.199951171875</ele>         <time>2026-02-28T11:21:48.000Z</time>         <extensions>           <ns3:TrackPointExtension>             <ns3:hr>97</ns3:hr>           </ns3:TrackPointExtension>         </extensions>       </trkpt>
       <trkpt lat="45.58833274058997631072998046875" lon="14.44727872498333454132080078125">         <ele>1796.5999755859375</ele>         <time>2026-02-28T11:21:51.000Z</time>         <extensions>           <ns3:TrackPointExtension>             <ns3:hr>100</ns3:hr>           </ns3:TrackPointExtension>         </extensions>       </trkpt>
       <trkpt lat="45.58832553215324878692626953125" lon="14.44728727452456951141357421875">         <ele>1797</ele>         <time>2026-02-28T11:21:54.000Z</time>         <extensions>           <ns3:TrackPointExtension>             <ns3:hr>101</ns3:hr>           </ns3:TrackPointExtension>         </extensions>       </trkpt>
       <trkpt lat="45.588296949863433837890625" lon="14.44728744216263294219970703125">         <ele>1797.199951171875</ele>         <time>2026-02-28T11:22:01.000Z</time>         <extensions>           <ns3:TrackPointExtension>             <ns3:hr>101</ns3:hr>           </ns3:TrackPointExtension>         </extensions>       </trkpt>
       <trkpt lat="45.5882783420383930206298828125" lon="14.44730244576930999755859375">         <ele>1797.800048828125</ele>         <time>2026-02-28T11:22:06.000Z</time>         <extensions>           <ns3:TrackPointExtension>             <ns3:hr>103</ns3:hr>           </ns3:TrackPointExtension>         </extensions>       </trkpt>
       <trkpt lat="45.58827616274356842041015625" lon="14.44730202667415142059326171875">         <ele>1798</ele>         <time>2026-02-28T11:22:07.000Z</time>         <extensions>           <ns3:TrackPointExtension>             <ns3:hr>104</ns3:hr>           </ns3:TrackPointExtension>         </extensions>       </trkpt>
       <trkpt lat="45.58825965039432048797607421875" lon="14.4473270885646343231201171875">         <ele>1799</ele>         <time>2026-02-28T11:22:14.000Z</time>         <extensions>           <ns3:TrackPointExtension>             <ns3:hr>105</ns3:hr>           </ns3:TrackPointExtension>         </extensions>       </trkpt>
       <trkpt lat="45.5882565490901470184326171875" lon="14.44732985459268093109130859375">         <ele>1799.199951171875</ele>         <time>2026-02-28T11:22:15.000Z</time>         <extensions>           <ns3:TrackPointExtension>             <ns3:hr>106</ns3:hr>           </ns3:TrackPointExtension>         </extensions>       </trkpt>
       <trkpt lat="45.5882498435676097869873046875" lon="14.447351060807704925537109375">         <ele>1800</ele>         <time>2026-02-28T11:22:21.000Z</time>         <extensions>           <ns3:TrackPointExtension>             <ns3:hr>107</ns3:hr>           </ns3:TrackPointExtension>         </extensions>       </trkpt>
       <trkpt lat="45.58824171312153339385986328125" lon="14.4473688304424285888671875">         <ele>1800</ele>         <time>2026-02-28T11:22:23.000Z</time>         <extensions>           <ns3:TrackPointExtension>             <ns3:hr>110</ns3:hr>           </ns3:TrackPointExtension>         </extensions>       </trkpt>
       <trkpt lat="45.58824263513088226318359375" lon="14.44736774079501628875732421875">         <ele>1800</ele>         <time>2026-02-28T11:22:24.000Z</time>         <extensions>           <ns3:TrackPointExtension>             <ns3:hr>111</ns3:hr>           </ns3:TrackPointExtension>         </extensions>       </trkpt>
       <trkpt lat="45.58823416940867900848388671875" lon="14.447384588420391082763671875">         <ele>1800.4000244140625</ele>         <time>2026-02-28T11:22:26.000Z</time>         <extensions>           <ns3:TrackPointExtension>             <ns3:hr>114</ns3:hr>           </ns3:TrackPointExtension>         </extensions>       </trkpt>
       <trkpt lat="45.58822360821068286895751953125" lon="14.447407387197017669677734375">         <ele>1800</ele>         <time>2026-02-28T11:22:32.000Z</time>         <extensions>           <ns3:TrackPointExtension>             <ns3:hr>115</ns3:hr>           </ns3:TrackPointExtension>         </extensions>       </trkpt>
       <trkpt lat="45.58821388520300388336181640625" lon="14.44744451902806758880615234375">         <ele>1800.4000244140625</ele>         <time>2026-02-28T11:22:38.000Z</time>         <extensions>           <ns3:TrackPointExtension>             <ns3:hr>117</ns3:hr>           </ns3:TrackPointExtension>         </extensions>       </trkpt>
       <trkpt lat="45.58822461403906345367431640625" lon="14.44743831641972064971923828125">         <ele>1801.4000244140625</ele>         <time>2026-02-28T11:22:42.000Z</time>         <extensions>           <ns3:TrackPointExtension>             <ns3:hr>119</ns3:hr>           </ns3:TrackPointExtension>         </extensions>       </trkpt>
       <trkpt lat="45.58824372477829456329345703125" lon="14.447452984750270843505859375">         <ele>1802.199951171875</ele>         <time>2026-02-28T11:22:45.000Z</time>         <extensions>           <ns3:TrackPointExtension>             <ns3:hr>119</ns3:hr>           </ns3:TrackPointExtension>         </extensions>       </trkpt>
       <trkpt lat="45.58827004395425319671630859375" lon="14.44746362976729869842529296875">         <ele>1802</ele>         <time>2026-02-28T11:22:51.000Z</time>         <extensions>           <ns3:TrackPointExtension>             <ns3:hr>122</ns3:hr>           </ns3:TrackPointExtension>         </extensions>       </trkpt>
       <trkpt lat="45.588290579617023468017578125" lon="14.447474442422389984130859375">         <ele>1802.4000244140625</ele>         <time>2026-02-28T11:22:55.000Z</time>         <extensions>           <ns3:TrackPointExtension>             <ns3:hr>125</ns3:hr>           </ns3:TrackPointExtension>         </extensions>       </trkpt>
       <trkpt lat="45.58828546665608882904052734375" lon="14.4474679045379161834716796875">         <ele>1803.4000244140625</ele>         <time>2026-02-28T11:22:57.000Z</time>         <extensions>           <ns3:TrackPointExtension>             <ns3:hr>126</ns3:hr>           </ns3:TrackPointExtension>         </extensions>       </trkpt>
       <trkpt lat="45.58828555047512054443359375" lon="14.4474682398140430450439453125">         <ele>1804</ele>         <time>2026-02-28T11:22:58.000Z</time>         <extensions>           <ns3:TrackPointExtension>             <ns3:hr>126</ns3:hr>           </ns3:TrackPointExtension>         </extensions>       </trkpt>
       <trkpt lat="45.588295944035053253173828125" lon="14.44747720845043659210205078125">         <ele>1806</ele>         <time>2026-02-28T11:23:01.000Z</time>         <extensions>           <ns3:TrackPointExtension>             <ns3:hr>126</ns3:hr>           </ns3:TrackPointExtension>         </extensions>       </trkpt>
       <trkpt lat="45.58831027708947658538818359375" lon="14.4474868476390838623046875">         <ele>1805.5999755859375</ele>         <time>2026-02-28T11:23:04.000Z</time>         <extensions>           <ns3:TrackPointExtension>             <ns3:hr>127</ns3:hr>           </ns3:TrackPointExtension>         </extensions>       </trkpt>
       <trkpt lat="45.5883497558534145355224609375" lon="14.44750889204442501068115234375">         <ele>1804.800048828125</ele>         <time>2026-02-28T11:23:10.000Z</time>         <extensions>           <ns3:TrackPointExtension>             <ns3:hr>124</ns3:hr>           </ns3:TrackPointExtension>         </extensions>       </trkpt>
       <trkpt lat="45.58838537894189357757568359375" lon="14.4475175254046916961669921875">         <ele>1804</ele>         <time>2026-02-28T11:23:15.000Z</time>         <extensions>           <ns3:TrackPointExtension>             <ns3:hr>121</ns3:hr>           </ns3:TrackPointExtension>         </extensions>       </trkpt>
       <trkpt lat="45.5883896537125110626220703125" lon="14.4475181959569454193115234375">         <ele>1803.800048828125</ele>         <time>2026-02-28T11:23:16.000Z</time>         <extensions>           <ns3:TrackPointExtension>             <ns3:hr>120</ns3:hr>           </ns3:TrackPointExtension>         </extensions>       </trkpt>
       <trkpt lat="45.58839376084506511688232421875" lon="14.4475190341472625732421875">         <ele>1803.5999755859375</ele>         <time>2026-02-28T11:23:17.000Z</time>         <extensions>           <ns3:TrackPointExtension>             <ns3:hr>118</ns3:hr>           </ns3:TrackPointExtension>         </extensions>       </trkpt>
       <trkpt lat="45.5884023942053318023681640625" lon="14.44752029143273830413818359375">         <ele>1803.4000244140625</ele>         <time>2026-02-28T11:23:18.000Z</time>         <extensions>           <ns3:TrackPointExtension>             <ns3:hr>115</ns3:hr>           </ns3:TrackPointExtension>         </extensions>       </trkpt>
       <trkpt lat="45.58841102756559848785400390625" lon="14.4475243985652923583984375">         <ele>1803.199951171875</ele>         <time>2026-02-28T11:23:19.000Z</time>         <extensions>           <ns3:TrackPointExtension>             <ns3:hr>110</ns3:hr>           </ns3:TrackPointExtension>         </extensions>       </trkpt>
       <trkpt lat="45.58841471560299396514892578125" lon="14.44752666167914867401123046875">         <ele>1803</ele>         <time>2026-02-28T11:23:20.000Z</time>         <extensions>           <ns3:TrackPointExtension>             <ns3:hr>107</ns3:hr>           </ns3:TrackPointExtension>         </extensions>       </trkpt>
       <trkpt lat="45.58842209167778491973876953125" lon="14.44753454066812992095947265625">         <ele>1802.5999755859375</ele>         <time>2026-02-28T11:23:21.000Z</time>         <extensions>           <ns3:TrackPointExtension>             <ns3:hr>107</ns3:hr>           </ns3:TrackPointExtension>         </extensions>       </trkpt>
       <trkpt lat="45.588424690067768096923828125" lon="14.4475409947335720062255859375">         <ele>1802.4000244140625</ele>         <time>2026-02-28T11:23:22.000Z</time>         <extensions>           <ns3:TrackPointExtension>             <ns3:hr>109</ns3:hr>           </ns3:TrackPointExtension>         </extensions>       </trkpt>
       <trkpt lat="45.58845050632953643798828125" lon="14.44755985401570796966552734375">         <ele>1802.4000244140625</ele>         <time>2026-02-28T11:23:26.000Z</time>         <extensions>           <ns3:TrackPointExtension>             <ns3:hr>106</ns3:hr>           </ns3:TrackPointExtension>         </extensions>       </trkpt>
       <trkpt lat="45.58845846913754940032958984375" lon="14.44756823591887950897216796875">         <ele>1803</ele>         <time>2026-02-28T11:23:28.000Z</time>         <extensions>           <ns3:TrackPointExtension>             <ns3:hr>103</ns3:hr>           </ns3:TrackPointExtension>         </extensions>       </trkpt>
       <trkpt lat="45.5884677730500698089599609375" lon="14.4475807249546051025390625">         <ele>1803.5999755859375</ele>         <time>2026-02-28T11:23:30.000Z</time>         <extensions>           <ns3:TrackPointExtension>             <ns3:hr>102</ns3:hr>           </ns3:TrackPointExtension>         </extensions>       </trkpt>
       <trkpt lat="45.588469617068767547607421875" lon="14.44757611490786075592041015625">         <ele>1803.800048828125</ele>         <time>2026-02-28T11:23:31.000Z</time>         <extensions>           <ns3:TrackPointExtension>             <ns3:hr>103</ns3:hr>           </ns3:TrackPointExtension>         </extensions>       </trkpt>
       <trkpt lat="45.58848763816058635711669921875" lon="14.4475865922868251800537109375">         <ele>1804</ele>         <time>2026-02-28T11:23:35.000Z</time>         <extensions>           <ns3:TrackPointExtension>             <ns3:hr>106</ns3:hr>           </ns3:TrackPointExtension>         </extensions>       </trkpt>
       <trkpt lat="45.58849476277828216552734375" lon="14.4475842453539371490478515625">         <ele>1804</ele>         <time>2026-02-28T11:23:37.000Z</time>         <extensions>           <ns3:TrackPointExtension>             <ns3:hr>107</ns3:hr>           </ns3:TrackPointExtension>         </extensions>       </trkpt>
       <trkpt lat="45.5885235965251922607421875" lon="14.44759690202772617340087890625">         <ele>1803.5999755859375</ele>         <time>2026-02-28T11:23:43.000Z</time>         <extensions>           <ns3:TrackPointExtension>             <ns3:hr>110</ns3:hr>           </ns3:TrackPointExtension>         </extensions>       </trkpt>
       <trkpt lat="45.58856307528913021087646484375" lon="14.44762020371854305267333984375">         <ele>1803.800048828125</ele>         <time>2026-02-28T11:23:53.000Z</time>         <extensions>           <ns3:TrackPointExtension>             <ns3:hr>112</ns3:hr>           </ns3:TrackPointExtension>         </extensions>       </trkpt>
       <trkpt lat="45.5885804258286952972412109375" lon="14.44763210602104663848876953125">         <ele>1803</ele>         <time>2026-02-28T11:24:02.000Z</time>         <extensions>           <ns3:TrackPointExtension>             <ns3:hr>110</ns3:hr>           </ns3:TrackPointExtension>         </extensions>       </trkpt>
       <trkpt lat="45.5885800905525684356689453125" lon="14.44763160310685634613037109375">         <ele>1804.5999755859375</ele>         <time>2026-02-28T11:24:13.000Z</time>         <extensions>           <ns3:TrackPointExtension>             <ns3:hr>109</ns3:hr>           </ns3:TrackPointExtension>         </extensions>       </trkpt>
       <trkpt lat="45.5886052362620830535888671875" lon="14.4476402364671230316162109375">         <ele>1807</ele>         <time>2026-02-28T11:24:21.000Z</time>         <extensions>           <ns3:TrackPointExtension>             <ns3:hr>110</ns3:hr>           </ns3:TrackPointExtension>         </extensions>       </trkpt>
       <trkpt lat="45.58860473334789276123046875" lon="14.44764032028615474700927734375">         <ele>1807.4000244140625</ele>         <time>2026-02-28T11:24:22.000Z</time>         <extensions>           <ns3:TrackPointExtension>             <ns3:hr>110</ns3:hr>           </ns3:TrackPointExtension>         </extensions>       </trkpt>
       <trkpt lat="45.58860481716692447662353515625" lon="14.44764032028615474700927734375">         <ele>1807.800048828125</ele>         <time>2026-02-28T11:24:29.000Z</time>         <extensions>           <ns3:TrackPointExtension>             <ns3:hr>107</ns3:hr>           </ns3:TrackPointExtension>         </extensions>       </trkpt>
       <trkpt lat="45.58860481716692447662353515625" lon="14.44764032028615474700927734375">         <ele>1808</ele>         <time>2026-02-28T11:24:35.000Z</time>         <extensions>           <ns3:TrackPointExtension>             <ns3:hr>106</ns3:hr>           </ns3:TrackPointExtension>         </extensions>       </trkpt>
       <trkpt lat="45.58860481716692447662353515625" lon="14.44764032028615474700927734375">         <ele>1806.199951171875</ele>         <time>2026-02-28T11:24:44.000Z</time>         <extensions>           <ns3:TrackPointExtension>             <ns3:hr>106</ns3:hr>           </ns3:TrackPointExtension>         </extensions>       </trkpt>
       <trkpt lat="45.58860481716692447662353515625" lon="14.44764032028615474700927734375">         <ele>1804.4000244140625</ele>         <time>2026-02-28T11:24:45.000Z</time>         <extensions>           <ns3:TrackPointExtension>             <ns3:hr>104</ns3:hr>           </ns3:TrackPointExtension>         </extensions>       </trkpt>
       <trkpt lat="45.58860481716692447662353515625" lon="14.44764032028615474700927734375">         <ele>1804.4000244140625</ele>         <time>2026-02-28T11:24:47.000Z</time>         <extensions>           <ns3:TrackPointExtension>             <ns3:hr>102</ns3:hr>           </ns3:TrackPointExtension>         </extensions>       </trkpt>
       <trkpt lat="45.58860481716692447662353515625" lon="14.44764032028615474700927734375">         <ele>1805</ele>         <time>2026-02-28T11:24:54.000Z</time>         <extensions>           <ns3:TrackPointExtension>             <ns3:hr>105</ns3:hr>           </ns3:TrackPointExtension>         </extensions>       </trkpt>
       <trkpt lat="45.58860481716692447662353515625" lon="14.44764032028615474700927734375">         <ele>1805</ele>         <time>2026-02-28T11:24:59.000Z</time>         <extensions>           <ns3:TrackPointExtension>             <ns3:hr>104</ns3:hr>           </ns3:TrackPointExtension>         </extensions>       </trkpt>
       <trkpt lat="45.58860481716692447662353515625" lon="14.44764032028615474700927734375">         <ele>1804.4000244140625</ele>         <time>2026-02-28T11:25:03.000Z</time>         <extensions>           <ns3:TrackPointExtension>             <ns3:hr>107</ns3:hr>           </ns3:TrackPointExtension>         </extensions>       </trkpt>
       <trkpt lat="45.58860481716692447662353515625" lon="14.44764032028615474700927734375">         <ele>1804.800048828125</ele>         <time>2026-02-28T11:25:07.000Z</time>         <extensions>           <ns3:TrackPointExtension>             <ns3:hr>104</ns3:hr>           </ns3:TrackPointExtension>         </extensions>       </trkpt>
       <trkpt lat="45.58860481716692447662353515625" lon="14.44764032028615474700927734375">         <ele>1804</ele>         <time>2026-02-28T11:25:16.000Z</time>         <extensions>           <ns3:TrackPointExtension>             <ns3:hr>104</ns3:hr>           </ns3:TrackPointExtension>         </extensions>       </trkpt>
       <trkpt lat="45.58859006501734256744384765625" lon="14.4476204551756381988525390625">         <ele>1805.4000244140625</ele>         <time>2026-02-28T11:25:22.000Z</time>         <extensions>           <ns3:TrackPointExtension>             <ns3:hr>102</ns3:hr>           </ns3:TrackPointExtension>         </extensions>       </trkpt>
       <trkpt lat="45.5885901488363742828369140625" lon="14.44761358201503753662109375">         <ele>1806</ele>         <time>2026-02-28T11:25:25.000Z</time>         <extensions>           <ns3:TrackPointExtension>             <ns3:hr>103</ns3:hr>           </ns3:TrackPointExtension>         </extensions>       </trkpt>
       <trkpt lat="45.58859006501734256744384765625" lon="14.44761358201503753662109375">         <ele>1804.199951171875</ele>         <time>2026-02-28T11:25:32.000Z</time>         <extensions>           <ns3:TrackPointExtension>             <ns3:hr>103</ns3:hr>           </ns3:TrackPointExtension>         </extensions>       </trkpt>
       <trkpt lat="45.58859006501734256744384765625" lon="14.44761358201503753662109375">         <ele>1803.800048828125</ele>         <time>2026-02-28T11:25:35.000Z</time>         <extensions>           <ns3:TrackPointExtension>             <ns3:hr>101</ns3:hr>           </ns3:TrackPointExtension>         </extensions>       </trkpt>
       <trkpt lat="45.58859006501734256744384765625" lon="14.44761358201503753662109375">         <ele>1805.199951171875</ele>         <time>2026-02-28T11:25:46.000Z</time>         <extensions>           <ns3:TrackPointExtension>             <ns3:hr>102</ns3:hr>           </ns3:TrackPointExtension>         </extensions>       </trkpt>
       <trkpt lat="45.58859006501734256744384765625" lon="14.44761358201503753662109375">         <ele>1805</ele>         <time>2026-02-28T11:25:52.000Z</time>         <extensions>           <ns3:TrackPointExtension>             <ns3:hr>99</ns3:hr>           </ns3:TrackPointExtension>         </extensions>       </trkpt>
       <trkpt lat="45.58859006501734256744384765625" lon="14.44761358201503753662109375">         <ele>1804.800048828125</ele>         <time>2026-02-28T11:25:53.000Z</time>         <extensions>           <ns3:TrackPointExtension>             <ns3:hr>98</ns3:hr>           </ns3:TrackPointExtension>         </extensions>       </trkpt>
       <trkpt lat="45.58854916132986545562744140625" lon="14.44759908132255077362060546875">         <ele>1804.800048828125</ele>         <time>2026-02-28T11:26:02.000Z</time>         <extensions>           <ns3:TrackPointExtension>             <ns3:hr>100</ns3:hr>           </ns3:TrackPointExtension>         </extensions>       </trkpt>
       <trkpt lat="45.58854480274021625518798828125" lon="14.4475946389138698577880859375">         <ele>1805</ele>         <time>2026-02-28T11:26:11.000Z</time>         <extensions>           <ns3:TrackPointExtension>             <ns3:hr>101</ns3:hr>           </ns3:TrackPointExtension>         </extensions>       </trkpt>
       <trkpt lat="45.58853558264672756195068359375" lon="14.4475862570106983184814453125">         <ele>1804</ele>         <time>2026-02-28T11:26:16.000Z</time>         <extensions>           <ns3:TrackPointExtension>             <ns3:hr>102</ns3:hr>           </ns3:TrackPointExtension>         </extensions>       </trkpt>
       <trkpt lat="45.58854463510215282440185546875" lon="14.4475939683616161346435546875">         <ele>1803.5999755859375</ele>         <time>2026-02-28T11:26:19.000Z</time>         <extensions>           <ns3:TrackPointExtension>             <ns3:hr>102</ns3:hr>           </ns3:TrackPointExtension>         </extensions>       </trkpt>
       <trkpt lat="45.58854463510215282440185546875" lon="14.4475939683616161346435546875">         <ele>1803</ele>         <time>2026-02-28T11:26:22.000Z</time>         <extensions>           <ns3:TrackPointExtension>             <ns3:hr>101</ns3:hr>           </ns3:TrackPointExtension>         </extensions>       </trkpt>
       <trkpt lat="45.58851144276559352874755859375" lon="14.4475834071636199951171875">         <ele>1802.199951171875</ele>         <time>2026-02-28T11:26:28.000Z</time>         <extensions>           <ns3:TrackPointExtension>             <ns3:hr>101</ns3:hr>           </ns3:TrackPointExtension>         </extensions>       </trkpt>
       <trkpt lat="45.58850683271884918212890625" lon="14.44757125340402126312255859375">         <ele>1802</ele>         <time>2026-02-28T11:26:31.000Z</time>         <extensions>           <ns3:TrackPointExtension>             <ns3:hr>100</ns3:hr>           </ns3:TrackPointExtension>         </extensions>       </trkpt>
       <trkpt lat="45.5884838663041591644287109375" lon="14.44756530225276947021484375">         <ele>1802.199951171875</ele>         <time>2026-02-28T11:26:35.000Z</time>         <extensions>           <ns3:TrackPointExtension>             <ns3:hr>99</ns3:hr>           </ns3:TrackPointExtension>         </extensions>       </trkpt>
       <trkpt lat="45.5884768255054950714111328125" lon="14.44756530225276947021484375">         <ele>1802.4000244140625</ele>         <time>2026-02-28T11:26:37.000Z</time>         <extensions>           <ns3:TrackPointExtension>             <ns3:hr>102</ns3:hr>           </ns3:TrackPointExtension>         </extensions>       </trkpt>
       <trkpt lat="45.58845779858529567718505859375" lon="14.4475641287863254547119140625">         <ele>1802.5999755859375</ele>         <time>2026-02-28T11:26:40.000Z</time>         <extensions>           <ns3:TrackPointExtension>             <ns3:hr>106</ns3:hr>           </ns3:TrackPointExtension>         </extensions>       </trkpt>
       <trkpt lat="45.58844841085374355316162109375" lon="14.44756370969116687774658203125">         <ele>1802.5999755859375</ele>         <time>2026-02-28T11:26:42.000Z</time>         <extensions>           <ns3:TrackPointExtension>             <ns3:hr>108</ns3:hr>           </ns3:TrackPointExtension>         </extensions>       </trkpt>
       <trkpt lat="45.58842645026743412017822265625" lon="14.4475500471889972686767578125">         <ele>1802.5999755859375</ele>         <time>2026-02-28T11:26:47.000Z</time>         <extensions>           <ns3:TrackPointExtension>             <ns3:hr>111</ns3:hr>           </ns3:TrackPointExtension>         </extensions>       </trkpt>
       <trkpt lat="45.58842242695391178131103515625" lon="14.447548873722553253173828125">         <ele>1802.4000244140625</ele>         <time>2026-02-28T11:26:49.000Z</time>         <extensions>           <ns3:TrackPointExtension>             <ns3:hr>112</ns3:hr>           </ns3:TrackPointExtension>         </extensions>       </trkpt>
       <trkpt lat="45.58838688768446445465087890625" lon="14.44753118790686130523681640625">         <ele>1803</ele>         <time>2026-02-28T11:26:58.000Z</time>         <extensions>           <ns3:TrackPointExtension>             <ns3:hr>112</ns3:hr>           </ns3:TrackPointExtension>         </extensions>       </trkpt>
       <trkpt lat="45.5883661843836307525634765625" lon="14.4475168548524379730224609375">         <ele>1804.5999755859375</ele>         <time>2026-02-28T11:27:01.000Z</time>         <extensions>           <ns3:TrackPointExtension>             <ns3:hr>111</ns3:hr>           </ns3:TrackPointExtension>         </extensions>       </trkpt>
       <trkpt lat="45.58835260570049285888671875" lon="14.44750503636896610260009765625">         <ele>1803.4000244140625</ele>         <time>2026-02-28T11:27:06.000Z</time>         <extensions>           <ns3:TrackPointExtension>             <ns3:hr>110</ns3:hr>           </ns3:TrackPointExtension>         </extensions>       </trkpt>
       <trkpt lat="45.5883547849953174591064453125" lon="14.44750671274960041046142578125">         <ele>1802.4000244140625</ele>         <time>2026-02-28T11:27:08.000Z</time>         <extensions>           <ns3:TrackPointExtension>             <ns3:hr>112</ns3:hr>           </ns3:TrackPointExtension>         </extensions>       </trkpt>
       <trkpt lat="45.58835168369114398956298828125" lon="14.447506628930568695068359375">         <ele>1803.5999755859375</ele>         <time>2026-02-28T11:27:13.000Z</time>         <extensions>           <ns3:TrackPointExtension>             <ns3:hr>113</ns3:hr>           </ns3:TrackPointExtension>         </extensions>       </trkpt>
       <trkpt lat="45.58835369534790515899658203125" lon="14.4475078023970127105712890625">         <ele>1803.800048828125</ele>         <time>2026-02-28T11:27:14.000Z</time>         <extensions>           <ns3:TrackPointExtension>             <ns3:hr>112</ns3:hr>           </ns3:TrackPointExtension>         </extensions>       </trkpt>
       <trkpt lat="45.58838202618062496185302734375" lon="14.44752180017530918121337890625">         <ele>1803.4000244140625</ele>         <time>2026-02-28T11:27:18.000Z</time>         <extensions>           <ns3:TrackPointExtension>             <ns3:hr>109</ns3:hr>           </ns3:TrackPointExtension>         </extensions>       </trkpt>
       <trkpt lat="45.58838202618062496185302734375" lon="14.44752146489918231964111328125">         <ele>1803.5999755859375</ele>         <time>2026-02-28T11:27:21.000Z</time>         <extensions>           <ns3:TrackPointExtension>             <ns3:hr>106</ns3:hr>           </ns3:TrackPointExtension>         </extensions>       </trkpt>
       <trkpt lat="45.58834581635892391204833984375" lon="14.447513334453105926513671875">         <ele>1803.4000244140625</ele>         <time>2026-02-28T11:27:26.000Z</time>         <extensions>           <ns3:TrackPointExtension>             <ns3:hr>103</ns3:hr>           </ns3:TrackPointExtension>         </extensions>       </trkpt>
       <trkpt lat="45.58834196068346500396728515625" lon="14.4475091435015201568603515625">         <ele>1803.199951171875</ele>         <time>2026-02-28T11:27:27.000Z</time>         <extensions>           <ns3:TrackPointExtension>             <ns3:hr>99</ns3:hr>           </ns3:TrackPointExtension>         </extensions>       </trkpt>
       <trkpt lat="45.58833978138864040374755859375" lon="14.4475044496357440948486328125">         <ele>1802.5999755859375</ele>         <time>2026-02-28T11:27:29.000Z</time>         <extensions>           <ns3:TrackPointExtension>             <ns3:hr>96</ns3:hr>           </ns3:TrackPointExtension>         </extensions>       </trkpt>
       <trkpt lat="45.58833391405642032623291015625" lon="14.44750134833157062530517578125">         <ele>1802</ele>         <time>2026-02-28T11:27:34.000Z</time>         <extensions>           <ns3:TrackPointExtension>             <ns3:hr>95</ns3:hr>           </ns3:TrackPointExtension>         </extensions>       </trkpt>
       <trkpt lat="45.58833491988480091094970703125" lon="14.447500593960285186767578125">         <ele>1802.4000244140625</ele>         <time>2026-02-28T11:27:38.000Z</time>         <extensions>           <ns3:TrackPointExtension>             <ns3:hr>99</ns3:hr>           </ns3:TrackPointExtension>         </extensions>       </trkpt>
       <trkpt lat="45.58833508752286434173583984375" lon="14.44750268943607807159423828125">         <ele>1802.4000244140625</ele>         <time>2026-02-28T11:27:40.000Z</time>         <extensions>           <ns3:TrackPointExtension>             <ns3:hr>102</ns3:hr>           </ns3:TrackPointExtension>         </extensions>       </trkpt>
       <trkpt lat="45.5883313156664371490478515625" lon="14.4475057907402515411376953125">         <ele>1802.5999755859375</ele>         <time>2026-02-28T11:27:41.000Z</time>         <extensions>           <ns3:TrackPointExtension>             <ns3:hr>103</ns3:hr>           </ns3:TrackPointExtension>         </extensions>       </trkpt>
       <trkpt lat="45.58831480331718921661376953125" lon="14.447516687214374542236328125">         <ele>1803</ele>         <time>2026-02-28T11:27:47.000Z</time>         <extensions>           <ns3:TrackPointExtension>             <ns3:hr>102</ns3:hr>           </ns3:TrackPointExtension>         </extensions>       </trkpt>
       <trkpt lat="45.58828982524573802947998046875" lon="14.44750654511153697967529296875">         <ele>1803.5999755859375</ele>         <time>2026-02-28T11:27:51.000Z</time>         <extensions>           <ns3:TrackPointExtension>             <ns3:hr>102</ns3:hr>           </ns3:TrackPointExtension>         </extensions>       </trkpt>
       <trkpt lat="45.58828613720834255218505859375" lon="14.4475044496357440948486328125">         <ele>1804</ele>         <time>2026-02-28T11:27:52.000Z</time>         <extensions>           <ns3:TrackPointExtension>             <ns3:hr>102</ns3:hr>           </ns3:TrackPointExtension>         </extensions>       </trkpt>
       <trkpt lat="45.58827457018196582794189453125" lon="14.4474922120571136474609375">         <ele>1804.800048828125</ele>         <time>2026-02-28T11:27:54.000Z</time>         <extensions>           <ns3:TrackPointExtension>             <ns3:hr>102</ns3:hr>           </ns3:TrackPointExtension>         </extensions>       </trkpt>
       <trkpt lat="45.58826149441301822662353515625" lon="14.4474766217172145843505859375">         <ele>1805</ele>         <time>2026-02-28T11:27:57.000Z</time>         <extensions>           <ns3:TrackPointExtension>             <ns3:hr>99</ns3:hr>           </ns3:TrackPointExtension>         </extensions>       </trkpt>
       <trkpt lat="45.588259734213352203369140625" lon="14.4474699161946773529052734375">         <ele>1805</ele>         <time>2026-02-28T11:27:58.000Z</time>         <extensions>           <ns3:TrackPointExtension>             <ns3:hr>98</ns3:hr>           </ns3:TrackPointExtension>         </extensions>       </trkpt>
       <trkpt lat="45.588257052004337310791015625" lon="14.44745524786412715911865234375">         <ele>1804.4000244140625</ele>         <time>2026-02-28T11:28:01.000Z</time>         <extensions>           <ns3:TrackPointExtension>             <ns3:hr>95</ns3:hr>           </ns3:TrackPointExtension>         </extensions>       </trkpt>
       <trkpt lat="45.5882488377392292022705078125" lon="14.4474447704851627349853515625">         <ele>1803.800048828125</ele>         <time>2026-02-28T11:28:03.000Z</time>         <extensions>           <ns3:TrackPointExtension>             <ns3:hr>94</ns3:hr>           </ns3:TrackPointExtension>         </extensions>       </trkpt>
       <trkpt lat="45.58824573643505573272705078125" lon="14.44743630476295948028564453125">         <ele>1803.5999755859375</ele>         <time>2026-02-28T11:28:04.000Z</time>         <extensions>           <ns3:TrackPointExtension>             <ns3:hr>95</ns3:hr>           </ns3:TrackPointExtension>         </extensions>       </trkpt>
       <trkpt lat="45.5882367677986621856689453125" lon="14.44741652347147464752197265625">         <ele>1803</ele>         <time>2026-02-28T11:28:09.000Z</time>         <extensions>           <ns3:TrackPointExtension>             <ns3:hr>97</ns3:hr>           </ns3:TrackPointExtension>         </extensions>       </trkpt>
       <trkpt lat="45.58823601342737674713134765625" lon="14.4473961554467678070068359375">         <ele>1802.5999755859375</ele>         <time>2026-02-28T11:28:13.000Z</time>         <extensions>           <ns3:TrackPointExtension>             <ns3:hr>100</ns3:hr>           </ns3:TrackPointExtension>         </extensions>       </trkpt>
       <trkpt lat="45.5882364325225353240966796875" lon="14.4473857618868350982666015625">         <ele>1802.199951171875</ele>         <time>2026-02-28T11:28:16.000Z</time>         <extensions>           <ns3:TrackPointExtension>             <ns3:hr>101</ns3:hr>           </ns3:TrackPointExtension>         </extensions>       </trkpt>
       <trkpt lat="45.5882366001605987548828125" lon="14.44738064892590045928955078125">         <ele>1800.800048828125</ele>         <time>2026-02-28T11:28:17.000Z</time>         <extensions>           <ns3:TrackPointExtension>             <ns3:hr>101</ns3:hr>           </ns3:TrackPointExtension>         </extensions>       </trkpt>
       <trkpt lat="45.58824087493121623992919921875" lon="14.44737209938466548919677734375">         <ele>1799.4000244140625</ele>         <time>2026-02-28T11:28:19.000Z</time>         <extensions>           <ns3:TrackPointExtension>             <ns3:hr>101</ns3:hr>           </ns3:TrackPointExtension>         </extensions>       </trkpt>
       <trkpt lat="45.58824858628213405609130859375" lon="14.4473607838153839111328125">         <ele>1797</ele>         <time>2026-02-28T11:28:22.000Z</time>         <extensions>           <ns3:TrackPointExtension>             <ns3:hr>102</ns3:hr>           </ns3:TrackPointExtension>         </extensions>       </trkpt>
       <trkpt lat="45.58825428597629070281982421875" lon="14.44735382683575153350830078125">         <ele>1795.800048828125</ele>         <time>2026-02-28T11:28:23.000Z</time>         <extensions>           <ns3:TrackPointExtension>             <ns3:hr>102</ns3:hr>           </ns3:TrackPointExtension>         </extensions>       </trkpt>
       <trkpt lat="45.58825680054724216461181640625" lon="14.44734997116029262542724609375">         <ele>1794.800048828125</ele>         <time>2026-02-28T11:28:24.000Z</time>         <extensions>           <ns3:TrackPointExtension>             <ns3:hr>102</ns3:hr>           </ns3:TrackPointExtension>         </extensions>       </trkpt>
       <trkpt lat="45.5882562138140201568603515625" lon="14.44734795950353145599365234375">         <ele>1794</ele>         <time>2026-02-28T11:28:25.000Z</time>         <extensions>           <ns3:TrackPointExtension>             <ns3:hr>102</ns3:hr>           </ns3:TrackPointExtension>         </extensions>       </trkpt>
       <trkpt lat="45.5882562138140201568603515625" lon="14.44734804332256317138671875">         <ele>1795.5999755859375</ele>         <time>2026-02-28T11:28:30.000Z</time>         <extensions>           <ns3:TrackPointExtension>             <ns3:hr>102</ns3:hr>           </ns3:TrackPointExtension>         </extensions>       </trkpt>
       <trkpt lat="45.5882562138140201568603515625" lon="14.44734804332256317138671875">         <ele>1796.199951171875</ele>         <time>2026-02-28T11:28:32.000Z</time>         <extensions>           <ns3:TrackPointExtension>             <ns3:hr>99</ns3:hr>           </ns3:TrackPointExtension>         </extensions>       </trkpt>
       <trkpt lat="45.58825780637562274932861328125" lon="14.4473465345799922943115234375">         <ele>1795.4000244140625</ele>         <time>2026-02-28T11:28:34.000Z</time>         <extensions>           <ns3:TrackPointExtension>             <ns3:hr>95</ns3:hr>           </ns3:TrackPointExtension>         </extensions>       </trkpt>
       <trkpt lat="45.5882562138140201568603515625" lon="14.44734804332256317138671875">         <ele>1795</ele>         <time>2026-02-28T11:28:35.000Z</time>         <extensions>           <ns3:TrackPointExtension>             <ns3:hr>89</ns3:hr>           </ns3:TrackPointExtension>         </extensions>       </trkpt>
       <trkpt lat="45.58826535008847713470458984375" lon="14.447335638105869293212890625">         <ele>1793.5999755859375</ele>         <time>2026-02-28T11:28:38.000Z</time>         <extensions>           <ns3:TrackPointExtension>             <ns3:hr>87</ns3:hr>           </ns3:TrackPointExtension>         </extensions>       </trkpt>
       <trkpt lat="45.58828043751418590545654296875" lon="14.447324238717555999755859375">         <ele>1793.4000244140625</ele>         <time>2026-02-28T11:28:39.000Z</time>         <extensions>           <ns3:TrackPointExtension>             <ns3:hr>86</ns3:hr>           </ns3:TrackPointExtension>         </extensions>       </trkpt>
       <trkpt lat="45.588308013975620269775390625" lon="14.4472972489893436431884765625">         <ele>1792.5999755859375</ele>         <time>2026-02-28T11:28:43.000Z</time>         <extensions>           <ns3:TrackPointExtension>             <ns3:hr>86</ns3:hr>           </ns3:TrackPointExtension>         </extensions>       </trkpt>
       <trkpt lat="45.588314719498157501220703125" lon="14.4472888670861721038818359375">         <ele>1792.199951171875</ele>         <time>2026-02-28T11:28:47.000Z</time>         <extensions>           <ns3:TrackPointExtension>             <ns3:hr>87</ns3:hr>           </ns3:TrackPointExtension>         </extensions>       </trkpt>
       <trkpt lat="45.58831480331718921661376953125" lon="14.44728895090520381927490234375">         <ele>1792.199951171875</ele>         <time>2026-02-28T11:28:48.000Z</time>         <extensions>           <ns3:TrackPointExtension>             <ns3:hr>84</ns3:hr>           </ns3:TrackPointExtension>         </extensions>       </trkpt>
       <trkpt lat="45.58831639587879180908203125" lon="14.4472881965339183807373046875">         <ele>1792.199951171875</ele>         <time>2026-02-28T11:28:49.000Z</time>         <extensions>           <ns3:TrackPointExtension>             <ns3:hr>71</ns3:hr>           </ns3:TrackPointExtension>         </extensions>       </trkpt>
       <trkpt lat="45.58833290822803974151611328125" lon="14.44727352820336818695068359375">         <ele>1792.4000244140625</ele>         <time>2026-02-28T11:28:53.000Z</time>         <extensions>           <ns3:TrackPointExtension>             <ns3:hr>72</ns3:hr>           </ns3:TrackPointExtension>         </extensions>       </trkpt>
       <trkpt lat="45.58835252188146114349365234375" lon="14.44727134890854358673095703125">         <ele>1793.199951171875</ele>         <time>2026-02-28T11:28:56.000Z</time>         <extensions>           <ns3:TrackPointExtension>             <ns3:hr>76</ns3:hr>           </ns3:TrackPointExtension>         </extensions>       </trkpt>
       <trkpt lat="45.58835922740399837493896484375" lon="14.44727604277431964874267578125">         <ele>1793.5999755859375</ele>         <time>2026-02-28T11:28:57.000Z</time>         <extensions>           <ns3:TrackPointExtension>             <ns3:hr>76</ns3:hr>           </ns3:TrackPointExtension>         </extensions>       </trkpt>
       <trkpt lat="45.58835989795625209808349609375" lon="14.44727830588817596435546875">         <ele>1794.800048828125</ele>         <time>2026-02-28T11:28:59.000Z</time>         <extensions>           <ns3:TrackPointExtension>             <ns3:hr>77</ns3:hr>           </ns3:TrackPointExtension>         </extensions>       </trkpt>
       <trkpt lat="45.58835939504206180572509765625" lon="14.44727830588817596435546875">         <ele>1795.199951171875</ele>         <time>2026-02-28T11:29:00.000Z</time>         <extensions>           <ns3:TrackPointExtension>             <ns3:hr>78</ns3:hr>           </ns3:TrackPointExtension>         </extensions>       </trkpt>
       <trkpt lat="45.58835822157561779022216796875" lon="14.44727553986012935638427734375">         <ele>1795.5999755859375</ele>         <time>2026-02-28T11:29:02.000Z</time>         <extensions>           <ns3:TrackPointExtension>             <ns3:hr>81</ns3:hr>           </ns3:TrackPointExtension>         </extensions>       </trkpt>
       <trkpt lat="45.58835268951952457427978515625" lon="14.4472722709178924560546875">         <ele>1795</ele>         <time>2026-02-28T11:29:07.000Z</time>         <extensions>           <ns3:TrackPointExtension>             <ns3:hr>84</ns3:hr>           </ns3:TrackPointExtension>         </extensions>       </trkpt>
       <trkpt lat="45.588350594043731689453125" lon="14.4472774676978588104248046875">         <ele>1794.800048828125</ele>         <time>2026-02-28T11:29:15.000Z</time>         <extensions>           <ns3:TrackPointExtension>             <ns3:hr>85</ns3:hr>           </ns3:TrackPointExtension>         </extensions>       </trkpt>
       <trkpt lat="45.5883423797786235809326171875" lon="14.44727118127048015594482421875">         <ele>1794.800048828125</ele>         <time>2026-02-28T11:29:19.000Z</time>         <extensions>           <ns3:TrackPointExtension>             <ns3:hr>89</ns3:hr>           </ns3:TrackPointExtension>         </extensions>       </trkpt>
       <trkpt lat="45.58834129013121128082275390625" lon="14.44726883433759212493896484375">         <ele>1794.800048828125</ele>         <time>2026-02-28T11:29:21.000Z</time>         <extensions>           <ns3:TrackPointExtension>             <ns3:hr>91</ns3:hr>           </ns3:TrackPointExtension>         </extensions>       </trkpt>
       <trkpt lat="45.5883427150547504425048828125" lon="14.44726833142340183258056640625">         <ele>1795.4000244140625</ele>         <time>2026-02-28T11:29:26.000Z</time>         <extensions>           <ns3:TrackPointExtension>             <ns3:hr>94</ns3:hr>           </ns3:TrackPointExtension>         </extensions>       </trkpt>
       <trkpt lat="45.58834447525441646575927734375" lon="14.447273276746273040771484375">         <ele>1795.4000244140625</ele>         <time>2026-02-28T11:29:28.000Z</time>         <extensions>           <ns3:TrackPointExtension>             <ns3:hr>97</ns3:hr>           </ns3:TrackPointExtension>         </extensions>       </trkpt>
       <trkpt lat="45.58834648691117763519287109375" lon="14.44727235473692417144775390625">         <ele>1795.5999755859375</ele>         <time>2026-02-28T11:29:31.000Z</time>         <extensions>           <ns3:TrackPointExtension>             <ns3:hr>100</ns3:hr>           </ns3:TrackPointExtension>         </extensions>       </trkpt>
       <trkpt lat="45.58834900148212909698486328125" lon="14.44727553986012935638427734375">         <ele>1795.800048828125</ele>         <time>2026-02-28T11:29:32.000Z</time>         <extensions>           <ns3:TrackPointExtension>             <ns3:hr>101</ns3:hr>           </ns3:TrackPointExtension>         </extensions>       </trkpt>
       <trkpt lat="45.58834858238697052001953125" lon="14.4472778029739856719970703125">         <ele>1796</ele>         <time>2026-02-28T11:29:34.000Z</time>         <extensions>           <ns3:TrackPointExtension>             <ns3:hr>102</ns3:hr>           </ns3:TrackPointExtension>         </extensions>       </trkpt>
       <trkpt lat="45.5883370153605937957763671875" lon="14.4472664035856723785400390625">         <ele>1796</ele>         <time>2026-02-28T11:29:41.000Z</time>         <extensions>           <ns3:TrackPointExtension>             <ns3:hr>103</ns3:hr>           </ns3:TrackPointExtension>         </extensions>       </trkpt>
       <trkpt lat="45.5883614905178546905517578125" lon="14.44730470888316631317138671875">         <ele>1794.199951171875</ele>         <time>2026-02-28T11:29:49.000Z</time>         <extensions>           <ns3:TrackPointExtension>             <ns3:hr>102</ns3:hr>           </ns3:TrackPointExtension>         </extensions>       </trkpt>
       <trkpt lat="45.58836593292653560638427734375" lon="14.44730806164443492889404296875">         <ele>1793.199951171875</ele>         <time>2026-02-28T11:29:53.000Z</time>         <extensions>           <ns3:TrackPointExtension>             <ns3:hr>102</ns3:hr>           </ns3:TrackPointExtension>         </extensions>       </trkpt>
       <trkpt lat="45.58836710639297962188720703125" lon="14.4473099894821643829345703125">         <ele>1792.199951171875</ele>         <time>2026-02-28T11:29:56.000Z</time>         <extensions>           <ns3:TrackPointExtension>             <ns3:hr>103</ns3:hr>           </ns3:TrackPointExtension>         </extensions>       </trkpt>
       <trkpt lat="45.588366687297821044921875" lon="14.44730822928249835968017578125">         <ele>1791.5999755859375</ele>         <time>2026-02-28T11:29:58.000Z</time>         <extensions>           <ns3:TrackPointExtension>             <ns3:hr>100</ns3:hr>           </ns3:TrackPointExtension>         </extensions>       </trkpt>
       <trkpt lat="45.5883648432791233062744140625" lon="14.44730487652122974395751953125">         <ele>1793.199951171875</ele>         <time>2026-02-28T11:30:04.000Z</time>         <extensions>           <ns3:TrackPointExtension>             <ns3:hr>103</ns3:hr>           </ns3:TrackPointExtension>         </extensions>       </trkpt>
       <trkpt lat="45.5883648432791233062744140625" lon="14.44730487652122974395751953125">         <ele>1793.5999755859375</ele>         <time>2026-02-28T11:30:05.000Z</time>         <extensions>           <ns3:TrackPointExtension>             <ns3:hr>104</ns3:hr>           </ns3:TrackPointExtension>         </extensions>       </trkpt>
       <trkpt lat="45.5883648432791233062744140625" lon="14.44730487652122974395751953125">         <ele>1794.199951171875</ele>         <time>2026-02-28T11:30:07.000Z</time>         <extensions>           <ns3:TrackPointExtension>             <ns3:hr>100</ns3:hr>           </ns3:TrackPointExtension>         </extensions>       </trkpt>
       <trkpt lat="45.5883648432791233062744140625" lon="14.44730487652122974395751953125">         <ele>1794.4000244140625</ele>         <time>2026-02-28T11:30:08.000Z</time>         <extensions>           <ns3:TrackPointExtension>             <ns3:hr>100</ns3:hr>           </ns3:TrackPointExtension>         </extensions>       </trkpt>
       <trkpt lat="45.5883648432791233062744140625" lon="14.44730487652122974395751953125">         <ele>1795.4000244140625</ele>         <time>2026-02-28T11:30:10.000Z</time>         <extensions>           <ns3:TrackPointExtension>             <ns3:hr>98</ns3:hr>           </ns3:TrackPointExtension>         </extensions>       </trkpt>
       <trkpt lat="45.588355623185634613037109375" lon="14.44729532115161418914794921875">         <ele>1796</ele>         <time>2026-02-28T11:30:17.000Z</time>         <extensions>           <ns3:TrackPointExtension>             <ns3:hr>100</ns3:hr>           </ns3:TrackPointExtension>         </extensions>       </trkpt>
       <trkpt lat="45.5883484147489070892333984375" lon="14.44726916961371898651123046875">         <ele>1796.4000244140625</ele>         <time>2026-02-28T11:30:21.000Z</time>         <extensions>           <ns3:TrackPointExtension>             <ns3:hr>97</ns3:hr>           </ns3:TrackPointExtension>         </extensions>       </trkpt>
       <trkpt lat="45.58834313414990901947021484375" lon="14.44726581685245037078857421875">         <ele>1796.800048828125</ele>         <time>2026-02-28T11:30:23.000Z</time>         <extensions>           <ns3:TrackPointExtension>             <ns3:hr>97</ns3:hr>           </ns3:TrackPointExtension>         </extensions>       </trkpt>
       <trkpt lat="45.58834816329181194305419921875" lon="14.44726531393826007843017578125">         <ele>1797</ele>         <time>2026-02-28T11:30:27.000Z</time>         <extensions>           <ns3:TrackPointExtension>             <ns3:hr>96</ns3:hr>           </ns3:TrackPointExtension>         </extensions>       </trkpt>
       <trkpt lat="45.58834581635892391204833984375" lon="14.44725525565445423126220703125">         <ele>1795.5999755859375</ele>         <time>2026-02-28T11:30:35.000Z</time>         <extensions>           <ns3:TrackPointExtension>             <ns3:hr>98</ns3:hr>           </ns3:TrackPointExtension>         </extensions>       </trkpt>
       <trkpt lat="45.5883467383682727813720703125" lon="14.44725508801639080047607421875">         <ele>1796</ele>         <time>2026-02-28T11:30:38.000Z</time>         <extensions>           <ns3:TrackPointExtension>             <ns3:hr>101</ns3:hr>           </ns3:TrackPointExtension>         </extensions>       </trkpt>
       <trkpt lat="45.5883467383682727813720703125" lon="14.44725508801639080047607421875">         <ele>1796</ele>         <time>2026-02-28T11:30:45.000Z</time>         <extensions>           <ns3:TrackPointExtension>             <ns3:hr>101</ns3:hr>           </ns3:TrackPointExtension>         </extensions>       </trkpt>
       <trkpt lat="45.5883467383682727813720703125" lon="14.44725508801639080047607421875">         <ele>1796.199951171875</ele>         <time>2026-02-28T11:30:48.000Z</time>         <extensions>           <ns3:TrackPointExtension>             <ns3:hr>104</ns3:hr>           </ns3:TrackPointExtension>         </extensions>       </trkpt>
       <trkpt lat="45.5883467383682727813720703125" lon="14.44725508801639080047607421875">         <ele>1796.4000244140625</ele>         <time>2026-02-28T11:30:54.000Z</time>         <extensions>           <ns3:TrackPointExtension>             <ns3:hr>102</ns3:hr>           </ns3:TrackPointExtension>         </extensions>       </trkpt>
       <trkpt lat="45.5883467383682727813720703125" lon="14.44725508801639080047607421875">         <ele>1796.199951171875</ele>         <time>2026-02-28T11:30:57.000Z</time>         <extensions>           <ns3:TrackPointExtension>             <ns3:hr>99</ns3:hr>           </ns3:TrackPointExtension>         </extensions>       </trkpt>
       <trkpt lat="45.5883467383682727813720703125" lon="14.44725508801639080047607421875">         <ele>1796.5999755859375</ele>         <time>2026-02-28T11:31:01.000Z</time>         <extensions>           <ns3:TrackPointExtension>             <ns3:hr>96</ns3:hr>           </ns3:TrackPointExtension>         </extensions>       </trkpt>
       <trkpt lat="45.5883467383682727813720703125" lon="14.44725508801639080047607421875">         <ele>1796.5999755859375</ele>         <time>2026-02-28T11:31:03.000Z</time>         <extensions>           <ns3:TrackPointExtension>             <ns3:hr>96</ns3:hr>           </ns3:TrackPointExtension>         </extensions>       </trkpt>
       <trkpt lat="45.5883467383682727813720703125" lon="14.44725508801639080047607421875">         <ele>1796</ele>         <time>2026-02-28T11:31:11.000Z</time>         <extensions>           <ns3:TrackPointExtension>             <ns3:hr>98</ns3:hr>           </ns3:TrackPointExtension>         </extensions>       </trkpt>
       <trkpt lat="45.5883467383682727813720703125" lon="14.44725508801639080047607421875">         <ele>1796</ele>         <time>2026-02-28T11:31:13.000Z</time>         <extensions>           <ns3:TrackPointExtension>             <ns3:hr>101</ns3:hr>           </ns3:TrackPointExtension>         </extensions>       </trkpt>
       <trkpt lat="45.5883467383682727813720703125" lon="14.44725508801639080047607421875">         <ele>1795.4000244140625</ele>         <time>2026-02-28T11:31:18.000Z</time>         <extensions>           <ns3:TrackPointExtension>             <ns3:hr>102</ns3:hr>           </ns3:TrackPointExtension>         </extensions>       </trkpt>
       <trkpt lat="45.5883467383682727813720703125" lon="14.44725508801639080047607421875">         <ele>1795.4000244140625</ele>         <time>2026-02-28T11:31:19.000Z</time>         <extensions>           <ns3:TrackPointExtension>             <ns3:hr>102</ns3:hr>           </ns3:TrackPointExtension>         </extensions>       </trkpt>
       <trkpt lat="45.58834581635892391204833984375" lon="14.4472714327275753021240234375">         <ele>1795</ele>         <time>2026-02-28T11:31:26.000Z</time>         <extensions>           <ns3:TrackPointExtension>             <ns3:hr>103</ns3:hr>           </ns3:TrackPointExtension>         </extensions>       </trkpt>
       <trkpt lat="45.58836467564105987548828125" lon="14.4472868554294109344482421875">         <ele>1796.5999755859375</ele>         <time>2026-02-28T11:31:30.000Z</time>         <extensions>           <ns3:TrackPointExtension>             <ns3:hr>104</ns3:hr>           </ns3:TrackPointExtension>         </extensions>       </trkpt>
       <trkpt lat="45.5883707106113433837890625" lon="14.44728945381939411163330078125">         <ele>1796.4000244140625</ele>         <time>2026-02-28T11:31:31.000Z</time>         <extensions>           <ns3:TrackPointExtension>             <ns3:hr>104</ns3:hr>           </ns3:TrackPointExtension>         </extensions>       </trkpt>
       <trkpt lat="45.58836895041167736053466796875" lon="14.44728828035295009613037109375">         <ele>1795</ele>         <time>2026-02-28T11:31:37.000Z</time>         <extensions>           <ns3:TrackPointExtension>             <ns3:hr>104</ns3:hr>           </ns3:TrackPointExtension>         </extensions>       </trkpt>
       <trkpt lat="45.58837900869548320770263671875" lon="14.447290040552616119384765625">         <ele>1795</ele>         <time>2026-02-28T11:31:42.000Z</time>         <extensions>           <ns3:TrackPointExtension>             <ns3:hr>102</ns3:hr>           </ns3:TrackPointExtension>         </extensions>       </trkpt>
       <trkpt lat="45.5883762426674365997314453125" lon="14.44729381240904331207275390625">         <ele>1796</ele>         <time>2026-02-28T11:31:46.000Z</time>         <extensions>           <ns3:TrackPointExtension>             <ns3:hr>102</ns3:hr>           </ns3:TrackPointExtension>         </extensions>       </trkpt>
       <trkpt lat="45.5883598141372203826904296875" lon="14.4472798146307468414306640625">         <ele>1796</ele>         <time>2026-02-28T11:31:49.000Z</time>         <extensions>           <ns3:TrackPointExtension>             <ns3:hr>102</ns3:hr>           </ns3:TrackPointExtension>         </extensions>       </trkpt>
       <trkpt lat="45.58835017494857311248779296875" lon="14.44727654568850994110107421875">         <ele>1795.199951171875</ele>         <time>2026-02-28T11:31:54.000Z</time>         <extensions>           <ns3:TrackPointExtension>             <ns3:hr>103</ns3:hr>           </ns3:TrackPointExtension>         </extensions>       </trkpt>
       <trkpt lat="45.58834900148212909698486328125" lon="14.44727000780403614044189453125">         <ele>1795</ele>         <time>2026-02-28T11:31:55.000Z</time>         <extensions>           <ns3:TrackPointExtension>             <ns3:hr>104</ns3:hr>           </ns3:TrackPointExtension>         </extensions>       </trkpt>
       <trkpt lat="45.5883440561592578887939453125" lon="14.447265565395355224609375">         <ele>1795.4000244140625</ele>         <time>2026-02-28T11:32:01.000Z</time>         <extensions>           <ns3:TrackPointExtension>             <ns3:hr>104</ns3:hr>           </ns3:TrackPointExtension>         </extensions>       </trkpt>
       <trkpt lat="45.58835101313889026641845703125" lon="14.44727101363241672515869140625">         <ele>1795.199951171875</ele>         <time>2026-02-28T11:32:05.000Z</time>         <extensions>           <ns3:TrackPointExtension>             <ns3:hr>101</ns3:hr>           </ns3:TrackPointExtension>         </extensions>       </trkpt>
       <trkpt lat="45.5883480794727802276611328125" lon="14.4472657330334186553955078125">         <ele>1795</ele>         <time>2026-02-28T11:32:12.000Z</time>         <extensions>           <ns3:TrackPointExtension>             <ns3:hr>98</ns3:hr>           </ns3:TrackPointExtension>         </extensions>       </trkpt>
       <trkpt lat="45.58834866620600223541259765625" lon="14.44726497866213321685791015625">         <ele>1795.199951171875</ele>         <time>2026-02-28T11:32:17.000Z</time>         <extensions>           <ns3:TrackPointExtension>             <ns3:hr>99</ns3:hr>           </ns3:TrackPointExtension>         </extensions>       </trkpt>
       <trkpt lat="45.588352270424365997314453125" lon="14.44727218709886074066162109375">         <ele>1794.5999755859375</ele>         <time>2026-02-28T11:32:19.000Z</time>         <extensions>           <ns3:TrackPointExtension>             <ns3:hr>95</ns3:hr>           </ns3:TrackPointExtension>         </extensions>       </trkpt>
       <trkpt lat="45.5883544497191905975341796875" lon="14.44727319292724132537841796875">         <ele>1794.199951171875</ele>         <time>2026-02-28T11:32:22.000Z</time>         <extensions>           <ns3:TrackPointExtension>             <ns3:hr>93</ns3:hr>           </ns3:TrackPointExtension>         </extensions>       </trkpt>
       <trkpt lat="45.5883544497191905975341796875" lon="14.44727319292724132537841796875">         <ele>1794.4000244140625</ele>         <time>2026-02-28T11:32:26.000Z</time>         <extensions>           <ns3:TrackPointExtension>             <ns3:hr>90</ns3:hr>           </ns3:TrackPointExtension>         </extensions>       </trkpt>
       <trkpt lat="45.5883544497191905975341796875" lon="14.44727319292724132537841796875">         <ele>1794.4000244140625</ele>         <time>2026-02-28T11:32:27.000Z</time>         <extensions>           <ns3:TrackPointExtension>             <ns3:hr>93</ns3:hr>           </ns3:TrackPointExtension>         </extensions>       </trkpt>
       <trkpt lat="45.5883544497191905975341796875" lon="14.44727319292724132537841796875">         <ele>1794.199951171875</ele>         <time>2026-02-28T11:32:29.000Z</time>         <extensions>           <ns3:TrackPointExtension>             <ns3:hr>97</ns3:hr>           </ns3:TrackPointExtension>         </extensions>       </trkpt>
       <trkpt lat="45.5883544497191905975341796875" lon="14.44727319292724132537841796875">         <ele>1794</ele>         <time>2026-02-28T11:32:33.000Z</time>         <extensions>           <ns3:TrackPointExtension>             <ns3:hr>101</ns3:hr>           </ns3:TrackPointExtension>         </extensions>       </trkpt>
       <trkpt lat="45.5883544497191905975341796875" lon="14.44727319292724132537841796875">         <ele>1793.4000244140625</ele>         <time>2026-02-28T11:32:37.000Z</time>         <extensions>           <ns3:TrackPointExtension>             <ns3:hr>104</ns3:hr>           </ns3:TrackPointExtension>         </extensions>       </trkpt>
       <trkpt lat="45.5883544497191905975341796875" lon="14.44727319292724132537841796875">         <ele>1792.800048828125</ele>         <time>2026-02-28T11:32:43.000Z</time>         <extensions>           <ns3:TrackPointExtension>             <ns3:hr>105</ns3:hr>           </ns3:TrackPointExtension>         </extensions>       </trkpt>
       <trkpt lat="45.5883544497191905975341796875" lon="14.44727319292724132537841796875">         <ele>1792.800048828125</ele>         <time>2026-02-28T11:32:46.000Z</time>         <extensions>           <ns3:TrackPointExtension>             <ns3:hr>105</ns3:hr>           </ns3:TrackPointExtension>         </extensions>       </trkpt>
       <trkpt lat="45.5883544497191905975341796875" lon="14.44727319292724132537841796875">         <ele>1793.4000244140625</ele>         <time>2026-02-28T11:32:50.000Z</time>         <extensions>           <ns3:TrackPointExtension>             <ns3:hr>102</ns3:hr>           </ns3:TrackPointExtension>         </extensions>       </trkpt>
       <trkpt lat="45.5883544497191905975341796875" lon="14.44727319292724132537841796875">         <ele>1793.5999755859375</ele>         <time>2026-02-28T11:32:52.000Z</time>         <extensions>           <ns3:TrackPointExtension>             <ns3:hr>99</ns3:hr>           </ns3:TrackPointExtension>         </extensions>       </trkpt>
       <trkpt lat="45.5883544497191905975341796875" lon="14.44727319292724132537841796875">         <ele>1793.800048828125</ele>         <time>2026-02-28T11:32:54.000Z</time>         <extensions>           <ns3:TrackPointExtension>             <ns3:hr>97</ns3:hr>           </ns3:TrackPointExtension>         </extensions>       </trkpt>
       <trkpt lat="45.5883544497191905975341796875" lon="14.44727319292724132537841796875">         <ele>1794</ele>         <time>2026-02-28T11:32:55.000Z</time>         <extensions>           <ns3:TrackPointExtension>             <ns3:hr>96</ns3:hr>           </ns3:TrackPointExtension>         </extensions>       </trkpt>
       <trkpt lat="45.5883544497191905975341796875" lon="14.44727319292724132537841796875">         <ele>1794.5999755859375</ele>         <time>2026-02-28T11:33:01.000Z</time>         <extensions>           <ns3:TrackPointExtension>             <ns3:hr>97</ns3:hr>           </ns3:TrackPointExtension>         </extensions>       </trkpt>
       <trkpt lat="45.5883544497191905975341796875" lon="14.44727319292724132537841796875">         <ele>1794.800048828125</ele>         <time>2026-02-28T11:33:02.000Z</time>         <extensions>           <ns3:TrackPointExtension>             <ns3:hr>100</ns3:hr>           </ns3:TrackPointExtension>         </extensions>       </trkpt>
       <trkpt lat="45.5883544497191905975341796875" lon="14.44727319292724132537841796875">         <ele>1794.800048828125</ele>         <time>2026-02-28T11:33:04.000Z</time>         <extensions>           <ns3:TrackPointExtension>             <ns3:hr>105</ns3:hr>           </ns3:TrackPointExtension>         </extensions>       </trkpt>
       <trkpt lat="45.5883544497191905975341796875" lon="14.44727319292724132537841796875">         <ele>1794.800048828125</ele>         <time>2026-02-28T11:33:06.000Z</time>         <extensions>           <ns3:TrackPointExtension>             <ns3:hr>110</ns3:hr>           </ns3:TrackPointExtension>         </extensions>       </trkpt>
       <trkpt lat="45.5883544497191905975341796875" lon="14.44727319292724132537841796875">         <ele>1794.4000244140625</ele>         <time>2026-02-28T11:33:08.000Z</time>         <extensions>           <ns3:TrackPointExtension>             <ns3:hr>113</ns3:hr>           </ns3:TrackPointExtension>         </extensions>       </trkpt>
       <trkpt lat="45.5883544497191905975341796875" lon="14.44727319292724132537841796875">         <ele>1794</ele>         <time>2026-02-28T11:33:12.000Z</time>         <extensions>           <ns3:TrackPointExtension>             <ns3:hr>116</ns3:hr>           </ns3:TrackPointExtension>         </extensions>       </trkpt>
       <trkpt lat="45.5883544497191905975341796875" lon="14.44727319292724132537841796875">         <ele>1794</ele>         <time>2026-02-28T11:33:14.000Z</time>         <extensions>           <ns3:TrackPointExtension>             <ns3:hr>118</ns3:hr>           </ns3:TrackPointExtension>         </extensions>       </trkpt>
       <trkpt lat="45.5883544497191905975341796875" lon="14.44727319292724132537841796875">         <ele>1793.800048828125</ele>         <time>2026-02-28T11:33:18.000Z</time>         <extensions>           <ns3:TrackPointExtension>             <ns3:hr>120</ns3:hr>           </ns3:TrackPointExtension>         </extensions>       </trkpt>
       <trkpt lat="45.5883544497191905975341796875" lon="14.44727319292724132537841796875">         <ele>1793.5999755859375</ele>         <time>2026-02-28T11:33:21.000Z</time>         <extensions>           <ns3:TrackPointExtension>             <ns3:hr>122</ns3:hr>           </ns3:TrackPointExtension>         </extensions>       </trkpt>
       <trkpt lat="45.5883544497191905975341796875" lon="14.44727319292724132537841796875">         <ele>1794.800048828125</ele>         <time>2026-02-28T11:33:29.000Z</time>         <extensions>           <ns3:TrackPointExtension>             <ns3:hr>122</ns3:hr>           </ns3:TrackPointExtension>         </extensions>       </trkpt>
       <trkpt lat="45.5883544497191905975341796875" lon="14.44727319292724132537841796875">         <ele>1795.199951171875</ele>         <time>2026-02-28T11:33:33.000Z</time>         <extensions>           <ns3:TrackPointExtension>             <ns3:hr>119</ns3:hr>           </ns3:TrackPointExtension>         </extensions>       </trkpt>
       <trkpt lat="45.5883544497191905975341796875" lon="14.44727319292724132537841796875">         <ele>1794.5999755859375</ele>         <time>2026-02-28T11:33:37.000Z</time>         <extensions>           <ns3:TrackPointExtension>             <ns3:hr>116</ns3:hr>           </ns3:TrackPointExtension>         </extensions>       </trkpt>
       <trkpt lat="45.5883544497191905975341796875" lon="14.44727319292724132537841796875">         <ele>1794.199951171875</ele>         <time>2026-02-28T11:33:39.000Z</time>         <extensions>           <ns3:TrackPointExtension>             <ns3:hr>113</ns3:hr>           </ns3:TrackPointExtension>         </extensions>       </trkpt>
       <trkpt lat="45.5883544497191905975341796875" lon="14.44727319292724132537841796875">         <ele>1793.5999755859375</ele>         <time>2026-02-28T11:33:41.000Z</time>         <extensions>           <ns3:TrackPointExtension>             <ns3:hr>112</ns3:hr>           </ns3:TrackPointExtension>         </extensions>       </trkpt>
       <trkpt lat="45.5883544497191905975341796875" lon="14.44727319292724132537841796875">         <ele>1793.800048828125</ele>         <time>2026-02-28T11:33:43.000Z</time>         <extensions>           <ns3:TrackPointExtension>             <ns3:hr>109</ns3:hr>           </ns3:TrackPointExtension>         </extensions>       </trkpt>
       <trkpt lat="45.5883544497191905975341796875" lon="14.44727319292724132537841796875">         <ele>1793.5999755859375</ele>         <time>2026-02-28T11:33:46.000Z</time>         <extensions>           <ns3:TrackPointExtension>             <ns3:hr>105</ns3:hr>           </ns3:TrackPointExtension>         </extensions>       </trkpt>
       <trkpt lat="45.5883544497191905975341796875" lon="14.44727319292724132537841796875">         <ele>1793</ele>         <time>2026-02-28T11:33:48.000Z</time>         <extensions>           <ns3:TrackPointExtension>             <ns3:hr>101</ns3:hr>           </ns3:TrackPointExtension>         </extensions>       </trkpt>
       <trkpt lat="45.5883544497191905975341796875" lon="14.44727319292724132537841796875">         <ele>1792.5999755859375</ele>         <time>2026-02-28T11:33:51.000Z</time>         <extensions>           <ns3:TrackPointExtension>             <ns3:hr>94</ns3:hr>           </ns3:TrackPointExtension>         </extensions>       </trkpt>
       <trkpt lat="45.5883544497191905975341796875" lon="14.44727319292724132537841796875">         <ele>1792.800048828125</ele>         <time>2026-02-28T11:33:52.000Z</time>         <extensions>           <ns3:TrackPointExtension>             <ns3:hr>94</ns3:hr>           </ns3:TrackPointExtension>         </extensions>       </trkpt>
       <trkpt lat="45.5883544497191905975341796875" lon="14.44727319292724132537841796875">         <ele>1793.5999755859375</ele>         <time>2026-02-28T11:33:55.000Z</time>         <extensions>           <ns3:TrackPointExtension>             <ns3:hr>93</ns3:hr>           </ns3:TrackPointExtension>         </extensions>       </trkpt>
       <trkpt lat="45.5883544497191905975341796875" lon="14.44727319292724132537841796875">         <ele>1793.199951171875</ele>         <time>2026-02-28T11:34:05.000Z</time>         <extensions>           <ns3:TrackPointExtension>             <ns3:hr>96</ns3:hr>           </ns3:TrackPointExtension>         </extensions>       </trkpt>
       <trkpt lat="45.5883544497191905975341796875" lon="14.44727319292724132537841796875">         <ele>1793.199951171875</ele>         <time>2026-02-28T11:34:06.000Z</time>         <extensions>           <ns3:TrackPointExtension>             <ns3:hr>96</ns3:hr>           </ns3:TrackPointExtension>         </extensions>       </trkpt>
       <trkpt lat="45.5883544497191905975341796875" lon="14.44727319292724132537841796875">         <ele>1793.199951171875</ele>         <time>2026-02-28T11:34:08.000Z</time>         <extensions>           <ns3:TrackPointExtension>             <ns3:hr>99</ns3:hr>           </ns3:TrackPointExtension>         </extensions>       </trkpt>
       <trkpt lat="45.5883544497191905975341796875" lon="14.44727319292724132537841796875">         <ele>1793</ele>         <time>2026-02-28T11:34:15.000Z</time>         <extensions>           <ns3:TrackPointExtension>             <ns3:hr>102</ns3:hr>           </ns3:TrackPointExtension>         </extensions>       </trkpt>
       <trkpt lat="45.58835302479565143585205078125" lon="14.44726933725178241729736328125">         <ele>1793.5999755859375</ele>         <time>2026-02-28T11:34:18.000Z</time>         <extensions>           <ns3:TrackPointExtension>             <ns3:hr>102</ns3:hr>           </ns3:TrackPointExtension>         </extensions>       </trkpt>
       <trkpt lat="45.58835805393755435943603515625" lon="14.447281993925571441650390625">         <ele>1793.800048828125</ele>         <time>2026-02-28T11:34:24.000Z</time>         <extensions>           <ns3:TrackPointExtension>             <ns3:hr>105</ns3:hr>           </ns3:TrackPointExtension>         </extensions>       </trkpt>
       <trkpt lat="45.5883544497191905975341796875" lon="14.44727319292724132537841796875">         <ele>1793.4000244140625</ele>         <time>2026-02-28T11:34:33.000Z</time>         <extensions>           <ns3:TrackPointExtension>             <ns3:hr>105</ns3:hr>           </ns3:TrackPointExtension>         </extensions>       </trkpt>
       <trkpt lat="45.5883544497191905975341796875" lon="14.44727319292724132537841796875">         <ele>1793.800048828125</ele>         <time>2026-02-28T11:34:37.000Z</time>         <extensions>           <ns3:TrackPointExtension>             <ns3:hr>112</ns3:hr>           </ns3:TrackPointExtension>         </extensions>       </trkpt>
       <trkpt lat="45.5883544497191905975341796875" lon="14.44727319292724132537841796875">         <ele>1793.800048828125</ele>         <time>2026-02-28T11:34:40.000Z</time>         <extensions>           <ns3:TrackPointExtension>             <ns3:hr>121</ns3:hr>           </ns3:TrackPointExtension>         </extensions>       </trkpt>
       <trkpt lat="45.5883544497191905975341796875" lon="14.44727319292724132537841796875">         <ele>1793.800048828125</ele>         <time>2026-02-28T11:34:41.000Z</time>         <extensions>           <ns3:TrackPointExtension>             <ns3:hr>126</ns3:hr>           </ns3:TrackPointExtension>         </extensions>       </trkpt>
       <trkpt lat="45.5883544497191905975341796875" lon="14.44727319292724132537841796875">         <ele>1793.4000244140625</ele>         <time>2026-02-28T11:34:45.000Z</time>         <extensions>           <ns3:TrackPointExtension>             <ns3:hr>129</ns3:hr>           </ns3:TrackPointExtension>         </extensions>       </trkpt>
       <trkpt lat="45.5883544497191905975341796875" lon="14.44727319292724132537841796875">         <ele>1793.4000244140625</ele>         <time>2026-02-28T11:34:46.000Z</time>         <extensions>           <ns3:TrackPointExtension>             <ns3:hr>129</ns3:hr>           </ns3:TrackPointExtension>         </extensions>       </trkpt>
       <trkpt lat="45.5883544497191905975341796875" lon="14.44727319292724132537841796875">         <ele>1793.5999755859375</ele>         <time>2026-02-28T11:34:49.000Z</time>         <extensions>           <ns3:TrackPointExtension>             <ns3:hr>126</ns3:hr>           </ns3:TrackPointExtension>         </extensions>       </trkpt>
       <trkpt lat="45.5883544497191905975341796875" lon="14.44727319292724132537841796875">         <ele>1793.800048828125</ele>         <time>2026-02-28T11:34:58.000Z</time>         <extensions>           <ns3:TrackPointExtension>             <ns3:hr>127</ns3:hr>           </ns3:TrackPointExtension>         </extensions>       </trkpt>
       <trkpt lat="45.58836040087044239044189453125" lon="14.447270594537258148193359375">         <ele>1793</ele>         <time>2026-02-28T11:35:05.000Z</time>         <extensions>           <ns3:TrackPointExtension>             <ns3:hr>126</ns3:hr>           </ns3:TrackPointExtension>         </extensions>       </trkpt>
       <trkpt lat="45.58835637755692005157470703125" lon="14.447277300059795379638671875">         <ele>1793.4000244140625</ele>         <time>2026-02-28T11:35:07.000Z</time>         <extensions>           <ns3:TrackPointExtension>             <ns3:hr>123</ns3:hr>           </ns3:TrackPointExtension>         </extensions>       </trkpt>
       <trkpt lat="45.58835721574723720550537109375" lon="14.4472667388617992401123046875">         <ele>1792.5999755859375</ele>         <time>2026-02-28T11:35:13.000Z</time>         <extensions>           <ns3:TrackPointExtension>             <ns3:hr>120</ns3:hr>           </ns3:TrackPointExtension>         </extensions>       </trkpt>
       <trkpt lat="45.5883574672043323516845703125" lon="14.447269923985004425048828125">         <ele>1792.5999755859375</ele>         <time>2026-02-28T11:35:14.000Z</time>         <extensions>           <ns3:TrackPointExtension>             <ns3:hr>119</ns3:hr>           </ns3:TrackPointExtension>         </extensions>       </trkpt>
       <trkpt lat="45.5883544497191905975341796875" lon="14.44727319292724132537841796875">         <ele>1792.800048828125</ele>         <time>2026-02-28T11:35:23.000Z</time>         <extensions>           <ns3:TrackPointExtension>             <ns3:hr>114</ns3:hr>           </ns3:TrackPointExtension>         </extensions>       </trkpt>
       <trkpt lat="45.5883544497191905975341796875" lon="14.44727319292724132537841796875">         <ele>1792.800048828125</ele>         <time>2026-02-28T11:35:24.000Z</time>         <extensions>           <ns3:TrackPointExtension>             <ns3:hr>111</ns3:hr>           </ns3:TrackPointExtension>         </extensions>       </trkpt>
       <trkpt lat="45.5883544497191905975341796875" lon="14.44727319292724132537841796875">         <ele>1792.5999755859375</ele>         <time>2026-02-28T11:35:26.000Z</time>         <extensions>           <ns3:TrackPointExtension>             <ns3:hr>108</ns3:hr>           </ns3:TrackPointExtension>         </extensions>       </trkpt>
       <trkpt lat="45.5883544497191905975341796875" lon="14.44727319292724132537841796875">         <ele>1792.199951171875</ele>         <time>2026-02-28T11:35:31.000Z</time>         <extensions>           <ns3:TrackPointExtension>             <ns3:hr>105</ns3:hr>           </ns3:TrackPointExtension>         </extensions>       </trkpt>
       <trkpt lat="45.5883544497191905975341796875" lon="14.44727319292724132537841796875">         <ele>1792.199951171875</ele>         <time>2026-02-28T11:35:33.000Z</time>         <extensions>           <ns3:TrackPointExtension>             <ns3:hr>105</ns3:hr>           </ns3:TrackPointExtension>         </extensions>       </trkpt>
       <trkpt lat="45.58835553936660289764404296875" lon="14.44726665504276752471923828125">         <ele>1791.800048828125</ele>         <time>2026-02-28T11:35:39.000Z</time>         <extensions>           <ns3:TrackPointExtension>             <ns3:hr>111</ns3:hr>           </ns3:TrackPointExtension>         </extensions>       </trkpt>
       <trkpt lat="45.58835838921368122100830078125" lon="14.447267241775989532470703125">         <ele>1791.800048828125</ele>         <time>2026-02-28T11:35:40.000Z</time>         <extensions>           <ns3:TrackPointExtension>             <ns3:hr>111</ns3:hr>           </ns3:TrackPointExtension>         </extensions>       </trkpt>
       <trkpt lat="45.58835956268012523651123046875" lon="14.44726489484310150146484375">         <ele>1791.5999755859375</ele>         <time>2026-02-28T11:35:42.000Z</time>         <extensions>           <ns3:TrackPointExtension>             <ns3:hr>119</ns3:hr>           </ns3:TrackPointExtension>         </extensions>       </trkpt>
       <trkpt lat="45.58835838921368122100830078125" lon="14.4472647272050380706787109375">         <ele>1791.5999755859375</ele>         <time>2026-02-28T11:35:43.000Z</time>         <extensions>           <ns3:TrackPointExtension>             <ns3:hr>119</ns3:hr>           </ns3:TrackPointExtension>         </extensions>       </trkpt>
       <trkpt lat="45.5883500911295413970947265625" lon="14.44726623594760894775390625">         <ele>1791.800048828125</ele>         <time>2026-02-28T11:35:51.000Z</time>         <extensions>           <ns3:TrackPointExtension>             <ns3:hr>117</ns3:hr>           </ns3:TrackPointExtension>         </extensions>       </trkpt>
       <trkpt lat="45.5883544497191905975341796875" lon="14.44727319292724132537841796875">         <ele>1791.5999755859375</ele>         <time>2026-02-28T11:36:01.000Z</time>         <extensions>           <ns3:TrackPointExtension>             <ns3:hr>116</ns3:hr>           </ns3:TrackPointExtension>         </extensions>       </trkpt>
       <trkpt lat="45.5883544497191905975341796875" lon="14.44727319292724132537841796875">         <ele>1792</ele>         <time>2026-02-28T11:36:10.000Z</time>         <extensions>           <ns3:TrackPointExtension>             <ns3:hr>118</ns3:hr>           </ns3:TrackPointExtension>         </extensions>       </trkpt>
       <trkpt lat="45.5883544497191905975341796875" lon="14.44727319292724132537841796875">         <ele>1792.199951171875</ele>         <time>2026-02-28T11:36:14.000Z</time>         <extensions>           <ns3:TrackPointExtension>             <ns3:hr>115</ns3:hr>           </ns3:TrackPointExtension>         </extensions>       </trkpt>
       <trkpt lat="45.5883500911295413970947265625" lon="14.447271265089511871337890625">         <ele>1791.5999755859375</ele>         <time>2026-02-28T11:36:21.000Z</time>         <extensions>           <ns3:TrackPointExtension>             <ns3:hr>114</ns3:hr>           </ns3:TrackPointExtension>         </extensions>       </trkpt>
       <trkpt lat="45.5883487500250339508056640625" lon="14.447257183492183685302734375">         <ele>1792.4000244140625</ele>         <time>2026-02-28T11:36:28.000Z</time>         <extensions>           <ns3:TrackPointExtension>             <ns3:hr>116</ns3:hr>           </ns3:TrackPointExtension>         </extensions>       </trkpt>
       <trkpt lat="45.5883544497191905975341796875" lon="14.44727319292724132537841796875">         <ele>1792</ele>         <time>2026-02-28T11:36:32.000Z</time>         <extensions>           <ns3:TrackPointExtension>             <ns3:hr>119</ns3:hr>           </ns3:TrackPointExtension>         </extensions>       </trkpt>
       <trkpt lat="45.58835352770984172821044921875" lon="14.44726112298667430877685546875">         <ele>1792.4000244140625</ele>         <time>2026-02-28T11:36:36.000Z</time>         <extensions>           <ns3:TrackPointExtension>             <ns3:hr>119</ns3:hr>           </ns3:TrackPointExtension>         </extensions>       </trkpt>
       <trkpt lat="45.58835134841501712799072265625" lon="14.44726430810987949371337890625">         <ele>1792.5999755859375</ele>         <time>2026-02-28T11:36:38.000Z</time>         <extensions>           <ns3:TrackPointExtension>             <ns3:hr>118</ns3:hr>           </ns3:TrackPointExtension>         </extensions>       </trkpt>
       <trkpt lat="45.588353611528873443603515625" lon="14.4472653977572917938232421875">         <ele>1793</ele>         <time>2026-02-28T11:36:40.000Z</time>         <extensions>           <ns3:TrackPointExtension>             <ns3:hr>113</ns3:hr>           </ns3:TrackPointExtension>         </extensions>       </trkpt>
       <trkpt lat="45.58835553936660289764404296875" lon="14.44726430810987949371337890625">         <ele>1793</ele>         <time>2026-02-28T11:36:41.000Z</time>         <extensions>           <ns3:TrackPointExtension>             <ns3:hr>113</ns3:hr>           </ns3:TrackPointExtension>         </extensions>       </trkpt>
       <trkpt lat="45.58835822157561779022216796875" lon="14.44726414047181606292724609375">         <ele>1793.4000244140625</ele>         <time>2026-02-28T11:36:42.000Z</time>         <extensions>           <ns3:TrackPointExtension>             <ns3:hr>108</ns3:hr>           </ns3:TrackPointExtension>         </extensions>       </trkpt>
       <trkpt lat="45.58835889212787151336669921875" lon="14.447251819074153900146484375">         <ele>1793.5999755859375</ele>         <time>2026-02-28T11:36:43.000Z</time>         <extensions>           <ns3:TrackPointExtension>             <ns3:hr>102</ns3:hr>           </ns3:TrackPointExtension>         </extensions>       </trkpt>
       <trkpt lat="45.58836123906075954437255859375" lon="14.44725693203508853912353515625">         <ele>1793.5999755859375</ele>         <time>2026-02-28T11:36:44.000Z</time>         <extensions>           <ns3:TrackPointExtension>             <ns3:hr>100</ns3:hr>           </ns3:TrackPointExtension>         </extensions>       </trkpt>
       <trkpt lat="45.5883638374507427215576171875" lon="14.4472640566527843475341796875">         <ele>1794</ele>         <time>2026-02-28T11:36:46.000Z</time>         <extensions>           <ns3:TrackPointExtension>             <ns3:hr>99</ns3:hr>           </ns3:TrackPointExtension>         </extensions>       </trkpt>
       <trkpt lat="45.58836408890783786773681640625" lon="14.4472573511302471160888671875">         <ele>1793.5999755859375</ele>         <time>2026-02-28T11:36:51.000Z</time>         <extensions>           <ns3:TrackPointExtension>             <ns3:hr>102</ns3:hr>           </ns3:TrackPointExtension>         </extensions>       </trkpt>
       <trkpt lat="45.58836509473621845245361328125" lon="14.44726212881505489349365234375">         <ele>1793.5999755859375</ele>         <time>2026-02-28T11:36:53.000Z</time>         <extensions>           <ns3:TrackPointExtension>             <ns3:hr>102</ns3:hr>           </ns3:TrackPointExtension>         </extensions>       </trkpt>
       <trkpt lat="45.588354282081127166748046875" lon="14.4472774676978588104248046875">         <ele>1794.199951171875</ele>         <time>2026-02-28T11:37:01.000Z</time>         <extensions>           <ns3:TrackPointExtension>             <ns3:hr>104</ns3:hr>           </ns3:TrackPointExtension>         </extensions>       </trkpt>
       <trkpt lat="45.5883544497191905975341796875" lon="14.44727319292724132537841796875">         <ele>1794.800048828125</ele>         <time>2026-02-28T11:37:05.000Z</time>         <extensions>           <ns3:TrackPointExtension>             <ns3:hr>104</ns3:hr>           </ns3:TrackPointExtension>         </extensions>       </trkpt>
       <trkpt lat="45.5883544497191905975341796875" lon="14.44727319292724132537841796875">         <ele>1794.4000244140625</ele>         <time>2026-02-28T11:37:11.000Z</time>         <extensions>           <ns3:TrackPointExtension>             <ns3:hr>105</ns3:hr>           </ns3:TrackPointExtension>         </extensions>       </trkpt>
       <trkpt lat="45.5883544497191905975341796875" lon="14.44727319292724132537841796875">         <ele>1794.4000244140625</ele>         <time>2026-02-28T11:37:15.000Z</time>         <extensions>           <ns3:TrackPointExtension>             <ns3:hr>109</ns3:hr>           </ns3:TrackPointExtension>         </extensions>       </trkpt>
       <trkpt lat="45.5883544497191905975341796875" lon="14.44727319292724132537841796875">         <ele>1794.800048828125</ele>         <time>2026-02-28T11:37:18.000Z</time>         <extensions>           <ns3:TrackPointExtension>             <ns3:hr>112</ns3:hr>           </ns3:TrackPointExtension>         </extensions>       </trkpt>
       <trkpt lat="45.5883544497191905975341796875" lon="14.44727319292724132537841796875">         <ele>1793.800048828125</ele>         <time>2026-02-28T11:37:24.000Z</time>         <extensions>           <ns3:TrackPointExtension>             <ns3:hr>112</ns3:hr>           </ns3:TrackPointExtension>         </extensions>       </trkpt>
       <trkpt lat="45.5883544497191905975341796875" lon="14.44727319292724132537841796875">         <ele>1793.4000244140625</ele>         <time>2026-02-28T11:37:26.000Z</time>         <extensions>           <ns3:TrackPointExtension>             <ns3:hr>108</ns3:hr>           </ns3:TrackPointExtension>         </extensions>       </trkpt>
       <trkpt lat="45.5883544497191905975341796875" lon="14.44727319292724132537841796875">         <ele>1793.4000244140625</ele>         <time>2026-02-28T11:37:27.000Z</time>         <extensions>           <ns3:TrackPointExtension>             <ns3:hr>107</ns3:hr>           </ns3:TrackPointExtension>         </extensions>       </trkpt>
       <trkpt lat="45.58834866620600223541259765625" lon="14.44727973081171512603759765625">         <ele>1793.5999755859375</ele>         <time>2026-02-28T11:37:34.000Z</time>         <extensions>           <ns3:TrackPointExtension>             <ns3:hr>109</ns3:hr>           </ns3:TrackPointExtension>         </extensions>       </trkpt>
       <trkpt lat="45.58834615163505077362060546875" lon="14.44728459231555461883544921875">         <ele>1792.5999755859375</ele>         <time>2026-02-28T11:37:39.000Z</time>         <extensions>           <ns3:TrackPointExtension>             <ns3:hr>108</ns3:hr>           </ns3:TrackPointExtension>         </extensions>       </trkpt>
       <trkpt lat="45.5883497558534145355224609375" lon="14.44728123955428600311279296875">         <ele>1793.5999755859375</ele>         <time>2026-02-28T11:37:47.000Z</time>         <extensions>           <ns3:TrackPointExtension>             <ns3:hr>107</ns3:hr>           </ns3:TrackPointExtension>         </extensions>       </trkpt>
       <trkpt lat="45.5883484147489070892333984375" lon="14.44728174246847629547119140625">         <ele>1793.800048828125</ele>         <time>2026-02-28T11:37:48.000Z</time>         <extensions>           <ns3:TrackPointExtension>             <ns3:hr>107</ns3:hr>           </ns3:TrackPointExtension>         </extensions>       </trkpt>
       <trkpt lat="45.5883544497191905975341796875" lon="14.44727319292724132537841796875">         <ele>1793.5999755859375</ele>         <time>2026-02-28T11:37:59.000Z</time>         <extensions>           <ns3:TrackPointExtension>             <ns3:hr>109</ns3:hr>           </ns3:TrackPointExtension>         </extensions>       </trkpt>
       <trkpt lat="45.5883544497191905975341796875" lon="14.44727319292724132537841796875">         <ele>1793.5999755859375</ele>         <time>2026-02-28T11:38:07.000Z</time>         <extensions>           <ns3:TrackPointExtension>             <ns3:hr>107</ns3:hr>           </ns3:TrackPointExtension>         </extensions>       </trkpt>
       <trkpt lat="45.5883544497191905975341796875" lon="14.44727319292724132537841796875">         <ele>1793</ele>         <time>2026-02-28T11:38:15.000Z</time>         <extensions>           <ns3:TrackPointExtension>             <ns3:hr>109</ns3:hr>           </ns3:TrackPointExtension>         </extensions>       </trkpt>
       <trkpt lat="45.5883331596851348876953125" lon="14.4472670741379261016845703125">         <ele>1793</ele>         <time>2026-02-28T11:38:22.000Z</time>         <extensions>           <ns3:TrackPointExtension>             <ns3:hr>107</ns3:hr>           </ns3:TrackPointExtension>         </extensions>       </trkpt>
       <trkpt lat="45.58831036090850830078125" lon="14.4472543336451053619384765625">         <ele>1793</ele>         <time>2026-02-28T11:38:24.000Z</time>         <extensions>           <ns3:TrackPointExtension>             <ns3:hr>100</ns3:hr>           </ns3:TrackPointExtension>         </extensions>       </trkpt>
       <trkpt lat="45.588285215198993682861328125" lon="14.44723865948617458343505859375">         <ele>1793</ele>         <time>2026-02-28T11:38:25.000Z</time>         <extensions>           <ns3:TrackPointExtension>             <ns3:hr>100</ns3:hr>           </ns3:TrackPointExtension>         </extensions>       </trkpt>
       <trkpt lat="45.5882592312991619110107421875" lon="14.44722072221338748931884765625">         <ele>1792.5999755859375</ele>         <time>2026-02-28T11:38:26.000Z</time>         <extensions>           <ns3:TrackPointExtension>             <ns3:hr>94</ns3:hr>           </ns3:TrackPointExtension>         </extensions>       </trkpt>
       <trkpt lat="45.58822922408580780029296875" lon="14.447195492684841156005859375">         <ele>1792.4000244140625</ele>         <time>2026-02-28T11:38:27.000Z</time>         <extensions>           <ns3:TrackPointExtension>             <ns3:hr>86</ns3:hr>           </ns3:TrackPointExtension>         </extensions>       </trkpt>
       <trkpt lat="45.588222853839397430419921875" lon="14.44715752266347408294677734375">         <ele>1791.5999755859375</ele>         <time>2026-02-28T11:38:28.000Z</time>         <extensions>           <ns3:TrackPointExtension>             <ns3:hr>85</ns3:hr>           </ns3:TrackPointExtension>         </extensions>       </trkpt>
       <trkpt lat="45.5882312357425689697265625" lon="14.44713606499135494232177734375">         <ele>1790.5999755859375</ele>         <time>2026-02-28T11:38:29.000Z</time>         <extensions>           <ns3:TrackPointExtension>             <ns3:hr>85</ns3:hr>           </ns3:TrackPointExtension>         </extensions>       </trkpt>
       <trkpt lat="45.5882340855896472930908203125" lon="14.44712885655462741851806640625">         <ele>1787.800048828125</ele>         <time>2026-02-28T11:38:30.000Z</time>         <extensions>           <ns3:TrackPointExtension>             <ns3:hr>85</ns3:hr>           </ns3:TrackPointExtension>         </extensions>       </trkpt>
       <trkpt lat="45.5882347561419010162353515625" lon="14.44713271223008632659912109375">         <ele>1785.199951171875</ele>         <time>2026-02-28T11:38:31.000Z</time>         <extensions>           <ns3:TrackPointExtension>             <ns3:hr>86</ns3:hr>           </ns3:TrackPointExtension>         </extensions>       </trkpt>
       <trkpt lat="45.5882347561419010162353515625" lon="14.4471326284110546112060546875">         <ele>1783.800048828125</ele>         <time>2026-02-28T11:38:32.000Z</time>         <extensions>           <ns3:TrackPointExtension>             <ns3:hr>86</ns3:hr>           </ns3:TrackPointExtension>         </extensions>       </trkpt>
       <trkpt lat="45.5882347561419010162353515625" lon="14.4471326284110546112060546875">         <ele>1783.5999755859375</ele>         <time>2026-02-28T11:38:34.000Z</time>         <extensions>           <ns3:TrackPointExtension>             <ns3:hr>87</ns3:hr>           </ns3:TrackPointExtension>         </extensions>       </trkpt>
       <trkpt lat="45.5882347561419010162353515625" lon="14.4471326284110546112060546875">         <ele>1784.800048828125</ele>         <time>2026-02-28T11:38:45.000Z</time>         <extensions>           <ns3:TrackPointExtension>             <ns3:hr>94</ns3:hr>           </ns3:TrackPointExtension>         </extensions>       </trkpt>
       <trkpt lat="45.5882347561419010162353515625" lon="14.4471326284110546112060546875">         <ele>1784.800048828125</ele>         <time>2026-02-28T11:38:46.000Z</time>         <extensions>           <ns3:TrackPointExtension>             <ns3:hr>109</ns3:hr>           </ns3:TrackPointExtension>         </extensions>       </trkpt>
       <trkpt lat="45.5882347561419010162353515625" lon="14.4471326284110546112060546875">         <ele>1784.5999755859375</ele>         <time>2026-02-28T11:38:47.000Z</time>         <extensions>           <ns3:TrackPointExtension>             <ns3:hr>109</ns3:hr>           </ns3:TrackPointExtension>         </extensions>       </trkpt>
       <trkpt lat="45.5882347561419010162353515625" lon="14.4471326284110546112060546875">         <ele>1784.5999755859375</ele>         <time>2026-02-28T11:38:49.000Z</time>         <extensions>           <ns3:TrackPointExtension>             <ns3:hr>112</ns3:hr>           </ns3:TrackPointExtension>         </extensions>       </trkpt>
       <trkpt lat="45.58823333121836185455322265625" lon="14.44711645133793354034423828125">         <ele>1784.5999755859375</ele>         <time>2026-02-28T11:38:52.000Z</time>         <extensions>           <ns3:TrackPointExtension>             <ns3:hr>111</ns3:hr>           </ns3:TrackPointExtension>         </extensions>       </trkpt>
       <trkpt lat="45.588247664272785186767578125" lon="14.4470216520130634307861328125">         <ele>1780</ele>         <time>2026-02-28T11:38:55.000Z</time>         <extensions>           <ns3:TrackPointExtension>             <ns3:hr>109</ns3:hr>           </ns3:TrackPointExtension>         </extensions>       </trkpt>
       <trkpt lat="45.58824037201702594757080078125" lon="14.44697789847850799560546875">         <ele>1778.4000244140625</ele>         <time>2026-02-28T11:38:56.000Z</time>         <extensions>           <ns3:TrackPointExtension>             <ns3:hr>109</ns3:hr>           </ns3:TrackPointExtension>         </extensions>       </trkpt>
       <trkpt lat="45.58826752938330173492431640625" lon="14.44692282937467098236083984375">         <ele>1775.4000244140625</ele>         <time>2026-02-28T11:38:58.000Z</time>         <extensions>           <ns3:TrackPointExtension>             <ns3:hr>109</ns3:hr>           </ns3:TrackPointExtension>         </extensions>       </trkpt>
       <trkpt lat="45.58826250024139881134033203125" lon="14.4469203986227512359619140625">         <ele>1773.800048828125</ele>         <time>2026-02-28T11:38:59.000Z</time>         <extensions>           <ns3:TrackPointExtension>             <ns3:hr>109</ns3:hr>           </ns3:TrackPointExtension>         </extensions>       </trkpt>
       <trkpt lat="45.58825512416660785675048828125" lon="14.44692291319370269775390625">         <ele>1774.4000244140625</ele>         <time>2026-02-28T11:39:02.000Z</time>         <extensions>           <ns3:TrackPointExtension>             <ns3:hr>109</ns3:hr>           </ns3:TrackPointExtension>         </extensions>       </trkpt>
       <trkpt lat="45.58825512416660785675048828125" lon="14.44692291319370269775390625">         <ele>1774.800048828125</ele>         <time>2026-02-28T11:39:05.000Z</time>         <extensions>           <ns3:TrackPointExtension>             <ns3:hr>114</ns3:hr>           </ns3:TrackPointExtension>         </extensions>       </trkpt>
       <trkpt lat="45.58825512416660785675048828125" lon="14.44692291319370269775390625">         <ele>1775</ele>         <time>2026-02-28T11:39:06.000Z</time>         <extensions>           <ns3:TrackPointExtension>             <ns3:hr>114</ns3:hr>           </ns3:TrackPointExtension>         </extensions>       </trkpt>
       <trkpt lat="45.58825512416660785675048828125" lon="14.44692291319370269775390625">         <ele>1775</ele>         <time>2026-02-28T11:39:16.000Z</time>         <extensions>           <ns3:TrackPointExtension>             <ns3:hr>112</ns3:hr>           </ns3:TrackPointExtension>         </extensions>       </trkpt>
       <trkpt lat="45.58825512416660785675048828125" lon="14.44692291319370269775390625">         <ele>1775</ele>         <time>2026-02-28T11:39:17.000Z</time>         <extensions>           <ns3:TrackPointExtension>             <ns3:hr>108</ns3:hr>           </ns3:TrackPointExtension>         </extensions>       </trkpt>
       <trkpt lat="45.58825512416660785675048828125" lon="14.44692291319370269775390625">         <ele>1774.800048828125</ele>         <time>2026-02-28T11:39:19.000Z</time>         <extensions>           <ns3:TrackPointExtension>             <ns3:hr>105</ns3:hr>           </ns3:TrackPointExtension>         </extensions>       </trkpt>
       <trkpt lat="45.5882454849779605865478515625" lon="14.446872957050800323486328125">         <ele>1774.800048828125</ele>         <time>2026-02-28T11:39:28.000Z</time>         <extensions>           <ns3:TrackPointExtension>             <ns3:hr>107</ns3:hr>           </ns3:TrackPointExtension>         </extensions>       </trkpt>
       <trkpt lat="45.5882607400417327880859375" lon="14.44680196233093738555908203125">         <ele>1772.199951171875</ele>         <time>2026-02-28T11:39:30.000Z</time>         <extensions>           <ns3:TrackPointExtension>             <ns3:hr>103</ns3:hr>           </ns3:TrackPointExtension>         </extensions>       </trkpt>
       <trkpt lat="45.588289909064769744873046875" lon="14.44678100757300853729248046875">         <ele>1771</ele>         <time>2026-02-28T11:39:31.000Z</time>         <extensions>           <ns3:TrackPointExtension>             <ns3:hr>102</ns3:hr>           </ns3:TrackPointExtension>         </extensions>       </trkpt>
       <trkpt lat="45.5883105285465717315673828125" lon="14.446754939854145050048828125">         <ele>1769.5999755859375</ele>         <time>2026-02-28T11:39:32.000Z</time>         <extensions>           <ns3:TrackPointExtension>             <ns3:hr>102</ns3:hr>           </ns3:TrackPointExtension>         </extensions>       </trkpt>
       <trkpt lat="45.58832536451518535614013671875" lon="14.4467071630060672760009765625">         <ele>1765</ele>         <time>2026-02-28T11:39:33.000Z</time>         <extensions>           <ns3:TrackPointExtension>             <ns3:hr>101</ns3:hr>           </ns3:TrackPointExtension>         </extensions>       </trkpt>
       <trkpt lat="45.58835394680500030517578125" lon="14.4466709531843662261962890625">         <ele>1761.800048828125</ele>         <time>2026-02-28T11:39:34.000Z</time>         <extensions>           <ns3:TrackPointExtension>             <ns3:hr>101</ns3:hr>           </ns3:TrackPointExtension>         </extensions>       </trkpt>
       <trkpt lat="45.58837682940065860748291015625" lon="14.44664605893194675445556640625">         <ele>1761</ele>         <time>2026-02-28T11:39:35.000Z</time>         <extensions>           <ns3:TrackPointExtension>             <ns3:hr>101</ns3:hr>           </ns3:TrackPointExtension>         </extensions>       </trkpt>
       <trkpt lat="45.588377751410007476806640625" lon="14.44659979082643985748291015625">         <ele>1760.800048828125</ele>         <time>2026-02-28T11:39:36.000Z</time>         <extensions>           <ns3:TrackPointExtension>             <ns3:hr>102</ns3:hr>           </ns3:TrackPointExtension>         </extensions>       </trkpt>
       <trkpt lat="45.588439442217350006103515625" lon="14.44654497317969799041748046875">         <ele>1757.4000244140625</ele>         <time>2026-02-28T11:39:38.000Z</time>         <extensions>           <ns3:TrackPointExtension>             <ns3:hr>102</ns3:hr>           </ns3:TrackPointExtension>         </extensions>       </trkpt>
       <trkpt lat="45.58845880441367626190185546875" lon="14.446551091969013214111328125">         <ele>1755.199951171875</ele>         <time>2026-02-28T11:39:39.000Z</time>         <extensions>           <ns3:TrackPointExtension>             <ns3:hr>102</ns3:hr>           </ns3:TrackPointExtension>         </extensions>       </trkpt>
       <trkpt lat="45.58847003616392612457275390625" lon="14.4465562887489795684814453125">         <ele>1753.4000244140625</ele>         <time>2026-02-28T11:39:40.000Z</time>         <extensions>           <ns3:TrackPointExtension>             <ns3:hr>103</ns3:hr>           </ns3:TrackPointExtension>         </extensions>       </trkpt>
       <trkpt lat="45.5884714610874652862548828125" lon="14.4465599767863750457763671875">         <ele>1752.5999755859375</ele>         <time>2026-02-28T11:39:41.000Z</time>         <extensions>           <ns3:TrackPointExtension>             <ns3:hr>103</ns3:hr>           </ns3:TrackPointExtension>         </extensions>       </trkpt>
       <trkpt lat="45.58846970088779926300048828125" lon="14.44655871950089931488037109375">         <ele>1753.199951171875</ele>         <time>2026-02-28T11:39:47.000Z</time>         <extensions>           <ns3:TrackPointExtension>             <ns3:hr>106</ns3:hr>           </ns3:TrackPointExtension>         </extensions>       </trkpt>
       <trkpt lat="45.58846970088779926300048828125" lon="14.44655871950089931488037109375">         <ele>1753.199951171875</ele>         <time>2026-02-28T11:39:49.000Z</time>         <extensions>           <ns3:TrackPointExtension>             <ns3:hr>109</ns3:hr>           </ns3:TrackPointExtension>         </extensions>       </trkpt>
       <trkpt lat="45.58846970088779926300048828125" lon="14.44655871950089931488037109375">         <ele>1753.199951171875</ele>         <time>2026-02-28T11:39:51.000Z</time>         <extensions>           <ns3:TrackPointExtension>             <ns3:hr>112</ns3:hr>           </ns3:TrackPointExtension>         </extensions>       </trkpt>
       <trkpt lat="45.58846970088779926300048828125" lon="14.44655871950089931488037109375">         <ele>1753.800048828125</ele>         <time>2026-02-28T11:40:15.000Z</time>         <extensions>           <ns3:TrackPointExtension>             <ns3:hr>113</ns3:hr>           </ns3:TrackPointExtension>         </extensions>       </trkpt>
       <trkpt lat="45.58846970088779926300048828125" lon="14.44655871950089931488037109375">         <ele>1754.199951171875</ele>         <time>2026-02-28T11:40:19.000Z</time>         <extensions>           <ns3:TrackPointExtension>             <ns3:hr>110</ns3:hr>           </ns3:TrackPointExtension>         </extensions>       </trkpt>
       <trkpt lat="45.58846970088779926300048828125" lon="14.44655871950089931488037109375">         <ele>1754.4000244140625</ele>         <time>2026-02-28T11:40:22.000Z</time>         <extensions>           <ns3:TrackPointExtension>             <ns3:hr>110</ns3:hr>           </ns3:TrackPointExtension>         </extensions>       </trkpt>
       <trkpt lat="45.58846970088779926300048828125" lon="14.44655871950089931488037109375">         <ele>1754.4000244140625</ele>         <time>2026-02-28T11:40:23.000Z</time>         <extensions>           <ns3:TrackPointExtension>             <ns3:hr>111</ns3:hr>           </ns3:TrackPointExtension>         </extensions>       </trkpt>
       <trkpt lat="45.58847062289714813232421875" lon="14.44657850079238414764404296875">         <ele>1754.800048828125</ele>         <time>2026-02-28T11:40:31.000Z</time>         <extensions>           <ns3:TrackPointExtension>             <ns3:hr>109</ns3:hr>           </ns3:TrackPointExtension>         </extensions>       </trkpt>
       <trkpt lat="45.58847062289714813232421875" lon="14.44657850079238414764404296875">         <ele>1755.4000244140625</ele>         <time>2026-02-28T11:40:38.000Z</time>         <extensions>           <ns3:TrackPointExtension>             <ns3:hr>109</ns3:hr>           </ns3:TrackPointExtension>         </extensions>       </trkpt>
       <trkpt lat="45.58847062289714813232421875" lon="14.44657850079238414764404296875">         <ele>1755.5999755859375</ele>         <time>2026-02-28T11:40:39.000Z</time>         <extensions>           <ns3:TrackPointExtension>             <ns3:hr>109</ns3:hr>           </ns3:TrackPointExtension>         </extensions>       </trkpt>
       <trkpt lat="45.58847062289714813232421875" lon="14.44657850079238414764404296875">         <ele>1755.5999755859375</ele>         <time>2026-02-28T11:40:50.000Z</time>         <extensions>           <ns3:TrackPointExtension>             <ns3:hr>111</ns3:hr>           </ns3:TrackPointExtension>         </extensions>       </trkpt>
       <trkpt lat="45.58847062289714813232421875" lon="14.44657850079238414764404296875">         <ele>1755.5999755859375</ele>         <time>2026-02-28T11:40:59.000Z</time>         <extensions>           <ns3:TrackPointExtension>             <ns3:hr>111</ns3:hr>           </ns3:TrackPointExtension>         </extensions>       </trkpt>
       <trkpt lat="45.58847062289714813232421875" lon="14.44657850079238414764404296875">         <ele>1755</ele>         <time>2026-02-28T11:41:03.000Z</time>         <extensions>           <ns3:TrackPointExtension>             <ns3:hr>108</ns3:hr>           </ns3:TrackPointExtension>         </extensions>       </trkpt>
       <trkpt lat="45.58847062289714813232421875" lon="14.44657850079238414764404296875">         <ele>1755.4000244140625</ele>         <time>2026-02-28T11:41:08.000Z</time>         <extensions>           <ns3:TrackPointExtension>             <ns3:hr>106</ns3:hr>           </ns3:TrackPointExtension>         </extensions>       </trkpt>
       <trkpt lat="45.58847062289714813232421875" lon="14.44657850079238414764404296875">         <ele>1755.199951171875</ele>         <time>2026-02-28T11:41:14.000Z</time>         <extensions>           <ns3:TrackPointExtension>             <ns3:hr>103</ns3:hr>           </ns3:TrackPointExtension>         </extensions>       </trkpt>
       <trkpt lat="45.58847062289714813232421875" lon="14.44657850079238414764404296875">         <ele>1755.4000244140625</ele>         <time>2026-02-28T11:41:19.000Z</time>         <extensions>           <ns3:TrackPointExtension>             <ns3:hr>101</ns3:hr>           </ns3:TrackPointExtension>         </extensions>       </trkpt>
       <trkpt lat="45.58847062289714813232421875" lon="14.44657850079238414764404296875">         <ele>1755.4000244140625</ele>         <time>2026-02-28T11:41:24.000Z</time>         <extensions>           <ns3:TrackPointExtension>             <ns3:hr>98</ns3:hr>           </ns3:TrackPointExtension>         </extensions>       </trkpt>
       <trkpt lat="45.58847464621067047119140625" lon="14.44659945555031299591064453125">         <ele>1755.5999755859375</ele>         <time>2026-02-28T11:41:26.000Z</time>         <extensions>           <ns3:TrackPointExtension>             <ns3:hr>95</ns3:hr>           </ns3:TrackPointExtension>         </extensions>       </trkpt>
       <trkpt lat="45.58847322128713130950927734375" lon="14.44660163484513759613037109375">         <ele>1755.800048828125</ele>         <time>2026-02-28T11:41:29.000Z</time>         <extensions>           <ns3:TrackPointExtension>             <ns3:hr>91</ns3:hr>           </ns3:TrackPointExtension>         </extensions>       </trkpt>
       <trkpt lat="45.5884738080203533172607421875" lon="14.44659794680774211883544921875">         <ele>1756</ele>         <time>2026-02-28T11:41:32.000Z</time>         <extensions>           <ns3:TrackPointExtension>             <ns3:hr>88</ns3:hr>           </ns3:TrackPointExtension>         </extensions>       </trkpt>
       <trkpt lat="45.588472969830036163330078125" lon="14.44660850800573825836181640625">         <ele>1756.199951171875</ele>         <time>2026-02-28T11:41:35.000Z</time>         <extensions>           <ns3:TrackPointExtension>             <ns3:hr>88</ns3:hr>           </ns3:TrackPointExtension>         </extensions>       </trkpt>
       <trkpt lat="45.5884640850126743316650390625" lon="14.44662678055465221405029296875">         <ele>1755.199951171875</ele>         <time>2026-02-28T11:41:42.000Z</time>         <extensions>           <ns3:TrackPointExtension>             <ns3:hr>89</ns3:hr>           </ns3:TrackPointExtension>         </extensions>       </trkpt>
       <trkpt lat="45.58845880441367626190185546875" lon="14.4466062448918819427490234375">         <ele>1755.5999755859375</ele>         <time>2026-02-28T11:41:46.000Z</time>         <extensions>           <ns3:TrackPointExtension>             <ns3:hr>95</ns3:hr>           </ns3:TrackPointExtension>         </extensions>       </trkpt>
       <trkpt lat="45.58846249245107173919677734375" lon="14.44660532288253307342529296875">         <ele>1755.800048828125</ele>         <time>2026-02-28T11:41:47.000Z</time>         <extensions>           <ns3:TrackPointExtension>             <ns3:hr>95</ns3:hr>           </ns3:TrackPointExtension>         </extensions>       </trkpt>
       <trkpt lat="45.58847506530582904815673828125" lon="14.44659258238971233367919921875">         <ele>1755.800048828125</ele>         <time>2026-02-28T11:41:49.000Z</time>         <extensions>           <ns3:TrackPointExtension>             <ns3:hr>96</ns3:hr>           </ns3:TrackPointExtension>         </extensions>       </trkpt>
       <trkpt lat="45.5885405279695987701416015625" lon="14.44657179526984691619873046875">         <ele>1754.199951171875</ele>         <time>2026-02-28T11:41:52.000Z</time>         <extensions>           <ns3:TrackPointExtension>             <ns3:hr>98</ns3:hr>           </ns3:TrackPointExtension>         </extensions>       </trkpt>
       <trkpt lat="45.58857782743871212005615234375" lon="14.4465636648237705230712890625">         <ele>1753</ele>         <time>2026-02-28T11:41:53.000Z</time>         <extensions>           <ns3:TrackPointExtension>             <ns3:hr>97</ns3:hr>           </ns3:TrackPointExtension>         </extensions>       </trkpt>
       <trkpt lat="45.58862023986876010894775390625" lon="14.446555115282535552978515625">         <ele>1751.5999755859375</ele>         <time>2026-02-28T11:41:54.000Z</time>         <extensions>           <ns3:TrackPointExtension>             <ns3:hr>97</ns3:hr>           </ns3:TrackPointExtension>         </extensions>       </trkpt>
       <trkpt lat="45.58866332285106182098388671875" lon="14.44654732011258602142333984375">         <ele>1750.4000244140625</ele>         <time>2026-02-28T11:41:55.000Z</time>         <extensions>           <ns3:TrackPointExtension>             <ns3:hr>97</ns3:hr>           </ns3:TrackPointExtension>         </extensions>       </trkpt>
       <trkpt lat="45.588704980909824371337890625" lon="14.4465427100658416748046875">         <ele>1749.199951171875</ele>         <time>2026-02-28T11:41:56.000Z</time>         <extensions>           <ns3:TrackPointExtension>             <ns3:hr>96</ns3:hr>           </ns3:TrackPointExtension>         </extensions>       </trkpt>
       <trkpt lat="45.58874915353953838348388671875" lon="14.44653977639973163604736328125">         <ele>1748</ele>         <time>2026-02-28T11:41:57.000Z</time>         <extensions>           <ns3:TrackPointExtension>             <ns3:hr>95</ns3:hr>           </ns3:TrackPointExtension>         </extensions>       </trkpt>
       <trkpt lat="45.5888235010206699371337890625" lon="14.44651915691792964935302734375">         <ele>1746.199951171875</ele>         <time>2026-02-28T11:41:59.000Z</time>         <extensions>           <ns3:TrackPointExtension>             <ns3:hr>93</ns3:hr>           </ns3:TrackPointExtension>         </extensions>       </trkpt>
       <trkpt lat="45.5888654105365276336669921875" lon="14.4465009681880474090576171875">         <ele>1745.199951171875</ele>         <time>2026-02-28T11:42:00.000Z</time>         <extensions>           <ns3:TrackPointExtension>             <ns3:hr>93</ns3:hr>           </ns3:TrackPointExtension>         </extensions>       </trkpt>
       <trkpt lat="45.58890891261398792266845703125" lon="14.44648646749556064605712890625">         <ele>1743.800048828125</ele>         <time>2026-02-28T11:42:01.000Z</time>         <extensions>           <ns3:TrackPointExtension>             <ns3:hr>94</ns3:hr>           </ns3:TrackPointExtension>         </extensions>       </trkpt>
       <trkpt lat="45.5889529176056385040283203125" lon="14.44647758267819881439208984375">         <ele>1742.199951171875</ele>         <time>2026-02-28T11:42:02.000Z</time>         <extensions>           <ns3:TrackPointExtension>             <ns3:hr>95</ns3:hr>           </ns3:TrackPointExtension>         </extensions>       </trkpt>
       <trkpt lat="45.5890001915395259857177734375" lon="14.44646936841309070587158203125">         <ele>1740.800048828125</ele>         <time>2026-02-28T11:42:03.000Z</time>         <extensions>           <ns3:TrackPointExtension>             <ns3:hr>95</ns3:hr>           </ns3:TrackPointExtension>         </extensions>       </trkpt>
       <trkpt lat="45.5890454538166522979736328125" lon="14.44646417163312435150146484375">         <ele>1739.4000244140625</ele>         <time>2026-02-28T11:42:04.000Z</time>         <extensions>           <ns3:TrackPointExtension>             <ns3:hr>94</ns3:hr>           </ns3:TrackPointExtension>         </extensions>       </trkpt>
       <trkpt lat="45.58909012936055660247802734375" lon="14.44646157324314117431640625">         <ele>1738.199951171875</ele>         <time>2026-02-28T11:42:05.000Z</time>         <extensions>           <ns3:TrackPointExtension>             <ns3:hr>94</ns3:hr>           </ns3:TrackPointExtension>         </extensions>       </trkpt>
       <trkpt lat="45.58915860950946807861328125" lon="14.44645562209188938140869140625">         <ele>1736.800048828125</ele>         <time>2026-02-28T11:42:07.000Z</time>         <extensions>           <ns3:TrackPointExtension>             <ns3:hr>94</ns3:hr>           </ns3:TrackPointExtension>         </extensions>       </trkpt>
       <trkpt lat="45.58917336165904998779296875" lon="14.44645696319639682769775390625">         <ele>1736.4000244140625</ele>         <time>2026-02-28T11:42:08.000Z</time>         <extensions>           <ns3:TrackPointExtension>             <ns3:hr>95</ns3:hr>           </ns3:TrackPointExtension>         </extensions>       </trkpt>
       <trkpt lat="45.5891701765358448028564453125" lon="14.446467272937297821044921875">         <ele>1735.5999755859375</ele>         <time>2026-02-28T11:42:10.000Z</time>         <extensions>           <ns3:TrackPointExtension>             <ns3:hr>97</ns3:hr>           </ns3:TrackPointExtension>         </extensions>       </trkpt>
       <trkpt lat="45.5891805700957775115966796875" lon="14.446461908519268035888671875">         <ele>1735.199951171875</ele>         <time>2026-02-28T11:42:12.000Z</time>         <extensions>           <ns3:TrackPointExtension>             <ns3:hr>100</ns3:hr>           </ns3:TrackPointExtension>         </extensions>       </trkpt>
       <trkpt lat="45.58918568305671215057373046875" lon="14.446461237967014312744140625">         <ele>1735.199951171875</ele>         <time>2026-02-28T11:42:13.000Z</time>         <extensions>           <ns3:TrackPointExtension>             <ns3:hr>102</ns3:hr>           </ns3:TrackPointExtension>         </extensions>       </trkpt>
       <trkpt lat="45.58919473551213741302490234375" lon="14.4464667700231075286865234375">         <ele>1735.5999755859375</ele>         <time>2026-02-28T11:42:16.000Z</time>         <extensions>           <ns3:TrackPointExtension>             <ns3:hr>105</ns3:hr>           </ns3:TrackPointExtension>         </extensions>       </trkpt>
       <trkpt lat="45.5891980044543743133544921875" lon="14.44646752439439296722412109375">         <ele>1735.5999755859375</ele>         <time>2026-02-28T11:42:17.000Z</time>         <extensions>           <ns3:TrackPointExtension>             <ns3:hr>109</ns3:hr>           </ns3:TrackPointExtension>         </extensions>       </trkpt>
       <trkpt lat="45.5892010219395160675048828125" lon="14.44646668620407581329345703125">         <ele>1735.5999755859375</ele>         <time>2026-02-28T11:42:18.000Z</time>         <extensions>           <ns3:TrackPointExtension>             <ns3:hr>113</ns3:hr>           </ns3:TrackPointExtension>         </extensions>       </trkpt>
       <trkpt lat="45.589208900928497314453125" lon="14.44646568037569522857666015625">         <ele>1735.5999755859375</ele>         <time>2026-02-28T11:42:19.000Z</time>         <extensions>           <ns3:TrackPointExtension>             <ns3:hr>116</ns3:hr>           </ns3:TrackPointExtension>         </extensions>       </trkpt>
       <trkpt lat="45.5892057158052921295166015625" lon="14.44646283052861690521240234375">         <ele>1735.5999755859375</ele>         <time>2026-02-28T11:42:21.000Z</time>         <extensions>           <ns3:TrackPointExtension>             <ns3:hr>117</ns3:hr>           </ns3:TrackPointExtension>         </extensions>       </trkpt>
       <trkpt lat="45.58924854733049869537353515625" lon="14.446381442248821258544921875">         <ele>1734.4000244140625</ele>         <time>2026-02-28T11:42:25.000Z</time>         <extensions>           <ns3:TrackPointExtension>             <ns3:hr>116</ns3:hr>           </ns3:TrackPointExtension>         </extensions>       </trkpt>
       <trkpt lat="45.58927000500261783599853515625" lon="14.44633777253329753875732421875">         <ele>1734</ele>         <time>2026-02-28T11:42:26.000Z</time>         <extensions>           <ns3:TrackPointExtension>             <ns3:hr>116</ns3:hr>           </ns3:TrackPointExtension>         </extensions>       </trkpt>
       <trkpt lat="45.58927570469677448272705078125" lon="14.446274153888225555419921875">         <ele>1733.4000244140625</ele>         <time>2026-02-28T11:42:27.000Z</time>         <extensions>           <ns3:TrackPointExtension>             <ns3:hr>116</ns3:hr>           </ns3:TrackPointExtension>         </extensions>       </trkpt>
       <trkpt lat="45.58930655010044574737548828125" lon="14.44621707312762737274169921875">         <ele>1728.4000244140625</ele>         <time>2026-02-28T11:42:28.000Z</time>         <extensions>           <ns3:TrackPointExtension>             <ns3:hr>115</ns3:hr>           </ns3:TrackPointExtension>         </extensions>       </trkpt>
       <trkpt lat="45.5893374793231487274169921875" lon="14.4462015666067600250244140625">         <ele>1722.800048828125</ele>         <time>2026-02-28T11:42:29.000Z</time>         <extensions>           <ns3:TrackPointExtension>             <ns3:hr>115</ns3:hr>           </ns3:TrackPointExtension>         </extensions>       </trkpt>
       <trkpt lat="45.5893951468169689178466796875" lon="14.44619712419807910919189453125">         <ele>1721.4000244140625</ele>         <time>2026-02-28T11:42:31.000Z</time>         <extensions>           <ns3:TrackPointExtension>             <ns3:hr>115</ns3:hr>           </ns3:TrackPointExtension>         </extensions>       </trkpt>
       <trkpt lat="45.58945574797689914703369140625" lon="14.44618404842913150787353515625">         <ele>1720.800048828125</ele>         <time>2026-02-28T11:42:35.000Z</time>         <extensions>           <ns3:TrackPointExtension>             <ns3:hr>114</ns3:hr>           </ns3:TrackPointExtension>         </extensions>       </trkpt>
       <trkpt lat="45.5894551612436771392822265625" lon="14.44618488661944866180419921875">         <ele>1720.800048828125</ele>         <time>2026-02-28T11:42:41.000Z</time>         <extensions>           <ns3:TrackPointExtension>             <ns3:hr>117</ns3:hr>           </ns3:TrackPointExtension>         </extensions>       </trkpt>
       <trkpt lat="45.58945901691913604736328125" lon="14.44618706591427326202392578125">         <ele>1720.5999755859375</ele>         <time>2026-02-28T11:42:44.000Z</time>         <extensions>           <ns3:TrackPointExtension>             <ns3:hr>120</ns3:hr>           </ns3:TrackPointExtension>         </extensions>       </trkpt>
       <trkpt lat="45.58948273770511150360107421875" lon="14.44617181085050106048583984375">         <ele>1720.4000244140625</ele>         <time>2026-02-28T11:42:46.000Z</time>         <extensions>           <ns3:TrackPointExtension>             <ns3:hr>119</ns3:hr>           </ns3:TrackPointExtension>         </extensions>       </trkpt>
       <trkpt lat="45.58950017206370830535888671875" lon="14.44615772925317287445068359375">         <ele>1720.199951171875</ele>         <time>2026-02-28T11:42:47.000Z</time>         <extensions>           <ns3:TrackPointExtension>             <ns3:hr>119</ns3:hr>           </ns3:TrackPointExtension>         </extensions>       </trkpt>
       <trkpt lat="45.58955867774784564971923828125" lon="14.44610291160643100738525390625">         <ele>1719</ele>         <time>2026-02-28T11:42:49.000Z</time>         <extensions>           <ns3:TrackPointExtension>             <ns3:hr>118</ns3:hr>           </ns3:TrackPointExtension>         </extensions>       </trkpt>
       <trkpt lat="45.58961215429008007049560546875" lon="14.446054883301258087158203125">         <ele>1717.199951171875</ele>         <time>2026-02-28T11:42:51.000Z</time>         <extensions>           <ns3:TrackPointExtension>             <ns3:hr>117</ns3:hr>           </ns3:TrackPointExtension>         </extensions>       </trkpt>
       <trkpt lat="45.589646436274051666259765625" lon="14.4460231997072696685791015625">         <ele>1716</ele>         <time>2026-02-28T11:42:53.000Z</time>         <extensions>           <ns3:TrackPointExtension>             <ns3:hr>116</ns3:hr>           </ns3:TrackPointExtension>         </extensions>       </trkpt>
       <trkpt lat="45.589680969715118408203125" lon="14.44599143229424953460693359375">         <ele>1715.5999755859375</ele>         <time>2026-02-28T11:42:56.000Z</time>         <extensions>           <ns3:TrackPointExtension>             <ns3:hr>116</ns3:hr>           </ns3:TrackPointExtension>         </extensions>       </trkpt>
       <trkpt lat="45.58971324004232883453369140625" lon="14.44595404900610446929931640625">         <ele>1714.5999755859375</ele>         <time>2026-02-28T11:42:59.000Z</time>         <extensions>           <ns3:TrackPointExtension>             <ns3:hr>116</ns3:hr>           </ns3:TrackPointExtension>         </extensions>       </trkpt>
       <trkpt lat="45.5897582508623600006103515625" lon="14.44587743841111660003662109375">         <ele>1713.199951171875</ele>         <time>2026-02-28T11:43:02.000Z</time>         <extensions>           <ns3:TrackPointExtension>             <ns3:hr>116</ns3:hr>           </ns3:TrackPointExtension>         </extensions>       </trkpt>
       <trkpt lat="45.58979873545467853546142578125" lon="14.44583167321979999542236328125">         <ele>1712.800048828125</ele>         <time>2026-02-28T11:43:05.000Z</time>         <extensions>           <ns3:TrackPointExtension>             <ns3:hr>116</ns3:hr>           </ns3:TrackPointExtension>         </extensions>       </trkpt>
       <trkpt lat="45.58979823254048824310302734375" lon="14.4458344392478466033935546875">         <ele>1712.5999755859375</ele>         <time>2026-02-28T11:43:12.000Z</time>         <extensions>           <ns3:TrackPointExtension>             <ns3:hr>115</ns3:hr>           </ns3:TrackPointExtension>         </extensions>       </trkpt>
       <trkpt lat="45.58979823254048824310302734375" lon="14.4458344392478466033935546875">         <ele>1712.199951171875</ele>         <time>2026-02-28T11:43:14.000Z</time>         <extensions>           <ns3:TrackPointExtension>             <ns3:hr>115</ns3:hr>           </ns3:TrackPointExtension>         </extensions>       </trkpt>
       <trkpt lat="45.5898263119161128997802734375" lon="14.44577090442180633544921875">         <ele>1711</ele>         <time>2026-02-28T11:43:19.000Z</time>         <extensions>           <ns3:TrackPointExtension>             <ns3:hr>115</ns3:hr>           </ns3:TrackPointExtension>         </extensions>       </trkpt>
       <trkpt lat="45.58992329053580760955810546875" lon="14.44562179036438465118408203125">         <ele>1709.5999755859375</ele>         <time>2026-02-28T11:43:23.000Z</time>         <extensions>           <ns3:TrackPointExtension>             <ns3:hr>116</ns3:hr>           </ns3:TrackPointExtension>         </extensions>       </trkpt>
       <trkpt lat="45.5899372883141040802001953125" lon="14.4456027634441852569580078125">         <ele>1709.4000244140625</ele>         <time>2026-02-28T11:43:24.000Z</time>         <extensions>           <ns3:TrackPointExtension>             <ns3:hr>116</ns3:hr>           </ns3:TrackPointExtension>         </extensions>       </trkpt>
       <trkpt lat="45.58994608931243419647216796875" lon="14.44559379480779170989990234375">         <ele>1708.5999755859375</ele>         <time>2026-02-28T11:43:27.000Z</time>         <extensions>           <ns3:TrackPointExtension>             <ns3:hr>113</ns3:hr>           </ns3:TrackPointExtension>         </extensions>       </trkpt>
       <trkpt lat="45.58994608931243419647216796875" lon="14.44559379480779170989990234375">         <ele>1708.800048828125</ele>         <time>2026-02-28T11:43:29.000Z</time>         <extensions>           <ns3:TrackPointExtension>             <ns3:hr>111</ns3:hr>           </ns3:TrackPointExtension>         </extensions>       </trkpt>
       <trkpt lat="45.58994608931243419647216796875" lon="14.44559379480779170989990234375">         <ele>1708.5999755859375</ele>         <time>2026-02-28T11:43:31.000Z</time>         <extensions>           <ns3:TrackPointExtension>             <ns3:hr>111</ns3:hr>           </ns3:TrackPointExtension>         </extensions>       </trkpt>
       <trkpt lat="45.58994608931243419647216796875" lon="14.44559379480779170989990234375">         <ele>1708.800048828125</ele>         <time>2026-02-28T11:43:39.000Z</time>         <extensions>           <ns3:TrackPointExtension>             <ns3:hr>111</ns3:hr>           </ns3:TrackPointExtension>         </extensions>       </trkpt>
       <trkpt lat="45.58996997773647308349609375" lon="14.4455296732485294342041015625">         <ele>1708.5999755859375</ele>         <time>2026-02-28T11:43:44.000Z</time>         <extensions>           <ns3:TrackPointExtension>             <ns3:hr>112</ns3:hr>           </ns3:TrackPointExtension>         </extensions>       </trkpt>
       <trkpt lat="45.59001465328037738800048828125" lon="14.445417858660221099853515625">         <ele>1707.5999755859375</ele>         <time>2026-02-28T11:43:47.000Z</time>         <extensions>           <ns3:TrackPointExtension>             <ns3:hr>109</ns3:hr>           </ns3:TrackPointExtension>         </extensions>       </trkpt>
       <trkpt lat="45.590038709342479705810546875" lon="14.4453831575810909271240234375">         <ele>1706.800048828125</ele>         <time>2026-02-28T11:43:48.000Z</time>         <extensions>           <ns3:TrackPointExtension>             <ns3:hr>107</ns3:hr>           </ns3:TrackPointExtension>         </extensions>       </trkpt>
       <trkpt lat="45.5900546349585056304931640625" lon="14.44536597467958927154541015625">         <ele>1706.4000244140625</ele>         <time>2026-02-28T11:43:49.000Z</time>         <extensions>           <ns3:TrackPointExtension>             <ns3:hr>107</ns3:hr>           </ns3:TrackPointExtension>         </extensions>       </trkpt>
       <trkpt lat="45.59006209485232830047607421875" lon="14.44535088725388050079345703125">         <ele>1705.800048828125</ele>         <time>2026-02-28T11:43:51.000Z</time>         <extensions>           <ns3:TrackPointExtension>             <ns3:hr>107</ns3:hr>           </ns3:TrackPointExtension>         </extensions>       </trkpt>
       <trkpt lat="45.5900752544403076171875" lon="14.4453529827296733856201171875">         <ele>1706</ele>         <time>2026-02-28T11:43:59.000Z</time>         <extensions>           <ns3:TrackPointExtension>             <ns3:hr>104</ns3:hr>           </ns3:TrackPointExtension>         </extensions>       </trkpt>
       <trkpt lat="45.5900752544403076171875" lon="14.4453529827296733856201171875">         <ele>1706</ele>         <time>2026-02-28T11:44:00.000Z</time>         <extensions>           <ns3:TrackPointExtension>             <ns3:hr>101</ns3:hr>           </ns3:TrackPointExtension>         </extensions>       </trkpt>
       <trkpt lat="45.5900752544403076171875" lon="14.4453529827296733856201171875">         <ele>1706.199951171875</ele>         <time>2026-02-28T11:44:04.000Z</time>         <extensions>           <ns3:TrackPointExtension>             <ns3:hr>98</ns3:hr>           </ns3:TrackPointExtension>         </extensions>       </trkpt>
       <trkpt lat="45.5900752544403076171875" lon="14.4453529827296733856201171875">         <ele>1706.4000244140625</ele>         <time>2026-02-28T11:44:10.000Z</time>         <extensions>           <ns3:TrackPointExtension>             <ns3:hr>94</ns3:hr>           </ns3:TrackPointExtension>         </extensions>       </trkpt>
       <trkpt lat="45.5900747515261173248291015625" lon="14.44535323418676853179931640625">         <ele>1706.199951171875</ele>         <time>2026-02-28T11:44:11.000Z</time>         <extensions>           <ns3:TrackPointExtension>             <ns3:hr>93</ns3:hr>           </ns3:TrackPointExtension>         </extensions>       </trkpt>
       <trkpt lat="45.59008707292377948760986328125" lon="14.44528651423752307891845703125">         <ele>1705.199951171875</ele>         <time>2026-02-28T11:44:14.000Z</time>         <extensions>           <ns3:TrackPointExtension>             <ns3:hr>94</ns3:hr>           </ns3:TrackPointExtension>         </extensions>       </trkpt>
       <trkpt lat="45.5900915153324604034423828125" lon="14.44525751285254955291748046875">         <ele>1704.5999755859375</ele>         <time>2026-02-28T11:44:15.000Z</time>         <extensions>           <ns3:TrackPointExtension>             <ns3:hr>95</ns3:hr>           </ns3:TrackPointExtension>         </extensions>       </trkpt>
       <trkpt lat="45.59010786004364490509033203125" lon="14.4452078081667423248291015625">         <ele>1704</ele>         <time>2026-02-28T11:44:17.000Z</time>         <extensions>           <ns3:TrackPointExtension>             <ns3:hr>95</ns3:hr>           </ns3:TrackPointExtension>         </extensions>       </trkpt>
       <trkpt lat="45.59010945260524749755859375" lon="14.445194564759731292724609375">         <ele>1703.800048828125</ele>         <time>2026-02-28T11:44:19.000Z</time>         <extensions>           <ns3:TrackPointExtension>             <ns3:hr>95</ns3:hr>           </ns3:TrackPointExtension>         </extensions>       </trkpt>
       <trkpt lat="45.59011280536651611328125" lon="14.44514486007392406463623046875">         <ele>1703.5999755859375</ele>         <time>2026-02-28T11:44:22.000Z</time>         <extensions>           <ns3:TrackPointExtension>             <ns3:hr>92</ns3:hr>           </ns3:TrackPointExtension>         </extensions>       </trkpt>
       <trkpt lat="45.5901126377284526824951171875" lon="14.44512373767793178558349609375">         <ele>1703.5999755859375</ele>         <time>2026-02-28T11:44:23.000Z</time>         <extensions>           <ns3:TrackPointExtension>             <ns3:hr>86</ns3:hr>           </ns3:TrackPointExtension>         </extensions>       </trkpt>
       <trkpt lat="45.59011138044297695159912109375" lon="14.44510571658611297607421875">         <ele>1703.199951171875</ele>         <time>2026-02-28T11:44:24.000Z</time>         <extensions>           <ns3:TrackPointExtension>             <ns3:hr>78</ns3:hr>           </ns3:TrackPointExtension>         </extensions>       </trkpt>
       <trkpt lat="45.59011070989072322845458984375" lon="14.4450733624398708343505859375">         <ele>1703</ele>         <time>2026-02-28T11:44:25.000Z</time>         <extensions>           <ns3:TrackPointExtension>             <ns3:hr>68</ns3:hr>           </ns3:TrackPointExtension>         </extensions>       </trkpt>
       <trkpt lat="45.59011255390942096710205078125" lon="14.44501661695539951324462890625">         <ele>1702</ele>         <time>2026-02-28T11:44:28.000Z</time>         <extensions>           <ns3:TrackPointExtension>             <ns3:hr>66</ns3:hr>           </ns3:TrackPointExtension>         </extensions>       </trkpt>
       <trkpt lat="45.5901180021464824676513671875" lon="14.4449804909527301788330078125">         <ele>1701.800048828125</ele>         <time>2026-02-28T11:44:29.000Z</time>         <extensions>           <ns3:TrackPointExtension>             <ns3:hr>66</ns3:hr>           </ns3:TrackPointExtension>         </extensions>       </trkpt>
       <trkpt lat="45.5901270546019077301025390625" lon="14.44491117261350154876708984375">         <ele>1701.5999755859375</ele>         <time>2026-02-28T11:44:31.000Z</time>         <extensions>           <ns3:TrackPointExtension>             <ns3:hr>70</ns3:hr>           </ns3:TrackPointExtension>         </extensions>       </trkpt>
       <trkpt lat="45.59013384394347667694091796875" lon="14.444846212863922119140625">         <ele>1701.199951171875</ele>         <time>2026-02-28T11:44:33.000Z</time>         <extensions>           <ns3:TrackPointExtension>             <ns3:hr>72</ns3:hr>           </ns3:TrackPointExtension>         </extensions>       </trkpt>
       <trkpt lat="45.59013484977185726165771484375" lon="14.44479600526392459869384765625">         <ele>1700.5999755859375</ele>         <time>2026-02-28T11:44:35.000Z</time>         <extensions>           <ns3:TrackPointExtension>             <ns3:hr>75</ns3:hr>           </ns3:TrackPointExtension>         </extensions>       </trkpt>
       <trkpt lat="45.5901408009231090545654296875" lon="14.44477186538279056549072265625">         <ele>1700.4000244140625</ele>         <time>2026-02-28T11:44:37.000Z</time>         <extensions>           <ns3:TrackPointExtension>             <ns3:hr>79</ns3:hr>           </ns3:TrackPointExtension>         </extensions>       </trkpt>
       <trkpt lat="45.5901441536843776702880859375" lon="14.444759376347064971923828125">         <ele>1700.4000244140625</ele>         <time>2026-02-28T11:44:40.000Z</time>         <extensions>           <ns3:TrackPointExtension>             <ns3:hr>82</ns3:hr>           </ns3:TrackPointExtension>         </extensions>       </trkpt>
       <trkpt lat="45.5901441536843776702880859375" lon="14.444759376347064971923828125">         <ele>1699.800048828125</ele>         <time>2026-02-28T11:44:44.000Z</time>         <extensions>           <ns3:TrackPointExtension>             <ns3:hr>85</ns3:hr>           </ns3:TrackPointExtension>         </extensions>       </trkpt>
       <trkpt lat="45.59014289639890193939208984375" lon="14.4447699375450611114501953125">         <ele>1700</ele>         <time>2026-02-28T11:44:47.000Z</time>         <extensions>           <ns3:TrackPointExtension>             <ns3:hr>88</ns3:hr>           </ns3:TrackPointExtension>         </extensions>       </trkpt>
       <trkpt lat="45.590143315494060516357421875" lon="14.44474764168262481689453125">         <ele>1700.199951171875</ele>         <time>2026-02-28T11:44:49.000Z</time>         <extensions>           <ns3:TrackPointExtension>             <ns3:hr>92</ns3:hr>           </ns3:TrackPointExtension>         </extensions>       </trkpt>
       <trkpt lat="45.590141303837299346923828125" lon="14.4447102583944797515869140625">         <ele>1700.5999755859375</ele>         <time>2026-02-28T11:44:54.000Z</time>         <extensions>           <ns3:TrackPointExtension>             <ns3:hr>93</ns3:hr>           </ns3:TrackPointExtension>         </extensions>       </trkpt>
       <trkpt lat="45.5901468358933925628662109375" lon="14.44468595087528228759765625">         <ele>1700.800048828125</ele>         <time>2026-02-28T11:44:58.000Z</time>         <extensions>           <ns3:TrackPointExtension>             <ns3:hr>93</ns3:hr>           </ns3:TrackPointExtension>         </extensions>       </trkpt>
       <trkpt lat="45.59014658443629741668701171875" lon="14.4446854479610919952392578125">         <ele>1700.5999755859375</ele>         <time>2026-02-28T11:45:04.000Z</time>         <extensions>           <ns3:TrackPointExtension>             <ns3:hr>95</ns3:hr>           </ns3:TrackPointExtension>         </extensions>       </trkpt>
       <trkpt lat="45.59014172293245792388916015625" lon="14.44465300999581813812255859375">         <ele>1700.5999755859375</ele>         <time>2026-02-28T11:45:09.000Z</time>         <extensions>           <ns3:TrackPointExtension>             <ns3:hr>98</ns3:hr>           </ns3:TrackPointExtension>         </extensions>       </trkpt>
       <trkpt lat="45.5901411361992359161376953125" lon="14.44464798085391521453857421875">         <ele>1700.5999755859375</ele>         <time>2026-02-28T11:45:10.000Z</time>         <extensions>           <ns3:TrackPointExtension>             <ns3:hr>100</ns3:hr>           </ns3:TrackPointExtension>         </extensions>       </trkpt>
       <trkpt lat="45.59013283811509609222412109375" lon="14.44461797364056110382080078125">         <ele>1700.800048828125</ele>         <time>2026-02-28T11:45:13.000Z</time>         <extensions>           <ns3:TrackPointExtension>             <ns3:hr>103</ns3:hr>           </ns3:TrackPointExtension>         </extensions>       </trkpt>
       <trkpt lat="45.5901042558252811431884765625" lon="14.444595091044902801513671875">         <ele>1700.199951171875</ele>         <time>2026-02-28T11:45:16.000Z</time>         <extensions>           <ns3:TrackPointExtension>             <ns3:hr>106</ns3:hr>           </ns3:TrackPointExtension>         </extensions>       </trkpt>
       <trkpt lat="45.5900965444743633270263671875" lon="14.4445989467203617095947265625">         <ele>1700</ele>         <time>2026-02-28T11:45:17.000Z</time>         <extensions>           <ns3:TrackPointExtension>             <ns3:hr>107</ns3:hr>           </ns3:TrackPointExtension>         </extensions>       </trkpt>
       <trkpt lat="45.59008304961025714874267578125" lon="14.4445932470262050628662109375">         <ele>1700</ele>         <time>2026-02-28T11:45:24.000Z</time>         <extensions>           <ns3:TrackPointExtension>             <ns3:hr>109</ns3:hr>           </ns3:TrackPointExtension>         </extensions>       </trkpt>
       <trkpt lat="45.5900831334292888641357421875" lon="14.4445932470262050628662109375">         <ele>1700</ele>         <time>2026-02-28T11:45:28.000Z</time>         <extensions>           <ns3:TrackPointExtension>             <ns3:hr>105</ns3:hr>           </ns3:TrackPointExtension>         </extensions>       </trkpt>
       <trkpt lat="45.5900831334292888641357421875" lon="14.4445932470262050628662109375">         <ele>1699.5999755859375</ele>         <time>2026-02-28T11:45:31.000Z</time>         <extensions>           <ns3:TrackPointExtension>             <ns3:hr>103</ns3:hr>           </ns3:TrackPointExtension>         </extensions>       </trkpt>
       <trkpt lat="45.5900831334292888641357421875" lon="14.4445932470262050628662109375">         <ele>1699.4000244140625</ele>         <time>2026-02-28T11:45:32.000Z</time>         <extensions>           <ns3:TrackPointExtension>             <ns3:hr>104</ns3:hr>           </ns3:TrackPointExtension>         </extensions>       </trkpt>
       <trkpt lat="45.5900831334292888641357421875" lon="14.4445932470262050628662109375">         <ele>1699.4000244140625</ele>         <time>2026-02-28T11:45:35.000Z</time>         <extensions>           <ns3:TrackPointExtension>             <ns3:hr>108</ns3:hr>           </ns3:TrackPointExtension>         </extensions>       </trkpt>
       <trkpt lat="45.5900831334292888641357421875" lon="14.4445932470262050628662109375">         <ele>1699.4000244140625</ele>         <time>2026-02-28T11:45:38.000Z</time>         <extensions>           <ns3:TrackPointExtension>             <ns3:hr>111</ns3:hr>           </ns3:TrackPointExtension>         </extensions>       </trkpt>
       <trkpt lat="45.5900831334292888641357421875" lon="14.4445932470262050628662109375">         <ele>1699.5999755859375</ele>         <time>2026-02-28T11:45:41.000Z</time>         <extensions>           <ns3:TrackPointExtension>             <ns3:hr>111</ns3:hr>           </ns3:TrackPointExtension>         </extensions>       </trkpt>
       <trkpt lat="45.590083301067352294921875" lon="14.44459618069231510162353515625">         <ele>1699.5999755859375</ele>         <time>2026-02-28T11:45:50.000Z</time>         <extensions>           <ns3:TrackPointExtension>             <ns3:hr>112</ns3:hr>           </ns3:TrackPointExtension>         </extensions>       </trkpt>
       <trkpt lat="45.59008355252444744110107421875" lon="14.4445831887423992156982421875">         <ele>1699.4000244140625</ele>         <time>2026-02-28T11:45:55.000Z</time>         <extensions>           <ns3:TrackPointExtension>             <ns3:hr>111</ns3:hr>           </ns3:TrackPointExtension>         </extensions>       </trkpt>
       <trkpt lat="45.59008933603763580322265625" lon="14.44458126090466976165771484375">         <ele>1699.199951171875</ele>         <time>2026-02-28T11:46:02.000Z</time>         <extensions>           <ns3:TrackPointExtension>             <ns3:hr>109</ns3:hr>           </ns3:TrackPointExtension>         </extensions>       </trkpt>
       <trkpt lat="45.5900884978473186492919921875" lon="14.4445888884365558624267578125">         <ele>1699.4000244140625</ele>         <time>2026-02-28T11:46:10.000Z</time>         <extensions>           <ns3:TrackPointExtension>             <ns3:hr>108</ns3:hr>           </ns3:TrackPointExtension>         </extensions>       </trkpt>
       <trkpt lat="45.59008791111409664154052734375" lon="14.4445820152759552001953125">         <ele>1700</ele>         <time>2026-02-28T11:46:14.000Z</time>         <extensions>           <ns3:TrackPointExtension>             <ns3:hr>105</ns3:hr>           </ns3:TrackPointExtension>         </extensions>       </trkpt>
       <trkpt lat="45.5900831334292888641357421875" lon="14.4445932470262050628662109375">         <ele>1699.800048828125</ele>         <time>2026-02-28T11:46:19.000Z</time>         <extensions>           <ns3:TrackPointExtension>             <ns3:hr>106</ns3:hr>           </ns3:TrackPointExtension>         </extensions>       </trkpt>
       <trkpt lat="45.5900831334292888641357421875" lon="14.4445932470262050628662109375">         <ele>1699.5999755859375</ele>         <time>2026-02-28T11:46:21.000Z</time>         <extensions>           <ns3:TrackPointExtension>             <ns3:hr>109</ns3:hr>           </ns3:TrackPointExtension>         </extensions>       </trkpt>
       <trkpt lat="45.59009294025599956512451171875" lon="14.444583691656589508056640625">         <ele>1699.199951171875</ele>         <time>2026-02-28T11:46:26.000Z</time>         <extensions>           <ns3:TrackPointExtension>             <ns3:hr>112</ns3:hr>           </ns3:TrackPointExtension>         </extensions>       </trkpt>
       <trkpt lat="45.59009478427469730377197265625" lon="14.44458545185625553131103515625">         <ele>1699.199951171875</ele>         <time>2026-02-28T11:46:27.000Z</time>         <extensions>           <ns3:TrackPointExtension>             <ns3:hr>111</ns3:hr>           </ns3:TrackPointExtension>         </extensions>       </trkpt>
       <trkpt lat="45.59009444899857044219970703125" lon="14.44458511658012866973876953125">         <ele>1699.199951171875</ele>         <time>2026-02-28T11:46:30.000Z</time>         <extensions>           <ns3:TrackPointExtension>             <ns3:hr>108</ns3:hr>           </ns3:TrackPointExtension>         </extensions>       </trkpt>
       <trkpt lat="45.59010140597820281982421875" lon="14.44457975216209888458251953125">         <ele>1699.199951171875</ele>         <time>2026-02-28T11:46:37.000Z</time>         <extensions>           <ns3:TrackPointExtension>             <ns3:hr>106</ns3:hr>           </ns3:TrackPointExtension>         </extensions>       </trkpt>
       <trkpt lat="45.59010853059589862823486328125" lon="14.44457908160984516143798828125">         <ele>1699.4000244140625</ele>         <time>2026-02-28T11:46:40.000Z</time>         <extensions>           <ns3:TrackPointExtension>             <ns3:hr>103</ns3:hr>           </ns3:TrackPointExtension>         </extensions>       </trkpt>
       <trkpt lat="45.5901112966239452362060546875" lon="14.44459031336009502410888671875">         <ele>1699.4000244140625</ele>         <time>2026-02-28T11:46:46.000Z</time>         <extensions>           <ns3:TrackPointExtension>             <ns3:hr>104</ns3:hr>           </ns3:TrackPointExtension>         </extensions>       </trkpt>
       <trkpt lat="45.5900831334292888641357421875" lon="14.4445932470262050628662109375">         <ele>1699.4000244140625</ele>         <time>2026-02-28T11:46:59.000Z</time>         <extensions>           <ns3:TrackPointExtension>             <ns3:hr>104</ns3:hr>           </ns3:TrackPointExtension>         </extensions>       </trkpt>
       <trkpt lat="45.5900831334292888641357421875" lon="14.4445932470262050628662109375">         <ele>1699.4000244140625</ele>         <time>2026-02-28T11:47:13.000Z</time>         <extensions>           <ns3:TrackPointExtension>             <ns3:hr>102</ns3:hr>           </ns3:TrackPointExtension>         </extensions>       </trkpt>
       <trkpt lat="45.59009344317018985748291015625" lon="14.44459215737879276275634765625">         <ele>1699.199951171875</ele>         <time>2026-02-28T11:47:21.000Z</time>         <extensions>           <ns3:TrackPointExtension>             <ns3:hr>102</ns3:hr>           </ns3:TrackPointExtension>         </extensions>       </trkpt>
       <trkpt lat="45.5901079438626766204833984375" lon="14.4445846974849700927734375">         <ele>1699.199951171875</ele>         <time>2026-02-28T11:47:27.000Z</time>         <extensions>           <ns3:TrackPointExtension>             <ns3:hr>102</ns3:hr>           </ns3:TrackPointExtension>         </extensions>       </trkpt>
       <trkpt lat="45.5901009030640125274658203125" lon="14.4445862062275409698486328125">         <ele>1699.800048828125</ele>         <time>2026-02-28T11:47:35.000Z</time>         <extensions>           <ns3:TrackPointExtension>             <ns3:hr>101</ns3:hr>           </ns3:TrackPointExtension>         </extensions>       </trkpt>
       <trkpt lat="45.5900831334292888641357421875" lon="14.4445932470262050628662109375">         <ele>1699.5999755859375</ele>         <time>2026-02-28T11:47:39.000Z</time>         <extensions>           <ns3:TrackPointExtension>             <ns3:hr>98</ns3:hr>           </ns3:TrackPointExtension>         </extensions>       </trkpt>
       <trkpt lat="45.5900831334292888641357421875" lon="14.4445932470262050628662109375">         <ele>1699.4000244140625</ele>         <time>2026-02-28T11:47:41.000Z</time>         <extensions>           <ns3:TrackPointExtension>             <ns3:hr>96</ns3:hr>           </ns3:TrackPointExtension>         </extensions>       </trkpt>
       <trkpt lat="45.5900831334292888641357421875" lon="14.4445932470262050628662109375">         <ele>1699.5999755859375</ele>         <time>2026-02-28T11:47:50.000Z</time>         <extensions>           <ns3:TrackPointExtension>             <ns3:hr>99</ns3:hr>           </ns3:TrackPointExtension>         </extensions>       </trkpt>
       <trkpt lat="45.5900831334292888641357421875" lon="14.4445932470262050628662109375">         <ele>1699.5999755859375</ele>         <time>2026-02-28T11:47:55.000Z</time>         <extensions>           <ns3:TrackPointExtension>             <ns3:hr>102</ns3:hr>           </ns3:TrackPointExtension>         </extensions>       </trkpt>
       <trkpt lat="45.5900831334292888641357421875" lon="14.4445932470262050628662109375">         <ele>1699.5999755859375</ele>         <time>2026-02-28T11:47:58.000Z</time>         <extensions>           <ns3:TrackPointExtension>             <ns3:hr>102</ns3:hr>           </ns3:TrackPointExtension>         </extensions>       </trkpt>
       <trkpt lat="45.5900831334292888641357421875" lon="14.4445932470262050628662109375">         <ele>1699.4000244140625</ele>         <time>2026-02-28T11:48:06.000Z</time>         <extensions>           <ns3:TrackPointExtension>             <ns3:hr>101</ns3:hr>           </ns3:TrackPointExtension>         </extensions>       </trkpt>
       <trkpt lat="45.5900831334292888641357421875" lon="14.4445932470262050628662109375">         <ele>1699.5999755859375</ele>         <time>2026-02-28T11:48:12.000Z</time>         <extensions>           <ns3:TrackPointExtension>             <ns3:hr>98</ns3:hr>           </ns3:TrackPointExtension>         </extensions>       </trkpt>
       <trkpt lat="45.5900831334292888641357421875" lon="14.4445932470262050628662109375">         <ele>1699.800048828125</ele>         <time>2026-02-28T11:48:15.000Z</time>         <extensions>           <ns3:TrackPointExtension>             <ns3:hr>101</ns3:hr>           </ns3:TrackPointExtension>         </extensions>       </trkpt>
       <trkpt lat="45.5900831334292888641357421875" lon="14.4445932470262050628662109375">         <ele>1699.800048828125</ele>         <time>2026-02-28T11:48:16.000Z</time>         <extensions>           <ns3:TrackPointExtension>             <ns3:hr>104</ns3:hr>           </ns3:TrackPointExtension>         </extensions>       </trkpt>
       <trkpt lat="45.5900831334292888641357421875" lon="14.4445932470262050628662109375">         <ele>1699.800048828125</ele>         <time>2026-02-28T11:48:17.000Z</time>         <extensions>           <ns3:TrackPointExtension>             <ns3:hr>105</ns3:hr>           </ns3:TrackPointExtension>         </extensions>       </trkpt>
       <trkpt lat="45.5900831334292888641357421875" lon="14.4445932470262050628662109375">         <ele>1700</ele>         <time>2026-02-28T11:48:20.000Z</time>         <extensions>           <ns3:TrackPointExtension>             <ns3:hr>108</ns3:hr>           </ns3:TrackPointExtension>         </extensions>       </trkpt>
       <trkpt lat="45.5900918506085872650146484375" lon="14.44458243437111377716064453125">         <ele>1699.199951171875</ele>         <time>2026-02-28T11:48:25.000Z</time>         <extensions>           <ns3:TrackPointExtension>             <ns3:hr>108</ns3:hr>           </ns3:TrackPointExtension>         </extensions>       </trkpt>
       <trkpt lat="45.5900831334292888641357421875" lon="14.4445932470262050628662109375">         <ele>1699</ele>         <time>2026-02-28T11:48:35.000Z</time>         <extensions>           <ns3:TrackPointExtension>             <ns3:hr>103</ns3:hr>           </ns3:TrackPointExtension>         </extensions>       </trkpt>
       <trkpt lat="45.5900831334292888641357421875" lon="14.4445932470262050628662109375">         <ele>1699</ele>         <time>2026-02-28T11:48:38.000Z</time>         <extensions>           <ns3:TrackPointExtension>             <ns3:hr>102</ns3:hr>           </ns3:TrackPointExtension>         </extensions>       </trkpt>
       <trkpt lat="45.5900831334292888641357421875" lon="14.4445932470262050628662109375">         <ele>1699.199951171875</ele>         <time>2026-02-28T11:48:43.000Z</time>         <extensions>           <ns3:TrackPointExtension>             <ns3:hr>99</ns3:hr>           </ns3:TrackPointExtension>         </extensions>       </trkpt>
       <trkpt lat="45.5900831334292888641357421875" lon="14.4445932470262050628662109375">         <ele>1699</ele>         <time>2026-02-28T11:48:45.000Z</time>         <extensions>           <ns3:TrackPointExtension>             <ns3:hr>96</ns3:hr>           </ns3:TrackPointExtension>         </extensions>       </trkpt>
       <trkpt lat="45.5900831334292888641357421875" lon="14.4445932470262050628662109375">         <ele>1699</ele>         <time>2026-02-28T11:48:46.000Z</time>         <extensions>           <ns3:TrackPointExtension>             <ns3:hr>92</ns3:hr>           </ns3:TrackPointExtension>         </extensions>       </trkpt>
       <trkpt lat="45.5900831334292888641357421875" lon="14.4445932470262050628662109375">         <ele>1699</ele>         <time>2026-02-28T11:48:47.000Z</time>         <extensions>           <ns3:TrackPointExtension>             <ns3:hr>88</ns3:hr>           </ns3:TrackPointExtension>         </extensions>       </trkpt>
       <trkpt lat="45.5900831334292888641357421875" lon="14.4445932470262050628662109375">         <ele>1699</ele>         <time>2026-02-28T11:48:48.000Z</time>         <extensions>           <ns3:TrackPointExtension>             <ns3:hr>88</ns3:hr>           </ns3:TrackPointExtension>         </extensions>       </trkpt>
       <trkpt lat="45.5900831334292888641357421875" lon="14.4445932470262050628662109375">         <ele>1698.800048828125</ele>         <time>2026-02-28T11:49:02.000Z</time>         <extensions>           <ns3:TrackPointExtension>             <ns3:hr>85</ns3:hr>           </ns3:TrackPointExtension>         </extensions>       </trkpt>
       <trkpt lat="45.5900831334292888641357421875" lon="14.4445932470262050628662109375">         <ele>1698.800048828125</ele>         <time>2026-02-28T11:49:03.000Z</time>         <extensions>           <ns3:TrackPointExtension>             <ns3:hr>85</ns3:hr>           </ns3:TrackPointExtension>         </extensions>       </trkpt>
       <trkpt lat="45.5900831334292888641357421875" lon="14.4445932470262050628662109375">         <ele>1698.800048828125</ele>         <time>2026-02-28T11:49:07.000Z</time>         <extensions>           <ns3:TrackPointExtension>             <ns3:hr>82</ns3:hr>           </ns3:TrackPointExtension>         </extensions>       </trkpt>
       <trkpt lat="45.5900831334292888641357421875" lon="14.4445932470262050628662109375">         <ele>1698.5999755859375</ele>         <time>2026-02-28T11:49:19.000Z</time>         <extensions>           <ns3:TrackPointExtension>             <ns3:hr>82</ns3:hr>           </ns3:TrackPointExtension>         </extensions>       </trkpt>
       <trkpt lat="45.5900831334292888641357421875" lon="14.4445932470262050628662109375">         <ele>1698.4000244140625</ele>         <time>2026-02-28T11:49:25.000Z</time>         <extensions>           <ns3:TrackPointExtension>             <ns3:hr>84</ns3:hr>           </ns3:TrackPointExtension>         </extensions>       </trkpt>
       <trkpt lat="45.5900831334292888641357421875" lon="14.4445932470262050628662109375">         <ele>1697.800048828125</ele>         <time>2026-02-28T11:49:29.000Z</time>         <extensions>           <ns3:TrackPointExtension>             <ns3:hr>81</ns3:hr>           </ns3:TrackPointExtension>         </extensions>       </trkpt>
       <trkpt lat="45.5900831334292888641357421875" lon="14.4445932470262050628662109375">         <ele>1698.5999755859375</ele>         <time>2026-02-28T11:49:47.000Z</time>         <extensions>           <ns3:TrackPointExtension>             <ns3:hr>79</ns3:hr>           </ns3:TrackPointExtension>         </extensions>       </trkpt>
       <trkpt lat="45.5900831334292888641357421875" lon="14.4445932470262050628662109375">         <ele>1698.5999755859375</ele>         <time>2026-02-28T11:49:57.000Z</time>         <extensions>           <ns3:TrackPointExtension>             <ns3:hr>76</ns3:hr>           </ns3:TrackPointExtension>         </extensions>       </trkpt>
       <trkpt lat="45.5900831334292888641357421875" lon="14.4445932470262050628662109375">         <ele>1698.4000244140625</ele>         <time>2026-02-28T11:50:13.000Z</time>         <extensions>           <ns3:TrackPointExtension>             <ns3:hr>75</ns3:hr>           </ns3:TrackPointExtension>         </extensions>       </trkpt>
       <trkpt lat="45.5900952033698558807373046875" lon="14.444585032761096954345703125">         <ele>1698</ele>         <time>2026-02-28T11:50:16.000Z</time>         <extensions>           <ns3:TrackPointExtension>             <ns3:hr>79</ns3:hr>           </ns3:TrackPointExtension>         </extensions>       </trkpt>
       <trkpt lat="45.5900952033698558807373046875" lon="14.444585032761096954345703125">         <ele>1698.199951171875</ele>         <time>2026-02-28T11:50:18.000Z</time>         <extensions>           <ns3:TrackPointExtension>             <ns3:hr>83</ns3:hr>           </ns3:TrackPointExtension>         </extensions>       </trkpt>
       <trkpt lat="45.5900952033698558807373046875" lon="14.444585032761096954345703125">         <ele>1698.5999755859375</ele>         <time>2026-02-28T11:50:23.000Z</time>         <extensions>           <ns3:TrackPointExtension>             <ns3:hr>84</ns3:hr>           </ns3:TrackPointExtension>         </extensions>       </trkpt>
       <trkpt lat="45.59010165743529796600341796875" lon="14.44456550292670726776123046875">         <ele>1698.5999755859375</ele>         <time>2026-02-28T11:50:31.000Z</time>         <extensions>           <ns3:TrackPointExtension>             <ns3:hr>81</ns3:hr>           </ns3:TrackPointExtension>         </extensions>       </trkpt>
       <trkpt lat="45.5901062674820423126220703125" lon="14.444583021104335784912109375">         <ele>1698.199951171875</ele>         <time>2026-02-28T11:50:39.000Z</time>         <extensions>           <ns3:TrackPointExtension>             <ns3:hr>82</ns3:hr>           </ns3:TrackPointExtension>         </extensions>       </trkpt>
       <trkpt lat="45.5901243723928928375244140625" lon="14.44457237608730792999267578125">         <ele>1698</ele>         <time>2026-02-28T11:50:47.000Z</time>         <extensions>           <ns3:TrackPointExtension>             <ns3:hr>81</ns3:hr>           </ns3:TrackPointExtension>         </extensions>       </trkpt>
       <trkpt lat="45.5901109613478183746337890625" lon="14.4445754773914813995361328125">         <ele>1698</ele>         <time>2026-02-28T11:50:51.000Z</time>         <extensions>           <ns3:TrackPointExtension>             <ns3:hr>78</ns3:hr>           </ns3:TrackPointExtension>         </extensions>       </trkpt>
       <trkpt lat="45.59011288918554782867431640625" lon="14.44457556121051311492919921875">         <ele>1698.199951171875</ele>         <time>2026-02-28T11:50:57.000Z</time>         <extensions>           <ns3:TrackPointExtension>             <ns3:hr>76</ns3:hr>           </ns3:TrackPointExtension>         </extensions>       </trkpt>
       <trkpt lat="45.59009981341660022735595703125" lon="14.44459031336009502410888671875">         <ele>1698</ele>         <time>2026-02-28T11:51:06.000Z</time>         <extensions>           <ns3:TrackPointExtension>             <ns3:hr>74</ns3:hr>           </ns3:TrackPointExtension>         </extensions>       </trkpt>
       <trkpt lat="45.5900952033698558807373046875" lon="14.444585032761096954345703125">         <ele>1698</ele>         <time>2026-02-28T11:51:12.000Z</time>         <extensions>           <ns3:TrackPointExtension>             <ns3:hr>71</ns3:hr>           </ns3:TrackPointExtension>         </extensions>       </trkpt>
       <trkpt lat="45.5900952033698558807373046875" lon="14.444585032761096954345703125">         <ele>1698</ele>         <time>2026-02-28T11:51:15.000Z</time>         <extensions>           <ns3:TrackPointExtension>             <ns3:hr>72</ns3:hr>           </ns3:TrackPointExtension>         </extensions>       </trkpt>
       <trkpt lat="45.59010542929172515869140625" lon="14.44459048099815845489501953125">         <ele>1698.199951171875</ele>         <time>2026-02-28T11:51:17.000Z</time>         <extensions>           <ns3:TrackPointExtension>             <ns3:hr>75</ns3:hr>           </ns3:TrackPointExtension>         </extensions>       </trkpt>
       <trkpt lat="45.5901213549077510833740234375" lon="14.44458394311368465423583984375">         <ele>1698.5999755859375</ele>         <time>2026-02-28T11:51:23.000Z</time>         <extensions>           <ns3:TrackPointExtension>             <ns3:hr>77</ns3:hr>           </ns3:TrackPointExtension>         </extensions>       </trkpt>
       <trkpt lat="45.59008841402828693389892578125" lon="14.4445892237126827239990234375">         <ele>1698.4000244140625</ele>         <time>2026-02-28T11:51:31.000Z</time>         <extensions>           <ns3:TrackPointExtension>             <ns3:hr>79</ns3:hr>           </ns3:TrackPointExtension>         </extensions>       </trkpt>
       <trkpt lat="45.59008606709539890289306640625" lon="14.4445860385894775390625">         <ele>1698.5999755859375</ele>         <time>2026-02-28T11:51:33.000Z</time>         <extensions>           <ns3:TrackPointExtension>             <ns3:hr>82</ns3:hr>           </ns3:TrackPointExtension>         </extensions>       </trkpt>
       <trkpt lat="45.5900921858847141265869140625" lon="14.44458478130400180816650390625">         <ele>1698.800048828125</ele>         <time>2026-02-28T11:51:34.000Z</time>         <extensions>           <ns3:TrackPointExtension>             <ns3:hr>85</ns3:hr>           </ns3:TrackPointExtension>         </extensions>       </trkpt>
       <trkpt lat="45.5901141464710235595703125" lon="14.44458377547562122344970703125">         <ele>1698.800048828125</ele>         <time>2026-02-28T11:51:37.000Z</time>         <extensions>           <ns3:TrackPointExtension>             <ns3:hr>89</ns3:hr>           </ns3:TrackPointExtension>         </extensions>       </trkpt>
       <trkpt lat="45.590107440948486328125" lon="14.444580338895320892333984375">         <ele>1698.4000244140625</ele>         <time>2026-02-28T11:51:41.000Z</time>         <extensions>           <ns3:TrackPointExtension>             <ns3:hr>91</ns3:hr>           </ns3:TrackPointExtension>         </extensions>       </trkpt>
       <trkpt lat="45.590109787881374359130859375" lon="14.44457463920116424560546875">         <ele>1698.5999755859375</ele>         <time>2026-02-28T11:51:47.000Z</time>         <extensions>           <ns3:TrackPointExtension>             <ns3:hr>94</ns3:hr>           </ns3:TrackPointExtension>         </extensions>       </trkpt>
       <trkpt lat="45.5901166610419750213623046875" lon="14.44456667639315128326416015625">         <ele>1698.800048828125</ele>         <time>2026-02-28T11:51:52.000Z</time>         <extensions>           <ns3:TrackPointExtension>             <ns3:hr>93</ns3:hr>           </ns3:TrackPointExtension>         </extensions>       </trkpt>
       <trkpt lat="45.5901096202433109283447265625" lon="14.44456717930734157562255859375">         <ele>1698.5999755859375</ele>         <time>2026-02-28T11:51:56.000Z</time>         <extensions>           <ns3:TrackPointExtension>             <ns3:hr>90</ns3:hr>           </ns3:TrackPointExtension>         </extensions>       </trkpt>
       <trkpt lat="45.5901183374226093292236328125" lon="14.4445686042308807373046875">         <ele>1698.800048828125</ele>         <time>2026-02-28T11:51:58.000Z</time>         <extensions>           <ns3:TrackPointExtension>             <ns3:hr>87</ns3:hr>           </ns3:TrackPointExtension>         </extensions>       </trkpt>
       <trkpt lat="45.59012889862060546875" lon="14.44457237608730792999267578125">         <ele>1699</ele>         <time>2026-02-28T11:52:05.000Z</time>         <extensions>           <ns3:TrackPointExtension>             <ns3:hr>85</ns3:hr>           </ns3:TrackPointExtension>         </extensions>       </trkpt>
       <trkpt lat="45.59012764133512973785400390625" lon="14.44456567056477069854736328125">         <ele>1698.5999755859375</ele>         <time>2026-02-28T11:52:15.000Z</time>         <extensions>           <ns3:TrackPointExtension>             <ns3:hr>84</ns3:hr>           </ns3:TrackPointExtension>         </extensions>       </trkpt>
       <trkpt lat="45.59012797661125659942626953125" lon="14.44456256926059722900390625">         <ele>1698.4000244140625</ele>         <time>2026-02-28T11:52:18.000Z</time>         <extensions>           <ns3:TrackPointExtension>             <ns3:hr>88</ns3:hr>           </ns3:TrackPointExtension>         </extensions>       </trkpt>
       <trkpt lat="45.59011540375649929046630859375" lon="14.44456902332603931427001953125">         <ele>1698.800048828125</ele>         <time>2026-02-28T11:52:20.000Z</time>         <extensions>           <ns3:TrackPointExtension>             <ns3:hr>92</ns3:hr>           </ns3:TrackPointExtension>         </extensions>       </trkpt>
       <trkpt lat="45.59010601602494716644287109375" lon="14.44457589648663997650146484375">         <ele>1699</ele>         <time>2026-02-28T11:52:24.000Z</time>         <extensions>           <ns3:TrackPointExtension>             <ns3:hr>92</ns3:hr>           </ns3:TrackPointExtension>         </extensions>       </trkpt>
       <trkpt lat="45.5901007354259490966796875" lon="14.44458561949431896209716796875">         <ele>1699.199951171875</ele>         <time>2026-02-28T11:52:27.000Z</time>         <extensions>           <ns3:TrackPointExtension>             <ns3:hr>95</ns3:hr>           </ns3:TrackPointExtension>         </extensions>       </trkpt>
       <trkpt lat="45.59009042568504810333251953125" lon="14.444598443806171417236328125">         <ele>1699.199951171875</ele>         <time>2026-02-28T11:52:35.000Z</time>         <extensions>           <ns3:TrackPointExtension>             <ns3:hr>97</ns3:hr>           </ns3:TrackPointExtension>         </extensions>       </trkpt>
       <trkpt lat="45.5900952033698558807373046875" lon="14.444585032761096954345703125">         <ele>1699</ele>         <time>2026-02-28T11:52:49.000Z</time>         <extensions>           <ns3:TrackPointExtension>             <ns3:hr>96</ns3:hr>           </ns3:TrackPointExtension>         </extensions>       </trkpt>
       <trkpt lat="45.5900952033698558807373046875" lon="14.444585032761096954345703125">         <ele>1698.5999755859375</ele>         <time>2026-02-28T11:53:02.000Z</time>         <extensions>           <ns3:TrackPointExtension>             <ns3:hr>94</ns3:hr>           </ns3:TrackPointExtension>         </extensions>       </trkpt>
       <trkpt lat="45.5900938622653484344482421875" lon="14.44460355676710605621337890625">         <ele>1698.4000244140625</ele>         <time>2026-02-28T11:53:10.000Z</time>         <extensions>           <ns3:TrackPointExtension>             <ns3:hr>97</ns3:hr>           </ns3:TrackPointExtension>         </extensions>       </trkpt>
       <trkpt lat="45.59010400436818599700927734375" lon="14.4445992819964885711669921875">         <ele>1698.4000244140625</ele>         <time>2026-02-28T11:53:12.000Z</time>         <extensions>           <ns3:TrackPointExtension>             <ns3:hr>94</ns3:hr>           </ns3:TrackPointExtension>         </extensions>       </trkpt>
       <trkpt lat="45.59010433964431285858154296875" lon="14.44459718652069568634033203125">         <ele>1698.4000244140625</ele>         <time>2026-02-28T11:53:13.000Z</time>         <extensions>           <ns3:TrackPointExtension>             <ns3:hr>92</ns3:hr>           </ns3:TrackPointExtension>         </extensions>       </trkpt>
       <trkpt lat="45.5901173315942287445068359375" lon="14.4445825181901454925537109375">         <ele>1698.5999755859375</ele>         <time>2026-02-28T11:53:24.000Z</time>         <extensions>           <ns3:TrackPointExtension>             <ns3:hr>92</ns3:hr>           </ns3:TrackPointExtension>         </extensions>       </trkpt>
       <trkpt lat="45.59010752476751804351806640625" lon="14.44457857869565486907958984375">         <ele>1699</ele>         <time>2026-02-28T11:53:34.000Z</time>         <extensions>           <ns3:TrackPointExtension>             <ns3:hr>94</ns3:hr>           </ns3:TrackPointExtension>         </extensions>       </trkpt>
       <trkpt lat="45.5901087820529937744140625" lon="14.444583356380462646484375">         <ele>1699</ele>         <time>2026-02-28T11:53:37.000Z</time>         <extensions>           <ns3:TrackPointExtension>             <ns3:hr>97</ns3:hr>           </ns3:TrackPointExtension>         </extensions>       </trkpt>
       <trkpt lat="45.5900995619595050811767578125" lon="14.4445900619029998779296875">         <ele>1698.5999755859375</ele>         <time>2026-02-28T11:53:44.000Z</time>         <extensions>           <ns3:TrackPointExtension>             <ns3:hr>96</ns3:hr>           </ns3:TrackPointExtension>         </extensions>       </trkpt>
       <trkpt lat="45.59011070989072322845458984375" lon="14.444577991962432861328125">         <ele>1698.800048828125</ele>         <time>2026-02-28T11:53:52.000Z</time>         <extensions>           <ns3:TrackPointExtension>             <ns3:hr>95</ns3:hr>           </ns3:TrackPointExtension>         </extensions>       </trkpt>
       <trkpt lat="45.59010484255850315093994140625" lon="14.44457489065825939178466796875">         <ele>1699</ele>         <time>2026-02-28T11:53:56.000Z</time>         <extensions>           <ns3:TrackPointExtension>             <ns3:hr>87</ns3:hr>           </ns3:TrackPointExtension>         </extensions>       </trkpt>
       <trkpt lat="45.59010551311075687408447265625" lon="14.444574974477291107177734375">         <ele>1699</ele>         <time>2026-02-28T11:53:57.000Z</time>         <extensions>           <ns3:TrackPointExtension>             <ns3:hr>84</ns3:hr>           </ns3:TrackPointExtension>         </extensions>       </trkpt>
       <trkpt lat="45.5901052616536617279052734375" lon="14.44457539357244968414306640625">         <ele>1698.800048828125</ele>         <time>2026-02-28T11:53:58.000Z</time>         <extensions>           <ns3:TrackPointExtension>             <ns3:hr>84</ns3:hr>           </ns3:TrackPointExtension>         </extensions>       </trkpt>
       <trkpt lat="45.5901109613478183746337890625" lon="14.44457539357244968414306640625">         <ele>1699</ele>         <time>2026-02-28T11:54:05.000Z</time>         <extensions>           <ns3:TrackPointExtension>             <ns3:hr>87</ns3:hr>           </ns3:TrackPointExtension>         </extensions>       </trkpt>
       <trkpt lat="45.590123869478702545166015625" lon="14.444556869566440582275390625">         <ele>1699</ele>         <time>2026-02-28T11:54:14.000Z</time>         <extensions>           <ns3:TrackPointExtension>             <ns3:hr>89</ns3:hr>           </ns3:TrackPointExtension>         </extensions>       </trkpt>
       <trkpt lat="45.59014163911342620849609375" lon="14.44454991258680820465087890625">         <ele>1699.199951171875</ele>         <time>2026-02-28T11:54:25.000Z</time>         <extensions>           <ns3:TrackPointExtension>             <ns3:hr>88</ns3:hr>           </ns3:TrackPointExtension>         </extensions>       </trkpt>
       <trkpt lat="45.590128563344478607177734375" lon="14.4445637427270412445068359375">         <ele>1699.199951171875</ele>         <time>2026-02-28T11:54:33.000Z</time>         <extensions>           <ns3:TrackPointExtension>             <ns3:hr>88</ns3:hr>           </ns3:TrackPointExtension>         </extensions>       </trkpt>
       <trkpt lat="45.59008522890508174896240234375" lon="14.44459651596844196319580078125">         <ele>1698.800048828125</ele>         <time>2026-02-28T11:54:40.000Z</time>         <extensions>           <ns3:TrackPointExtension>             <ns3:hr>88</ns3:hr>           </ns3:TrackPointExtension>         </extensions>       </trkpt>
       <trkpt lat="45.59008908458054065704345703125" lon="14.44459986872971057891845703125">         <ele>1699</ele>         <time>2026-02-28T11:54:43.000Z</time>         <extensions>           <ns3:TrackPointExtension>             <ns3:hr>91</ns3:hr>           </ns3:TrackPointExtension>         </extensions>       </trkpt>
       <trkpt lat="45.5900905095040798187255859375" lon="14.44459785707294940948486328125">         <ele>1699.199951171875</ele>         <time>2026-02-28T11:54:45.000Z</time>         <extensions>           <ns3:TrackPointExtension>             <ns3:hr>96</ns3:hr>           </ns3:TrackPointExtension>         </extensions>       </trkpt>
       <trkpt lat="45.59010836295783519744873046875" lon="14.44459651596844196319580078125">         <ele>1699.199951171875</ele>         <time>2026-02-28T11:54:51.000Z</time>         <extensions>           <ns3:TrackPointExtension>             <ns3:hr>98</ns3:hr>           </ns3:TrackPointExtension>         </extensions>       </trkpt>
       <trkpt lat="45.59010115452110767364501953125" lon="14.444595091044902801513671875">         <ele>1699.199951171875</ele>         <time>2026-02-28T11:54:56.000Z</time>         <extensions>           <ns3:TrackPointExtension>             <ns3:hr>95</ns3:hr>           </ns3:TrackPointExtension>         </extensions>       </trkpt>
       <trkpt lat="45.59010148979723453521728515625" lon="14.44459400139749050140380859375">         <ele>1699.199951171875</ele>         <time>2026-02-28T11:55:00.000Z</time>         <extensions>           <ns3:TrackPointExtension>             <ns3:hr>95</ns3:hr>           </ns3:TrackPointExtension>         </extensions>       </trkpt>
       <trkpt lat="45.590103082358837127685546875" lon="14.4445872120559215545654296875">         <ele>1699.199951171875</ele>         <time>2026-02-28T11:55:07.000Z</time>         <extensions>           <ns3:TrackPointExtension>             <ns3:hr>95</ns3:hr>           </ns3:TrackPointExtension>         </extensions>       </trkpt>
       <trkpt lat="45.59010668657720088958740234375" lon="14.44460925646126270294189453125">         <ele>1699</ele>         <time>2026-02-28T11:55:13.000Z</time>         <extensions>           <ns3:TrackPointExtension>             <ns3:hr>95</ns3:hr>           </ns3:TrackPointExtension>         </extensions>       </trkpt>
       <trkpt lat="45.59009872376918792724609375" lon="14.4446019642055034637451171875">         <ele>1698.800048828125</ele>         <time>2026-02-28T11:55:21.000Z</time>         <extensions>           <ns3:TrackPointExtension>             <ns3:hr>92</ns3:hr>           </ns3:TrackPointExtension>         </extensions>       </trkpt>
       <trkpt lat="45.5900978855788707733154296875" lon="14.4446006231009960174560546875">         <ele>1699</ele>         <time>2026-02-28T11:55:23.000Z</time>         <extensions>           <ns3:TrackPointExtension>             <ns3:hr>89</ns3:hr>           </ns3:TrackPointExtension>         </extensions>       </trkpt>
       <trkpt lat="45.5900926887989044189453125" lon="14.44459634833037853240966796875">         <ele>1699</ele>         <time>2026-02-28T11:55:25.000Z</time>         <extensions>           <ns3:TrackPointExtension>             <ns3:hr>86</ns3:hr>           </ns3:TrackPointExtension>         </extensions>       </trkpt>
       <trkpt lat="45.59009109623730182647705078125" lon="14.44458645768463611602783203125">         <ele>1699.199951171875</ele>         <time>2026-02-28T11:55:28.000Z</time>         <extensions>           <ns3:TrackPointExtension>             <ns3:hr>83</ns3:hr>           </ns3:TrackPointExtension>         </extensions>       </trkpt>
       <trkpt lat="45.5900985561311244964599609375" lon="14.4445855356752872467041015625">         <ele>1699.4000244140625</ele>         <time>2026-02-28T11:55:32.000Z</time>         <extensions>           <ns3:TrackPointExtension>             <ns3:hr>86</ns3:hr>           </ns3:TrackPointExtension>         </extensions>       </trkpt>
       <trkpt lat="45.590101070702075958251953125" lon="14.4445855356752872467041015625">         <ele>1699.199951171875</ele>         <time>2026-02-28T11:55:33.000Z</time>         <extensions>           <ns3:TrackPointExtension>             <ns3:hr>87</ns3:hr>           </ns3:TrackPointExtension>         </extensions>       </trkpt>
       <trkpt lat="45.59010283090174198150634765625" lon="14.44457388482987880706787109375">         <ele>1699.199951171875</ele>         <time>2026-02-28T11:55:36.000Z</time>         <extensions>           <ns3:TrackPointExtension>             <ns3:hr>90</ns3:hr>           </ns3:TrackPointExtension>         </extensions>       </trkpt>
       <trkpt lat="45.5901005677878856658935546875" lon="14.44456734694540500640869140625">         <ele>1699.199951171875</ele>         <time>2026-02-28T11:55:40.000Z</time>         <extensions>           <ns3:TrackPointExtension>             <ns3:hr>93</ns3:hr>           </ns3:TrackPointExtension>         </extensions>       </trkpt>
       <trkpt lat="45.59010366909205913543701171875" lon="14.444576986134052276611328125">         <ele>1699.4000244140625</ele>         <time>2026-02-28T11:55:42.000Z</time>         <extensions>           <ns3:TrackPointExtension>             <ns3:hr>96</ns3:hr>           </ns3:TrackPointExtension>         </extensions>       </trkpt>
       <trkpt lat="45.59010718949139118194580078125" lon="14.44459249265491962432861328125">         <ele>1699.5999755859375</ele>         <time>2026-02-28T11:55:46.000Z</time>         <extensions>           <ns3:TrackPointExtension>             <ns3:hr>96</ns3:hr>           </ns3:TrackPointExtension>         </extensions>       </trkpt>
       <trkpt lat="45.59010811150074005126953125" lon="14.4445929117500782012939453125">         <ele>1699.5999755859375</ele>         <time>2026-02-28T11:55:47.000Z</time>         <extensions>           <ns3:TrackPointExtension>             <ns3:hr>95</ns3:hr>           </ns3:TrackPointExtension>         </extensions>       </trkpt>
       <trkpt lat="45.5900992266833782196044921875" lon="14.44458813406527042388916015625">         <ele>1700.199951171875</ele>         <time>2026-02-28T11:55:52.000Z</time>         <extensions>           <ns3:TrackPointExtension>             <ns3:hr>92</ns3:hr>           </ns3:TrackPointExtension>         </extensions>       </trkpt>
       <trkpt lat="45.59010081924498081207275390625" lon="14.44458805024623870849609375">         <ele>1700.199951171875</ele>         <time>2026-02-28T11:55:53.000Z</time>         <extensions>           <ns3:TrackPointExtension>             <ns3:hr>89</ns3:hr>           </ns3:TrackPointExtension>         </extensions>       </trkpt>
       <trkpt lat="45.590115822851657867431640625" lon="14.44458670914173126220703125">         <ele>1700</ele>         <time>2026-02-28T11:55:55.000Z</time>         <extensions>           <ns3:TrackPointExtension>             <ns3:hr>93</ns3:hr>           </ns3:TrackPointExtension>         </extensions>       </trkpt>
       <trkpt lat="45.590120851993560791015625" lon="14.4445860385894775390625">         <ele>1699.5999755859375</ele>         <time>2026-02-28T11:55:56.000Z</time>         <extensions>           <ns3:TrackPointExtension>             <ns3:hr>97</ns3:hr>           </ns3:TrackPointExtension>         </extensions>       </trkpt>
       <trkpt lat="45.590125210583209991455078125" lon="14.44458511658012866973876953125">         <ele>1699.4000244140625</ele>         <time>2026-02-28T11:55:57.000Z</time>         <extensions>           <ns3:TrackPointExtension>             <ns3:hr>100</ns3:hr>           </ns3:TrackPointExtension>         </extensions>       </trkpt>
       <trkpt lat="45.59012361802160739898681640625" lon="14.44458293728530406951904296875">         <ele>1699.4000244140625</ele>         <time>2026-02-28T11:55:59.000Z</time>         <extensions>           <ns3:TrackPointExtension>             <ns3:hr>103</ns3:hr>           </ns3:TrackPointExtension>         </extensions>       </trkpt>
       <trkpt lat="45.5901106260716915130615234375" lon="14.4445892237126827239990234375">         <ele>1699.4000244140625</ele>         <time>2026-02-28T11:56:01.000Z</time>         <extensions>           <ns3:TrackPointExtension>             <ns3:hr>103</ns3:hr>           </ns3:TrackPointExtension>         </extensions>       </trkpt>
       <trkpt lat="45.5900965444743633270263671875" lon="14.44458947516977787017822265625">         <ele>1699.4000244140625</ele>         <time>2026-02-28T11:56:03.000Z</time>         <extensions>           <ns3:TrackPointExtension>             <ns3:hr>100</ns3:hr>           </ns3:TrackPointExtension>         </extensions>       </trkpt>
       <trkpt lat="45.5900953710079193115234375" lon="14.44458746351301670074462890625">         <ele>1699.4000244140625</ele>         <time>2026-02-28T11:56:07.000Z</time>         <extensions>           <ns3:TrackPointExtension>             <ns3:hr>97</ns3:hr>           </ns3:TrackPointExtension>         </extensions>       </trkpt>
       <trkpt lat="45.59009411372244358062744140625" lon="14.44458545185625553131103515625">         <ele>1699.4000244140625</ele>         <time>2026-02-28T11:56:09.000Z</time>         <extensions>           <ns3:TrackPointExtension>             <ns3:hr>94</ns3:hr>           </ns3:TrackPointExtension>         </extensions>       </trkpt>
       <trkpt lat="45.590086989104747772216796875" lon="14.4445855356752872467041015625">         <ele>1699.4000244140625</ele>         <time>2026-02-28T11:56:10.000Z</time>         <extensions>           <ns3:TrackPointExtension>             <ns3:hr>96</ns3:hr>           </ns3:TrackPointExtension>         </extensions>       </trkpt>
       <trkpt lat="45.5900814570486545562744140625" lon="14.44458528421819210052490234375">         <ele>1699.199951171875</ele>         <time>2026-02-28T11:56:12.000Z</time>         <extensions>           <ns3:TrackPointExtension>             <ns3:hr>99</ns3:hr>           </ns3:TrackPointExtension>         </extensions>       </trkpt>
       <trkpt lat="45.5900967121124267578125" lon="14.4445788301527500152587890625">         <ele>1699.800048828125</ele>         <time>2026-02-28T11:56:16.000Z</time>         <extensions>           <ns3:TrackPointExtension>             <ns3:hr>103</ns3:hr>           </ns3:TrackPointExtension>         </extensions>       </trkpt>
       <trkpt lat="45.59010140597820281982421875" lon="14.44457656703889369964599609375">         <ele>1699.800048828125</ele>         <time>2026-02-28T11:56:17.000Z</time>         <extensions>           <ns3:TrackPointExtension>             <ns3:hr>106</ns3:hr>           </ns3:TrackPointExtension>         </extensions>       </trkpt>
       <trkpt lat="45.59009604156017303466796875" lon="14.44458344019949436187744140625">         <ele>1699.199951171875</ele>         <time>2026-02-28T11:56:22.000Z</time>         <extensions>           <ns3:TrackPointExtension>             <ns3:hr>106</ns3:hr>           </ns3:TrackPointExtension>         </extensions>       </trkpt>
       <trkpt lat="45.59010249562561511993408203125" lon="14.44459115155041217803955078125">         <ele>1699</ele>         <time>2026-02-28T11:56:27.000Z</time>         <extensions>           <ns3:TrackPointExtension>             <ns3:hr>103</ns3:hr>           </ns3:TrackPointExtension>         </extensions>       </trkpt>
       <trkpt lat="45.590115822851657867431640625" lon="14.44459140300750732421875">         <ele>1699.199951171875</ele>         <time>2026-02-28T11:56:32.000Z</time>         <extensions>           <ns3:TrackPointExtension>             <ns3:hr>102</ns3:hr>           </ns3:TrackPointExtension>         </extensions>       </trkpt>
       <trkpt lat="45.59009729884564876556396484375" lon="14.44459182210266590118408203125">         <ele>1699.800048828125</ele>         <time>2026-02-28T11:56:38.000Z</time>         <extensions>           <ns3:TrackPointExtension>             <ns3:hr>99</ns3:hr>           </ns3:TrackPointExtension>         </extensions>       </trkpt>
       <trkpt lat="45.59009176678955554962158203125" lon="14.4445942528545856475830078125">         <ele>1699.5999755859375</ele>         <time>2026-02-28T11:56:40.000Z</time>         <extensions>           <ns3:TrackPointExtension>             <ns3:hr>95</ns3:hr>           </ns3:TrackPointExtension>         </extensions>       </trkpt>
       <trkpt lat="45.59008455835282802581787109375" lon="14.44460012018680572509765625">         <ele>1699.5999755859375</ele>         <time>2026-02-28T11:56:42.000Z</time>         <extensions>           <ns3:TrackPointExtension>             <ns3:hr>91</ns3:hr>           </ns3:TrackPointExtension>         </extensions>       </trkpt>
       <trkpt lat="45.5900952033698558807373046875" lon="14.444585032761096954345703125">         <ele>1699.4000244140625</ele>         <time>2026-02-28T11:56:51.000Z</time>         <extensions>           <ns3:TrackPointExtension>             <ns3:hr>89</ns3:hr>           </ns3:TrackPointExtension>         </extensions>       </trkpt>
       <trkpt lat="45.59009746648371219635009765625" lon="14.4445848651230335235595703125">         <ele>1699.5999755859375</ele>         <time>2026-02-28T11:57:00.000Z</time>         <extensions>           <ns3:TrackPointExtension>             <ns3:hr>91</ns3:hr>           </ns3:TrackPointExtension>         </extensions>       </trkpt>
       <trkpt lat="45.59010014869272708892822265625" lon="14.44458511658012866973876953125">         <ele>1699.199951171875</ele>         <time>2026-02-28T11:57:04.000Z</time>         <extensions>           <ns3:TrackPointExtension>             <ns3:hr>94</ns3:hr>           </ns3:TrackPointExtension>         </extensions>       </trkpt>
       <trkpt lat="45.5901034176349639892578125" lon="14.44459140300750732421875">         <ele>1699.4000244140625</ele>         <time>2026-02-28T11:57:08.000Z</time>         <extensions>           <ns3:TrackPointExtension>             <ns3:hr>97</ns3:hr>           </ns3:TrackPointExtension>         </extensions>       </trkpt>
       <trkpt lat="45.59010903351008892059326171875" lon="14.44459316320717334747314453125">         <ele>1700.199951171875</ele>         <time>2026-02-28T11:57:22.000Z</time>         <extensions>           <ns3:TrackPointExtension>             <ns3:hr>94</ns3:hr>           </ns3:TrackPointExtension>         </extensions>       </trkpt>
       <trkpt lat="45.59010903351008892059326171875" lon="14.44459316320717334747314453125">         <ele>1700.199951171875</ele>         <time>2026-02-28T11:57:23.000Z</time>         <extensions>           <ns3:TrackPointExtension>             <ns3:hr>92</ns3:hr>           </ns3:TrackPointExtension>         </extensions>       </trkpt>
       <trkpt lat="45.59010903351008892059326171875" lon="14.44459316320717334747314453125">         <ele>1700.4000244140625</ele>         <time>2026-02-28T11:57:30.000Z</time>         <extensions>           <ns3:TrackPointExtension>             <ns3:hr>95</ns3:hr>           </ns3:TrackPointExtension>         </extensions>       </trkpt>
       <trkpt lat="45.5901039205491542816162109375" lon="14.44458696059882640838623046875">         <ele>1699.5999755859375</ele>         <time>2026-02-28T11:57:39.000Z</time>         <extensions>           <ns3:TrackPointExtension>             <ns3:hr>97</ns3:hr>           </ns3:TrackPointExtension>         </extensions>       </trkpt>
       <trkpt lat="45.59010316617786884307861328125" lon="14.44459919817745685577392578125">         <ele>1699.800048828125</ele>         <time>2026-02-28T11:57:42.000Z</time>         <extensions>           <ns3:TrackPointExtension>             <ns3:hr>97</ns3:hr>           </ns3:TrackPointExtension>         </extensions>       </trkpt>
       <trkpt lat="45.5900926887989044189453125" lon="14.4445739686489105224609375">         <ele>1700.199951171875</ele>         <time>2026-02-28T11:57:48.000Z</time>         <extensions>           <ns3:TrackPointExtension>             <ns3:hr>100</ns3:hr>           </ns3:TrackPointExtension>         </extensions>       </trkpt>
       <trkpt lat="45.5900844745337963104248046875" lon="14.4445593841373920440673828125">         <ele>1700.199951171875</ele>         <time>2026-02-28T11:57:53.000Z</time>         <extensions>           <ns3:TrackPointExtension>             <ns3:hr>103</ns3:hr>           </ns3:TrackPointExtension>         </extensions>       </trkpt>
       <trkpt lat="45.5900911800563335418701171875" lon="14.444525353610515594482421875">         <ele>1700.199951171875</ele>         <time>2026-02-28T11:57:59.000Z</time>         <extensions>           <ns3:TrackPointExtension>             <ns3:hr>102</ns3:hr>           </ns3:TrackPointExtension>         </extensions>       </trkpt>
       <trkpt lat="45.59008841402828693389892578125" lon="14.44454287178814411163330078125">         <ele>1700.4000244140625</ele>         <time>2026-02-28T11:58:05.000Z</time>         <extensions>           <ns3:TrackPointExtension>             <ns3:hr>103</ns3:hr>           </ns3:TrackPointExtension>         </extensions>       </trkpt>
       <trkpt lat="45.59008824639022350311279296875" lon="14.444540105760097503662109375">         <ele>1700.4000244140625</ele>         <time>2026-02-28T11:58:13.000Z</time>         <extensions>           <ns3:TrackPointExtension>             <ns3:hr>100</ns3:hr>           </ns3:TrackPointExtension>         </extensions>       </trkpt>
       <trkpt lat="45.59008824639022350311279296875" lon="14.444540105760097503662109375">         <ele>1700.5999755859375</ele>         <time>2026-02-28T11:58:17.000Z</time>         <extensions>           <ns3:TrackPointExtension>             <ns3:hr>103</ns3:hr>           </ns3:TrackPointExtension>         </extensions>       </trkpt>
       <trkpt lat="45.59008824639022350311279296875" lon="14.444540105760097503662109375">         <ele>1700.4000244140625</ele>         <time>2026-02-28T11:58:19.000Z</time>         <extensions>           <ns3:TrackPointExtension>             <ns3:hr>105</ns3:hr>           </ns3:TrackPointExtension>         </extensions>       </trkpt>
       <trkpt lat="45.59008824639022350311279296875" lon="14.444540105760097503662109375">         <ele>1700.199951171875</ele>         <time>2026-02-28T11:58:21.000Z</time>         <extensions>           <ns3:TrackPointExtension>             <ns3:hr>109</ns3:hr>           </ns3:TrackPointExtension>         </extensions>       </trkpt>
       <trkpt lat="45.59008824639022350311279296875" lon="14.444540105760097503662109375">         <ele>1700.199951171875</ele>         <time>2026-02-28T11:58:39.000Z</time>         <extensions>           <ns3:TrackPointExtension>             <ns3:hr>111</ns3:hr>           </ns3:TrackPointExtension>         </extensions>       </trkpt>
       <trkpt lat="45.59009495191276073455810546875" lon="14.444579668343067169189453125">         <ele>1700.199951171875</ele>         <time>2026-02-28T11:58:45.000Z</time>         <extensions>           <ns3:TrackPointExtension>             <ns3:hr>112</ns3:hr>           </ns3:TrackPointExtension>         </extensions>       </trkpt>
       <trkpt lat="45.590082295238971710205078125" lon="14.44457623176276683807373046875">         <ele>1700.4000244140625</ele>         <time>2026-02-28T11:58:50.000Z</time>         <extensions>           <ns3:TrackPointExtension>             <ns3:hr>112</ns3:hr>           </ns3:TrackPointExtension>         </extensions>       </trkpt>
       <trkpt lat="45.59008170850574970245361328125" lon="14.44458092562854290008544921875">         <ele>1700.199951171875</ele>         <time>2026-02-28T11:59:02.000Z</time>         <extensions>           <ns3:TrackPointExtension>             <ns3:hr>111</ns3:hr>           </ns3:TrackPointExtension>         </extensions>       </trkpt>
       <trkpt lat="45.5900871567428112030029296875" lon="14.44459685124456882476806640625">         <ele>1700.199951171875</ele>         <time>2026-02-28T11:59:09.000Z</time>         <extensions>           <ns3:TrackPointExtension>             <ns3:hr>110</ns3:hr>           </ns3:TrackPointExtension>         </extensions>       </trkpt>
       <trkpt lat="45.59008992277085781097412109375" lon="14.44459450431168079376220703125">         <ele>1700.199951171875</ele>         <time>2026-02-28T11:59:16.000Z</time>         <extensions>           <ns3:TrackPointExtension>             <ns3:hr>113</ns3:hr>           </ns3:TrackPointExtension>         </extensions>       </trkpt>
       <trkpt lat="45.59009595774114131927490234375" lon="14.44458209909498691558837890625">         <ele>1700.199951171875</ele>         <time>2026-02-28T11:59:23.000Z</time>         <extensions>           <ns3:TrackPointExtension>             <ns3:hr>114</ns3:hr>           </ns3:TrackPointExtension>         </extensions>       </trkpt>
       <trkpt lat="45.59008170850574970245361328125" lon="14.44458092562854290008544921875">         <ele>1700</ele>         <time>2026-02-28T11:59:28.000Z</time>         <extensions>           <ns3:TrackPointExtension>             <ns3:hr>110</ns3:hr>           </ns3:TrackPointExtension>         </extensions>       </trkpt>
       <trkpt lat="45.59008170850574970245361328125" lon="14.44458092562854290008544921875">         <ele>1700</ele>         <time>2026-02-28T11:59:30.000Z</time>         <extensions>           <ns3:TrackPointExtension>             <ns3:hr>106</ns3:hr>           </ns3:TrackPointExtension>         </extensions>       </trkpt>
       <trkpt lat="45.59009361080825328826904296875" lon="14.44458226673305034637451171875">         <ele>1699.800048828125</ele>         <time>2026-02-28T11:59:33.000Z</time>         <extensions>           <ns3:TrackPointExtension>             <ns3:hr>106</ns3:hr>           </ns3:TrackPointExtension>         </extensions>       </trkpt>
       <trkpt lat="45.5901072733104228973388671875" lon="14.4445741362869739532470703125">         <ele>1700</ele>         <time>2026-02-28T11:59:42.000Z</time>         <extensions>           <ns3:TrackPointExtension>             <ns3:hr>108</ns3:hr>           </ns3:TrackPointExtension>         </extensions>       </trkpt>
       <trkpt lat="45.59010299853980541229248046875" lon="14.44457598030567169189453125">         <ele>1700</ele>         <time>2026-02-28T11:59:46.000Z</time>         <extensions>           <ns3:TrackPointExtension>             <ns3:hr>105</ns3:hr>           </ns3:TrackPointExtension>         </extensions>       </trkpt>
       <trkpt lat="45.59009729884564876556396484375" lon="14.44457866251468658447265625">         <ele>1700</ele>         <time>2026-02-28T11:59:47.000Z</time>         <extensions>           <ns3:TrackPointExtension>             <ns3:hr>102</ns3:hr>           </ns3:TrackPointExtension>         </extensions>       </trkpt>
       <trkpt lat="45.5900868214666843414306640625" lon="14.4445868767797946929931640625">         <ele>1700</ele>         <time>2026-02-28T11:59:49.000Z</time>         <extensions>           <ns3:TrackPointExtension>             <ns3:hr>97</ns3:hr>           </ns3:TrackPointExtension>         </extensions>       </trkpt>
       <trkpt lat="45.59009411372244358062744140625" lon="14.44458126090466976165771484375">         <ele>1699.5999755859375</ele>         <time>2026-02-28T11:59:52.000Z</time>         <extensions>           <ns3:TrackPointExtension>             <ns3:hr>95</ns3:hr>           </ns3:TrackPointExtension>         </extensions>       </trkpt>
       <trkpt lat="45.59008170850574970245361328125" lon="14.44458092562854290008544921875">         <ele>1699.800048828125</ele>         <time>2026-02-28T12:00:03.000Z</time>         <extensions>           <ns3:TrackPointExtension>             <ns3:hr>97</ns3:hr>           </ns3:TrackPointExtension>         </extensions>       </trkpt>
       <trkpt lat="45.59008170850574970245361328125" lon="14.44458092562854290008544921875">         <ele>1699.5999755859375</ele>         <time>2026-02-28T12:00:07.000Z</time>         <extensions>           <ns3:TrackPointExtension>             <ns3:hr>93</ns3:hr>           </ns3:TrackPointExtension>         </extensions>       </trkpt>
       <trkpt lat="45.59008170850574970245361328125" lon="14.44458092562854290008544921875">         <ele>1699.5999755859375</ele>         <time>2026-02-28T12:00:12.000Z</time>         <extensions>           <ns3:TrackPointExtension>             <ns3:hr>92</ns3:hr>           </ns3:TrackPointExtension>         </extensions>       </trkpt>
       <trkpt lat="45.59008170850574970245361328125" lon="14.44458092562854290008544921875">         <ele>1699.5999755859375</ele>         <time>2026-02-28T12:00:19.000Z</time>         <extensions>           <ns3:TrackPointExtension>             <ns3:hr>95</ns3:hr>           </ns3:TrackPointExtension>         </extensions>       </trkpt>
       <trkpt lat="45.59008170850574970245361328125" lon="14.44458092562854290008544921875">         <ele>1699.800048828125</ele>         <time>2026-02-28T12:00:20.000Z</time>         <extensions>           <ns3:TrackPointExtension>             <ns3:hr>95</ns3:hr>           </ns3:TrackPointExtension>         </extensions>       </trkpt>
       <trkpt lat="45.59008170850574970245361328125" lon="14.44458092562854290008544921875">         <ele>1700.199951171875</ele>         <time>2026-02-28T12:00:26.000Z</time>         <extensions>           <ns3:TrackPointExtension>             <ns3:hr>101</ns3:hr>           </ns3:TrackPointExtension>         </extensions>       </trkpt>
       <trkpt lat="45.59008170850574970245361328125" lon="14.44458092562854290008544921875">         <ele>1700.5999755859375</ele>         <time>2026-02-28T12:00:27.000Z</time>         <extensions>           <ns3:TrackPointExtension>             <ns3:hr>104</ns3:hr>           </ns3:TrackPointExtension>         </extensions>       </trkpt>
       <trkpt lat="45.59008170850574970245361328125" lon="14.44458092562854290008544921875">         <ele>1700.800048828125</ele>         <time>2026-02-28T12:00:28.000Z</time>         <extensions>           <ns3:TrackPointExtension>             <ns3:hr>108</ns3:hr>           </ns3:TrackPointExtension>         </extensions>       </trkpt>
       <trkpt lat="45.59008170850574970245361328125" lon="14.44458092562854290008544921875">         <ele>1701</ele>         <time>2026-02-28T12:00:29.000Z</time>         <extensions>           <ns3:TrackPointExtension>             <ns3:hr>112</ns3:hr>           </ns3:TrackPointExtension>         </extensions>       </trkpt>
       <trkpt lat="45.59008170850574970245361328125" lon="14.44458092562854290008544921875">         <ele>1701</ele>         <time>2026-02-28T12:00:30.000Z</time>         <extensions>           <ns3:TrackPointExtension>             <ns3:hr>113</ns3:hr>           </ns3:TrackPointExtension>         </extensions>       </trkpt>
       <trkpt lat="45.59008170850574970245361328125" lon="14.44458092562854290008544921875">         <ele>1699.5999755859375</ele>         <time>2026-02-28T12:00:36.000Z</time>         <extensions>           <ns3:TrackPointExtension>             <ns3:hr>114</ns3:hr>           </ns3:TrackPointExtension>         </extensions>       </trkpt>
       <trkpt lat="45.59008170850574970245361328125" lon="14.44458092562854290008544921875">         <ele>1699.199951171875</ele>         <time>2026-02-28T12:00:38.000Z</time>         <extensions>           <ns3:TrackPointExtension>             <ns3:hr>112</ns3:hr>           </ns3:TrackPointExtension>         </extensions>       </trkpt>
       <trkpt lat="45.59008170850574970245361328125" lon="14.44458092562854290008544921875">         <ele>1699.5999755859375</ele>         <time>2026-02-28T12:00:44.000Z</time>         <extensions>           <ns3:TrackPointExtension>             <ns3:hr>109</ns3:hr>           </ns3:TrackPointExtension>         </extensions>       </trkpt>
       <trkpt lat="45.59008170850574970245361328125" lon="14.44458092562854290008544921875">         <ele>1699.5999755859375</ele>         <time>2026-02-28T12:00:45.000Z</time>         <extensions>           <ns3:TrackPointExtension>             <ns3:hr>106</ns3:hr>           </ns3:TrackPointExtension>         </extensions>       </trkpt>
       <trkpt lat="45.59008170850574970245361328125" lon="14.44458092562854290008544921875">         <ele>1699.5999755859375</ele>         <time>2026-02-28T12:00:48.000Z</time>         <extensions>           <ns3:TrackPointExtension>             <ns3:hr>102</ns3:hr>           </ns3:TrackPointExtension>         </extensions>       </trkpt>
       <trkpt lat="45.59008170850574970245361328125" lon="14.44458092562854290008544921875">         <ele>1700.199951171875</ele>         <time>2026-02-28T12:00:52.000Z</time>         <extensions>           <ns3:TrackPointExtension>             <ns3:hr>105</ns3:hr>           </ns3:TrackPointExtension>         </extensions>       </trkpt>
       <trkpt lat="45.59008170850574970245361328125" lon="14.44458092562854290008544921875">         <ele>1700</ele>         <time>2026-02-28T12:00:54.000Z</time>         <extensions>           <ns3:TrackPointExtension>             <ns3:hr>109</ns3:hr>           </ns3:TrackPointExtension>         </extensions>       </trkpt>
       <trkpt lat="45.59008170850574970245361328125" lon="14.44458092562854290008544921875">         <ele>1699.800048828125</ele>         <time>2026-02-28T12:00:56.000Z</time>         <extensions>           <ns3:TrackPointExtension>             <ns3:hr>113</ns3:hr>           </ns3:TrackPointExtension>         </extensions>       </trkpt>
       <trkpt lat="45.5900935269892215728759765625" lon="14.4445855356752872467041015625">         <ele>1699.800048828125</ele>         <time>2026-02-28T12:00:57.000Z</time>         <extensions>           <ns3:TrackPointExtension>             <ns3:hr>114</ns3:hr>           </ns3:TrackPointExtension>         </extensions>       </trkpt>
       <trkpt lat="45.5900952033698558807373046875" lon="14.44458746351301670074462890625">         <ele>1700.5999755859375</ele>         <time>2026-02-28T12:01:00.000Z</time>         <extensions>           <ns3:TrackPointExtension>             <ns3:hr>110</ns3:hr>           </ns3:TrackPointExtension>         </extensions>       </trkpt>
       <trkpt lat="45.59009478427469730377197265625" lon="14.44458981044590473175048828125">         <ele>1701.199951171875</ele>         <time>2026-02-28T12:01:02.000Z</time>         <extensions>           <ns3:TrackPointExtension>             <ns3:hr>108</ns3:hr>           </ns3:TrackPointExtension>         </extensions>       </trkpt>
       <trkpt lat="45.5900953710079193115234375" lon="14.444594085216522216796875">         <ele>1701</ele>         <time>2026-02-28T12:01:05.000Z</time>         <extensions>           <ns3:TrackPointExtension>             <ns3:hr>111</ns3:hr>           </ns3:TrackPointExtension>         </extensions>       </trkpt>
       <trkpt lat="45.59009344317018985748291015625" lon="14.4445905648171901702880859375">         <ele>1701</ele>         <time>2026-02-28T12:01:08.000Z</time>         <extensions>           <ns3:TrackPointExtension>             <ns3:hr>112</ns3:hr>           </ns3:TrackPointExtension>         </extensions>       </trkpt>
       <trkpt lat="45.59009394608438014984130859375" lon="14.44458846934139728546142578125">         <ele>1700.800048828125</ele>         <time>2026-02-28T12:01:12.000Z</time>         <extensions>           <ns3:TrackPointExtension>             <ns3:hr>109</ns3:hr>           </ns3:TrackPointExtension>         </extensions>       </trkpt>
       <trkpt lat="45.59009964577853679656982421875" lon="14.444590397179126739501953125">         <ele>1700.800048828125</ele>         <time>2026-02-28T12:01:16.000Z</time>         <extensions>           <ns3:TrackPointExtension>             <ns3:hr>108</ns3:hr>           </ns3:TrackPointExtension>         </extensions>       </trkpt>
       <trkpt lat="45.59009428136050701141357421875" lon="14.44458561949431896209716796875">         <ele>1700.5999755859375</ele>         <time>2026-02-28T12:01:22.000Z</time>         <extensions>           <ns3:TrackPointExtension>             <ns3:hr>111</ns3:hr>           </ns3:TrackPointExtension>         </extensions>       </trkpt>
       <trkpt lat="45.5900945328176021575927734375" lon="14.44459517486393451690673828125">         <ele>1700.800048828125</ele>         <time>2026-02-28T12:01:23.000Z</time>         <extensions>           <ns3:TrackPointExtension>             <ns3:hr>112</ns3:hr>           </ns3:TrackPointExtension>         </extensions>       </trkpt>
       <trkpt lat="45.590095706284046173095703125" lon="14.444599784910678863525390625">         <ele>1701.199951171875</ele>         <time>2026-02-28T12:01:32.000Z</time>         <extensions>           <ns3:TrackPointExtension>             <ns3:hr>113</ns3:hr>           </ns3:TrackPointExtension>         </extensions>       </trkpt>
       <trkpt lat="45.590095706284046173095703125" lon="14.444599784910678863525390625">         <ele>1701.199951171875</ele>         <time>2026-02-28T12:01:37.000Z</time>         <extensions>           <ns3:TrackPointExtension>             <ns3:hr>108</ns3:hr>           </ns3:TrackPointExtension>         </extensions>       </trkpt>
       <trkpt lat="45.59009595774114131927490234375" lon="14.44459903053939342498779296875">         <ele>1701.199951171875</ele>         <time>2026-02-28T12:01:39.000Z</time>         <extensions>           <ns3:TrackPointExtension>             <ns3:hr>104</ns3:hr>           </ns3:TrackPointExtension>         </extensions>       </trkpt>
       <trkpt lat="45.59009713120758533477783203125" lon="14.44459835998713970184326171875">         <ele>1701</ele>         <time>2026-02-28T12:01:40.000Z</time>         <extensions>           <ns3:TrackPointExtension>             <ns3:hr>101</ns3:hr>           </ns3:TrackPointExtension>         </extensions>       </trkpt>
       <trkpt lat="45.590094029903411865234375" lon="14.44458779878914356231689453125">         <ele>1700.800048828125</ele>         <time>2026-02-28T12:01:41.000Z</time>         <extensions>           <ns3:TrackPointExtension>             <ns3:hr>98</ns3:hr>           </ns3:TrackPointExtension>         </extensions>       </trkpt>
       <trkpt lat="45.59009545482695102691650390625" lon="14.44458461366593837738037109375">         <ele>1700.800048828125</ele>         <time>2026-02-28T12:01:42.000Z</time>         <extensions>           <ns3:TrackPointExtension>             <ns3:hr>96</ns3:hr>           </ns3:TrackPointExtension>         </extensions>       </trkpt>
       <trkpt lat="45.59009847231209278106689453125" lon="14.44458779878914356231689453125">         <ele>1700.4000244140625</ele>         <time>2026-02-28T12:01:48.000Z</time>         <extensions>           <ns3:TrackPointExtension>             <ns3:hr>94</ns3:hr>           </ns3:TrackPointExtension>         </extensions>       </trkpt>
       <trkpt lat="45.5900918506085872650146484375" lon="14.4445791654288768768310546875">         <ele>1700.199951171875</ele>         <time>2026-02-28T12:01:53.000Z</time>         <extensions>           <ns3:TrackPointExtension>             <ns3:hr>97</ns3:hr>           </ns3:TrackPointExtension>         </extensions>       </trkpt>
       <trkpt lat="45.59009738266468048095703125" lon="14.4445793330669403076171875">         <ele>1700</ele>         <time>2026-02-28T12:01:55.000Z</time>         <extensions>           <ns3:TrackPointExtension>             <ns3:hr>99</ns3:hr>           </ns3:TrackPointExtension>         </extensions>       </trkpt>
       <trkpt lat="45.5900988914072513580322265625" lon="14.4445781596004962921142578125">         <ele>1700.199951171875</ele>         <time>2026-02-28T12:01:58.000Z</time>         <extensions>           <ns3:TrackPointExtension>             <ns3:hr>102</ns3:hr>           </ns3:TrackPointExtension>         </extensions>       </trkpt>
       <trkpt lat="45.5900958739221096038818359375" lon="14.444572962820529937744140625">         <ele>1700</ele>         <time>2026-02-28T12:02:00.000Z</time>         <extensions>           <ns3:TrackPointExtension>             <ns3:hr>103</ns3:hr>           </ns3:TrackPointExtension>         </extensions>       </trkpt>
       <trkpt lat="45.59009813703596591949462890625" lon="14.44457505829632282257080078125">         <ele>1700</ele>         <time>2026-02-28T12:02:08.000Z</time>         <extensions>           <ns3:TrackPointExtension>             <ns3:hr>104</ns3:hr>           </ns3:TrackPointExtension>         </extensions>       </trkpt>
       <trkpt lat="45.590101070702075958251953125" lon="14.444581009447574615478515625">         <ele>1700.199951171875</ele>         <time>2026-02-28T12:02:11.000Z</time>         <extensions>           <ns3:TrackPointExtension>             <ns3:hr>108</ns3:hr>           </ns3:TrackPointExtension>         </extensions>       </trkpt>
       <trkpt lat="45.5900975503027439117431640625" lon="14.44458092562854290008544921875">         <ele>1700.199951171875</ele>         <time>2026-02-28T12:02:12.000Z</time>         <extensions>           <ns3:TrackPointExtension>             <ns3:hr>113</ns3:hr>           </ns3:TrackPointExtension>         </extensions>       </trkpt>
       <trkpt lat="45.59009470045566558837890625" lon="14.44458092562854290008544921875">         <ele>1700.199951171875</ele>         <time>2026-02-28T12:02:13.000Z</time>         <extensions>           <ns3:TrackPointExtension>             <ns3:hr>117</ns3:hr>           </ns3:TrackPointExtension>         </extensions>       </trkpt>
       <trkpt lat="45.5900935269892215728759765625" lon="14.44458134472370147705078125">         <ele>1700.4000244140625</ele>         <time>2026-02-28T12:02:14.000Z</time>         <extensions>           <ns3:TrackPointExtension>             <ns3:hr>120</ns3:hr>           </ns3:TrackPointExtension>         </extensions>       </trkpt>
       <trkpt lat="45.590095706284046173095703125" lon="14.4445831887423992156982421875">         <ele>1700.4000244140625</ele>         <time>2026-02-28T12:02:15.000Z</time>         <extensions>           <ns3:TrackPointExtension>             <ns3:hr>123</ns3:hr>           </ns3:TrackPointExtension>         </extensions>       </trkpt>
       <trkpt lat="45.590095706284046173095703125" lon="14.444599784910678863525390625">         <ele>1700.4000244140625</ele>         <time>2026-02-28T12:02:19.000Z</time>         <extensions>           <ns3:TrackPointExtension>             <ns3:hr>122</ns3:hr>           </ns3:TrackPointExtension>         </extensions>       </trkpt>
       <trkpt lat="45.590095706284046173095703125" lon="14.444599784910678863525390625">         <ele>1700.4000244140625</ele>         <time>2026-02-28T12:02:21.000Z</time>         <extensions>           <ns3:TrackPointExtension>             <ns3:hr>117</ns3:hr>           </ns3:TrackPointExtension>         </extensions>       </trkpt>
       <trkpt lat="45.590095706284046173095703125" lon="14.444599784910678863525390625">         <ele>1700.4000244140625</ele>         <time>2026-02-28T12:02:22.000Z</time>         <extensions>           <ns3:TrackPointExtension>             <ns3:hr>114</ns3:hr>           </ns3:TrackPointExtension>         </extensions>       </trkpt>
       <trkpt lat="45.590095706284046173095703125" lon="14.444599784910678863525390625">         <ele>1700.4000244140625</ele>         <time>2026-02-28T12:02:23.000Z</time>         <extensions>           <ns3:TrackPointExtension>             <ns3:hr>110</ns3:hr>           </ns3:TrackPointExtension>         </extensions>       </trkpt>
       <trkpt lat="45.590095706284046173095703125" lon="14.444599784910678863525390625">         <ele>1700.4000244140625</ele>         <time>2026-02-28T12:02:24.000Z</time>         <extensions>           <ns3:TrackPointExtension>             <ns3:hr>107</ns3:hr>           </ns3:TrackPointExtension>         </extensions>       </trkpt>
       <trkpt lat="45.590095706284046173095703125" lon="14.444599784910678863525390625">         <ele>1700.4000244140625</ele>         <time>2026-02-28T12:02:25.000Z</time>         <extensions>           <ns3:TrackPointExtension>             <ns3:hr>103</ns3:hr>           </ns3:TrackPointExtension>         </extensions>       </trkpt>
       <trkpt lat="45.59009713120758533477783203125" lon="14.44458059035241603851318359375">         <ele>1700.199951171875</ele>         <time>2026-02-28T12:02:26.000Z</time>         <extensions>           <ns3:TrackPointExtension>             <ns3:hr>103</ns3:hr>           </ns3:TrackPointExtension>         </extensions>       </trkpt>
       <trkpt lat="45.59009738266468048095703125" lon="14.44458025507628917694091796875">         <ele>1700.199951171875</ele>         <time>2026-02-28T12:02:29.000Z</time>         <extensions>           <ns3:TrackPointExtension>             <ns3:hr>104</ns3:hr>           </ns3:TrackPointExtension>         </extensions>       </trkpt>
       <trkpt lat="45.59010601602494716644287109375" lon="14.44454991258680820465087890625">         <ele>1700</ele>         <time>2026-02-28T12:02:33.000Z</time>         <extensions>           <ns3:TrackPointExtension>             <ns3:hr>103</ns3:hr>           </ns3:TrackPointExtension>         </extensions>       </trkpt>
       <trkpt lat="45.5900821276009082794189453125" lon="14.4445040635764598846435546875">         <ele>1700</ele>         <time>2026-02-28T12:02:39.000Z</time>         <extensions>           <ns3:TrackPointExtension>             <ns3:hr>106</ns3:hr>           </ns3:TrackPointExtension>         </extensions>       </trkpt>
       <trkpt lat="45.5900398828089237213134765625" lon="14.44443776272237300872802734375">         <ele>1699.5999755859375</ele>         <time>2026-02-28T12:02:44.000Z</time>         <extensions>           <ns3:TrackPointExtension>             <ns3:hr>107</ns3:hr>           </ns3:TrackPointExtension>         </extensions>       </trkpt>
       <trkpt lat="45.59002705849707126617431640625" lon="14.44440825842320919036865234375">         <ele>1699.4000244140625</ele>         <time>2026-02-28T12:02:46.000Z</time>         <extensions>           <ns3:TrackPointExtension>             <ns3:hr>106</ns3:hr>           </ns3:TrackPointExtension>         </extensions>       </trkpt>
       <trkpt lat="45.59001247398555278778076171875" lon="14.4443578831851482391357421875">         <ele>1699.5999755859375</ele>         <time>2026-02-28T12:02:51.000Z</time>         <extensions>           <ns3:TrackPointExtension>             <ns3:hr>103</ns3:hr>           </ns3:TrackPointExtension>         </extensions>       </trkpt>
       <trkpt lat="45.58997861109673976898193359375" lon="14.44429141469299793243408203125">         <ele>1699</ele>         <time>2026-02-28T12:02:56.000Z</time>         <extensions>           <ns3:TrackPointExtension>             <ns3:hr>103</ns3:hr>           </ns3:TrackPointExtension>         </extensions>       </trkpt>
       <trkpt lat="45.589933432638645172119140625" lon="14.444232322275638580322265625">         <ele>1698.800048828125</ele>         <time>2026-02-28T12:03:01.000Z</time>         <extensions>           <ns3:TrackPointExtension>             <ns3:hr>103</ns3:hr>           </ns3:TrackPointExtension>         </extensions>       </trkpt>
       <trkpt lat="45.58990686200559139251708984375" lon="14.4442019797861576080322265625">         <ele>1698.5999755859375</ele>         <time>2026-02-28T12:03:05.000Z</time>         <extensions>           <ns3:TrackPointExtension>             <ns3:hr>102</ns3:hr>           </ns3:TrackPointExtension>         </extensions>       </trkpt>
       <trkpt lat="45.5898819677531719207763671875" lon="14.44416903890669345855712890625">         <ele>1698.5999755859375</ele>         <time>2026-02-28T12:03:09.000Z</time>         <extensions>           <ns3:TrackPointExtension>             <ns3:hr>100</ns3:hr>           </ns3:TrackPointExtension>         </extensions>       </trkpt>
       <trkpt lat="45.589869059622287750244140625" lon="14.444115646183490753173828125">         <ele>1699</ele>         <time>2026-02-28T12:03:14.000Z</time>         <extensions>           <ns3:TrackPointExtension>             <ns3:hr>101</ns3:hr>           </ns3:TrackPointExtension>         </extensions>       </trkpt>
       <trkpt lat="45.58984081260859966278076171875" lon="14.4440616667270660400390625">         <ele>1699</ele>         <time>2026-02-28T12:03:19.000Z</time>         <extensions>           <ns3:TrackPointExtension>             <ns3:hr>103</ns3:hr>           </ns3:TrackPointExtension>         </extensions>       </trkpt>
       <trkpt lat="45.5898003280162811279296875" lon="14.4439994730055332183837890625">         <ele>1698.5999755859375</ele>         <time>2026-02-28T12:03:23.000Z</time>         <extensions>           <ns3:TrackPointExtension>             <ns3:hr>102</ns3:hr>           </ns3:TrackPointExtension>         </extensions>       </trkpt>
       <trkpt lat="45.5897904373705387115478515625" lon="14.44398296065628528594970703125">         <ele>1698.4000244140625</ele>         <time>2026-02-28T12:03:24.000Z</time>         <extensions>           <ns3:TrackPointExtension>             <ns3:hr>102</ns3:hr>           </ns3:TrackPointExtension>         </extensions>       </trkpt>
       <trkpt lat="45.589767135679721832275390625" lon="14.4439468346536159515380859375">         <ele>1698.4000244140625</ele>         <time>2026-02-28T12:03:27.000Z</time>         <extensions>           <ns3:TrackPointExtension>             <ns3:hr>101</ns3:hr>           </ns3:TrackPointExtension>         </extensions>       </trkpt>
       <trkpt lat="45.58970309793949127197265625" lon="14.44387248717248439788818359375">         <ele>1698.5999755859375</ele>         <time>2026-02-28T12:03:32.000Z</time>         <extensions>           <ns3:TrackPointExtension>             <ns3:hr>100</ns3:hr>           </ns3:TrackPointExtension>         </extensions>       </trkpt>
       <trkpt lat="45.58963461779057979583740234375" lon="14.443802498281002044677734375">         <ele>1698</ele>         <time>2026-02-28T12:03:36.000Z</time>         <extensions>           <ns3:TrackPointExtension>             <ns3:hr>100</ns3:hr>           </ns3:TrackPointExtension>         </extensions>       </trkpt>
       <trkpt lat="45.5895562469959259033203125" lon="14.4437322579324245452880859375">         <ele>1697.199951171875</ele>         <time>2026-02-28T12:03:39.000Z</time>         <extensions>           <ns3:TrackPointExtension>             <ns3:hr>101</ns3:hr>           </ns3:TrackPointExtension>         </extensions>       </trkpt>
       <trkpt lat="45.589516349136829376220703125" lon="14.443690516054630279541015625">         <ele>1696.800048828125</ele>         <time>2026-02-28T12:03:41.000Z</time>         <extensions>           <ns3:TrackPointExtension>             <ns3:hr>102</ns3:hr>           </ns3:TrackPointExtension>         </extensions>       </trkpt>
       <trkpt lat="45.58942305855453014373779296875" lon="14.443609379231929779052734375">         <ele>1696</ele>         <time>2026-02-28T12:03:47.000Z</time>         <extensions>           <ns3:TrackPointExtension>             <ns3:hr>103</ns3:hr>           </ns3:TrackPointExtension>         </extensions>       </trkpt>
       <trkpt lat="45.58939003385603427886962890625" lon="14.4435735046863555908203125">         <ele>1695.800048828125</ele>         <time>2026-02-28T12:03:52.000Z</time>         <extensions>           <ns3:TrackPointExtension>             <ns3:hr>103</ns3:hr>           </ns3:TrackPointExtension>         </extensions>       </trkpt>
       <trkpt lat="45.5893673188984394073486328125" lon="14.44355699233710765838623046875">         <ele>1696.199951171875</ele>         <time>2026-02-28T12:03:57.000Z</time>         <extensions>           <ns3:TrackPointExtension>             <ns3:hr>104</ns3:hr>           </ns3:TrackPointExtension>         </extensions>       </trkpt>
       <trkpt lat="45.5893550813198089599609375" lon="14.44354475475847721099853515625">         <ele>1696.4000244140625</ele>         <time>2026-02-28T12:04:00.000Z</time>         <extensions>           <ns3:TrackPointExtension>             <ns3:hr>107</ns3:hr>           </ns3:TrackPointExtension>         </extensions>       </trkpt>
       <trkpt lat="45.589348711073398590087890625" lon="14.44353905506432056427001953125">         <ele>1696.5999755859375</ele>         <time>2026-02-28T12:04:02.000Z</time>         <extensions>           <ns3:TrackPointExtension>             <ns3:hr>109</ns3:hr>           </ns3:TrackPointExtension>         </extensions>       </trkpt>
       <trkpt lat="45.5893351323902606964111328125" lon="14.44351776503026485443115234375">         <ele>1697.199951171875</ele>         <time>2026-02-28T12:04:06.000Z</time>         <extensions>           <ns3:TrackPointExtension>             <ns3:hr>110</ns3:hr>           </ns3:TrackPointExtension>         </extensions>       </trkpt>
       <trkpt lat="45.5893294326961040496826171875" lon="14.44350980222225189208984375">         <ele>1697.199951171875</ele>         <time>2026-02-28T12:04:07.000Z</time>         <extensions>           <ns3:TrackPointExtension>             <ns3:hr>110</ns3:hr>           </ns3:TrackPointExtension>         </extensions>       </trkpt>
       <trkpt lat="45.5893113277852535247802734375" lon="14.44348876364529132843017578125">         <ele>1697.800048828125</ele>         <time>2026-02-28T12:04:12.000Z</time>         <extensions>           <ns3:TrackPointExtension>             <ns3:hr>107</ns3:hr>           </ns3:TrackPointExtension>         </extensions>       </trkpt>
       <trkpt lat="45.5893026106059551239013671875" lon="14.4434626959264278411865234375">         <ele>1697.199951171875</ele>         <time>2026-02-28T12:04:18.000Z</time>         <extensions>           <ns3:TrackPointExtension>             <ns3:hr>108</ns3:hr>           </ns3:TrackPointExtension>         </extensions>       </trkpt>
       <trkpt lat="45.58928224258124828338623046875" lon="14.4433993287384510040283203125">         <ele>1697.199951171875</ele>         <time>2026-02-28T12:04:24.000Z</time>         <extensions>           <ns3:TrackPointExtension>             <ns3:hr>107</ns3:hr>           </ns3:TrackPointExtension>         </extensions>       </trkpt>
       <trkpt lat="45.58926531113684177398681640625" lon="14.44333017803728580474853515625">         <ele>1696</ele>         <time>2026-02-28T12:04:27.000Z</time>         <extensions>           <ns3:TrackPointExtension>             <ns3:hr>106</ns3:hr>           </ns3:TrackPointExtension>         </extensions>       </trkpt>
       <trkpt lat="45.58925340883433818817138671875" lon="14.44327485747635364532470703125">         <ele>1694.5999755859375</ele>         <time>2026-02-28T12:04:29.000Z</time>         <extensions>           <ns3:TrackPointExtension>             <ns3:hr>106</ns3:hr>           </ns3:TrackPointExtension>         </extensions>       </trkpt>
       <trkpt lat="45.589246787130832672119140625" lon="14.44324619136750698089599609375">         <ele>1694.199951171875</ele>         <time>2026-02-28T12:04:30.000Z</time>         <extensions>           <ns3:TrackPointExtension>             <ns3:hr>107</ns3:hr>           </ns3:TrackPointExtension>         </extensions>       </trkpt>
       <trkpt lat="45.58923999778926372528076171875" lon="14.44320939481258392333984375">         <ele>1694</ele>         <time>2026-02-28T12:04:32.000Z</time>         <extensions>           <ns3:TrackPointExtension>             <ns3:hr>110</ns3:hr>           </ns3:TrackPointExtension>         </extensions>       </trkpt>
       <trkpt lat="45.58921786956489086151123046875" lon="14.4431518949568271636962890625">         <ele>1693.4000244140625</ele>         <time>2026-02-28T12:04:35.000Z</time>         <extensions>           <ns3:TrackPointExtension>             <ns3:hr>112</ns3:hr>           </ns3:TrackPointExtension>         </extensions>       </trkpt>
       <trkpt lat="45.58920110575854778289794921875" lon="14.44310076534748077392578125">         <ele>1692.199951171875</ele>         <time>2026-02-28T12:04:37.000Z</time>         <extensions>           <ns3:TrackPointExtension>             <ns3:hr>111</ns3:hr>           </ns3:TrackPointExtension>         </extensions>       </trkpt>
       <trkpt lat="45.58918182738125324249267578125" lon="14.44302625022828578948974609375">         <ele>1691</ele>         <time>2026-02-28T12:04:40.000Z</time>         <extensions>           <ns3:TrackPointExtension>             <ns3:hr>110</ns3:hr>           </ns3:TrackPointExtension>         </extensions>       </trkpt>
       <trkpt lat="45.58917176909744739532470703125" lon="14.44296799600124359130859375">         <ele>1690.4000244140625</ele>         <time>2026-02-28T12:04:42.000Z</time>         <extensions>           <ns3:TrackPointExtension>             <ns3:hr>110</ns3:hr>           </ns3:TrackPointExtension>         </extensions>       </trkpt>
       <trkpt lat="45.58915751986205577850341796875" lon="14.44292449392378330230712890625">         <ele>1689.800048828125</ele>         <time>2026-02-28T12:04:44.000Z</time>         <extensions>           <ns3:TrackPointExtension>             <ns3:hr>111</ns3:hr>           </ns3:TrackPointExtension>         </extensions>       </trkpt>
       <trkpt lat="45.58913874439895153045654296875" lon="14.4428551755845546722412109375">         <ele>1688.800048828125</ele>         <time>2026-02-28T12:04:47.000Z</time>         <extensions>           <ns3:TrackPointExtension>             <ns3:hr>111</ns3:hr>           </ns3:TrackPointExtension>         </extensions>       </trkpt>
       <trkpt lat="45.58911167085170745849609375" lon="14.442726932466030120849609375">         <ele>1687.5999755859375</ele>         <time>2026-02-28T12:04:53.000Z</time>         <extensions>           <ns3:TrackPointExtension>             <ns3:hr>109</ns3:hr>           </ns3:TrackPointExtension>         </extensions>       </trkpt>
       <trkpt lat="45.58908610604703426361083984375" lon="14.44263850338757038116455078125">         <ele>1686.5999755859375</ele>         <time>2026-02-28T12:04:57.000Z</time>         <extensions>           <ns3:TrackPointExtension>             <ns3:hr>109</ns3:hr>           </ns3:TrackPointExtension>         </extensions>       </trkpt>
       <trkpt lat="45.5890736170113086700439453125" lon="14.44260321557521820068359375">         <ele>1686.199951171875</ele>         <time>2026-02-28T12:04:59.000Z</time>         <extensions>           <ns3:TrackPointExtension>             <ns3:hr>109</ns3:hr>           </ns3:TrackPointExtension>         </extensions>       </trkpt>
       <trkpt lat="45.58904285542666912078857421875" lon="14.4424887187778949737548828125">         <ele>1685</ele>         <time>2026-02-28T12:05:04.000Z</time>         <extensions>           <ns3:TrackPointExtension>             <ns3:hr>108</ns3:hr>           </ns3:TrackPointExtension>         </extensions>       </trkpt>
       <trkpt lat="45.5890370719134807586669921875" lon="14.442458711564540863037109375">         <ele>1684.5999755859375</ele>         <time>2026-02-28T12:05:05.000Z</time>         <extensions>           <ns3:TrackPointExtension>             <ns3:hr>108</ns3:hr>           </ns3:TrackPointExtension>         </extensions>       </trkpt>
       <trkpt lat="45.58902860619127750396728515625" lon="14.4424072466790676116943359375">         <ele>1684</ele>         <time>2026-02-28T12:05:07.000Z</time>         <extensions>           <ns3:TrackPointExtension>             <ns3:hr>108</ns3:hr>           </ns3:TrackPointExtension>         </extensions>       </trkpt>
       <trkpt lat="45.5890162847936153411865234375" lon="14.44234429858624935150146484375">         <ele>1683.800048828125</ele>         <time>2026-02-28T12:05:11.000Z</time>         <extensions>           <ns3:TrackPointExtension>             <ns3:hr>106</ns3:hr>           </ns3:TrackPointExtension>         </extensions>       </trkpt>
       <trkpt lat="45.5889887921512126922607421875" lon="14.4422215037047863006591796875">         <ele>1682.800048828125</ele>         <time>2026-02-28T12:05:18.000Z</time>         <extensions>           <ns3:TrackPointExtension>             <ns3:hr>105</ns3:hr>           </ns3:TrackPointExtension>         </extensions>       </trkpt>
       <trkpt lat="45.58897261507809162139892578125" lon="14.44216090254485607147216796875">         <ele>1681.800048828125</ele>         <time>2026-02-28T12:05:21.000Z</time>         <extensions>           <ns3:TrackPointExtension>             <ns3:hr>105</ns3:hr>           </ns3:TrackPointExtension>         </extensions>       </trkpt>
       <trkpt lat="45.58896054513752460479736328125" lon="14.4420951046049594879150390625">         <ele>1681</ele>         <time>2026-02-28T12:05:25.000Z</time>         <extensions>           <ns3:TrackPointExtension>             <ns3:hr>103</ns3:hr>           </ns3:TrackPointExtension>         </extensions>       </trkpt>
       <trkpt lat="45.58895853348076343536376953125" lon="14.44208429194986820220947265625">         <ele>1680.800048828125</ele>         <time>2026-02-28T12:05:26.000Z</time>         <extensions>           <ns3:TrackPointExtension>             <ns3:hr>103</ns3:hr>           </ns3:TrackPointExtension>         </extensions>       </trkpt>
       <trkpt lat="45.588947720825672149658203125" lon="14.442032910883426666259765625">         <ele>1679.5999755859375</ele>         <time>2026-02-28T12:05:30.000Z</time>         <extensions>           <ns3:TrackPointExtension>             <ns3:hr>103</ns3:hr>           </ns3:TrackPointExtension>         </extensions>       </trkpt>
       <trkpt lat="45.58894797228276729583740234375" lon="14.44203617982566356658935546875">         <ele>1679.800048828125</ele>         <time>2026-02-28T12:05:32.000Z</time>         <extensions>           <ns3:TrackPointExtension>             <ns3:hr>103</ns3:hr>           </ns3:TrackPointExtension>         </extensions>       </trkpt>
       <trkpt lat="45.5889395065605640411376953125" lon="14.44198035635054111480712890625">         <ele>1680</ele>         <time>2026-02-28T12:05:36.000Z</time>         <extensions>           <ns3:TrackPointExtension>             <ns3:hr>103</ns3:hr>           </ns3:TrackPointExtension>         </extensions>       </trkpt>
       <trkpt lat="45.58892534114420413970947265625" lon="14.4418902508914470672607421875">         <ele>1679</ele>         <time>2026-02-28T12:05:42.000Z</time>         <extensions>           <ns3:TrackPointExtension>             <ns3:hr>106</ns3:hr>           </ns3:TrackPointExtension>         </extensions>       </trkpt>
       <trkpt lat="45.58892165310680866241455078125" lon="14.44185865111649036407470703125">         <ele>1678.4000244140625</ele>         <time>2026-02-28T12:05:44.000Z</time>         <extensions>           <ns3:TrackPointExtension>             <ns3:hr>106</ns3:hr>           </ns3:TrackPointExtension>         </extensions>       </trkpt>
       <trkpt lat="45.58891117572784423828125" lon="14.44177885539829730987548828125">         <ele>1677.5999755859375</ele>         <time>2026-02-28T12:05:48.000Z</time>         <extensions>           <ns3:TrackPointExtension>             <ns3:hr>103</ns3:hr>           </ns3:TrackPointExtension>         </extensions>       </trkpt>
       <trkpt lat="45.588909499347209930419921875" lon="14.441759996116161346435546875">         <ele>1677.4000244140625</ele>         <time>2026-02-28T12:05:49.000Z</time>         <extensions>           <ns3:TrackPointExtension>             <ns3:hr>102</ns3:hr>           </ns3:TrackPointExtension>         </extensions>       </trkpt>
       <trkpt lat="45.58890572749078273773193359375" lon="14.44171934388577938079833984375">         <ele>1677</ele>         <time>2026-02-28T12:05:52.000Z</time>         <extensions>           <ns3:TrackPointExtension>             <ns3:hr>101</ns3:hr>           </ns3:TrackPointExtension>         </extensions>       </trkpt>
       <trkpt lat="45.58890438638627529144287109375" lon="14.44161172024905681610107421875">         <ele>1676.4000244140625</ele>         <time>2026-02-28T12:05:58.000Z</time>         <extensions>           <ns3:TrackPointExtension>             <ns3:hr>100</ns3:hr>           </ns3:TrackPointExtension>         </extensions>       </trkpt>
       <trkpt lat="45.588902793824672698974609375" lon="14.4415958784520626068115234375">         <ele>1676.199951171875</ele>         <time>2026-02-28T12:05:59.000Z</time>         <extensions>           <ns3:TrackPointExtension>             <ns3:hr>100</ns3:hr>           </ns3:TrackPointExtension>         </extensions>       </trkpt>
       <trkpt lat="45.5889029614627361297607421875" lon="14.44153695367276668548583984375">         <ele>1675.199951171875</ele>         <time>2026-02-28T12:06:03.000Z</time>         <extensions>           <ns3:TrackPointExtension>             <ns3:hr>100</ns3:hr>           </ns3:TrackPointExtension>         </extensions>       </trkpt>
       <trkpt lat="45.58890891261398792266845703125" lon="14.44144391454756259918212890625">         <ele>1674</ele>         <time>2026-02-28T12:06:07.000Z</time>         <extensions>           <ns3:TrackPointExtension>             <ns3:hr>99</ns3:hr>           </ns3:TrackPointExtension>         </extensions>       </trkpt>
       <trkpt lat="45.58891142718493938446044921875" lon="14.44141508080065250396728515625">         <ele>1673.800048828125</ele>         <time>2026-02-28T12:06:08.000Z</time>         <extensions>           <ns3:TrackPointExtension>             <ns3:hr>99</ns3:hr>           </ns3:TrackPointExtension>         </extensions>       </trkpt>
       <trkpt lat="45.58891746215522289276123046875" lon="14.4413450919091701507568359375">         <ele>1673</ele>         <time>2026-02-28T12:06:11.000Z</time>         <extensions>           <ns3:TrackPointExtension>             <ns3:hr>99</ns3:hr>           </ns3:TrackPointExtension>         </extensions>       </trkpt>
       <trkpt lat="45.58893020264804363250732421875" lon="14.44122682325541973114013671875">         <ele>1672.199951171875</ele>         <time>2026-02-28T12:06:17.000Z</time>         <extensions>           <ns3:TrackPointExtension>             <ns3:hr>97</ns3:hr>           </ns3:TrackPointExtension>         </extensions>       </trkpt>
       <trkpt lat="45.5889374949038028717041015625" lon="14.441194050014019012451171875">         <ele>1671.800048828125</ele>         <time>2026-02-28T12:06:19.000Z</time>         <extensions>           <ns3:TrackPointExtension>             <ns3:hr>97</ns3:hr>           </ns3:TrackPointExtension>         </extensions>       </trkpt>
       <trkpt lat="45.588948391377925872802734375" lon="14.441142417490482330322265625">         <ele>1671.800048828125</ele>         <time>2026-02-28T12:06:22.000Z</time>         <extensions>           <ns3:TrackPointExtension>             <ns3:hr>99</ns3:hr>           </ns3:TrackPointExtension>         </extensions>       </trkpt>
       <trkpt lat="45.58896507136523723602294921875" lon="14.44109715521335601806640625">         <ele>1671.199951171875</ele>         <time>2026-02-28T12:06:26.000Z</time>         <extensions>           <ns3:TrackPointExtension>             <ns3:hr>99</ns3:hr>           </ns3:TrackPointExtension>         </extensions>       </trkpt>
       <trkpt lat="45.58897915296256542205810546875" lon="14.44107175804674625396728515625">         <ele>1671.4000244140625</ele>         <time>2026-02-28T12:06:32.000Z</time>         <extensions>           <ns3:TrackPointExtension>             <ns3:hr>99</ns3:hr>           </ns3:TrackPointExtension>         </extensions>       </trkpt>
       <trkpt lat="45.5889929831027984619140625" lon="14.4410289265215396881103515625">         <ele>1671.199951171875</ele>         <time>2026-02-28T12:06:37.000Z</time>         <extensions>           <ns3:TrackPointExtension>             <ns3:hr>102</ns3:hr>           </ns3:TrackPointExtension>         </extensions>       </trkpt>
       <trkpt lat="45.5889929831027984619140625" lon="14.4410289265215396881103515625">         <ele>1671.4000244140625</ele>         <time>2026-02-28T12:06:40.000Z</time>         <extensions>           <ns3:TrackPointExtension>             <ns3:hr>104</ns3:hr>           </ns3:TrackPointExtension>         </extensions>       </trkpt>
       <trkpt lat="45.5889931507408618927001953125" lon="14.4409782998263835906982421875">         <ele>1671</ele>         <time>2026-02-28T12:06:44.000Z</time>         <extensions>           <ns3:TrackPointExtension>             <ns3:hr>107</ns3:hr>           </ns3:TrackPointExtension>         </extensions>       </trkpt>
       <trkpt lat="45.5889981798827648162841796875" lon="14.44095499813556671142578125">         <ele>1670.4000244140625</ele>         <time>2026-02-28T12:06:45.000Z</time>         <extensions>           <ns3:TrackPointExtension>             <ns3:hr>109</ns3:hr>           </ns3:TrackPointExtension>         </extensions>       </trkpt>
       <trkpt lat="45.58900614269077777862548828125" lon="14.4409169442951679229736328125">         <ele>1669.4000244140625</ele>         <time>2026-02-28T12:06:48.000Z</time>         <extensions>           <ns3:TrackPointExtension>             <ns3:hr>109</ns3:hr>           </ns3:TrackPointExtension>         </extensions>       </trkpt>
       <trkpt lat="45.58900614269077777862548828125" lon="14.44091602228581905364990234375">         <ele>1669.4000244140625</ele>         <time>2026-02-28T12:06:49.000Z</time>         <extensions>           <ns3:TrackPointExtension>             <ns3:hr>109</ns3:hr>           </ns3:TrackPointExtension>         </extensions>       </trkpt>
       <trkpt lat="45.58901645243167877197265625" lon="14.44083740003407001495361328125">         <ele>1668.199951171875</ele>         <time>2026-02-28T12:06:53.000Z</time>         <extensions>           <ns3:TrackPointExtension>             <ns3:hr>107</ns3:hr>           </ns3:TrackPointExtension>         </extensions>       </trkpt>
       <trkpt lat="45.58902592398226261138916015625" lon="14.44080211222171783447265625">         <ele>1667.800048828125</ele>         <time>2026-02-28T12:06:54.000Z</time>         <extensions>           <ns3:TrackPointExtension>             <ns3:hr>107</ns3:hr>           </ns3:TrackPointExtension>         </extensions>       </trkpt>
       <trkpt lat="45.58903933502733707427978515625" lon="14.44074033759534358978271484375">         <ele>1667</ele>         <time>2026-02-28T12:06:56.000Z</time>         <extensions>           <ns3:TrackPointExtension>             <ns3:hr>107</ns3:hr>           </ns3:TrackPointExtension>         </extensions>       </trkpt>
       <trkpt lat="45.58907453902065753936767578125" lon="14.44062349386513233184814453125">         <ele>1665.800048828125</ele>         <time>2026-02-28T12:06:59.000Z</time>         <extensions>           <ns3:TrackPointExtension>             <ns3:hr>107</ns3:hr>           </ns3:TrackPointExtension>         </extensions>       </trkpt>
       <trkpt lat="45.5891058035194873809814453125" lon="14.44056699983775615692138671875">         <ele>1665.5999755859375</ele>         <time>2026-02-28T12:07:03.000Z</time>         <extensions>           <ns3:TrackPointExtension>             <ns3:hr>107</ns3:hr>           </ns3:TrackPointExtension>         </extensions>       </trkpt>
       <trkpt lat="45.58909717015922069549560546875" lon="14.44056666456162929534912109375">         <ele>1666.800048828125</ele>         <time>2026-02-28T12:07:12.000Z</time>         <extensions>           <ns3:TrackPointExtension>             <ns3:hr>105</ns3:hr>           </ns3:TrackPointExtension>         </extensions>       </trkpt>
       <trkpt lat="45.58909800834953784942626953125" lon="14.44056532345712184906005859375">         <ele>1667</ele>         <time>2026-02-28T12:07:17.000Z</time>         <extensions>           <ns3:TrackPointExtension>             <ns3:hr>107</ns3:hr>           </ns3:TrackPointExtension>         </extensions>       </trkpt>
       <trkpt lat="45.58909800834953784942626953125" lon="14.44056532345712184906005859375">         <ele>1666.800048828125</ele>         <time>2026-02-28T12:07:22.000Z</time>         <extensions>           <ns3:TrackPointExtension>             <ns3:hr>106</ns3:hr>           </ns3:TrackPointExtension>         </extensions>       </trkpt>
       <trkpt lat="45.5891205556690692901611328125" lon="14.44054269231855869293212890625">         <ele>1666.800048828125</ele>         <time>2026-02-28T12:07:29.000Z</time>         <extensions>           <ns3:TrackPointExtension>             <ns3:hr>106</ns3:hr>           </ns3:TrackPointExtension>         </extensions>       </trkpt>
       <trkpt lat="45.58913203887641429901123046875" lon="14.4405090808868408203125">         <ele>1666.4000244140625</ele>         <time>2026-02-28T12:07:36.000Z</time>         <extensions>           <ns3:TrackPointExtension>             <ns3:hr>108</ns3:hr>           </ns3:TrackPointExtension>         </extensions>       </trkpt>
       <trkpt lat="45.5891316197812557220458984375" lon="14.44050572812557220458984375">         <ele>1665.800048828125</ele>         <time>2026-02-28T12:07:40.000Z</time>         <extensions>           <ns3:TrackPointExtension>             <ns3:hr>110</ns3:hr>           </ns3:TrackPointExtension>         </extensions>       </trkpt>
       <trkpt lat="45.5891316197812557220458984375" lon="14.44050572812557220458984375">         <ele>1664.5999755859375</ele>         <time>2026-02-28T12:07:42.000Z</time>         <extensions>           <ns3:TrackPointExtension>             <ns3:hr>110</ns3:hr>           </ns3:TrackPointExtension>         </extensions>       </trkpt>
       <trkpt lat="45.5891316197812557220458984375" lon="14.44050572812557220458984375">         <ele>1665.199951171875</ele>         <time>2026-02-28T12:07:47.000Z</time>         <extensions>           <ns3:TrackPointExtension>             <ns3:hr>106</ns3:hr>           </ns3:TrackPointExtension>         </extensions>       </trkpt>
       <trkpt lat="45.58913455344736576080322265625" lon="14.4405018724501132965087890625">         <ele>1665.199951171875</ele>         <time>2026-02-28T12:07:51.000Z</time>         <extensions>           <ns3:TrackPointExtension>             <ns3:hr>103</ns3:hr>           </ns3:TrackPointExtension>         </extensions>       </trkpt>
       <trkpt lat="45.58915886096656322479248046875" lon="14.44044529460370540618896484375">         <ele>1665.4000244140625</ele>         <time>2026-02-28T12:07:54.000Z</time>         <extensions>           <ns3:TrackPointExtension>             <ns3:hr>102</ns3:hr>           </ns3:TrackPointExtension>         </extensions>       </trkpt>
       <trkpt lat="45.589211918413639068603515625" lon="14.44026910699903964996337890625">         <ele>1663.199951171875</ele>         <time>2026-02-28T12:07:59.000Z</time>         <extensions>           <ns3:TrackPointExtension>             <ns3:hr>102</ns3:hr>           </ns3:TrackPointExtension>         </extensions>       </trkpt>
       <trkpt lat="45.58924938552081584930419921875" lon="14.4401313923299312591552734375">         <ele>1662.5999755859375</ele>         <time>2026-02-28T12:08:03.000Z</time>         <extensions>           <ns3:TrackPointExtension>             <ns3:hr>102</ns3:hr>           </ns3:TrackPointExtension>         </extensions>       </trkpt>
       <trkpt lat="45.589254163205623626708984375" lon="14.44011353887617588043212890625">         <ele>1662.800048828125</ele>         <time>2026-02-28T12:08:09.000Z</time>         <extensions>           <ns3:TrackPointExtension>             <ns3:hr>103</ns3:hr>           </ns3:TrackPointExtension>         </extensions>       </trkpt>
       <trkpt lat="45.58926799334585666656494140625" lon="14.44008235819637775421142578125">         <ele>1663.199951171875</ele>         <time>2026-02-28T12:08:12.000Z</time>         <extensions>           <ns3:TrackPointExtension>             <ns3:hr>99</ns3:hr>           </ns3:TrackPointExtension>         </extensions>       </trkpt>
       <trkpt lat="45.58927134610712528228759765625" lon="14.44007447920739650726318359375">         <ele>1663.199951171875</ele>         <time>2026-02-28T12:08:14.000Z</time>         <extensions>           <ns3:TrackPointExtension>             <ns3:hr>96</ns3:hr>           </ns3:TrackPointExtension>         </extensions>       </trkpt>
       <trkpt lat="45.58927034027874469757080078125" lon="14.440067522227764129638671875">         <ele>1663.4000244140625</ele>         <time>2026-02-28T12:08:15.000Z</time>         <extensions>           <ns3:TrackPointExtension>             <ns3:hr>95</ns3:hr>           </ns3:TrackPointExtension>         </extensions>       </trkpt>
       <trkpt lat="45.5892717652022838592529296875" lon="14.4400643371045589447021484375">         <ele>1663.5999755859375</ele>         <time>2026-02-28T12:08:20.000Z</time>         <extensions>           <ns3:TrackPointExtension>             <ns3:hr>97</ns3:hr>           </ns3:TrackPointExtension>         </extensions>       </trkpt>
       <trkpt lat="45.5892717652022838592529296875" lon="14.4400643371045589447021484375">         <ele>1663.800048828125</ele>         <time>2026-02-28T12:08:26.000Z</time>         <extensions>           <ns3:TrackPointExtension>             <ns3:hr>100</ns3:hr>           </ns3:TrackPointExtension>         </extensions>       </trkpt>
       <trkpt lat="45.5892717652022838592529296875" lon="14.4400643371045589447021484375">         <ele>1663.800048828125</ele>         <time>2026-02-28T12:08:27.000Z</time>         <extensions>           <ns3:TrackPointExtension>             <ns3:hr>102</ns3:hr>           </ns3:TrackPointExtension>         </extensions>       </trkpt>
       <trkpt lat="45.5892717652022838592529296875" lon="14.4400643371045589447021484375">         <ele>1663.800048828125</ele>         <time>2026-02-28T12:08:29.000Z</time>         <extensions>           <ns3:TrackPointExtension>             <ns3:hr>105</ns3:hr>           </ns3:TrackPointExtension>         </extensions>       </trkpt>
       <trkpt lat="45.5892717652022838592529296875" lon="14.4400643371045589447021484375">         <ele>1663.800048828125</ele>         <time>2026-02-28T12:08:36.000Z</time>         <extensions>           <ns3:TrackPointExtension>             <ns3:hr>106</ns3:hr>           </ns3:TrackPointExtension>         </extensions>       </trkpt>
       <trkpt lat="45.58927168138325214385986328125" lon="14.44006676785647869110107421875">         <ele>1663.800048828125</ele>         <time>2026-02-28T12:08:46.000Z</time>         <extensions>           <ns3:TrackPointExtension>             <ns3:hr>106</ns3:hr>           </ns3:TrackPointExtension>         </extensions>       </trkpt>
       <trkpt lat="45.589272938668727874755859375" lon="14.440053440630435943603515625">         <ele>1663.800048828125</ele>         <time>2026-02-28T12:08:48.000Z</time>         <extensions>           <ns3:TrackPointExtension>             <ns3:hr>109</ns3:hr>           </ns3:TrackPointExtension>         </extensions>       </trkpt>
       <trkpt lat="45.5892746150493621826171875" lon="14.43999200128018856048583984375">         <ele>1663.4000244140625</ele>         <time>2026-02-28T12:08:51.000Z</time>         <extensions>           <ns3:TrackPointExtension>             <ns3:hr>109</ns3:hr>           </ns3:TrackPointExtension>         </extensions>       </trkpt>
       <trkpt lat="45.58927595615386962890625" lon="14.43992142565548419952392578125">         <ele>1662.199951171875</ele>         <time>2026-02-28T12:08:53.000Z</time>         <extensions>           <ns3:TrackPointExtension>             <ns3:hr>112</ns3:hr>           </ns3:TrackPointExtension>         </extensions>       </trkpt>
       <trkpt lat="45.58927436359226703643798828125" lon="14.4398868083953857421875">         <ele>1661.800048828125</ele>         <time>2026-02-28T12:08:54.000Z</time>         <extensions>           <ns3:TrackPointExtension>             <ns3:hr>114</ns3:hr>           </ns3:TrackPointExtension>         </extensions>       </trkpt>
       <trkpt lat="45.589273273944854736328125" lon="14.43983475677669048309326171875">         <ele>1661</ele>         <time>2026-02-28T12:08:56.000Z</time>         <extensions>           <ns3:TrackPointExtension>             <ns3:hr>115</ns3:hr>           </ns3:TrackPointExtension>         </extensions>       </trkpt>
       <trkpt lat="45.58927126228809356689453125" lon="14.4398138858377933502197265625">         <ele>1660.5999755859375</ele>         <time>2026-02-28T12:08:57.000Z</time>         <extensions>           <ns3:TrackPointExtension>             <ns3:hr>114</ns3:hr>           </ns3:TrackPointExtension>         </extensions>       </trkpt>
       <trkpt lat="45.58926480822265148162841796875" lon="14.43970508873462677001953125">         <ele>1659.4000244140625</ele>         <time>2026-02-28T12:09:00.000Z</time>         <extensions>           <ns3:TrackPointExtension>             <ns3:hr>112</ns3:hr>           </ns3:TrackPointExtension>         </extensions>       </trkpt>
       <trkpt lat="45.58928676880896091461181640625" lon="14.4396091997623443603515625">         <ele>1658.199951171875</ele>         <time>2026-02-28T12:09:03.000Z</time>         <extensions>           <ns3:TrackPointExtension>             <ns3:hr>111</ns3:hr>           </ns3:TrackPointExtension>         </extensions>       </trkpt>
       <trkpt lat="45.58929984457790851593017578125" lon="14.43952596746385097503662109375">         <ele>1657.4000244140625</ele>         <time>2026-02-28T12:09:06.000Z</time>         <extensions>           <ns3:TrackPointExtension>             <ns3:hr>112</ns3:hr>           </ns3:TrackPointExtension>         </extensions>       </trkpt>
       <trkpt lat="45.5892985872924327850341796875" lon="14.43949311040341854095458984375">         <ele>1657</ele>         <time>2026-02-28T12:09:07.000Z</time>         <extensions>           <ns3:TrackPointExtension>             <ns3:hr>112</ns3:hr>           </ns3:TrackPointExtension>         </extensions>       </trkpt>
       <trkpt lat="45.58929213322699069976806640625" lon="14.43944223225116729736328125">         <ele>1656.199951171875</ele>         <time>2026-02-28T12:09:11.000Z</time>         <extensions>           <ns3:TrackPointExtension>             <ns3:hr>114</ns3:hr>           </ns3:TrackPointExtension>         </extensions>       </trkpt>
       <trkpt lat="45.58929297141730785369873046875" lon="14.4394340179860591888427734375">         <ele>1656</ele>         <time>2026-02-28T12:09:12.000Z</time>         <extensions>           <ns3:TrackPointExtension>             <ns3:hr>116</ns3:hr>           </ns3:TrackPointExtension>         </extensions>       </trkpt>
       <trkpt lat="45.58931685984134674072265625" lon="14.43942622281610965728759765625">         <ele>1656.4000244140625</ele>         <time>2026-02-28T12:09:20.000Z</time>         <extensions>           <ns3:TrackPointExtension>             <ns3:hr>118</ns3:hr>           </ns3:TrackPointExtension>         </extensions>       </trkpt>
       <trkpt lat="45.5893223918974399566650390625" lon="14.4394175894558429718017578125">         <ele>1654.800048828125</ele>         <time>2026-02-28T12:09:25.000Z</time>         <extensions>           <ns3:TrackPointExtension>             <ns3:hr>117</ns3:hr>           </ns3:TrackPointExtension>         </extensions>       </trkpt>
       <trkpt lat="45.5893237330019474029541015625" lon="14.43941432051360607147216796875">         <ele>1654.800048828125</ele>         <time>2026-02-28T12:09:26.000Z</time>         <extensions>           <ns3:TrackPointExtension>             <ns3:hr>116</ns3:hr>           </ns3:TrackPointExtension>         </extensions>       </trkpt>
       <trkpt lat="45.58932683430612087249755859375" lon="14.439412057399749755859375">         <ele>1655</ele>         <time>2026-02-28T12:09:28.000Z</time>         <extensions>           <ns3:TrackPointExtension>             <ns3:hr>113</ns3:hr>           </ns3:TrackPointExtension>         </extensions>       </trkpt>
       <trkpt lat="45.58933605439960956573486328125" lon="14.4393931142985820770263671875">         <ele>1655.4000244140625</ele>         <time>2026-02-28T12:09:32.000Z</time>         <extensions>           <ns3:TrackPointExtension>             <ns3:hr>110</ns3:hr>           </ns3:TrackPointExtension>         </extensions>       </trkpt>
       <trkpt lat="45.58933739550411701202392578125" lon="14.439358413219451904296875">         <ele>1654.5999755859375</ele>         <time>2026-02-28T12:09:35.000Z</time>         <extensions>           <ns3:TrackPointExtension>             <ns3:hr>107</ns3:hr>           </ns3:TrackPointExtension>         </extensions>       </trkpt>
       <trkpt lat="45.58932817541062831878662109375" lon="14.43932865746319293975830078125">         <ele>1654</ele>         <time>2026-02-28T12:09:37.000Z</time>         <extensions>           <ns3:TrackPointExtension>             <ns3:hr>105</ns3:hr>           </ns3:TrackPointExtension>         </extensions>       </trkpt>
       <trkpt lat="45.58932348154485225677490234375" lon="14.43931424058973789215087890625">         <ele>1653.800048828125</ele>         <time>2026-02-28T12:09:38.000Z</time>         <extensions>           <ns3:TrackPointExtension>             <ns3:hr>103</ns3:hr>           </ns3:TrackPointExtension>         </extensions>       </trkpt>
       <trkpt lat="45.58931124396622180938720703125" lon="14.43928557448089122772216796875">         <ele>1652.5999755859375</ele>         <time>2026-02-28T12:09:41.000Z</time>         <extensions>           <ns3:TrackPointExtension>             <ns3:hr>102</ns3:hr>           </ns3:TrackPointExtension>         </extensions>       </trkpt>
       <trkpt lat="45.589303113520145416259765625" lon="14.4392714090645313262939453125">         <ele>1652</ele>         <time>2026-02-28T12:09:44.000Z</time>         <extensions>           <ns3:TrackPointExtension>             <ns3:hr>99</ns3:hr>           </ns3:TrackPointExtension>         </extensions>       </trkpt>
       <trkpt lat="45.58930210769176483154296875" lon="14.4392640329897403717041015625">         <ele>1652</ele>         <time>2026-02-28T12:09:45.000Z</time>         <extensions>           <ns3:TrackPointExtension>             <ns3:hr>98</ns3:hr>           </ns3:TrackPointExtension>         </extensions>       </trkpt>
       <trkpt lat="45.58930537663400173187255859375" lon="14.43925305269658565521240234375">         <ele>1652</ele>         <time>2026-02-28T12:09:48.000Z</time>         <extensions>           <ns3:TrackPointExtension>             <ns3:hr>95</ns3:hr>           </ns3:TrackPointExtension>         </extensions>       </trkpt>
       <trkpt lat="45.58929615654051303863525390625" lon="14.43921298719942569732666015625">         <ele>1651.4000244140625</ele>         <time>2026-02-28T12:09:51.000Z</time>         <extensions>           <ns3:TrackPointExtension>             <ns3:hr>93</ns3:hr>           </ns3:TrackPointExtension>         </extensions>       </trkpt>
       <trkpt lat="45.58929045684635639190673828125" lon="14.43919102661311626434326171875">         <ele>1650.800048828125</ele>         <time>2026-02-28T12:09:52.000Z</time>         <extensions>           <ns3:TrackPointExtension>             <ns3:hr>92</ns3:hr>           </ns3:TrackPointExtension>         </extensions>       </trkpt>
       <trkpt lat="45.589284002780914306640625" lon="14.439166299998760223388671875">         <ele>1650.199951171875</ele>         <time>2026-02-28T12:09:53.000Z</time>         <extensions>           <ns3:TrackPointExtension>             <ns3:hr>92</ns3:hr>           </ns3:TrackPointExtension>         </extensions>       </trkpt>
       <trkpt lat="45.58926966972649097442626953125" lon="14.439067058265209197998046875">         <ele>1649</ele>         <time>2026-02-28T12:09:56.000Z</time>         <extensions>           <ns3:TrackPointExtension>             <ns3:hr>91</ns3:hr>           </ns3:TrackPointExtension>         </extensions>       </trkpt>
       <trkpt lat="45.58924787677824497222900390625" lon="14.43896211683750152587890625">         <ele>1648.4000244140625</ele>         <time>2026-02-28T12:09:59.000Z</time>         <extensions>           <ns3:TrackPointExtension>             <ns3:hr>91</ns3:hr>           </ns3:TrackPointExtension>         </extensions>       </trkpt>
       <trkpt lat="45.5892236530780792236328125" lon="14.43891040049493312835693359375">         <ele>1647.800048828125</ele>         <time>2026-02-28T12:10:01.000Z</time>         <extensions>           <ns3:TrackPointExtension>             <ns3:hr>91</ns3:hr>           </ns3:TrackPointExtension>         </extensions>       </trkpt>
       <trkpt lat="45.58918484486639499664306640625" lon="14.43884284235537052154541015625">         <ele>1646.5999755859375</ele>         <time>2026-02-28T12:10:03.000Z</time>         <extensions>           <ns3:TrackPointExtension>             <ns3:hr>92</ns3:hr>           </ns3:TrackPointExtension>         </extensions>       </trkpt>
       <trkpt lat="45.5891410075128078460693359375" lon="14.43877679295837879180908203125">         <ele>1646</ele>         <time>2026-02-28T12:10:05.000Z</time>         <extensions>           <ns3:TrackPointExtension>             <ns3:hr>91</ns3:hr>           </ns3:TrackPointExtension>         </extensions>       </trkpt>
       <trkpt lat="45.589101277291774749755859375" lon="14.43868962116539478302001953125">         <ele>1646.4000244140625</ele>         <time>2026-02-28T12:10:09.000Z</time>         <extensions>           <ns3:TrackPointExtension>             <ns3:hr>91</ns3:hr>           </ns3:TrackPointExtension>         </extensions>       </trkpt>
       <trkpt lat="45.5890830047428607940673828125" lon="14.438641928136348724365234375">         <ele>1646.4000244140625</ele>         <time>2026-02-28T12:10:11.000Z</time>         <extensions>           <ns3:TrackPointExtension>             <ns3:hr>96</ns3:hr>           </ns3:TrackPointExtension>         </extensions>       </trkpt>
       <trkpt lat="45.5890793167054653167724609375" lon="14.43864821456372737884521484375">         <ele>1646.4000244140625</ele>         <time>2026-02-28T12:10:12.000Z</time>         <extensions>           <ns3:TrackPointExtension>             <ns3:hr>99</ns3:hr>           </ns3:TrackPointExtension>         </extensions>       </trkpt>
       <trkpt lat="45.589055679738521575927734375" lon="14.4386489689350128173828125">         <ele>1646.4000244140625</ele>         <time>2026-02-28T12:10:15.000Z</time>         <extensions>           <ns3:TrackPointExtension>             <ns3:hr>95</ns3:hr>           </ns3:TrackPointExtension>         </extensions>       </trkpt>
       <trkpt lat="45.5890514887869358062744140625" lon="14.4386521540582180023193359375">         <ele>1646.800048828125</ele>         <time>2026-02-28T12:10:17.000Z</time>         <extensions>           <ns3:TrackPointExtension>             <ns3:hr>92</ns3:hr>           </ns3:TrackPointExtension>         </extensions>       </trkpt>
       <trkpt lat="45.58904469944536685943603515625" lon="14.4386524893343448638916015625">         <ele>1647</ele>         <time>2026-02-28T12:10:19.000Z</time>         <extensions>           <ns3:TrackPointExtension>             <ns3:hr>90</ns3:hr>           </ns3:TrackPointExtension>         </extensions>       </trkpt>
       <trkpt lat="45.5890343897044658660888671875" lon="14.43864737637341022491455078125">         <ele>1646.800048828125</ele>         <time>2026-02-28T12:10:24.000Z</time>         <extensions>           <ns3:TrackPointExtension>             <ns3:hr>91</ns3:hr>           </ns3:TrackPointExtension>         </extensions>       </trkpt>
       <trkpt lat="45.5890256725251674652099609375" lon="14.4386340491473674774169921875">         <ele>1646.5999755859375</ele>         <time>2026-02-28T12:10:31.000Z</time>         <extensions>           <ns3:TrackPointExtension>             <ns3:hr>95</ns3:hr>           </ns3:TrackPointExtension>         </extensions>       </trkpt>
       <trkpt lat="45.58901913464069366455078125" lon="14.4386221468448638916015625">         <ele>1646.800048828125</ele>         <time>2026-02-28T12:10:33.000Z</time>         <extensions>           <ns3:TrackPointExtension>             <ns3:hr>97</ns3:hr>           </ns3:TrackPointExtension>         </extensions>       </trkpt>
       <trkpt lat="45.58901108801364898681640625" lon="14.4385980069637298583984375">         <ele>1646.800048828125</ele>         <time>2026-02-28T12:10:39.000Z</time>         <extensions>           <ns3:TrackPointExtension>             <ns3:hr>101</ns3:hr>           </ns3:TrackPointExtension>         </extensions>       </trkpt>
       <trkpt lat="45.589003376662731170654296875" lon="14.4385894574224948883056640625">         <ele>1646.800048828125</ele>         <time>2026-02-28T12:10:41.000Z</time>         <extensions>           <ns3:TrackPointExtension>             <ns3:hr>104</ns3:hr>           </ns3:TrackPointExtension>         </extensions>       </trkpt>
       <trkpt lat="45.58895400725305080413818359375" lon="14.438547380268573760986328125">         <ele>1646</ele>         <time>2026-02-28T12:10:45.000Z</time>         <extensions>           <ns3:TrackPointExtension>             <ns3:hr>102</ns3:hr>           </ns3:TrackPointExtension>         </extensions>       </trkpt>
       <trkpt lat="45.58893808163702487945556640625" lon="14.43852986209094524383544921875">         <ele>1645.5999755859375</ele>         <time>2026-02-28T12:10:46.000Z</time>         <extensions>           <ns3:TrackPointExtension>             <ns3:hr>102</ns3:hr>           </ns3:TrackPointExtension>         </extensions>       </trkpt>
       <trkpt lat="45.58890271000564098358154296875" lon="14.4385053031146526336669921875">         <ele>1644.5999755859375</ele>         <time>2026-02-28T12:10:50.000Z</time>         <extensions>           <ns3:TrackPointExtension>             <ns3:hr>103</ns3:hr>           </ns3:TrackPointExtension>         </extensions>       </trkpt>
       <trkpt lat="45.58881604112684726715087890625" lon="14.4384851865470409393310546875">         <ele>1643.5999755859375</ele>         <time>2026-02-28T12:10:55.000Z</time>         <extensions>           <ns3:TrackPointExtension>             <ns3:hr>99</ns3:hr>           </ns3:TrackPointExtension>         </extensions>       </trkpt>
       <trkpt lat="45.58877966366708278656005859375" lon="14.4384610466659069061279296875">         <ele>1642.800048828125</ele>         <time>2026-02-28T12:10:56.000Z</time>         <extensions>           <ns3:TrackPointExtension>             <ns3:hr>97</ns3:hr>           </ns3:TrackPointExtension>         </extensions>       </trkpt>
       <trkpt lat="45.58875736780464649200439453125" lon="14.4384231604635715484619140625">         <ele>1641.5999755859375</ele>         <time>2026-02-28T12:10:57.000Z</time>         <extensions>           <ns3:TrackPointExtension>             <ns3:hr>97</ns3:hr>           </ns3:TrackPointExtension>         </extensions>       </trkpt>
       <trkpt lat="45.5887145362794399261474609375" lon="14.4383567757904529571533203125">         <ele>1640.5999755859375</ele>         <time>2026-02-28T12:10:59.000Z</time>         <extensions>           <ns3:TrackPointExtension>             <ns3:hr>97</ns3:hr>           </ns3:TrackPointExtension>         </extensions>       </trkpt>
       <trkpt lat="45.58870607055723667144775390625" lon="14.43833238445222377777099609375">         <ele>1640.5999755859375</ele>         <time>2026-02-28T12:11:02.000Z</time>         <extensions>           <ns3:TrackPointExtension>             <ns3:hr>98</ns3:hr>           </ns3:TrackPointExtension>         </extensions>       </trkpt>
       <trkpt lat="45.5887058191001415252685546875" lon="14.43833137862384319305419921875">         <ele>1640.800048828125</ele>         <time>2026-02-28T12:11:08.000Z</time>         <extensions>           <ns3:TrackPointExtension>             <ns3:hr>100</ns3:hr>           </ns3:TrackPointExtension>         </extensions>       </trkpt>
       <trkpt lat="45.58865980245172977447509765625" lon="14.43827052600681781768798828125">         <ele>1640.5999755859375</ele>         <time>2026-02-28T12:11:13.000Z</time>         <extensions>           <ns3:TrackPointExtension>             <ns3:hr>102</ns3:hr>           </ns3:TrackPointExtension>         </extensions>       </trkpt>
       <trkpt lat="45.58863800950348377227783203125" lon="14.4382394291460514068603515625">         <ele>1640.4000244140625</ele>         <time>2026-02-28T12:11:16.000Z</time>         <extensions>           <ns3:TrackPointExtension>             <ns3:hr>102</ns3:hr>           </ns3:TrackPointExtension>         </extensions>       </trkpt>
       <trkpt lat="45.5886139534413814544677734375" lon="14.4382052309811115264892578125">         <ele>1641</ele>         <time>2026-02-28T12:11:21.000Z</time>         <extensions>           <ns3:TrackPointExtension>             <ns3:hr>104</ns3:hr>           </ns3:TrackPointExtension>         </extensions>       </trkpt>
       <trkpt lat="45.58858570642769336700439453125" lon="14.4381569512188434600830078125">         <ele>1640.800048828125</ele>         <time>2026-02-28T12:11:26.000Z</time>         <extensions>           <ns3:TrackPointExtension>             <ns3:hr>104</ns3:hr>           </ns3:TrackPointExtension>         </extensions>       </trkpt>
       <trkpt lat="45.588573552668094635009765625" lon="14.438137002289295196533203125">         <ele>1640.5999755859375</ele>         <time>2026-02-28T12:11:30.000Z</time>         <extensions>           <ns3:TrackPointExtension>             <ns3:hr>106</ns3:hr>           </ns3:TrackPointExtension>         </extensions>       </trkpt>
       <trkpt lat="45.588560141623020172119140625" lon="14.4381012953817844390869140625">         <ele>1640.800048828125</ele>         <time>2026-02-28T12:11:36.000Z</time>         <extensions>           <ns3:TrackPointExtension>             <ns3:hr>109</ns3:hr>           </ns3:TrackPointExtension>         </extensions>       </trkpt>
       <trkpt lat="45.58851026929914951324462890625" lon="14.43802602589130401611328125">         <ele>1640.800048828125</ele>         <time>2026-02-28T12:11:42.000Z</time>         <extensions>           <ns3:TrackPointExtension>             <ns3:hr>110</ns3:hr>           </ns3:TrackPointExtension>         </extensions>       </trkpt>
       <trkpt lat="45.58845913968980312347412109375" lon="14.4379604794085025787353515625">         <ele>1640.5999755859375</ele>         <time>2026-02-28T12:11:47.000Z</time>         <extensions>           <ns3:TrackPointExtension>             <ns3:hr>111</ns3:hr>           </ns3:TrackPointExtension>         </extensions>       </trkpt>
       <trkpt lat="45.58843952603638172149658203125" lon="14.43791613914072513580322265625">         <ele>1640.4000244140625</ele>         <time>2026-02-28T12:11:52.000Z</time>         <extensions>           <ns3:TrackPointExtension>             <ns3:hr>110</ns3:hr>           </ns3:TrackPointExtension>         </extensions>       </trkpt>
       <trkpt lat="45.58843248523771762847900390625" lon="14.43787892349064350128173828125">         <ele>1640.4000244140625</ele>         <time>2026-02-28T12:12:00.000Z</time>         <extensions>           <ns3:TrackPointExtension>             <ns3:hr>109</ns3:hr>           </ns3:TrackPointExtension>         </extensions>       </trkpt>
       <trkpt lat="45.58839795179665088653564453125" lon="14.43783030845224857330322265625">         <ele>1641.199951171875</ele>         <time>2026-02-28T12:12:04.000Z</time>         <extensions>           <ns3:TrackPointExtension>             <ns3:hr>109</ns3:hr>           </ns3:TrackPointExtension>         </extensions>       </trkpt>
       <trkpt lat="45.588312037289142608642578125" lon="14.43773659877479076385498046875">         <ele>1639.800048828125</ele>         <time>2026-02-28T12:12:08.000Z</time>         <extensions>           <ns3:TrackPointExtension>             <ns3:hr>108</ns3:hr>           </ns3:TrackPointExtension>         </extensions>       </trkpt>
       <trkpt lat="45.58830491267144680023193359375" lon="14.43771983496844768524169921875">         <ele>1638.5999755859375</ele>         <time>2026-02-28T12:12:09.000Z</time>         <extensions>           <ns3:TrackPointExtension>             <ns3:hr>108</ns3:hr>           </ns3:TrackPointExtension>         </extensions>       </trkpt>
       <trkpt lat="45.5883041583001613616943359375" lon="14.43771715275943279266357421875">         <ele>1637.199951171875</ele>         <time>2026-02-28T12:12:11.000Z</time>         <extensions>           <ns3:TrackPointExtension>             <ns3:hr>108</ns3:hr>           </ns3:TrackPointExtension>         </extensions>       </trkpt>
       <trkpt lat="45.58830432593822479248046875" lon="14.437717236578464508056640625">         <ele>1637.4000244140625</ele>         <time>2026-02-28T12:12:12.000Z</time>         <extensions>           <ns3:TrackPointExtension>             <ns3:hr>106</ns3:hr>           </ns3:TrackPointExtension>         </extensions>       </trkpt>
       <trkpt lat="45.58829602785408496856689453125" lon="14.43767457269132137298583984375">         <ele>1637.4000244140625</ele>         <time>2026-02-28T12:12:20.000Z</time>         <extensions>           <ns3:TrackPointExtension>             <ns3:hr>106</ns3:hr>           </ns3:TrackPointExtension>         </extensions>       </trkpt>
       <trkpt lat="45.5882634222507476806640625" lon="14.4375678710639476776123046875">         <ele>1636.800048828125</ele>         <time>2026-02-28T12:12:26.000Z</time>         <extensions>           <ns3:TrackPointExtension>             <ns3:hr>108</ns3:hr>           </ns3:TrackPointExtension>         </extensions>       </trkpt>
       <trkpt lat="45.58826266787946224212646484375" lon="14.437564350664615631103515625">         <ele>1636.4000244140625</ele>         <time>2026-02-28T12:12:30.000Z</time>         <extensions>           <ns3:TrackPointExtension>             <ns3:hr>105</ns3:hr>           </ns3:TrackPointExtension>         </extensions>       </trkpt>
       <trkpt lat="45.58826266787946224212646484375" lon="14.437564350664615631103515625">         <ele>1636.199951171875</ele>         <time>2026-02-28T12:12:31.000Z</time>         <extensions>           <ns3:TrackPointExtension>             <ns3:hr>103</ns3:hr>           </ns3:TrackPointExtension>         </extensions>       </trkpt>
       <trkpt lat="45.58826266787946224212646484375" lon="14.437564350664615631103515625">         <ele>1636.4000244140625</ele>         <time>2026-02-28T12:12:34.000Z</time>         <extensions>           <ns3:TrackPointExtension>             <ns3:hr>106</ns3:hr>           </ns3:TrackPointExtension>         </extensions>       </trkpt>
       <trkpt lat="45.58826266787946224212646484375" lon="14.437564350664615631103515625">         <ele>1636.4000244140625</ele>         <time>2026-02-28T12:12:36.000Z</time>         <extensions>           <ns3:TrackPointExtension>             <ns3:hr>107</ns3:hr>           </ns3:TrackPointExtension>         </extensions>       </trkpt>
       <trkpt lat="45.58826266787946224212646484375" lon="14.437564350664615631103515625">         <ele>1636</ele>         <time>2026-02-28T12:12:51.000Z</time>         <extensions>           <ns3:TrackPointExtension>             <ns3:hr>104</ns3:hr>           </ns3:TrackPointExtension>         </extensions>       </trkpt>
       <trkpt lat="45.5882652662694454193115234375" lon="14.437579102814197540283203125">         <ele>1636.199951171875</ele>         <time>2026-02-28T12:12:57.000Z</time>         <extensions>           <ns3:TrackPointExtension>             <ns3:hr>105</ns3:hr>           </ns3:TrackPointExtension>         </extensions>       </trkpt>
       <trkpt lat="45.5882666073739528656005859375" lon="14.43757466040551662445068359375">         <ele>1636</ele>         <time>2026-02-28T12:13:02.000Z</time>         <extensions>           <ns3:TrackPointExtension>             <ns3:hr>103</ns3:hr>           </ns3:TrackPointExtension>         </extensions>       </trkpt>
       <trkpt lat="45.58824724517762660980224609375" lon="14.43756460212171077728271484375">         <ele>1636</ele>         <time>2026-02-28T12:13:08.000Z</time>         <extensions>           <ns3:TrackPointExtension>             <ns3:hr>103</ns3:hr>           </ns3:TrackPointExtension>         </extensions>       </trkpt>
       <trkpt lat="45.5881814472377300262451171875" lon="14.43763702176511287689208984375">         <ele>1635.4000244140625</ele>         <time>2026-02-28T12:13:11.000Z</time>         <extensions>           <ns3:TrackPointExtension>             <ns3:hr>101</ns3:hr>           </ns3:TrackPointExtension>         </extensions>       </trkpt>
       <trkpt lat="45.5881576426327228546142578125" lon="14.4376828707754611968994140625">         <ele>1634.800048828125</ele>         <time>2026-02-28T12:13:12.000Z</time>         <extensions>           <ns3:TrackPointExtension>             <ns3:hr>101</ns3:hr>           </ns3:TrackPointExtension>         </extensions>       </trkpt>
       <trkpt lat="45.58810274116694927215576171875" lon="14.43772871978580951690673828125">         <ele>1633.199951171875</ele>         <time>2026-02-28T12:13:14.000Z</time>         <extensions>           <ns3:TrackPointExtension>             <ns3:hr>100</ns3:hr>           </ns3:TrackPointExtension>         </extensions>       </trkpt>
       <trkpt lat="45.58808974921703338623046875" lon="14.4377155601978302001953125">         <ele>1632.4000244140625</ele>         <time>2026-02-28T12:13:15.000Z</time>         <extensions>           <ns3:TrackPointExtension>             <ns3:hr>100</ns3:hr>           </ns3:TrackPointExtension>         </extensions>       </trkpt>
       <trkpt lat="45.58808631263673305511474609375" lon="14.437707178294658660888671875">         <ele>1631.800048828125</ele>         <time>2026-02-28T12:13:16.000Z</time>         <extensions>           <ns3:TrackPointExtension>             <ns3:hr>101</ns3:hr>           </ns3:TrackPointExtension>         </extensions>       </trkpt>
       <trkpt lat="45.58809033595025539398193359375" lon="14.43770491518080234527587890625">         <ele>1631.4000244140625</ele>         <time>2026-02-28T12:13:19.000Z</time>         <extensions>           <ns3:TrackPointExtension>             <ns3:hr>104</ns3:hr>           </ns3:TrackPointExtension>         </extensions>       </trkpt>
       <trkpt lat="45.58809033595025539398193359375" lon="14.43770491518080234527587890625">         <ele>1631.5999755859375</ele>         <time>2026-02-28T12:13:21.000Z</time>         <extensions>           <ns3:TrackPointExtension>             <ns3:hr>106</ns3:hr>           </ns3:TrackPointExtension>         </extensions>       </trkpt>
       <trkpt lat="45.58809033595025539398193359375" lon="14.43770491518080234527587890625">         <ele>1631.5999755859375</ele>         <time>2026-02-28T12:13:31.000Z</time>         <extensions>           <ns3:TrackPointExtension>             <ns3:hr>103</ns3:hr>           </ns3:TrackPointExtension>         </extensions>       </trkpt>
       <trkpt lat="45.58809033595025539398193359375" lon="14.43770491518080234527587890625">         <ele>1630.5999755859375</ele>         <time>2026-02-28T12:13:35.000Z</time>         <extensions>           <ns3:TrackPointExtension>             <ns3:hr>101</ns3:hr>           </ns3:TrackPointExtension>         </extensions>       </trkpt>
       <trkpt lat="45.58809033595025539398193359375" lon="14.43770491518080234527587890625">         <ele>1630.5999755859375</ele>         <time>2026-02-28T12:13:36.000Z</time>         <extensions>           <ns3:TrackPointExtension>             <ns3:hr>101</ns3:hr>           </ns3:TrackPointExtension>         </extensions>       </trkpt>
       <trkpt lat="45.58809033595025539398193359375" lon="14.43770491518080234527587890625">         <ele>1630.800048828125</ele>         <time>2026-02-28T12:13:48.000Z</time>         <extensions>           <ns3:TrackPointExtension>             <ns3:hr>102</ns3:hr>           </ns3:TrackPointExtension>         </extensions>       </trkpt>
       <trkpt lat="45.58811657130718231201171875" lon="14.43772788159549236297607421875">         <ele>1631.5999755859375</ele>         <time>2026-02-28T12:13:56.000Z</time>         <extensions>           <ns3:TrackPointExtension>             <ns3:hr>102</ns3:hr>           </ns3:TrackPointExtension>         </extensions>       </trkpt>
       <trkpt lat="45.58811648748815059661865234375" lon="14.43772754631936550140380859375">         <ele>1631.5999755859375</ele>         <time>2026-02-28T12:13:57.000Z</time>         <extensions>           <ns3:TrackPointExtension>             <ns3:hr>101</ns3:hr>           </ns3:TrackPointExtension>         </extensions>       </trkpt>
       <trkpt lat="45.58810978196561336517333984375" lon="14.43772385828197002410888671875">         <ele>1631.5999755859375</ele>         <time>2026-02-28T12:14:02.000Z</time>         <extensions>           <ns3:TrackPointExtension>             <ns3:hr>101</ns3:hr>           </ns3:TrackPointExtension>         </extensions>       </trkpt>
       <trkpt lat="45.5881137214601039886474609375" lon="14.43772830069065093994140625">         <ele>1631.5999755859375</ele>         <time>2026-02-28T12:14:08.000Z</time>         <extensions>           <ns3:TrackPointExtension>             <ns3:hr>100</ns3:hr>           </ns3:TrackPointExtension>         </extensions>       </trkpt>
       <trkpt lat="45.58810944668948650360107421875" lon="14.43772419355809688568115234375">         <ele>1631.4000244140625</ele>         <time>2026-02-28T12:14:13.000Z</time>         <extensions>           <ns3:TrackPointExtension>             <ns3:hr>101</ns3:hr>           </ns3:TrackPointExtension>         </extensions>       </trkpt>
       <trkpt lat="45.5880798585712909698486328125" lon="14.4377381913363933563232421875">         <ele>1630.5999755859375</ele>         <time>2026-02-28T12:14:21.000Z</time>         <extensions>           <ns3:TrackPointExtension>             <ns3:hr>101</ns3:hr>           </ns3:TrackPointExtension>         </extensions>       </trkpt>
       <trkpt lat="45.58806636370718479156494140625" lon="14.4377298094332218170166015625">         <ele>1630</ele>         <time>2026-02-28T12:14:22.000Z</time>         <extensions>           <ns3:TrackPointExtension>             <ns3:hr>101</ns3:hr>           </ns3:TrackPointExtension>         </extensions>       </trkpt>
       <trkpt lat="45.58802864514291286468505859375" lon="14.43771296180784702301025390625">         <ele>1628.4000244140625</ele>         <time>2026-02-28T12:14:24.000Z</time>         <extensions>           <ns3:TrackPointExtension>             <ns3:hr>102</ns3:hr>           </ns3:TrackPointExtension>         </extensions>       </trkpt>
       <trkpt lat="45.58799344114959239959716796875" lon="14.43768027238547801971435546875">         <ele>1626.4000244140625</ele>         <time>2026-02-28T12:14:26.000Z</time>         <extensions>           <ns3:TrackPointExtension>             <ns3:hr>104</ns3:hr>           </ns3:TrackPointExtension>         </extensions>       </trkpt>
       <trkpt lat="45.5879712291061878204345703125" lon="14.437670297920703887939453125">         <ele>1625.4000244140625</ele>         <time>2026-02-28T12:14:27.000Z</time>         <extensions>           <ns3:TrackPointExtension>             <ns3:hr>106</ns3:hr>           </ns3:TrackPointExtension>         </extensions>       </trkpt>
       <trkpt lat="45.5879496037960052490234375" lon="14.4376620836555957794189453125">         <ele>1624.5999755859375</ele>         <time>2026-02-28T12:14:28.000Z</time>         <extensions>           <ns3:TrackPointExtension>             <ns3:hr>107</ns3:hr>           </ns3:TrackPointExtension>         </extensions>       </trkpt>
       <trkpt lat="45.5878957919776439666748046875" lon="14.4376324117183685302734375">         <ele>1623.5999755859375</ele>         <time>2026-02-28T12:14:30.000Z</time>         <extensions>           <ns3:TrackPointExtension>             <ns3:hr>109</ns3:hr>           </ns3:TrackPointExtension>         </extensions>       </trkpt>
       <trkpt lat="45.58783552609384059906005859375" lon="14.43758002482354640960693359375">         <ele>1622.199951171875</ele>         <time>2026-02-28T12:14:32.000Z</time>         <extensions>           <ns3:TrackPointExtension>             <ns3:hr>106</ns3:hr>           </ns3:TrackPointExtension>         </extensions>       </trkpt>
       <trkpt lat="45.58780954219400882720947265625" lon="14.43754750303924083709716796875">         <ele>1621.199951171875</ele>         <time>2026-02-28T12:14:33.000Z</time>         <extensions>           <ns3:TrackPointExtension>             <ns3:hr>104</ns3:hr>           </ns3:TrackPointExtension>         </extensions>       </trkpt>
       <trkpt lat="45.58778774924576282501220703125" lon="14.43751850165426731109619140625">         <ele>1620.5999755859375</ele>         <time>2026-02-28T12:14:34.000Z</time>         <extensions>           <ns3:TrackPointExtension>             <ns3:hr>103</ns3:hr>           </ns3:TrackPointExtension>         </extensions>       </trkpt>
       <trkpt lat="45.58774433098733425140380859375" lon="14.437420852482318878173828125">         <ele>1619.4000244140625</ele>         <time>2026-02-28T12:14:37.000Z</time>         <extensions>           <ns3:TrackPointExtension>             <ns3:hr>102</ns3:hr>           </ns3:TrackPointExtension>         </extensions>       </trkpt>
       <trkpt lat="45.5877201072871685028076171875" lon="14.437346756458282470703125">         <ele>1618.5999755859375</ele>         <time>2026-02-28T12:14:39.000Z</time>         <extensions>           <ns3:TrackPointExtension>             <ns3:hr>102</ns3:hr>           </ns3:TrackPointExtension>         </extensions>       </trkpt>
       <trkpt lat="45.5877066962420940399169921875" lon="14.4373097084462642669677734375">         <ele>1618</ele>         <time>2026-02-28T12:14:40.000Z</time>         <extensions>           <ns3:TrackPointExtension>             <ns3:hr>102</ns3:hr>           </ns3:TrackPointExtension>         </extensions>       </trkpt>
       <trkpt lat="45.58768532238900661468505859375" lon="14.43719965405762195587158203125">         <ele>1617.199951171875</ele>         <time>2026-02-28T12:14:45.000Z</time>         <extensions>           <ns3:TrackPointExtension>             <ns3:hr>101</ns3:hr>           </ns3:TrackPointExtension>         </extensions>       </trkpt>
       <trkpt lat="45.58767124079167842864990234375" lon="14.4371806271374225616455078125">         <ele>1616.4000244140625</ele>         <time>2026-02-28T12:14:46.000Z</time>         <extensions>           <ns3:TrackPointExtension>             <ns3:hr>101</ns3:hr>           </ns3:TrackPointExtension>         </extensions>       </trkpt>
       <trkpt lat="45.5876584164798259735107421875" lon="14.43716763518750667572021484375">         <ele>1615.199951171875</ele>         <time>2026-02-28T12:14:47.000Z</time>         <extensions>           <ns3:TrackPointExtension>             <ns3:hr>101</ns3:hr>           </ns3:TrackPointExtension>         </extensions>       </trkpt>
       <trkpt lat="45.587642155587673187255859375" lon="14.43715472705662250518798828125">         <ele>1614</ele>         <time>2026-02-28T12:14:48.000Z</time>         <extensions>           <ns3:TrackPointExtension>             <ns3:hr>102</ns3:hr>           </ns3:TrackPointExtension>         </extensions>       </trkpt>
       <trkpt lat="45.58760167099535465240478515625" lon="14.43713109008967876434326171875">         <ele>1612.5999755859375</ele>         <time>2026-02-28T12:14:50.000Z</time>         <extensions>           <ns3:TrackPointExtension>             <ns3:hr>103</ns3:hr>           </ns3:TrackPointExtension>         </extensions>       </trkpt>
       <trkpt lat="45.5875776149332523345947265625" lon="14.43711834959685802459716796875">         <ele>1611.199951171875</ele>         <time>2026-02-28T12:14:51.000Z</time>         <extensions>           <ns3:TrackPointExtension>             <ns3:hr>103</ns3:hr>           </ns3:TrackPointExtension>         </extensions>       </trkpt>
       <trkpt lat="45.5875574983656406402587890625" lon="14.4371021725237369537353515625">         <ele>1609.800048828125</ele>         <time>2026-02-28T12:14:52.000Z</time>         <extensions>           <ns3:TrackPointExtension>             <ns3:hr>104</ns3:hr>           </ns3:TrackPointExtension>         </extensions>       </trkpt>
       <trkpt lat="45.5875152535736560821533203125" lon="14.4370669685304164886474609375">         <ele>1608.800048828125</ele>         <time>2026-02-28T12:14:54.000Z</time>         <extensions>           <ns3:TrackPointExtension>             <ns3:hr>103</ns3:hr>           </ns3:TrackPointExtension>         </extensions>       </trkpt>
       <trkpt lat="45.58747057802975177764892578125" lon="14.43700619973242282867431640625">         <ele>1608</ele>         <time>2026-02-28T12:14:57.000Z</time>         <extensions>           <ns3:TrackPointExtension>             <ns3:hr>104</ns3:hr>           </ns3:TrackPointExtension>         </extensions>       </trkpt>
       <trkpt lat="45.58739430271089076995849609375" lon="14.43701022304594516754150390625">         <ele>1607.800048828125</ele>         <time>2026-02-28T12:15:02.000Z</time>         <extensions>           <ns3:TrackPointExtension>             <ns3:hr>107</ns3:hr>           </ns3:TrackPointExtension>         </extensions>       </trkpt>
       <trkpt lat="45.5873836576938629150390625" lon="14.437029249966144561767578125">         <ele>1607.800048828125</ele>         <time>2026-02-28T12:15:03.000Z</time>         <extensions>           <ns3:TrackPointExtension>             <ns3:hr>108</ns3:hr>           </ns3:TrackPointExtension>         </extensions>       </trkpt>
       <trkpt lat="45.58734870515763759613037109375" lon="14.437064789235591888427734375">         <ele>1606.4000244140625</ele>         <time>2026-02-28T12:15:05.000Z</time>         <extensions>           <ns3:TrackPointExtension>             <ns3:hr>108</ns3:hr>           </ns3:TrackPointExtension>         </extensions>       </trkpt>
       <trkpt lat="45.5873246490955352783203125" lon="14.4370746798813343048095703125">         <ele>1605.5999755859375</ele>         <time>2026-02-28T12:15:06.000Z</time>         <extensions>           <ns3:TrackPointExtension>             <ns3:hr>109</ns3:hr>           </ns3:TrackPointExtension>         </extensions>       </trkpt>
       <trkpt lat="45.58730880729854106903076171875" lon="14.437064118683338165283203125">         <ele>1604.4000244140625</ele>         <time>2026-02-28T12:15:07.000Z</time>         <extensions>           <ns3:TrackPointExtension>             <ns3:hr>112</ns3:hr>           </ns3:TrackPointExtension>         </extensions>       </trkpt>
       <trkpt lat="45.5872936360538005828857421875" lon="14.43704140372574329376220703125">         <ele>1603.4000244140625</ele>         <time>2026-02-28T12:15:08.000Z</time>         <extensions>           <ns3:TrackPointExtension>             <ns3:hr>111</ns3:hr>           </ns3:TrackPointExtension>         </extensions>       </trkpt>
       <trkpt lat="45.5872755311429500579833984375" lon="14.43698541261255741119384765625">         <ele>1602.4000244140625</ele>         <time>2026-02-28T12:15:10.000Z</time>         <extensions>           <ns3:TrackPointExtension>             <ns3:hr>108</ns3:hr>           </ns3:TrackPointExtension>         </extensions>       </trkpt>
       <trkpt lat="45.5872698314487934112548828125" lon="14.43685096688568592071533203125">         <ele>1601.800048828125</ele>         <time>2026-02-28T12:15:15.000Z</time>         <extensions>           <ns3:TrackPointExtension>             <ns3:hr>108</ns3:hr>           </ns3:TrackPointExtension>         </extensions>       </trkpt>
       <trkpt lat="45.58726170100271701812744140625" lon="14.4368316046893596649169921875">         <ele>1602.4000244140625</ele>         <time>2026-02-28T12:15:21.000Z</time>         <extensions>           <ns3:TrackPointExtension>             <ns3:hr>107</ns3:hr>           </ns3:TrackPointExtension>         </extensions>       </trkpt>
       <trkpt lat="45.5872617848217487335205078125" lon="14.4368304312229156494140625">         <ele>1602.4000244140625</ele>         <time>2026-02-28T12:15:29.000Z</time>         <extensions>           <ns3:TrackPointExtension>             <ns3:hr>106</ns3:hr>           </ns3:TrackPointExtension>         </extensions>       </trkpt>
       <trkpt lat="45.58726320974528789520263671875" lon="14.43683051504194736480712890625">         <ele>1602.4000244140625</ele>         <time>2026-02-28T12:15:32.000Z</time>         <extensions>           <ns3:TrackPointExtension>             <ns3:hr>120</ns3:hr>           </ns3:TrackPointExtension>         </extensions>       </trkpt>
       <trkpt lat="45.58726337738335132598876953125" lon="14.43683034740388393402099609375">         <ele>1602.4000244140625</ele>         <time>2026-02-28T12:15:33.000Z</time>         <extensions>           <ns3:TrackPointExtension>             <ns3:hr>131</ns3:hr>           </ns3:TrackPointExtension>         </extensions>       </trkpt>
       <trkpt lat="45.58726337738335132598876953125" lon="14.43683034740388393402099609375">         <ele>1602.4000244140625</ele>         <time>2026-02-28T12:15:34.000Z</time>         <extensions>           <ns3:TrackPointExtension>             <ns3:hr>135</ns3:hr>           </ns3:TrackPointExtension>         </extensions>       </trkpt>
       <trkpt lat="45.58726337738335132598876953125" lon="14.43683034740388393402099609375">         <ele>1602.800048828125</ele>         <time>2026-02-28T12:15:39.000Z</time>         <extensions>           <ns3:TrackPointExtension>             <ns3:hr>136</ns3:hr>           </ns3:TrackPointExtension>         </extensions>       </trkpt>
       <trkpt lat="45.58726337738335132598876953125" lon="14.43683034740388393402099609375">         <ele>1602.5999755859375</ele>         <time>2026-02-28T12:15:48.000Z</time>         <extensions>           <ns3:TrackPointExtension>             <ns3:hr>129</ns3:hr>           </ns3:TrackPointExtension>         </extensions>       </trkpt>
       <trkpt lat="45.58726337738335132598876953125" lon="14.43683034740388393402099609375">         <ele>1602.4000244140625</ele>         <time>2026-02-28T12:15:52.000Z</time>         <extensions>           <ns3:TrackPointExtension>             <ns3:hr>128</ns3:hr>           </ns3:TrackPointExtension>         </extensions>       </trkpt>
       <trkpt lat="45.5872145108878612518310546875" lon="14.43685532547533512115478515625">         <ele>1602.199951171875</ele>         <time>2026-02-28T12:15:56.000Z</time>         <extensions>           <ns3:TrackPointExtension>             <ns3:hr>127</ns3:hr>           </ns3:TrackPointExtension>         </extensions>       </trkpt>
       <trkpt lat="45.5871954001486301422119140625" lon="14.43687896244227886199951171875">         <ele>1601</ele>         <time>2026-02-28T12:15:59.000Z</time>         <extensions>           <ns3:TrackPointExtension>             <ns3:hr>126</ns3:hr>           </ns3:TrackPointExtension>         </extensions>       </trkpt>
       <trkpt lat="45.58718257583677768707275390625" lon="14.43689824081957340240478515625">         <ele>1600.4000244140625</ele>         <time>2026-02-28T12:16:01.000Z</time>         <extensions>           <ns3:TrackPointExtension>             <ns3:hr>126</ns3:hr>           </ns3:TrackPointExtension>         </extensions>       </trkpt>
       <trkpt lat="45.587180815637111663818359375" lon="14.43693394772708415985107421875">         <ele>1600.199951171875</ele>         <time>2026-02-28T12:16:06.000Z</time>         <extensions>           <ns3:TrackPointExtension>             <ns3:hr>125</ns3:hr>           </ns3:TrackPointExtension>         </extensions>       </trkpt>
       <trkpt lat="45.58712951838970184326171875" lon="14.43696060217916965484619140625">         <ele>1599.5999755859375</ele>         <time>2026-02-28T12:16:10.000Z</time>         <extensions>           <ns3:TrackPointExtension>             <ns3:hr>125</ns3:hr>           </ns3:TrackPointExtension>         </extensions>       </trkpt>
       <trkpt lat="45.587115101516246795654296875" lon="14.436901509761810302734375">         <ele>1598.199951171875</ele>         <time>2026-02-28T12:16:13.000Z</time>         <extensions>           <ns3:TrackPointExtension>             <ns3:hr>125</ns3:hr>           </ns3:TrackPointExtension>         </extensions>       </trkpt>
       <trkpt lat="45.5871125869452953338623046875" lon="14.4368872605264186859130859375">         <ele>1597.800048828125</ele>         <time>2026-02-28T12:16:14.000Z</time>         <extensions>           <ns3:TrackPointExtension>             <ns3:hr>125</ns3:hr>           </ns3:TrackPointExtension>         </extensions>       </trkpt>
       <trkpt lat="45.58711300604045391082763671875" lon="14.43689069710671901702880859375">         <ele>1597.4000244140625</ele>         <time>2026-02-28T12:16:21.000Z</time>         <extensions>           <ns3:TrackPointExtension>             <ns3:hr>124</ns3:hr>           </ns3:TrackPointExtension>         </extensions>       </trkpt>
       <trkpt lat="45.58711300604045391082763671875" lon="14.43689069710671901702880859375">         <ele>1597.4000244140625</ele>         <time>2026-02-28T12:16:25.000Z</time>         <extensions>           <ns3:TrackPointExtension>             <ns3:hr>120</ns3:hr>           </ns3:TrackPointExtension>         </extensions>       </trkpt>
       <trkpt lat="45.58711300604045391082763671875" lon="14.43689069710671901702880859375">         <ele>1597.4000244140625</ele>         <time>2026-02-28T12:16:26.000Z</time>         <extensions>           <ns3:TrackPointExtension>             <ns3:hr>116</ns3:hr>           </ns3:TrackPointExtension>         </extensions>       </trkpt>
       <trkpt lat="45.5871065519750118255615234375" lon="14.43687259219586849212646484375">         <ele>1597.199951171875</ele>         <time>2026-02-28T12:16:28.000Z</time>         <extensions>           <ns3:TrackPointExtension>             <ns3:hr>113</ns3:hr>           </ns3:TrackPointExtension>         </extensions>       </trkpt>
       <trkpt lat="45.58710278011858463287353515625" lon="14.4368518888950347900390625">         <ele>1597.199951171875</ele>         <time>2026-02-28T12:16:29.000Z</time>         <extensions>           <ns3:TrackPointExtension>             <ns3:hr>112</ns3:hr>           </ns3:TrackPointExtension>         </extensions>       </trkpt>
       <trkpt lat="45.58710227720439434051513671875" lon="14.43684023804962635040283203125">         <ele>1597</ele>         <time>2026-02-28T12:16:30.000Z</time>         <extensions>           <ns3:TrackPointExtension>             <ns3:hr>112</ns3:hr>           </ns3:TrackPointExtension>         </extensions>       </trkpt>
       <trkpt lat="45.58709657751023769378662109375" lon="14.43684912286698818206787109375">         <ele>1596.199951171875</ele>         <time>2026-02-28T12:16:34.000Z</time>         <extensions>           <ns3:TrackPointExtension>             <ns3:hr>116</ns3:hr>           </ns3:TrackPointExtension>         </extensions>       </trkpt>
       <trkpt lat="45.58709657751023769378662109375" lon="14.43684912286698818206787109375">         <ele>1596.199951171875</ele>         <time>2026-02-28T12:16:35.000Z</time>         <extensions>           <ns3:TrackPointExtension>             <ns3:hr>120</ns3:hr>           </ns3:TrackPointExtension>         </extensions>       </trkpt>
       <trkpt lat="45.587095320224761962890625" lon="14.43684895522892475128173828125">         <ele>1596.199951171875</ele>         <time>2026-02-28T12:16:36.000Z</time>         <extensions>           <ns3:TrackPointExtension>             <ns3:hr>125</ns3:hr>           </ns3:TrackPointExtension>         </extensions>       </trkpt>
       <trkpt lat="45.58708433993160724639892578125" lon="14.43683051504194736480712890625">         <ele>1596.4000244140625</ele>         <time>2026-02-28T12:16:38.000Z</time>         <extensions>           <ns3:TrackPointExtension>             <ns3:hr>128</ns3:hr>           </ns3:TrackPointExtension>         </extensions>       </trkpt>
       <trkpt lat="45.5870713479816913604736328125" lon="14.43677636794745922088623046875">         <ele>1596.199951171875</ele>         <time>2026-02-28T12:16:40.000Z</time>         <extensions>           <ns3:TrackPointExtension>             <ns3:hr>127</ns3:hr>           </ns3:TrackPointExtension>         </extensions>       </trkpt>
       <trkpt lat="45.5870659835636615753173828125" lon="14.43675071932375431060791015625">         <ele>1595.800048828125</ele>         <time>2026-02-28T12:16:41.000Z</time>         <extensions>           <ns3:TrackPointExtension>             <ns3:hr>125</ns3:hr>           </ns3:TrackPointExtension>         </extensions>       </trkpt>
       <trkpt lat="45.58704997412860393524169921875" lon="14.4366974942386150360107421875">         <ele>1594.5999755859375</ele>         <time>2026-02-28T12:16:43.000Z</time>         <extensions>           <ns3:TrackPointExtension>             <ns3:hr>122</ns3:hr>           </ns3:TrackPointExtension>         </extensions>       </trkpt>
       <trkpt lat="45.587048046290874481201171875" lon="14.43669305182993412017822265625">         <ele>1594.4000244140625</ele>         <time>2026-02-28T12:16:46.000Z</time>         <extensions>           <ns3:TrackPointExtension>             <ns3:hr>121</ns3:hr>           </ns3:TrackPointExtension>         </extensions>       </trkpt>
       <trkpt lat="45.587048046290874481201171875" lon="14.43669305182993412017822265625">         <ele>1594.800048828125</ele>         <time>2026-02-28T12:16:55.000Z</time>         <extensions>           <ns3:TrackPointExtension>             <ns3:hr>121</ns3:hr>           </ns3:TrackPointExtension>         </extensions>       </trkpt>
       <trkpt lat="45.5870049633085727691650390625" lon="14.4366592727601528167724609375">         <ele>1594</ele>         <time>2026-02-28T12:16:58.000Z</time>         <extensions>           <ns3:TrackPointExtension>             <ns3:hr>118</ns3:hr>           </ns3:TrackPointExtension>         </extensions>       </trkpt>
       <trkpt lat="45.58700555004179477691650390625" lon="14.43663395941257476806640625">         <ele>1593.4000244140625</ele>         <time>2026-02-28T12:16:59.000Z</time>         <extensions>           <ns3:TrackPointExtension>             <ns3:hr>117</ns3:hr>           </ns3:TrackPointExtension>         </extensions>       </trkpt>
       <trkpt lat="45.5870029516518115997314453125" lon="14.43660579621791839599609375">         <ele>1592.4000244140625</ele>         <time>2026-02-28T12:17:02.000Z</time>         <extensions>           <ns3:TrackPointExtension>             <ns3:hr>114</ns3:hr>           </ns3:TrackPointExtension>         </extensions>       </trkpt>
       <trkpt lat="45.58700286783277988433837890625" lon="14.4366056285798549652099609375">         <ele>1592.4000244140625</ele>         <time>2026-02-28T12:17:04.000Z</time>         <extensions>           <ns3:TrackPointExtension>             <ns3:hr>117</ns3:hr>           </ns3:TrackPointExtension>         </extensions>       </trkpt>
       <trkpt lat="45.58700286783277988433837890625" lon="14.4366056285798549652099609375">         <ele>1592.4000244140625</ele>         <time>2026-02-28T12:17:06.000Z</time>         <extensions>           <ns3:TrackPointExtension>             <ns3:hr>117</ns3:hr>           </ns3:TrackPointExtension>         </extensions>       </trkpt>
       <trkpt lat="45.58700211346149444580078125" lon="14.43660437129437923431396484375">         <ele>1592.4000244140625</ele>         <time>2026-02-28T12:17:07.000Z</time>         <extensions>           <ns3:TrackPointExtension>             <ns3:hr>114</ns3:hr>           </ns3:TrackPointExtension>         </extensions>       </trkpt>
       <trkpt lat="45.5869952403008937835693359375" lon="14.43656983785331249237060546875">         <ele>1592</ele>         <time>2026-02-28T12:17:09.000Z</time>         <extensions>           <ns3:TrackPointExtension>             <ns3:hr>111</ns3:hr>           </ns3:TrackPointExtension>         </extensions>       </trkpt>
       <trkpt lat="45.5869938991963863372802734375" lon="14.4365543313324451446533203125">         <ele>1591.5999755859375</ele>         <time>2026-02-28T12:17:10.000Z</time>         <extensions>           <ns3:TrackPointExtension>             <ns3:hr>110</ns3:hr>           </ns3:TrackPointExtension>         </extensions>       </trkpt>
       <trkpt lat="45.58699146844446659088134765625" lon="14.436510913074016571044921875">         <ele>1591.199951171875</ele>         <time>2026-02-28T12:17:12.000Z</time>         <extensions>           <ns3:TrackPointExtension>             <ns3:hr>112</ns3:hr>           </ns3:TrackPointExtension>         </extensions>       </trkpt>
       <trkpt lat="45.58697956614196300506591796875" lon="14.43640823476016521453857421875">         <ele>1590</ele>         <time>2026-02-28T12:17:15.000Z</time>         <extensions>           <ns3:TrackPointExtension>             <ns3:hr>113</ns3:hr>           </ns3:TrackPointExtension>         </extensions>       </trkpt>
       <trkpt lat="45.58697034604847431182861328125" lon="14.43636632524430751800537109375">         <ele>1589.800048828125</ele>         <time>2026-02-28T12:17:16.000Z</time>         <extensions>           <ns3:TrackPointExtension>             <ns3:hr>112</ns3:hr>           </ns3:TrackPointExtension>         </extensions>       </trkpt>
       <trkpt lat="45.58693111874163150787353515625" lon="14.43633313290774822235107421875">         <ele>1589</ele>         <time>2026-02-28T12:17:18.000Z</time>         <extensions>           <ns3:TrackPointExtension>             <ns3:hr>112</ns3:hr>           </ns3:TrackPointExtension>         </extensions>       </trkpt>
       <trkpt lat="45.58690144680440425872802734375" lon="14.43634620867669582366943359375">         <ele>1588</ele>         <time>2026-02-28T12:17:19.000Z</time>         <extensions>           <ns3:TrackPointExtension>             <ns3:hr>112</ns3:hr>           </ns3:TrackPointExtension>         </extensions>       </trkpt>
       <trkpt lat="45.58686456643044948577880859375" lon="14.436300694942474365234375">         <ele>1586.5999755859375</ele>         <time>2026-02-28T12:17:21.000Z</time>         <extensions>           <ns3:TrackPointExtension>             <ns3:hr>112</ns3:hr>           </ns3:TrackPointExtension>         </extensions>       </trkpt>
       <trkpt lat="45.586848556995391845703125" lon="14.43625853396952152252197265625">         <ele>1586.199951171875</ele>         <time>2026-02-28T12:17:22.000Z</time>         <extensions>           <ns3:TrackPointExtension>             <ns3:hr>112</ns3:hr>           </ns3:TrackPointExtension>         </extensions>       </trkpt>
       <trkpt lat="45.58683405630290508270263671875" lon="14.43624780513346195220947265625">         <ele>1585.5999755859375</ele>         <time>2026-02-28T12:17:23.000Z</time>         <extensions>           <ns3:TrackPointExtension>             <ns3:hr>112</ns3:hr>           </ns3:TrackPointExtension>         </extensions>       </trkpt>
       <trkpt lat="45.58682735078036785125732421875" lon="14.43624445237219333648681640625">         <ele>1584.4000244140625</ele>         <time>2026-02-28T12:17:25.000Z</time>         <extensions>           <ns3:TrackPointExtension>             <ns3:hr>111</ns3:hr>           </ns3:TrackPointExtension>         </extensions>       </trkpt>
       <trkpt lat="45.5868255905807018280029296875" lon="14.43623975850641727447509765625">         <ele>1584.199951171875</ele>         <time>2026-02-28T12:17:34.000Z</time>         <extensions>           <ns3:TrackPointExtension>             <ns3:hr>114</ns3:hr>           </ns3:TrackPointExtension>         </extensions>       </trkpt>
       <trkpt lat="45.58677068911492824554443359375" lon="14.436295665800571441650390625">         <ele>1583.5999755859375</ele>         <time>2026-02-28T12:17:38.000Z</time>         <extensions>           <ns3:TrackPointExtension>             <ns3:hr>116</ns3:hr>           </ns3:TrackPointExtension>         </extensions>       </trkpt>
       <trkpt lat="45.58674319647252559661865234375" lon="14.43629323504865169525146484375">         <ele>1583.5999755859375</ele>         <time>2026-02-28T12:17:39.000Z</time>         <extensions>           <ns3:TrackPointExtension>             <ns3:hr>118</ns3:hr>           </ns3:TrackPointExtension>         </extensions>       </trkpt>
       <trkpt lat="45.586727522313594818115234375" lon="14.43623355589807033538818359375">         <ele>1583.199951171875</ele>         <time>2026-02-28T12:17:41.000Z</time>         <extensions>           <ns3:TrackPointExtension>             <ns3:hr>120</ns3:hr>           </ns3:TrackPointExtension>         </extensions>       </trkpt>
       <trkpt lat="45.586718805134296417236328125" lon="14.43621830083429813385009765625">         <ele>1583</ele>         <time>2026-02-28T12:17:42.000Z</time>         <extensions>           <ns3:TrackPointExtension>             <ns3:hr>121</ns3:hr>           </ns3:TrackPointExtension>         </extensions>       </trkpt>
       <trkpt lat="45.58670380152761936187744140625" lon="14.43621645681560039520263671875">         <ele>1581.5999755859375</ele>         <time>2026-02-28T12:17:43.000Z</time>         <extensions>           <ns3:TrackPointExtension>             <ns3:hr>120</ns3:hr>           </ns3:TrackPointExtension>         </extensions>       </trkpt>
       <trkpt lat="45.5866857804358005523681640625" lon="14.43622601218521595001220703125">         <ele>1580.5999755859375</ele>         <time>2026-02-28T12:17:44.000Z</time>         <extensions>           <ns3:TrackPointExtension>             <ns3:hr>119</ns3:hr>           </ns3:TrackPointExtension>         </extensions>       </trkpt>
       <trkpt lat="45.5866686813533306121826171875" lon="14.43624277599155902862548828125">         <ele>1580.4000244140625</ele>         <time>2026-02-28T12:17:45.000Z</time>         <extensions>           <ns3:TrackPointExtension>             <ns3:hr>117</ns3:hr>           </ns3:TrackPointExtension>         </extensions>       </trkpt>
       <trkpt lat="45.58663356117904186248779296875" lon="14.436282254755496978759765625">         <ele>1579.800048828125</ele>         <time>2026-02-28T12:17:47.000Z</time>         <extensions>           <ns3:TrackPointExtension>             <ns3:hr>114</ns3:hr>           </ns3:TrackPointExtension>         </extensions>       </trkpt>
       <trkpt lat="45.5866153724491596221923828125" lon="14.4363008625805377960205078125">         <ele>1579.4000244140625</ele>         <time>2026-02-28T12:17:48.000Z</time>         <extensions>           <ns3:TrackPointExtension>             <ns3:hr>113</ns3:hr>           </ns3:TrackPointExtension>         </extensions>       </trkpt>
       <trkpt lat="45.58658511377871036529541015625" lon="14.4363353960216045379638671875">         <ele>1579</ele>         <time>2026-02-28T12:17:51.000Z</time>         <extensions>           <ns3:TrackPointExtension>             <ns3:hr>112</ns3:hr>           </ns3:TrackPointExtension>         </extensions>       </trkpt>
       <trkpt lat="45.58657287620007991790771484375" lon="14.43633363582193851470947265625">         <ele>1579</ele>         <time>2026-02-28T12:17:52.000Z</time>         <extensions>           <ns3:TrackPointExtension>             <ns3:hr>112</ns3:hr>           </ns3:TrackPointExtension>         </extensions>       </trkpt>
       <trkpt lat="45.58652509935200214385986328125" lon="14.43631368689239025115966796875">         <ele>1578.5999755859375</ele>         <time>2026-02-28T12:17:54.000Z</time>         <extensions>           <ns3:TrackPointExtension>             <ns3:hr>111</ns3:hr>           </ns3:TrackPointExtension>         </extensions>       </trkpt>
       <trkpt lat="45.586520321667194366455078125" lon="14.43627881817519664764404296875">         <ele>1577.800048828125</ele>         <time>2026-02-28T12:17:55.000Z</time>         <extensions>           <ns3:TrackPointExtension>             <ns3:hr>111</ns3:hr>           </ns3:TrackPointExtension>         </extensions>       </trkpt>
       <trkpt lat="45.58653599582612514495849609375" lon="14.43623162806034088134765625">         <ele>1576</ele>         <time>2026-02-28T12:17:57.000Z</time>         <extensions>           <ns3:TrackPointExtension>             <ns3:hr>110</ns3:hr>           </ns3:TrackPointExtension>         </extensions>       </trkpt>
       <trkpt lat="45.58654236607253551483154296875" lon="14.436220228672027587890625">         <ele>1575.199951171875</ele>         <time>2026-02-28T12:17:58.000Z</time>         <extensions>           <ns3:TrackPointExtension>             <ns3:hr>110</ns3:hr>           </ns3:TrackPointExtension>         </extensions>       </trkpt>
       <trkpt lat="45.58654404245316982269287109375" lon="14.43621687591075897216796875">         <ele>1575</ele>         <time>2026-02-28T12:17:59.000Z</time>         <extensions>           <ns3:TrackPointExtension>             <ns3:hr>110</ns3:hr>           </ns3:TrackPointExtension>         </extensions>       </trkpt>
       <trkpt lat="45.5865419469773769378662109375" lon="14.436216540634632110595703125">         <ele>1575.5999755859375</ele>         <time>2026-02-28T12:18:04.000Z</time>         <extensions>           <ns3:TrackPointExtension>             <ns3:hr>112</ns3:hr>           </ns3:TrackPointExtension>         </extensions>       </trkpt>
       <trkpt lat="45.58651856146752834320068359375" lon="14.4362462125718593597412109375">         <ele>1575.5999755859375</ele>         <time>2026-02-28T12:18:10.000Z</time>         <extensions>           <ns3:TrackPointExtension>             <ns3:hr>113</ns3:hr>           </ns3:TrackPointExtension>         </extensions>       </trkpt>
       <trkpt lat="45.586508922278881072998046875" lon="14.4362539239227771759033203125">         <ele>1575.4000244140625</ele>         <time>2026-02-28T12:18:18.000Z</time>         <extensions>           <ns3:TrackPointExtension>             <ns3:hr>111</ns3:hr>           </ns3:TrackPointExtension>         </extensions>       </trkpt>
       <trkpt lat="45.58649785816669464111328125" lon="14.43626649677753448486328125">         <ele>1575.4000244140625</ele>         <time>2026-02-28T12:18:41.000Z</time>         <extensions>           <ns3:TrackPointExtension>             <ns3:hr>111</ns3:hr>           </ns3:TrackPointExtension>         </extensions>       </trkpt>
       <trkpt lat="45.5864437110722064971923828125" lon="14.43626641295850276947021484375">         <ele>1574.4000244140625</ele>         <time>2026-02-28T12:18:46.000Z</time>         <extensions>           <ns3:TrackPointExtension>             <ns3:hr>111</ns3:hr>           </ns3:TrackPointExtension>         </extensions>       </trkpt>
       <trkpt lat="45.58638595975935459136962890625" lon="14.43624679930508136749267578125">         <ele>1573.800048828125</ele>         <time>2026-02-28T12:18:48.000Z</time>         <extensions>           <ns3:TrackPointExtension>             <ns3:hr>114</ns3:hr>           </ns3:TrackPointExtension>         </extensions>       </trkpt>
       <trkpt lat="45.5863344110548496246337890625" lon="14.43626406602561473846435546875">         <ele>1572.800048828125</ele>         <time>2026-02-28T12:18:50.000Z</time>         <extensions>           <ns3:TrackPointExtension>             <ns3:hr>116</ns3:hr>           </ns3:TrackPointExtension>         </extensions>       </trkpt>
       <trkpt lat="45.5863027274608612060546875" lon="14.43628284148871898651123046875">         <ele>1571.5999755859375</ele>         <time>2026-02-28T12:18:52.000Z</time>         <extensions>           <ns3:TrackPointExtension>             <ns3:hr>116</ns3:hr>           </ns3:TrackPointExtension>         </extensions>       </trkpt>
       <trkpt lat="45.58629660867154598236083984375" lon="14.436282925307750701904296875">         <ele>1571.4000244140625</ele>         <time>2026-02-28T12:18:53.000Z</time>         <extensions>           <ns3:TrackPointExtension>             <ns3:hr>116</ns3:hr>           </ns3:TrackPointExtension>         </extensions>       </trkpt>
       <trkpt lat="45.58624430559575557708740234375" lon="14.436305724084377288818359375">         <ele>1571.4000244140625</ele>         <time>2026-02-28T12:18:59.000Z</time>         <extensions>           <ns3:TrackPointExtension>             <ns3:hr>114</ns3:hr>           </ns3:TrackPointExtension>         </extensions>       </trkpt>
       <trkpt lat="45.586210526525974273681640625" lon="14.436341933906078338623046875">         <ele>1571.4000244140625</ele>         <time>2026-02-28T12:19:04.000Z</time>         <extensions>           <ns3:TrackPointExtension>             <ns3:hr>116</ns3:hr>           </ns3:TrackPointExtension>         </extensions>       </trkpt>
       <trkpt lat="45.58611187152564525604248046875" lon="14.436342604458332061767578125">         <ele>1570</ele>         <time>2026-02-28T12:19:07.000Z</time>         <extensions>           <ns3:TrackPointExtension>             <ns3:hr>115</ns3:hr>           </ns3:TrackPointExtension>         </extensions>       </trkpt>
       <trkpt lat="45.586038865149021148681640625" lon="14.436275549232959747314453125">         <ele>1568.199951171875</ele>         <time>2026-02-28T12:19:09.000Z</time>         <extensions>           <ns3:TrackPointExtension>             <ns3:hr>115</ns3:hr>           </ns3:TrackPointExtension>         </extensions>       </trkpt>
       <trkpt lat="45.586022436618804931640625" lon="14.43625249899923801422119140625">         <ele>1566.5999755859375</ele>         <time>2026-02-28T12:19:10.000Z</time>         <extensions>           <ns3:TrackPointExtension>             <ns3:hr>115</ns3:hr>           </ns3:TrackPointExtension>         </extensions>       </trkpt>
       <trkpt lat="45.58600961230695247650146484375" lon="14.4362348131835460662841796875">         <ele>1565.5999755859375</ele>         <time>2026-02-28T12:19:11.000Z</time>         <extensions>           <ns3:TrackPointExtension>             <ns3:hr>115</ns3:hr>           </ns3:TrackPointExtension>         </extensions>       </trkpt>
       <trkpt lat="45.58601078577339649200439453125" lon="14.43622567690908908843994140625">         <ele>1565.800048828125</ele>         <time>2026-02-28T12:19:15.000Z</time>         <extensions>           <ns3:TrackPointExtension>             <ns3:hr>115</ns3:hr>           </ns3:TrackPointExtension>         </extensions>       </trkpt>
       <trkpt lat="45.58601078577339649200439453125" lon="14.43622567690908908843994140625">         <ele>1565.5999755859375</ele>         <time>2026-02-28T12:19:19.000Z</time>         <extensions>           <ns3:TrackPointExtension>             <ns3:hr>112</ns3:hr>           </ns3:TrackPointExtension>         </extensions>       </trkpt>
       <trkpt lat="45.58601078577339649200439453125" lon="14.43622567690908908843994140625">         <ele>1565.4000244140625</ele>         <time>2026-02-28T12:19:23.000Z</time>         <extensions>           <ns3:TrackPointExtension>             <ns3:hr>112</ns3:hr>           </ns3:TrackPointExtension>         </extensions>       </trkpt>
       <trkpt lat="45.58601078577339649200439453125" lon="14.43622567690908908843994140625">         <ele>1565.5999755859375</ele>         <time>2026-02-28T12:19:33.000Z</time>         <extensions>           <ns3:TrackPointExtension>             <ns3:hr>113</ns3:hr>           </ns3:TrackPointExtension>         </extensions>       </trkpt>
       <trkpt lat="45.58601078577339649200439453125" lon="14.43622567690908908843994140625">         <ele>1565.199951171875</ele>         <time>2026-02-28T12:19:40.000Z</time>         <extensions>           <ns3:TrackPointExtension>             <ns3:hr>116</ns3:hr>           </ns3:TrackPointExtension>         </extensions>       </trkpt>
       <trkpt lat="45.58600776828825473785400390625" lon="14.4361962564289569854736328125">         <ele>1565.4000244140625</ele>         <time>2026-02-28T12:19:43.000Z</time>         <extensions>           <ns3:TrackPointExtension>             <ns3:hr>116</ns3:hr>           </ns3:TrackPointExtension>         </extensions>       </trkpt>
       <trkpt lat="45.5860051698982715606689453125" lon="14.43618225865066051483154296875">         <ele>1565.199951171875</ele>         <time>2026-02-28T12:19:51.000Z</time>         <extensions>           <ns3:TrackPointExtension>             <ns3:hr>116</ns3:hr>           </ns3:TrackPointExtension>         </extensions>       </trkpt>
       <trkpt lat="45.5860051698982715606689453125" lon="14.43618225865066051483154296875">         <ele>1565</ele>         <time>2026-02-28T12:19:54.000Z</time>         <extensions>           <ns3:TrackPointExtension>             <ns3:hr>111</ns3:hr>           </ns3:TrackPointExtension>         </extensions>       </trkpt>
       <trkpt lat="45.5860051698982715606689453125" lon="14.43618225865066051483154296875">         <ele>1565.4000244140625</ele>         <time>2026-02-28T12:19:59.000Z</time>         <extensions>           <ns3:TrackPointExtension>             <ns3:hr>108</ns3:hr>           </ns3:TrackPointExtension>         </extensions>       </trkpt>
       <trkpt lat="45.5859770067036151885986328125" lon="14.43613146431744098663330078125">         <ele>1565.199951171875</ele>         <time>2026-02-28T12:20:03.000Z</time>         <extensions>           <ns3:TrackPointExtension>             <ns3:hr>107</ns3:hr>           </ns3:TrackPointExtension>         </extensions>       </trkpt>
       <trkpt lat="45.585957728326320648193359375" lon="14.43602182902395725250244140625">         <ele>1564.5999755859375</ele>         <time>2026-02-28T12:20:08.000Z</time>         <extensions>           <ns3:TrackPointExtension>             <ns3:hr>107</ns3:hr>           </ns3:TrackPointExtension>         </extensions>       </trkpt>
       <trkpt lat="45.58596401475369930267333984375" lon="14.435994587838649749755859375">         <ele>1564.4000244140625</ele>         <time>2026-02-28T12:20:09.000Z</time>         <extensions>           <ns3:TrackPointExtension>             <ns3:hr>107</ns3:hr>           </ns3:TrackPointExtension>         </extensions>       </trkpt>
       <trkpt lat="45.58598731644451618194580078125" lon="14.43590817041695117950439453125">         <ele>1563.4000244140625</ele>         <time>2026-02-28T12:20:13.000Z</time>         <extensions>           <ns3:TrackPointExtension>             <ns3:hr>109</ns3:hr>           </ns3:TrackPointExtension>         </extensions>       </trkpt>
       <trkpt lat="45.585979521274566650390625" lon="14.43589358590543270111083984375">         <ele>1563.199951171875</ele>         <time>2026-02-28T12:20:14.000Z</time>         <extensions>           <ns3:TrackPointExtension>             <ns3:hr>108</ns3:hr>           </ns3:TrackPointExtension>         </extensions>       </trkpt>
       <trkpt lat="45.58599720709025859832763671875" lon="14.43584698252379894256591796875">         <ele>1562.199951171875</ele>         <time>2026-02-28T12:20:16.000Z</time>         <extensions>           <ns3:TrackPointExtension>             <ns3:hr>107</ns3:hr>           </ns3:TrackPointExtension>         </extensions>       </trkpt>
       <trkpt lat="45.5860024876892566680908203125" lon="14.43582166917622089385986328125">         <ele>1561.5999755859375</ele>         <time>2026-02-28T12:20:17.000Z</time>         <extensions>           <ns3:TrackPointExtension>             <ns3:hr>107</ns3:hr>           </ns3:TrackPointExtension>         </extensions>       </trkpt>
       <trkpt lat="45.58599871583282947540283203125" lon="14.43579551763832569122314453125">         <ele>1561.199951171875</ele>         <time>2026-02-28T12:20:18.000Z</time>         <extensions>           <ns3:TrackPointExtension>             <ns3:hr>107</ns3:hr>           </ns3:TrackPointExtension>         </extensions>       </trkpt>
       <trkpt lat="45.5859969556331634521484375" lon="14.435768611729145050048828125">         <ele>1560.800048828125</ele>         <time>2026-02-28T12:20:19.000Z</time>         <extensions>           <ns3:TrackPointExtension>             <ns3:hr>106</ns3:hr>           </ns3:TrackPointExtension>         </extensions>       </trkpt>
       <trkpt lat="45.58598848991096019744873046875" lon="14.43563827313482761383056640625">         <ele>1560.199951171875</ele>         <time>2026-02-28T12:20:22.000Z</time>         <extensions>           <ns3:TrackPointExtension>             <ns3:hr>105</ns3:hr>           </ns3:TrackPointExtension>         </extensions>       </trkpt>
       <trkpt lat="45.58598094619810581207275390625" lon="14.43557004444301128387451171875">         <ele>1559.800048828125</ele>         <time>2026-02-28T12:20:23.000Z</time>         <extensions>           <ns3:TrackPointExtension>             <ns3:hr>105</ns3:hr>           </ns3:TrackPointExtension>         </extensions>       </trkpt>
       <trkpt lat="45.58595647104084491729736328125" lon="14.43540106527507305145263671875">         <ele>1558.5999755859375</ele>         <time>2026-02-28T12:20:25.000Z</time>         <extensions>           <ns3:TrackPointExtension>             <ns3:hr>105</ns3:hr>           </ns3:TrackPointExtension>         </extensions>       </trkpt>
       <trkpt lat="45.5859371088445186614990234375" lon="14.43533149547874927520751953125">         <ele>1557.4000244140625</ele>         <time>2026-02-28T12:20:26.000Z</time>         <extensions>           <ns3:TrackPointExtension>             <ns3:hr>105</ns3:hr>           </ns3:TrackPointExtension>         </extensions>       </trkpt>
       <trkpt lat="45.5859213508665561676025390625" lon="14.43529394455254077911376953125">         <ele>1555.800048828125</ele>         <time>2026-02-28T12:20:27.000Z</time>         <extensions>           <ns3:TrackPointExtension>             <ns3:hr>104</ns3:hr>           </ns3:TrackPointExtension>         </extensions>       </trkpt>
       <trkpt lat="45.5859022401273250579833984375" lon="14.4352702237665653228759765625">         <ele>1554.5999755859375</ele>         <time>2026-02-28T12:20:28.000Z</time>         <extensions>           <ns3:TrackPointExtension>             <ns3:hr>104</ns3:hr>           </ns3:TrackPointExtension>         </extensions>       </trkpt>
       <trkpt lat="45.585867203772068023681640625" lon="14.4352085329592227935791015625">         <ele>1553.4000244140625</ele>         <time>2026-02-28T12:20:30.000Z</time>         <extensions>           <ns3:TrackPointExtension>             <ns3:hr>104</ns3:hr>           </ns3:TrackPointExtension>         </extensions>       </trkpt>
       <trkpt lat="45.58581682853400707244873046875" lon="14.43515111692249774932861328125">         <ele>1552.199951171875</ele>         <time>2026-02-28T12:20:32.000Z</time>         <extensions>           <ns3:TrackPointExtension>             <ns3:hr>103</ns3:hr>           </ns3:TrackPointExtension>         </extensions>       </trkpt>
       <trkpt lat="45.58579201810061931610107421875" lon="14.43516075611114501953125">         <ele>1551.4000244140625</ele>         <time>2026-02-28T12:20:35.000Z</time>         <extensions>           <ns3:TrackPointExtension>             <ns3:hr>102</ns3:hr>           </ns3:TrackPointExtension>         </extensions>       </trkpt>
       <trkpt lat="45.58578967116773128509521484375" lon="14.435161761939525604248046875">         <ele>1551.199951171875</ele>         <time>2026-02-28T12:20:36.000Z</time>         <extensions>           <ns3:TrackPointExtension>             <ns3:hr>102</ns3:hr>           </ns3:TrackPointExtension>         </extensions>       </trkpt>
       <trkpt lat="45.58579604141414165496826171875" lon="14.43516151048243045806884765625">         <ele>1551.4000244140625</ele>         <time>2026-02-28T12:20:42.000Z</time>         <extensions>           <ns3:TrackPointExtension>             <ns3:hr>103</ns3:hr>           </ns3:TrackPointExtension>         </extensions>       </trkpt>
       <trkpt lat="45.585719682276248931884765625" lon="14.435078613460063934326171875">         <ele>1551</ele>         <time>2026-02-28T12:20:46.000Z</time>         <extensions>           <ns3:TrackPointExtension>             <ns3:hr>100</ns3:hr>           </ns3:TrackPointExtension>         </extensions>       </trkpt>
       <trkpt lat="45.58565757237374782562255859375" lon="14.4350462593138217926025390625">         <ele>1549.800048828125</ele>         <time>2026-02-28T12:20:48.000Z</time>         <extensions>           <ns3:TrackPointExtension>             <ns3:hr>98</ns3:hr>           </ns3:TrackPointExtension>         </extensions>       </trkpt>
       <trkpt lat="45.5856095440685749053955078125" lon="14.43502136506140232086181640625">         <ele>1548.4000244140625</ele>         <time>2026-02-28T12:20:50.000Z</time>         <extensions>           <ns3:TrackPointExtension>             <ns3:hr>95</ns3:hr>           </ns3:TrackPointExtension>         </extensions>       </trkpt>
       <trkpt lat="45.585591606795787811279296875" lon="14.4350191019475460052490234375">         <ele>1548.199951171875</ele>         <time>2026-02-28T12:20:51.000Z</time>         <extensions>           <ns3:TrackPointExtension>             <ns3:hr>94</ns3:hr>           </ns3:TrackPointExtension>         </extensions>       </trkpt>
       <trkpt lat="45.5855418182909488677978515625" lon="14.43499621935188770294189453125">         <ele>1547.4000244140625</ele>         <time>2026-02-28T12:20:53.000Z</time>         <extensions>           <ns3:TrackPointExtension>             <ns3:hr>93</ns3:hr>           </ns3:TrackPointExtension>         </extensions>       </trkpt>
       <trkpt lat="45.5854792892932891845703125" lon="14.4349651224911212921142578125">         <ele>1546.4000244140625</ele>         <time>2026-02-28T12:20:55.000Z</time>         <extensions>           <ns3:TrackPointExtension>             <ns3:hr>97</ns3:hr>           </ns3:TrackPointExtension>         </extensions>       </trkpt>
       <trkpt lat="45.58544735424220561981201171875" lon="14.4349557347595691680908203125">         <ele>1546</ele>         <time>2026-02-28T12:20:56.000Z</time>         <extensions>           <ns3:TrackPointExtension>             <ns3:hr>99</ns3:hr>           </ns3:TrackPointExtension>         </extensions>       </trkpt>
       <trkpt lat="45.58537669479846954345703125" lon="14.43491424433887004852294921875">         <ele>1544.800048828125</ele>         <time>2026-02-28T12:20:58.000Z</time>         <extensions>           <ns3:TrackPointExtension>             <ns3:hr>100</ns3:hr>           </ns3:TrackPointExtension>         </extensions>       </trkpt>
       <trkpt lat="45.58530150912702083587646484375" lon="14.43486236035823822021484375">         <ele>1543.5999755859375</ele>         <time>2026-02-28T12:21:00.000Z</time>         <extensions>           <ns3:TrackPointExtension>             <ns3:hr>101</ns3:hr>           </ns3:TrackPointExtension>         </extensions>       </trkpt>
       <trkpt lat="45.5852300114929676055908203125" lon="14.43481986410915851593017578125">         <ele>1541.800048828125</ele>         <time>2026-02-28T12:21:02.000Z</time>         <extensions>           <ns3:TrackPointExtension>             <ns3:hr>102</ns3:hr>           </ns3:TrackPointExtension>         </extensions>       </trkpt>
       <trkpt lat="45.585149042308330535888671875" lon="14.434743337333202362060546875">         <ele>1539.800048828125</ele>         <time>2026-02-28T12:21:04.000Z</time>         <extensions>           <ns3:TrackPointExtension>             <ns3:hr>105</ns3:hr>           </ns3:TrackPointExtension>         </extensions>       </trkpt>
       <trkpt lat="45.5850975774228572845458984375" lon="14.4346980750560760498046875">         <ele>1538.800048828125</ele>         <time>2026-02-28T12:21:05.000Z</time>         <extensions>           <ns3:TrackPointExtension>             <ns3:hr>106</ns3:hr>           </ns3:TrackPointExtension>         </extensions>       </trkpt>
       <trkpt lat="45.5850466154515743255615234375" lon="14.43464837037026882171630859375">         <ele>1538</ele>         <time>2026-02-28T12:21:06.000Z</time>         <extensions>           <ns3:TrackPointExtension>             <ns3:hr>107</ns3:hr>           </ns3:TrackPointExtension>         </extensions>       </trkpt>
       <trkpt lat="45.5849946476519107818603515625" lon="14.4346047006547451019287109375">         <ele>1537</ele>         <time>2026-02-28T12:21:07.000Z</time>         <extensions>           <ns3:TrackPointExtension>             <ns3:hr>107</ns3:hr>           </ns3:TrackPointExtension>         </extensions>       </trkpt>
       <trkpt lat="45.58496455661952495574951171875" lon="14.434581734240055084228515625">         <ele>1536</ele>         <time>2026-02-28T12:21:08.000Z</time>         <extensions>           <ns3:TrackPointExtension>             <ns3:hr>107</ns3:hr>           </ns3:TrackPointExtension>         </extensions>       </trkpt>
       <trkpt lat="45.58494997210800647735595703125" lon="14.43457226268947124481201171875">         <ele>1535</ele>         <time>2026-02-28T12:21:09.000Z</time>         <extensions>           <ns3:TrackPointExtension>             <ns3:hr>108</ns3:hr>           </ns3:TrackPointExtension>         </extensions>       </trkpt>
       <trkpt lat="45.58494360186159610748291015625" lon="14.4345653057098388671875">         <ele>1534.5999755859375</ele>         <time>2026-02-28T12:21:10.000Z</time>         <extensions>           <ns3:TrackPointExtension>             <ns3:hr>109</ns3:hr>           </ns3:TrackPointExtension>         </extensions>       </trkpt>
       <trkpt lat="45.584941171109676361083984375" lon="14.43456589244306087493896484375">         <ele>1533.5999755859375</ele>         <time>2026-02-28T12:21:12.000Z</time>         <extensions>           <ns3:TrackPointExtension>             <ns3:hr>110</ns3:hr>           </ns3:TrackPointExtension>         </extensions>       </trkpt>
       <trkpt lat="45.5849359743297100067138671875" lon="14.4345500506460666656494140625">         <ele>1533.4000244140625</ele>         <time>2026-02-28T12:21:14.000Z</time>         <extensions>           <ns3:TrackPointExtension>             <ns3:hr>110</ns3:hr>           </ns3:TrackPointExtension>         </extensions>       </trkpt>
       <trkpt lat="45.584928430616855621337890625" lon="14.4345208816230297088623046875">         <ele>1532.5999755859375</ele>         <time>2026-02-28T12:21:18.000Z</time>         <extensions>           <ns3:TrackPointExtension>             <ns3:hr>107</ns3:hr>           </ns3:TrackPointExtension>         </extensions>       </trkpt>
       <trkpt lat="45.584924407303333282470703125" lon="14.43451476283371448516845703125">         <ele>1532.5999755859375</ele>         <time>2026-02-28T12:21:19.000Z</time>         <extensions>           <ns3:TrackPointExtension>             <ns3:hr>105</ns3:hr>           </ns3:TrackPointExtension>         </extensions>       </trkpt>
       <trkpt lat="45.58492164127528667449951171875" lon="14.43451141007244586944580078125">         <ele>1532.4000244140625</ele>         <time>2026-02-28T12:21:21.000Z</time>         <extensions>           <ns3:TrackPointExtension>             <ns3:hr>102</ns3:hr>           </ns3:TrackPointExtension>         </extensions>       </trkpt>
       <trkpt lat="45.58492432348430156707763671875" lon="14.43451358936727046966552734375">         <ele>1532.5999755859375</ele>         <time>2026-02-28T12:21:25.000Z</time>         <extensions>           <ns3:TrackPointExtension>             <ns3:hr>105</ns3:hr>           </ns3:TrackPointExtension>         </extensions>       </trkpt>
       <trkpt lat="45.58492432348430156707763671875" lon="14.43451358936727046966552734375">         <ele>1532.800048828125</ele>         <time>2026-02-28T12:21:31.000Z</time>         <extensions>           <ns3:TrackPointExtension>             <ns3:hr>104</ns3:hr>           </ns3:TrackPointExtension>         </extensions>       </trkpt>
       <trkpt lat="45.5849052965641021728515625" lon="14.43449514918029308319091796875">         <ele>1532.5999755859375</ele>         <time>2026-02-28T12:21:37.000Z</time>         <extensions>           <ns3:TrackPointExtension>             <ns3:hr>108</ns3:hr>           </ns3:TrackPointExtension>         </extensions>       </trkpt>
       <trkpt lat="45.58490755967795848846435546875" lon="14.4344987533986568450927734375">         <ele>1532.5999755859375</ele>         <time>2026-02-28T12:21:38.000Z</time>         <extensions>           <ns3:TrackPointExtension>             <ns3:hr>109</ns3:hr>           </ns3:TrackPointExtension>         </extensions>       </trkpt>
       <trkpt lat="45.5849054642021656036376953125" lon="14.434499926865100860595703125">         <ele>1532.5999755859375</ele>         <time>2026-02-28T12:21:40.000Z</time>         <extensions>           <ns3:TrackPointExtension>             <ns3:hr>112</ns3:hr>           </ns3:TrackPointExtension>         </extensions>       </trkpt>
       <trkpt lat="45.5849047936499118804931640625" lon="14.4344980828464031219482421875">         <ele>1532.5999755859375</ele>         <time>2026-02-28T12:21:45.000Z</time>         <extensions>           <ns3:TrackPointExtension>             <ns3:hr>112</ns3:hr>           </ns3:TrackPointExtension>         </extensions>       </trkpt>
       <trkpt lat="45.58492432348430156707763671875" lon="14.43451358936727046966552734375">         <ele>1532.5999755859375</ele>         <time>2026-02-28T12:21:49.000Z</time>         <extensions>           <ns3:TrackPointExtension>             <ns3:hr>109</ns3:hr>           </ns3:TrackPointExtension>         </extensions>       </trkpt>
       <trkpt lat="45.58492432348430156707763671875" lon="14.43451358936727046966552734375">         <ele>1532.5999755859375</ele>         <time>2026-02-28T12:21:51.000Z</time>         <extensions>           <ns3:TrackPointExtension>             <ns3:hr>106</ns3:hr>           </ns3:TrackPointExtension>         </extensions>       </trkpt>
       <trkpt lat="45.584899596869945526123046875" lon="14.434503614902496337890625">         <ele>1532.5999755859375</ele>         <time>2026-02-28T12:21:56.000Z</time>         <extensions>           <ns3:TrackPointExtension>             <ns3:hr>109</ns3:hr>           </ns3:TrackPointExtension>         </extensions>       </trkpt>
       <trkpt lat="45.58488878421485424041748046875" lon="14.4345007650554180145263671875">         <ele>1532.5999755859375</ele>         <time>2026-02-28T12:21:57.000Z</time>         <extensions>           <ns3:TrackPointExtension>             <ns3:hr>110</ns3:hr>           </ns3:TrackPointExtension>         </extensions>       </trkpt>
       <trkpt lat="45.58478769846260547637939453125" lon="14.4344508089125156402587890625">         <ele>1531.199951171875</ele>         <time>2026-02-28T12:22:02.000Z</time>         <extensions>           <ns3:TrackPointExtension>             <ns3:hr>111</ns3:hr>           </ns3:TrackPointExtension>         </extensions>       </trkpt>
       <trkpt lat="45.584762804210186004638671875" lon="14.43443999625742435455322265625">         <ele>1530.800048828125</ele>         <time>2026-02-28T12:22:03.000Z</time>         <extensions>           <ns3:TrackPointExtension>             <ns3:hr>111</ns3:hr>           </ns3:TrackPointExtension>         </extensions>       </trkpt>
       <trkpt lat="45.58471812866628170013427734375" lon="14.43442340008914470672607421875">         <ele>1530</ele>         <time>2026-02-28T12:22:06.000Z</time>         <extensions>           <ns3:TrackPointExtension>             <ns3:hr>111</ns3:hr>           </ns3:TrackPointExtension>         </extensions>       </trkpt>
       <trkpt lat="45.58464403264224529266357421875" lon="14.43439154885709285736083984375">         <ele>1528.800048828125</ele>         <time>2026-02-28T12:22:10.000Z</time>         <extensions>           <ns3:TrackPointExtension>             <ns3:hr>109</ns3:hr>           </ns3:TrackPointExtension>         </extensions>       </trkpt>
       <trkpt lat="45.58459457941353321075439453125" lon="14.4343763776123523712158203125">         <ele>1527.800048828125</ele>         <time>2026-02-28T12:22:13.000Z</time>         <extensions>           <ns3:TrackPointExtension>             <ns3:hr>107</ns3:hr>           </ns3:TrackPointExtension>         </extensions>       </trkpt>
       <trkpt lat="45.58455753140151500701904296875" lon="14.4343612901866436004638671875">         <ele>1527.4000244140625</ele>         <time>2026-02-28T12:22:15.000Z</time>         <extensions>           <ns3:TrackPointExtension>             <ns3:hr>104</ns3:hr>           </ns3:TrackPointExtension>         </extensions>       </trkpt>
       <trkpt lat="45.58453724719583988189697265625" lon="14.4343629665672779083251953125">         <ele>1527</ele>         <time>2026-02-28T12:22:16.000Z</time>         <extensions>           <ns3:TrackPointExtension>             <ns3:hr>105</ns3:hr>           </ns3:TrackPointExtension>         </extensions>       </trkpt>
       <trkpt lat="45.58451461605727672576904296875" lon="14.43435735069215297698974609375">         <ele>1526.800048828125</ele>         <time>2026-02-28T12:22:17.000Z</time>         <extensions>           <ns3:TrackPointExtension>             <ns3:hr>104</ns3:hr>           </ns3:TrackPointExtension>         </extensions>       </trkpt>
       <trkpt lat="45.58444638736546039581298828125" lon="14.4343307800590991973876953125">         <ele>1525.199951171875</ele>         <time>2026-02-28T12:22:20.000Z</time>         <extensions>           <ns3:TrackPointExtension>             <ns3:hr>104</ns3:hr>           </ns3:TrackPointExtension>         </extensions>       </trkpt>
       <trkpt lat="45.5844213254749774932861328125" lon="14.4343177042901515960693359375">         <ele>1524.5999755859375</ele>         <time>2026-02-28T12:22:21.000Z</time>         <extensions>           <ns3:TrackPointExtension>             <ns3:hr>104</ns3:hr>           </ns3:TrackPointExtension>         </extensions>       </trkpt>
       <trkpt lat="45.58439089916646480560302734375" lon="14.4343032874166965484619140625">         <ele>1524</ele>         <time>2026-02-28T12:22:22.000Z</time>         <extensions>           <ns3:TrackPointExtension>             <ns3:hr>104</ns3:hr>           </ns3:TrackPointExtension>         </extensions>       </trkpt>
       <trkpt lat="45.58436013758182525634765625" lon="14.434291385114192962646484375">         <ele>1523</ele>         <time>2026-02-28T12:22:24.000Z</time>         <extensions>           <ns3:TrackPointExtension>             <ns3:hr>103</ns3:hr>           </ns3:TrackPointExtension>         </extensions>       </trkpt>
       <trkpt lat="45.58434563688933849334716796875" lon="14.4342938996851444244384765625">         <ele>1522.5999755859375</ele>         <time>2026-02-28T12:22:25.000Z</time>         <extensions>           <ns3:TrackPointExtension>             <ns3:hr>104</ns3:hr>           </ns3:TrackPointExtension>         </extensions>       </trkpt>
       <trkpt lat="45.58430490083992481231689453125" lon="14.4342771358788013458251953125">         <ele>1522</ele>         <time>2026-02-28T12:22:28.000Z</time>         <extensions>           <ns3:TrackPointExtension>             <ns3:hr>104</ns3:hr>           </ns3:TrackPointExtension>         </extensions>       </trkpt>
       <trkpt lat="45.58429333381354808807373046875" lon="14.434275291860103607177734375">         <ele>1520.800048828125</ele>         <time>2026-02-28T12:22:31.000Z</time>         <extensions>           <ns3:TrackPointExtension>             <ns3:hr>107</ns3:hr>           </ns3:TrackPointExtension>         </extensions>       </trkpt>
       <trkpt lat="45.58429366908967494964599609375" lon="14.434268586337566375732421875">         <ele>1520.5999755859375</ele>         <time>2026-02-28T12:22:33.000Z</time>         <extensions>           <ns3:TrackPointExtension>             <ns3:hr>110</ns3:hr>           </ns3:TrackPointExtension>         </extensions>       </trkpt>
       <trkpt lat="45.5842660926282405853271484375" lon="14.4342325441539287567138671875">         <ele>1520.5999755859375</ele>         <time>2026-02-28T12:22:41.000Z</time>         <extensions>           <ns3:TrackPointExtension>             <ns3:hr>112</ns3:hr>           </ns3:TrackPointExtension>         </extensions>       </trkpt>
       <trkpt lat="45.58423340320587158203125" lon="14.43422357551753520965576171875">         <ele>1520.199951171875</ele>         <time>2026-02-28T12:22:43.000Z</time>         <extensions>           <ns3:TrackPointExtension>             <ns3:hr>108</ns3:hr>           </ns3:TrackPointExtension>         </extensions>       </trkpt>
       <trkpt lat="45.5842305533587932586669921875" lon="14.43422265350818634033203125">         <ele>1519.800048828125</ele>         <time>2026-02-28T12:22:44.000Z</time>         <extensions>           <ns3:TrackPointExtension>             <ns3:hr>104</ns3:hr>           </ns3:TrackPointExtension>         </extensions>       </trkpt>
       <trkpt lat="45.584197528660297393798828125" lon="14.4342181272804737091064453125">         <ele>1518.800048828125</ele>         <time>2026-02-28T12:22:46.000Z</time>         <extensions>           <ns3:TrackPointExtension>             <ns3:hr>102</ns3:hr>           </ns3:TrackPointExtension>         </extensions>       </trkpt>
       <trkpt lat="45.58416928164660930633544921875" lon="14.43421192467212677001953125">         <ele>1518.4000244140625</ele>         <time>2026-02-28T12:22:47.000Z</time>         <extensions>           <ns3:TrackPointExtension>             <ns3:hr>102</ns3:hr>           </ns3:TrackPointExtension>         </extensions>       </trkpt>
       <trkpt lat="45.5841113626956939697265625" lon="14.434203542768955230712890625">         <ele>1517.199951171875</ele>         <time>2026-02-28T12:22:49.000Z</time>         <extensions>           <ns3:TrackPointExtension>             <ns3:hr>99</ns3:hr>           </ns3:TrackPointExtension>         </extensions>       </trkpt>
       <trkpt lat="45.58407406322658061981201171875" lon="14.43419717252254486083984375">         <ele>1516</ele>         <time>2026-02-28T12:22:51.000Z</time>         <extensions>           <ns3:TrackPointExtension>             <ns3:hr>98</ns3:hr>           </ns3:TrackPointExtension>         </extensions>       </trkpt>
       <trkpt lat="45.58401471935212612152099609375" lon="14.4341685064136981964111328125">         <ele>1514.800048828125</ele>         <time>2026-02-28T12:22:53.000Z</time>         <extensions>           <ns3:TrackPointExtension>             <ns3:hr>99</ns3:hr>           </ns3:TrackPointExtension>         </extensions>       </trkpt>
       <trkpt lat="45.58393743820488452911376953125" lon="14.434125423431396484375">         <ele>1513</ele>         <time>2026-02-28T12:22:55.000Z</time>         <extensions>           <ns3:TrackPointExtension>             <ns3:hr>98</ns3:hr>           </ns3:TrackPointExtension>         </extensions>       </trkpt>
       <trkpt lat="45.58390608988702297210693359375" lon="14.4341081567108631134033203125">         <ele>1511.800048828125</ele>         <time>2026-02-28T12:22:56.000Z</time>         <extensions>           <ns3:TrackPointExtension>             <ns3:hr>98</ns3:hr>           </ns3:TrackPointExtension>         </extensions>       </trkpt>
       <trkpt lat="45.5838806927204132080078125" lon="14.43409365601837635040283203125">         <ele>1510.800048828125</ele>         <time>2026-02-28T12:22:57.000Z</time>         <extensions>           <ns3:TrackPointExtension>             <ns3:hr>97</ns3:hr>           </ns3:TrackPointExtension>         </extensions>       </trkpt>
       <trkpt lat="45.58384775184094905853271484375" lon="14.434084184467792510986328125">         <ele>1509.5999755859375</ele>         <time>2026-02-28T12:22:59.000Z</time>         <extensions>           <ns3:TrackPointExtension>             <ns3:hr>97</ns3:hr>           </ns3:TrackPointExtension>         </extensions>       </trkpt>
       <trkpt lat="45.58379544876515865325927734375" lon="14.4340612180531024932861328125">         <ele>1508.5999755859375</ele>         <time>2026-02-28T12:23:02.000Z</time>         <extensions>           <ns3:TrackPointExtension>             <ns3:hr>97</ns3:hr>           </ns3:TrackPointExtension>         </extensions>       </trkpt>
       <trkpt lat="45.58373023755848407745361328125" lon="14.43402743898332118988037109375">         <ele>1507.199951171875</ele>         <time>2026-02-28T12:23:05.000Z</time>         <extensions>           <ns3:TrackPointExtension>             <ns3:hr>96</ns3:hr>           </ns3:TrackPointExtension>         </extensions>       </trkpt>
       <trkpt lat="45.58367642574012279510498046875" lon="14.43400547839701175689697265625">         <ele>1506.199951171875</ele>         <time>2026-02-28T12:23:08.000Z</time>         <extensions>           <ns3:TrackPointExtension>             <ns3:hr>100</ns3:hr>           </ns3:TrackPointExtension>         </extensions>       </trkpt>
       <trkpt lat="45.5836401320993900299072265625" lon="14.433982931077480316162109375">         <ele>1505.5999755859375</ele>         <time>2026-02-28T12:23:10.000Z</time>         <extensions>           <ns3:TrackPointExtension>             <ns3:hr>104</ns3:hr>           </ns3:TrackPointExtension>         </extensions>       </trkpt>
       <trkpt lat="45.5836178362369537353515625" lon="14.433970861136913299560546875">         <ele>1505.199951171875</ele>         <time>2026-02-28T12:23:11.000Z</time>         <extensions>           <ns3:TrackPointExtension>             <ns3:hr>106</ns3:hr>           </ns3:TrackPointExtension>         </extensions>       </trkpt>
       <trkpt lat="45.58359746821224689483642578125" lon="14.43395619280636310577392578125">         <ele>1505</ele>         <time>2026-02-28T12:23:12.000Z</time>         <extensions>           <ns3:TrackPointExtension>             <ns3:hr>107</ns3:hr>           </ns3:TrackPointExtension>         </extensions>       </trkpt>
       <trkpt lat="45.58349017985165119171142578125" lon="14.4338754750788211822509765625">         <ele>1503.199951171875</ele>         <time>2026-02-28T12:23:16.000Z</time>         <extensions>           <ns3:TrackPointExtension>             <ns3:hr>108</ns3:hr>           </ns3:TrackPointExtension>         </extensions>       </trkpt>
       <trkpt lat="45.58341474272310733795166015625" lon="14.43380632437765598297119140625">         <ele>1501.5999755859375</ele>         <time>2026-02-28T12:23:19.000Z</time>         <extensions>           <ns3:TrackPointExtension>             <ns3:hr>107</ns3:hr>           </ns3:TrackPointExtension>         </extensions>       </trkpt>
       <trkpt lat="45.5833960510790348052978515625" lon="14.43379157222807407379150390625">         <ele>1501.4000244140625</ele>         <time>2026-02-28T12:23:20.000Z</time>         <extensions>           <ns3:TrackPointExtension>             <ns3:hr>107</ns3:hr>           </ns3:TrackPointExtension>         </extensions>       </trkpt>
       <trkpt lat="45.58335439302027225494384765625" lon="14.4337779097259044647216796875">         <ele>1500.5999755859375</ele>         <time>2026-02-28T12:23:24.000Z</time>         <extensions>           <ns3:TrackPointExtension>             <ns3:hr>108</ns3:hr>           </ns3:TrackPointExtension>         </extensions>       </trkpt>
       <trkpt lat="45.58334232307970523834228515625" lon="14.4337608106434345245361328125">         <ele>1500.5999755859375</ele>         <time>2026-02-28T12:23:25.000Z</time>         <extensions>           <ns3:TrackPointExtension>             <ns3:hr>108</ns3:hr>           </ns3:TrackPointExtension>         </extensions>       </trkpt>
       <trkpt lat="45.5832740105688571929931640625" lon="14.43368378095328807830810546875">         <ele>1499.5999755859375</ele>         <time>2026-02-28T12:23:29.000Z</time>         <extensions>           <ns3:TrackPointExtension>             <ns3:hr>107</ns3:hr>           </ns3:TrackPointExtension>         </extensions>       </trkpt>
       <trkpt lat="45.5832481943070888519287109375" lon="14.43365125916898250579833984375">         <ele>1498.800048828125</ele>         <time>2026-02-28T12:23:31.000Z</time>         <extensions>           <ns3:TrackPointExtension>             <ns3:hr>104</ns3:hr>           </ns3:TrackPointExtension>         </extensions>       </trkpt>
       <trkpt lat="45.58321491815149784088134765625" lon="14.4336171448230743408203125">         <ele>1498.4000244140625</ele>         <time>2026-02-28T12:23:33.000Z</time>         <extensions>           <ns3:TrackPointExtension>             <ns3:hr>104</ns3:hr>           </ns3:TrackPointExtension>         </extensions>       </trkpt>
       <trkpt lat="45.5831717513501644134521484375" lon="14.433584623038768768310546875">         <ele>1497.5999755859375</ele>         <time>2026-02-28T12:23:36.000Z</time>         <extensions>           <ns3:TrackPointExtension>             <ns3:hr>109</ns3:hr>           </ns3:TrackPointExtension>         </extensions>       </trkpt>
       <trkpt lat="45.5831569992005825042724609375" lon="14.43356978707015514373779296875">         <ele>1497.199951171875</ele>         <time>2026-02-28T12:23:37.000Z</time>         <extensions>           <ns3:TrackPointExtension>             <ns3:hr>110</ns3:hr>           </ns3:TrackPointExtension>         </extensions>       </trkpt>
       <trkpt lat="45.58306706137955188751220703125" lon="14.4334989599883556365966796875">         <ele>1496.199951171875</ele>         <time>2026-02-28T12:23:42.000Z</time>         <extensions>           <ns3:TrackPointExtension>             <ns3:hr>111</ns3:hr>           </ns3:TrackPointExtension>         </extensions>       </trkpt>
       <trkpt lat="45.5829873494803905487060546875" lon="14.43340323865413665771484375">         <ele>1495.199951171875</ele>         <time>2026-02-28T12:23:46.000Z</time>         <extensions>           <ns3:TrackPointExtension>             <ns3:hr>112</ns3:hr>           </ns3:TrackPointExtension>         </extensions>       </trkpt>
       <trkpt lat="45.582961030304431915283203125" lon="14.43337096832692623138427734375">         <ele>1494.800048828125</ele>         <time>2026-02-28T12:23:47.000Z</time>         <extensions>           <ns3:TrackPointExtension>             <ns3:hr>112</ns3:hr>           </ns3:TrackPointExtension>         </extensions>       </trkpt>
       <trkpt lat="45.5828770436346530914306640625" lon="14.43327558226883411407470703125">         <ele>1494</ele>         <time>2026-02-28T12:23:50.000Z</time>         <extensions>           <ns3:TrackPointExtension>             <ns3:hr>113</ns3:hr>           </ns3:TrackPointExtension>         </extensions>       </trkpt>
       <trkpt lat="45.58278056792914867401123046875" lon="14.433197714388370513916015625">         <ele>1492.800048828125</ele>         <time>2026-02-28T12:23:53.000Z</time>         <extensions>           <ns3:TrackPointExtension>             <ns3:hr>112</ns3:hr>           </ns3:TrackPointExtension>         </extensions>       </trkpt>
       <trkpt lat="45.582687444984912872314453125" lon="14.43313904106616973876953125">         <ele>1491.5999755859375</ele>         <time>2026-02-28T12:23:56.000Z</time>         <extensions>           <ns3:TrackPointExtension>             <ns3:hr>111</ns3:hr>           </ns3:TrackPointExtension>         </extensions>       </trkpt>
       <trkpt lat="45.58263413608074188232421875" lon="14.4331073574721813201904296875">         <ele>1491</ele>         <time>2026-02-28T12:23:58.000Z</time>         <extensions>           <ns3:TrackPointExtension>             <ns3:hr>111</ns3:hr>           </ns3:TrackPointExtension>         </extensions>       </trkpt>
       <trkpt lat="45.5826074816286563873291015625" lon="14.4330932758748531341552734375">         <ele>1490.5999755859375</ele>         <time>2026-02-28T12:23:59.000Z</time>         <extensions>           <ns3:TrackPointExtension>             <ns3:hr>110</ns3:hr>           </ns3:TrackPointExtension>         </extensions>       </trkpt>
       <trkpt lat="45.58249332010746002197265625" lon="14.43303016014397144317626953125">         <ele>1489.5999755859375</ele>         <time>2026-02-28T12:24:03.000Z</time>         <extensions>           <ns3:TrackPointExtension>             <ns3:hr>109</ns3:hr>           </ns3:TrackPointExtension>         </extensions>       </trkpt>
       <trkpt lat="45.5824683420360088348388671875" lon="14.4330185092985630035400390625">         <ele>1489.199951171875</ele>         <time>2026-02-28T12:24:04.000Z</time>         <extensions>           <ns3:TrackPointExtension>             <ns3:hr>108</ns3:hr>           </ns3:TrackPointExtension>         </extensions>       </trkpt>
       <trkpt lat="45.5824135243892669677734375" lon="14.43297333084046840667724609375">         <ele>1488.4000244140625</ele>         <time>2026-02-28T12:24:07.000Z</time>         <extensions>           <ns3:TrackPointExtension>             <ns3:hr>107</ns3:hr>           </ns3:TrackPointExtension>         </extensions>       </trkpt>
       <trkpt lat="45.58238209225237369537353515625" lon="14.43294583819806575775146484375">         <ele>1488.199951171875</ele>         <time>2026-02-28T12:24:09.000Z</time>         <extensions>           <ns3:TrackPointExtension>             <ns3:hr>107</ns3:hr>           </ns3:TrackPointExtension>         </extensions>       </trkpt>
       <trkpt lat="45.5823053978383541107177734375" lon="14.43287828005850315093994140625">         <ele>1487.4000244140625</ele>         <time>2026-02-28T12:24:14.000Z</time>         <extensions>           <ns3:TrackPointExtension>             <ns3:hr>107</ns3:hr>           </ns3:TrackPointExtension>         </extensions>       </trkpt>
       <trkpt lat="45.5822641588747501373291015625" lon="14.4328458420932292938232421875">         <ele>1487</ele>         <time>2026-02-28T12:24:16.000Z</time>         <extensions>           <ns3:TrackPointExtension>             <ns3:hr>106</ns3:hr>           </ns3:TrackPointExtension>         </extensions>       </trkpt>
       <trkpt lat="45.582207329571247100830078125" lon="14.4328089617192745208740234375">         <ele>1486.199951171875</ele>         <time>2026-02-28T12:24:19.000Z</time>         <extensions>           <ns3:TrackPointExtension>             <ns3:hr>105</ns3:hr>           </ns3:TrackPointExtension>         </extensions>       </trkpt>
       <trkpt lat="45.58215209282934665679931640625" lon="14.432783983647823333740234375">         <ele>1485.199951171875</ele>         <time>2026-02-28T12:24:22.000Z</time>         <extensions>           <ns3:TrackPointExtension>             <ns3:hr>103</ns3:hr>           </ns3:TrackPointExtension>         </extensions>       </trkpt>
       <trkpt lat="45.58212141506373882293701171875" lon="14.43276629783213138580322265625">         <ele>1484.800048828125</ele>         <time>2026-02-28T12:24:23.000Z</time>         <extensions>           <ns3:TrackPointExtension>             <ns3:hr>103</ns3:hr>           </ns3:TrackPointExtension>         </extensions>       </trkpt>
       <trkpt lat="45.5820433795452117919921875" lon="14.43272002972662448883056640625">         <ele>1483.5999755859375</ele>         <time>2026-02-28T12:24:26.000Z</time>         <extensions>           <ns3:TrackPointExtension>             <ns3:hr>103</ns3:hr>           </ns3:TrackPointExtension>         </extensions>       </trkpt>
       <trkpt lat="45.58202485553920269012451171875" lon="14.43270578049123287200927734375">         <ele>1482.800048828125</ele>         <time>2026-02-28T12:24:29.000Z</time>         <extensions>           <ns3:TrackPointExtension>             <ns3:hr>108</ns3:hr>           </ns3:TrackPointExtension>         </extensions>       </trkpt>
       <trkpt lat="45.5820053257048130035400390625" lon="14.43269404582679271697998046875">         <ele>1482.5999755859375</ele>         <time>2026-02-28T12:24:31.000Z</time>         <extensions>           <ns3:TrackPointExtension>             <ns3:hr>109</ns3:hr>           </ns3:TrackPointExtension>         </extensions>       </trkpt>
       <trkpt lat="45.58198847807943820953369140625" lon="14.43268231116235256195068359375">         <ele>1482.4000244140625</ele>         <time>2026-02-28T12:24:32.000Z</time>         <extensions>           <ns3:TrackPointExtension>             <ns3:hr>109</ns3:hr>           </ns3:TrackPointExtension>         </extensions>       </trkpt>
       <trkpt lat="45.58189627714455127716064453125" lon="14.43261760286986827850341796875">         <ele>1481.199951171875</ele>         <time>2026-02-28T12:24:36.000Z</time>         <extensions>           <ns3:TrackPointExtension>             <ns3:hr>108</ns3:hr>           </ns3:TrackPointExtension>         </extensions>       </trkpt>
       <trkpt lat="45.58184556663036346435546875" lon="14.4325779564678668975830078125">         <ele>1480</ele>         <time>2026-02-28T12:24:39.000Z</time>         <extensions>           <ns3:TrackPointExtension>             <ns3:hr>109</ns3:hr>           </ns3:TrackPointExtension>         </extensions>       </trkpt>
       <trkpt lat="45.581797622144222259521484375" lon="14.432519115507602691650390625">         <ele>1479</ele>         <time>2026-02-28T12:24:42.000Z</time>         <extensions>           <ns3:TrackPointExtension>             <ns3:hr>110</ns3:hr>           </ns3:TrackPointExtension>         </extensions>       </trkpt>
       <trkpt lat="45.5817786790430545806884765625" lon="14.43249757401645183563232421875">         <ele>1478.5999755859375</ele>         <time>2026-02-28T12:24:43.000Z</time>         <extensions>           <ns3:TrackPointExtension>             <ns3:hr>110</ns3:hr>           </ns3:TrackPointExtension>         </extensions>       </trkpt>
       <trkpt lat="45.581736266613006591796875" lon="14.432464800775051116943359375">         <ele>1478</ele>         <time>2026-02-28T12:24:45.000Z</time>         <extensions>           <ns3:TrackPointExtension>             <ns3:hr>110</ns3:hr>           </ns3:TrackPointExtension>         </extensions>       </trkpt>
       <trkpt lat="45.5816759169101715087890625" lon="14.43246890790760517120361328125">         <ele>1476.800048828125</ele>         <time>2026-02-28T12:24:49.000Z</time>         <extensions>           <ns3:TrackPointExtension>             <ns3:hr>109</ns3:hr>           </ns3:TrackPointExtension>         </extensions>       </trkpt>
       <trkpt lat="45.58159050531685352325439453125" lon="14.4325008429586887359619140625">         <ele>1475.4000244140625</ele>         <time>2026-02-28T12:24:53.000Z</time>         <extensions>           <ns3:TrackPointExtension>             <ns3:hr>109</ns3:hr>           </ns3:TrackPointExtension>         </extensions>       </trkpt>
       <trkpt lat="45.58154457248747348785400390625" lon="14.4325487874448299407958984375">         <ele>1474.5999755859375</ele>         <time>2026-02-28T12:24:55.000Z</time>         <extensions>           <ns3:TrackPointExtension>             <ns3:hr>108</ns3:hr>           </ns3:TrackPointExtension>         </extensions>       </trkpt>
       <trkpt lat="45.58151858858764171600341796875" lon="14.43258776329457759857177734375">         <ele>1474.199951171875</ele>         <time>2026-02-28T12:24:56.000Z</time>         <extensions>           <ns3:TrackPointExtension>             <ns3:hr>108</ns3:hr>           </ns3:TrackPointExtension>         </extensions>       </trkpt>
       <trkpt lat="45.5814323388040065765380859375" lon="14.43262875080108642578125">         <ele>1472.800048828125</ele>         <time>2026-02-28T12:24:58.000Z</time>         <extensions>           <ns3:TrackPointExtension>             <ns3:hr>108</ns3:hr>           </ns3:TrackPointExtension>         </extensions>       </trkpt>
       <trkpt lat="45.58140970766544342041015625" lon="14.43260905332863330841064453125">         <ele>1472.199951171875</ele>         <time>2026-02-28T12:24:59.000Z</time>         <extensions>           <ns3:TrackPointExtension>             <ns3:hr>109</ns3:hr>           </ns3:TrackPointExtension>         </extensions>       </trkpt>
       <trkpt lat="45.58140375651419162750244140625" lon="14.4325860030949115753173828125">         <ele>1471.5999755859375</ele>         <time>2026-02-28T12:25:00.000Z</time>         <extensions>           <ns3:TrackPointExtension>             <ns3:hr>109</ns3:hr>           </ns3:TrackPointExtension>         </extensions>       </trkpt>
       <trkpt lat="45.58140828274190425872802734375" lon="14.4325710833072662353515625">         <ele>1471</ele>         <time>2026-02-28T12:25:03.000Z</time>         <extensions>           <ns3:TrackPointExtension>             <ns3:hr>109</ns3:hr>           </ns3:TrackPointExtension>         </extensions>       </trkpt>
       <trkpt lat="45.58140174485743045806884765625" lon="14.43256638944149017333984375">         <ele>1470.800048828125</ele>         <time>2026-02-28T12:25:06.000Z</time>         <extensions>           <ns3:TrackPointExtension>             <ns3:hr>106</ns3:hr>           </ns3:TrackPointExtension>         </extensions>       </trkpt>
       <trkpt lat="45.58140375651419162750244140625" lon="14.43257418461143970489501953125">         <ele>1470.5999755859375</ele>         <time>2026-02-28T12:25:11.000Z</time>         <extensions>           <ns3:TrackPointExtension>             <ns3:hr>106</ns3:hr>           </ns3:TrackPointExtension>         </extensions>       </trkpt>
       <trkpt lat="45.581403337419033050537109375" lon="14.43256932310760021209716796875">         <ele>1470.4000244140625</ele>         <time>2026-02-28T12:25:19.000Z</time>         <extensions>           <ns3:TrackPointExtension>             <ns3:hr>110</ns3:hr>           </ns3:TrackPointExtension>         </extensions>       </trkpt>
       <trkpt lat="45.581403337419033050537109375" lon="14.43256932310760021209716796875">         <ele>1470.5999755859375</ele>         <time>2026-02-28T12:25:20.000Z</time>         <extensions>           <ns3:TrackPointExtension>             <ns3:hr>111</ns3:hr>           </ns3:TrackPointExtension>         </extensions>       </trkpt>
       <trkpt lat="45.58138824999332427978515625" lon="14.43247142247855663299560546875">         <ele>1470.199951171875</ele>         <time>2026-02-28T12:25:26.000Z</time>         <extensions>           <ns3:TrackPointExtension>             <ns3:hr>110</ns3:hr>           </ns3:TrackPointExtension>         </extensions>       </trkpt>
       <trkpt lat="45.58142353780567646026611328125" lon="14.43236866034567356109619140625">         <ele>1469.4000244140625</ele>         <time>2026-02-28T12:25:29.000Z</time>         <extensions>           <ns3:TrackPointExtension>             <ns3:hr>108</ns3:hr>           </ns3:TrackPointExtension>         </extensions>       </trkpt>
       <trkpt lat="45.5814460851252079010009765625" lon="14.4323028624057769775390625">         <ele>1469</ele>         <time>2026-02-28T12:25:31.000Z</time>         <extensions>           <ns3:TrackPointExtension>             <ns3:hr>108</ns3:hr>           </ns3:TrackPointExtension>         </extensions>       </trkpt>
       <trkpt lat="45.581477098166942596435546875" lon="14.432192556560039520263671875">         <ele>1468.199951171875</ele>         <time>2026-02-28T12:25:34.000Z</time>         <extensions>           <ns3:TrackPointExtension>             <ns3:hr>108</ns3:hr>           </ns3:TrackPointExtension>         </extensions>       </trkpt>
       <trkpt lat="45.581501908600330352783203125" lon="14.43202718161046504974365234375">         <ele>1467.4000244140625</ele>         <time>2026-02-28T12:25:39.000Z</time>         <extensions>           <ns3:TrackPointExtension>             <ns3:hr>107</ns3:hr>           </ns3:TrackPointExtension>         </extensions>       </trkpt>
       <trkpt lat="45.58150920085608959197998046875" lon="14.43198778666555881500244140625">         <ele>1467</ele>         <time>2026-02-28T12:25:40.000Z</time>         <extensions>           <ns3:TrackPointExtension>             <ns3:hr>107</ns3:hr>           </ns3:TrackPointExtension>         </extensions>       </trkpt>
       <trkpt lat="45.5815419740974903106689453125" lon="14.4318041391670703887939453125">         <ele>1466</ele>         <time>2026-02-28T12:25:45.000Z</time>         <extensions>           <ns3:TrackPointExtension>             <ns3:hr>106</ns3:hr>           </ns3:TrackPointExtension>         </extensions>       </trkpt>
       <trkpt lat="45.58156217448413372039794921875" lon="14.43167732097208499908447265625">         <ele>1465.4000244140625</ele>         <time>2026-02-28T12:25:49.000Z</time>         <extensions>           <ns3:TrackPointExtension>             <ns3:hr>109</ns3:hr>           </ns3:TrackPointExtension>         </extensions>       </trkpt>
       <trkpt lat="45.58156385086476802825927734375" lon="14.43160884082317352294921875">         <ele>1465.199951171875</ele>         <time>2026-02-28T12:25:52.000Z</time>         <extensions>           <ns3:TrackPointExtension>             <ns3:hr>112</ns3:hr>           </ns3:TrackPointExtension>         </extensions>       </trkpt>
       <trkpt lat="45.58155815117061138153076171875" lon="14.43158478476107120513916015625">         <ele>1465</ele>         <time>2026-02-28T12:25:55.000Z</time>         <extensions>           <ns3:TrackPointExtension>             <ns3:hr>113</ns3:hr>           </ns3:TrackPointExtension>         </extensions>       </trkpt>
       <trkpt lat="45.58156603015959262847900390625" lon="14.43154203705489635467529296875">         <ele>1465.199951171875</ele>         <time>2026-02-28T12:26:00.000Z</time>         <extensions>           <ns3:TrackPointExtension>             <ns3:hr>114</ns3:hr>           </ns3:TrackPointExtension>         </extensions>       </trkpt>
       <trkpt lat="45.58157608844339847564697265625" lon="14.43147414363920688629150390625">         <ele>1465.199951171875</ele>         <time>2026-02-28T12:26:05.000Z</time>         <extensions>           <ns3:TrackPointExtension>             <ns3:hr>117</ns3:hr>           </ns3:TrackPointExtension>         </extensions>       </trkpt>
       <trkpt lat="45.5815820395946502685546875" lon="14.431440532207489013671875">         <ele>1465.199951171875</ele>         <time>2026-02-28T12:26:09.000Z</time>         <extensions>           <ns3:TrackPointExtension>             <ns3:hr>120</ns3:hr>           </ns3:TrackPointExtension>         </extensions>       </trkpt>
       <trkpt lat="45.5815869010984897613525390625" lon="14.4314249418675899505615234375">         <ele>1465.199951171875</ele>         <time>2026-02-28T12:26:10.000Z</time>         <extensions>           <ns3:TrackPointExtension>             <ns3:hr>120</ns3:hr>           </ns3:TrackPointExtension>         </extensions>       </trkpt>
       <trkpt lat="45.58159637264907360076904296875" lon="14.43140792660415172576904296875">         <ele>1465.4000244140625</ele>         <time>2026-02-28T12:26:13.000Z</time>         <extensions>           <ns3:TrackPointExtension>             <ns3:hr>117</ns3:hr>           </ns3:TrackPointExtension>         </extensions>       </trkpt>
       <trkpt lat="45.5816034972667694091796875" lon="14.4313880614936351776123046875">         <ele>1465.4000244140625</ele>         <time>2026-02-28T12:26:15.000Z</time>         <extensions>           <ns3:TrackPointExtension>             <ns3:hr>114</ns3:hr>           </ns3:TrackPointExtension>         </extensions>       </trkpt>
       <trkpt lat="45.581603161990642547607421875" lon="14.431385211646556854248046875">         <ele>1465.4000244140625</ele>         <time>2026-02-28T12:26:16.000Z</time>         <extensions>           <ns3:TrackPointExtension>             <ns3:hr>113</ns3:hr>           </ns3:TrackPointExtension>         </extensions>       </trkpt>
       <trkpt lat="45.5816187523305416107177734375" lon="14.431361742317676544189453125">         <ele>1465.4000244140625</ele>         <time>2026-02-28T12:26:20.000Z</time>         <extensions>           <ns3:TrackPointExtension>             <ns3:hr>113</ns3:hr>           </ns3:TrackPointExtension>         </extensions>       </trkpt>
       <trkpt lat="45.58163878507912158966064453125" lon="14.43132880143821239471435546875">         <ele>1465.5999755859375</ele>         <time>2026-02-28T12:26:24.000Z</time>         <extensions>           <ns3:TrackPointExtension>             <ns3:hr>113</ns3:hr>           </ns3:TrackPointExtension>         </extensions>       </trkpt>
       <trkpt lat="45.581661164760589599609375" lon="14.43129234015941619873046875">         <ele>1465.5999755859375</ele>         <time>2026-02-28T12:26:27.000Z</time>         <extensions>           <ns3:TrackPointExtension>             <ns3:hr>113</ns3:hr>           </ns3:TrackPointExtension>         </extensions>       </trkpt>
       <trkpt lat="45.5816797725856304168701171875" lon="14.4312514364719390869140625">         <ele>1465.5999755859375</ele>         <time>2026-02-28T12:26:31.000Z</time>         <extensions>           <ns3:TrackPointExtension>             <ns3:hr>114</ns3:hr>           </ns3:TrackPointExtension>         </extensions>       </trkpt>
       <trkpt lat="45.58170743286609649658203125" lon="14.431229643523693084716796875">         <ele>1465.5999755859375</ele>         <time>2026-02-28T12:26:35.000Z</time>         <extensions>           <ns3:TrackPointExtension>             <ns3:hr>114</ns3:hr>           </ns3:TrackPointExtension>         </extensions>       </trkpt>
       <trkpt lat="45.58173852972686290740966796875" lon="14.43118513561785221099853515625">         <ele>1465.5999755859375</ele>         <time>2026-02-28T12:26:40.000Z</time>         <extensions>           <ns3:TrackPointExtension>             <ns3:hr>115</ns3:hr>           </ns3:TrackPointExtension>         </extensions>       </trkpt>
       <trkpt lat="45.58177088387310504913330078125" lon="14.4311533682048320770263671875">         <ele>1465.4000244140625</ele>         <time>2026-02-28T12:26:45.000Z</time>         <extensions>           <ns3:TrackPointExtension>             <ns3:hr>115</ns3:hr>           </ns3:TrackPointExtension>         </extensions>       </trkpt>
       <trkpt lat="45.581809692084789276123046875" lon="14.43110584281384944915771484375">         <ele>1465.4000244140625</ele>         <time>2026-02-28T12:26:50.000Z</time>         <extensions>           <ns3:TrackPointExtension>             <ns3:hr>114</ns3:hr>           </ns3:TrackPointExtension>         </extensions>       </trkpt>
       <trkpt lat="45.5818380229175090789794921875" lon="14.43106711842119693756103515625">         <ele>1465.4000244140625</ele>         <time>2026-02-28T12:26:55.000Z</time>         <extensions>           <ns3:TrackPointExtension>             <ns3:hr>112</ns3:hr>           </ns3:TrackPointExtension>         </extensions>       </trkpt>
       <trkpt lat="45.58187901042401790618896484375" lon="14.431013725697994232177734375">         <ele>1465.199951171875</ele>         <time>2026-02-28T12:27:01.000Z</time>         <extensions>           <ns3:TrackPointExtension>             <ns3:hr>114</ns3:hr>           </ns3:TrackPointExtension>         </extensions>       </trkpt>
       <trkpt lat="45.581891834735870361328125" lon="14.4309867359697818756103515625">         <ele>1465.199951171875</ele>         <time>2026-02-28T12:27:05.000Z</time>         <extensions>           <ns3:TrackPointExtension>             <ns3:hr>115</ns3:hr>           </ns3:TrackPointExtension>         </extensions>       </trkpt>
       <trkpt lat="45.581924021244049072265625" lon="14.43094340153038501739501953125">         <ele>1465.5999755859375</ele>         <time>2026-02-28T12:27:09.000Z</time>         <extensions>           <ns3:TrackPointExtension>             <ns3:hr>117</ns3:hr>           </ns3:TrackPointExtension>         </extensions>       </trkpt>
       <trkpt lat="45.5819682776927947998046875" lon="14.4308807887136936187744140625">         <ele>1465.199951171875</ele>         <time>2026-02-28T12:27:14.000Z</time>         <extensions>           <ns3:TrackPointExtension>             <ns3:hr>116</ns3:hr>           </ns3:TrackPointExtension>         </extensions>       </trkpt>
       <trkpt lat="45.5819924175739288330078125" lon="14.4308583252131938934326171875">         <ele>1465</ele>         <time>2026-02-28T12:27:17.000Z</time>         <extensions>           <ns3:TrackPointExtension>             <ns3:hr>113</ns3:hr>           </ns3:TrackPointExtension>         </extensions>       </trkpt>
       <trkpt lat="45.5820123665034770965576171875" lon="14.43084600381553173065185546875">         <ele>1465</ele>         <time>2026-02-28T12:27:18.000Z</time>         <extensions>           <ns3:TrackPointExtension>             <ns3:hr>112</ns3:hr>           </ns3:TrackPointExtension>         </extensions>       </trkpt>
       <trkpt lat="45.58203390799462795257568359375" lon="14.430829994380474090576171875">         <ele>1465</ele>         <time>2026-02-28T12:27:19.000Z</time>         <extensions>           <ns3:TrackPointExtension>             <ns3:hr>112</ns3:hr>           </ns3:TrackPointExtension>         </extensions>       </trkpt>
       <trkpt lat="45.58207757771015167236328125" lon="14.4308009929955005645751953125">         <ele>1464.5999755859375</ele>         <time>2026-02-28T12:27:21.000Z</time>         <extensions>           <ns3:TrackPointExtension>             <ns3:hr>109</ns3:hr>           </ns3:TrackPointExtension>         </extensions>       </trkpt>
       <trkpt lat="45.58217723853886127471923828125" lon="14.43072513677179813385009765625">         <ele>1463.800048828125</ele>         <time>2026-02-28T12:27:25.000Z</time>         <extensions>           <ns3:TrackPointExtension>             <ns3:hr>110</ns3:hr>           </ns3:TrackPointExtension>         </extensions>       </trkpt>
       <trkpt lat="45.58219567872583866119384765625" lon="14.43070703186094760894775390625">         <ele>1463.5999755859375</ele>         <time>2026-02-28T12:27:26.000Z</time>         <extensions>           <ns3:TrackPointExtension>             <ns3:hr>111</ns3:hr>           </ns3:TrackPointExtension>         </extensions>       </trkpt>
       <trkpt lat="45.58221126906573772430419921875" lon="14.43068884313106536865234375">         <ele>1463.4000244140625</ele>         <time>2026-02-28T12:27:27.000Z</time>         <extensions>           <ns3:TrackPointExtension>             <ns3:hr>114</ns3:hr>           </ns3:TrackPointExtension>         </extensions>       </trkpt>
       <trkpt lat="45.58226373977959156036376953125" lon="14.430640898644924163818359375">         <ele>1463.199951171875</ele>         <time>2026-02-28T12:27:30.000Z</time>         <extensions>           <ns3:TrackPointExtension>             <ns3:hr>117</ns3:hr>           </ns3:TrackPointExtension>         </extensions>       </trkpt>
       <trkpt lat="45.58233381249010562896728515625" lon="14.43057694472372531890869140625">         <ele>1462.800048828125</ele>         <time>2026-02-28T12:27:36.000Z</time>         <extensions>           <ns3:TrackPointExtension>             <ns3:hr>119</ns3:hr>           </ns3:TrackPointExtension>         </extensions>       </trkpt>
       <trkpt lat="45.58234387077391147613525390625" lon="14.430562444031238555908203125">         <ele>1462.800048828125</ele>         <time>2026-02-28T12:27:37.000Z</time>         <extensions>           <ns3:TrackPointExtension>             <ns3:hr>119</ns3:hr>           </ns3:TrackPointExtension>         </extensions>       </trkpt>
       <trkpt lat="45.58238066732883453369140625" lon="14.43050938658416271209716796875">         <ele>1462.199951171875</ele>         <time>2026-02-28T12:27:40.000Z</time>         <extensions>           <ns3:TrackPointExtension>             <ns3:hr>122</ns3:hr>           </ns3:TrackPointExtension>         </extensions>       </trkpt>
       <trkpt lat="45.58242366649210453033447265625" lon="14.4304311834275722503662109375">         <ele>1462.199951171875</ele>         <time>2026-02-28T12:27:44.000Z</time>         <extensions>           <ns3:TrackPointExtension>             <ns3:hr>125</ns3:hr>           </ns3:TrackPointExtension>         </extensions>       </trkpt>
       <trkpt lat="45.58249541558325290679931640625" lon="14.43032129667699337005615234375">         <ele>1461.800048828125</ele>         <time>2026-02-28T12:27:49.000Z</time>         <extensions>           <ns3:TrackPointExtension>             <ns3:hr>124</ns3:hr>           </ns3:TrackPointExtension>         </extensions>       </trkpt>
       <trkpt lat="45.58253078721463680267333984375" lon="14.43025843240320682525634765625">         <ele>1461.199951171875</ele>         <time>2026-02-28T12:27:51.000Z</time>         <extensions>           <ns3:TrackPointExtension>             <ns3:hr>124</ns3:hr>           </ns3:TrackPointExtension>         </extensions>       </trkpt>
       <trkpt lat="45.5825789831578731536865234375" lon="14.430176205933094024658203125">         <ele>1460.4000244140625</ele>         <time>2026-02-28T12:27:53.000Z</time>         <extensions>           <ns3:TrackPointExtension>             <ns3:hr>122</ns3:hr>           </ns3:TrackPointExtension>         </extensions>       </trkpt>
       <trkpt lat="45.5826079845428466796875" lon="14.430120885372161865234375">         <ele>1459.800048828125</ele>         <time>2026-02-28T12:27:54.000Z</time>         <extensions>           <ns3:TrackPointExtension>             <ns3:hr>119</ns3:hr>           </ns3:TrackPointExtension>         </extensions>       </trkpt>
       <trkpt lat="45.5826316215097904205322265625" lon="14.4300659000873565673828125">         <ele>1459.199951171875</ele>         <time>2026-02-28T12:27:55.000Z</time>         <extensions>           <ns3:TrackPointExtension>             <ns3:hr>117</ns3:hr>           </ns3:TrackPointExtension>         </extensions>       </trkpt>
       <trkpt lat="45.58265634812414646148681640625" lon="14.4300070591270923614501953125">         <ele>1458.4000244140625</ele>         <time>2026-02-28T12:27:56.000Z</time>         <extensions>           <ns3:TrackPointExtension>             <ns3:hr>114</ns3:hr>           </ns3:TrackPointExtension>         </extensions>       </trkpt>
       <trkpt lat="45.5826731957495212554931640625" lon="14.42993924953043460845947265625">         <ele>1457.5999755859375</ele>         <time>2026-02-28T12:27:57.000Z</time>         <extensions>           <ns3:TrackPointExtension>             <ns3:hr>114</ns3:hr>           </ns3:TrackPointExtension>         </extensions>       </trkpt>
       <trkpt lat="45.582688115537166595458984375" lon="14.4298213161528110504150390625">         <ele>1456.199951171875</ele>         <time>2026-02-28T12:27:59.000Z</time>         <extensions>           <ns3:TrackPointExtension>             <ns3:hr>113</ns3:hr>           </ns3:TrackPointExtension>         </extensions>       </trkpt>
       <trkpt lat="45.5826869420707225799560546875" lon="14.42977714352309703826904296875">         <ele>1455.5999755859375</ele>         <time>2026-02-28T12:28:00.000Z</time>         <extensions>           <ns3:TrackPointExtension>             <ns3:hr>112</ns3:hr>           </ns3:TrackPointExtension>         </extensions>       </trkpt>
       <trkpt lat="45.582684762775897979736328125" lon="14.429769851267337799072265625">         <ele>1455.199951171875</ele>         <time>2026-02-28T12:28:01.000Z</time>         <extensions>           <ns3:TrackPointExtension>             <ns3:hr>113</ns3:hr>           </ns3:TrackPointExtension>         </extensions>       </trkpt>
       <trkpt lat="45.58268048800528049468994140625" lon="14.42976088263094425201416015625">         <ele>1454.5999755859375</ele>         <time>2026-02-28T12:28:03.000Z</time>         <extensions>           <ns3:TrackPointExtension>             <ns3:hr>113</ns3:hr>           </ns3:TrackPointExtension>         </extensions>       </trkpt>
       <trkpt lat="45.58267378248274326324462890625" lon="14.429767169058322906494140625">         <ele>1454.4000244140625</ele>         <time>2026-02-28T12:28:06.000Z</time>         <extensions>           <ns3:TrackPointExtension>             <ns3:hr>107</ns3:hr>           </ns3:TrackPointExtension>         </extensions>       </trkpt>
       <trkpt lat="45.5826715193688869476318359375" lon="14.4297673366963863372802734375">         <ele>1454.199951171875</ele>         <time>2026-02-28T12:28:07.000Z</time>         <extensions>           <ns3:TrackPointExtension>             <ns3:hr>100</ns3:hr>           </ns3:TrackPointExtension>         </extensions>       </trkpt>
       <trkpt lat="45.58267126791179180145263671875" lon="14.4297673366963863372802734375">         <ele>1454.199951171875</ele>         <time>2026-02-28T12:28:08.000Z</time>         <extensions>           <ns3:TrackPointExtension>             <ns3:hr>91</ns3:hr>           </ns3:TrackPointExtension>         </extensions>       </trkpt>
       <trkpt lat="45.5826718546450138092041015625" lon="14.42976591177284717559814453125">         <ele>1454.199951171875</ele>         <time>2026-02-28T12:28:09.000Z</time>         <extensions>           <ns3:TrackPointExtension>             <ns3:hr>86</ns3:hr>           </ns3:TrackPointExtension>         </extensions>       </trkpt>
       <trkpt lat="45.58267227374017238616943359375" lon="14.4297710247337818145751953125">         <ele>1454.199951171875</ele>         <time>2026-02-28T12:28:10.000Z</time>         <extensions>           <ns3:TrackPointExtension>             <ns3:hr>81</ns3:hr>           </ns3:TrackPointExtension>         </extensions>       </trkpt>
       <trkpt lat="45.58267562650144100189208984375" lon="14.4297800771892070770263671875">         <ele>1454.199951171875</ele>         <time>2026-02-28T12:28:12.000Z</time>         <extensions>           <ns3:TrackPointExtension>             <ns3:hr>79</ns3:hr>           </ns3:TrackPointExtension>         </extensions>       </trkpt>
       <trkpt lat="45.58267411775887012481689453125" lon="14.42977865226566791534423828125">         <ele>1454.4000244140625</ele>         <time>2026-02-28T12:28:19.000Z</time>         <extensions>           <ns3:TrackPointExtension>             <ns3:hr>80</ns3:hr>           </ns3:TrackPointExtension>         </extensions>       </trkpt>
       <trkpt lat="45.5826718546450138092041015625" lon="14.42977932281792163848876953125">         <ele>1454.199951171875</ele>         <time>2026-02-28T12:28:21.000Z</time>         <extensions>           <ns3:TrackPointExtension>             <ns3:hr>86</ns3:hr>           </ns3:TrackPointExtension>         </extensions>       </trkpt>
       <trkpt lat="45.582670010626316070556640625" lon="14.42977094091475009918212890625">         <ele>1454.199951171875</ele>         <time>2026-02-28T12:28:23.000Z</time>         <extensions>           <ns3:TrackPointExtension>             <ns3:hr>90</ns3:hr>           </ns3:TrackPointExtension>         </extensions>       </trkpt>
       <trkpt lat="45.582670681178569793701171875" lon="14.42974378354847431182861328125">         <ele>1454.199951171875</ele>         <time>2026-02-28T12:28:26.000Z</time>         <extensions>           <ns3:TrackPointExtension>             <ns3:hr>95</ns3:hr>           </ns3:TrackPointExtension>         </extensions>       </trkpt>
       <trkpt lat="45.5826735310256481170654296875" lon="14.4297311268746852874755859375">         <ele>1454</ele>         <time>2026-02-28T12:28:27.000Z</time>         <extensions>           <ns3:TrackPointExtension>             <ns3:hr>96</ns3:hr>           </ns3:TrackPointExtension>         </extensions>       </trkpt>
       <trkpt lat="45.58268417604267597198486328125" lon="14.42968008108437061309814453125">         <ele>1453</ele>         <time>2026-02-28T12:28:29.000Z</time>         <extensions>           <ns3:TrackPointExtension>             <ns3:hr>99</ns3:hr>           </ns3:TrackPointExtension>         </extensions>       </trkpt>
       <trkpt lat="45.5826862715184688568115234375" lon="14.429654181003570556640625">         <ele>1452.199951171875</ele>         <time>2026-02-28T12:28:30.000Z</time>         <extensions>           <ns3:TrackPointExtension>             <ns3:hr>102</ns3:hr>           </ns3:TrackPointExtension>         </extensions>       </trkpt>
       <trkpt lat="45.5826963298022747039794921875" lon="14.4296087510883808135986328125">         <ele>1451.4000244140625</ele>         <time>2026-02-28T12:28:31.000Z</time>         <extensions>           <ns3:TrackPointExtension>             <ns3:hr>104</ns3:hr>           </ns3:TrackPointExtension>         </extensions>       </trkpt>
       <trkpt lat="45.58270211331546306610107421875" lon="14.42956776358187198638916015625">         <ele>1450.4000244140625</ele>         <time>2026-02-28T12:28:32.000Z</time>         <extensions>           <ns3:TrackPointExtension>             <ns3:hr>103</ns3:hr>           </ns3:TrackPointExtension>         </extensions>       </trkpt>
       <trkpt lat="45.58270161040127277374267578125" lon="14.429521076381206512451171875">         <ele>1449.4000244140625</ele>         <time>2026-02-28T12:28:33.000Z</time>         <extensions>           <ns3:TrackPointExtension>             <ns3:hr>102</ns3:hr>           </ns3:TrackPointExtension>         </extensions>       </trkpt>
       <trkpt lat="45.58270412497222423553466796875" lon="14.4294833578169345855712890625">         <ele>1448.4000244140625</ele>         <time>2026-02-28T12:28:34.000Z</time>         <extensions>           <ns3:TrackPointExtension>             <ns3:hr>103</ns3:hr>           </ns3:TrackPointExtension>         </extensions>       </trkpt>
       <trkpt lat="45.58270881883800029754638671875" lon="14.42942828871309757232666015625">         <ele>1447.4000244140625</ele>         <time>2026-02-28T12:28:35.000Z</time>         <extensions>           <ns3:TrackPointExtension>             <ns3:hr>104</ns3:hr>           </ns3:TrackPointExtension>         </extensions>       </trkpt>
       <trkpt lat="45.58270923793315887451171875" lon="14.4293081760406494140625">         <ele>1446</ele>         <time>2026-02-28T12:28:37.000Z</time>         <extensions>           <ns3:TrackPointExtension>             <ns3:hr>106</ns3:hr>           </ns3:TrackPointExtension>         </extensions>       </trkpt>
       <trkpt lat="45.58270529843866825103759765625" lon="14.42923902533948421478271484375">         <ele>1445.800048828125</ele>         <time>2026-02-28T12:28:38.000Z</time>         <extensions>           <ns3:TrackPointExtension>             <ns3:hr>107</ns3:hr>           </ns3:TrackPointExtension>         </extensions>       </trkpt>
       <trkpt lat="45.5826802365481853485107421875" lon="14.42913676612079143524169921875">         <ele>1445.800048828125</ele>         <time>2026-02-28T12:28:40.000Z</time>         <extensions>           <ns3:TrackPointExtension>             <ns3:hr>110</ns3:hr>           </ns3:TrackPointExtension>         </extensions>       </trkpt>
       <trkpt lat="45.58262072503566741943359375" lon="14.4290357641875743865966796875">         <ele>1445.4000244140625</ele>         <time>2026-02-28T12:28:42.000Z</time>         <extensions>           <ns3:TrackPointExtension>             <ns3:hr>114</ns3:hr>           </ns3:TrackPointExtension>         </extensions>       </trkpt>
       <trkpt lat="45.58258677832782268524169921875" lon="14.42898371256887912750244140625">         <ele>1444.800048828125</ele>         <time>2026-02-28T12:28:43.000Z</time>         <extensions>           <ns3:TrackPointExtension>             <ns3:hr>116</ns3:hr>           </ns3:TrackPointExtension>         </extensions>       </trkpt>
       <trkpt lat="45.5824790708720684051513671875" lon="14.42884021438658237457275390625">         <ele>1443.5999755859375</ele>         <time>2026-02-28T12:28:46.000Z</time>         <extensions>           <ns3:TrackPointExtension>             <ns3:hr>118</ns3:hr>           </ns3:TrackPointExtension>         </extensions>       </trkpt>
       <trkpt lat="45.582362227141857147216796875" lon="14.4286123104393482208251953125">         <ele>1442.4000244140625</ele>         <time>2026-02-28T12:28:50.000Z</time>         <extensions>           <ns3:TrackPointExtension>             <ns3:hr>119</ns3:hr>           </ns3:TrackPointExtension>         </extensions>       </trkpt>
       <trkpt lat="45.58231084607541561126708984375" lon="14.42845665849745273590087890625">         <ele>1441.199951171875</ele>         <time>2026-02-28T12:28:52.000Z</time>         <extensions>           <ns3:TrackPointExtension>             <ns3:hr>120</ns3:hr>           </ns3:TrackPointExtension>         </extensions>       </trkpt>
       <trkpt lat="45.582303889095783233642578125" lon="14.42838809452950954437255859375">         <ele>1440.4000244140625</ele>         <time>2026-02-28T12:28:53.000Z</time>         <extensions>           <ns3:TrackPointExtension>             <ns3:hr>120</ns3:hr>           </ns3:TrackPointExtension>         </extensions>       </trkpt>
       <trkpt lat="45.58229215443134307861328125" lon="14.4282988272607326507568359375">         <ele>1439.5999755859375</ele>         <time>2026-02-28T12:28:54.000Z</time>         <extensions>           <ns3:TrackPointExtension>             <ns3:hr>121</ns3:hr>           </ns3:TrackPointExtension>         </extensions>       </trkpt>
       <trkpt lat="45.58228653855621814727783203125" lon="14.4281132519245147705078125">         <ele>1438.4000244140625</ele>         <time>2026-02-28T12:28:56.000Z</time>         <extensions>           <ns3:TrackPointExtension>             <ns3:hr>121</ns3:hr>           </ns3:TrackPointExtension>         </extensions>       </trkpt>
       <trkpt lat="45.58230615220963954925537109375" lon="14.42794452421367168426513671875">         <ele>1437.199951171875</ele>         <time>2026-02-28T12:28:58.000Z</time>         <extensions>           <ns3:TrackPointExtension>             <ns3:hr>121</ns3:hr>           </ns3:TrackPointExtension>         </extensions>       </trkpt>
       <trkpt lat="45.58234504424035549163818359375" lon="14.4277342222630977630615234375">         <ele>1436</ele>         <time>2026-02-28T12:29:01.000Z</time>         <extensions>           <ns3:TrackPointExtension>             <ns3:hr>118</ns3:hr>           </ns3:TrackPointExtension>         </extensions>       </trkpt>
       <trkpt lat="45.58235828764736652374267578125" lon="14.42760723643004894256591796875">         <ele>1435</ele>         <time>2026-02-28T12:29:03.000Z</time>         <extensions>           <ns3:TrackPointExtension>             <ns3:hr>116</ns3:hr>           </ns3:TrackPointExtension>         </extensions>       </trkpt>
       <trkpt lat="45.58236197568476200103759765625" lon="14.42754521034657955169677734375">         <ele>1434.4000244140625</ele>         <time>2026-02-28T12:29:04.000Z</time>         <extensions>           <ns3:TrackPointExtension>             <ns3:hr>115</ns3:hr>           </ns3:TrackPointExtension>         </extensions>       </trkpt>
       <trkpt lat="45.5823520012199878692626953125" lon="14.4274096749722957611083984375">         <ele>1432.800048828125</ele>         <time>2026-02-28T12:29:06.000Z</time>         <extensions>           <ns3:TrackPointExtension>             <ns3:hr>116</ns3:hr>           </ns3:TrackPointExtension>         </extensions>       </trkpt>
       <trkpt lat="45.5823392607271671295166015625" lon="14.4272785820066928863525390625">         <ele>1431.199951171875</ele>         <time>2026-02-28T12:29:08.000Z</time>         <extensions>           <ns3:TrackPointExtension>             <ns3:hr>120</ns3:hr>           </ns3:TrackPointExtension>         </extensions>       </trkpt>
       <trkpt lat="45.5823290348052978515625" lon="14.42721630446612834930419921875">         <ele>1430.4000244140625</ele>         <time>2026-02-28T12:29:09.000Z</time>         <extensions>           <ns3:TrackPointExtension>             <ns3:hr>122</ns3:hr>           </ns3:TrackPointExtension>         </extensions>       </trkpt>
       <trkpt lat="45.58231503702700138092041015625" lon="14.42715478129684925079345703125">         <ele>1429.5999755859375</ele>         <time>2026-02-28T12:29:10.000Z</time>         <extensions>           <ns3:TrackPointExtension>             <ns3:hr>123</ns3:hr>           </ns3:TrackPointExtension>         </extensions>       </trkpt>
       <trkpt lat="45.58228402398526668548583984375" lon="14.42703902721405029296875">         <ele>1428.199951171875</ele>         <time>2026-02-28T12:29:12.000Z</time>         <extensions>           <ns3:TrackPointExtension>             <ns3:hr>123</ns3:hr>           </ns3:TrackPointExtension>         </extensions>       </trkpt>
       <trkpt lat="45.5822353251278400421142578125" lon="14.4269379414618015289306640625">         <ele>1426.5999755859375</ele>         <time>2026-02-28T12:29:14.000Z</time>         <extensions>           <ns3:TrackPointExtension>             <ns3:hr>124</ns3:hr>           </ns3:TrackPointExtension>         </extensions>       </trkpt>
       <trkpt lat="45.58219165541231632232666015625" lon="14.42683459259569644927978515625">         <ele>1424.5999755859375</ele>         <time>2026-02-28T12:29:16.000Z</time>         <extensions>           <ns3:TrackPointExtension>             <ns3:hr>124</ns3:hr>           </ns3:TrackPointExtension>         </extensions>       </trkpt>
       <trkpt lat="45.58216474950313568115234375" lon="14.42678614519536495208740234375">         <ele>1423.5999755859375</ele>         <time>2026-02-28T12:29:17.000Z</time>         <extensions>           <ns3:TrackPointExtension>             <ns3:hr>125</ns3:hr>           </ns3:TrackPointExtension>         </extensions>       </trkpt>
       <trkpt lat="45.58213683776557445526123046875" lon="14.4267337583005428314208984375">         <ele>1422.4000244140625</ele>         <time>2026-02-28T12:29:18.000Z</time>         <extensions>           <ns3:TrackPointExtension>             <ns3:hr>125</ns3:hr>           </ns3:TrackPointExtension>         </extensions>       </trkpt>
       <trkpt lat="45.5821156315505504608154296875" lon="14.4266844727098941802978515625">         <ele>1421.199951171875</ele>         <time>2026-02-28T12:29:19.000Z</time>         <extensions>           <ns3:TrackPointExtension>             <ns3:hr>126</ns3:hr>           </ns3:TrackPointExtension>         </extensions>       </trkpt>
       <trkpt lat="45.58207984082400798797607421875" lon="14.42660811357200145721435546875">         <ele>1420</ele>         <time>2026-02-28T12:29:20.000Z</time>         <extensions>           <ns3:TrackPointExtension>             <ns3:hr>127</ns3:hr>           </ns3:TrackPointExtension>         </extensions>       </trkpt>
       <trkpt lat="45.58204832486808300018310546875" lon="14.426540471613407135009765625">         <ele>1418.800048828125</ele>         <time>2026-02-28T12:29:21.000Z</time>         <extensions>           <ns3:TrackPointExtension>             <ns3:hr>128</ns3:hr>           </ns3:TrackPointExtension>         </extensions>       </trkpt>
       <trkpt lat="45.58201228268444538116455078125" lon="14.42647215910255908966064453125">         <ele>1417.800048828125</ele>         <time>2026-02-28T12:29:22.000Z</time>         <extensions>           <ns3:TrackPointExtension>             <ns3:hr>129</ns3:hr>           </ns3:TrackPointExtension>         </extensions>       </trkpt>
       <trkpt lat="45.5819543637335300445556640625" lon="14.42632396705448627471923828125">         <ele>1416</ele>         <time>2026-02-28T12:29:24.000Z</time>         <extensions>           <ns3:TrackPointExtension>             <ns3:hr>128</ns3:hr>           </ns3:TrackPointExtension>         </extensions>       </trkpt>
       <trkpt lat="45.5818923376500606536865234375" lon="14.426136799156665802001953125">         <ele>1415</ele>         <time>2026-02-28T12:29:26.000Z</time>         <extensions>           <ns3:TrackPointExtension>             <ns3:hr>128</ns3:hr>           </ns3:TrackPointExtension>         </extensions>       </trkpt>
       <trkpt lat="45.58186945505440235137939453125" lon="14.426048286259174346923828125">         <ele>1414.4000244140625</ele>         <time>2026-02-28T12:29:27.000Z</time>         <extensions>           <ns3:TrackPointExtension>             <ns3:hr>128</ns3:hr>           </ns3:TrackPointExtension>         </extensions>       </trkpt>
       <trkpt lat="45.58185227215290069580078125" lon="14.42596153356134891510009765625">         <ele>1413.800048828125</ele>         <time>2026-02-28T12:29:28.000Z</time>         <extensions>           <ns3:TrackPointExtension>             <ns3:hr>128</ns3:hr>           </ns3:TrackPointExtension>         </extensions>       </trkpt>
       <trkpt lat="45.5818368494510650634765625" lon="14.42578718997538089752197265625">         <ele>1412.4000244140625</ele>         <time>2026-02-28T12:29:30.000Z</time>         <extensions>           <ns3:TrackPointExtension>             <ns3:hr>128</ns3:hr>           </ns3:TrackPointExtension>         </extensions>       </trkpt>
       <trkpt lat="45.58182503096759319305419921875" lon="14.425610415637493133544921875">         <ele>1410.800048828125</ele>         <time>2026-02-28T12:29:32.000Z</time>         <extensions>           <ns3:TrackPointExtension>             <ns3:hr>130</ns3:hr>           </ns3:TrackPointExtension>         </extensions>       </trkpt>
       <trkpt lat="45.581820420920848846435546875" lon="14.4254255108535289764404296875">         <ele>1409</ele>         <time>2026-02-28T12:29:34.000Z</time>         <extensions>           <ns3:TrackPointExtension>             <ns3:hr>131</ns3:hr>           </ns3:TrackPointExtension>         </extensions>       </trkpt>
       <trkpt lat="45.58180156163871288299560546875" lon="14.42528259940445423126220703125">         <ele>1407.5999755859375</ele>         <time>2026-02-28T12:29:36.000Z</time>         <extensions>           <ns3:TrackPointExtension>             <ns3:hr>132</ns3:hr>           </ns3:TrackPointExtension>         </extensions>       </trkpt>
       <trkpt lat="45.58178521692752838134765625" lon="14.42521319724619388580322265625">         <ele>1406.800048828125</ele>         <time>2026-02-28T12:29:37.000Z</time>         <extensions>           <ns3:TrackPointExtension>             <ns3:hr>131</ns3:hr>           </ns3:TrackPointExtension>         </extensions>       </trkpt>
       <trkpt lat="45.581761412322521209716796875" lon="14.4251552782952785491943359375">         <ele>1406.199951171875</ele>         <time>2026-02-28T12:29:38.000Z</time>         <extensions>           <ns3:TrackPointExtension>             <ns3:hr>129</ns3:hr>           </ns3:TrackPointExtension>         </extensions>       </trkpt>
       <trkpt lat="45.58171003125607967376708984375" lon="14.42500666715204715728759765625">         <ele>1405</ele>         <time>2026-02-28T12:29:40.000Z</time>         <extensions>           <ns3:TrackPointExtension>             <ns3:hr>128</ns3:hr>           </ns3:TrackPointExtension>         </extensions>       </trkpt>
       <trkpt lat="45.58166158385574817657470703125" lon="14.42487892694771289825439453125">         <ele>1403.5999755859375</ele>         <time>2026-02-28T12:29:42.000Z</time>         <extensions>           <ns3:TrackPointExtension>             <ns3:hr>126</ns3:hr>           </ns3:TrackPointExtension>         </extensions>       </trkpt>
       <trkpt lat="45.58163744397461414337158203125" lon="14.42481212317943572998046875">         <ele>1402.800048828125</ele>         <time>2026-02-28T12:29:43.000Z</time>         <extensions>           <ns3:TrackPointExtension>             <ns3:hr>123</ns3:hr>           </ns3:TrackPointExtension>         </extensions>       </trkpt>
       <trkpt lat="45.58161883614957332611083984375" lon="14.42473299801349639892578125">         <ele>1402</ele>         <time>2026-02-28T12:29:44.000Z</time>         <extensions>           <ns3:TrackPointExtension>             <ns3:hr>121</ns3:hr>           </ns3:TrackPointExtension>         </extensions>       </trkpt>
       <trkpt lat="45.58156720362603664398193359375" lon="14.42458773963153362274169921875">         <ele>1400.4000244140625</ele>         <time>2026-02-28T12:29:46.000Z</time>         <extensions>           <ns3:TrackPointExtension>             <ns3:hr>118</ns3:hr>           </ns3:TrackPointExtension>         </extensions>       </trkpt>
       <trkpt lat="45.58150702156126499176025390625" lon="14.424455724656581878662109375">         <ele>1398.5999755859375</ele>         <time>2026-02-28T12:29:48.000Z</time>         <extensions>           <ns3:TrackPointExtension>             <ns3:hr>120</ns3:hr>           </ns3:TrackPointExtension>         </extensions>       </trkpt>
       <trkpt lat="45.581447593867778778076171875" lon="14.42430241964757442474365234375">         <ele>1396.800048828125</ele>         <time>2026-02-28T12:29:50.000Z</time>         <extensions>           <ns3:TrackPointExtension>             <ns3:hr>123</ns3:hr>           </ns3:TrackPointExtension>         </extensions>       </trkpt>
       <trkpt lat="45.5813781917095184326171875" lon="14.4241467677056789398193359375">         <ele>1395</ele>         <time>2026-02-28T12:29:52.000Z</time>         <extensions>           <ns3:TrackPointExtension>             <ns3:hr>125</ns3:hr>           </ns3:TrackPointExtension>         </extensions>       </trkpt>
       <trkpt lat="45.58131205849349498748779296875" lon="14.4240116514265537261962890625">         <ele>1393.4000244140625</ele>         <time>2026-02-28T12:29:54.000Z</time>         <extensions>           <ns3:TrackPointExtension>             <ns3:hr>126</ns3:hr>           </ns3:TrackPointExtension>         </extensions>       </trkpt>
       <trkpt lat="45.5812465958297252655029296875" lon="14.42387200891971588134765625">         <ele>1392</ele>         <time>2026-02-28T12:29:56.000Z</time>         <extensions>           <ns3:TrackPointExtension>             <ns3:hr>128</ns3:hr>           </ns3:TrackPointExtension>         </extensions>       </trkpt>
       <trkpt lat="45.5812093801796436309814453125" lon="14.42379749380052089691162109375">         <ele>1391.4000244140625</ele>         <time>2026-02-28T12:29:57.000Z</time>         <extensions>           <ns3:TrackPointExtension>             <ns3:hr>126</ns3:hr>           </ns3:TrackPointExtension>         </extensions>       </trkpt>
       <trkpt lat="45.5811738409101963043212890625" lon="14.423731863498687744140625">         <ele>1390.800048828125</ele>         <time>2026-02-28T12:29:58.000Z</time>         <extensions>           <ns3:TrackPointExtension>             <ns3:hr>125</ns3:hr>           </ns3:TrackPointExtension>         </extensions>       </trkpt>
       <trkpt lat="45.5810987390577793121337890625" lon="14.423613846302032470703125">         <ele>1389.5999755859375</ele>         <time>2026-02-28T12:30:00.000Z</time>         <extensions>           <ns3:TrackPointExtension>             <ns3:hr>123</ns3:hr>           </ns3:TrackPointExtension>         </extensions>       </trkpt>
       <trkpt lat="45.58102757669985294342041015625" lon="14.423509575426578521728515625">         <ele>1388.4000244140625</ele>         <time>2026-02-28T12:30:02.000Z</time>         <extensions>           <ns3:TrackPointExtension>             <ns3:hr>121</ns3:hr>           </ns3:TrackPointExtension>         </extensions>       </trkpt>
       <trkpt lat="45.5809904448688030242919921875" lon="14.4234587810933589935302734375">         <ele>1387.800048828125</ele>         <time>2026-02-28T12:30:03.000Z</time>         <extensions>           <ns3:TrackPointExtension>             <ns3:hr>118</ns3:hr>           </ns3:TrackPointExtension>         </extensions>       </trkpt>
       <trkpt lat="45.580954737961292266845703125" lon="14.4234051369130611419677734375">         <ele>1386.800048828125</ele>         <time>2026-02-28T12:30:04.000Z</time>         <extensions>           <ns3:TrackPointExtension>             <ns3:hr>116</ns3:hr>           </ns3:TrackPointExtension>         </extensions>       </trkpt>
       <trkpt lat="45.580924563109874725341796875" lon="14.42334420047700405120849609375">         <ele>1386</ele>         <time>2026-02-28T12:30:05.000Z</time>         <extensions>           <ns3:TrackPointExtension>             <ns3:hr>113</ns3:hr>           </ns3:TrackPointExtension>         </extensions>       </trkpt>
       <trkpt lat="45.5808965675532817840576171875" lon="14.42328393459320068359375">         <ele>1385.199951171875</ele>         <time>2026-02-28T12:30:06.000Z</time>         <extensions>           <ns3:TrackPointExtension>             <ns3:hr>110</ns3:hr>           </ns3:TrackPointExtension>         </extensions>       </trkpt>
       <trkpt lat="45.58086932636797428131103515625" lon="14.42322752438485622406005859375">         <ele>1384.199951171875</ele>         <time>2026-02-28T12:30:07.000Z</time>         <extensions>           <ns3:TrackPointExtension>             <ns3:hr>107</ns3:hr>           </ns3:TrackPointExtension>         </extensions>       </trkpt>
       <trkpt lat="45.5808325298130512237548828125" lon="14.4231724552810192108154296875">         <ele>1383.5999755859375</ele>         <time>2026-02-28T12:30:08.000Z</time>         <extensions>           <ns3:TrackPointExtension>             <ns3:hr>105</ns3:hr>           </ns3:TrackPointExtension>         </extensions>       </trkpt>
       <trkpt lat="45.5807317793369293212890625" lon="14.42301864735782146453857421875">         <ele>1382.199951171875</ele>         <time>2026-02-28T12:30:11.000Z</time>         <extensions>           <ns3:TrackPointExtension>             <ns3:hr>106</ns3:hr>           </ns3:TrackPointExtension>         </extensions>       </trkpt>
       <trkpt lat="45.58063589036464691162109375" lon="14.4228740595281124114990234375">         <ele>1381.199951171875</ele>         <time>2026-02-28T12:30:14.000Z</time>         <extensions>           <ns3:TrackPointExtension>             <ns3:hr>106</ns3:hr>           </ns3:TrackPointExtension>         </extensions>       </trkpt>
       <trkpt lat="45.580577217042446136474609375" lon="14.4227801822125911712646484375">         <ele>1380.5999755859375</ele>         <time>2026-02-28T12:30:16.000Z</time>         <extensions>           <ns3:TrackPointExtension>             <ns3:hr>107</ns3:hr>           </ns3:TrackPointExtension>         </extensions>       </trkpt>
       <trkpt lat="45.58054762892425060272216796875" lon="14.42273114807903766632080078125">         <ele>1380.199951171875</ele>         <time>2026-02-28T12:30:17.000Z</time>         <extensions>           <ns3:TrackPointExtension>             <ns3:hr>107</ns3:hr>           </ns3:TrackPointExtension>         </extensions>       </trkpt>
       <trkpt lat="45.58046364225447177886962890625" lon="14.422614388167858123779296875">         <ele>1379</ele>         <time>2026-02-28T12:30:20.000Z</time>         <extensions>           <ns3:TrackPointExtension>             <ns3:hr>107</ns3:hr>           </ns3:TrackPointExtension>         </extensions>       </trkpt>
       <trkpt lat="45.580404214560985565185546875" lon="14.42256040871143341064453125">         <ele>1378</ele>         <time>2026-02-28T12:30:22.000Z</time>         <extensions>           <ns3:TrackPointExtension>             <ns3:hr>105</ns3:hr>           </ns3:TrackPointExtension>         </extensions>       </trkpt>
       <trkpt lat="45.58037362061440944671630859375" lon="14.42254724912345409393310546875">         <ele>1377.5999755859375</ele>         <time>2026-02-28T12:30:23.000Z</time>         <extensions>           <ns3:TrackPointExtension>             <ns3:hr>104</ns3:hr>           </ns3:TrackPointExtension>         </extensions>       </trkpt>
       <trkpt lat="45.58028711937367916107177734375" lon="14.4224844686686992645263671875">         <ele>1376.800048828125</ele>         <time>2026-02-28T12:30:27.000Z</time>         <extensions>           <ns3:TrackPointExtension>             <ns3:hr>107</ns3:hr>           </ns3:TrackPointExtension>         </extensions>       </trkpt>
       <trkpt lat="45.5802719481289386749267578125" lon="14.42248119972646236419677734375">         <ele>1376.800048828125</ele>         <time>2026-02-28T12:30:28.000Z</time>         <extensions>           <ns3:TrackPointExtension>             <ns3:hr>111</ns3:hr>           </ns3:TrackPointExtension>         </extensions>       </trkpt>
       <trkpt lat="45.580181591212749481201171875" lon="14.422469548881053924560546875">         <ele>1377.199951171875</ele>         <time>2026-02-28T12:30:33.000Z</time>         <extensions>           <ns3:TrackPointExtension>             <ns3:hr>112</ns3:hr>           </ns3:TrackPointExtension>         </extensions>       </trkpt>
       <trkpt lat="45.580140687525272369384765625" lon="14.42242688499391078948974609375">         <ele>1377.4000244140625</ele>         <time>2026-02-28T12:30:40.000Z</time>         <extensions>           <ns3:TrackPointExtension>             <ns3:hr>112</ns3:hr>           </ns3:TrackPointExtension>         </extensions>       </trkpt>
       <trkpt lat="45.58011353015899658203125" lon="14.4223942793905735015869140625">         <ele>1377.199951171875</ele>         <time>2026-02-28T12:30:42.000Z</time>         <extensions>           <ns3:TrackPointExtension>             <ns3:hr>116</ns3:hr>           </ns3:TrackPointExtension>         </extensions>       </trkpt>
       <trkpt lat="45.58010221458971500396728515625" lon="14.422379694879055023193359375">         <ele>1377</ele>         <time>2026-02-28T12:30:43.000Z</time>         <extensions>           <ns3:TrackPointExtension>             <ns3:hr>119</ns3:hr>           </ns3:TrackPointExtension>         </extensions>       </trkpt>
       <trkpt lat="45.580075643956661224365234375" lon="14.4223547168076038360595703125">         <ele>1376.800048828125</ele>         <time>2026-02-28T12:30:45.000Z</time>         <extensions>           <ns3:TrackPointExtension>             <ns3:hr>122</ns3:hr>           </ns3:TrackPointExtension>         </extensions>       </trkpt>
       <trkpt lat="45.580041445791721343994140625" lon="14.422326050698757171630859375">         <ele>1376.4000244140625</ele>         <time>2026-02-28T12:30:47.000Z</time>         <extensions>           <ns3:TrackPointExtension>             <ns3:hr>123</ns3:hr>           </ns3:TrackPointExtension>         </extensions>       </trkpt>
       <trkpt lat="45.57997095398604869842529296875" lon="14.42228120751678943634033203125">         <ele>1375.800048828125</ele>         <time>2026-02-28T12:30:50.000Z</time>         <extensions>           <ns3:TrackPointExtension>             <ns3:hr>125</ns3:hr>           </ns3:TrackPointExtension>         </extensions>       </trkpt>
       <trkpt lat="45.57994245551526546478271484375" lon="14.4222504459321498870849609375">         <ele>1375.4000244140625</ele>         <time>2026-02-28T12:30:52.000Z</time>         <extensions>           <ns3:TrackPointExtension>             <ns3:hr>124</ns3:hr>           </ns3:TrackPointExtension>         </extensions>       </trkpt>
       <trkpt lat="45.5799163877964019775390625" lon="14.42221985198557376861572265625">         <ele>1375</ele>         <time>2026-02-28T12:30:54.000Z</time>         <extensions>           <ns3:TrackPointExtension>             <ns3:hr>123</ns3:hr>           </ns3:TrackPointExtension>         </extensions>       </trkpt>
       <trkpt lat="45.57984732091426849365234375" lon="14.42212446592748165130615234375">         <ele>1374.199951171875</ele>         <time>2026-02-28T12:30:58.000Z</time>         <extensions>           <ns3:TrackPointExtension>             <ns3:hr>123</ns3:hr>           </ns3:TrackPointExtension>         </extensions>       </trkpt>
       <trkpt lat="45.57983399368822574615478515625" lon="14.4220848195254802703857421875">         <ele>1374</ele>         <time>2026-02-28T12:30:59.000Z</time>         <extensions>           <ns3:TrackPointExtension>             <ns3:hr>124</ns3:hr>           </ns3:TrackPointExtension>         </extensions>       </trkpt>
       <trkpt lat="45.57981111109256744384765625" lon="14.42202941514551639556884765625">         <ele>1373.199951171875</ele>         <time>2026-02-28T12:31:01.000Z</time>         <extensions>           <ns3:TrackPointExtension>             <ns3:hr>125</ns3:hr>           </ns3:TrackPointExtension>         </extensions>       </trkpt>
       <trkpt lat="45.5798075906932353973388671875" lon="14.42199873737990856170654296875">         <ele>1372.800048828125</ele>         <time>2026-02-28T12:31:03.000Z</time>         <extensions>           <ns3:TrackPointExtension>             <ns3:hr>125</ns3:hr>           </ns3:TrackPointExtension>         </extensions>       </trkpt>
       <trkpt lat="45.57978571392595767974853515625" lon="14.42192162387073040008544921875">         <ele>1372</ele>         <time>2026-02-28T12:31:10.000Z</time>         <extensions>           <ns3:TrackPointExtension>             <ns3:hr>123</ns3:hr>           </ns3:TrackPointExtension>         </extensions>       </trkpt>
       <trkpt lat="45.5797539465129375457763671875" lon="14.42178650759160518646240234375">         <ele>1371</ele>         <time>2026-02-28T12:31:16.000Z</time>         <extensions>           <ns3:TrackPointExtension>             <ns3:hr>123</ns3:hr>           </ns3:TrackPointExtension>         </extensions>       </trkpt>
       <trkpt lat="45.57974782772362232208251953125" lon="14.4217585958540439605712890625">         <ele>1370.5999755859375</ele>         <time>2026-02-28T12:31:17.000Z</time>         <extensions>           <ns3:TrackPointExtension>             <ns3:hr>123</ns3:hr>           </ns3:TrackPointExtension>         </extensions>       </trkpt>
       <trkpt lat="45.57973056100308895111083984375" lon="14.421682655811309814453125">         <ele>1369.800048828125</ele>         <time>2026-02-28T12:31:20.000Z</time>         <extensions>           <ns3:TrackPointExtension>             <ns3:hr>121</ns3:hr>           </ns3:TrackPointExtension>         </extensions>       </trkpt>
       <trkpt lat="45.57971815578639507293701171875" lon="14.4216410815715789794921875">         <ele>1369.5999755859375</ele>         <time>2026-02-28T12:31:22.000Z</time>         <extensions>           <ns3:TrackPointExtension>             <ns3:hr>120</ns3:hr>           </ns3:TrackPointExtension>         </extensions>       </trkpt>
       <trkpt lat="45.57964120991528034210205078125" lon="14.42147972993552684783935546875">         <ele>1368.5999755859375</ele>         <time>2026-02-28T12:31:27.000Z</time>         <extensions>           <ns3:TrackPointExtension>             <ns3:hr>118</ns3:hr>           </ns3:TrackPointExtension>         </extensions>       </trkpt>
       <trkpt lat="45.57963802479207515716552734375" lon="14.4214467890560626983642578125">         <ele>1367.800048828125</ele>         <time>2026-02-28T12:31:30.000Z</time>         <extensions>           <ns3:TrackPointExtension>             <ns3:hr>118</ns3:hr>           </ns3:TrackPointExtension>         </extensions>       </trkpt>
       <trkpt lat="45.57963986881077289581298828125" lon="14.42144821397960186004638671875">         <ele>1367.5999755859375</ele>         <time>2026-02-28T12:31:31.000Z</time>         <extensions>           <ns3:TrackPointExtension>             <ns3:hr>117</ns3:hr>           </ns3:TrackPointExtension>         </extensions>       </trkpt>
       <trkpt lat="45.57963618077337741851806640625" lon="14.42143564112484455108642578125">         <ele>1367.5999755859375</ele>         <time>2026-02-28T12:31:42.000Z</time>         <extensions>           <ns3:TrackPointExtension>             <ns3:hr>117</ns3:hr>           </ns3:TrackPointExtension>         </extensions>       </trkpt>
       <trkpt lat="45.579635761678218841552734375" lon="14.42144905216991901397705078125">         <ele>1367.800048828125</ele>         <time>2026-02-28T12:31:47.000Z</time>         <extensions>           <ns3:TrackPointExtension>             <ns3:hr>117</ns3:hr>           </ns3:TrackPointExtension>         </extensions>       </trkpt>
       <trkpt lat="45.57962067425251007080078125" lon="14.42141401581466197967529296875">         <ele>1367.800048828125</ele>         <time>2026-02-28T12:31:54.000Z</time>         <extensions>           <ns3:TrackPointExtension>             <ns3:hr>117</ns3:hr>           </ns3:TrackPointExtension>         </extensions>       </trkpt>
       <trkpt lat="45.579586811363697052001953125" lon="14.4214042089879512786865234375">         <ele>1367.5999755859375</ele>         <time>2026-02-28T12:31:57.000Z</time>         <extensions>           <ns3:TrackPointExtension>             <ns3:hr>111</ns3:hr>           </ns3:TrackPointExtension>         </extensions>       </trkpt>
       <trkpt lat="45.57956845499575138092041015625" lon="14.42139339633285999298095703125">         <ele>1367.4000244140625</ele>         <time>2026-02-28T12:31:58.000Z</time>         <extensions>           <ns3:TrackPointExtension>             <ns3:hr>107</ns3:hr>           </ns3:TrackPointExtension>         </extensions>       </trkpt>
       <trkpt lat="45.579523779451847076416015625" lon="14.421367160975933074951171875">         <ele>1367</ele>         <time>2026-02-28T12:32:00.000Z</time>         <extensions>           <ns3:TrackPointExtension>             <ns3:hr>106</ns3:hr>           </ns3:TrackPointExtension>         </extensions>       </trkpt>
       <trkpt lat="45.57946837507188320159912109375" lon="14.42132919095456600189208984375">         <ele>1366.5999755859375</ele>         <time>2026-02-28T12:32:02.000Z</time>         <extensions>           <ns3:TrackPointExtension>             <ns3:hr>107</ns3:hr>           </ns3:TrackPointExtension>         </extensions>       </trkpt>
       <trkpt lat="45.57937148027122020721435546875" lon="14.42125928588211536407470703125">         <ele>1365.199951171875</ele>         <time>2026-02-28T12:32:05.000Z</time>         <extensions>           <ns3:TrackPointExtension>             <ns3:hr>109</ns3:hr>           </ns3:TrackPointExtension>         </extensions>       </trkpt>
       <trkpt lat="45.57935287244617938995361328125" lon="14.42124621011316776275634765625">         <ele>1364.5999755859375</ele>         <time>2026-02-28T12:32:06.000Z</time>         <extensions>           <ns3:TrackPointExtension>             <ns3:hr>110</ns3:hr>           </ns3:TrackPointExtension>         </extensions>       </trkpt>
       <trkpt lat="45.579311884939670562744140625" lon="14.4212172925472259521484375">         <ele>1363.800048828125</ele>         <time>2026-02-28T12:32:08.000Z</time>         <extensions>           <ns3:TrackPointExtension>             <ns3:hr>113</ns3:hr>           </ns3:TrackPointExtension>         </extensions>       </trkpt>
       <trkpt lat="45.5793103761970996856689453125" lon="14.42122005857527256011962890625">         <ele>1363.5999755859375</ele>         <time>2026-02-28T12:32:11.000Z</time>         <extensions>           <ns3:TrackPointExtension>             <ns3:hr>113</ns3:hr>           </ns3:TrackPointExtension>         </extensions>       </trkpt>
       <trkpt lat="45.57929185219109058380126953125" lon="14.42121435888111591339111328125">         <ele>1363.5999755859375</ele>         <time>2026-02-28T12:32:20.000Z</time>         <extensions>           <ns3:TrackPointExtension>             <ns3:hr>115</ns3:hr>           </ns3:TrackPointExtension>         </extensions>       </trkpt>
       <trkpt lat="45.57920233346521854400634765625" lon="14.421157948672771453857421875">         <ele>1362.800048828125</ele>         <time>2026-02-28T12:32:26.000Z</time>         <extensions>           <ns3:TrackPointExtension>             <ns3:hr>112</ns3:hr>           </ns3:TrackPointExtension>         </extensions>       </trkpt>
       <trkpt lat="45.57918171398341655731201171875" lon="14.42114596255123615264892578125">         <ele>1362.5999755859375</ele>         <time>2026-02-28T12:32:27.000Z</time>         <extensions>           <ns3:TrackPointExtension>             <ns3:hr>112</ns3:hr>           </ns3:TrackPointExtension>         </extensions>       </trkpt>
       <trkpt lat="45.57906922884285449981689453125" lon="14.4210719503462314605712890625">         <ele>1361.800048828125</ele>         <time>2026-02-28T12:32:32.000Z</time>         <extensions>           <ns3:TrackPointExtension>             <ns3:hr>110</ns3:hr>           </ns3:TrackPointExtension>         </extensions>       </trkpt>
       <trkpt lat="45.579041652381420135498046875" lon="14.4210447929799556732177734375">         <ele>1361.4000244140625</ele>         <time>2026-02-28T12:32:33.000Z</time>         <extensions>           <ns3:TrackPointExtension>             <ns3:hr>110</ns3:hr>           </ns3:TrackPointExtension>         </extensions>       </trkpt>
       <trkpt lat="45.57894433848559856414794921875" lon="14.42094429396092891693115234375">         <ele>1360.4000244140625</ele>         <time>2026-02-28T12:32:36.000Z</time>         <extensions>           <ns3:TrackPointExtension>             <ns3:hr>109</ns3:hr>           </ns3:TrackPointExtension>         </extensions>       </trkpt>
       <trkpt lat="45.57887359522283077239990234375" lon="14.4208573736250400543212890625">         <ele>1359.199951171875</ele>         <time>2026-02-28T12:32:38.000Z</time>         <extensions>           <ns3:TrackPointExtension>             <ns3:hr>109</ns3:hr>           </ns3:TrackPointExtension>         </extensions>       </trkpt>
       <trkpt lat="45.5788134969770908355712890625" lon="14.42078453488647937774658203125">         <ele>1358</ele>         <time>2026-02-28T12:32:40.000Z</time>         <extensions>           <ns3:TrackPointExtension>             <ns3:hr>108</ns3:hr>           </ns3:TrackPointExtension>         </extensions>       </trkpt>
       <trkpt lat="45.57875432074069976806640625" lon="14.4207078404724597930908203125">         <ele>1357</ele>         <time>2026-02-28T12:32:42.000Z</time>         <extensions>           <ns3:TrackPointExtension>             <ns3:hr>108</ns3:hr>           </ns3:TrackPointExtension>         </extensions>       </trkpt>
       <trkpt lat="45.57872322387993335723876953125" lon="14.4206699542701244354248046875">         <ele>1356.5999755859375</ele>         <time>2026-02-28T12:32:43.000Z</time>         <extensions>           <ns3:TrackPointExtension>             <ns3:hr>108</ns3:hr>           </ns3:TrackPointExtension>         </extensions>       </trkpt>
       <trkpt lat="45.5786649696528911590576171875" lon="14.42060214467346668243408203125">         <ele>1355.800048828125</ele>         <time>2026-02-28T12:32:45.000Z</time>         <extensions>           <ns3:TrackPointExtension>             <ns3:hr>108</ns3:hr>           </ns3:TrackPointExtension>         </extensions>       </trkpt>
       <trkpt lat="45.5785915441811084747314453125" lon="14.4205485843122005462646484375">         <ele>1354.4000244140625</ele>         <time>2026-02-28T12:32:48.000Z</time>         <extensions>           <ns3:TrackPointExtension>             <ns3:hr>108</ns3:hr>           </ns3:TrackPointExtension>         </extensions>       </trkpt>
       <trkpt lat="45.57858307845890522003173828125" lon="14.420545734465122222900390625">         <ele>1354</ele>         <time>2026-02-28T12:32:49.000Z</time>         <extensions>           <ns3:TrackPointExtension>             <ns3:hr>108</ns3:hr>           </ns3:TrackPointExtension>         </extensions>       </trkpt>
       <trkpt lat="45.57851367630064487457275390625" lon="14.4205412082374095916748046875">         <ele>1353.199951171875</ele>         <time>2026-02-28T12:32:55.000Z</time>         <extensions>           <ns3:TrackPointExtension>             <ns3:hr>109</ns3:hr>           </ns3:TrackPointExtension>         </extensions>       </trkpt>
       <trkpt lat="45.5784215591847896575927734375" lon="14.42054808139801025390625">         <ele>1352.199951171875</ele>         <time>2026-02-28T12:32:59.000Z</time>         <extensions>           <ns3:TrackPointExtension>             <ns3:hr>111</ns3:hr>           </ns3:TrackPointExtension>         </extensions>       </trkpt>
       <trkpt lat="45.57839800603687763214111328125" lon="14.42056082189083099365234375">         <ele>1351.800048828125</ele>         <time>2026-02-28T12:33:01.000Z</time>         <extensions>           <ns3:TrackPointExtension>             <ns3:hr>114</ns3:hr>           </ns3:TrackPointExtension>         </extensions>       </trkpt>
       <trkpt lat="45.5783799849450588226318359375" lon="14.420561157166957855224609375">         <ele>1351.5999755859375</ele>         <time>2026-02-28T12:33:07.000Z</time>         <extensions>           <ns3:TrackPointExtension>             <ns3:hr>115</ns3:hr>           </ns3:TrackPointExtension>         </extensions>       </trkpt>
       <trkpt lat="45.57837202213704586029052734375" lon="14.42057314328849315643310546875">         <ele>1351.5999755859375</ele>         <time>2026-02-28T12:33:16.000Z</time>         <extensions>           <ns3:TrackPointExtension>             <ns3:hr>115</ns3:hr>           </ns3:TrackPointExtension>         </extensions>       </trkpt>
       <trkpt lat="45.578377805650234222412109375" lon="14.42055336199700832366943359375">         <ele>1351.5999755859375</ele>         <time>2026-02-28T12:33:24.000Z</time>         <extensions>           <ns3:TrackPointExtension>             <ns3:hr>112</ns3:hr>           </ns3:TrackPointExtension>         </extensions>       </trkpt>
       <trkpt lat="45.57840831577777862548828125" lon="14.42056425847113132476806640625">         <ele>1351.800048828125</ele>         <time>2026-02-28T12:33:32.000Z</time>         <extensions>           <ns3:TrackPointExtension>             <ns3:hr>111</ns3:hr>           </ns3:TrackPointExtension>         </extensions>       </trkpt>
       <trkpt lat="45.57840697467327117919921875" lon="14.42058756016194820404052734375">         <ele>1351.4000244140625</ele>         <time>2026-02-28T12:33:40.000Z</time>         <extensions>           <ns3:TrackPointExtension>             <ns3:hr>111</ns3:hr>           </ns3:TrackPointExtension>         </extensions>       </trkpt>
       <trkpt lat="45.578397251665592193603515625" lon="14.4205871410667896270751953125">         <ele>1351.4000244140625</ele>         <time>2026-02-28T12:33:46.000Z</time>         <extensions>           <ns3:TrackPointExtension>             <ns3:hr>112</ns3:hr>           </ns3:TrackPointExtension>         </extensions>       </trkpt>
       <trkpt lat="45.57838543318212032318115234375" lon="14.4205750711262226104736328125">         <ele>1351.199951171875</ele>         <time>2026-02-28T12:33:49.000Z</time>         <extensions>           <ns3:TrackPointExtension>             <ns3:hr>113</ns3:hr>           </ns3:TrackPointExtension>         </extensions>       </trkpt>
       <trkpt lat="45.5783816613256931304931640625" lon="14.420576579868793487548828125">         <ele>1351</ele>         <time>2026-02-28T12:33:51.000Z</time>         <extensions>           <ns3:TrackPointExtension>             <ns3:hr>110</ns3:hr>           </ns3:TrackPointExtension>         </extensions>       </trkpt>
       <trkpt lat="45.57837788946926593780517578125" lon="14.4205735623836517333984375">         <ele>1351.199951171875</ele>         <time>2026-02-28T12:33:53.000Z</time>         <extensions>           <ns3:TrackPointExtension>             <ns3:hr>111</ns3:hr>           </ns3:TrackPointExtension>         </extensions>       </trkpt>
       <trkpt lat="45.5783518217504024505615234375" lon="14.4205968640744686126708984375">         <ele>1351</ele>         <time>2026-02-28T12:34:00.000Z</time>         <extensions>           <ns3:TrackPointExtension>             <ns3:hr>111</ns3:hr>           </ns3:TrackPointExtension>         </extensions>       </trkpt>
       <trkpt lat="45.5783156119287014007568359375" lon="14.42063458263874053955078125">         <ele>1349.800048828125</ele>         <time>2026-02-28T12:34:03.000Z</time>         <extensions>           <ns3:TrackPointExtension>             <ns3:hr>111</ns3:hr>           </ns3:TrackPointExtension>         </extensions>       </trkpt>
       <trkpt lat="45.57826473377645015716552734375" lon="14.4206552021205425262451171875">         <ele>1348.5999755859375</ele>         <time>2026-02-28T12:34:05.000Z</time>         <extensions>           <ns3:TrackPointExtension>             <ns3:hr>114</ns3:hr>           </ns3:TrackPointExtension>         </extensions>       </trkpt>
       <trkpt lat="45.57824847288429737091064453125" lon="14.4206484965980052947998046875">         <ele>1347.800048828125</ele>         <time>2026-02-28T12:34:06.000Z</time>         <extensions>           <ns3:TrackPointExtension>             <ns3:hr>115</ns3:hr>           </ns3:TrackPointExtension>         </extensions>       </trkpt>
       <trkpt lat="45.578207485377788543701171875" lon="14.420642964541912078857421875">         <ele>1347.199951171875</ele>         <time>2026-02-28T12:34:07.000Z</time>         <extensions>           <ns3:TrackPointExtension>             <ns3:hr>118</ns3:hr>           </ns3:TrackPointExtension>         </extensions>       </trkpt>
       <trkpt lat="45.578178651630878448486328125" lon="14.42062393762171268463134765625">         <ele>1346.800048828125</ele>         <time>2026-02-28T12:34:08.000Z</time>         <extensions>           <ns3:TrackPointExtension>             <ns3:hr>121</ns3:hr>           </ns3:TrackPointExtension>         </extensions>       </trkpt>
       <trkpt lat="45.57816180400550365447998046875" lon="14.4206022284924983978271484375">         <ele>1346.199951171875</ele>         <time>2026-02-28T12:34:09.000Z</time>         <extensions>           <ns3:TrackPointExtension>             <ns3:hr>122</ns3:hr>           </ns3:TrackPointExtension>         </extensions>       </trkpt>
       <trkpt lat="45.5781613849103450775146484375" lon="14.42056911997497081756591796875">         <ele>1345.800048828125</ele>         <time>2026-02-28T12:34:10.000Z</time>         <extensions>           <ns3:TrackPointExtension>             <ns3:hr>122</ns3:hr>           </ns3:TrackPointExtension>         </extensions>       </trkpt>
       <trkpt lat="45.57816557586193084716796875" lon="14.42053592763841152191162109375">         <ele>1345.199951171875</ele>         <time>2026-02-28T12:34:11.000Z</time>         <extensions>           <ns3:TrackPointExtension>             <ns3:hr>122</ns3:hr>           </ns3:TrackPointExtension>         </extensions>       </trkpt>
       <trkpt lat="45.57819181121885776519775390625" lon="14.4204627536237239837646484375">         <ele>1344</ele>         <time>2026-02-28T12:34:13.000Z</time>         <extensions>           <ns3:TrackPointExtension>             <ns3:hr>120</ns3:hr>           </ns3:TrackPointExtension>         </extensions>       </trkpt>
       <trkpt lat="45.5782039649784564971923828125" lon="14.42039913497865200042724609375">         <ele>1342.5999755859375</ele>         <time>2026-02-28T12:34:15.000Z</time>         <extensions>           <ns3:TrackPointExtension>             <ns3:hr>120</ns3:hr>           </ns3:TrackPointExtension>         </extensions>       </trkpt>
       <trkpt lat="45.57820404879748821258544921875" lon="14.42030777223408222198486328125">         <ele>1341.199951171875</ele>         <time>2026-02-28T12:34:17.000Z</time>         <extensions>           <ns3:TrackPointExtension>             <ns3:hr>120</ns3:hr>           </ns3:TrackPointExtension>         </extensions>       </trkpt>
       <trkpt lat="45.5782019533216953277587890625" lon="14.42025613971054553985595703125">         <ele>1340.4000244140625</ele>         <time>2026-02-28T12:34:18.000Z</time>         <extensions>           <ns3:TrackPointExtension>             <ns3:hr>120</ns3:hr>           </ns3:TrackPointExtension>         </extensions>       </trkpt>
       <trkpt lat="45.578194074332714080810546875" lon="14.42021423019468784332275390625">         <ele>1339.5999755859375</ele>         <time>2026-02-28T12:34:19.000Z</time>         <extensions>           <ns3:TrackPointExtension>             <ns3:hr>119</ns3:hr>           </ns3:TrackPointExtension>         </extensions>       </trkpt>
       <trkpt lat="45.57817169465124607086181640625" lon="14.42012253217399120330810546875">         <ele>1338.199951171875</ele>         <time>2026-02-28T12:34:21.000Z</time>         <extensions>           <ns3:TrackPointExtension>             <ns3:hr>120</ns3:hr>           </ns3:TrackPointExtension>         </extensions>       </trkpt>
       <trkpt lat="45.57816448621451854705810546875" lon="14.4200101308524608612060546875">         <ele>1337.5999755859375</ele>         <time>2026-02-28T12:34:24.000Z</time>         <extensions>           <ns3:TrackPointExtension>             <ns3:hr>120</ns3:hr>           </ns3:TrackPointExtension>         </extensions>       </trkpt>
       <trkpt lat="45.57817236520349979400634765625" lon="14.41989823244512081146240234375">         <ele>1337</ele>         <time>2026-02-28T12:34:27.000Z</time>         <extensions>           <ns3:TrackPointExtension>             <ns3:hr>123</ns3:hr>           </ns3:TrackPointExtension>         </extensions>       </trkpt>
       <trkpt lat="45.57813816703855991363525390625" lon="14.419726319611072540283203125">         <ele>1336.4000244140625</ele>         <time>2026-02-28T12:34:31.000Z</time>         <extensions>           <ns3:TrackPointExtension>             <ns3:hr>124</ns3:hr>           </ns3:TrackPointExtension>         </extensions>       </trkpt>
       <trkpt lat="45.57810950092971324920654296875" lon="14.4196433387696743011474609375">         <ele>1335.800048828125</ele>         <time>2026-02-28T12:34:33.000Z</time>         <extensions>           <ns3:TrackPointExtension>             <ns3:hr>124</ns3:hr>           </ns3:TrackPointExtension>         </extensions>       </trkpt>
       <trkpt lat="45.57804747484624385833740234375" lon="14.41954334266483783721923828125">         <ele>1334.5999755859375</ele>         <time>2026-02-28T12:34:36.000Z</time>         <extensions>           <ns3:TrackPointExtension>             <ns3:hr>123</ns3:hr>           </ns3:TrackPointExtension>         </extensions>       </trkpt>
       <trkpt lat="45.577968768775463104248046875" lon="14.41940353251993656158447265625">         <ele>1333.5999755859375</ele>         <time>2026-02-28T12:34:40.000Z</time>         <extensions>           <ns3:TrackPointExtension>             <ns3:hr>124</ns3:hr>           </ns3:TrackPointExtension>         </extensions>       </trkpt>
       <trkpt lat="45.5779350735247135162353515625" lon="14.41935441456735134124755859375">         <ele>1333.199951171875</ele>         <time>2026-02-28T12:34:42.000Z</time>         <extensions>           <ns3:TrackPointExtension>             <ns3:hr>125</ns3:hr>           </ns3:TrackPointExtension>         </extensions>       </trkpt>
       <trkpt lat="45.57785837911069393157958984375" lon="14.41933195106685161590576171875">         <ele>1332.5999755859375</ele>         <time>2026-02-28T12:34:46.000Z</time>         <extensions>           <ns3:TrackPointExtension>             <ns3:hr>126</ns3:hr>           </ns3:TrackPointExtension>         </extensions>       </trkpt>
       <trkpt lat="45.57783977128565311431884765625" lon="14.41929624415934085845947265625">         <ele>1332.5999755859375</ele>         <time>2026-02-28T12:34:48.000Z</time>         <extensions>           <ns3:TrackPointExtension>             <ns3:hr>127</ns3:hr>           </ns3:TrackPointExtension>         </extensions>       </trkpt>
       <trkpt lat="45.57779685594141483306884765625" lon="14.41927042789757251739501953125">         <ele>1333</ele>         <time>2026-02-28T12:34:52.000Z</time>         <extensions>           <ns3:TrackPointExtension>             <ns3:hr>130</ns3:hr>           </ns3:TrackPointExtension>         </extensions>       </trkpt>
       <trkpt lat="45.57778545655310153961181640625" lon="14.41925718449056148529052734375">         <ele>1332.800048828125</ele>         <time>2026-02-28T12:34:56.000Z</time>         <extensions>           <ns3:TrackPointExtension>             <ns3:hr>130</ns3:hr>           </ns3:TrackPointExtension>         </extensions>       </trkpt>
       <trkpt lat="45.57773700915277004241943359375" lon="14.41922248341143131256103515625">         <ele>1332.5999755859375</ele>         <time>2026-02-28T12:35:02.000Z</time>         <extensions>           <ns3:TrackPointExtension>             <ns3:hr>123</ns3:hr>           </ns3:TrackPointExtension>         </extensions>       </trkpt>
       <trkpt lat="45.5777285434305667877197265625" lon="14.4192084856331348419189453125">         <ele>1332.4000244140625</ele>         <time>2026-02-28T12:35:03.000Z</time>         <extensions>           <ns3:TrackPointExtension>             <ns3:hr>122</ns3:hr>           </ns3:TrackPointExtension>         </extensions>       </trkpt>
       <trkpt lat="45.5776311457157135009765625" lon="14.41912726499140262603759765625">         <ele>1331.4000244140625</ele>         <time>2026-02-28T12:35:08.000Z</time>         <extensions>           <ns3:TrackPointExtension>             <ns3:hr>120</ns3:hr>           </ns3:TrackPointExtension>         </extensions>       </trkpt>
       <trkpt lat="45.5776108615100383758544921875" lon="14.41911804489791393280029296875">         <ele>1331</ele>         <time>2026-02-28T12:35:09.000Z</time>         <extensions>           <ns3:TrackPointExtension>             <ns3:hr>120</ns3:hr>           </ns3:TrackPointExtension>         </extensions>       </trkpt>
       <trkpt lat="45.5775572173297405242919921875" lon="14.41911242902278900146484375">         <ele>1330.199951171875</ele>         <time>2026-02-28T12:35:12.000Z</time>         <extensions>           <ns3:TrackPointExtension>             <ns3:hr>119</ns3:hr>           </ns3:TrackPointExtension>         </extensions>       </trkpt>
       <trkpt lat="45.57753793895244598388671875" lon="14.4191085733473300933837890625">         <ele>1329.5999755859375</ele>         <time>2026-02-28T12:35:14.000Z</time>         <extensions>           <ns3:TrackPointExtension>             <ns3:hr>119</ns3:hr>           </ns3:TrackPointExtension>         </extensions>       </trkpt>
       <trkpt lat="45.57748622260987758636474609375" lon="14.41910329274833202362060546875">         <ele>1329.199951171875</ele>         <time>2026-02-28T12:35:18.000Z</time>         <extensions>           <ns3:TrackPointExtension>             <ns3:hr>119</ns3:hr>           </ns3:TrackPointExtension>         </extensions>       </trkpt>
       <trkpt lat="45.57745118625462055206298828125" lon="14.41909071989357471466064453125">         <ele>1328.800048828125</ele>         <time>2026-02-28T12:35:21.000Z</time>         <extensions>           <ns3:TrackPointExtension>             <ns3:hr>119</ns3:hr>           </ns3:TrackPointExtension>         </extensions>       </trkpt>
       <trkpt lat="45.57739351876080036163330078125" lon="14.419055767357349395751953125">         <ele>1328</ele>         <time>2026-02-28T12:35:24.000Z</time>         <extensions>           <ns3:TrackPointExtension>             <ns3:hr>118</ns3:hr>           </ns3:TrackPointExtension>         </extensions>       </trkpt>
       <trkpt lat="45.5773748271167278289794921875" lon="14.41904428415000438690185546875">         <ele>1327.800048828125</ele>         <time>2026-02-28T12:35:26.000Z</time>         <extensions>           <ns3:TrackPointExtension>             <ns3:hr>118</ns3:hr>           </ns3:TrackPointExtension>         </extensions>       </trkpt>
       <trkpt lat="45.577367953956127166748046875" lon="14.41903657279908657073974609375">         <ele>1327.5999755859375</ele>         <time>2026-02-28T12:35:33.000Z</time>         <extensions>           <ns3:TrackPointExtension>             <ns3:hr>119</ns3:hr>           </ns3:TrackPointExtension>         </extensions>       </trkpt>
       <trkpt lat="45.57736485265195369720458984375" lon="14.419037662446498870849609375">         <ele>1327.800048828125</ele>         <time>2026-02-28T12:35:35.000Z</time>         <extensions>           <ns3:TrackPointExtension>             <ns3:hr>116</ns3:hr>           </ns3:TrackPointExtension>         </extensions>       </trkpt>
       <trkpt lat="45.57734222151339054107666015625" lon="14.41900916397571563720703125">         <ele>1327.4000244140625</ele>         <time>2026-02-28T12:35:39.000Z</time>         <extensions>           <ns3:TrackPointExtension>             <ns3:hr>113</ns3:hr>           </ns3:TrackPointExtension>         </extensions>       </trkpt>
       <trkpt lat="45.57732143439352512359619140625" lon="14.418998770415782928466796875">         <ele>1327</ele>         <time>2026-02-28T12:35:42.000Z</time>         <extensions>           <ns3:TrackPointExtension>             <ns3:hr>110</ns3:hr>           </ns3:TrackPointExtension>         </extensions>       </trkpt>
       <trkpt lat="45.5773221887648105621337890625" lon="14.4189952500164508819580078125">         <ele>1326.5999755859375</ele>         <time>2026-02-28T12:35:44.000Z</time>         <extensions>           <ns3:TrackPointExtension>             <ns3:hr>108</ns3:hr>           </ns3:TrackPointExtension>         </extensions>       </trkpt>
       <trkpt lat="45.5773071013391017913818359375" lon="14.4189640693366527557373046875">         <ele>1327</ele>         <time>2026-02-28T12:35:52.000Z</time>         <extensions>           <ns3:TrackPointExtension>             <ns3:hr>109</ns3:hr>           </ns3:TrackPointExtension>         </extensions>       </trkpt>
       <trkpt lat="45.577235855162143707275390625" lon="14.41889776848256587982177734375">         <ele>1325.800048828125</ele>         <time>2026-02-28T12:35:57.000Z</time>         <extensions>           <ns3:TrackPointExtension>             <ns3:hr>111</ns3:hr>           </ns3:TrackPointExtension>         </extensions>       </trkpt>
       <trkpt lat="45.577176511287689208984375" lon="14.41886340267956256866455078125">         <ele>1324.5999755859375</ele>         <time>2026-02-28T12:36:00.000Z</time>         <extensions>           <ns3:TrackPointExtension>             <ns3:hr>112</ns3:hr>           </ns3:TrackPointExtension>         </extensions>       </trkpt>
       <trkpt lat="45.57714164257049560546875" lon="14.41883943043649196624755859375">         <ele>1323.800048828125</ele>         <time>2026-02-28T12:36:02.000Z</time>         <extensions>           <ns3:TrackPointExtension>             <ns3:hr>118</ns3:hr>           </ns3:TrackPointExtension>         </extensions>       </trkpt>
       <trkpt lat="45.57712781243026256561279296875" lon="14.41883205436170101165771484375">         <ele>1323.4000244140625</ele>         <time>2026-02-28T12:36:03.000Z</time>         <extensions>           <ns3:TrackPointExtension>             <ns3:hr>122</ns3:hr>           </ns3:TrackPointExtension>         </extensions>       </trkpt>
       <trkpt lat="45.57707634754478931427001953125" lon="14.41880799829959869384765625">         <ele>1322.5999755859375</ele>         <time>2026-02-28T12:36:06.000Z</time>         <extensions>           <ns3:TrackPointExtension>             <ns3:hr>125</ns3:hr>           </ns3:TrackPointExtension>         </extensions>       </trkpt>
       <trkpt lat="45.5770422331988811492919921875" lon="14.418792910873889923095703125">         <ele>1322.199951171875</ele>         <time>2026-02-28T12:36:08.000Z</time>         <extensions>           <ns3:TrackPointExtension>             <ns3:hr>125</ns3:hr>           </ns3:TrackPointExtension>         </extensions>       </trkpt>
       <trkpt lat="45.5769768543541431427001953125" lon="14.4187518395483493804931640625">         <ele>1321.199951171875</ele>         <time>2026-02-28T12:36:11.000Z</time>         <extensions>           <ns3:TrackPointExtension>             <ns3:hr>126</ns3:hr>           </ns3:TrackPointExtension>         </extensions>       </trkpt>
       <trkpt lat="45.57690300978720188140869140625" lon="14.4186790846288204193115234375">         <ele>1320</ele>         <time>2026-02-28T12:36:14.000Z</time>         <extensions>           <ns3:TrackPointExtension>             <ns3:hr>126</ns3:hr>           </ns3:TrackPointExtension>         </extensions>       </trkpt>
       <trkpt lat="45.57682656683027744293212890625" lon="14.41858395002782344818115234375">         <ele>1318.800048828125</ele>         <time>2026-02-28T12:36:17.000Z</time>         <extensions>           <ns3:TrackPointExtension>             <ns3:hr>125</ns3:hr>           </ns3:TrackPointExtension>         </extensions>       </trkpt>
       <trkpt lat="45.57674777694046497344970703125" lon="14.41845235414803028106689453125">         <ele>1317.800048828125</ele>         <time>2026-02-28T12:36:20.000Z</time>         <extensions>           <ns3:TrackPointExtension>             <ns3:hr>125</ns3:hr>           </ns3:TrackPointExtension>         </extensions>       </trkpt>
       <trkpt lat="45.5766727589070796966552734375" lon="14.4183082692325115203857421875">         <ele>1316.4000244140625</ele>         <time>2026-02-28T12:36:23.000Z</time>         <extensions>           <ns3:TrackPointExtension>             <ns3:hr>126</ns3:hr>           </ns3:TrackPointExtension>         </extensions>       </trkpt>
       <trkpt lat="45.5766157619655132293701171875" lon="14.4181795231997966766357421875">         <ele>1315.199951171875</ele>         <time>2026-02-28T12:36:26.000Z</time>         <extensions>           <ns3:TrackPointExtension>             <ns3:hr>127</ns3:hr>           </ns3:TrackPointExtension>         </extensions>       </trkpt>
       <trkpt lat="45.57654954493045806884765625" lon="14.4179780222475528717041015625">         <ele>1313.800048828125</ele>         <time>2026-02-28T12:36:30.000Z</time>         <extensions>           <ns3:TrackPointExtension>             <ns3:hr>128</ns3:hr>           </ns3:TrackPointExtension>         </extensions>       </trkpt>
       <trkpt lat="45.57651760987937450408935546875" lon="14.4178301654756069183349609375">         <ele>1312.5999755859375</ele>         <time>2026-02-28T12:36:33.000Z</time>         <extensions>           <ns3:TrackPointExtension>             <ns3:hr>128</ns3:hr>           </ns3:TrackPointExtension>         </extensions>       </trkpt>
       <trkpt lat="45.57648894377052783966064453125" lon="14.4176799617707729339599609375">         <ele>1311.4000244140625</ele>         <time>2026-02-28T12:36:36.000Z</time>         <extensions>           <ns3:TrackPointExtension>             <ns3:hr>128</ns3:hr>           </ns3:TrackPointExtension>         </extensions>       </trkpt>
       <trkpt lat="45.57645441032946109771728515625" lon="14.4175002537667751312255859375">         <ele>1310.199951171875</ele>         <time>2026-02-28T12:36:39.000Z</time>         <extensions>           <ns3:TrackPointExtension>             <ns3:hr>127</ns3:hr>           </ns3:TrackPointExtension>         </extensions>       </trkpt>
       <trkpt lat="45.576421804726123809814453125" lon="14.41733839921653270721435546875">         <ele>1308.800048828125</ele>         <time>2026-02-28T12:36:42.000Z</time>         <extensions>           <ns3:TrackPointExtension>             <ns3:hr>127</ns3:hr>           </ns3:TrackPointExtension>         </extensions>       </trkpt>
       <trkpt lat="45.57640143670141696929931640625" lon="14.4172327034175395965576171875">         <ele>1307.800048828125</ele>         <time>2026-02-28T12:36:44.000Z</time>         <extensions>           <ns3:TrackPointExtension>             <ns3:hr>127</ns3:hr>           </ns3:TrackPointExtension>         </extensions>       </trkpt>
       <trkpt lat="45.57637863792479038238525390625" lon="14.41710102371871471405029296875">         <ele>1306.5999755859375</ele>         <time>2026-02-28T12:36:46.000Z</time>         <extensions>           <ns3:TrackPointExtension>             <ns3:hr>127</ns3:hr>           </ns3:TrackPointExtension>         </extensions>       </trkpt>
       <trkpt lat="45.57635131292045116424560546875" lon="14.4169778935611248016357421875">         <ele>1305.4000244140625</ele>         <time>2026-02-28T12:36:48.000Z</time>         <extensions>           <ns3:TrackPointExtension>             <ns3:hr>126</ns3:hr>           </ns3:TrackPointExtension>         </extensions>       </trkpt>
       <trkpt lat="45.5763341300189495086669921875" lon="14.416914694011211395263671875">         <ele>1305</ele>         <time>2026-02-28T12:36:49.000Z</time>         <extensions>           <ns3:TrackPointExtension>             <ns3:hr>126</ns3:hr>           </ns3:TrackPointExtension>         </extensions>       </trkpt>
       <trkpt lat="45.57631057687103748321533203125" lon="14.41680832765996456146240234375">         <ele>1304.4000244140625</ele>         <time>2026-02-28T12:36:51.000Z</time>         <extensions>           <ns3:TrackPointExtension>             <ns3:hr>126</ns3:hr>           </ns3:TrackPointExtension>         </extensions>       </trkpt>
       <trkpt lat="45.5762578547000885009765625" lon="14.41653080284595489501953125">         <ele>1303.4000244140625</ele>         <time>2026-02-28T12:36:56.000Z</time>         <extensions>           <ns3:TrackPointExtension>             <ns3:hr>128</ns3:hr>           </ns3:TrackPointExtension>         </extensions>       </trkpt>
       <trkpt lat="45.57620479725301265716552734375" lon="14.416224025189876556396484375">         <ele>1302.199951171875</ele>         <time>2026-02-28T12:37:02.000Z</time>         <extensions>           <ns3:TrackPointExtension>             <ns3:hr>128</ns3:hr>           </ns3:TrackPointExtension>         </extensions>       </trkpt>
       <trkpt lat="45.5761738680303096771240234375" lon="14.41610357724130153656005859375">         <ele>1302</ele>         <time>2026-02-28T12:37:05.000Z</time>         <extensions>           <ns3:TrackPointExtension>             <ns3:hr>128</ns3:hr>           </ns3:TrackPointExtension>         </extensions>       </trkpt>
       <trkpt lat="45.57614729739725589752197265625" lon="14.41601372323930263519287109375">         <ele>1301.800048828125</ele>         <time>2026-02-28T12:37:11.000Z</time>         <extensions>           <ns3:TrackPointExtension>             <ns3:hr>130</ns3:hr>           </ns3:TrackPointExtension>         </extensions>       </trkpt>
       <trkpt lat="45.5761088244616985321044921875" lon="14.41593979485332965850830078125">         <ele>1302.199951171875</ele>         <time>2026-02-28T12:37:17.000Z</time>         <extensions>           <ns3:TrackPointExtension>             <ns3:hr>127</ns3:hr>           </ns3:TrackPointExtension>         </extensions>       </trkpt>
       <trkpt lat="45.57611343450844287872314453125" lon="14.415932334959506988525390625">         <ele>1302.199951171875</ele>         <time>2026-02-28T12:37:19.000Z</time>         <extensions>           <ns3:TrackPointExtension>             <ns3:hr>126</ns3:hr>           </ns3:TrackPointExtension>         </extensions>       </trkpt>
       <trkpt lat="45.57611779309809207916259765625" lon="14.41592453978955745697021484375">         <ele>1302.199951171875</ele>         <time>2026-02-28T12:37:22.000Z</time>         <extensions>           <ns3:TrackPointExtension>             <ns3:hr>123</ns3:hr>           </ns3:TrackPointExtension>         </extensions>       </trkpt>
       <trkpt lat="45.57611309923231601715087890625" lon="14.4159130565822124481201171875">         <ele>1302.199951171875</ele>         <time>2026-02-28T12:37:25.000Z</time>         <extensions>           <ns3:TrackPointExtension>             <ns3:hr>120</ns3:hr>           </ns3:TrackPointExtension>         </extensions>       </trkpt>
       <trkpt lat="45.57609021663665771484375" lon="14.41587768495082855224609375">         <ele>1302.199951171875</ele>         <time>2026-02-28T12:37:29.000Z</time>         <extensions>           <ns3:TrackPointExtension>             <ns3:hr>123</ns3:hr>           </ns3:TrackPointExtension>         </extensions>       </trkpt>
       <trkpt lat="45.57605610229074954986572265625" lon="14.41582496277987957000732421875">         <ele>1302</ele>         <time>2026-02-28T12:37:35.000Z</time>         <extensions>           <ns3:TrackPointExtension>             <ns3:hr>126</ns3:hr>           </ns3:TrackPointExtension>         </extensions>       </trkpt>
       <trkpt lat="45.5760521627962589263916015625" lon="14.4158161617815494537353515625">         <ele>1302</ele>         <time>2026-02-28T12:37:36.000Z</time>         <extensions>           <ns3:TrackPointExtension>             <ns3:hr>126</ns3:hr>           </ns3:TrackPointExtension>         </extensions>       </trkpt>
       <trkpt lat="45.57601721026003360748291015625" lon="14.415745921432971954345703125">         <ele>1302</ele>         <time>2026-02-28T12:37:41.000Z</time>         <extensions>           <ns3:TrackPointExtension>             <ns3:hr>126</ns3:hr>           </ns3:TrackPointExtension>         </extensions>       </trkpt>
       <trkpt lat="45.57598904706537723541259765625" lon="14.41568096168339252471923828125">         <ele>1302</ele>         <time>2026-02-28T12:37:48.000Z</time>         <extensions>           <ns3:TrackPointExtension>             <ns3:hr>123</ns3:hr>           </ns3:TrackPointExtension>         </extensions>       </trkpt>
       <trkpt lat="45.575964152812957763671875" lon="14.41564030945301055908203125">         <ele>1302</ele>         <time>2026-02-28T12:37:54.000Z</time>         <extensions>           <ns3:TrackPointExtension>             <ns3:hr>124</ns3:hr>           </ns3:TrackPointExtension>         </extensions>       </trkpt>
       <trkpt lat="45.57596222497522830963134765625" lon="14.41563184373080730438232421875">         <ele>1302</ele>         <time>2026-02-28T12:37:57.000Z</time>         <extensions>           <ns3:TrackPointExtension>             <ns3:hr>125</ns3:hr>           </ns3:TrackPointExtension>         </extensions>       </trkpt>
       <trkpt lat="45.575955100357532501220703125" lon="14.41561524756252765655517578125">         <ele>1302</ele>         <time>2026-02-28T12:38:01.000Z</time>         <extensions>           <ns3:TrackPointExtension>             <ns3:hr>125</ns3:hr>           </ns3:TrackPointExtension>         </extensions>       </trkpt>
       <trkpt lat="45.57593842037022113800048828125" lon="14.41558398306369781494140625">         <ele>1302.199951171875</ele>         <time>2026-02-28T12:38:06.000Z</time>         <extensions>           <ns3:TrackPointExtension>             <ns3:hr>122</ns3:hr>           </ns3:TrackPointExtension>         </extensions>       </trkpt>
       <trkpt lat="45.57593154720962047576904296875" lon="14.41556713543832302093505859375">         <ele>1302.199951171875</ele>         <time>2026-02-28T12:38:07.000Z</time>         <extensions>           <ns3:TrackPointExtension>             <ns3:hr>123</ns3:hr>           </ns3:TrackPointExtension>         </extensions>       </trkpt>
       <trkpt lat="45.575913526117801666259765625" lon="14.41553478129208087921142578125">         <ele>1302.199951171875</ele>         <time>2026-02-28T12:38:12.000Z</time>         <extensions>           <ns3:TrackPointExtension>             <ns3:hr>119</ns3:hr>           </ns3:TrackPointExtension>         </extensions>       </trkpt>
       <trkpt lat="45.57590824551880359649658203125" lon="14.41552807576954364776611328125">         <ele>1302.199951171875</ele>         <time>2026-02-28T12:38:13.000Z</time>         <extensions>           <ns3:TrackPointExtension>             <ns3:hr>118</ns3:hr>           </ns3:TrackPointExtension>         </extensions>       </trkpt>
       <trkpt lat="45.5758711136877536773681640625" lon="14.4154949672520160675048828125">         <ele>1302.199951171875</ele>         <time>2026-02-28T12:38:18.000Z</time>         <extensions>           <ns3:TrackPointExtension>             <ns3:hr>116</ns3:hr>           </ns3:TrackPointExtension>         </extensions>       </trkpt>
       <trkpt lat="45.57584973983466625213623046875" lon="14.4154480285942554473876953125">         <ele>1302</ele>         <time>2026-02-28T12:38:24.000Z</time>         <extensions>           <ns3:TrackPointExtension>             <ns3:hr>115</ns3:hr>           </ns3:TrackPointExtension>         </extensions>       </trkpt>
       <trkpt lat="45.57583180256187915802001953125" lon="14.41538910381495952606201171875">         <ele>1302</ele>         <time>2026-02-28T12:38:29.000Z</time>         <extensions>           <ns3:TrackPointExtension>             <ns3:hr>116</ns3:hr>           </ns3:TrackPointExtension>         </extensions>       </trkpt>
       <trkpt lat="45.575831048190593719482421875" lon="14.4153568334877490997314453125">         <ele>1302.199951171875</ele>         <time>2026-02-28T12:38:33.000Z</time>         <extensions>           <ns3:TrackPointExtension>             <ns3:hr>117</ns3:hr>           </ns3:TrackPointExtension>         </extensions>       </trkpt>
       <trkpt lat="45.57580657303333282470703125" lon="14.4153062067925930023193359375">         <ele>1302</ele>         <time>2026-02-28T12:38:37.000Z</time>         <extensions>           <ns3:TrackPointExtension>             <ns3:hr>118</ns3:hr>           </ns3:TrackPointExtension>         </extensions>       </trkpt>
       <trkpt lat="45.5757826007902622222900390625" lon="14.41522817127406597137451171875">         <ele>1302</ele>         <time>2026-02-28T12:38:43.000Z</time>         <extensions>           <ns3:TrackPointExtension>             <ns3:hr>118</ns3:hr>           </ns3:TrackPointExtension>         </extensions>       </trkpt>
       <trkpt lat="45.5757437087595462799072265625" lon="14.4151650555431842803955078125">         <ele>1301.800048828125</ele>         <time>2026-02-28T12:38:48.000Z</time>         <extensions>           <ns3:TrackPointExtension>             <ns3:hr>118</ns3:hr>           </ns3:TrackPointExtension>         </extensions>       </trkpt>
       <trkpt lat="45.57570397853851318359375" lon="14.4151087291538715362548828125">         <ele>1302</ele>         <time>2026-02-28T12:38:53.000Z</time>         <extensions>           <ns3:TrackPointExtension>             <ns3:hr>118</ns3:hr>           </ns3:TrackPointExtension>         </extensions>       </trkpt>
       <trkpt lat="45.575693584978580474853515625" lon="14.41509020514786243438720703125">         <ele>1302</ele>         <time>2026-02-28T12:38:55.000Z</time>         <extensions>           <ns3:TrackPointExtension>             <ns3:hr>121</ns3:hr>           </ns3:TrackPointExtension>         </extensions>       </trkpt>
       <trkpt lat="45.5756800062954425811767578125" lon="14.41506053321063518524169921875">         <ele>1302</ele>         <time>2026-02-28T12:38:57.000Z</time>         <extensions>           <ns3:TrackPointExtension>             <ns3:hr>122</ns3:hr>           </ns3:TrackPointExtension>         </extensions>       </trkpt>
       <trkpt lat="45.57564136572182178497314453125" lon="14.41497839055955410003662109375">         <ele>1301.800048828125</ele>         <time>2026-02-28T12:39:02.000Z</time>         <extensions>           <ns3:TrackPointExtension>             <ns3:hr>123</ns3:hr>           </ns3:TrackPointExtension>         </extensions>       </trkpt>
       <trkpt lat="45.575618483126163482666015625" lon="14.414917118847370147705078125">         <ele>1301.800048828125</ele>         <time>2026-02-28T12:39:06.000Z</time>         <extensions>           <ns3:TrackPointExtension>             <ns3:hr>124</ns3:hr>           </ns3:TrackPointExtension>         </extensions>       </trkpt>
       <trkpt lat="45.57559736073017120361328125" lon="14.41488518379628658294677734375">         <ele>1302</ele>         <time>2026-02-28T12:39:09.000Z</time>         <extensions>           <ns3:TrackPointExtension>             <ns3:hr>126</ns3:hr>           </ns3:TrackPointExtension>         </extensions>       </trkpt>
       <trkpt lat="45.57557724416255950927734375" lon="14.41484243609011173248291015625">         <ele>1302</ele>         <time>2026-02-28T12:39:12.000Z</time>         <extensions>           <ns3:TrackPointExtension>             <ns3:hr>126</ns3:hr>           </ns3:TrackPointExtension>         </extensions>       </trkpt>
       <trkpt lat="45.57555369101464748382568359375" lon="14.41480186767876148223876953125">         <ele>1302</ele>         <time>2026-02-28T12:39:15.000Z</time>         <extensions>           <ns3:TrackPointExtension>             <ns3:hr>127</ns3:hr>           </ns3:TrackPointExtension>         </extensions>       </trkpt>
       <trkpt lat="45.57553441263735294342041015625" lon="14.41475710831582546234130859375">         <ele>1302</ele>         <time>2026-02-28T12:39:18.000Z</time>         <extensions>           <ns3:TrackPointExtension>             <ns3:hr>126</ns3:hr>           </ns3:TrackPointExtension>         </extensions>       </trkpt>
       <trkpt lat="45.5755214206874370574951171875" lon="14.41470958292484283447265625">         <ele>1302</ele>         <time>2026-02-28T12:39:21.000Z</time>         <extensions>           <ns3:TrackPointExtension>             <ns3:hr>123</ns3:hr>           </ns3:TrackPointExtension>         </extensions>       </trkpt>
       <trkpt lat="45.57551278732717037200927734375" lon="14.414689801633358001708984375">         <ele>1302</ele>         <time>2026-02-28T12:39:22.000Z</time>         <extensions>           <ns3:TrackPointExtension>             <ns3:hr>122</ns3:hr>           </ns3:TrackPointExtension>         </extensions>       </trkpt>
       <trkpt lat="45.5754855461418628692626953125" lon="14.41463741473853588104248046875">         <ele>1302</ele>         <time>2026-02-28T12:39:26.000Z</time>         <extensions>           <ns3:TrackPointExtension>             <ns3:hr>120</ns3:hr>           </ns3:TrackPointExtension>         </extensions>       </trkpt>
       <trkpt lat="45.57546081952750682830810546875" lon="14.41459047608077526092529296875">         <ele>1302</ele>         <time>2026-02-28T12:39:30.000Z</time>         <extensions>           <ns3:TrackPointExtension>             <ns3:hr>122</ns3:hr>           </ns3:TrackPointExtension>         </extensions>       </trkpt>
       <trkpt lat="45.57544338516891002655029296875" lon="14.41456340253353118896484375">         <ele>1301.800048828125</ele>         <time>2026-02-28T12:39:32.000Z</time>         <extensions>           <ns3:TrackPointExtension>             <ns3:hr>125</ns3:hr>           </ns3:TrackPointExtension>         </extensions>       </trkpt>
       <trkpt lat="45.57539829052984714508056640625" lon="14.41451336257159709930419921875">         <ele>1302</ele>         <time>2026-02-28T12:39:36.000Z</time>         <extensions>           <ns3:TrackPointExtension>             <ns3:hr>127</ns3:hr>           </ns3:TrackPointExtension>         </extensions>       </trkpt>
       <trkpt lat="45.5753618292510509490966796875" lon="14.41447597928345203399658203125">         <ele>1301.800048828125</ele>         <time>2026-02-28T12:39:40.000Z</time>         <extensions>           <ns3:TrackPointExtension>             <ns3:hr>127</ns3:hr>           </ns3:TrackPointExtension>         </extensions>       </trkpt>
       <trkpt lat="45.5753155611455440521240234375" lon="14.4144324772059917449951171875">         <ele>1301.800048828125</ele>         <time>2026-02-28T12:39:46.000Z</time>         <extensions>           <ns3:TrackPointExtension>             <ns3:hr>127</ns3:hr>           </ns3:TrackPointExtension>         </extensions>       </trkpt>
       <trkpt lat="45.57527440600097179412841796875" lon="14.41440138034522533416748046875">         <ele>1301.800048828125</ele>         <time>2026-02-28T12:39:50.000Z</time>         <extensions>           <ns3:TrackPointExtension>             <ns3:hr>128</ns3:hr>           </ns3:TrackPointExtension>         </extensions>       </trkpt>
       <trkpt lat="45.57524037547409534454345703125" lon="14.41436785273253917694091796875">         <ele>1301.800048828125</ele>         <time>2026-02-28T12:39:53.000Z</time>         <extensions>           <ns3:TrackPointExtension>             <ns3:hr>131</ns3:hr>           </ns3:TrackPointExtension>         </extensions>       </trkpt>
       <trkpt lat="45.57519435882568359375" lon="14.4143050722777843475341796875">         <ele>1301.800048828125</ele>         <time>2026-02-28T12:39:59.000Z</time>         <extensions>           <ns3:TrackPointExtension>             <ns3:hr>131</ns3:hr>           </ns3:TrackPointExtension>         </extensions>       </trkpt>
       <trkpt lat="45.5751566402614116668701171875" lon="14.41423080861568450927734375">         <ele>1301.800048828125</ele>         <time>2026-02-28T12:40:05.000Z</time>         <extensions>           <ns3:TrackPointExtension>             <ns3:hr>132</ns3:hr>           </ns3:TrackPointExtension>         </extensions>       </trkpt>
       <trkpt lat="45.575129650533199310302734375" lon="14.41416534595191478729248046875">         <ele>1302</ele>         <time>2026-02-28T12:40:10.000Z</time>         <extensions>           <ns3:TrackPointExtension>             <ns3:hr>129</ns3:hr>           </ns3:TrackPointExtension>         </extensions>       </trkpt>
       <trkpt lat="45.57511816732585430145263671875" lon="14.41414992325007915496826171875">         <ele>1302</ele>         <time>2026-02-28T12:40:11.000Z</time>         <extensions>           <ns3:TrackPointExtension>             <ns3:hr>129</ns3:hr>           </ns3:TrackPointExtension>         </extensions>       </trkpt>
       <trkpt lat="45.57509402744472026824951171875" lon="14.414098374545574188232421875">         <ele>1301.800048828125</ele>         <time>2026-02-28T12:40:15.000Z</time>         <extensions>           <ns3:TrackPointExtension>             <ns3:hr>127</ns3:hr>           </ns3:TrackPointExtension>         </extensions>       </trkpt>
       <trkpt lat="45.57508505880832672119140625" lon="14.4140646792948246002197265625">         <ele>1301.800048828125</ele>         <time>2026-02-28T12:40:18.000Z</time>         <extensions>           <ns3:TrackPointExtension>             <ns3:hr>128</ns3:hr>           </ns3:TrackPointExtension>         </extensions>       </trkpt>
       <trkpt lat="45.57507575489580631256103515625" lon="14.41403995268046855926513671875">         <ele>1301.800048828125</ele>         <time>2026-02-28T12:40:20.000Z</time>         <extensions>           <ns3:TrackPointExtension>             <ns3:hr>131</ns3:hr>           </ns3:TrackPointExtension>         </extensions>       </trkpt>
       <trkpt lat="45.57505748234689235687255859375" lon="14.41401363350450992584228515625">         <ele>1301.800048828125</ele>         <time>2026-02-28T12:40:22.000Z</time>         <extensions>           <ns3:TrackPointExtension>             <ns3:hr>133</ns3:hr>           </ns3:TrackPointExtension>         </extensions>       </trkpt>
       <trkpt lat="45.57502194307744503021240234375" lon="14.41392771899700164794921875">         <ele>1301.4000244140625</ele>         <time>2026-02-28T12:40:28.000Z</time>         <extensions>           <ns3:TrackPointExtension>             <ns3:hr>134</ns3:hr>           </ns3:TrackPointExtension>         </extensions>       </trkpt>
       <trkpt lat="45.57497642934322357177734375" lon="14.41385135985910892486572265625">         <ele>1301.199951171875</ele>         <time>2026-02-28T12:40:33.000Z</time>         <extensions>           <ns3:TrackPointExtension>             <ns3:hr>134</ns3:hr>           </ns3:TrackPointExtension>         </extensions>       </trkpt>
       <trkpt lat="45.57496712543070316314697265625" lon="14.41383526660501956939697265625">         <ele>1301.199951171875</ele>         <time>2026-02-28T12:40:34.000Z</time>         <extensions>           <ns3:TrackPointExtension>             <ns3:hr>134</ns3:hr>           </ns3:TrackPointExtension>         </extensions>       </trkpt>
       <trkpt lat="45.5749343521893024444580078125" lon="14.41379033960402011871337890625">         <ele>1301</ele>         <time>2026-02-28T12:40:37.000Z</time>         <extensions>           <ns3:TrackPointExtension>             <ns3:hr>133</ns3:hr>           </ns3:TrackPointExtension>         </extensions>       </trkpt>
       <trkpt lat="45.57490803301334381103515625" lon="14.4137528724968433380126953125">         <ele>1300.800048828125</ele>         <time>2026-02-28T12:40:40.000Z</time>         <extensions>           <ns3:TrackPointExtension>             <ns3:hr>130</ns3:hr>           </ns3:TrackPointExtension>         </extensions>       </trkpt>
       <trkpt lat="45.57488523423671722412109375" lon="14.41372311674058437347412109375">         <ele>1300.800048828125</ele>         <time>2026-02-28T12:40:42.000Z</time>         <extensions>           <ns3:TrackPointExtension>             <ns3:hr>128</ns3:hr>           </ns3:TrackPointExtension>         </extensions>       </trkpt>
       <trkpt lat="45.574859417974948883056640625" lon="14.41367827355861663818359375">         <ele>1300.800048828125</ele>         <time>2026-02-28T12:40:46.000Z</time>         <extensions>           <ns3:TrackPointExtension>             <ns3:hr>125</ns3:hr>           </ns3:TrackPointExtension>         </extensions>       </trkpt>
       <trkpt lat="45.57483318261802196502685546875" lon="14.41363393329083919525146484375">         <ele>1300.5999755859375</ele>         <time>2026-02-28T12:40:50.000Z</time>         <extensions>           <ns3:TrackPointExtension>             <ns3:hr>127</ns3:hr>           </ns3:TrackPointExtension>         </extensions>       </trkpt>
       <trkpt lat="45.5748067796230316162109375" lon="14.41358498297631740570068359375">         <ele>1300.5999755859375</ele>         <time>2026-02-28T12:40:53.000Z</time>         <extensions>           <ns3:TrackPointExtension>             <ns3:hr>130</ns3:hr>           </ns3:TrackPointExtension>         </extensions>       </trkpt>
       <trkpt lat="45.574789680540561676025390625" lon="14.41356319002807140350341796875">         <ele>1300.5999755859375</ele>         <time>2026-02-28T12:40:54.000Z</time>         <extensions>           <ns3:TrackPointExtension>             <ns3:hr>131</ns3:hr>           </ns3:TrackPointExtension>         </extensions>       </trkpt>
       <trkpt lat="45.574770234525203704833984375" lon="14.41354416310787200927734375">         <ele>1300.5999755859375</ele>         <time>2026-02-28T12:40:57.000Z</time>         <extensions>           <ns3:TrackPointExtension>             <ns3:hr>131</ns3:hr>           </ns3:TrackPointExtension>         </extensions>       </trkpt>
       <trkpt lat="45.57473964057862758636474609375" lon="14.41350971348583698272705078125">         <ele>1300.4000244140625</ele>         <time>2026-02-28T12:41:00.000Z</time>         <extensions>           <ns3:TrackPointExtension>             <ns3:hr>128</ns3:hr>           </ns3:TrackPointExtension>         </extensions>       </trkpt>
       <trkpt lat="45.57470954954624176025390625" lon="14.41348087973892688751220703125">         <ele>1300.4000244140625</ele>         <time>2026-02-28T12:41:02.000Z</time>         <extensions>           <ns3:TrackPointExtension>             <ns3:hr>125</ns3:hr>           </ns3:TrackPointExtension>         </extensions>       </trkpt>
       <trkpt lat="45.5746835656464099884033203125" lon="14.413453973829746246337890625">         <ele>1300.199951171875</ele>         <time>2026-02-28T12:41:04.000Z</time>         <extensions>           <ns3:TrackPointExtension>             <ns3:hr>122</ns3:hr>           </ns3:TrackPointExtension>         </extensions>       </trkpt>
       <trkpt lat="45.574665628373622894287109375" lon="14.413437880575656890869140625">         <ele>1300.199951171875</ele>         <time>2026-02-28T12:41:05.000Z</time>         <extensions>           <ns3:TrackPointExtension>             <ns3:hr>122</ns3:hr>           </ns3:TrackPointExtension>         </extensions>       </trkpt>
       <trkpt lat="45.5746416561305522918701171875" lon="14.41342346370220184326171875">         <ele>1300.199951171875</ele>         <time>2026-02-28T12:41:07.000Z</time>         <extensions>           <ns3:TrackPointExtension>             <ns3:hr>119</ns3:hr>           </ns3:TrackPointExtension>         </extensions>       </trkpt>
       <trkpt lat="45.574642829596996307373046875" lon="14.41342120058834552764892578125">         <ele>1300.199951171875</ele>         <time>2026-02-28T12:41:08.000Z</time>         <extensions>           <ns3:TrackPointExtension>             <ns3:hr>120</ns3:hr>           </ns3:TrackPointExtension>         </extensions>       </trkpt>
       <trkpt lat="45.57462883181869983673095703125" lon="14.413405358791351318359375">         <ele>1300.199951171875</ele>         <time>2026-02-28T12:41:10.000Z</time>         <extensions>           <ns3:TrackPointExtension>             <ns3:hr>123</ns3:hr>           </ns3:TrackPointExtension>         </extensions>       </trkpt>
       <trkpt lat="45.5746087990701198577880859375" lon="14.4133830629289150238037109375">         <ele>1300.199951171875</ele>         <time>2026-02-28T12:41:12.000Z</time>         <extensions>           <ns3:TrackPointExtension>             <ns3:hr>127</ns3:hr>           </ns3:TrackPointExtension>         </extensions>       </trkpt>
       <trkpt lat="45.57458826340734958648681640625" lon="14.41335833631455898284912109375">         <ele>1300.199951171875</ele>         <time>2026-02-28T12:41:14.000Z</time>         <extensions>           <ns3:TrackPointExtension>             <ns3:hr>130</ns3:hr>           </ns3:TrackPointExtension>         </extensions>       </trkpt>
       <trkpt lat="45.57457619346678256988525390625" lon="14.41334760747849941253662109375">         <ele>1300.199951171875</ele>         <time>2026-02-28T12:41:15.000Z</time>         <extensions>           <ns3:TrackPointExtension>             <ns3:hr>130</ns3:hr>           </ns3:TrackPointExtension>         </extensions>       </trkpt>
       <trkpt lat="45.5745454318821430206298828125" lon="14.41332480870187282562255859375">         <ele>1300.199951171875</ele>         <time>2026-02-28T12:41:18.000Z</time>         <extensions>           <ns3:TrackPointExtension>             <ns3:hr>128</ns3:hr>           </ns3:TrackPointExtension>         </extensions>       </trkpt>
       <trkpt lat="45.5745358765125274658203125" lon="14.41330351866781711578369140625">         <ele>1300.199951171875</ele>         <time>2026-02-28T12:41:24.000Z</time>         <extensions>           <ns3:TrackPointExtension>             <ns3:hr>128</ns3:hr>           </ns3:TrackPointExtension>         </extensions>       </trkpt>
       <trkpt lat="45.57454057037830352783203125" lon="14.41330720670521259307861328125">         <ele>1300</ele>         <time>2026-02-28T12:41:28.000Z</time>         <extensions>           <ns3:TrackPointExtension>             <ns3:hr>125</ns3:hr>           </ns3:TrackPointExtension>         </extensions>       </trkpt>
       <trkpt lat="45.57454719208180904388427734375" lon="14.41331458278000354766845703125">         <ele>1300</ele>         <time>2026-02-28T12:41:30.000Z</time>         <extensions>           <ns3:TrackPointExtension>             <ns3:hr>121</ns3:hr>           </ns3:TrackPointExtension>         </extensions>       </trkpt>
       <trkpt lat="45.5745440907776355743408203125" lon="14.41331257112324237823486328125">         <ele>1300</ele>         <time>2026-02-28T12:41:32.000Z</time>         <extensions>           <ns3:TrackPointExtension>             <ns3:hr>119</ns3:hr>           </ns3:TrackPointExtension>         </extensions>       </trkpt>
       <trkpt lat="45.57454149238765239715576171875" lon="14.41329899244010448455810546875">         <ele>1299.800048828125</ele>         <time>2026-02-28T12:41:40.000Z</time>         <extensions>           <ns3:TrackPointExtension>             <ns3:hr>118</ns3:hr>           </ns3:TrackPointExtension>         </extensions>       </trkpt>
       <trkpt lat="45.57450226508080959320068359375" lon="14.41327719949185848236083984375">         <ele>1300</ele>         <time>2026-02-28T12:41:46.000Z</time>         <extensions>           <ns3:TrackPointExtension>             <ns3:hr>115</ns3:hr>           </ns3:TrackPointExtension>         </extensions>       </trkpt>
       <trkpt lat="45.57444401085376739501953125" lon="14.4131959788501262664794921875">         <ele>1300</ele>         <time>2026-02-28T12:41:55.000Z</time>         <extensions>           <ns3:TrackPointExtension>             <ns3:hr>117</ns3:hr>           </ns3:TrackPointExtension>         </extensions>       </trkpt>
       <trkpt lat="45.5744384787976741790771484375" lon="14.4131651334464550018310546875">         <ele>1300</ele>         <time>2026-02-28T12:42:03.000Z</time>         <extensions>           <ns3:TrackPointExtension>             <ns3:hr>116</ns3:hr>           </ns3:TrackPointExtension>         </extensions>       </trkpt>
       <trkpt lat="45.57443906553089618682861328125" lon="14.413165636360645294189453125">         <ele>1299.800048828125</ele>         <time>2026-02-28T12:42:11.000Z</time>         <extensions>           <ns3:TrackPointExtension>             <ns3:hr>120</ns3:hr>           </ns3:TrackPointExtension>         </extensions>       </trkpt>
       <trkpt lat="45.574440993368625640869140625" lon="14.4131701625883579254150390625">         <ele>1299.800048828125</ele>         <time>2026-02-28T12:42:12.000Z</time>         <extensions>           <ns3:TrackPointExtension>             <ns3:hr>122</ns3:hr>           </ns3:TrackPointExtension>         </extensions>       </trkpt>
       <trkpt lat="45.57441006414592266082763671875" lon="14.41313168965280055999755859375">         <ele>1299.800048828125</ele>         <time>2026-02-28T12:42:18.000Z</time>         <extensions>           <ns3:TrackPointExtension>             <ns3:hr>122</ns3:hr>           </ns3:TrackPointExtension>         </extensions>       </trkpt>
       <trkpt lat="45.57436027564108371734619140625" lon="14.41309363581240177154541015625">         <ele>1299.800048828125</ele>         <time>2026-02-28T12:42:22.000Z</time>         <extensions>           <ns3:TrackPointExtension>             <ns3:hr>122</ns3:hr>           </ns3:TrackPointExtension>         </extensions>       </trkpt>
       <trkpt lat="45.574312247335910797119140625" lon="14.4130521453917026519775390625">         <ele>1299.800048828125</ele>         <time>2026-02-28T12:42:27.000Z</time>         <extensions>           <ns3:TrackPointExtension>             <ns3:hr>122</ns3:hr>           </ns3:TrackPointExtension>         </extensions>       </trkpt>
       <trkpt lat="45.57426438666880130767822265625" lon="14.412988610565662384033203125">         <ele>1299.5999755859375</ele>         <time>2026-02-28T12:42:34.000Z</time>         <extensions>           <ns3:TrackPointExtension>             <ns3:hr>124</ns3:hr>           </ns3:TrackPointExtension>         </extensions>       </trkpt>
       <trkpt lat="45.57422365061938762664794921875" lon="14.4129314459860324859619140625">         <ele>1299.800048828125</ele>         <time>2026-02-28T12:42:39.000Z</time>         <extensions>           <ns3:TrackPointExtension>             <ns3:hr>125</ns3:hr>           </ns3:TrackPointExtension>         </extensions>       </trkpt>
       <trkpt lat="45.5741873569786548614501953125" lon="14.41289213486015796661376953125">         <ele>1299.5999755859375</ele>         <time>2026-02-28T12:42:43.000Z</time>         <extensions>           <ns3:TrackPointExtension>             <ns3:hr>125</ns3:hr>           </ns3:TrackPointExtension>         </extensions>       </trkpt>
       <trkpt lat="45.5741635523736476898193359375" lon="14.41285005770623683929443359375">         <ele>1299.5999755859375</ele>         <time>2026-02-28T12:42:48.000Z</time>         <extensions>           <ns3:TrackPointExtension>             <ns3:hr>126</ns3:hr>           </ns3:TrackPointExtension>         </extensions>       </trkpt>
       <trkpt lat="45.5741431005299091339111328125" lon="14.41281887702643871307373046875">         <ele>1299.5999755859375</ele>         <time>2026-02-28T12:42:51.000Z</time>         <extensions>           <ns3:TrackPointExtension>             <ns3:hr>123</ns3:hr>           </ns3:TrackPointExtension>         </extensions>       </trkpt>
       <trkpt lat="45.5741384066641330718994140625" lon="14.4128137640655040740966796875">         <ele>1299.5999755859375</ele>         <time>2026-02-28T12:42:52.000Z</time>         <extensions>           <ns3:TrackPointExtension>             <ns3:hr>122</ns3:hr>           </ns3:TrackPointExtension>         </extensions>       </trkpt>
       <trkpt lat="45.5740871094167232513427734375" lon="14.41274913959205150604248046875">         <ele>1299.5999755859375</ele>         <time>2026-02-28T12:42:59.000Z</time>         <extensions>           <ns3:TrackPointExtension>             <ns3:hr>121</ns3:hr>           </ns3:TrackPointExtension>         </extensions>       </trkpt>
       <trkpt lat="45.57404763065278530120849609375" lon="14.41271058283746242523193359375">         <ele>1299.5999755859375</ele>         <time>2026-02-28T12:43:04.000Z</time>         <extensions>           <ns3:TrackPointExtension>             <ns3:hr>120</ns3:hr>           </ns3:TrackPointExtension>         </extensions>       </trkpt>
       <trkpt lat="45.5739913880825042724609375" lon="14.41266012378036975860595703125">         <ele>1299.4000244140625</ele>         <time>2026-02-28T12:43:09.000Z</time>         <extensions>           <ns3:TrackPointExtension>             <ns3:hr>120</ns3:hr>           </ns3:TrackPointExtension>         </extensions>       </trkpt>
       <trkpt lat="45.5739523284137248992919921875" lon="14.412627518177032470703125">         <ele>1299.4000244140625</ele>         <time>2026-02-28T12:43:14.000Z</time>         <extensions>           <ns3:TrackPointExtension>             <ns3:hr>119</ns3:hr>           </ns3:TrackPointExtension>         </extensions>       </trkpt>
       <trkpt lat="45.57388870976865291595458984375" lon="14.41258284263312816619873046875">         <ele>1299.4000244140625</ele>         <time>2026-02-28T12:43:20.000Z</time>         <extensions>           <ns3:TrackPointExtension>             <ns3:hr>117</ns3:hr>           </ns3:TrackPointExtension>         </extensions>       </trkpt>
       <trkpt lat="45.57385702617466449737548828125" lon="14.41256373189389705657958984375">         <ele>1299.4000244140625</ele>         <time>2026-02-28T12:43:24.000Z</time>         <extensions>           <ns3:TrackPointExtension>             <ns3:hr>117</ns3:hr>           </ns3:TrackPointExtension>         </extensions>       </trkpt>
       <trkpt lat="45.57380807586014270782470703125" lon="14.41255300305783748626708984375">         <ele>1299.199951171875</ele>         <time>2026-02-28T12:43:28.000Z</time>         <extensions>           <ns3:TrackPointExtension>             <ns3:hr>117</ns3:hr>           </ns3:TrackPointExtension>         </extensions>       </trkpt>
       <trkpt lat="45.5737674236297607421875" lon="14.41254277713596820831298828125">         <ele>1299</ele>         <time>2026-02-28T12:43:31.000Z</time>         <extensions>           <ns3:TrackPointExtension>             <ns3:hr>121</ns3:hr>           </ns3:TrackPointExtension>         </extensions>       </trkpt>
       <trkpt lat="45.57375459931790828704833984375" lon="14.41253992728888988494873046875">         <ele>1298.800048828125</ele>         <time>2026-02-28T12:43:32.000Z</time>         <extensions>           <ns3:TrackPointExtension>             <ns3:hr>122</ns3:hr>           </ns3:TrackPointExtension>         </extensions>       </trkpt>
       <trkpt lat="45.57373079471290111541748046875" lon="14.41253405995666980743408203125">         <ele>1298.800048828125</ele>         <time>2026-02-28T12:43:34.000Z</time>         <extensions>           <ns3:TrackPointExtension>             <ns3:hr>125</ns3:hr>           </ns3:TrackPointExtension>         </extensions>       </trkpt>
       <trkpt lat="45.57367547415196895599365234375" lon="14.41252165473997592926025390625">         <ele>1298.800048828125</ele>         <time>2026-02-28T12:43:39.000Z</time>         <extensions>           <ns3:TrackPointExtension>             <ns3:hr>127</ns3:hr>           </ns3:TrackPointExtension>         </extensions>       </trkpt>
       <trkpt lat="45.5735966004431247711181640625" lon="14.41248594783246517181396484375">         <ele>1298.5999755859375</ele>         <time>2026-02-28T12:43:46.000Z</time>         <extensions>           <ns3:TrackPointExtension>             <ns3:hr>124</ns3:hr>           </ns3:TrackPointExtension>         </extensions>       </trkpt>
       <trkpt lat="45.5735590495169162750244140625" lon="14.4124694354832172393798828125">         <ele>1298.4000244140625</ele>         <time>2026-02-28T12:43:52.000Z</time>         <extensions>           <ns3:TrackPointExtension>             <ns3:hr>126</ns3:hr>           </ns3:TrackPointExtension>         </extensions>       </trkpt>
       <trkpt lat="45.57354153133928775787353515625" lon="14.412469603121280670166015625">         <ele>1298.4000244140625</ele>         <time>2026-02-28T12:43:57.000Z</time>         <extensions>           <ns3:TrackPointExtension>             <ns3:hr>127</ns3:hr>           </ns3:TrackPointExtension>         </extensions>       </trkpt>
       <trkpt lat="45.57352895848453044891357421875" lon="14.41246993839740753173828125">         <ele>1298.199951171875</ele>         <time>2026-02-28T12:44:03.000Z</time>         <extensions>           <ns3:TrackPointExtension>             <ns3:hr>123</ns3:hr>           </ns3:TrackPointExtension>         </extensions>       </trkpt>
       <trkpt lat="45.573528707027435302734375" lon="14.41246859729290008544921875">         <ele>1298.199951171875</ele>         <time>2026-02-28T12:44:04.000Z</time>         <extensions>           <ns3:TrackPointExtension>             <ns3:hr>119</ns3:hr>           </ns3:TrackPointExtension>         </extensions>       </trkpt>
       <trkpt lat="45.573532395064830780029296875" lon="14.412466585636138916015625">         <ele>1298.199951171875</ele>         <time>2026-02-28T12:44:05.000Z</time>         <extensions>           <ns3:TrackPointExtension>             <ns3:hr>113</ns3:hr>           </ns3:TrackPointExtension>         </extensions>       </trkpt>
       <trkpt lat="45.5735406093299388885498046875" lon="14.4124639034271240234375">         <ele>1298.199951171875</ele>         <time>2026-02-28T12:44:11.000Z</time>         <extensions>           <ns3:TrackPointExtension>             <ns3:hr>113</ns3:hr>           </ns3:TrackPointExtension>         </extensions>       </trkpt>
       <trkpt lat="45.57355527766048908233642578125" lon="14.41244185902178287506103515625">         <ele>1298.199951171875</ele>         <time>2026-02-28T12:44:17.000Z</time>         <extensions>           <ns3:TrackPointExtension>             <ns3:hr>112</ns3:hr>           </ns3:TrackPointExtension>         </extensions>       </trkpt>
       <trkpt lat="45.57356047444045543670654296875" lon="14.4124355725944042205810546875">         <ele>1298.199951171875</ele>         <time>2026-02-28T12:44:20.000Z</time>         <extensions>           <ns3:TrackPointExtension>             <ns3:hr>110</ns3:hr>           </ns3:TrackPointExtension>         </extensions>       </trkpt>
       <trkpt lat="45.57355511002242565155029296875" lon="14.412407577037811279296875">         <ele>1298.4000244140625</ele>         <time>2026-02-28T12:44:29.000Z</time>         <extensions>           <ns3:TrackPointExtension>             <ns3:hr>110</ns3:hr>           </ns3:TrackPointExtension>         </extensions>       </trkpt>
       <trkpt lat="45.5735486559569835662841796875" lon="14.41240045242011547088623046875">         <ele>1298.4000244140625</ele>         <time>2026-02-28T12:44:37.000Z</time>         <extensions>           <ns3:TrackPointExtension>             <ns3:hr>113</ns3:hr>           </ns3:TrackPointExtension>         </extensions>       </trkpt>
       <trkpt lat="45.57355259545147418975830078125" lon="14.41239827312529087066650390625">         <ele>1298.4000244140625</ele>         <time>2026-02-28T12:44:38.000Z</time>         <extensions>           <ns3:TrackPointExtension>             <ns3:hr>114</ns3:hr>           </ns3:TrackPointExtension>         </extensions>       </trkpt>
       <trkpt lat="45.573551841080188751220703125" lon="14.41241453401744365692138671875">         <ele>1298.5999755859375</ele>         <time>2026-02-28T12:44:45.000Z</time>         <extensions>           <ns3:TrackPointExtension>             <ns3:hr>115</ns3:hr>           </ns3:TrackPointExtension>         </extensions>       </trkpt>
       <trkpt lat="45.57354521937668323516845703125" lon="14.412415958940982818603515625">         <ele>1298.5999755859375</ele>         <time>2026-02-28T12:44:52.000Z</time>         <extensions>           <ns3:TrackPointExtension>             <ns3:hr>112</ns3:hr>           </ns3:TrackPointExtension>         </extensions>       </trkpt>
       <trkpt lat="45.57353935204446315765380859375" lon="14.41241336055099964141845703125">         <ele>1298.5999755859375</ele>         <time>2026-02-28T12:44:53.000Z</time>         <extensions>           <ns3:TrackPointExtension>             <ns3:hr>112</ns3:hr>           </ns3:TrackPointExtension>         </extensions>       </trkpt>
       <trkpt lat="45.57347179390490055084228515625" lon="14.412386119365692138671875">         <ele>1298.199951171875</ele>         <time>2026-02-28T12:45:01.000Z</time>         <extensions>           <ns3:TrackPointExtension>             <ns3:hr>112</ns3:hr>           </ns3:TrackPointExtension>         </extensions>       </trkpt>
       <trkpt lat="45.57340859435498714447021484375" lon="14.41236860118806362152099609375">         <ele>1297.800048828125</ele>         <time>2026-02-28T12:45:09.000Z</time>         <extensions>           <ns3:TrackPointExtension>             <ns3:hr>113</ns3:hr>           </ns3:TrackPointExtension>         </extensions>       </trkpt>
       <trkpt lat="45.57337925769388675689697265625" lon="14.41235669888556003570556640625">         <ele>1297.800048828125</ele>         <time>2026-02-28T12:45:17.000Z</time>         <extensions>           <ns3:TrackPointExtension>             <ns3:hr>113</ns3:hr>           </ns3:TrackPointExtension>         </extensions>       </trkpt>
       <trkpt lat="45.57334958575665950775146484375" lon="14.412367679178714752197265625">         <ele>1298</ele>         <time>2026-02-28T12:45:24.000Z</time>         <extensions>           <ns3:TrackPointExtension>             <ns3:hr>114</ns3:hr>           </ns3:TrackPointExtension>         </extensions>       </trkpt>
       <trkpt lat="45.57335495017468929290771484375" lon="14.412375055253505706787109375">         <ele>1297.5999755859375</ele>         <time>2026-02-28T12:45:31.000Z</time>         <extensions>           <ns3:TrackPointExtension>             <ns3:hr>118</ns3:hr>           </ns3:TrackPointExtension>         </extensions>       </trkpt>
       <trkpt lat="45.5733575485646724700927734375" lon="14.4123722054064273834228515625">         <ele>1297.800048828125</ele>         <time>2026-02-28T12:45:32.000Z</time>         <extensions>           <ns3:TrackPointExtension>             <ns3:hr>119</ns3:hr>           </ns3:TrackPointExtension>         </extensions>       </trkpt>
       <trkpt lat="45.5733260326087474822998046875" lon="14.4123768992722034454345703125">         <ele>1298</ele>         <time>2026-02-28T12:45:41.000Z</time>         <extensions>           <ns3:TrackPointExtension>             <ns3:hr>118</ns3:hr>           </ns3:TrackPointExtension>         </extensions>       </trkpt>
       <trkpt lat="45.5732309818267822265625" lon="14.41237983293831348419189453125">         <ele>1298</ele>         <time>2026-02-28T12:45:46.000Z</time>         <extensions>           <ns3:TrackPointExtension>             <ns3:hr>119</ns3:hr>           </ns3:TrackPointExtension>         </extensions>       </trkpt>
       <trkpt lat="45.573171637952327728271484375" lon="14.4123874604701995849609375">         <ele>1298</ele>         <time>2026-02-28T12:45:50.000Z</time>         <extensions>           <ns3:TrackPointExtension>             <ns3:hr>123</ns3:hr>           </ns3:TrackPointExtension>         </extensions>       </trkpt>
       <trkpt lat="45.5731634236872196197509765625" lon="14.41238804720342159271240234375">         <ele>1298</ele>         <time>2026-02-28T12:45:51.000Z</time>         <extensions>           <ns3:TrackPointExtension>             <ns3:hr>124</ns3:hr>           </ns3:TrackPointExtension>         </extensions>       </trkpt>
       <trkpt lat="45.5730614997446537017822265625" lon="14.412367008626461029052734375">         <ele>1297.800048828125</ele>         <time>2026-02-28T12:45:58.000Z</time>         <extensions>           <ns3:TrackPointExtension>             <ns3:hr>123</ns3:hr>           </ns3:TrackPointExtension>         </extensions>       </trkpt>
       <trkpt lat="45.573008023202419281005859375" lon="14.4123525917530059814453125">         <ele>1297.5999755859375</ele>         <time>2026-02-28T12:46:05.000Z</time>         <extensions>           <ns3:TrackPointExtension>             <ns3:hr>123</ns3:hr>           </ns3:TrackPointExtension>         </extensions>       </trkpt>
       <trkpt lat="45.57300659827888011932373046875" lon="14.412342198193073272705078125">         <ele>1297.5999755859375</ele>         <time>2026-02-28T12:46:10.000Z</time>         <extensions>           <ns3:TrackPointExtension>             <ns3:hr>127</ns3:hr>           </ns3:TrackPointExtension>         </extensions>       </trkpt>
       <trkpt lat="45.57300844229757785797119140625" lon="14.41233708523213863372802734375">         <ele>1297.5999755859375</ele>         <time>2026-02-28T12:46:11.000Z</time>         <extensions>           <ns3:TrackPointExtension>             <ns3:hr>125</ns3:hr>           </ns3:TrackPointExtension>         </extensions>       </trkpt>
       <trkpt lat="45.57300098240375518798828125" lon="14.41233406774699687957763671875">         <ele>1297.5999755859375</ele>         <time>2026-02-28T12:46:14.000Z</time>         <extensions>           <ns3:TrackPointExtension>             <ns3:hr>122</ns3:hr>           </ns3:TrackPointExtension>         </extensions>       </trkpt>
       <trkpt lat="45.57298564352095127105712890625" lon="14.4123272784054279327392578125">         <ele>1297.5999755859375</ele>         <time>2026-02-28T12:46:16.000Z</time>         <extensions>           <ns3:TrackPointExtension>             <ns3:hr>122</ns3:hr>           </ns3:TrackPointExtension>         </extensions>       </trkpt>
       <trkpt lat="45.57295002043247222900390625" lon="14.41231411881744861602783203125">         <ele>1297.5999755859375</ele>         <time>2026-02-28T12:46:22.000Z</time>         <extensions>           <ns3:TrackPointExtension>             <ns3:hr>122</ns3:hr>           </ns3:TrackPointExtension>         </extensions>       </trkpt>
       <trkpt lat="45.57290417142212390899658203125" lon="14.41233490593731403350830078125">         <ele>1297.5999755859375</ele>         <time>2026-02-28T12:46:27.000Z</time>         <extensions>           <ns3:TrackPointExtension>             <ns3:hr>120</ns3:hr>           </ns3:TrackPointExtension>         </extensions>       </trkpt>
       <trkpt lat="45.5728479288518428802490234375" lon="14.41234027035534381866455078125">         <ele>1297.800048828125</ele>         <time>2026-02-28T12:46:32.000Z</time>         <extensions>           <ns3:TrackPointExtension>             <ns3:hr>119</ns3:hr>           </ns3:TrackPointExtension>         </extensions>       </trkpt>
       <trkpt lat="45.5727709829807281494140625" lon="14.41232048906385898590087890625">         <ele>1297.800048828125</ele>         <time>2026-02-28T12:46:37.000Z</time>         <extensions>           <ns3:TrackPointExtension>             <ns3:hr>120</ns3:hr>           </ns3:TrackPointExtension>         </extensions>       </trkpt>
       <trkpt lat="45.57271541096270084381103515625" lon="14.41230808384716510772705078125">         <ele>1297.800048828125</ele>         <time>2026-02-28T12:46:43.000Z</time>         <extensions>           <ns3:TrackPointExtension>             <ns3:hr>120</ns3:hr>           </ns3:TrackPointExtension>         </extensions>       </trkpt>
       <trkpt lat="45.57268858887255191802978515625" lon="14.41231998614966869354248046875">         <ele>1297.800048828125</ele>         <time>2026-02-28T12:46:49.000Z</time>         <extensions>           <ns3:TrackPointExtension>             <ns3:hr>120</ns3:hr>           </ns3:TrackPointExtension>         </extensions>       </trkpt>
       <trkpt lat="45.57270317338407039642333984375" lon="14.41233222372829914093017578125">         <ele>1297.800048828125</ele>         <time>2026-02-28T12:46:54.000Z</time>         <extensions>           <ns3:TrackPointExtension>             <ns3:hr>125</ns3:hr>           </ns3:TrackPointExtension>         </extensions>       </trkpt>
       <trkpt lat="45.5727007426321506500244140625" lon="14.4123316369950771331787109375">         <ele>1297.800048828125</ele>         <time>2026-02-28T12:46:55.000Z</time>         <extensions>           <ns3:TrackPointExtension>             <ns3:hr>125</ns3:hr>           </ns3:TrackPointExtension>         </extensions>       </trkpt>
       <trkpt lat="45.57268473319709300994873046875" lon="14.41231696866452693939208984375">         <ele>1297.5999755859375</ele>         <time>2026-02-28T12:47:00.000Z</time>         <extensions>           <ns3:TrackPointExtension>             <ns3:hr>123</ns3:hr>           </ns3:TrackPointExtension>         </extensions>       </trkpt>
       <trkpt lat="45.57265388779342174530029296875" lon="14.41229132004082202911376953125">         <ele>1297.800048828125</ele>         <time>2026-02-28T12:47:08.000Z</time>         <extensions>           <ns3:TrackPointExtension>             <ns3:hr>120</ns3:hr>           </ns3:TrackPointExtension>         </extensions>       </trkpt>
       <trkpt lat="45.57260879315435886383056640625" lon="14.412276484072208404541015625">         <ele>1297.800048828125</ele>         <time>2026-02-28T12:47:13.000Z</time>         <extensions>           <ns3:TrackPointExtension>             <ns3:hr>123</ns3:hr>           </ns3:TrackPointExtension>         </extensions>       </trkpt>
       <trkpt lat="45.5725709907710552215576171875" lon="14.41226483322679996490478515625">         <ele>1297.800048828125</ele>         <time>2026-02-28T12:47:16.000Z</time>         <extensions>           <ns3:TrackPointExtension>             <ns3:hr>124</ns3:hr>           </ns3:TrackPointExtension>         </extensions>       </trkpt>
       <trkpt lat="45.572529248893260955810546875" lon="14.41225175745785236358642578125">         <ele>1298</ele>         <time>2026-02-28T12:47:19.000Z</time>         <extensions>           <ns3:TrackPointExtension>             <ns3:hr>121</ns3:hr>           </ns3:TrackPointExtension>         </extensions>       </trkpt>
       <trkpt lat="45.57248943485319614410400390625" lon="14.41224035806953907012939453125">         <ele>1298</ele>         <time>2026-02-28T12:47:23.000Z</time>         <extensions>           <ns3:TrackPointExtension>             <ns3:hr>121</ns3:hr>           </ns3:TrackPointExtension>         </extensions>       </trkpt>
       <trkpt lat="45.572437383234500885009765625" lon="14.412226863205432891845703125">         <ele>1298.199951171875</ele>         <time>2026-02-28T12:47:31.000Z</time>         <extensions>           <ns3:TrackPointExtension>             <ns3:hr>119</ns3:hr>           </ns3:TrackPointExtension>         </extensions>       </trkpt>
       <trkpt lat="45.5724382214248180389404296875" lon="14.412246979773044586181640625">         <ele>1298.199951171875</ele>         <time>2026-02-28T12:47:40.000Z</time>         <extensions>           <ns3:TrackPointExtension>             <ns3:hr>118</ns3:hr>           </ns3:TrackPointExtension>         </extensions>       </trkpt>
       <trkpt lat="45.57241600938141345977783203125" lon="14.41225158981978893280029296875">         <ele>1298.199951171875</ele>         <time>2026-02-28T12:47:48.000Z</time>         <extensions>           <ns3:TrackPointExtension>             <ns3:hr>116</ns3:hr>           </ns3:TrackPointExtension>         </extensions>       </trkpt>
       <trkpt lat="45.57238650508224964141845703125" lon="14.41225494258105754852294921875">         <ele>1298.4000244140625</ele>         <time>2026-02-28T12:47:51.000Z</time>         <extensions>           <ns3:TrackPointExtension>             <ns3:hr>113</ns3:hr>           </ns3:TrackPointExtension>         </extensions>       </trkpt>
       <trkpt lat="45.57234677486121654510498046875" lon="14.41225661896169185638427734375">         <ele>1298.4000244140625</ele>         <time>2026-02-28T12:47:54.000Z</time>         <extensions>           <ns3:TrackPointExtension>             <ns3:hr>111</ns3:hr>           </ns3:TrackPointExtension>         </extensions>       </trkpt>
       <trkpt lat="45.57228215038776397705078125" lon="14.412260390818119049072265625">         <ele>1298.4000244140625</ele>         <time>2026-02-28T12:47:59.000Z</time>         <extensions>           <ns3:TrackPointExtension>             <ns3:hr>114</ns3:hr>           </ns3:TrackPointExtension>         </extensions>       </trkpt>
       <trkpt lat="45.5722709186375141143798828125" lon="14.41226231865584850311279296875">         <ele>1298.4000244140625</ele>         <time>2026-02-28T12:48:00.000Z</time>         <extensions>           <ns3:TrackPointExtension>             <ns3:hr>115</ns3:hr>           </ns3:TrackPointExtension>         </extensions>       </trkpt>
       <trkpt lat="45.5722508020699024200439453125" lon="14.41226500086486339569091796875">         <ele>1298.5999755859375</ele>         <time>2026-02-28T12:48:03.000Z</time>         <extensions>           <ns3:TrackPointExtension>             <ns3:hr>118</ns3:hr>           </ns3:TrackPointExtension>         </extensions>       </trkpt>
       <trkpt lat="45.57221584953367710113525390625" lon="14.41226315684616565704345703125">         <ele>1298.5999755859375</ele>         <time>2026-02-28T12:48:07.000Z</time>         <extensions>           <ns3:TrackPointExtension>             <ns3:hr>119</ns3:hr>           </ns3:TrackPointExtension>         </extensions>       </trkpt>
       <trkpt lat="45.5721539072692394256591796875" lon="14.41227681934833526611328125">         <ele>1299</ele>         <time>2026-02-28T12:48:13.000Z</time>         <extensions>           <ns3:TrackPointExtension>             <ns3:hr>121</ns3:hr>           </ns3:TrackPointExtension>         </extensions>       </trkpt>
       <trkpt lat="45.57208903133869171142578125" lon="14.41228696145117282867431640625">         <ele>1299</ele>         <time>2026-02-28T12:48:19.000Z</time>         <extensions>           <ns3:TrackPointExtension>             <ns3:hr>120</ns3:hr>           </ns3:TrackPointExtension>         </extensions>       </trkpt>
       <trkpt lat="45.57202457450330257415771484375" lon="14.41229115240275859832763671875">         <ele>1299</ele>         <time>2026-02-28T12:48:25.000Z</time>         <extensions>           <ns3:TrackPointExtension>             <ns3:hr>118</ns3:hr>           </ns3:TrackPointExtension>         </extensions>       </trkpt>
       <trkpt lat="45.57196690700948238372802734375" lon="14.41229559481143951416015625">         <ele>1299.199951171875</ele>         <time>2026-02-28T12:48:30.000Z</time>         <extensions>           <ns3:TrackPointExtension>             <ns3:hr>117</ns3:hr>           </ns3:TrackPointExtension>         </extensions>       </trkpt>
       <trkpt lat="45.5719631351530551910400390625" lon="14.4122962653636932373046875">         <ele>1299.199951171875</ele>         <time>2026-02-28T12:48:31.000Z</time>         <extensions>           <ns3:TrackPointExtension>             <ns3:hr>117</ns3:hr>           </ns3:TrackPointExtension>         </extensions>       </trkpt>
       <trkpt lat="45.5719302780926227569580078125" lon="14.4122934155166149139404296875">         <ele>1299.199951171875</ele>         <time>2026-02-28T12:48:39.000Z</time>         <extensions>           <ns3:TrackPointExtension>             <ns3:hr>116</ns3:hr>           </ns3:TrackPointExtension>         </extensions>       </trkpt>
       <trkpt lat="45.5719208903610706329345703125" lon="14.4122987799346446990966796875">         <ele>1299.199951171875</ele>         <time>2026-02-28T12:48:43.000Z</time>         <extensions>           <ns3:TrackPointExtension>             <ns3:hr>119</ns3:hr>           </ns3:TrackPointExtension>         </extensions>       </trkpt>
       <trkpt lat="45.57191343046724796295166015625" lon="14.41229936666786670684814453125">         <ele>1299.199951171875</ele>         <time>2026-02-28T12:48:46.000Z</time>         <extensions>           <ns3:TrackPointExtension>             <ns3:hr>123</ns3:hr>           </ns3:TrackPointExtension>         </extensions>       </trkpt>
       <trkpt lat="45.57191326282918453216552734375" lon="14.412299953401088714599609375">         <ele>1299.199951171875</ele>         <time>2026-02-28T12:48:47.000Z</time>         <extensions>           <ns3:TrackPointExtension>             <ns3:hr>125</ns3:hr>           </ns3:TrackPointExtension>         </extensions>       </trkpt>
       <trkpt lat="45.5718885362148284912109375" lon="14.4122947566211223602294921875">         <ele>1299.4000244140625</ele>         <time>2026-02-28T12:48:56.000Z</time>         <extensions>           <ns3:TrackPointExtension>             <ns3:hr>124</ns3:hr>           </ns3:TrackPointExtension>         </extensions>       </trkpt>
       <trkpt lat="45.5718591995537281036376953125" lon="14.4122587144374847412109375">         <ele>1299.800048828125</ele>         <time>2026-02-28T12:49:01.000Z</time>         <extensions>           <ns3:TrackPointExtension>             <ns3:hr>123</ns3:hr>           </ns3:TrackPointExtension>         </extensions>       </trkpt>
       <trkpt lat="45.571823157370090484619140625" lon="14.412145726382732391357421875">         <ele>1299.800048828125</ele>         <time>2026-02-28T12:49:06.000Z</time>         <extensions>           <ns3:TrackPointExtension>             <ns3:hr>122</ns3:hr>           </ns3:TrackPointExtension>         </extensions>       </trkpt>
       <trkpt lat="45.5718053877353668212890625" lon="14.41204707138240337371826171875">         <ele>1299.800048828125</ele>         <time>2026-02-28T12:49:10.000Z</time>         <extensions>           <ns3:TrackPointExtension>             <ns3:hr>123</ns3:hr>           </ns3:TrackPointExtension>         </extensions>       </trkpt>
       <trkpt lat="45.57178535498678684234619140625" lon="14.41195495426654815673828125">         <ele>1299.5999755859375</ele>         <time>2026-02-28T12:49:14.000Z</time>         <extensions>           <ns3:TrackPointExtension>             <ns3:hr>124</ns3:hr>           </ns3:TrackPointExtension>         </extensions>       </trkpt>
       <trkpt lat="45.57176037691533565521240234375" lon="14.4118885695934295654296875">         <ele>1299.5999755859375</ele>         <time>2026-02-28T12:49:17.000Z</time>         <extensions>           <ns3:TrackPointExtension>             <ns3:hr>125</ns3:hr>           </ns3:TrackPointExtension>         </extensions>       </trkpt>
       <trkpt lat="45.57173623703420162200927734375" lon="14.41182947717607021331787109375">         <ele>1299.5999755859375</ele>         <time>2026-02-28T12:49:20.000Z</time>         <extensions>           <ns3:TrackPointExtension>             <ns3:hr>125</ns3:hr>           </ns3:TrackPointExtension>         </extensions>       </trkpt>
       <trkpt lat="45.5717244185507297515869140625" lon="14.411729983985424041748046875">         <ele>1299.199951171875</ele>         <time>2026-02-28T12:49:24.000Z</time>         <extensions>           <ns3:TrackPointExtension>             <ns3:hr>126</ns3:hr>           </ns3:TrackPointExtension>         </extensions>       </trkpt>
       <trkpt lat="45.5717116780579090118408203125" lon="14.4116366095840930938720703125">         <ele>1298.800048828125</ele>         <time>2026-02-28T12:49:30.000Z</time>         <extensions>           <ns3:TrackPointExtension>             <ns3:hr>127</ns3:hr>           </ns3:TrackPointExtension>         </extensions>       </trkpt>
       <trkpt lat="45.57170857675373554229736328125" lon="14.41158154048025608062744140625">         <ele>1298.800048828125</ele>         <time>2026-02-28T12:49:33.000Z</time>         <extensions>           <ns3:TrackPointExtension>             <ns3:hr>124</ns3:hr>           </ns3:TrackPointExtension>         </extensions>       </trkpt>
       <trkpt lat="45.5717049725353717803955078125" lon="14.4115568138659000396728515625">         <ele>1299</ele>         <time>2026-02-28T12:49:35.000Z</time>         <extensions>           <ns3:TrackPointExtension>             <ns3:hr>124</ns3:hr>           </ns3:TrackPointExtension>         </extensions>       </trkpt>
       <trkpt lat="45.5716979317367076873779296875" lon="14.4114401377737522125244140625">         <ele>1299</ele>         <time>2026-02-28T12:49:39.000Z</time>         <extensions>           <ns3:TrackPointExtension>             <ns3:hr>122</ns3:hr>           </ns3:TrackPointExtension>         </extensions>       </trkpt>
       <trkpt lat="45.57168795727193355560302734375" lon="14.411349110305309295654296875">         <ele>1298.5999755859375</ele>         <time>2026-02-28T12:49:42.000Z</time>         <extensions>           <ns3:TrackPointExtension>             <ns3:hr>121</ns3:hr>           </ns3:TrackPointExtension>         </extensions>       </trkpt>
       <trkpt lat="45.5716640688478946685791015625" lon="14.4112386368215084075927734375">         <ele>1298.4000244140625</ele>         <time>2026-02-28T12:49:46.000Z</time>         <extensions>           <ns3:TrackPointExtension>             <ns3:hr>122</ns3:hr>           </ns3:TrackPointExtension>         </extensions>       </trkpt>
       <trkpt lat="45.57166482321918010711669921875" lon="14.41116563044488430023193359375">         <ele>1298.4000244140625</ele>         <time>2026-02-28T12:49:48.000Z</time>         <extensions>           <ns3:TrackPointExtension>             <ns3:hr>126</ns3:hr>           </ns3:TrackPointExtension>         </extensions>       </trkpt>
       <trkpt lat="45.57166968472301959991455078125" lon="14.411123134195804595947265625">         <ele>1298.199951171875</ele>         <time>2026-02-28T12:49:50.000Z</time>         <extensions>           <ns3:TrackPointExtension>             <ns3:hr>128</ns3:hr>           </ns3:TrackPointExtension>         </extensions>       </trkpt>
       <trkpt lat="45.57166968472301959991455078125" lon="14.41110880114138126373291015625">         <ele>1298.199951171875</ele>         <time>2026-02-28T12:49:51.000Z</time>         <extensions>           <ns3:TrackPointExtension>             <ns3:hr>128</ns3:hr>           </ns3:TrackPointExtension>         </extensions>       </trkpt>
       <trkpt lat="45.57166448794305324554443359375" lon="14.41100277006626129150390625">         <ele>1298</ele>         <time>2026-02-28T12:49:55.000Z</time>         <extensions>           <ns3:TrackPointExtension>             <ns3:hr>128</ns3:hr>           </ns3:TrackPointExtension>         </extensions>       </trkpt>
       <trkpt lat="45.57166918180882930755615234375" lon="14.41088877618312835693359375">         <ele>1297.800048828125</ele>         <time>2026-02-28T12:49:59.000Z</time>         <extensions>           <ns3:TrackPointExtension>             <ns3:hr>128</ns3:hr>           </ns3:TrackPointExtension>         </extensions>       </trkpt>
       <trkpt lat="45.57168410159647464752197265625" lon="14.4107618741691112518310546875">         <ele>1298</ele>         <time>2026-02-28T12:50:04.000Z</time>         <extensions>           <ns3:TrackPointExtension>             <ns3:hr>128</ns3:hr>           </ns3:TrackPointExtension>         </extensions>       </trkpt>
       <trkpt lat="45.571690388023853302001953125" lon="14.41066103987395763397216796875">         <ele>1298</ele>         <time>2026-02-28T12:50:08.000Z</time>         <extensions>           <ns3:TrackPointExtension>             <ns3:hr>127</ns3:hr>           </ns3:TrackPointExtension>         </extensions>       </trkpt>
       <trkpt lat="45.571670942008495330810546875" lon="14.41064461134374141693115234375">         <ele>1298.199951171875</ele>         <time>2026-02-28T12:50:15.000Z</time>         <extensions>           <ns3:TrackPointExtension>             <ns3:hr>126</ns3:hr>           </ns3:TrackPointExtension>         </extensions>       </trkpt>
       <trkpt lat="45.5716509930789470672607421875" lon="14.4105925597250461578369140625">         <ele>1298.199951171875</ele>         <time>2026-02-28T12:50:23.000Z</time>         <extensions>           <ns3:TrackPointExtension>             <ns3:hr>122</ns3:hr>           </ns3:TrackPointExtension>         </extensions>       </trkpt>
       <trkpt lat="45.571659542620182037353515625" lon="14.41061091609299182891845703125">         <ele>1298.199951171875</ele>         <time>2026-02-28T12:50:29.000Z</time>         <extensions>           <ns3:TrackPointExtension>             <ns3:hr>122</ns3:hr>           </ns3:TrackPointExtension>         </extensions>       </trkpt>
       <trkpt lat="45.57168401777744293212890625" lon="14.41055274568498134613037109375">         <ele>1298.4000244140625</ele>         <time>2026-02-28T12:50:35.000Z</time>         <extensions>           <ns3:TrackPointExtension>             <ns3:hr>122</ns3:hr>           </ns3:TrackPointExtension>         </extensions>       </trkpt>
       <trkpt lat="45.571691058576107025146484375" lon="14.41044311039149761199951171875">         <ele>1298.4000244140625</ele>         <time>2026-02-28T12:50:41.000Z</time>         <extensions>           <ns3:TrackPointExtension>             <ns3:hr>121</ns3:hr>           </ns3:TrackPointExtension>         </extensions>       </trkpt>
       <trkpt lat="45.57168309576809406280517578125" lon="14.41037521697580814361572265625">         <ele>1298.5999755859375</ele>         <time>2026-02-28T12:50:45.000Z</time>         <extensions>           <ns3:TrackPointExtension>             <ns3:hr>119</ns3:hr>           </ns3:TrackPointExtension>         </extensions>       </trkpt>
       <trkpt lat="45.57167471386492252349853515625" lon="14.41031939350068569183349609375">         <ele>1298.4000244140625</ele>         <time>2026-02-28T12:50:48.000Z</time>         <extensions>           <ns3:TrackPointExtension>             <ns3:hr>121</ns3:hr>           </ns3:TrackPointExtension>         </extensions>       </trkpt>
       <trkpt lat="45.57167001999914646148681640625" lon="14.41027178429067134857177734375">         <ele>1298.4000244140625</ele>         <time>2026-02-28T12:50:51.000Z</time>         <extensions>           <ns3:TrackPointExtension>             <ns3:hr>123</ns3:hr>           </ns3:TrackPointExtension>         </extensions>       </trkpt>
       <trkpt lat="45.57167085818946361541748046875" lon="14.41018469631671905517578125">         <ele>1298.5999755859375</ele>         <time>2026-02-28T12:50:55.000Z</time>         <extensions>           <ns3:TrackPointExtension>             <ns3:hr>123</ns3:hr>           </ns3:TrackPointExtension>         </extensions>       </trkpt>
       <trkpt lat="45.57167890481650829315185546875" lon="14.4101057387888431549072265625">         <ele>1298.5999755859375</ele>         <time>2026-02-28T12:50:59.000Z</time>         <extensions>           <ns3:TrackPointExtension>             <ns3:hr>123</ns3:hr>           </ns3:TrackPointExtension>         </extensions>       </trkpt>
       <trkpt lat="45.57169835083186626434326171875" lon="14.4100199081003665924072265625">         <ele>1298.5999755859375</ele>         <time>2026-02-28T12:51:03.000Z</time>         <extensions>           <ns3:TrackPointExtension>             <ns3:hr>123</ns3:hr>           </ns3:TrackPointExtension>         </extensions>       </trkpt>
       <trkpt lat="45.57171243242919445037841796875" lon="14.409944303333759307861328125">         <ele>1298.5999755859375</ele>         <time>2026-02-28T12:51:07.000Z</time>         <extensions>           <ns3:TrackPointExtension>             <ns3:hr>124</ns3:hr>           </ns3:TrackPointExtension>         </extensions>       </trkpt>
       <trkpt lat="45.57172718457877635955810546875" lon="14.40984942018985748291015625">         <ele>1298.5999755859375</ele>         <time>2026-02-28T12:51:12.000Z</time>         <extensions>           <ns3:TrackPointExtension>             <ns3:hr>127</ns3:hr>           </ns3:TrackPointExtension>         </extensions>       </trkpt>
       <trkpt lat="45.57173036970198154449462890625" lon="14.40983072854578495025634765625">         <ele>1298.5999755859375</ele>         <time>2026-02-28T12:51:13.000Z</time>         <extensions>           <ns3:TrackPointExtension>             <ns3:hr>127</ns3:hr>           </ns3:TrackPointExtension>         </extensions>       </trkpt>
       <trkpt lat="45.57173372246325016021728515625" lon="14.409749172627925872802734375">         <ele>1298.4000244140625</ele>         <time>2026-02-28T12:51:17.000Z</time>         <extensions>           <ns3:TrackPointExtension>             <ns3:hr>127</ns3:hr>           </ns3:TrackPointExtension>         </extensions>       </trkpt>
       <trkpt lat="45.5717183835804462432861328125" lon="14.4096930138766765594482421875">         <ele>1298.199951171875</ele>         <time>2026-02-28T12:51:22.000Z</time>         <extensions>           <ns3:TrackPointExtension>             <ns3:hr>127</ns3:hr>           </ns3:TrackPointExtension>         </extensions>       </trkpt>
       <trkpt lat="45.57170212268829345703125" lon="14.4096534512937068939208984375">         <ele>1298.199951171875</ele>         <time>2026-02-28T12:51:26.000Z</time>         <extensions>           <ns3:TrackPointExtension>             <ns3:hr>126</ns3:hr>           </ns3:TrackPointExtension>         </extensions>       </trkpt>
       <trkpt lat="45.571666918694972991943359375" lon="14.4096145592629909515380859375">         <ele>1298.199951171875</ele>         <time>2026-02-28T12:51:31.000Z</time>         <extensions>           <ns3:TrackPointExtension>             <ns3:hr>126</ns3:hr>           </ns3:TrackPointExtension>         </extensions>       </trkpt>
       <trkpt lat="45.57166415266692638397216796875" lon="14.4096202589571475982666015625">         <ele>1298.199951171875</ele>         <time>2026-02-28T12:51:34.000Z</time>         <extensions>           <ns3:TrackPointExtension>             <ns3:hr>123</ns3:hr>           </ns3:TrackPointExtension>         </extensions>       </trkpt>
       <trkpt lat="45.57166113518178462982177734375" lon="14.40962838940322399139404296875">         <ele>1298</ele>         <time>2026-02-28T12:51:40.000Z</time>         <extensions>           <ns3:TrackPointExtension>             <ns3:hr>123</ns3:hr>           </ns3:TrackPointExtension>         </extensions>       </trkpt>
       <trkpt lat="45.57167328894138336181640625" lon="14.409618414938449859619140625">         <ele>1298</ele>         <time>2026-02-28T12:51:47.000Z</time>         <extensions>           <ns3:TrackPointExtension>             <ns3:hr>123</ns3:hr>           </ns3:TrackPointExtension>         </extensions>       </trkpt>
       <trkpt lat="45.5716657452285289764404296875" lon="14.40960207022726535797119140625">         <ele>1298</ele>         <time>2026-02-28T12:51:51.000Z</time>         <extensions>           <ns3:TrackPointExtension>             <ns3:hr>120</ns3:hr>           </ns3:TrackPointExtension>         </extensions>       </trkpt>
       <trkpt lat="45.571660883724689483642578125" lon="14.4095853902399539947509765625">         <ele>1298.199951171875</ele>         <time>2026-02-28T12:51:54.000Z</time>         <extensions>           <ns3:TrackPointExtension>             <ns3:hr>120</ns3:hr>           </ns3:TrackPointExtension>         </extensions>       </trkpt>
       <trkpt lat="45.5716627277433872222900390625" lon="14.40953291952610015869140625">         <ele>1297.800048828125</ele>         <time>2026-02-28T12:52:03.000Z</time>         <extensions>           <ns3:TrackPointExtension>             <ns3:hr>117</ns3:hr>           </ns3:TrackPointExtension>         </extensions>       </trkpt>
       <trkpt lat="45.57168728671967983245849609375" lon="14.4095099531114101409912109375">         <ele>1297.800048828125</ele>         <time>2026-02-28T12:52:09.000Z</time>         <extensions>           <ns3:TrackPointExtension>             <ns3:hr>117</ns3:hr>           </ns3:TrackPointExtension>         </extensions>       </trkpt>
       <trkpt lat="45.5716915614902973175048828125" lon="14.40951674245297908782958984375">         <ele>1297.800048828125</ele>         <time>2026-02-28T12:52:11.000Z</time>         <extensions>           <ns3:TrackPointExtension>             <ns3:hr>121</ns3:hr>           </ns3:TrackPointExtension>         </extensions>       </trkpt>
       <trkpt lat="45.57168561033904552459716796875" lon="14.40952244214713573455810546875">         <ele>1298</ele>         <time>2026-02-28T12:52:14.000Z</time>         <extensions>           <ns3:TrackPointExtension>             <ns3:hr>124</ns3:hr>           </ns3:TrackPointExtension>         </extensions>       </trkpt>
       <trkpt lat="45.5716828443109989166259765625" lon="14.4095361046493053436279296875">         <ele>1297.800048828125</ele>         <time>2026-02-28T12:52:16.000Z</time>         <extensions>           <ns3:TrackPointExtension>             <ns3:hr>124</ns3:hr>           </ns3:TrackPointExtension>         </extensions>       </trkpt>
       <trkpt lat="45.57168125174939632415771484375" lon="14.40953023731708526611328125">         <ele>1297.800048828125</ele>         <time>2026-02-28T12:52:24.000Z</time>         <extensions>           <ns3:TrackPointExtension>             <ns3:hr>126</ns3:hr>           </ns3:TrackPointExtension>         </extensions>       </trkpt>
       <trkpt lat="45.57166867889463901519775390625" lon="14.40955228172242641448974609375">         <ele>1297.5999755859375</ele>         <time>2026-02-28T12:52:30.000Z</time>         <extensions>           <ns3:TrackPointExtension>             <ns3:hr>123</ns3:hr>           </ns3:TrackPointExtension>         </extensions>       </trkpt>
       <trkpt lat="45.57166465558111667633056640625" lon="14.40956108272075653076171875">         <ele>1297.4000244140625</ele>         <time>2026-02-28T12:52:31.000Z</time>         <extensions>           <ns3:TrackPointExtension>             <ns3:hr>123</ns3:hr>           </ns3:TrackPointExtension>         </extensions>       </trkpt>
       <trkpt lat="45.5716533400118350982666015625" lon="14.40957357175648212432861328125">         <ele>1297</ele>         <time>2026-02-28T12:52:34.000Z</time>         <extensions>           <ns3:TrackPointExtension>             <ns3:hr>122</ns3:hr>           </ns3:TrackPointExtension>         </extensions>       </trkpt>
       <trkpt lat="45.5716399289667606353759765625" lon="14.40957223065197467803955078125">         <ele>1297</ele>         <time>2026-02-28T12:52:41.000Z</time>         <extensions>           <ns3:TrackPointExtension>             <ns3:hr>121</ns3:hr>           </ns3:TrackPointExtension>         </extensions>       </trkpt>
       <trkpt lat="45.5716342292726039886474609375" lon="14.40958346240222454071044921875">         <ele>1297</ele>         <time>2026-02-28T12:52:47.000Z</time>         <extensions>           <ns3:TrackPointExtension>             <ns3:hr>118</ns3:hr>           </ns3:TrackPointExtension>         </extensions>       </trkpt>
       <trkpt lat="45.571641437709331512451171875" lon="14.4095877371728420257568359375">         <ele>1297.199951171875</ele>         <time>2026-02-28T12:52:51.000Z</time>         <extensions>           <ns3:TrackPointExtension>             <ns3:hr>118</ns3:hr>           </ns3:TrackPointExtension>         </extensions>       </trkpt>
       <trkpt lat="45.5716392584145069122314453125" lon="14.40957206301391124725341796875">         <ele>1297.5999755859375</ele>         <time>2026-02-28T12:52:58.000Z</time>         <extensions>           <ns3:TrackPointExtension>             <ns3:hr>116</ns3:hr>           </ns3:TrackPointExtension>         </extensions>       </trkpt>
       <trkpt lat="45.571640431880950927734375" lon="14.4095538742840290069580078125">         <ele>1297.800048828125</ele>         <time>2026-02-28T12:53:06.000Z</time>         <extensions>           <ns3:TrackPointExtension>             <ns3:hr>119</ns3:hr>           </ns3:TrackPointExtension>         </extensions>       </trkpt>
       <trkpt lat="45.571635402739048004150390625" lon="14.40955228172242641448974609375">         <ele>1297.5999755859375</ele>         <time>2026-02-28T12:53:07.000Z</time>         <extensions>           <ns3:TrackPointExtension>             <ns3:hr>119</ns3:hr>           </ns3:TrackPointExtension>         </extensions>       </trkpt>
       <trkpt lat="45.57163062505424022674560546875" lon="14.4095646031200885772705078125">         <ele>1297.800048828125</ele>         <time>2026-02-28T12:53:12.000Z</time>         <extensions>           <ns3:TrackPointExtension>             <ns3:hr>122</ns3:hr>           </ns3:TrackPointExtension>         </extensions>       </trkpt>
       <trkpt lat="45.57163297198712825775146484375" lon="14.409574829041957855224609375">         <ele>1297.800048828125</ele>         <time>2026-02-28T12:53:14.000Z</time>         <extensions>           <ns3:TrackPointExtension>             <ns3:hr>125</ns3:hr>           </ns3:TrackPointExtension>         </extensions>       </trkpt>
       <trkpt lat="45.5716405995190143585205078125" lon="14.4095763377845287322998046875">         <ele>1297.800048828125</ele>         <time>2026-02-28T12:53:16.000Z</time>         <extensions>           <ns3:TrackPointExtension>             <ns3:hr>128</ns3:hr>           </ns3:TrackPointExtension>         </extensions>       </trkpt>
       <trkpt lat="45.57164722122251987457275390625" lon="14.409578852355480194091796875">         <ele>1297.800048828125</ele>         <time>2026-02-28T12:53:17.000Z</time>         <extensions>           <ns3:TrackPointExtension>             <ns3:hr>129</ns3:hr>           </ns3:TrackPointExtension>         </extensions>       </trkpt>
       <trkpt lat="45.57166968472301959991455078125" lon="14.4095857255160808563232421875">         <ele>1297.800048828125</ele>         <time>2026-02-28T12:53:21.000Z</time>         <extensions>           <ns3:TrackPointExtension>             <ns3:hr>126</ns3:hr>           </ns3:TrackPointExtension>         </extensions>       </trkpt>
       <trkpt lat="45.57167706079781055450439453125" lon="14.40959016792476177215576171875">         <ele>1297.800048828125</ele>         <time>2026-02-28T12:53:23.000Z</time>         <extensions>           <ns3:TrackPointExtension>             <ns3:hr>121</ns3:hr>           </ns3:TrackPointExtension>         </extensions>       </trkpt>
       <trkpt lat="45.57166432030498981475830078125" lon="14.40959972329437732696533203125">         <ele>1297.800048828125</ele>         <time>2026-02-28T12:53:24.000Z</time>         <extensions>           <ns3:TrackPointExtension>             <ns3:hr>117</ns3:hr>           </ns3:TrackPointExtension>         </extensions>       </trkpt>
       <trkpt lat="45.57165912352502346038818359375" lon="14.4096006453037261962890625">         <ele>1297.800048828125</ele>         <time>2026-02-28T12:53:25.000Z</time>         <extensions>           <ns3:TrackPointExtension>             <ns3:hr>116</ns3:hr>           </ns3:TrackPointExtension>         </extensions>       </trkpt>
       <trkpt lat="45.5716670863330364227294921875" lon="14.40959871746599674224853515625">         <ele>1298</ele>         <time>2026-02-28T12:53:28.000Z</time>         <extensions>           <ns3:TrackPointExtension>             <ns3:hr>113</ns3:hr>           </ns3:TrackPointExtension>         </extensions>       </trkpt>
       <trkpt lat="45.57166230864822864532470703125" lon="14.40959519706666469573974609375">         <ele>1298</ele>         <time>2026-02-28T12:53:33.000Z</time>         <extensions>           <ns3:TrackPointExtension>             <ns3:hr>116</ns3:hr>           </ns3:TrackPointExtension>         </extensions>       </trkpt>
       <trkpt lat="45.57161428034305572509765625" lon="14.40958413295447826385498046875">         <ele>1298</ele>         <time>2026-02-28T12:53:38.000Z</time>         <extensions>           <ns3:TrackPointExtension>             <ns3:hr>116</ns3:hr>           </ns3:TrackPointExtension>         </extensions>       </trkpt>
       <trkpt lat="45.57159793563187122344970703125" lon="14.4095726497471332550048828125">         <ele>1298.199951171875</ele>         <time>2026-02-28T12:53:40.000Z</time>         <extensions>           <ns3:TrackPointExtension>             <ns3:hr>116</ns3:hr>           </ns3:TrackPointExtension>         </extensions>       </trkpt>
       <trkpt lat="45.57155686430633068084716796875" lon="14.40953702665865421295166015625">         <ele>1298.199951171875</ele>         <time>2026-02-28T12:53:46.000Z</time>         <extensions>           <ns3:TrackPointExtension>             <ns3:hr>118</ns3:hr>           </ns3:TrackPointExtension>         </extensions>       </trkpt>
       <trkpt lat="45.57151503860950469970703125" lon="14.409493021667003631591796875">         <ele>1298.199951171875</ele>         <time>2026-02-28T12:53:51.000Z</time>         <extensions>           <ns3:TrackPointExtension>             <ns3:hr>114</ns3:hr>           </ns3:TrackPointExtension>         </extensions>       </trkpt>
       <trkpt lat="45.57150925509631633758544921875" lon="14.40948606468737125396728515625">         <ele>1298.199951171875</ele>         <time>2026-02-28T12:53:52.000Z</time>         <extensions>           <ns3:TrackPointExtension>             <ns3:hr>109</ns3:hr>           </ns3:TrackPointExtension>         </extensions>       </trkpt>
       <trkpt lat="45.5715007893741130828857421875" lon="14.40947600640356540679931640625">         <ele>1298.199951171875</ele>         <time>2026-02-28T12:53:53.000Z</time>         <extensions>           <ns3:TrackPointExtension>             <ns3:hr>104</ns3:hr>           </ns3:TrackPointExtension>         </extensions>       </trkpt>
       <trkpt lat="45.57149467058479785919189453125" lon="14.40947131253778934478759765625">         <ele>1298.199951171875</ele>         <time>2026-02-28T12:53:54.000Z</time>         <extensions>           <ns3:TrackPointExtension>             <ns3:hr>101</ns3:hr>           </ns3:TrackPointExtension>         </extensions>       </trkpt>
       <trkpt lat="45.57142962701618671417236328125" lon="14.4094244576990604400634765625">         <ele>1298</ele>         <time>2026-02-28T12:54:00.000Z</time>         <extensions>           <ns3:TrackPointExtension>             <ns3:hr>101</ns3:hr>           </ns3:TrackPointExtension>         </extensions>       </trkpt>
       <trkpt lat="45.5713864602148532867431640625" lon="14.4094026647508144378662109375">         <ele>1298.199951171875</ele>         <time>2026-02-28T12:54:04.000Z</time>         <extensions>           <ns3:TrackPointExtension>             <ns3:hr>104</ns3:hr>           </ns3:TrackPointExtension>         </extensions>       </trkpt>
       <trkpt lat="45.57137422263622283935546875" lon="14.40939269028604030609130859375">         <ele>1298.199951171875</ele>         <time>2026-02-28T12:54:05.000Z</time>         <extensions>           <ns3:TrackPointExtension>             <ns3:hr>104</ns3:hr>           </ns3:TrackPointExtension>         </extensions>       </trkpt>
       <trkpt lat="45.57131362147629261016845703125" lon="14.4093506969511508941650390625">         <ele>1298.4000244140625</ele>         <time>2026-02-28T12:54:09.000Z</time>         <extensions>           <ns3:TrackPointExtension>             <ns3:hr>107</ns3:hr>           </ns3:TrackPointExtension>         </extensions>       </trkpt>
       <trkpt lat="45.5712986178696155548095703125" lon="14.409324713051319122314453125">         <ele>1298.4000244140625</ele>         <time>2026-02-28T12:54:11.000Z</time>         <extensions>           <ns3:TrackPointExtension>             <ns3:hr>108</ns3:hr>           </ns3:TrackPointExtension>         </extensions>       </trkpt>
       <trkpt lat="45.57124547660350799560546875" lon="14.40926729701459407806396484375">         <ele>1298.800048828125</ele>         <time>2026-02-28T12:54:17.000Z</time>         <extensions>           <ns3:TrackPointExtension>             <ns3:hr>113</ns3:hr>           </ns3:TrackPointExtension>         </extensions>       </trkpt>
       <trkpt lat="45.571231059730052947998046875" lon="14.40926210023462772369384765625">         <ele>1298.800048828125</ele>         <time>2026-02-28T12:54:18.000Z</time>         <extensions>           <ns3:TrackPointExtension>             <ns3:hr>116</ns3:hr>           </ns3:TrackPointExtension>         </extensions>       </trkpt>
       <trkpt lat="45.5711879767477512359619140625" lon="14.40923930145800113677978515625">         <ele>1299</ele>         <time>2026-02-28T12:54:22.000Z</time>         <extensions>           <ns3:TrackPointExtension>             <ns3:hr>119</ns3:hr>           </ns3:TrackPointExtension>         </extensions>       </trkpt>
       <trkpt lat="45.5711668543517589569091796875" lon="14.4092229567468166351318359375">         <ele>1299</ele>         <time>2026-02-28T12:54:24.000Z</time>         <extensions>           <ns3:TrackPointExtension>             <ns3:hr>120</ns3:hr>           </ns3:TrackPointExtension>         </extensions>       </trkpt>
       <trkpt lat="45.5711589753627777099609375" lon="14.40921910107135772705078125">         <ele>1299.199951171875</ele>         <time>2026-02-28T12:54:25.000Z</time>         <extensions>           <ns3:TrackPointExtension>             <ns3:hr>121</ns3:hr>           </ns3:TrackPointExtension>         </extensions>       </trkpt>
       <trkpt lat="45.571125112473964691162109375" lon="14.40919185988605022430419921875">         <ele>1299.4000244140625</ele>         <time>2026-02-28T12:54:28.000Z</time>         <extensions>           <ns3:TrackPointExtension>             <ns3:hr>124</ns3:hr>           </ns3:TrackPointExtension>         </extensions>       </trkpt>
       <trkpt lat="45.57110876776278018951416015625" lon="14.40917409025132656097412109375">         <ele>1299.4000244140625</ele>         <time>2026-02-28T12:54:30.000Z</time>         <extensions>           <ns3:TrackPointExtension>             <ns3:hr>124</ns3:hr>           </ns3:TrackPointExtension>         </extensions>       </trkpt>
       <trkpt lat="45.57106434367597103118896484375" lon="14.40908708609640598297119140625">         <ele>1299.5999755859375</ele>         <time>2026-02-28T12:54:37.000Z</time>         <extensions>           <ns3:TrackPointExtension>             <ns3:hr>124</ns3:hr>           </ns3:TrackPointExtension>         </extensions>       </trkpt>
       <trkpt lat="45.5710330791771411895751953125" lon="14.40901097841560840606689453125">         <ele>1300</ele>         <time>2026-02-28T12:54:42.000Z</time>         <extensions>           <ns3:TrackPointExtension>             <ns3:hr>127</ns3:hr>           </ns3:TrackPointExtension>         </extensions>       </trkpt>
       <trkpt lat="45.57102796621620655059814453125" lon="14.40899379551410675048828125">         <ele>1300</ele>         <time>2026-02-28T12:54:44.000Z</time>         <extensions>           <ns3:TrackPointExtension>             <ns3:hr>128</ns3:hr>           </ns3:TrackPointExtension>         </extensions>       </trkpt>
       <trkpt lat="45.5710116215050220489501953125" lon="14.4089352898299694061279296875">         <ele>1300</ele>         <time>2026-02-28T12:54:50.000Z</time>         <extensions>           <ns3:TrackPointExtension>             <ns3:hr>125</ns3:hr>           </ns3:TrackPointExtension>         </extensions>       </trkpt>
       <trkpt lat="45.57100784964859485626220703125" lon="14.408927075564861297607421875">         <ele>1300</ele>         <time>2026-02-28T12:54:51.000Z</time>         <extensions>           <ns3:TrackPointExtension>             <ns3:hr>125</ns3:hr>           </ns3:TrackPointExtension>         </extensions>       </trkpt>
       <trkpt lat="45.5709915049374103546142578125" lon="14.40889363177120685577392578125">         <ele>1300.199951171875</ele>         <time>2026-02-28T12:54:53.000Z</time>         <extensions>           <ns3:TrackPointExtension>             <ns3:hr>126</ns3:hr>           </ns3:TrackPointExtension>         </extensions>       </trkpt>
       <trkpt lat="45.5709536187350749969482421875" lon="14.40881920047104358673095703125">         <ele>1300.199951171875</ele>         <time>2026-02-28T12:54:59.000Z</time>         <extensions>           <ns3:TrackPointExtension>             <ns3:hr>127</ns3:hr>           </ns3:TrackPointExtension>         </extensions>       </trkpt>
       <trkpt lat="45.57090483605861663818359375" lon="14.40874300897121429443359375">         <ele>1300.199951171875</ele>         <time>2026-02-28T12:55:06.000Z</time>         <extensions>           <ns3:TrackPointExtension>             <ns3:hr>127</ns3:hr>           </ns3:TrackPointExtension>         </extensions>       </trkpt>
       <trkpt lat="45.57086535729467868804931640625" lon="14.408674947917461395263671875">         <ele>1300</ele>         <time>2026-02-28T12:55:13.000Z</time>         <extensions>           <ns3:TrackPointExtension>             <ns3:hr>124</ns3:hr>           </ns3:TrackPointExtension>         </extensions>       </trkpt>
       <trkpt lat="45.5708451569080352783203125" lon="14.40864318050444126129150390625">         <ele>1300</ele>         <time>2026-02-28T12:55:16.000Z</time>         <extensions>           <ns3:TrackPointExtension>             <ns3:hr>124</ns3:hr>           </ns3:TrackPointExtension>         </extensions>       </trkpt>
       <trkpt lat="45.5707916803658008575439453125" lon="14.40854561515152454376220703125">         <ele>1300</ele>         <time>2026-02-28T12:55:24.000Z</time>         <extensions>           <ns3:TrackPointExtension>             <ns3:hr>125</ns3:hr>           </ns3:TrackPointExtension>         </extensions>       </trkpt>
       <trkpt lat="45.57076276279985904693603515625" lon="14.40846229903399944305419921875">         <ele>1300</ele>         <time>2026-02-28T12:55:31.000Z</time>         <extensions>           <ns3:TrackPointExtension>             <ns3:hr>122</ns3:hr>           </ns3:TrackPointExtension>         </extensions>       </trkpt>
       <trkpt lat="45.5707564763724803924560546875" lon="14.40845006145536899566650390625">         <ele>1300</ele>         <time>2026-02-28T12:55:32.000Z</time>         <extensions>           <ns3:TrackPointExtension>             <ns3:hr>122</ns3:hr>           </ns3:TrackPointExtension>         </extensions>       </trkpt>
       <trkpt lat="45.57072722353041172027587890625" lon="14.4083426892757415771484375">         <ele>1300</ele>         <time>2026-02-28T12:55:38.000Z</time>         <extensions>           <ns3:TrackPointExtension>             <ns3:hr>119</ns3:hr>           </ns3:TrackPointExtension>         </extensions>       </trkpt>
       <trkpt lat="45.57072018273174762725830078125" lon="14.40831880085170269012451171875">         <ele>1300</ele>         <time>2026-02-28T12:55:40.000Z</time>         <extensions>           <ns3:TrackPointExtension>             <ns3:hr>119</ns3:hr>           </ns3:TrackPointExtension>         </extensions>       </trkpt>
       <trkpt lat="45.57065916247665882110595703125" lon="14.40824009478092193603515625">         <ele>1300.199951171875</ele>         <time>2026-02-28T12:55:48.000Z</time>         <extensions>           <ns3:TrackPointExtension>             <ns3:hr>119</ns3:hr>           </ns3:TrackPointExtension>         </extensions>       </trkpt>
       <trkpt lat="45.57060501538217067718505859375" lon="14.40816222690045833587646484375">         <ele>1300.199951171875</ele>         <time>2026-02-28T12:55:54.000Z</time>         <extensions>           <ns3:TrackPointExtension>             <ns3:hr>120</ns3:hr>           </ns3:TrackPointExtension>         </extensions>       </trkpt>
       <trkpt lat="45.57056821882724761962890625" lon="14.4080686010420322418212890625">         <ele>1300.199951171875</ele>         <time>2026-02-28T12:56:01.000Z</time>         <extensions>           <ns3:TrackPointExtension>             <ns3:hr>120</ns3:hr>           </ns3:TrackPointExtension>         </extensions>       </trkpt>
       <trkpt lat="45.57053443975746631622314453125" lon="14.407977573573589324951171875">         <ele>1300.199951171875</ele>         <time>2026-02-28T12:56:07.000Z</time>         <extensions>           <ns3:TrackPointExtension>             <ns3:hr>119</ns3:hr>           </ns3:TrackPointExtension>         </extensions>       </trkpt>
       <trkpt lat="45.57049772702157497406005859375" lon="14.40789786167442798614501953125">         <ele>1300.199951171875</ele>         <time>2026-02-28T12:56:13.000Z</time>         <extensions>           <ns3:TrackPointExtension>             <ns3:hr>118</ns3:hr>           </ns3:TrackPointExtension>         </extensions>       </trkpt>
       <trkpt lat="45.57047090493142604827880859375" lon="14.40785125829279422760009765625">         <ele>1300</ele>         <time>2026-02-28T12:56:16.000Z</time>         <extensions>           <ns3:TrackPointExtension>             <ns3:hr>115</ns3:hr>           </ns3:TrackPointExtension>         </extensions>       </trkpt>
       <trkpt lat="45.5704604275524616241455078125" lon="14.40782569348812103271484375">         <ele>1300</ele>         <time>2026-02-28T12:56:19.000Z</time>         <extensions>           <ns3:TrackPointExtension>             <ns3:hr>114</ns3:hr>           </ns3:TrackPointExtension>         </extensions>       </trkpt>
       <trkpt lat="45.57042161934077739715576171875" lon="14.40778437070548534393310546875">         <ele>1300.199951171875</ele>         <time>2026-02-28T12:56:24.000Z</time>         <extensions>           <ns3:TrackPointExtension>             <ns3:hr>115</ns3:hr>           </ns3:TrackPointExtension>         </extensions>       </trkpt>
       <trkpt lat="45.57036881335079669952392578125" lon="14.4077028147876262664794921875">         <ele>1300</ele>         <time>2026-02-28T12:56:30.000Z</time>         <extensions>           <ns3:TrackPointExtension>             <ns3:hr>116</ns3:hr>           </ns3:TrackPointExtension>         </extensions>       </trkpt>
       <trkpt lat="45.57035691104829311370849609375" lon="14.40766048617660999298095703125">         <ele>1299.800048828125</ele>         <time>2026-02-28T12:56:33.000Z</time>         <extensions>           <ns3:TrackPointExtension>             <ns3:hr>119</ns3:hr>           </ns3:TrackPointExtension>         </extensions>       </trkpt>
       <trkpt lat="45.57034299708902835845947265625" lon="14.40764774568378925323486328125">         <ele>1300</ele>         <time>2026-02-28T12:56:35.000Z</time>         <extensions>           <ns3:TrackPointExtension>             <ns3:hr>123</ns3:hr>           </ns3:TrackPointExtension>         </extensions>       </trkpt>
       <trkpt lat="45.570323467254638671875" lon="14.40760969184339046478271484375">         <ele>1300</ele>         <time>2026-02-28T12:56:37.000Z</time>         <extensions>           <ns3:TrackPointExtension>             <ns3:hr>123</ns3:hr>           </ns3:TrackPointExtension>         </extensions>       </trkpt>
       <trkpt lat="45.57028901763260364532470703125" lon="14.4075648486614227294921875">         <ele>1300</ele>         <time>2026-02-28T12:56:42.000Z</time>         <extensions>           <ns3:TrackPointExtension>             <ns3:hr>124</ns3:hr>           </ns3:TrackPointExtension>         </extensions>       </trkpt>
       <trkpt lat="45.5702421627938747406005859375" lon="14.4075093604624271392822265625">         <ele>1300.199951171875</ele>         <time>2026-02-28T12:56:47.000Z</time>         <extensions>           <ns3:TrackPointExtension>             <ns3:hr>121</ns3:hr>           </ns3:TrackPointExtension>         </extensions>       </trkpt>
       <trkpt lat="45.57019346393644809722900390625" lon="14.4074607454240322113037109375">         <ele>1300.4000244140625</ele>         <time>2026-02-28T12:56:52.000Z</time>         <extensions>           <ns3:TrackPointExtension>             <ns3:hr>121</ns3:hr>           </ns3:TrackPointExtension>         </extensions>       </trkpt>
       <trkpt lat="45.57013227604329586029052734375" lon="14.4073816202580928802490234375">         <ele>1300.5999755859375</ele>         <time>2026-02-28T12:56:58.000Z</time>         <extensions>           <ns3:TrackPointExtension>             <ns3:hr>122</ns3:hr>           </ns3:TrackPointExtension>         </extensions>       </trkpt>
       <trkpt lat="45.57010109536349773406982421875" lon="14.40733350813388824462890625">         <ele>1300.800048828125</ele>         <time>2026-02-28T12:57:02.000Z</time>         <extensions>           <ns3:TrackPointExtension>             <ns3:hr>125</ns3:hr>           </ns3:TrackPointExtension>         </extensions>       </trkpt>
       <trkpt lat="45.57008206844329833984375" lon="14.40731347538530826568603515625">         <ele>1301</ele>         <time>2026-02-28T12:57:04.000Z</time>         <extensions>           <ns3:TrackPointExtension>             <ns3:hr>128</ns3:hr>           </ns3:TrackPointExtension>         </extensions>       </trkpt>
       <trkpt lat="45.57006672956049442291259765625" lon="14.40729503519833087921142578125">         <ele>1301</ele>         <time>2026-02-28T12:57:06.000Z</time>         <extensions>           <ns3:TrackPointExtension>             <ns3:hr>132</ns3:hr>           </ns3:TrackPointExtension>         </extensions>       </trkpt>
       <trkpt lat="45.57004862464964389801025390625" lon="14.40727558918297290802001953125">         <ele>1301</ele>         <time>2026-02-28T12:57:08.000Z</time>         <extensions>           <ns3:TrackPointExtension>             <ns3:hr>135</ns3:hr>           </ns3:TrackPointExtension>         </extensions>       </trkpt>
       <trkpt lat="45.57003672234714031219482421875" lon="14.4072555564343929290771484375">         <ele>1301.199951171875</ele>         <time>2026-02-28T12:57:10.000Z</time>         <extensions>           <ns3:TrackPointExtension>             <ns3:hr>133</ns3:hr>           </ns3:TrackPointExtension>         </extensions>       </trkpt>
       <trkpt lat="45.5700259096920490264892578125" lon="14.4072403013706207275390625">         <ele>1301.199951171875</ele>         <time>2026-02-28T12:57:11.000Z</time>         <extensions>           <ns3:TrackPointExtension>             <ns3:hr>131</ns3:hr>           </ns3:TrackPointExtension>         </extensions>       </trkpt>
       <trkpt lat="45.5700158514082431793212890625" lon="14.40722781233489513397216796875">         <ele>1301.199951171875</ele>         <time>2026-02-28T12:57:12.000Z</time>         <extensions>           <ns3:TrackPointExtension>             <ns3:hr>128</ns3:hr>           </ns3:TrackPointExtension>         </extensions>       </trkpt>
       <trkpt lat="45.570008642971515655517578125" lon="14.40721549093723297119140625">         <ele>1301.199951171875</ele>         <time>2026-02-28T12:57:13.000Z</time>         <extensions>           <ns3:TrackPointExtension>             <ns3:hr>125</ns3:hr>           </ns3:TrackPointExtension>         </extensions>       </trkpt>
       <trkpt lat="45.5700031109154224395751953125" lon="14.40719529055058956146240234375">         <ele>1301.199951171875</ele>         <time>2026-02-28T12:57:15.000Z</time>         <extensions>           <ns3:TrackPointExtension>             <ns3:hr>122</ns3:hr>           </ns3:TrackPointExtension>         </extensions>       </trkpt>
       <trkpt lat="45.56998215615749359130859375" lon="14.4071190990507602691650390625">         <ele>1301</ele>         <time>2026-02-28T12:57:22.000Z</time>         <extensions>           <ns3:TrackPointExtension>             <ns3:hr>121</ns3:hr>           </ns3:TrackPointExtension>         </extensions>       </trkpt>
       <trkpt lat="45.569971092045307159423828125" lon="14.4070939533412456512451171875">         <ele>1301</ele>         <time>2026-02-28T12:57:29.000Z</time>         <extensions>           <ns3:TrackPointExtension>             <ns3:hr>122</ns3:hr>           </ns3:TrackPointExtension>         </extensions>       </trkpt>
       <trkpt lat="45.56997251696884632110595703125" lon="14.40709319896996021270751953125">         <ele>1300.800048828125</ele>         <time>2026-02-28T12:57:33.000Z</time>         <extensions>           <ns3:TrackPointExtension>             <ns3:hr>119</ns3:hr>           </ns3:TrackPointExtension>         </extensions>       </trkpt>
       <trkpt lat="45.5699722655117511749267578125" lon="14.407099150121212005615234375">         <ele>1300.800048828125</ele>         <time>2026-02-28T12:57:37.000Z</time>         <extensions>           <ns3:TrackPointExtension>             <ns3:hr>119</ns3:hr>           </ns3:TrackPointExtension>         </extensions>       </trkpt>
       <trkpt lat="45.56996681727468967437744140625" lon="14.40707878209650516510009765625">         <ele>1301</ele>         <time>2026-02-28T12:57:41.000Z</time>         <extensions>           <ns3:TrackPointExtension>             <ns3:hr>122</ns3:hr>           </ns3:TrackPointExtension>         </extensions>       </trkpt>
       <trkpt lat="45.56996329687535762786865234375" lon="14.40705900080502033233642578125">         <ele>1301</ele>         <time>2026-02-28T12:57:43.000Z</time>         <extensions>           <ns3:TrackPointExtension>             <ns3:hr>124</ns3:hr>           </ns3:TrackPointExtension>         </extensions>       </trkpt>
       <trkpt lat="45.56994368322193622589111328125" lon="14.40700083039700984954833984375">         <ele>1301</ele>         <time>2026-02-28T12:57:47.000Z</time>         <extensions>           <ns3:TrackPointExtension>             <ns3:hr>126</ns3:hr>           </ns3:TrackPointExtension>         </extensions>       </trkpt>
       <trkpt lat="45.569914095103740692138671875" lon="14.4069063663482666015625">         <ele>1300.4000244140625</ele>         <time>2026-02-28T12:57:53.000Z</time>         <extensions>           <ns3:TrackPointExtension>             <ns3:hr>125</ns3:hr>           </ns3:TrackPointExtension>         </extensions>       </trkpt>
       <trkpt lat="45.569885931909084320068359375" lon="14.4067922048270702362060546875">         <ele>1300.199951171875</ele>         <time>2026-02-28T12:57:57.000Z</time>         <extensions>           <ns3:TrackPointExtension>             <ns3:hr>123</ns3:hr>           </ns3:TrackPointExtension>         </extensions>       </trkpt>
       <trkpt lat="45.5698763765394687652587890625" lon="14.40672506578266620635986328125">         <ele>1299.800048828125</ele>         <time>2026-02-28T12:57:59.000Z</time>         <extensions>           <ns3:TrackPointExtension>             <ns3:hr>123</ns3:hr>           </ns3:TrackPointExtension>         </extensions>       </trkpt>
       <trkpt lat="45.56988920085132122039794921875" lon="14.40658424980938434600830078125">         <ele>1299.199951171875</ele>         <time>2026-02-28T12:58:04.000Z</time>         <extensions>           <ns3:TrackPointExtension>             <ns3:hr>119</ns3:hr>           </ns3:TrackPointExtension>         </extensions>       </trkpt>
       <trkpt lat="45.56990043260157108306884765625" lon="14.40655508078634738922119140625">         <ele>1299</ele>         <time>2026-02-28T12:58:05.000Z</time>         <extensions>           <ns3:TrackPointExtension>             <ns3:hr>118</ns3:hr>           </ns3:TrackPointExtension>         </extensions>       </trkpt>
       <trkpt lat="45.569972097873687744140625" lon="14.40638693980872631072998046875">         <ele>1298</ele>         <time>2026-02-28T12:58:11.000Z</time>         <extensions>           <ns3:TrackPointExtension>             <ns3:hr>118</ns3:hr>           </ns3:TrackPointExtension>         </extensions>       </trkpt>
       <trkpt lat="45.57002901099622249603271484375" lon="14.4062976725399494171142578125">         <ele>1297.5999755859375</ele>         <time>2026-02-28T12:58:15.000Z</time>         <extensions>           <ns3:TrackPointExtension>             <ns3:hr>115</ns3:hr>           </ns3:TrackPointExtension>         </extensions>       </trkpt>
       <trkpt lat="45.57005591690540313720703125" lon="14.40624126233160495758056640625">         <ele>1297.4000244140625</ele>         <time>2026-02-28T12:58:17.000Z</time>         <extensions>           <ns3:TrackPointExtension>             <ns3:hr>112</ns3:hr>           </ns3:TrackPointExtension>         </extensions>       </trkpt>
       <trkpt lat="45.5700919590890407562255859375" lon="14.4061669148504734039306640625">         <ele>1296.800048828125</ele>         <time>2026-02-28T12:58:20.000Z</time>         <extensions>           <ns3:TrackPointExtension>             <ns3:hr>111</ns3:hr>           </ns3:TrackPointExtension>         </extensions>       </trkpt>
       <trkpt lat="45.57013445533812046051025390625" lon="14.4060710258781909942626953125">         <ele>1296.199951171875</ele>         <time>2026-02-28T12:58:24.000Z</time>         <extensions>           <ns3:TrackPointExtension>             <ns3:hr>111</ns3:hr>           </ns3:TrackPointExtension>         </extensions>       </trkpt>
       <trkpt lat="45.57016915641725063323974609375" lon="14.4059868715703487396240234375">         <ele>1295.800048828125</ele>         <time>2026-02-28T12:58:27.000Z</time>         <extensions>           <ns3:TrackPointExtension>             <ns3:hr>112</ns3:hr>           </ns3:TrackPointExtension>         </extensions>       </trkpt>
       <trkpt lat="45.5702223815023899078369140625" lon="14.4058081693947315216064453125">         <ele>1294.5999755859375</ele>         <time>2026-02-28T12:58:33.000Z</time>         <extensions>           <ns3:TrackPointExtension>             <ns3:hr>111</ns3:hr>           </ns3:TrackPointExtension>         </extensions>       </trkpt>
       <trkpt lat="45.5702418275177478790283203125" lon="14.40562225878238677978515625">         <ele>1293.5999755859375</ele>         <time>2026-02-28T12:58:39.000Z</time>         <extensions>           <ns3:TrackPointExtension>             <ns3:hr>110</ns3:hr>           </ns3:TrackPointExtension>         </extensions>       </trkpt>
       <trkpt lat="45.570251382887363433837890625" lon="14.40555394627153873443603515625">         <ele>1293.199951171875</ele>         <time>2026-02-28T12:58:41.000Z</time>         <extensions>           <ns3:TrackPointExtension>             <ns3:hr>112</ns3:hr>           </ns3:TrackPointExtension>         </extensions>       </trkpt>
       <trkpt lat="45.570272505283355712890625" lon="14.4053012318909168243408203125">         <ele>1292.4000244140625</ele>         <time>2026-02-28T12:58:47.000Z</time>         <extensions>           <ns3:TrackPointExtension>             <ns3:hr>111</ns3:hr>           </ns3:TrackPointExtension>         </extensions>       </trkpt>
       <trkpt lat="45.57027409784495830535888671875" lon="14.40525102429091930389404296875">         <ele>1292.4000244140625</ele>         <time>2026-02-28T12:58:48.000Z</time>         <extensions>           <ns3:TrackPointExtension>             <ns3:hr>111</ns3:hr>           </ns3:TrackPointExtension>         </extensions>       </trkpt>
       <trkpt lat="45.57026186026632785797119140625" lon="14.4050729088485240936279296875">         <ele>1291.4000244140625</ele>         <time>2026-02-28T12:58:52.000Z</time>         <extensions>           <ns3:TrackPointExtension>             <ns3:hr>111</ns3:hr>           </ns3:TrackPointExtension>         </extensions>       </trkpt>
       <trkpt lat="45.57024828158318996429443359375" lon="14.40496436320245265960693359375">         <ele>1290.4000244140625</ele>         <time>2026-02-28T12:58:55.000Z</time>         <extensions>           <ns3:TrackPointExtension>             <ns3:hr>110</ns3:hr>           </ns3:TrackPointExtension>         </extensions>       </trkpt>
       <trkpt lat="45.57024006731808185577392578125" lon="14.404932595789432525634765625">         <ele>1290.199951171875</ele>         <time>2026-02-28T12:58:56.000Z</time>         <extensions>           <ns3:TrackPointExtension>             <ns3:hr>110</ns3:hr>           </ns3:TrackPointExtension>         </extensions>       </trkpt>
       <trkpt lat="45.57016915641725063323974609375" lon="14.4046962261199951171875">         <ele>1289.199951171875</ele>         <time>2026-02-28T12:59:03.000Z</time>         <extensions>           <ns3:TrackPointExtension>             <ns3:hr>110</ns3:hr>           </ns3:TrackPointExtension>         </extensions>       </trkpt>
       <trkpt lat="45.57008533738553524017333984375" lon="14.40444770269095897674560546875">         <ele>1288</ele>         <time>2026-02-28T12:59:09.000Z</time>         <extensions>           <ns3:TrackPointExtension>             <ns3:hr>111</ns3:hr>           </ns3:TrackPointExtension>         </extensions>       </trkpt>
       <trkpt lat="45.5700715072453022003173828125" lon="14.404406882822513580322265625">         <ele>1287.800048828125</ele>         <time>2026-02-28T12:59:10.000Z</time>         <extensions>           <ns3:TrackPointExtension>             <ns3:hr>111</ns3:hr>           </ns3:TrackPointExtension>         </extensions>       </trkpt>
       <trkpt lat="45.57004141621291637420654296875" lon="14.4042964093387126922607421875">         <ele>1286.800048828125</ele>         <time>2026-02-28T12:59:13.000Z</time>         <extensions>           <ns3:TrackPointExtension>             <ns3:hr>111</ns3:hr>           </ns3:TrackPointExtension>         </extensions>       </trkpt>
       <trkpt lat="45.5700279213488101959228515625" lon="14.40419758670032024383544921875">         <ele>1286.4000244140625</ele>         <time>2026-02-28T12:59:16.000Z</time>         <extensions>           <ns3:TrackPointExtension>             <ns3:hr>110</ns3:hr>           </ns3:TrackPointExtension>         </extensions>       </trkpt>
       <trkpt lat="45.570024065673351287841796875" lon="14.4040915556252002716064453125">         <ele>1285.800048828125</ele>         <time>2026-02-28T12:59:20.000Z</time>         <extensions>           <ns3:TrackPointExtension>             <ns3:hr>110</ns3:hr>           </ns3:TrackPointExtension>         </extensions>       </trkpt>
       <trkpt lat="45.57002498768270015716552734375" lon="14.40405928529798984527587890625">         <ele>1285.800048828125</ele>         <time>2026-02-28T12:59:21.000Z</time>         <extensions>           <ns3:TrackPointExtension>             <ns3:hr>111</ns3:hr>           </ns3:TrackPointExtension>         </extensions>       </trkpt>
       <trkpt lat="45.57004795409739017486572265625" lon="14.4039074890315532684326171875">         <ele>1285</ele>         <time>2026-02-28T12:59:28.000Z</time>         <extensions>           <ns3:TrackPointExtension>             <ns3:hr>111</ns3:hr>           </ns3:TrackPointExtension>         </extensions>       </trkpt>
       <trkpt lat="45.57010645978152751922607421875" lon="14.403794668614864349365234375">         <ele>1284.800048828125</ele>         <time>2026-02-28T12:59:33.000Z</time>         <extensions>           <ns3:TrackPointExtension>             <ns3:hr>109</ns3:hr>           </ns3:TrackPointExtension>         </extensions>       </trkpt>
       <trkpt lat="45.57011752389371395111083984375" lon="14.403771869838237762451171875">         <ele>1284.800048828125</ele>         <time>2026-02-28T12:59:34.000Z</time>         <extensions>           <ns3:TrackPointExtension>             <ns3:hr>109</ns3:hr>           </ns3:TrackPointExtension>         </extensions>       </trkpt>
       <trkpt lat="45.57018063962459564208984375" lon="14.4036613963544368743896484375">         <ele>1284</ele>         <time>2026-02-28T12:59:40.000Z</time>         <extensions>           <ns3:TrackPointExtension>             <ns3:hr>109</ns3:hr>           </ns3:TrackPointExtension>         </extensions>       </trkpt>
       <trkpt lat="45.5702287517488002777099609375" lon="14.4035909883677959442138671875">         <ele>1283.800048828125</ele>         <time>2026-02-28T12:59:44.000Z</time>         <extensions>           <ns3:TrackPointExtension>             <ns3:hr>107</ns3:hr>           </ns3:TrackPointExtension>         </extensions>       </trkpt>
       <trkpt lat="45.57030494324862957000732421875" lon="14.403520412743091583251953125">         <ele>1283.4000244140625</ele>         <time>2026-02-28T12:59:48.000Z</time>         <extensions>           <ns3:TrackPointExtension>             <ns3:hr>108</ns3:hr>           </ns3:TrackPointExtension>         </extensions>       </trkpt>
       <trkpt lat="45.5703528039157390594482421875" lon="14.40350155346095561981201171875">         <ele>1283.199951171875</ele>         <time>2026-02-28T12:59:50.000Z</time>         <extensions>           <ns3:TrackPointExtension>             <ns3:hr>112</ns3:hr>           </ns3:TrackPointExtension>         </extensions>       </trkpt>
       <trkpt lat="45.57041390798985958099365234375" lon="14.40347841940820217132568359375">         <ele>1282.5999755859375</ele>         <time>2026-02-28T12:59:53.000Z</time>         <extensions>           <ns3:TrackPointExtension>             <ns3:hr>111</ns3:hr>           </ns3:TrackPointExtension>         </extensions>       </trkpt>
       <trkpt lat="45.5704339407384395599365234375" lon="14.40347003750503063201904296875">         <ele>1282.5999755859375</ele>         <time>2026-02-28T12:59:54.000Z</time>         <extensions>           <ns3:TrackPointExtension>             <ns3:hr>111</ns3:hr>           </ns3:TrackPointExtension>         </extensions>       </trkpt>
       <trkpt lat="45.57051063515245914459228515625" lon="14.4034153036773204803466796875">         <ele>1281.800048828125</ele>         <time>2026-02-28T13:00:00.000Z</time>         <extensions>           <ns3:TrackPointExtension>             <ns3:hr>111</ns3:hr>           </ns3:TrackPointExtension>         </extensions>       </trkpt>
       <trkpt lat="45.57053544558584690093994140625" lon="14.4034047424793243408203125">         <ele>1281.5999755859375</ele>         <time>2026-02-28T13:00:02.000Z</time>         <extensions>           <ns3:TrackPointExtension>             <ns3:hr>111</ns3:hr>           </ns3:TrackPointExtension>         </extensions>       </trkpt>
       <trkpt lat="45.57056042365729808807373046875" lon="14.40339527092874050140380859375">         <ele>1281.4000244140625</ele>         <time>2026-02-28T13:00:04.000Z</time>         <extensions>           <ns3:TrackPointExtension>             <ns3:hr>113</ns3:hr>           </ns3:TrackPointExtension>         </extensions>       </trkpt>
       <trkpt lat="45.57064332067966461181640625" lon="14.40335688181221485137939453125">         <ele>1280.5999755859375</ele>         <time>2026-02-28T13:00:10.000Z</time>         <extensions>           <ns3:TrackPointExtension>             <ns3:hr>112</ns3:hr>           </ns3:TrackPointExtension>         </extensions>       </trkpt>
       <trkpt lat="45.570657737553119659423828125" lon="14.40334799699485301971435546875">         <ele>1280.4000244140625</ele>         <time>2026-02-28T13:00:11.000Z</time>         <extensions>           <ns3:TrackPointExtension>             <ns3:hr>112</ns3:hr>           </ns3:TrackPointExtension>         </extensions>       </trkpt>
       <trkpt lat="45.57075555436313152313232421875" lon="14.4033001363277435302734375">         <ele>1279.800048828125</ele>         <time>2026-02-28T13:00:17.000Z</time>         <extensions>           <ns3:TrackPointExtension>             <ns3:hr>113</ns3:hr>           </ns3:TrackPointExtension>         </extensions>       </trkpt>
       <trkpt lat="45.57080182246863842010498046875" lon="14.40328513272106647491455078125">         <ele>1279.5999755859375</ele>         <time>2026-02-28T13:00:19.000Z</time>         <extensions>           <ns3:TrackPointExtension>             <ns3:hr>112</ns3:hr>           </ns3:TrackPointExtension>         </extensions>       </trkpt>
       <trkpt lat="45.57090005837380886077880859375" lon="14.4032526947557926177978515625">         <ele>1279</ele>         <time>2026-02-28T13:00:24.000Z</time>         <extensions>           <ns3:TrackPointExtension>             <ns3:hr>111</ns3:hr>           </ns3:TrackPointExtension>         </extensions>       </trkpt>
       <trkpt lat="45.57097298093140125274658203125" lon="14.40323249436914920806884765625">         <ele>1278.5999755859375</ele>         <time>2026-02-28T13:00:29.000Z</time>         <extensions>           <ns3:TrackPointExtension>             <ns3:hr>110</ns3:hr>           </ns3:TrackPointExtension>         </extensions>       </trkpt>
       <trkpt lat="45.5710129626095294952392578125" lon="14.40322260372340679168701171875">         <ele>1278.5999755859375</ele>         <time>2026-02-28T13:00:32.000Z</time>         <extensions>           <ns3:TrackPointExtension>             <ns3:hr>110</ns3:hr>           </ns3:TrackPointExtension>         </extensions>       </trkpt>
       <trkpt lat="45.571070127189159393310546875" lon="14.40320449881255626678466796875">         <ele>1278.4000244140625</ele>         <time>2026-02-28T13:00:36.000Z</time>         <extensions>           <ns3:TrackPointExtension>             <ns3:hr>111</ns3:hr>           </ns3:TrackPointExtension>         </extensions>       </trkpt>
       <trkpt lat="45.5711239390075206756591796875" lon="14.40320667810738086700439453125">         <ele>1278.199951171875</ele>         <time>2026-02-28T13:00:40.000Z</time>         <extensions>           <ns3:TrackPointExtension>             <ns3:hr>111</ns3:hr>           </ns3:TrackPointExtension>         </extensions>       </trkpt>
       <trkpt lat="45.57120817713439464569091796875" lon="14.4032697938382625579833984375">         <ele>1277.800048828125</ele>         <time>2026-02-28T13:00:45.000Z</time>         <extensions>           <ns3:TrackPointExtension>             <ns3:hr>114</ns3:hr>           </ns3:TrackPointExtension>         </extensions>       </trkpt>
       <trkpt lat="45.5712171457707881927490234375" lon="14.40327490679919719696044921875">         <ele>1277.5999755859375</ele>         <time>2026-02-28T13:00:46.000Z</time>         <extensions>           <ns3:TrackPointExtension>             <ns3:hr>117</ns3:hr>           </ns3:TrackPointExtension>         </extensions>       </trkpt>
       <trkpt lat="45.571226365864276885986328125" lon="14.403279013931751251220703125">         <ele>1277.5999755859375</ele>         <time>2026-02-28T13:00:47.000Z</time>         <extensions>           <ns3:TrackPointExtension>             <ns3:hr>120</ns3:hr>           </ns3:TrackPointExtension>         </extensions>       </trkpt>
       <trkpt lat="45.5712523497641086578369140625" lon="14.4032791815698146820068359375">         <ele>1277.5999755859375</ele>         <time>2026-02-28T13:00:49.000Z</time>         <extensions>           <ns3:TrackPointExtension>             <ns3:hr>121</ns3:hr>           </ns3:TrackPointExtension>         </extensions>       </trkpt>
       <trkpt lat="45.5712929181754589080810546875" lon="14.403285048902034759521484375">         <ele>1277.5999755859375</ele>         <time>2026-02-28T13:00:54.000Z</time>         <extensions>           <ns3:TrackPointExtension>             <ns3:hr>118</ns3:hr>           </ns3:TrackPointExtension>         </extensions>       </trkpt>
       <trkpt lat="45.57132082991302013397216796875" lon="14.4033036567270755767822265625">         <ele>1277.800048828125</ele>         <time>2026-02-28T13:00:59.000Z</time>         <extensions>           <ns3:TrackPointExtension>             <ns3:hr>116</ns3:hr>           </ns3:TrackPointExtension>         </extensions>       </trkpt>
       <trkpt lat="45.571406073868274688720703125" lon="14.4034136272966861724853515625">         <ele>1277.800048828125</ele>         <time>2026-02-28T13:01:08.000Z</time>         <extensions>           <ns3:TrackPointExtension>             <ns3:hr>113</ns3:hr>           </ns3:TrackPointExtension>         </extensions>       </trkpt>
       <trkpt lat="45.57144287042319774627685546875" lon="14.403474144637584686279296875">         <ele>1277.800048828125</ele>         <time>2026-02-28T13:01:13.000Z</time>         <extensions>           <ns3:TrackPointExtension>             <ns3:hr>112</ns3:hr>           </ns3:TrackPointExtension>         </extensions>       </trkpt>
       <trkpt lat="45.57147304527461528778076171875" lon="14.403517059981822967529296875">         <ele>1277.5999755859375</ele>         <time>2026-02-28T13:01:17.000Z</time>         <extensions>           <ns3:TrackPointExtension>             <ns3:hr>113</ns3:hr>           </ns3:TrackPointExtension>         </extensions>       </trkpt>
       <trkpt lat="45.57149483822286128997802734375" lon="14.40355972386896610260009765625">         <ele>1277.5999755859375</ele>         <time>2026-02-28T13:01:21.000Z</time>         <extensions>           <ns3:TrackPointExtension>             <ns3:hr>116</ns3:hr>           </ns3:TrackPointExtension>         </extensions>       </trkpt>
       <trkpt lat="45.57152040302753448486328125" lon="14.40360113047063350677490234375">         <ele>1277.5999755859375</ele>         <time>2026-02-28T13:01:24.000Z</time>         <extensions>           <ns3:TrackPointExtension>             <ns3:hr>119</ns3:hr>           </ns3:TrackPointExtension>         </extensions>       </trkpt>
       <trkpt lat="45.5715393461287021636962890625" lon="14.40363482572138309478759765625">         <ele>1277.5999755859375</ele>         <time>2026-02-28T13:01:27.000Z</time>         <extensions>           <ns3:TrackPointExtension>             <ns3:hr>122</ns3:hr>           </ns3:TrackPointExtension>         </extensions>       </trkpt>
       <trkpt lat="45.57155770249664783477783203125" lon="14.40366089344024658203125">         <ele>1277.5999755859375</ele>         <time>2026-02-28T13:01:32.000Z</time>         <extensions>           <ns3:TrackPointExtension>             <ns3:hr>120</ns3:hr>           </ns3:TrackPointExtension>         </extensions>       </trkpt>
       <trkpt lat="45.571573711931705474853515625" lon="14.403680004179477691650390625">         <ele>1277.4000244140625</ele>         <time>2026-02-28T13:01:39.000Z</time>         <extensions>           <ns3:TrackPointExtension>             <ns3:hr>118</ns3:hr>           </ns3:TrackPointExtension>         </extensions>       </trkpt>
       <trkpt lat="45.57161570526659488677978515625" lon="14.40370087511837482452392578125">         <ele>1277.4000244140625</ele>         <time>2026-02-28T13:01:48.000Z</time>         <extensions>           <ns3:TrackPointExtension>             <ns3:hr>120</ns3:hr>           </ns3:TrackPointExtension>         </extensions>       </trkpt>
       <trkpt lat="45.57164235971868038177490234375" lon="14.40363549627363681793212890625">         <ele>1277.4000244140625</ele>         <time>2026-02-28T13:01:59.000Z</time>         <extensions>           <ns3:TrackPointExtension>             <ns3:hr>121</ns3:hr>           </ns3:TrackPointExtension>         </extensions>       </trkpt>
       <trkpt lat="45.57163816876709461212158203125" lon="14.40370724536478519439697265625">         <ele>1277.4000244140625</ele>         <time>2026-02-28T13:02:07.000Z</time>         <extensions>           <ns3:TrackPointExtension>             <ns3:hr>120</ns3:hr>           </ns3:TrackPointExtension>         </extensions>       </trkpt>
       <trkpt lat="45.57161352597177028656005859375" lon="14.40367874689400196075439453125">         <ele>1277.4000244140625</ele>         <time>2026-02-28T13:02:15.000Z</time>         <extensions>           <ns3:TrackPointExtension>             <ns3:hr>117</ns3:hr>           </ns3:TrackPointExtension>         </extensions>       </trkpt>
       <trkpt lat="45.57160581462085247039794921875" lon="14.403671957552433013916015625">         <ele>1277.199951171875</ele>         <time>2026-02-28T13:02:16.000Z</time>         <extensions>           <ns3:TrackPointExtension>             <ns3:hr>117</ns3:hr>           </ns3:TrackPointExtension>         </extensions>       </trkpt>
       <trkpt lat="45.5715768970549106597900390625" lon="14.40370380878448486328125">         <ele>1277.800048828125</ele>         <time>2026-02-28T13:02:24.000Z</time>         <extensions>           <ns3:TrackPointExtension>             <ns3:hr>117</ns3:hr>           </ns3:TrackPointExtension>         </extensions>       </trkpt>
       <trkpt lat="45.57156558148562908172607421875" lon="14.40372115932404994964599609375">         <ele>1277.5999755859375</ele>         <time>2026-02-28T13:02:32.000Z</time>         <extensions>           <ns3:TrackPointExtension>             <ns3:hr>114</ns3:hr>           </ns3:TrackPointExtension>         </extensions>       </trkpt>
       <trkpt lat="45.57157882489264011383056640625" lon="14.40374127589166164398193359375">         <ele>1277.4000244140625</ele>         <time>2026-02-28T13:02:38.000Z</time>         <extensions>           <ns3:TrackPointExtension>             <ns3:hr>111</ns3:hr>           </ns3:TrackPointExtension>         </extensions>       </trkpt>
       <trkpt lat="45.57158477604389190673828125" lon="14.4037542678415775299072265625">         <ele>1277.4000244140625</ele>         <time>2026-02-28T13:02:41.000Z</time>         <extensions>           <ns3:TrackPointExtension>             <ns3:hr>109</ns3:hr>           </ns3:TrackPointExtension>         </extensions>       </trkpt>
       <trkpt lat="45.5715980194509029388427734375" lon="14.40379223786294460296630859375">         <ele>1277.4000244140625</ele>         <time>2026-02-28T13:02:49.000Z</time>         <extensions>           <ns3:TrackPointExtension>             <ns3:hr>109</ns3:hr>           </ns3:TrackPointExtension>         </extensions>       </trkpt>
       <trkpt lat="45.5715926550328731536865234375" lon="14.4037690199911594390869140625">         <ele>1277.4000244140625</ele>         <time>2026-02-28T13:02:56.000Z</time>         <extensions>           <ns3:TrackPointExtension>             <ns3:hr>110</ns3:hr>           </ns3:TrackPointExtension>         </extensions>       </trkpt>
       <trkpt lat="45.57157136499881744384765625" lon="14.40377010963857173919677734375">         <ele>1277.5999755859375</ele>         <time>2026-02-28T13:03:01.000Z</time>         <extensions>           <ns3:TrackPointExtension>             <ns3:hr>111</ns3:hr>           </ns3:TrackPointExtension>         </extensions>       </trkpt>
       <trkpt lat="45.571564324200153350830078125" lon="14.40379123203456401824951171875">         <ele>1277.4000244140625</ele>         <time>2026-02-28T13:03:09.000Z</time>         <extensions>           <ns3:TrackPointExtension>             <ns3:hr>116</ns3:hr>           </ns3:TrackPointExtension>         </extensions>       </trkpt>
       <trkpt lat="45.5715693533420562744140625" lon="14.40378620289266109466552734375">         <ele>1277.4000244140625</ele>         <time>2026-02-28T13:03:10.000Z</time>         <extensions>           <ns3:TrackPointExtension>             <ns3:hr>116</ns3:hr>           </ns3:TrackPointExtension>         </extensions>       </trkpt>
       <trkpt lat="45.57157815434038639068603515625" lon="14.40381486900150775909423828125">         <ele>1276.800048828125</ele>         <time>2026-02-28T13:03:16.000Z</time>         <extensions>           <ns3:TrackPointExtension>             <ns3:hr>113</ns3:hr>           </ns3:TrackPointExtension>         </extensions>       </trkpt>
       <trkpt lat="45.571582429111003875732421875" lon="14.40382643602788448333740234375">         <ele>1276.800048828125</ele>         <time>2026-02-28T13:03:24.000Z</time>         <extensions>           <ns3:TrackPointExtension>             <ns3:hr>113</ns3:hr>           </ns3:TrackPointExtension>         </extensions>       </trkpt>
       <trkpt lat="45.5715789087116718292236328125" lon="14.40383012406527996063232421875">         <ele>1276.800048828125</ele>         <time>2026-02-28T13:03:31.000Z</time>         <extensions>           <ns3:TrackPointExtension>             <ns3:hr>112</ns3:hr>           </ns3:TrackPointExtension>         </extensions>       </trkpt>
       <trkpt lat="45.57160983793437480926513671875" lon="14.40384797751903533935546875">         <ele>1277</ele>         <time>2026-02-28T13:03:40.000Z</time>         <extensions>           <ns3:TrackPointExtension>             <ns3:hr>112</ns3:hr>           </ns3:TrackPointExtension>         </extensions>       </trkpt>
       <trkpt lat="45.5716107599437236785888671875" lon="14.40385476686060428619384765625">         <ele>1276.800048828125</ele>         <time>2026-02-28T13:03:48.000Z</time>         <extensions>           <ns3:TrackPointExtension>             <ns3:hr>113</ns3:hr>           </ns3:TrackPointExtension>         </extensions>       </trkpt>
       <trkpt lat="45.5716000311076641082763671875" lon="14.40386750735342502593994140625">         <ele>1276.800048828125</ele>         <time>2026-02-28T13:03:57.000Z</time>         <extensions>           <ns3:TrackPointExtension>             <ns3:hr>113</ns3:hr>           </ns3:TrackPointExtension>         </extensions>       </trkpt>
       <trkpt lat="45.571611262857913970947265625" lon="14.403845965862274169921875">         <ele>1276.800048828125</ele>         <time>2026-02-28T13:04:00.000Z</time>         <extensions>           <ns3:TrackPointExtension>             <ns3:hr>110</ns3:hr>           </ns3:TrackPointExtension>         </extensions>       </trkpt>
       <trkpt lat="45.5716122686862945556640625" lon="14.40385895781219005584716796875">         <ele>1276.5999755859375</ele>         <time>2026-02-28T13:04:03.000Z</time>         <extensions>           <ns3:TrackPointExtension>             <ns3:hr>110</ns3:hr>           </ns3:TrackPointExtension>         </extensions>       </trkpt>
       <trkpt lat="45.57161268778145313262939453125" lon="14.40386666916310787200927734375">         <ele>1276.5999755859375</ele>         <time>2026-02-28T13:04:04.000Z</time>         <extensions>           <ns3:TrackPointExtension>             <ns3:hr>109</ns3:hr>           </ns3:TrackPointExtension>         </extensions>       </trkpt>
       <trkpt lat="45.57161838747560977935791015625" lon="14.40386868081986904144287109375">         <ele>1276.5999755859375</ele>         <time>2026-02-28T13:04:10.000Z</time>         <extensions>           <ns3:TrackPointExtension>             <ns3:hr>106</ns3:hr>           </ns3:TrackPointExtension>         </extensions>       </trkpt>
       <trkpt lat="45.57161771692335605621337890625" lon="14.4038612209260463714599609375">         <ele>1276.800048828125</ele>         <time>2026-02-28T13:04:11.000Z</time>         <extensions>           <ns3:TrackPointExtension>             <ns3:hr>106</ns3:hr>           </ns3:TrackPointExtension>         </extensions>       </trkpt>
       <trkpt lat="45.57161352597177028656005859375" lon="14.40380816347897052764892578125">         <ele>1276.800048828125</ele>         <time>2026-02-28T13:04:16.000Z</time>         <extensions>           <ns3:TrackPointExtension>             <ns3:hr>109</ns3:hr>           </ns3:TrackPointExtension>         </extensions>       </trkpt>
       <trkpt lat="45.57161428034305572509765625" lon="14.4037877954542636871337890625">         <ele>1276.5999755859375</ele>         <time>2026-02-28T13:04:19.000Z</time>         <extensions>           <ns3:TrackPointExtension>             <ns3:hr>111</ns3:hr>           </ns3:TrackPointExtension>         </extensions>       </trkpt>
       <trkpt lat="45.57164018042385578155517578125" lon="14.4037857837975025177001953125">         <ele>1277</ele>         <time>2026-02-28T13:04:26.000Z</time>         <extensions>           <ns3:TrackPointExtension>             <ns3:hr>110</ns3:hr>           </ns3:TrackPointExtension>         </extensions>       </trkpt>
       <trkpt lat="45.57162978686392307281494140625" lon="14.4037991948425769805908203125">         <ele>1277</ele>         <time>2026-02-28T13:04:33.000Z</time>         <extensions>           <ns3:TrackPointExtension>             <ns3:hr>111</ns3:hr>           </ns3:TrackPointExtension>         </extensions>       </trkpt>
       <trkpt lat="45.57161687873303890228271484375" lon="14.4038043916225433349609375">         <ele>1277</ele>         <time>2026-02-28T13:04:36.000Z</time>         <extensions>           <ns3:TrackPointExtension>             <ns3:hr>108</ns3:hr>           </ns3:TrackPointExtension>         </extensions>       </trkpt>
       <trkpt lat="45.5716178007423877716064453125" lon="14.40381570719182491302490234375">         <ele>1277</ele>         <time>2026-02-28T13:04:38.000Z</time>         <extensions>           <ns3:TrackPointExtension>             <ns3:hr>105</ns3:hr>           </ns3:TrackPointExtension>         </extensions>       </trkpt>
       <trkpt lat="45.57161788456141948699951171875" lon="14.40382182598114013671875">         <ele>1277</ele>         <time>2026-02-28T13:04:39.000Z</time>         <extensions>           <ns3:TrackPointExtension>             <ns3:hr>105</ns3:hr>           </ns3:TrackPointExtension>         </extensions>       </trkpt>
       <trkpt lat="45.57160355150699615478515625" lon="14.40382241271436214447021484375">         <ele>1277</ele>         <time>2026-02-28T13:04:47.000Z</time>         <extensions>           <ns3:TrackPointExtension>             <ns3:hr>104</ns3:hr>           </ns3:TrackPointExtension>         </extensions>       </trkpt>
       <trkpt lat="45.5715933255851268768310546875" lon="14.4038508273661136627197265625">         <ele>1277</ele>         <time>2026-02-28T13:04:54.000Z</time>         <extensions>           <ns3:TrackPointExtension>             <ns3:hr>102</ns3:hr>           </ns3:TrackPointExtension>         </extensions>       </trkpt>
       <trkpt lat="45.5715856142342090606689453125" lon="14.40384940244257450103759765625">         <ele>1277.199951171875</ele>         <time>2026-02-28T13:05:01.000Z</time>         <extensions>           <ns3:TrackPointExtension>             <ns3:hr>103</ns3:hr>           </ns3:TrackPointExtension>         </extensions>       </trkpt>
       <trkpt lat="45.57158033363521099090576171875" lon="14.403835237026214599609375">         <ele>1277.199951171875</ele>         <time>2026-02-28T13:05:07.000Z</time>         <extensions>           <ns3:TrackPointExtension>             <ns3:hr>106</ns3:hr>           </ns3:TrackPointExtension>         </extensions>       </trkpt>
       <trkpt lat="45.5715789087116718292236328125" lon="14.40382710658013820648193359375">         <ele>1277.199951171875</ele>         <time>2026-02-28T13:05:09.000Z</time>         <extensions>           <ns3:TrackPointExtension>             <ns3:hr>106</ns3:hr>           </ns3:TrackPointExtension>         </extensions>       </trkpt>
       <trkpt lat="45.57156491093337535858154296875" lon="14.40383062697947025299072265625">         <ele>1277.199951171875</ele>         <time>2026-02-28T13:05:13.000Z</time>         <extensions>           <ns3:TrackPointExtension>             <ns3:hr>109</ns3:hr>           </ns3:TrackPointExtension>         </extensions>       </trkpt>
       <trkpt lat="45.571558959782123565673828125" lon="14.4038286991417407989501953125">         <ele>1277.199951171875</ele>         <time>2026-02-28T13:05:15.000Z</time>         <extensions>           <ns3:TrackPointExtension>             <ns3:hr>110</ns3:hr>           </ns3:TrackPointExtension>         </extensions>       </trkpt>
       <trkpt lat="45.571549236774444580078125" lon="14.40378360450267791748046875">         <ele>1277.199951171875</ele>         <time>2026-02-28T13:05:21.000Z</time>         <extensions>           <ns3:TrackPointExtension>             <ns3:hr>107</ns3:hr>           </ns3:TrackPointExtension>         </extensions>       </trkpt>
       <trkpt lat="45.57155066169798374176025390625" lon="14.40376239828765392303466796875">         <ele>1277.4000244140625</ele>         <time>2026-02-28T13:05:23.000Z</time>         <extensions>           <ns3:TrackPointExtension>             <ns3:hr>106</ns3:hr>           </ns3:TrackPointExtension>         </extensions>       </trkpt>
       <trkpt lat="45.57153892703354358673095703125" lon="14.4037579558789730072021484375">         <ele>1277.199951171875</ele>         <time>2026-02-28T13:05:29.000Z</time>         <extensions>           <ns3:TrackPointExtension>             <ns3:hr>108</ns3:hr>           </ns3:TrackPointExtension>         </extensions>       </trkpt>
       <trkpt lat="45.571505986154079437255859375" lon="14.40376440994441509246826171875">         <ele>1277.199951171875</ele>         <time>2026-02-28T13:05:36.000Z</time>         <extensions>           <ns3:TrackPointExtension>             <ns3:hr>109</ns3:hr>           </ns3:TrackPointExtension>         </extensions>       </trkpt>
       <trkpt lat="45.57150430977344512939453125" lon="14.40375820733606815338134765625">         <ele>1277.199951171875</ele>         <time>2026-02-28T13:05:41.000Z</time>         <extensions>           <ns3:TrackPointExtension>             <ns3:hr>111</ns3:hr>           </ns3:TrackPointExtension>         </extensions>       </trkpt>
       <trkpt lat="45.571512021124362945556640625" lon="14.40376189537346363067626953125">         <ele>1276.800048828125</ele>         <time>2026-02-28T13:05:49.000Z</time>         <extensions>           <ns3:TrackPointExtension>             <ns3:hr>105</ns3:hr>           </ns3:TrackPointExtension>         </extensions>       </trkpt>
       <trkpt lat="45.5715121887624263763427734375" lon="14.40376080572605133056640625">         <ele>1276.800048828125</ele>         <time>2026-02-28T13:05:50.000Z</time>         <extensions>           <ns3:TrackPointExtension>             <ns3:hr>102</ns3:hr>           </ns3:TrackPointExtension>         </extensions>       </trkpt>
       <trkpt lat="45.5715242587029933929443359375" lon="14.40374144352972507476806640625">         <ele>1276.800048828125</ele>         <time>2026-02-28T13:05:59.000Z</time>         <extensions>           <ns3:TrackPointExtension>             <ns3:hr>103</ns3:hr>           </ns3:TrackPointExtension>         </extensions>       </trkpt>
       <trkpt lat="45.571538507938385009765625" lon="14.40375267527997493743896484375">         <ele>1277</ele>         <time>2026-02-28T13:06:06.000Z</time>         <extensions>           <ns3:TrackPointExtension>             <ns3:hr>102</ns3:hr>           </ns3:TrackPointExtension>         </extensions>       </trkpt>
       <trkpt lat="45.57156491093337535858154296875" lon="14.4037425331771373748779296875">         <ele>1277</ele>         <time>2026-02-28T13:06:14.000Z</time>         <extensions>           <ns3:TrackPointExtension>             <ns3:hr>103</ns3:hr>           </ns3:TrackPointExtension>         </extensions>       </trkpt>
       <trkpt lat="45.57156440801918506622314453125" lon="14.40374672412872314453125">         <ele>1276.5999755859375</ele>         <time>2026-02-28T13:06:19.000Z</time>         <extensions>           <ns3:TrackPointExtension>             <ns3:hr>103</ns3:hr>           </ns3:TrackPointExtension>         </extensions>       </trkpt>
       <trkpt lat="45.57157346047461032867431640625" lon="14.40374194644391536712646484375">         <ele>1276.4000244140625</ele>         <time>2026-02-28T13:06:22.000Z</time>         <extensions>           <ns3:TrackPointExtension>             <ns3:hr>98</ns3:hr>           </ns3:TrackPointExtension>         </extensions>       </trkpt>
       <trkpt lat="45.57156574912369251251220703125" lon="14.4037777371704578399658203125">         <ele>1276.4000244140625</ele>         <time>2026-02-28T13:06:28.000Z</time>         <extensions>           <ns3:TrackPointExtension>             <ns3:hr>96</ns3:hr>           </ns3:TrackPointExtension>         </extensions>       </trkpt>
       <trkpt lat="45.5715711973607540130615234375" lon="14.40379567444324493408203125">         <ele>1276.5999755859375</ele>         <time>2026-02-28T13:06:32.000Z</time>         <extensions>           <ns3:TrackPointExtension>             <ns3:hr>100</ns3:hr>           </ns3:TrackPointExtension>         </extensions>       </trkpt>
       <trkpt lat="45.57157899253070354461669921875" lon="14.40378368832170963287353515625">         <ele>1276.4000244140625</ele>         <time>2026-02-28T13:06:35.000Z</time>         <extensions>           <ns3:TrackPointExtension>             <ns3:hr>103</ns3:hr>           </ns3:TrackPointExtension>         </extensions>       </trkpt>
       <trkpt lat="45.57158703915774822235107421875" lon="14.40377631224691867828369140625">         <ele>1276.4000244140625</ele>         <time>2026-02-28T13:06:36.000Z</time>         <extensions>           <ns3:TrackPointExtension>             <ns3:hr>105</ns3:hr>           </ns3:TrackPointExtension>         </extensions>       </trkpt>
       <trkpt lat="45.57159416377544403076171875" lon="14.40376793034374713897705078125">         <ele>1276.5999755859375</ele>         <time>2026-02-28T13:06:38.000Z</time>         <extensions>           <ns3:TrackPointExtension>             <ns3:hr>109</ns3:hr>           </ns3:TrackPointExtension>         </extensions>       </trkpt>
       <trkpt lat="45.57158653624355792999267578125" lon="14.4037978537380695343017578125">         <ele>1277</ele>         <time>2026-02-28T13:06:45.000Z</time>         <extensions>           <ns3:TrackPointExtension>             <ns3:hr>112</ns3:hr>           </ns3:TrackPointExtension>         </extensions>       </trkpt>
       <trkpt lat="45.5716100893914699554443359375" lon="14.4037636555731296539306640625">         <ele>1277</ele>         <time>2026-02-28T13:06:54.000Z</time>         <extensions>           <ns3:TrackPointExtension>             <ns3:hr>115</ns3:hr>           </ns3:TrackPointExtension>         </extensions>       </trkpt>
       <trkpt lat="45.571608245372772216796875" lon="14.403765499591827392578125">         <ele>1277</ele>         <time>2026-02-28T13:06:55.000Z</time>         <extensions>           <ns3:TrackPointExtension>             <ns3:hr>111</ns3:hr>           </ns3:TrackPointExtension>         </extensions>       </trkpt>
       <trkpt lat="45.57159039191901683807373046875" lon="14.4037901423871517181396484375">         <ele>1276.800048828125</ele>         <time>2026-02-28T13:07:02.000Z</time>         <extensions>           <ns3:TrackPointExtension>             <ns3:hr>111</ns3:hr>           </ns3:TrackPointExtension>         </extensions>       </trkpt>
       <trkpt lat="45.57157513685524463653564453125" lon="14.40380095504224300384521484375">         <ele>1277</ele>         <time>2026-02-28T13:07:10.000Z</time>         <extensions>           <ns3:TrackPointExtension>             <ns3:hr>111</ns3:hr>           </ns3:TrackPointExtension>         </extensions>       </trkpt>
       <trkpt lat="45.5715735442936420440673828125" lon="14.40379408188164234161376953125">         <ele>1277</ele>         <time>2026-02-28T13:07:12.000Z</time>         <extensions>           <ns3:TrackPointExtension>             <ns3:hr>114</ns3:hr>           </ns3:TrackPointExtension>         </extensions>       </trkpt>
       <trkpt lat="45.57156977243721485137939453125" lon="14.40377513878047466278076171875">         <ele>1277.199951171875</ele>         <time>2026-02-28T13:07:17.000Z</time>         <extensions>           <ns3:TrackPointExtension>             <ns3:hr>109</ns3:hr>           </ns3:TrackPointExtension>         </extensions>       </trkpt>
       <trkpt lat="45.57157002389430999755859375" lon="14.4037777371704578399658203125">         <ele>1277.199951171875</ele>         <time>2026-02-28T13:07:18.000Z</time>         <extensions>           <ns3:TrackPointExtension>             <ns3:hr>109</ns3:hr>           </ns3:TrackPointExtension>         </extensions>       </trkpt>
       <trkpt lat="45.5715809203684329986572265625" lon="14.40379978157579898834228515625">         <ele>1276.5999755859375</ele>         <time>2026-02-28T13:07:25.000Z</time>         <extensions>           <ns3:TrackPointExtension>             <ns3:hr>111</ns3:hr>           </ns3:TrackPointExtension>         </extensions>       </trkpt>
       <trkpt lat="45.57158745825290679931640625" lon="14.40379626117646694183349609375">         <ele>1276.5999755859375</ele>         <time>2026-02-28T13:07:33.000Z</time>         <extensions>           <ns3:TrackPointExtension>             <ns3:hr>111</ns3:hr>           </ns3:TrackPointExtension>         </extensions>       </trkpt>
       <trkpt lat="45.5716040544211864471435546875" lon="14.403778575360774993896484375">         <ele>1276.4000244140625</ele>         <time>2026-02-28T13:07:41.000Z</time>         <extensions>           <ns3:TrackPointExtension>             <ns3:hr>114</ns3:hr>           </ns3:TrackPointExtension>         </extensions>       </trkpt>
       <trkpt lat="45.57159977965056896209716796875" lon="14.4037810899317264556884765625">         <ele>1276.5999755859375</ele>         <time>2026-02-28T13:07:42.000Z</time>         <extensions>           <ns3:TrackPointExtension>             <ns3:hr>115</ns3:hr>           </ns3:TrackPointExtension>         </extensions>       </trkpt>
       <trkpt lat="45.5715973488986492156982421875" lon="14.403797686100006103515625">         <ele>1276.5999755859375</ele>         <time>2026-02-28T13:07:50.000Z</time>         <extensions>           <ns3:TrackPointExtension>             <ns3:hr>112</ns3:hr>           </ns3:TrackPointExtension>         </extensions>       </trkpt>
       <trkpt lat="45.57159173302352428436279296875" lon="14.4038032181560993194580078125">         <ele>1276.5999755859375</ele>         <time>2026-02-28T13:07:51.000Z</time>         <extensions>           <ns3:TrackPointExtension>             <ns3:hr>110</ns3:hr>           </ns3:TrackPointExtension>         </extensions>       </trkpt>
       <trkpt lat="45.571583099663257598876953125" lon="14.40380967222154140472412109375">         <ele>1276.5999755859375</ele>         <time>2026-02-28T13:07:54.000Z</time>         <extensions>           <ns3:TrackPointExtension>             <ns3:hr>106</ns3:hr>           </ns3:TrackPointExtension>         </extensions>       </trkpt>
       <trkpt lat="45.57157932780683040618896484375" lon="14.403811432421207427978515625">         <ele>1276.5999755859375</ele>         <time>2026-02-28T13:07:55.000Z</time>         <extensions>           <ns3:TrackPointExtension>             <ns3:hr>103</ns3:hr>           </ns3:TrackPointExtension>         </extensions>       </trkpt>
       <trkpt lat="45.57156658731400966644287109375" lon="14.403820820152759552001953125">         <ele>1276.4000244140625</ele>         <time>2026-02-28T13:07:58.000Z</time>         <extensions>           <ns3:TrackPointExtension>             <ns3:hr>100</ns3:hr>           </ns3:TrackPointExtension>         </extensions>       </trkpt>
       <trkpt lat="45.57157295756042003631591796875" lon="14.403822161257266998291015625">         <ele>1276.199951171875</ele>         <time>2026-02-28T13:08:04.000Z</time>         <extensions>           <ns3:TrackPointExtension>             <ns3:hr>103</ns3:hr>           </ns3:TrackPointExtension>         </extensions>       </trkpt>
       <trkpt lat="45.57156792841851711273193359375" lon="14.40383716486394405364990234375">         <ele>1276.4000244140625</ele>         <time>2026-02-28T13:08:06.000Z</time>         <extensions>           <ns3:TrackPointExtension>             <ns3:hr>104</ns3:hr>           </ns3:TrackPointExtension>         </extensions>       </trkpt>
       <trkpt lat="45.57157346047461032867431640625" lon="14.40384487621486186981201171875">         <ele>1276.5999755859375</ele>         <time>2026-02-28T13:08:14.000Z</time>         <extensions>           <ns3:TrackPointExtension>             <ns3:hr>104</ns3:hr>           </ns3:TrackPointExtension>         </extensions>       </trkpt>
       <trkpt lat="45.5715775676071643829345703125" lon="14.403845630586147308349609375">         <ele>1276.5999755859375</ele>         <time>2026-02-28T13:08:16.000Z</time>         <extensions>           <ns3:TrackPointExtension>             <ns3:hr>101</ns3:hr>           </ns3:TrackPointExtension>         </extensions>       </trkpt>
       <trkpt lat="45.5715869553387165069580078125" lon="14.40381444990634918212890625">         <ele>1276.5999755859375</ele>         <time>2026-02-28T13:08:20.000Z</time>         <extensions>           <ns3:TrackPointExtension>             <ns3:hr>99</ns3:hr>           </ns3:TrackPointExtension>         </extensions>       </trkpt>
       <trkpt lat="45.57159391231834888458251953125" lon="14.40379676409065723419189453125">         <ele>1276.800048828125</ele>         <time>2026-02-28T13:08:25.000Z</time>         <extensions>           <ns3:TrackPointExtension>             <ns3:hr>103</ns3:hr>           </ns3:TrackPointExtension>         </extensions>       </trkpt>
       <trkpt lat="45.57159676216542720794677734375" lon="14.40378754399716854095458984375">         <ele>1276.800048828125</ele>         <time>2026-02-28T13:08:27.000Z</time>         <extensions>           <ns3:TrackPointExtension>             <ns3:hr>109</ns3:hr>           </ns3:TrackPointExtension>         </extensions>       </trkpt>
       <trkpt lat="45.57159542106091976165771484375" lon="14.40377983264625072479248046875">         <ele>1276.800048828125</ele>         <time>2026-02-28T13:08:31.000Z</time>         <extensions>           <ns3:TrackPointExtension>             <ns3:hr>110</ns3:hr>           </ns3:TrackPointExtension>         </extensions>       </trkpt>
       <trkpt lat="45.5715825967490673065185546875" lon="14.40378787927329540252685546875">         <ele>1276.800048828125</ele>         <time>2026-02-28T13:08:36.000Z</time>         <extensions>           <ns3:TrackPointExtension>             <ns3:hr>107</ns3:hr>           </ns3:TrackPointExtension>         </extensions>       </trkpt>
       <trkpt lat="45.57157999835908412933349609375" lon="14.4037908129394054412841796875">         <ele>1276.800048828125</ele>         <time>2026-02-28T13:08:38.000Z</time>         <extensions>           <ns3:TrackPointExtension>             <ns3:hr>104</ns3:hr>           </ns3:TrackPointExtension>         </extensions>       </trkpt>
       <trkpt lat="45.57157941162586212158203125" lon="14.40379492007195949554443359375">         <ele>1276.800048828125</ele>         <time>2026-02-28T13:08:40.000Z</time>         <extensions>           <ns3:TrackPointExtension>             <ns3:hr>100</ns3:hr>           </ns3:TrackPointExtension>         </extensions>       </trkpt>
       <trkpt lat="45.5715789087116718292236328125" lon="14.4037971831858158111572265625">         <ele>1276.800048828125</ele>         <time>2026-02-28T13:08:41.000Z</time>         <extensions>           <ns3:TrackPointExtension>             <ns3:hr>99</ns3:hr>           </ns3:TrackPointExtension>         </extensions>       </trkpt>
       <trkpt lat="45.5715762265026569366455078125" lon="14.403812102973461151123046875">         <ele>1276.800048828125</ele>         <time>2026-02-28T13:08:45.000Z</time>         <extensions>           <ns3:TrackPointExtension>             <ns3:hr>105</ns3:hr>           </ns3:TrackPointExtension>         </extensions>       </trkpt>
       <trkpt lat="45.5716060660779476165771484375" lon="14.4038035534322261810302734375">         <ele>1276.5999755859375</ele>         <time>2026-02-28T13:08:52.000Z</time>         <extensions>           <ns3:TrackPointExtension>             <ns3:hr>106</ns3:hr>           </ns3:TrackPointExtension>         </extensions>       </trkpt>
       <trkpt lat="45.5716229975223541259765625" lon="14.4037780724465847015380859375">         <ele>1276.800048828125</ele>         <time>2026-02-28T13:09:00.000Z</time>         <extensions>           <ns3:TrackPointExtension>             <ns3:hr>103</ns3:hr>           </ns3:TrackPointExtension>         </extensions>       </trkpt>
       <trkpt lat="45.57161553762853145599365234375" lon="14.40377689898014068603515625">         <ele>1276.800048828125</ele>         <time>2026-02-28T13:09:02.000Z</time>         <extensions>           <ns3:TrackPointExtension>             <ns3:hr>100</ns3:hr>           </ns3:TrackPointExtension>         </extensions>       </trkpt>
       <trkpt lat="45.57161218486726284027099609375" lon="14.40377782098948955535888671875">         <ele>1276.800048828125</ele>         <time>2026-02-28T13:09:03.000Z</time>         <extensions>           <ns3:TrackPointExtension>             <ns3:hr>97</ns3:hr>           </ns3:TrackPointExtension>         </extensions>       </trkpt>
       <trkpt lat="45.57160749100148677825927734375" lon="14.40379072912037372589111328125">         <ele>1276.5999755859375</ele>         <time>2026-02-28T13:09:09.000Z</time>         <extensions>           <ns3:TrackPointExtension>             <ns3:hr>100</ns3:hr>           </ns3:TrackPointExtension>         </extensions>       </trkpt>
       <trkpt lat="45.57160849682986736297607421875" lon="14.4037948362529277801513671875">         <ele>1276.800048828125</ele>         <time>2026-02-28T13:09:11.000Z</time>         <extensions>           <ns3:TrackPointExtension>             <ns3:hr>103</ns3:hr>           </ns3:TrackPointExtension>         </extensions>       </trkpt>
       <trkpt lat="45.57160531170666217803955078125" lon="14.40379626117646694183349609375">         <ele>1276.800048828125</ele>         <time>2026-02-28T13:09:12.000Z</time>         <extensions>           <ns3:TrackPointExtension>             <ns3:hr>104</ns3:hr>           </ns3:TrackPointExtension>         </extensions>       </trkpt>
       <trkpt lat="45.57161402888596057891845703125" lon="14.40380573272705078125">         <ele>1276.800048828125</ele>         <time>2026-02-28T13:09:16.000Z</time>         <extensions>           <ns3:TrackPointExtension>             <ns3:hr>107</ns3:hr>           </ns3:TrackPointExtension>         </extensions>       </trkpt>
       <trkpt lat="45.5716137774288654327392578125" lon="14.40380715765058994293212890625">         <ele>1276.800048828125</ele>         <time>2026-02-28T13:09:18.000Z</time>         <extensions>           <ns3:TrackPointExtension>             <ns3:hr>110</ns3:hr>           </ns3:TrackPointExtension>         </extensions>       </trkpt>
       <trkpt lat="45.57160732336342334747314453125" lon="14.40380908548831939697265625">         <ele>1276.800048828125</ele>         <time>2026-02-28T13:09:20.000Z</time>         <extensions>           <ns3:TrackPointExtension>             <ns3:hr>113</ns3:hr>           </ns3:TrackPointExtension>         </extensions>       </trkpt>
       <trkpt lat="45.57160631753504276275634765625" lon="14.4038097560405731201171875">         <ele>1276.800048828125</ele>         <time>2026-02-28T13:09:23.000Z</time>         <extensions>           <ns3:TrackPointExtension>             <ns3:hr>109</ns3:hr>           </ns3:TrackPointExtension>         </extensions>       </trkpt>
       <trkpt lat="45.57160623371601104736328125" lon="14.40380782820284366607666015625">         <ele>1276.800048828125</ele>         <time>2026-02-28T13:09:24.000Z</time>         <extensions>           <ns3:TrackPointExtension>             <ns3:hr>106</ns3:hr>           </ns3:TrackPointExtension>         </extensions>       </trkpt>
       <trkpt lat="45.5716077424585819244384765625" lon="14.40380573272705078125">         <ele>1276.800048828125</ele>         <time>2026-02-28T13:09:25.000Z</time>         <extensions>           <ns3:TrackPointExtension>             <ns3:hr>106</ns3:hr>           </ns3:TrackPointExtension>         </extensions>       </trkpt>
       <trkpt lat="45.57160883210599422454833984375" lon="14.40379307605326175689697265625">         <ele>1276.800048828125</ele>         <time>2026-02-28T13:09:29.000Z</time>         <extensions>           <ns3:TrackPointExtension>             <ns3:hr>107</ns3:hr>           </ns3:TrackPointExtension>         </extensions>       </trkpt>
       <trkpt lat="45.5715956725180149078369140625" lon="14.40378234721720218658447265625">         <ele>1276.800048828125</ele>         <time>2026-02-28T13:09:35.000Z</time>         <extensions>           <ns3:TrackPointExtension>             <ns3:hr>110</ns3:hr>           </ns3:TrackPointExtension>         </extensions>       </trkpt>
       <trkpt lat="45.5715908110141754150390625" lon="14.40376860089600086212158203125">         <ele>1276.800048828125</ele>         <time>2026-02-28T13:09:44.000Z</time>         <extensions>           <ns3:TrackPointExtension>             <ns3:hr>111</ns3:hr>           </ns3:TrackPointExtension>         </extensions>       </trkpt>
       <trkpt lat="45.57157597504556179046630859375" lon="14.40376457758247852325439453125">         <ele>1276.800048828125</ele>         <time>2026-02-28T13:09:51.000Z</time>         <extensions>           <ns3:TrackPointExtension>             <ns3:hr>114</ns3:hr>           </ns3:TrackPointExtension>         </extensions>       </trkpt>
       <trkpt lat="45.57158301584422588348388671875" lon="14.403777234256267547607421875">         <ele>1276.800048828125</ele>         <time>2026-02-28T13:10:00.000Z</time>         <extensions>           <ns3:TrackPointExtension>             <ns3:hr>111</ns3:hr>           </ns3:TrackPointExtension>         </extensions>       </trkpt>
       <trkpt lat="45.57159592397511005401611328125" lon="14.4037774018943309783935546875">         <ele>1276.800048828125</ele>         <time>2026-02-28T13:10:02.000Z</time>         <extensions>           <ns3:TrackPointExtension>             <ns3:hr>108</ns3:hr>           </ns3:TrackPointExtension>         </extensions>       </trkpt>
       <trkpt lat="45.57162760756909847259521484375" lon="14.40376725979149341583251953125">         <ele>1276.5999755859375</ele>         <time>2026-02-28T13:10:08.000Z</time>         <extensions>           <ns3:TrackPointExtension>             <ns3:hr>111</ns3:hr>           </ns3:TrackPointExtension>         </extensions>       </trkpt>
       <trkpt lat="45.57163448072969913482666015625" lon="14.4037606380879878997802734375">         <ele>1276.5999755859375</ele>         <time>2026-02-28T13:10:09.000Z</time>         <extensions>           <ns3:TrackPointExtension>             <ns3:hr>111</ns3:hr>           </ns3:TrackPointExtension>         </extensions>       </trkpt>
       <trkpt lat="45.571611933410167694091796875" lon="14.40376440994441509246826171875">         <ele>1277.5999755859375</ele>         <time>2026-02-28T13:10:14.000Z</time>         <extensions>           <ns3:TrackPointExtension>             <ns3:hr>113</ns3:hr>           </ns3:TrackPointExtension>         </extensions>       </trkpt>
       <trkpt lat="45.5715983547270298004150390625" lon="14.40376591868698596954345703125">         <ele>1277.5999755859375</ele>         <time>2026-02-28T13:10:16.000Z</time>         <extensions>           <ns3:TrackPointExtension>             <ns3:hr>113</ns3:hr>           </ns3:TrackPointExtension>         </extensions>       </trkpt>
       <trkpt lat="45.57159441523253917694091796875" lon="14.40377044491469860076904296875">         <ele>1277.4000244140625</ele>         <time>2026-02-28T13:10:20.000Z</time>         <extensions>           <ns3:TrackPointExtension>             <ns3:hr>116</ns3:hr>           </ns3:TrackPointExtension>         </extensions>       </trkpt>
       <trkpt lat="45.571597181260585784912109375" lon="14.40377564169466495513916015625">         <ele>1277.4000244140625</ele>         <time>2026-02-28T13:10:23.000Z</time>         <extensions>           <ns3:TrackPointExtension>             <ns3:hr>119</ns3:hr>           </ns3:TrackPointExtension>         </extensions>       </trkpt>
       <trkpt lat="45.57159340940415859222412109375" lon="14.403783939778804779052734375">         <ele>1277.5999755859375</ele>         <time>2026-02-28T13:10:25.000Z</time>         <extensions>           <ns3:TrackPointExtension>             <ns3:hr>119</ns3:hr>           </ns3:TrackPointExtension>         </extensions>       </trkpt>
       <trkpt lat="45.57160363532602787017822265625" lon="14.40379240550100803375244140625">         <ele>1277.199951171875</ele>         <time>2026-02-28T13:10:34.000Z</time>         <extensions>           <ns3:TrackPointExtension>             <ns3:hr>120</ns3:hr>           </ns3:TrackPointExtension>         </extensions>       </trkpt>
       <trkpt lat="45.571580417454242706298828125" lon="14.40379005856812000274658203125">         <ele>1277.4000244140625</ele>         <time>2026-02-28T13:10:41.000Z</time>         <extensions>           <ns3:TrackPointExtension>             <ns3:hr>118</ns3:hr>           </ns3:TrackPointExtension>         </extensions>       </trkpt>
       <trkpt lat="45.57158368639647960662841796875" lon="14.40379031002521514892578125">         <ele>1277.4000244140625</ele>         <time>2026-02-28T13:10:42.000Z</time>         <extensions>           <ns3:TrackPointExtension>             <ns3:hr>115</ns3:hr>           </ns3:TrackPointExtension>         </extensions>       </trkpt>
       <trkpt lat="45.57158670388162136077880859375" lon="14.4037909805774688720703125">         <ele>1277.199951171875</ele>         <time>2026-02-28T13:10:43.000Z</time>         <extensions>           <ns3:TrackPointExtension>             <ns3:hr>111</ns3:hr>           </ns3:TrackPointExtension>         </extensions>       </trkpt>
       <trkpt lat="45.57159743271768093109130859375" lon="14.40379542298614978790283203125">         <ele>1277.199951171875</ele>         <time>2026-02-28T13:10:45.000Z</time>         <extensions>           <ns3:TrackPointExtension>             <ns3:hr>108</ns3:hr>           </ns3:TrackPointExtension>         </extensions>       </trkpt>
       <trkpt lat="45.57160757482051849365234375" lon="14.40378486178815364837646484375">         <ele>1277.4000244140625</ele>         <time>2026-02-28T13:10:51.000Z</time>         <extensions>           <ns3:TrackPointExtension>             <ns3:hr>108</ns3:hr>           </ns3:TrackPointExtension>         </extensions>       </trkpt>
       <trkpt lat="45.5715866200625896453857421875" lon="14.40379592590034008026123046875">         <ele>1277.4000244140625</ele>         <time>2026-02-28T13:11:00.000Z</time>         <extensions>           <ns3:TrackPointExtension>             <ns3:hr>107</ns3:hr>           </ns3:TrackPointExtension>         </extensions>       </trkpt>
       <trkpt lat="45.5715909786522388458251953125" lon="14.40381587482988834381103515625">         <ele>1277.4000244140625</ele>         <time>2026-02-28T13:11:10.000Z</time>         <extensions>           <ns3:TrackPointExtension>             <ns3:hr>109</ns3:hr>           </ns3:TrackPointExtension>         </extensions>       </trkpt>
       <trkpt lat="45.5715775676071643829345703125" lon="14.4038379192352294921875">         <ele>1277.4000244140625</ele>         <time>2026-02-28T13:11:19.000Z</time>         <extensions>           <ns3:TrackPointExtension>             <ns3:hr>109</ns3:hr>           </ns3:TrackPointExtension>         </extensions>       </trkpt>
       <trkpt lat="45.57158234529197216033935546875" lon="14.4038390927016735076904296875">         <ele>1277.5999755859375</ele>         <time>2026-02-28T13:11:27.000Z</time>         <extensions>           <ns3:TrackPointExtension>             <ns3:hr>107</ns3:hr>           </ns3:TrackPointExtension>         </extensions>       </trkpt>
       <trkpt lat="45.57156776078045368194580078125" lon="14.40381713211536407470703125">         <ele>1277.199951171875</ele>         <time>2026-02-28T13:11:33.000Z</time>         <extensions>           <ns3:TrackPointExtension>             <ns3:hr>110</ns3:hr>           </ns3:TrackPointExtension>         </extensions>       </trkpt>
       <trkpt lat="45.57155166752636432647705078125" lon="14.40380581654608249664306640625">         <ele>1277.800048828125</ele>         <time>2026-02-28T13:11:37.000Z</time>         <extensions>           <ns3:TrackPointExtension>             <ns3:hr>113</ns3:hr>           </ns3:TrackPointExtension>         </extensions>       </trkpt>
       <trkpt lat="45.57157278992235660552978515625" lon="14.4037961773574352264404296875">         <ele>1278</ele>         <time>2026-02-28T13:11:44.000Z</time>         <extensions>           <ns3:TrackPointExtension>             <ns3:hr>114</ns3:hr>           </ns3:TrackPointExtension>         </extensions>       </trkpt>
       <trkpt lat="45.57158838026225566864013671875" lon="14.4037831015884876251220703125">         <ele>1277.4000244140625</ele>         <time>2026-02-28T13:11:50.000Z</time>         <extensions>           <ns3:TrackPointExtension>             <ns3:hr>114</ns3:hr>           </ns3:TrackPointExtension>         </extensions>       </trkpt>
       <trkpt lat="45.57160112075507640838623046875" lon="14.403787292540073394775390625">         <ele>1277.800048828125</ele>         <time>2026-02-28T13:11:57.000Z</time>         <extensions>           <ns3:TrackPointExtension>             <ns3:hr>117</ns3:hr>           </ns3:TrackPointExtension>         </extensions>       </trkpt>
       <trkpt lat="45.571598522365093231201171875" lon="14.40378687344491481781005859375">         <ele>1277.5999755859375</ele>         <time>2026-02-28T13:11:58.000Z</time>         <extensions>           <ns3:TrackPointExtension>             <ns3:hr>120</ns3:hr>           </ns3:TrackPointExtension>         </extensions>       </trkpt>
       <trkpt lat="45.57159877382218837738037109375" lon="14.40379290841519832611083984375">         <ele>1277.5999755859375</ele>         <time>2026-02-28T13:11:59.000Z</time>         <extensions>           <ns3:TrackPointExtension>             <ns3:hr>120</ns3:hr>           </ns3:TrackPointExtension>         </extensions>       </trkpt>
       <trkpt lat="45.57159282267093658447265625" lon="14.40380061976611614227294921875">         <ele>1278.199951171875</ele>         <time>2026-02-28T13:12:03.000Z</time>         <extensions>           <ns3:TrackPointExtension>             <ns3:hr>119</ns3:hr>           </ns3:TrackPointExtension>         </extensions>       </trkpt>
       <trkpt lat="45.57159550487995147705078125" lon="14.40379374660551548004150390625">         <ele>1277.800048828125</ele>         <time>2026-02-28T13:12:12.000Z</time>         <extensions>           <ns3:TrackPointExtension>             <ns3:hr>117</ns3:hr>           </ns3:TrackPointExtension>         </extensions>       </trkpt>
       <trkpt lat="45.5715773999691009521484375" lon="14.40380397252738475799560546875">         <ele>1278</ele>         <time>2026-02-28T13:12:17.000Z</time>         <extensions>           <ns3:TrackPointExtension>             <ns3:hr>114</ns3:hr>           </ns3:TrackPointExtension>         </extensions>       </trkpt>
       <trkpt lat="45.57156424038112163543701171875" lon="14.40380372107028961181640625">         <ele>1278.199951171875</ele>         <time>2026-02-28T13:12:20.000Z</time>         <extensions>           <ns3:TrackPointExtension>             <ns3:hr>113</ns3:hr>           </ns3:TrackPointExtension>         </extensions>       </trkpt>
       <trkpt lat="45.57159005664288997650146484375" lon="14.40381319262087345123291015625">         <ele>1278</ele>         <time>2026-02-28T13:12:26.000Z</time>         <extensions>           <ns3:TrackPointExtension>             <ns3:hr>116</ns3:hr>           </ns3:TrackPointExtension>         </extensions>       </trkpt>
       <trkpt lat="45.5715946666896343231201171875" lon="14.40381235443055629730224609375">         <ele>1277.800048828125</ele>         <time>2026-02-28T13:12:27.000Z</time>         <extensions>           <ns3:TrackPointExtension>             <ns3:hr>116</ns3:hr>           </ns3:TrackPointExtension>         </extensions>       </trkpt>
       <trkpt lat="45.571589134633541107177734375" lon="14.40381956286728382110595703125">         <ele>1278</ele>         <time>2026-02-28T13:12:36.000Z</time>         <extensions>           <ns3:TrackPointExtension>             <ns3:hr>119</ns3:hr>           </ns3:TrackPointExtension>         </extensions>       </trkpt>
       <trkpt lat="45.5716087482869625091552734375" lon="14.4038350693881511688232421875">         <ele>1278</ele>         <time>2026-02-28T13:12:41.000Z</time>         <extensions>           <ns3:TrackPointExtension>             <ns3:hr>115</ns3:hr>           </ns3:TrackPointExtension>         </extensions>       </trkpt>
       <trkpt lat="45.57161159813404083251953125" lon="14.40382962115108966827392578125">         <ele>1278.199951171875</ele>         <time>2026-02-28T13:12:44.000Z</time>         <extensions>           <ns3:TrackPointExtension>             <ns3:hr>114</ns3:hr>           </ns3:TrackPointExtension>         </extensions>       </trkpt>
       <trkpt lat="45.5716151185333728790283203125" lon="14.40382442437112331390380859375">         <ele>1278.5999755859375</ele>         <time>2026-02-28T13:12:51.000Z</time>         <extensions>           <ns3:TrackPointExtension>             <ns3:hr>111</ns3:hr>           </ns3:TrackPointExtension>         </extensions>       </trkpt>
       <trkpt lat="45.57161419652402400970458984375" lon="14.40382308326661586761474609375">         <ele>1278.5999755859375</ele>         <time>2026-02-28T13:12:52.000Z</time>         <extensions>           <ns3:TrackPointExtension>             <ns3:hr>111</ns3:hr>           </ns3:TrackPointExtension>         </extensions>       </trkpt>
       <trkpt lat="45.5716104246675968170166015625" lon="14.40382777713239192962646484375">         <ele>1278.5999755859375</ele>         <time>2026-02-28T13:12:54.000Z</time>         <extensions>           <ns3:TrackPointExtension>             <ns3:hr>114</ns3:hr>           </ns3:TrackPointExtension>         </extensions>       </trkpt>
       <trkpt lat="45.5716037191450595855712890625" lon="14.40383213572204113006591796875">         <ele>1278.800048828125</ele>         <time>2026-02-28T13:12:55.000Z</time>         <extensions>           <ns3:TrackPointExtension>             <ns3:hr>117</ns3:hr>           </ns3:TrackPointExtension>         </extensions>       </trkpt>
       <trkpt lat="45.57159944437444210052490234375" lon="14.4038343988358974456787109375">         <ele>1278.5999755859375</ele>         <time>2026-02-28T13:12:59.000Z</time>         <extensions>           <ns3:TrackPointExtension>             <ns3:hr>115</ns3:hr>           </ns3:TrackPointExtension>         </extensions>       </trkpt>
       <trkpt lat="45.5716007016599178314208984375" lon="14.40384236164391040802001953125">         <ele>1278.5999755859375</ele>         <time>2026-02-28T13:13:01.000Z</time>         <extensions>           <ns3:TrackPointExtension>             <ns3:hr>112</ns3:hr>           </ns3:TrackPointExtension>         </extensions>       </trkpt>
       <trkpt lat="45.57160078547894954681396484375" lon="14.4038434512913227081298828125">         <ele>1278.4000244140625</ele>         <time>2026-02-28T13:13:03.000Z</time>         <extensions>           <ns3:TrackPointExtension>             <ns3:hr>109</ns3:hr>           </ns3:TrackPointExtension>         </extensions>       </trkpt>
       <trkpt lat="45.5716013722121715545654296875" lon="14.40384504385292530059814453125">         <ele>1278.199951171875</ele>         <time>2026-02-28T13:13:05.000Z</time>         <extensions>           <ns3:TrackPointExtension>             <ns3:hr>106</ns3:hr>           </ns3:TrackPointExtension>         </extensions>       </trkpt>
       <trkpt lat="45.5715946666896343231201171875" lon="14.40384529531002044677734375">         <ele>1278.199951171875</ele>         <time>2026-02-28T13:13:11.000Z</time>         <extensions>           <ns3:TrackPointExtension>             <ns3:hr>109</ns3:hr>           </ns3:TrackPointExtension>         </extensions>       </trkpt>
       <trkpt lat="45.57159961201250553131103515625" lon="14.40384571440517902374267578125">         <ele>1278.199951171875</ele>         <time>2026-02-28T13:13:12.000Z</time>         <extensions>           <ns3:TrackPointExtension>             <ns3:hr>112</ns3:hr>           </ns3:TrackPointExtension>         </extensions>       </trkpt>
       <trkpt lat="45.57159827090799808502197265625" lon="14.4038488157093524932861328125">         <ele>1278.199951171875</ele>         <time>2026-02-28T13:13:13.000Z</time>         <extensions>           <ns3:TrackPointExtension>             <ns3:hr>115</ns3:hr>           </ns3:TrackPointExtension>         </extensions>       </trkpt>
       <trkpt lat="45.57159952819347381591796875" lon="14.4038491509854793548583984375">         <ele>1278.199951171875</ele>         <time>2026-02-28T13:13:14.000Z</time>         <extensions>           <ns3:TrackPointExtension>             <ns3:hr>118</ns3:hr>           </ns3:TrackPointExtension>         </extensions>       </trkpt>
       <trkpt lat="45.57160095311701297760009765625" lon="14.40385225228965282440185546875">         <ele>1278.199951171875</ele>         <time>2026-02-28T13:13:15.000Z</time>         <extensions>           <ns3:TrackPointExtension>             <ns3:hr>121</ns3:hr>           </ns3:TrackPointExtension>         </extensions>       </trkpt>
       <trkpt lat="45.5715976841747760772705078125" lon="14.40385292284190654754638671875">         <ele>1278</ele>         <time>2026-02-28T13:13:16.000Z</time>         <extensions>           <ns3:TrackPointExtension>             <ns3:hr>121</ns3:hr>           </ns3:TrackPointExtension>         </extensions>       </trkpt>
       <trkpt lat="45.57159659452736377716064453125" lon="14.40384537912905216217041015625">         <ele>1278</ele>         <time>2026-02-28T13:13:20.000Z</time>         <extensions>           <ns3:TrackPointExtension>             <ns3:hr>120</ns3:hr>           </ns3:TrackPointExtension>         </extensions>       </trkpt>
       <trkpt lat="45.57159022428095340728759765625" lon="14.40384772606194019317626953125">         <ele>1278</ele>         <time>2026-02-28T13:13:23.000Z</time>         <extensions>           <ns3:TrackPointExtension>             <ns3:hr>117</ns3:hr>           </ns3:TrackPointExtension>         </extensions>       </trkpt>
       <trkpt lat="45.57159206829965114593505859375" lon="14.40384873189032077789306640625">         <ele>1277.800048828125</ele>         <time>2026-02-28T13:13:28.000Z</time>         <extensions>           <ns3:TrackPointExtension>             <ns3:hr>117</ns3:hr>           </ns3:TrackPointExtension>         </extensions>       </trkpt>
       <trkpt lat="45.57159458287060260772705078125" lon="14.4038343988358974456787109375">         <ele>1278</ele>         <time>2026-02-28T13:13:36.000Z</time>         <extensions>           <ns3:TrackPointExtension>             <ns3:hr>116</ns3:hr>           </ns3:TrackPointExtension>         </extensions>       </trkpt>
       <trkpt lat="45.5715735442936420440673828125" lon="14.403828196227550506591796875">         <ele>1278</ele>         <time>2026-02-28T13:13:46.000Z</time>         <extensions>           <ns3:TrackPointExtension>             <ns3:hr>117</ns3:hr>           </ns3:TrackPointExtension>         </extensions>       </trkpt>
       <trkpt lat="45.5715755559504032135009765625" lon="14.4037864543497562408447265625">         <ele>1278</ele>         <time>2026-02-28T13:13:53.000Z</time>         <extensions>           <ns3:TrackPointExtension>             <ns3:hr>114</ns3:hr>           </ns3:TrackPointExtension>         </extensions>       </trkpt>
       <trkpt lat="45.5715748853981494903564453125" lon="14.4037847779691219329833984375">         <ele>1278</ele>         <time>2026-02-28T13:13:54.000Z</time>         <extensions>           <ns3:TrackPointExtension>             <ns3:hr>114</ns3:hr>           </ns3:TrackPointExtension>         </extensions>       </trkpt>
       <trkpt lat="45.57156843133270740509033203125" lon="14.403786621987819671630859375">         <ele>1278</ele>         <time>2026-02-28T13:13:59.000Z</time>         <extensions>           <ns3:TrackPointExtension>             <ns3:hr>111</ns3:hr>           </ns3:TrackPointExtension>         </extensions>       </trkpt>
       <trkpt lat="45.5715779028832912445068359375" lon="14.4037871249020099639892578125">         <ele>1278</ele>         <time>2026-02-28T13:14:03.000Z</time>         <extensions>           <ns3:TrackPointExtension>             <ns3:hr>108</ns3:hr>           </ns3:TrackPointExtension>         </extensions>       </trkpt>
       <trkpt lat="45.57157346047461032867431640625" lon="14.40378955565392971038818359375">         <ele>1278</ele>         <time>2026-02-28T13:14:05.000Z</time>         <extensions>           <ns3:TrackPointExtension>             <ns3:hr>105</ns3:hr>           </ns3:TrackPointExtension>         </extensions>       </trkpt>
       <trkpt lat="45.57157446630299091339111328125" lon="14.40379642881453037261962890625">         <ele>1278</ele>         <time>2026-02-28T13:14:10.000Z</time>         <extensions>           <ns3:TrackPointExtension>             <ns3:hr>104</ns3:hr>           </ns3:TrackPointExtension>         </extensions>       </trkpt>
       <trkpt lat="45.57157832197844982147216796875" lon="14.4037958420813083648681640625">         <ele>1278</ele>         <time>2026-02-28T13:14:20.000Z</time>         <extensions>           <ns3:TrackPointExtension>             <ns3:hr>104</ns3:hr>           </ns3:TrackPointExtension>         </extensions>       </trkpt>
       <trkpt lat="45.5715913139283657073974609375" lon="14.4037965126335620880126953125">         <ele>1278</ele>         <time>2026-02-28T13:14:30.000Z</time>         <extensions>           <ns3:TrackPointExtension>             <ns3:hr>105</ns3:hr>           </ns3:TrackPointExtension>         </extensions>       </trkpt>
       <trkpt lat="45.57160363532602787017822265625" lon="14.40378536470234394073486328125">         <ele>1278.199951171875</ele>         <time>2026-02-28T13:14:35.000Z</time>         <extensions>           <ns3:TrackPointExtension>             <ns3:hr>99</ns3:hr>           </ns3:TrackPointExtension>         </extensions>       </trkpt>
       <trkpt lat="45.5716084130108356475830078125" lon="14.40377463586628437042236328125">         <ele>1278.199951171875</ele>         <time>2026-02-28T13:14:36.000Z</time>         <extensions>           <ns3:TrackPointExtension>             <ns3:hr>94</ns3:hr>           </ns3:TrackPointExtension>         </extensions>       </trkpt>
       <trkpt lat="45.571613609790802001953125" lon="14.4037696905434131622314453125">         <ele>1278</ele>         <time>2026-02-28T13:14:37.000Z</time>         <extensions>           <ns3:TrackPointExtension>             <ns3:hr>89</ns3:hr>           </ns3:TrackPointExtension>         </extensions>       </trkpt>
       <trkpt lat="45.57161696255207061767578125" lon="14.4037713669240474700927734375">         <ele>1278</ele>         <time>2026-02-28T13:14:38.000Z</time>         <extensions>           <ns3:TrackPointExtension>             <ns3:hr>86</ns3:hr>           </ns3:TrackPointExtension>         </extensions>       </trkpt>
       <trkpt lat="45.5716218240559101104736328125" lon="14.40377078019082546234130859375">         <ele>1278</ele>         <time>2026-02-28T13:14:40.000Z</time>         <extensions>           <ns3:TrackPointExtension>             <ns3:hr>85</ns3:hr>           </ns3:TrackPointExtension>         </extensions>       </trkpt>
       <trkpt lat="45.571628026664257049560546875" lon="14.40379223786294460296630859375">         <ele>1278</ele>         <time>2026-02-28T13:14:45.000Z</time>         <extensions>           <ns3:TrackPointExtension>             <ns3:hr>88</ns3:hr>           </ns3:TrackPointExtension>         </extensions>       </trkpt>
       <trkpt lat="45.57163062505424022674560546875" lon="14.4037941657006740570068359375">         <ele>1278</ele>         <time>2026-02-28T13:14:46.000Z</time>         <extensions>           <ns3:TrackPointExtension>             <ns3:hr>93</ns3:hr>           </ns3:TrackPointExtension>         </extensions>       </trkpt>
       <trkpt lat="45.57163431309163570404052734375" lon="14.40379307605326175689697265625">         <ele>1278</ele>         <time>2026-02-28T13:14:47.000Z</time>         <extensions>           <ns3:TrackPointExtension>             <ns3:hr>102</ns3:hr>           </ns3:TrackPointExtension>         </extensions>       </trkpt>
       <trkpt lat="45.57163096033036708831787109375" lon="14.40379810519516468048095703125">         <ele>1278</ele>         <time>2026-02-28T13:14:48.000Z</time>         <extensions>           <ns3:TrackPointExtension>             <ns3:hr>106</ns3:hr>           </ns3:TrackPointExtension>         </extensions>       </trkpt>
       <trkpt lat="45.57163062505424022674560546875" lon="14.4038002006709575653076171875">         <ele>1278</ele>         <time>2026-02-28T13:14:49.000Z</time>         <extensions>           <ns3:TrackPointExtension>             <ns3:hr>106</ns3:hr>           </ns3:TrackPointExtension>         </extensions>       </trkpt>
       <trkpt lat="45.57160128839313983917236328125" lon="14.403829872608184814453125">         <ele>1278</ele>         <time>2026-02-28T13:14:56.000Z</time>         <extensions>           <ns3:TrackPointExtension>             <ns3:hr>104</ns3:hr>           </ns3:TrackPointExtension>         </extensions>       </trkpt>
       <trkpt lat="45.57159659452736377716064453125" lon="14.40382408909499645233154296875">         <ele>1278</ele>         <time>2026-02-28T13:15:04.000Z</time>         <extensions>           <ns3:TrackPointExtension>             <ns3:hr>100</ns3:hr>           </ns3:TrackPointExtension>         </extensions>       </trkpt>
       <trkpt lat="45.57159072719514369964599609375" lon="14.4038226641714572906494140625">         <ele>1278</ele>         <time>2026-02-28T13:15:07.000Z</time>         <extensions>           <ns3:TrackPointExtension>             <ns3:hr>99</ns3:hr>           </ns3:TrackPointExtension>         </extensions>       </trkpt>
       <trkpt lat="45.5715908110141754150390625" lon="14.40381268970668315887451171875">         <ele>1278</ele>         <time>2026-02-28T13:15:10.000Z</time>         <extensions>           <ns3:TrackPointExtension>             <ns3:hr>102</ns3:hr>           </ns3:TrackPointExtension>         </extensions>       </trkpt>
       <trkpt lat="45.57159458287060260772705078125" lon="14.40381755121052265167236328125">         <ele>1278</ele>         <time>2026-02-28T13:15:12.000Z</time>         <extensions>           <ns3:TrackPointExtension>             <ns3:hr>108</ns3:hr>           </ns3:TrackPointExtension>         </extensions>       </trkpt>
       <trkpt lat="45.57159575633704662322998046875" lon="14.4038169644773006439208984375">         <ele>1278</ele>         <time>2026-02-28T13:15:14.000Z</time>         <extensions>           <ns3:TrackPointExtension>             <ns3:hr>109</ns3:hr>           </ns3:TrackPointExtension>         </extensions>       </trkpt>
       <trkpt lat="45.571601875126361846923828125" lon="14.403826855123043060302734375">         <ele>1278</ele>         <time>2026-02-28T13:15:16.000Z</time>         <extensions>           <ns3:TrackPointExtension>             <ns3:hr>105</ns3:hr>           </ns3:TrackPointExtension>         </extensions>       </trkpt>
       <trkpt lat="45.57160967029631137847900390625" lon="14.4038404338061809539794921875">         <ele>1278</ele>         <time>2026-02-28T13:15:18.000Z</time>         <extensions>           <ns3:TrackPointExtension>             <ns3:hr>101</ns3:hr>           </ns3:TrackPointExtension>         </extensions>       </trkpt>
       <trkpt lat="45.57160749100148677825927734375" lon="14.40384353511035442352294921875">         <ele>1278.199951171875</ele>         <time>2026-02-28T13:15:20.000Z</time>         <extensions>           <ns3:TrackPointExtension>             <ns3:hr>100</ns3:hr>           </ns3:TrackPointExtension>         </extensions>       </trkpt>
       <trkpt lat="45.57160430587828159332275390625" lon="14.4038411043584346771240234375">         <ele>1278.199951171875</ele>         <time>2026-02-28T13:15:23.000Z</time>         <extensions>           <ns3:TrackPointExtension>             <ns3:hr>95</ns3:hr>           </ns3:TrackPointExtension>         </extensions>       </trkpt>
       <trkpt lat="45.5716003663837909698486328125" lon="14.40385024063289165496826171875">         <ele>1278.4000244140625</ele>         <time>2026-02-28T13:15:25.000Z</time>         <extensions>           <ns3:TrackPointExtension>             <ns3:hr>92</ns3:hr>           </ns3:TrackPointExtension>         </extensions>       </trkpt>
       <trkpt lat="45.57157429866492748260498046875" lon="14.403885863721370697021484375">         <ele>1278.4000244140625</ele>         <time>2026-02-28T13:15:30.000Z</time>         <extensions>           <ns3:TrackPointExtension>             <ns3:hr>93</ns3:hr>           </ns3:TrackPointExtension>         </extensions>       </trkpt>
       <trkpt lat="45.5715500749647617340087890625" lon="14.403868429362773895263671875">         <ele>1278.4000244140625</ele>         <time>2026-02-28T13:15:38.000Z</time>         <extensions>           <ns3:TrackPointExtension>             <ns3:hr>92</ns3:hr>           </ns3:TrackPointExtension>         </extensions>       </trkpt>
       <trkpt lat="45.57151906192302703857421875" lon="14.40384588204324245452880859375">         <ele>1278.4000244140625</ele>         <time>2026-02-28T13:15:45.000Z</time>         <extensions>           <ns3:TrackPointExtension>             <ns3:hr>95</ns3:hr>           </ns3:TrackPointExtension>         </extensions>       </trkpt>
       <trkpt lat="45.5715185590088367462158203125" lon="14.40384328365325927734375">         <ele>1278.4000244140625</ele>         <time>2026-02-28T13:15:46.000Z</time>         <extensions>           <ns3:TrackPointExtension>             <ns3:hr>99</ns3:hr>           </ns3:TrackPointExtension>         </extensions>       </trkpt>
       <trkpt lat="45.57151646353304386138916015625" lon="14.4038392603397369384765625">         <ele>1278.4000244140625</ele>         <time>2026-02-28T13:15:47.000Z</time>         <extensions>           <ns3:TrackPointExtension>             <ns3:hr>104</ns3:hr>           </ns3:TrackPointExtension>         </extensions>       </trkpt>
       <trkpt lat="45.5715172179043292999267578125" lon="14.40383213572204113006591796875">         <ele>1278.4000244140625</ele>         <time>2026-02-28T13:15:48.000Z</time>         <extensions>           <ns3:TrackPointExtension>             <ns3:hr>104</ns3:hr>           </ns3:TrackPointExtension>         </extensions>       </trkpt>
       <trkpt lat="45.5715199001133441925048828125" lon="14.40380045212805271148681640625">         <ele>1278.5999755859375</ele>         <time>2026-02-28T13:15:54.000Z</time>         <extensions>           <ns3:TrackPointExtension>             <ns3:hr>104</ns3:hr>           </ns3:TrackPointExtension>         </extensions>       </trkpt>
       <trkpt lat="45.57151512242853641510009765625" lon="14.4038099236786365509033203125">         <ele>1278.5999755859375</ele>         <time>2026-02-28T13:15:59.000Z</time>         <extensions>           <ns3:TrackPointExtension>             <ns3:hr>104</ns3:hr>           </ns3:TrackPointExtension>         </extensions>       </trkpt>
       <trkpt lat="45.5715584568679332733154296875" lon="14.4037981890141963958740234375">         <ele>1278</ele>         <time>2026-02-28T13:16:06.000Z</time>         <extensions>           <ns3:TrackPointExtension>             <ns3:hr>106</ns3:hr>           </ns3:TrackPointExtension>         </extensions>       </trkpt>
       <trkpt lat="45.5715608038008213043212890625" lon="14.403808750212192535400390625">         <ele>1278.199951171875</ele>         <time>2026-02-28T13:16:11.000Z</time>         <extensions>           <ns3:TrackPointExtension>             <ns3:hr>106</ns3:hr>           </ns3:TrackPointExtension>         </extensions>       </trkpt>
       <trkpt lat="45.57152710855007171630859375" lon="14.40380346961319446563720703125">         <ele>1278</ele>         <time>2026-02-28T13:16:17.000Z</time>         <extensions>           <ns3:TrackPointExtension>             <ns3:hr>109</ns3:hr>           </ns3:TrackPointExtension>         </extensions>       </trkpt>
       <trkpt lat="45.5715255998075008392333984375" lon="14.40379240550100803375244140625">         <ele>1278.4000244140625</ele>         <time>2026-02-28T13:16:21.000Z</time>         <extensions>           <ns3:TrackPointExtension>             <ns3:hr>108</ns3:hr>           </ns3:TrackPointExtension>         </extensions>       </trkpt>
       <trkpt lat="45.571543872356414794921875" lon="14.40377421677112579345703125">         <ele>1278.199951171875</ele>         <time>2026-02-28T13:16:29.000Z</time>         <extensions>           <ns3:TrackPointExtension>             <ns3:hr>105</ns3:hr>           </ns3:TrackPointExtension>         </extensions>       </trkpt>
       <trkpt lat="45.57155284099280834197998046875" lon="14.40377094782888889312744140625">         <ele>1278.199951171875</ele>         <time>2026-02-28T13:16:31.000Z</time>         <extensions>           <ns3:TrackPointExtension>             <ns3:hr>106</ns3:hr>           </ns3:TrackPointExtension>         </extensions>       </trkpt>
       <trkpt lat="45.57159391231834888458251953125" lon="14.40377061255276203155517578125">         <ele>1278</ele>         <time>2026-02-28T13:16:38.000Z</time>         <extensions>           <ns3:TrackPointExtension>             <ns3:hr>104</ns3:hr>           </ns3:TrackPointExtension>         </extensions>       </trkpt>
       <trkpt lat="45.5716712772846221923828125" lon="14.403770528733730316162109375">         <ele>1278</ele>         <time>2026-02-28T13:16:46.000Z</time>         <extensions>           <ns3:TrackPointExtension>             <ns3:hr>104</ns3:hr>           </ns3:TrackPointExtension>         </extensions>       </trkpt>
       <trkpt lat="45.5716390907764434814453125" lon="14.4037837721407413482666015625">         <ele>1277.800048828125</ele>         <time>2026-02-28T13:16:50.000Z</time>         <extensions>           <ns3:TrackPointExtension>             <ns3:hr>101</ns3:hr>           </ns3:TrackPointExtension>         </extensions>       </trkpt>
       <trkpt lat="45.571643449366092681884765625" lon="14.40379693172872066497802734375">         <ele>1277.800048828125</ele>         <time>2026-02-28T13:16:54.000Z</time>         <extensions>           <ns3:TrackPointExtension>             <ns3:hr>101</ns3:hr>           </ns3:TrackPointExtension>         </extensions>       </trkpt>
       <trkpt lat="45.57163883931934833526611328125" lon="14.40381444990634918212890625">         <ele>1277.800048828125</ele>         <time>2026-02-28T13:16:59.000Z</time>         <extensions>           <ns3:TrackPointExtension>             <ns3:hr>98</ns3:hr>           </ns3:TrackPointExtension>         </extensions>       </trkpt>
       <trkpt lat="45.57159173302352428436279296875" lon="14.40382978878915309906005859375">         <ele>1277.800048828125</ele>         <time>2026-02-28T13:17:03.000Z</time>         <extensions>           <ns3:TrackPointExtension>             <ns3:hr>96</ns3:hr>           </ns3:TrackPointExtension>         </extensions>       </trkpt>
       <trkpt lat="45.571580417454242706298828125" lon="14.403839595615863800048828125">         <ele>1277.800048828125</ele>         <time>2026-02-28T13:17:06.000Z</time>         <extensions>           <ns3:TrackPointExtension>             <ns3:hr>93</ns3:hr>           </ns3:TrackPointExtension>         </extensions>       </trkpt>
       <trkpt lat="45.57156071998178958892822265625" lon="14.403844289481639862060546875">         <ele>1277.800048828125</ele>         <time>2026-02-28T13:17:11.000Z</time>         <extensions>           <ns3:TrackPointExtension>             <ns3:hr>94</ns3:hr>           </ns3:TrackPointExtension>         </extensions>       </trkpt>
       <trkpt lat="45.57155770249664783477783203125" lon="14.40384269692003726959228515625">         <ele>1277.800048828125</ele>         <time>2026-02-28T13:17:12.000Z</time>         <extensions>           <ns3:TrackPointExtension>             <ns3:hr>99</ns3:hr>           </ns3:TrackPointExtension>         </extensions>       </trkpt>
       <trkpt lat="45.571562312543392181396484375" lon="14.403840266168117523193359375">         <ele>1277.800048828125</ele>         <time>2026-02-28T13:17:13.000Z</time>         <extensions>           <ns3:TrackPointExtension>             <ns3:hr>99</ns3:hr>           </ns3:TrackPointExtension>         </extensions>       </trkpt>
       <trkpt lat="45.57156206108629703521728515625" lon="14.40383247099816799163818359375">         <ele>1277.800048828125</ele>         <time>2026-02-28T13:17:17.000Z</time>         <extensions>           <ns3:TrackPointExtension>             <ns3:hr>101</ns3:hr>           </ns3:TrackPointExtension>         </extensions>       </trkpt>
       <trkpt lat="45.57155133225023746490478515625" lon="14.40382610075175762176513671875">         <ele>1277.5999755859375</ele>         <time>2026-02-28T13:17:20.000Z</time>         <extensions>           <ns3:TrackPointExtension>             <ns3:hr>101</ns3:hr>           </ns3:TrackPointExtension>         </extensions>       </trkpt>
       <trkpt lat="45.57154160924255847930908203125" lon="14.40382023341953754425048828125">         <ele>1277.199951171875</ele>         <time>2026-02-28T13:17:24.000Z</time>         <extensions>           <ns3:TrackPointExtension>             <ns3:hr>101</ns3:hr>           </ns3:TrackPointExtension>         </extensions>       </trkpt>
       <trkpt lat="45.5715276114642620086669921875" lon="14.40381051041185855865478515625">         <ele>1277.4000244140625</ele>         <time>2026-02-28T13:17:30.000Z</time>         <extensions>           <ns3:TrackPointExtension>             <ns3:hr>102</ns3:hr>           </ns3:TrackPointExtension>         </extensions>       </trkpt>
       <trkpt lat="45.57152685709297657012939453125" lon="14.4038075767457485198974609375">         <ele>1277.4000244140625</ele>         <time>2026-02-28T13:17:34.000Z</time>         <extensions>           <ns3:TrackPointExtension>             <ns3:hr>99</ns3:hr>           </ns3:TrackPointExtension>         </extensions>       </trkpt>
       <trkpt lat="45.5715318024158477783203125" lon="14.40380883403122425079345703125">         <ele>1277.4000244140625</ele>         <time>2026-02-28T13:17:35.000Z</time>         <extensions>           <ns3:TrackPointExtension>             <ns3:hr>96</ns3:hr>           </ns3:TrackPointExtension>         </extensions>       </trkpt>
       <trkpt lat="45.5715527571737766265869140625" lon="14.4038186408579349517822265625">         <ele>1277.4000244140625</ele>         <time>2026-02-28T13:17:39.000Z</time>         <extensions>           <ns3:TrackPointExtension>             <ns3:hr>96</ns3:hr>           </ns3:TrackPointExtension>         </extensions>       </trkpt>
       <trkpt lat="45.57157547213137149810791015625" lon="14.40381444990634918212890625">         <ele>1277.4000244140625</ele>         <time>2026-02-28T13:17:47.000Z</time>         <extensions>           <ns3:TrackPointExtension>             <ns3:hr>96</ns3:hr>           </ns3:TrackPointExtension>         </extensions>       </trkpt>
       <trkpt lat="45.57156222872436046600341796875" lon="14.40381444990634918212890625">         <ele>1277.199951171875</ele>         <time>2026-02-28T13:17:51.000Z</time>         <extensions>           <ns3:TrackPointExtension>             <ns3:hr>93</ns3:hr>           </ns3:TrackPointExtension>         </extensions>       </trkpt>
       <trkpt lat="45.5715505778789520263671875" lon="14.40381067804992198944091796875">         <ele>1277.199951171875</ele>         <time>2026-02-28T13:17:53.000Z</time>         <extensions>           <ns3:TrackPointExtension>             <ns3:hr>89</ns3:hr>           </ns3:TrackPointExtension>         </extensions>       </trkpt>
       <trkpt lat="45.57155049405992031097412109375" lon="14.4038089178502559661865234375">         <ele>1277.199951171875</ele>         <time>2026-02-28T13:17:54.000Z</time>         <extensions>           <ns3:TrackPointExtension>             <ns3:hr>87</ns3:hr>           </ns3:TrackPointExtension>         </extensions>       </trkpt>
       <trkpt lat="45.57154479436576366424560546875" lon="14.4038035534322261810302734375">         <ele>1277.199951171875</ele>         <time>2026-02-28T13:17:57.000Z</time>         <extensions>           <ns3:TrackPointExtension>             <ns3:hr>84</ns3:hr>           </ns3:TrackPointExtension>         </extensions>       </trkpt>
       <trkpt lat="45.5715366639196872711181640625" lon="14.4037936627864837646484375">         <ele>1277.199951171875</ele>         <time>2026-02-28T13:18:03.000Z</time>         <extensions>           <ns3:TrackPointExtension>             <ns3:hr>83</ns3:hr>           </ns3:TrackPointExtension>         </extensions>       </trkpt>
       <trkpt lat="45.571515373885631561279296875" lon="14.40379165112972259521484375">         <ele>1277.199951171875</ele>         <time>2026-02-28T13:18:09.000Z</time>         <extensions>           <ns3:TrackPointExtension>             <ns3:hr>83</ns3:hr>           </ns3:TrackPointExtension>         </extensions>       </trkpt>
       <trkpt lat="45.57149735279381275177001953125" lon="14.40380212850868701934814453125">         <ele>1277.199951171875</ele>         <time>2026-02-28T13:18:15.000Z</time>         <extensions>           <ns3:TrackPointExtension>             <ns3:hr>86</ns3:hr>           </ns3:TrackPointExtension>         </extensions>       </trkpt>
       <trkpt lat="45.571493245661258697509765625" lon="14.403803050518035888671875">         <ele>1277.199951171875</ele>         <time>2026-02-28T13:18:16.000Z</time>         <extensions>           <ns3:TrackPointExtension>             <ns3:hr>87</ns3:hr>           </ns3:TrackPointExtension>         </extensions>       </trkpt>
       <trkpt lat="45.57149366475641727447509765625" lon="14.40380799584090709686279296875">         <ele>1277.199951171875</ele>         <time>2026-02-28T13:18:19.000Z</time>         <extensions>           <ns3:TrackPointExtension>             <ns3:hr>90</ns3:hr>           </ns3:TrackPointExtension>         </extensions>       </trkpt>
       <trkpt lat="45.57149768806993961334228515625" lon="14.4038052298128604888916015625">         <ele>1277</ele>         <time>2026-02-28T13:18:25.000Z</time>         <extensions>           <ns3:TrackPointExtension>             <ns3:hr>90</ns3:hr>           </ns3:TrackPointExtension>         </extensions>       </trkpt>
       <trkpt lat="45.57151327840983867645263671875" lon="14.40379299223423004150390625">         <ele>1277</ele>         <time>2026-02-28T13:18:33.000Z</time>         <extensions>           <ns3:TrackPointExtension>             <ns3:hr>86</ns3:hr>           </ns3:TrackPointExtension>         </extensions>       </trkpt>
       <trkpt lat="45.5715031363070011138916015625" lon="14.40378553234040737152099609375">         <ele>1277</ele>         <time>2026-02-28T13:18:36.000Z</time>         <extensions>           <ns3:TrackPointExtension>             <ns3:hr>89</ns3:hr>           </ns3:TrackPointExtension>         </extensions>       </trkpt>
       <trkpt lat="45.571481175720691680908203125" lon="14.40378670580685138702392578125">         <ele>1276.5999755859375</ele>         <time>2026-02-28T13:18:42.000Z</time>         <extensions>           <ns3:TrackPointExtension>             <ns3:hr>90</ns3:hr>           </ns3:TrackPointExtension>         </extensions>       </trkpt>
       <trkpt lat="45.57148285210132598876953125" lon="14.4037881307303905487060546875">         <ele>1276.5999755859375</ele>         <time>2026-02-28T13:18:44.000Z</time>         <extensions>           <ns3:TrackPointExtension>             <ns3:hr>87</ns3:hr>           </ns3:TrackPointExtension>         </extensions>       </trkpt>
       <trkpt lat="45.571488551795482635498046875" lon="14.40378754399716854095458984375">         <ele>1276.800048828125</ele>         <time>2026-02-28T13:18:45.000Z</time>         <extensions>           <ns3:TrackPointExtension>             <ns3:hr>84</ns3:hr>           </ns3:TrackPointExtension>         </extensions>       </trkpt>
       <trkpt lat="45.57155317626893520355224609375" lon="14.403808414936065673828125">         <ele>1276.5999755859375</ele>         <time>2026-02-28T13:18:51.000Z</time>         <extensions>           <ns3:TrackPointExtension>             <ns3:hr>83</ns3:hr>           </ns3:TrackPointExtension>         </extensions>       </trkpt>
       <trkpt lat="45.5715758912265300750732421875" lon="14.40381436608731746673583984375">         <ele>1276.5999755859375</ele>         <time>2026-02-28T13:18:55.000Z</time>         <extensions>           <ns3:TrackPointExtension>             <ns3:hr>86</ns3:hr>           </ns3:TrackPointExtension>         </extensions>       </trkpt>
       <trkpt lat="45.57156155817210674285888671875" lon="14.40379299223423004150390625">         <ele>1276.4000244140625</ele>         <time>2026-02-28T13:18:59.000Z</time>         <extensions>           <ns3:TrackPointExtension>             <ns3:hr>85</ns3:hr>           </ns3:TrackPointExtension>         </extensions>       </trkpt>
       <trkpt lat="45.57155217044055461883544921875" lon="14.40379072912037372589111328125">         <ele>1276.4000244140625</ele>         <time>2026-02-28T13:19:09.000Z</time>         <extensions>           <ns3:TrackPointExtension>             <ns3:hr>86</ns3:hr>           </ns3:TrackPointExtension>         </extensions>       </trkpt>
       <trkpt lat="45.571554936468601226806640625" lon="14.403793327510356903076171875">         <ele>1276.4000244140625</ele>         <time>2026-02-28T13:19:11.000Z</time>         <extensions>           <ns3:TrackPointExtension>             <ns3:hr>81</ns3:hr>           </ns3:TrackPointExtension>         </extensions>       </trkpt>
       <trkpt lat="45.57155753485858440399169921875" lon="14.40379609353840351104736328125">         <ele>1276.4000244140625</ele>         <time>2026-02-28T13:19:12.000Z</time>         <extensions>           <ns3:TrackPointExtension>             <ns3:hr>81</ns3:hr>           </ns3:TrackPointExtension>         </extensions>       </trkpt>
       <trkpt lat="45.5715648271143436431884765625" lon="14.4037963449954986572265625">         <ele>1276.4000244140625</ele>         <time>2026-02-28T13:19:19.000Z</time>         <extensions>           <ns3:TrackPointExtension>             <ns3:hr>81</ns3:hr>           </ns3:TrackPointExtension>         </extensions>       </trkpt>
       <trkpt lat="45.57155317626893520355224609375" lon="14.40375418402254581451416015625">         <ele>1276.800048828125</ele>         <time>2026-02-28T13:19:26.000Z</time>         <extensions>           <ns3:TrackPointExtension>             <ns3:hr>81</ns3:hr>           </ns3:TrackPointExtension>         </extensions>       </trkpt>
       <trkpt lat="45.5715490691363811492919921875" lon="14.4037411920726299285888671875">         <ele>1277.199951171875</ele>         <time>2026-02-28T13:19:30.000Z</time>         <extensions>           <ns3:TrackPointExtension>             <ns3:hr>84</ns3:hr>           </ns3:TrackPointExtension>         </extensions>       </trkpt>
       <trkpt lat="45.57154454290866851806640625" lon="14.40373666584491729736328125">         <ele>1277.199951171875</ele>         <time>2026-02-28T13:19:37.000Z</time>         <extensions>           <ns3:TrackPointExtension>             <ns3:hr>87</ns3:hr>           </ns3:TrackPointExtension>         </extensions>       </trkpt>
       <trkpt lat="45.571532137691974639892578125" lon="14.4037361629307270050048828125">         <ele>1277.199951171875</ele>         <time>2026-02-28T13:19:42.000Z</time>         <extensions>           <ns3:TrackPointExtension>             <ns3:hr>90</ns3:hr>           </ns3:TrackPointExtension>         </extensions>       </trkpt>
       <trkpt lat="45.571524091064929962158203125" lon="14.40376005135476589202880859375">         <ele>1277.199951171875</ele>         <time>2026-02-28T13:19:47.000Z</time>         <extensions>           <ns3:TrackPointExtension>             <ns3:hr>90</ns3:hr>           </ns3:TrackPointExtension>         </extensions>       </trkpt>
       <trkpt lat="45.57150757871568202972412109375" lon="14.403761141002178192138671875">         <ele>1276.199951171875</ele>         <time>2026-02-28T13:19:54.000Z</time>         <extensions>           <ns3:TrackPointExtension>             <ns3:hr>93</ns3:hr>           </ns3:TrackPointExtension>         </extensions>       </trkpt>
       <trkpt lat="45.57150254957377910614013671875" lon="14.403758458793163299560546875">         <ele>1276.199951171875</ele>         <time>2026-02-28T13:19:55.000Z</time>         <extensions>           <ns3:TrackPointExtension>             <ns3:hr>93</ns3:hr>           </ns3:TrackPointExtension>         </extensions>       </trkpt>
       <trkpt lat="45.57150858454406261444091796875" lon="14.4037453830242156982421875">         <ele>1276.4000244140625</ele>         <time>2026-02-28T13:20:01.000Z</time>         <extensions>           <ns3:TrackPointExtension>             <ns3:hr>94</ns3:hr>           </ns3:TrackPointExtension>         </extensions>       </trkpt>
       <trkpt lat="45.57152836583554744720458984375" lon="14.40372250042855739593505859375">         <ele>1276.199951171875</ele>         <time>2026-02-28T13:20:08.000Z</time>         <extensions>           <ns3:TrackPointExtension>             <ns3:hr>97</ns3:hr>           </ns3:TrackPointExtension>         </extensions>       </trkpt>
       <trkpt lat="45.571518726646900177001953125" lon="14.40372803248465061187744140625">         <ele>1276.199951171875</ele>         <time>2026-02-28T13:20:10.000Z</time>         <extensions>           <ns3:TrackPointExtension>             <ns3:hr>98</ns3:hr>           </ns3:TrackPointExtension>         </extensions>       </trkpt>
       <trkpt lat="45.5715098418295383453369140625" lon="14.4037405215203762054443359375">         <ele>1276.199951171875</ele>         <time>2026-02-28T13:20:13.000Z</time>         <extensions>           <ns3:TrackPointExtension>             <ns3:hr>95</ns3:hr>           </ns3:TrackPointExtension>         </extensions>       </trkpt>
       <trkpt lat="45.57150640524923801422119140625" lon="14.40374479629099369049072265625">         <ele>1276.199951171875</ele>         <time>2026-02-28T13:20:15.000Z</time>         <extensions>           <ns3:TrackPointExtension>             <ns3:hr>92</ns3:hr>           </ns3:TrackPointExtension>         </extensions>       </trkpt>
       <trkpt lat="45.57151244021952152252197265625" lon="14.403743036091327667236328125">         <ele>1276.199951171875</ele>         <time>2026-02-28T13:20:18.000Z</time>         <extensions>           <ns3:TrackPointExtension>             <ns3:hr>91</ns3:hr>           </ns3:TrackPointExtension>         </extensions>       </trkpt>
       <trkpt lat="45.57154990732669830322265625" lon="14.403756447136402130126953125">         <ele>1276.199951171875</ele>         <time>2026-02-28T13:20:24.000Z</time>         <extensions>           <ns3:TrackPointExtension>             <ns3:hr>89</ns3:hr>           </ns3:TrackPointExtension>         </extensions>       </trkpt>
       <trkpt lat="45.57165292091667652130126953125" lon="14.403831548988819122314453125">         <ele>1275.5999755859375</ele>         <time>2026-02-28T13:20:33.000Z</time>         <extensions>           <ns3:TrackPointExtension>             <ns3:hr>92</ns3:hr>           </ns3:TrackPointExtension>         </extensions>       </trkpt>
       <trkpt lat="45.5716660805046558380126953125" lon="14.40384672023355960845947265625">         <ele>1275.5999755859375</ele>         <time>2026-02-28T13:20:35.000Z</time>         <extensions>           <ns3:TrackPointExtension>             <ns3:hr>91</ns3:hr>           </ns3:TrackPointExtension>         </extensions>       </trkpt>
       <trkpt lat="45.57168401777744293212890625" lon="14.40385979600250720977783203125">         <ele>1275.4000244140625</ele>         <time>2026-02-28T13:20:37.000Z</time>         <extensions>           <ns3:TrackPointExtension>             <ns3:hr>87</ns3:hr>           </ns3:TrackPointExtension>         </extensions>       </trkpt>
       <trkpt lat="45.57171628810465335845947265625" lon="14.403888545930385589599609375">         <ele>1275</ele>         <time>2026-02-28T13:20:40.000Z</time>         <extensions>           <ns3:TrackPointExtension>             <ns3:hr>88</ns3:hr>           </ns3:TrackPointExtension>         </extensions>       </trkpt>
       <trkpt lat="45.57182441465556621551513671875" lon="14.403972364962100982666015625">         <ele>1274.5999755859375</ele>         <time>2026-02-28T13:20:49.000Z</time>         <extensions>           <ns3:TrackPointExtension>             <ns3:hr>87</ns3:hr>           </ns3:TrackPointExtension>         </extensions>       </trkpt>
       <trkpt lat="45.5718374066054821014404296875" lon="14.40398351289331912994384765625">         <ele>1274.5999755859375</ele>         <time>2026-02-28T13:20:50.000Z</time>         <extensions>           <ns3:TrackPointExtension>             <ns3:hr>87</ns3:hr>           </ns3:TrackPointExtension>         </extensions>       </trkpt>
       <trkpt lat="45.57195357978343963623046875" lon="14.40403212793171405792236328125">         <ele>1274.4000244140625</ele>         <time>2026-02-28T13:20:58.000Z</time>         <extensions>           <ns3:TrackPointExtension>             <ns3:hr>88</ns3:hr>           </ns3:TrackPointExtension>         </extensions>       </trkpt>
       <trkpt lat="45.57207469828426837921142578125" lon="14.4040690921247005462646484375">         <ele>1274.199951171875</ele>         <time>2026-02-28T13:21:05.000Z</time>         <extensions>           <ns3:TrackPointExtension>             <ns3:hr>88</ns3:hr>           </ns3:TrackPointExtension>         </extensions>       </trkpt>
       <trkpt lat="45.57216891087591648101806640625" lon="14.404098428785800933837890625">         <ele>1274</ele>         <time>2026-02-28T13:21:14.000Z</time>         <extensions>           <ns3:TrackPointExtension>             <ns3:hr>90</ns3:hr>           </ns3:TrackPointExtension>         </extensions>       </trkpt>
       <trkpt lat="45.572187267243862152099609375" lon="14.40411577932536602020263671875">         <ele>1273.800048828125</ele>         <time>2026-02-28T13:21:17.000Z</time>         <extensions>           <ns3:TrackPointExtension>             <ns3:hr>93</ns3:hr>           </ns3:TrackPointExtension>         </extensions>       </trkpt>
       <trkpt lat="45.57221802882850170135498046875" lon="14.4041167013347148895263671875">         <ele>1273.5999755859375</ele>         <time>2026-02-28T13:21:21.000Z</time>         <extensions>           <ns3:TrackPointExtension>             <ns3:hr>94</ns3:hr>           </ns3:TrackPointExtension>         </extensions>       </trkpt>
       <trkpt lat="45.57222674600780010223388671875" lon="14.40411477349698543548583984375">         <ele>1273.4000244140625</ele>         <time>2026-02-28T13:21:22.000Z</time>         <extensions>           <ns3:TrackPointExtension>             <ns3:hr>95</ns3:hr>           </ns3:TrackPointExtension>         </extensions>       </trkpt>
       <trkpt lat="45.5722360499203205108642578125" lon="14.40410002134740352630615234375">         <ele>1273.199951171875</ele>         <time>2026-02-28T13:21:30.000Z</time>         <extensions>           <ns3:TrackPointExtension>             <ns3:hr>90</ns3:hr>           </ns3:TrackPointExtension>         </extensions>       </trkpt>
       <trkpt lat="45.5722306855022907257080078125" lon="14.4040989316999912261962890625">         <ele>1273.199951171875</ele>         <time>2026-02-28T13:21:31.000Z</time>         <extensions>           <ns3:TrackPointExtension>             <ns3:hr>87</ns3:hr>           </ns3:TrackPointExtension>         </extensions>       </trkpt>
       <trkpt lat="45.5722290091216564178466796875" lon="14.40410085953772068023681640625">         <ele>1273.199951171875</ele>         <time>2026-02-28T13:21:32.000Z</time>         <extensions>           <ns3:TrackPointExtension>             <ns3:hr>87</ns3:hr>           </ns3:TrackPointExtension>         </extensions>       </trkpt>
       <trkpt lat="45.572239570319652557373046875" lon="14.404076635837554931640625">         <ele>1273.199951171875</ele>         <time>2026-02-28T13:21:35.000Z</time>         <extensions>           <ns3:TrackPointExtension>             <ns3:hr>86</ns3:hr>           </ns3:TrackPointExtension>         </extensions>       </trkpt>
       <trkpt lat="45.572284497320652008056640625" lon="14.40394797362387180328369140625">         <ele>1272.800048828125</ele>         <time>2026-02-28T13:21:43.000Z</time>         <extensions>           <ns3:TrackPointExtension>             <ns3:hr>85</ns3:hr>           </ns3:TrackPointExtension>         </extensions>       </trkpt>
       <trkpt lat="45.5723852477967739105224609375" lon="14.40383951179683208465576171875">         <ele>1272.5999755859375</ele>         <time>2026-02-28T13:21:50.000Z</time>         <extensions>           <ns3:TrackPointExtension>             <ns3:hr>85</ns3:hr>           </ns3:TrackPointExtension>         </extensions>       </trkpt>
     </trkseg>
   </trk>
 </gpx> 